<?xml version='1.0' encoding='UTF-8'?><gpx version="1.1" creator="JPX - https://github.com/jenetics/jpx" xmlns="http://www.topografix.com/GPX/1/1"><trk><trkseg><trkpt lat="45.089225" lon="11.7855128"><ele>1.9999999999999998</ele><time>2026-04-26T13:01:22.903Z</time></trkpt><trkpt lat="45.0892481" lon="11.7856005"><ele>2.0</ele><time>2026-04-26T13:01:29.904Z</time></trkpt><trkpt lat="45.0892929" lon="11.7856636"><ele>2.0</ele><time>2026-04-26T13:04:57.904Z</time></trkpt><trkpt lat="45.089311" lon="11.7855593"><ele>2.0</ele><time>2026-04-26T13:07:37.904Z</time></trkpt><trkpt lat="45.0892991" lon="11.7854704"><ele>1.9999999999999998</ele><time>2026-04-26T13:07:41.903Z</time></trkpt><trkpt lat="45.089239" lon="11.7854239"><ele>2.0</ele><time>2026-04-26T13:07:43.904Z</time></trkpt><trkpt lat="45.0891253" lon="11.7853736"><ele>2.333333333333333</ele><time>2026-04-26T13:07:45.903Z</time></trkpt><trkpt lat="45.0890614" lon="11.7853639"><ele>2.6666666666666665</ele><time>2026-04-26T13:07:46.904Z</time></trkpt><trkpt lat="45.088992" lon="11.7853608"><ele>3.0</ele><time>2026-04-26T13:07:47.903Z</time></trkpt><trkpt lat="45.0889251" lon="11.7853567"><ele>3.333333333333333</ele><time>2026-04-26T13:07:48.903Z</time></trkpt><trkpt lat="45.0888003" lon="11.7853571"><ele>3.6666666666666665</ele><time>2026-04-26T13:07:50.903Z</time></trkpt><trkpt lat="45.0887337" lon="11.7853537"><ele>4.0</ele><time>2026-04-26T13:07:51.903Z</time></trkpt><trkpt lat="45.0886079" lon="11.7853585"><ele>3.9999999999999996</ele><time>2026-04-26T13:07:53.904Z</time></trkpt><trkpt lat="45.088543" lon="11.785357"><ele>4.0</ele><time>2026-04-26T13:07:54.903Z</time></trkpt><trkpt lat="45.0884686" lon="11.7853593"><ele>4.0</ele><time>2026-04-26T13:07:55.903Z</time></trkpt><trkpt lat="45.0883816" lon="11.7853619"><ele>4.0</ele><time>2026-04-26T13:07:56.904Z</time></trkpt><trkpt lat="45.0882808" lon="11.7853561"><ele>3.9999999999999996</ele><time>2026-04-26T13:07:57.903Z</time></trkpt><trkpt lat="45.0881713" lon="11.785357"><ele>4.0</ele><time>2026-04-26T13:07:58.903Z</time></trkpt><trkpt lat="45.0880494" lon="11.7853561"><ele>3.25</ele><time>2026-04-26T13:07:59.903Z</time></trkpt><trkpt lat="45.0879243" lon="11.7853574"><ele>2.5</ele><time>2026-04-26T13:08:00.903Z</time></trkpt><trkpt lat="45.087791" lon="11.7853543"><ele>1.75</ele><time>2026-04-26T13:08:01.904Z</time></trkpt><trkpt lat="45.0876561" lon="11.785351"><ele>1.0</ele><time>2026-04-26T13:08:02.904Z</time></trkpt><trkpt lat="45.0875196" lon="11.7853507"><ele>1.5</ele><time>2026-04-26T13:08:03.903Z</time></trkpt><trkpt lat="45.0873848" lon="11.7853514"><ele>2.0</ele><time>2026-04-26T13:08:04.903Z</time></trkpt><trkpt lat="45.0872545" lon="11.7853491"><ele>2.5</ele><time>2026-04-26T13:08:05.904Z</time></trkpt><trkpt lat="45.0871249" lon="11.785347"><ele>3.0</ele><time>2026-04-26T13:08:06.903Z</time></trkpt><trkpt lat="45.0869976" lon="11.7853463"><ele>3.0</ele><time>2026-04-26T13:08:07.904Z</time></trkpt><trkpt lat="45.0868676" lon="11.7853473"><ele>3.0</ele><time>2026-04-26T13:08:08.903Z</time></trkpt><trkpt lat="45.0867376" lon="11.7853482"><ele>3.0</ele><time>2026-04-26T13:08:09.903Z</time></trkpt><trkpt lat="45.0866105" lon="11.7853487"><ele>3.0</ele><time>2026-04-26T13:08:10.904Z</time></trkpt><trkpt lat="45.0864803" lon="11.785349"><ele>3.0</ele><time>2026-04-26T13:08:11.903Z</time></trkpt><trkpt lat="45.0863502" lon="11.7853498"><ele>3.0</ele><time>2026-04-26T13:08:12.903Z</time></trkpt><trkpt lat="45.0862211" lon="11.7853482"><ele>3.0</ele><time>2026-04-26T13:08:13.903Z</time></trkpt><trkpt lat="45.0860927" lon="11.7853452"><ele>3.0</ele><time>2026-04-26T13:08:14.904Z</time></trkpt><trkpt lat="45.085962" lon="11.7853428"><ele>3.0</ele><time>2026-04-26T13:08:15.903Z</time></trkpt><trkpt lat="45.0858337" lon="11.7853355"><ele>3.0</ele><time>2026-04-26T13:08:16.903Z</time></trkpt><trkpt lat="45.0857025" lon="11.7853348"><ele>3.0</ele><time>2026-04-26T13:08:17.903Z</time></trkpt><trkpt lat="45.0855721" lon="11.7853343"><ele>3.0</ele><time>2026-04-26T13:08:18.903Z</time></trkpt><trkpt lat="45.0854423" lon="11.7853397"><ele>3.25</ele><time>2026-04-26T13:08:19.903Z</time></trkpt><trkpt lat="45.0853111" lon="11.7853391"><ele>3.5</ele><time>2026-04-26T13:08:20.903Z</time></trkpt><trkpt lat="45.0851833" lon="11.7853373"><ele>3.75</ele><time>2026-04-26T13:08:21.903Z</time></trkpt><trkpt lat="45.0850566" lon="11.7853336"><ele>4.0</ele><time>2026-04-26T13:08:22.903Z</time></trkpt><trkpt lat="45.0849259" lon="11.7853298"><ele>3.5</ele><time>2026-04-26T13:08:23.904Z</time></trkpt><trkpt lat="45.0847952" lon="11.7853302"><ele>3.0</ele><time>2026-04-26T13:08:24.904Z</time></trkpt><trkpt lat="45.0846623" lon="11.7853379"><ele>2.5</ele><time>2026-04-26T13:08:25.903Z</time></trkpt><trkpt lat="45.0845446" lon="11.7853382"><ele>2.0</ele><time>2026-04-26T13:08:26.904Z</time></trkpt><trkpt lat="45.0844253" lon="11.7853367"><ele>2.0</ele><time>2026-04-26T13:08:27.903Z</time></trkpt><trkpt lat="45.0843035" lon="11.7853359"><ele>2.0</ele><time>2026-04-26T13:08:28.904Z</time></trkpt><trkpt lat="45.0841874" lon="11.7853267"><ele>2.0</ele><time>2026-04-26T13:08:29.904Z</time></trkpt><trkpt lat="45.0840757" lon="11.785297"><ele>2.0</ele><time>2026-04-26T13:08:30.903Z</time></trkpt><trkpt lat="45.0839702" lon="11.7852498"><ele>2.0</ele><time>2026-04-26T13:08:31.904Z</time></trkpt><trkpt lat="45.0838648" lon="11.785187"><ele>2.0</ele><time>2026-04-26T13:08:32.903Z</time></trkpt><trkpt lat="45.0837649" lon="11.7851103"><ele>2.0</ele><time>2026-04-26T13:08:33.903Z</time></trkpt><trkpt lat="45.0836763" lon="11.7850258"><ele>2.0</ele><time>2026-04-26T13:08:34.903Z</time></trkpt><trkpt lat="45.0835978" lon="11.784929"><ele>2.0</ele><time>2026-04-26T13:08:35.904Z</time></trkpt><trkpt lat="45.083533" lon="11.7848384"><ele>2.0</ele><time>2026-04-26T13:08:36.904Z</time></trkpt><trkpt lat="45.0834738" lon="11.7847386"><ele>2.0</ele><time>2026-04-26T13:08:37.904Z</time></trkpt><trkpt lat="45.08341" lon="11.7846428"><ele>2.0</ele><time>2026-04-26T13:08:38.903Z</time></trkpt><trkpt lat="45.0833404" lon="11.7845538"><ele>2.0</ele><time>2026-04-26T13:08:39.904Z</time></trkpt><trkpt lat="45.0832622" lon="11.7844806"><ele>2.0</ele><time>2026-04-26T13:08:40.903Z</time></trkpt><trkpt lat="45.0831803" lon="11.78443"><ele>1.6666666666666665</ele><time>2026-04-26T13:08:41.904Z</time></trkpt><trkpt lat="45.0830993" lon="11.7843883"><ele>1.3333333333333333</ele><time>2026-04-26T13:08:42.903Z</time></trkpt><trkpt lat="45.0830217" lon="11.7843383"><ele>1.0</ele><time>2026-04-26T13:08:43.903Z</time></trkpt><trkpt lat="45.0829587" lon="11.7842604"><ele>0.6666666666666666</ele><time>2026-04-26T13:08:44.903Z</time></trkpt><trkpt lat="45.082909" lon="11.784147"><ele>0.3333333333333333</ele><time>2026-04-26T13:08:45.903Z</time></trkpt><trkpt lat="45.0828712" lon="11.7840257"><ele>0.0</ele><time>2026-04-26T13:08:46.904Z</time></trkpt><trkpt lat="45.0828575" lon="11.7838364"><ele>-0.3333333333333333</ele><time>2026-04-26T13:08:47.903Z</time></trkpt><trkpt lat="45.0828524" lon="11.7836396"><ele>-0.6666666666666666</ele><time>2026-04-26T13:08:48.904Z</time></trkpt><trkpt lat="45.0828607" lon="11.7834115"><ele>-1.0</ele><time>2026-04-26T13:08:49.903Z</time></trkpt><trkpt lat="45.0828615" lon="11.7831869"><ele>-1.0</ele><time>2026-04-26T13:08:50.903Z</time></trkpt><trkpt lat="45.0828595" lon="11.7829416"><ele>-1.0</ele><time>2026-04-26T13:08:51.904Z</time></trkpt><trkpt lat="45.0828544" lon="11.7826937"><ele>-1.0</ele><time>2026-04-26T13:08:52.904Z</time></trkpt><trkpt lat="45.0828442" lon="11.7824552"><ele>-0.6666666666666666</ele><time>2026-04-26T13:08:53.903Z</time></trkpt><trkpt lat="45.0828395" lon="11.7822196"><ele>-0.3333333333333333</ele><time>2026-04-26T13:08:54.904Z</time></trkpt><trkpt lat="45.0828387" lon="11.7820016"><ele>0.0</ele><time>2026-04-26T13:08:55.903Z</time></trkpt><trkpt lat="45.082838" lon="11.7817945"><ele>0.25</ele><time>2026-04-26T13:08:56.903Z</time></trkpt><trkpt lat="45.0828375" lon="11.7815851"><ele>0.5</ele><time>2026-04-26T13:08:57.904Z</time></trkpt><trkpt lat="45.0828332" lon="11.7813795"><ele>0.75</ele><time>2026-04-26T13:08:58.904Z</time></trkpt><trkpt lat="45.082832" lon="11.7811765"><ele>1.0</ele><time>2026-04-26T13:08:59.903Z</time></trkpt><trkpt lat="45.0828313" lon="11.7809675"><ele>1.25</ele><time>2026-04-26T13:09:00.903Z</time></trkpt><trkpt lat="45.0828301" lon="11.7807569"><ele>1.5</ele><time>2026-04-26T13:09:01.903Z</time></trkpt><trkpt lat="45.0828318" lon="11.7805657"><ele>1.75</ele><time>2026-04-26T13:09:02.904Z</time></trkpt><trkpt lat="45.0828261" lon="11.780348"><ele>2.0</ele><time>2026-04-26T13:09:03.903Z</time></trkpt><trkpt lat="45.0828093" lon="11.7801383"><ele>2.0</ele><time>2026-04-26T13:09:04.903Z</time></trkpt><trkpt lat="45.0827809" lon="11.7799326"><ele>2.0</ele><time>2026-04-26T13:09:05.904Z</time></trkpt><trkpt lat="45.082738" lon="11.7797248"><ele>2.0</ele><time>2026-04-26T13:09:06.903Z</time></trkpt><trkpt lat="45.0826886" lon="11.7795129"><ele>1.3333333333333333</ele><time>2026-04-26T13:09:07.903Z</time></trkpt><trkpt lat="45.0826311" lon="11.7793033"><ele>0.6666666666666666</ele><time>2026-04-26T13:09:08.904Z</time></trkpt><trkpt lat="45.0825694" lon="11.779099"><ele>0.0</ele><time>2026-04-26T13:09:09.903Z</time></trkpt><trkpt lat="45.0825073" lon="11.7789036"><ele>0.0</ele><time>2026-04-26T13:09:10.904Z</time></trkpt><trkpt lat="45.0824399" lon="11.7787151"><ele>0.0</ele><time>2026-04-26T13:09:11.903Z</time></trkpt><trkpt lat="45.0823738" lon="11.7785325"><ele>0.0</ele><time>2026-04-26T13:09:12.904Z</time></trkpt><trkpt lat="45.082313" lon="11.7783478"><ele>0.0</ele><time>2026-04-26T13:09:13.903Z</time></trkpt><trkpt lat="45.0822523" lon="11.7781685"><ele>-0.25</ele><time>2026-04-26T13:09:14.903Z</time></trkpt><trkpt lat="45.0821926" lon="11.7779867"><ele>-0.5</ele><time>2026-04-26T13:09:15.903Z</time></trkpt><trkpt lat="45.0821264" lon="11.7778147"><ele>-0.75</ele><time>2026-04-26T13:09:16.904Z</time></trkpt><trkpt lat="45.0820569" lon="11.7776418"><ele>-1.0</ele><time>2026-04-26T13:09:17.903Z</time></trkpt><trkpt lat="45.0819785" lon="11.7774528"><ele>-0.3333333333333333</ele><time>2026-04-26T13:09:18.904Z</time></trkpt><trkpt lat="45.0818995" lon="11.7772467"><ele>0.3333333333333333</ele><time>2026-04-26T13:09:19.903Z</time></trkpt><trkpt lat="45.0818182" lon="11.7770274"><ele>1.0</ele><time>2026-04-26T13:09:20.903Z</time></trkpt><trkpt lat="45.0817315" lon="11.7767724"><ele>1.0</ele><time>2026-04-26T13:09:21.904Z</time></trkpt><trkpt lat="45.0816449" lon="11.7765211"><ele>1.0</ele><time>2026-04-26T13:09:22.903Z</time></trkpt><trkpt lat="45.0815584" lon="11.7762513"><ele>1.0</ele><time>2026-04-26T13:09:23.903Z</time></trkpt><trkpt lat="45.081489" lon="11.7759576"><ele>0.6666666666666666</ele><time>2026-04-26T13:09:24.904Z</time></trkpt><trkpt lat="45.081421" lon="11.7756621"><ele>0.3333333333333333</ele><time>2026-04-26T13:09:25.904Z</time></trkpt><trkpt lat="45.0813552" lon="11.775368"><ele>0.0</ele><time>2026-04-26T13:09:26.904Z</time></trkpt><trkpt lat="45.0812868" lon="11.7750743"><ele>0.0</ele><time>2026-04-26T13:09:27.904Z</time></trkpt><trkpt lat="45.0812234" lon="11.774773"><ele>0.0</ele><time>2026-04-26T13:09:28.903Z</time></trkpt><trkpt lat="45.0811584" lon="11.7744735"><ele>0.0</ele><time>2026-04-26T13:09:29.903Z</time></trkpt><trkpt lat="45.0810944" lon="11.7741813"><ele>0.6666666666666666</ele><time>2026-04-26T13:09:30.903Z</time></trkpt><trkpt lat="45.0810361" lon="11.7738858"><ele>1.3333333333333333</ele><time>2026-04-26T13:09:31.904Z</time></trkpt><trkpt lat="45.0809806" lon="11.7735962"><ele>2.0</ele><time>2026-04-26T13:09:32.903Z</time></trkpt><trkpt lat="45.0809327" lon="11.7733111"><ele>2.0</ele><time>2026-04-26T13:09:33.903Z</time></trkpt><trkpt lat="45.0808912" lon="11.7730243"><ele>2.0</ele><time>2026-04-26T13:09:34.904Z</time></trkpt><trkpt lat="45.08085" lon="11.7727443"><ele>2.0</ele><time>2026-04-26T13:09:35.904Z</time></trkpt><trkpt lat="45.0808093" lon="11.7724629"><ele>1.3333333333333333</ele><time>2026-04-26T13:09:36.903Z</time></trkpt><trkpt lat="45.0807656" lon="11.7721872"><ele>0.6666666666666666</ele><time>2026-04-26T13:09:37.904Z</time></trkpt><trkpt lat="45.0807222" lon="11.7719122"><ele>0.0</ele><time>2026-04-26T13:09:38.904Z</time></trkpt><trkpt lat="45.0806767" lon="11.771645"><ele>0.0</ele><time>2026-04-26T13:09:39.904Z</time></trkpt><trkpt lat="45.0806301" lon="11.7713806"><ele>0.0</ele><time>2026-04-26T13:09:40.904Z</time></trkpt><trkpt lat="45.0805751" lon="11.7711185"><ele>0.0</ele><time>2026-04-26T13:09:41.904Z</time></trkpt><trkpt lat="45.0805076" lon="11.7708628"><ele>-0.3333333333333333</ele><time>2026-04-26T13:09:42.904Z</time></trkpt><trkpt lat="45.0804261" lon="11.7706128"><ele>-0.6666666666666666</ele><time>2026-04-26T13:09:43.903Z</time></trkpt><trkpt lat="45.0803333" lon="11.7703635"><ele>-1.0</ele><time>2026-04-26T13:09:44.903Z</time></trkpt><trkpt lat="45.0802309" lon="11.7701192"><ele>-1.0</ele><time>2026-04-26T13:09:45.903Z</time></trkpt><trkpt lat="45.0801213" lon="11.7698779"><ele>-1.0</ele><time>2026-04-26T13:09:46.903Z</time></trkpt><trkpt lat="45.0800062" lon="11.7696353"><ele>-1.0</ele><time>2026-04-26T13:09:47.904Z</time></trkpt><trkpt lat="45.079893" lon="11.7693902"><ele>-1.3333333333333333</ele><time>2026-04-26T13:09:48.904Z</time></trkpt><trkpt lat="45.0797853" lon="11.7691411"><ele>-1.6666666666666665</ele><time>2026-04-26T13:09:49.903Z</time></trkpt><trkpt lat="45.0796732" lon="11.7688924"><ele>-2.0</ele><time>2026-04-26T13:09:50.904Z</time></trkpt><trkpt lat="45.0795604" lon="11.7686474"><ele>-2.0</ele><time>2026-04-26T13:09:51.903Z</time></trkpt><trkpt lat="45.0794455" lon="11.7683976"><ele>-2.0</ele><time>2026-04-26T13:09:52.904Z</time></trkpt><trkpt lat="45.079328" lon="11.7681526"><ele>-2.0</ele><time>2026-04-26T13:09:53.904Z</time></trkpt><trkpt lat="45.0792011" lon="11.767917"><ele>-1.3333333333333333</ele><time>2026-04-26T13:09:54.903Z</time></trkpt><trkpt lat="45.0790677" lon="11.7676909"><ele>-0.6666666666666666</ele><time>2026-04-26T13:09:55.904Z</time></trkpt><trkpt lat="45.0789246" lon="11.7674791"><ele>0.0</ele><time>2026-04-26T13:09:56.904Z</time></trkpt><trkpt lat="45.0787729" lon="11.7672854"><ele>0.0</ele><time>2026-04-26T13:09:57.903Z</time></trkpt><trkpt lat="45.0786156" lon="11.7671078"><ele>0.0</ele><time>2026-04-26T13:09:58.903Z</time></trkpt><trkpt lat="45.078453" lon="11.7669439"><ele>0.0</ele><time>2026-04-26T13:09:59.903Z</time></trkpt><trkpt lat="45.0782959" lon="11.7668066"><ele>0.0</ele><time>2026-04-26T13:10:00.903Z</time></trkpt><trkpt lat="45.078147" lon="11.7666837"><ele>0.0</ele><time>2026-04-26T13:10:01.904Z</time></trkpt><trkpt lat="45.0780097" lon="11.7665807"><ele>0.0</ele><time>2026-04-26T13:10:02.903Z</time></trkpt><trkpt lat="45.0778812" lon="11.7664955"><ele>0.0</ele><time>2026-04-26T13:10:03.903Z</time></trkpt><trkpt lat="45.0777696" lon="11.7664056"><ele>0.0</ele><time>2026-04-26T13:10:04.903Z</time></trkpt><trkpt lat="45.0776762" lon="11.7663007"><ele>0.0</ele><time>2026-04-26T13:10:05.903Z</time></trkpt><trkpt lat="45.0776059" lon="11.7661762"><ele>0.0</ele><time>2026-04-26T13:10:06.904Z</time></trkpt><trkpt lat="45.0775445" lon="11.7660567"><ele>0.16666666666666666</ele><time>2026-04-26T13:10:07.903Z</time></trkpt><trkpt lat="45.0774844" lon="11.7659529"><ele>0.3333333333333333</ele><time>2026-04-26T13:10:08.903Z</time></trkpt><trkpt lat="45.0774215" lon="11.7658744"><ele>0.5</ele><time>2026-04-26T13:10:09.904Z</time></trkpt><trkpt lat="45.0773515" lon="11.7658146"><ele>0.6666666666666666</ele><time>2026-04-26T13:10:10.903Z</time></trkpt><trkpt lat="45.0772786" lon="11.7657833"><ele>0.8333333333333333</ele><time>2026-04-26T13:10:11.903Z</time></trkpt><trkpt lat="45.0772003" lon="11.7657921"><ele>1.0</ele><time>2026-04-26T13:10:12.904Z</time></trkpt><trkpt lat="45.0771198" lon="11.7658437"><ele>1.0</ele><time>2026-04-26T13:10:13.903Z</time></trkpt><trkpt lat="45.0770526" lon="11.7659302"><ele>1.0</ele><time>2026-04-26T13:10:14.904Z</time></trkpt><trkpt lat="45.0769986" lon="11.7660411"><ele>1.0</ele><time>2026-04-26T13:10:15.904Z</time></trkpt><trkpt lat="45.0769603" lon="11.766182"><ele>1.0</ele><time>2026-04-26T13:10:16.904Z</time></trkpt><trkpt lat="45.0769317" lon="11.7663313"><ele>1.0</ele><time>2026-04-26T13:10:17.903Z</time></trkpt><trkpt lat="45.076894" lon="11.7664967"><ele>0.6666666666666666</ele><time>2026-04-26T13:10:18.903Z</time></trkpt><trkpt lat="45.076844" lon="11.7666824"><ele>0.3333333333333333</ele><time>2026-04-26T13:10:19.903Z</time></trkpt><trkpt lat="45.0767888" lon="11.7668965"><ele>0.0</ele><time>2026-04-26T13:10:20.903Z</time></trkpt><trkpt lat="45.0767339" lon="11.7671281"><ele>0.0</ele><time>2026-04-26T13:10:21.904Z</time></trkpt><trkpt lat="45.0766808" lon="11.7673703"><ele>0.0</ele><time>2026-04-26T13:10:22.903Z</time></trkpt><trkpt lat="45.0766182" lon="11.7676213"><ele>0.0</ele><time>2026-04-26T13:10:23.903Z</time></trkpt><trkpt lat="45.0765562" lon="11.7678796"><ele>0.0</ele><time>2026-04-26T13:10:24.903Z</time></trkpt><trkpt lat="45.0764867" lon="11.7681416"><ele>0.0</ele><time>2026-04-26T13:10:25.903Z</time></trkpt><trkpt lat="45.076428" lon="11.7683971"><ele>0.0</ele><time>2026-04-26T13:10:26.903Z</time></trkpt><trkpt lat="45.0763677" lon="11.7686347"><ele>0.3333333333333333</ele><time>2026-04-26T13:10:27.904Z</time></trkpt><trkpt lat="45.0763083" lon="11.7688584"><ele>0.6666666666666666</ele><time>2026-04-26T13:10:28.903Z</time></trkpt><trkpt lat="45.0762538" lon="11.7690812"><ele>1.0</ele><time>2026-04-26T13:10:29.903Z</time></trkpt><trkpt lat="45.0761984" lon="11.7693013"><ele>1.0</ele><time>2026-04-26T13:10:30.904Z</time></trkpt><trkpt lat="45.0761446" lon="11.7695173"><ele>1.0</ele><time>2026-04-26T13:10:31.904Z</time></trkpt><trkpt lat="45.0760914" lon="11.7697344"><ele>1.0</ele><time>2026-04-26T13:10:32.903Z</time></trkpt><trkpt lat="45.076037" lon="11.7699543"><ele>1.0</ele><time>2026-04-26T13:10:33.903Z</time></trkpt><trkpt lat="45.0759794" lon="11.7701637"><ele>1.0</ele><time>2026-04-26T13:10:34.903Z</time></trkpt><trkpt lat="45.0759296" lon="11.7703833"><ele>1.0</ele><time>2026-04-26T13:10:35.903Z</time></trkpt><trkpt lat="45.0758781" lon="11.7706046"><ele>1.6666666666666665</ele><time>2026-04-26T13:10:36.904Z</time></trkpt><trkpt lat="45.0758222" lon="11.7708286"><ele>2.3333333333333335</ele><time>2026-04-26T13:10:37.903Z</time></trkpt><trkpt lat="45.0757674" lon="11.7710539"><ele>3.0</ele><time>2026-04-26T13:10:38.903Z</time></trkpt><trkpt lat="45.0757138" lon="11.7712813"><ele>3.666666666666667</ele><time>2026-04-26T13:10:39.903Z</time></trkpt><trkpt lat="45.0756566" lon="11.7715102"><ele>4.333333333333334</ele><time>2026-04-26T13:10:40.903Z</time></trkpt><trkpt lat="45.0756003" lon="11.7717463"><ele>5.0</ele><time>2026-04-26T13:10:41.903Z</time></trkpt><trkpt lat="45.0755388" lon="11.7719838"><ele>5.333333333333334</ele><time>2026-04-26T13:10:42.904Z</time></trkpt><trkpt lat="45.0754794" lon="11.7722211"><ele>5.666666666666667</ele><time>2026-04-26T13:10:43.904Z</time></trkpt><trkpt lat="45.0754257" lon="11.7724615"><ele>6.0</ele><time>2026-04-26T13:10:44.903Z</time></trkpt><trkpt lat="45.0753666" lon="11.7726971"><ele>6.333333333333334</ele><time>2026-04-26T13:10:45.904Z</time></trkpt><trkpt lat="45.0753083" lon="11.7729355"><ele>6.666666666666667</ele><time>2026-04-26T13:10:46.903Z</time></trkpt><trkpt lat="45.0752531" lon="11.7731659"><ele>7.0</ele><time>2026-04-26T13:10:47.903Z</time></trkpt><trkpt lat="45.0751985" lon="11.7733905"><ele>7.333333333333334</ele><time>2026-04-26T13:10:48.903Z</time></trkpt><trkpt lat="45.0751437" lon="11.7736145"><ele>7.666666666666666</ele><time>2026-04-26T13:10:49.904Z</time></trkpt><trkpt lat="45.0750915" lon="11.7738213"><ele>8.0</ele><time>2026-04-26T13:10:50.903Z</time></trkpt><trkpt lat="45.0750454" lon="11.7740182"><ele>8.0</ele><time>2026-04-26T13:10:51.903Z</time></trkpt><trkpt lat="45.0749981" lon="11.7742072"><ele>8.0</ele><time>2026-04-26T13:10:52.903Z</time></trkpt><trkpt lat="45.0749498" lon="11.7743985"><ele>8.0</ele><time>2026-04-26T13:10:53.903Z</time></trkpt><trkpt lat="45.0749027" lon="11.7745868"><ele>8.0</ele><time>2026-04-26T13:10:54.904Z</time></trkpt><trkpt lat="45.0748509" lon="11.774789"><ele>7.666666666666666</ele><time>2026-04-26T13:10:55.904Z</time></trkpt><trkpt lat="45.0747965" lon="11.7749919"><ele>7.333333333333334</ele><time>2026-04-26T13:10:56.903Z</time></trkpt><trkpt lat="45.0747465" lon="11.7751916"><ele>7.0</ele><time>2026-04-26T13:10:57.903Z</time></trkpt><trkpt lat="45.0746958" lon="11.7753878"><ele>6.75</ele><time>2026-04-26T13:10:58.904Z</time></trkpt><trkpt lat="45.074648" lon="11.7755689"><ele>6.5</ele><time>2026-04-26T13:10:59.903Z</time></trkpt><trkpt lat="45.0746073" lon="11.7757345"><ele>6.25</ele><time>2026-04-26T13:11:00.903Z</time></trkpt><trkpt lat="45.0745633" lon="11.7758831"><ele>6.0</ele><time>2026-04-26T13:11:01.904Z</time></trkpt><trkpt lat="45.074521" lon="11.7760131"><ele>6.0</ele><time>2026-04-26T13:11:02.903Z</time></trkpt><trkpt lat="45.0744858" lon="11.776117"><ele>6.0</ele><time>2026-04-26T13:11:03.903Z</time></trkpt><trkpt lat="45.0744631" lon="11.776201"><ele>6.0</ele><time>2026-04-26T13:11:04.904Z</time></trkpt><trkpt lat="45.0744271" lon="11.7763069"><ele>6.0</ele><time>2026-04-26T13:11:06.904Z</time></trkpt><trkpt lat="45.0743999" lon="11.7763904"><ele>6.0</ele><time>2026-04-26T13:11:25.904Z</time></trkpt><trkpt lat="45.0743584" lon="11.7765472"><ele>6.0</ele><time>2026-04-26T13:11:27.903Z</time></trkpt><trkpt lat="45.0743004" lon="11.776712"><ele>6.0</ele><time>2026-04-26T13:11:29.904Z</time></trkpt><trkpt lat="45.0742712" lon="11.7767981"><ele>6.0</ele><time>2026-04-26T13:11:30.904Z</time></trkpt><trkpt lat="45.0742308" lon="11.776893"><ele>6.0</ele><time>2026-04-26T13:11:31.904Z</time></trkpt><trkpt lat="45.0741889" lon="11.7769979"><ele>6.0</ele><time>2026-04-26T13:11:32.903Z</time></trkpt><trkpt lat="45.0741489" lon="11.7771178"><ele>6.0</ele><time>2026-04-26T13:11:33.903Z</time></trkpt><trkpt lat="45.0741067" lon="11.7772417"><ele>6.0</ele><time>2026-04-26T13:11:34.904Z</time></trkpt><trkpt lat="45.0740614" lon="11.7773788"><ele>5.25</ele><time>2026-04-26T13:11:35.903Z</time></trkpt><trkpt lat="45.0740131" lon="11.7775326"><ele>4.5</ele><time>2026-04-26T13:11:36.904Z</time></trkpt><trkpt lat="45.0739591" lon="11.7776784"><ele>3.75</ele><time>2026-04-26T13:11:37.904Z</time></trkpt><trkpt lat="45.0739093" lon="11.7778388"><ele>3.0</ele><time>2026-04-26T13:11:38.903Z</time></trkpt><trkpt lat="45.0738483" lon="11.7780111"><ele>3.0</ele><time>2026-04-26T13:11:39.904Z</time></trkpt><trkpt lat="45.0737851" lon="11.7781835"><ele>3.0</ele><time>2026-04-26T13:11:40.904Z</time></trkpt><trkpt lat="45.0737236" lon="11.7783527"><ele>3.0</ele><time>2026-04-26T13:11:41.904Z</time></trkpt><trkpt lat="45.0736637" lon="11.7785171"><ele>3.0</ele><time>2026-04-26T13:11:42.903Z</time></trkpt><trkpt lat="45.0736062" lon="11.7786851"><ele>3.0</ele><time>2026-04-26T13:11:43.903Z</time></trkpt><trkpt lat="45.0735509" lon="11.7788418"><ele>3.0</ele><time>2026-04-26T13:11:44.903Z</time></trkpt><trkpt lat="45.0734998" lon="11.778984"><ele>3.0</ele><time>2026-04-26T13:11:45.903Z</time></trkpt><trkpt lat="45.07345" lon="11.7791292"><ele>3.0</ele><time>2026-04-26T13:11:46.904Z</time></trkpt><trkpt lat="45.0734005" lon="11.7792622"><ele>3.0</ele><time>2026-04-26T13:11:47.904Z</time></trkpt><trkpt lat="45.0733517" lon="11.7793953"><ele>3.0</ele><time>2026-04-26T13:11:48.903Z</time></trkpt><trkpt lat="45.0733068" lon="11.7795225"><ele>3.0</ele><time>2026-04-26T13:11:49.903Z</time></trkpt><trkpt lat="45.0732624" lon="11.7796448"><ele>3.0</ele><time>2026-04-26T13:11:50.904Z</time></trkpt><trkpt lat="45.0732202" lon="11.779764"><ele>3.0</ele><time>2026-04-26T13:11:51.903Z</time></trkpt><trkpt lat="45.0731762" lon="11.7798818"><ele>3.0</ele><time>2026-04-26T13:11:52.903Z</time></trkpt><trkpt lat="45.0731328" lon="11.779997"><ele>3.0</ele><time>2026-04-26T13:11:53.904Z</time></trkpt><trkpt lat="45.0730899" lon="11.7801167"><ele>3.0</ele><time>2026-04-26T13:11:54.903Z</time></trkpt><trkpt lat="45.0730508" lon="11.7802338"><ele>3.0</ele><time>2026-04-26T13:11:55.904Z</time></trkpt><trkpt lat="45.0730115" lon="11.7803482"><ele>3.0</ele><time>2026-04-26T13:11:56.903Z</time></trkpt><trkpt lat="45.0729734" lon="11.7804628"><ele>3.0</ele><time>2026-04-26T13:11:57.903Z</time></trkpt><trkpt lat="45.0729366" lon="11.7805805"><ele>3.0</ele><time>2026-04-26T13:11:58.903Z</time></trkpt><trkpt lat="45.0729093" lon="11.7807114"><ele>3.0</ele><time>2026-04-26T13:11:59.903Z</time></trkpt><trkpt lat="45.0728934" lon="11.7808572"><ele>3.0</ele><time>2026-04-26T13:12:00.904Z</time></trkpt><trkpt lat="45.0728933" lon="11.7810002"><ele>3.0</ele><time>2026-04-26T13:12:01.904Z</time></trkpt><trkpt lat="45.0728932" lon="11.7811323"><ele>3.0</ele><time>2026-04-26T13:12:02.903Z</time></trkpt><trkpt lat="45.0728944" lon="11.781273"><ele>3.0</ele><time>2026-04-26T13:12:03.904Z</time></trkpt><trkpt lat="45.0728735" lon="11.7813826"><ele>3.0</ele><time>2026-04-26T13:12:04.904Z</time></trkpt><trkpt lat="45.0728359" lon="11.7814719"><ele>3.0</ele><time>2026-04-26T13:12:05.904Z</time></trkpt><trkpt lat="45.0727796" lon="11.7815441"><ele>3.0</ele><time>2026-04-26T13:12:06.903Z</time></trkpt><trkpt lat="45.0727224" lon="11.7816105"><ele>3.0</ele><time>2026-04-26T13:12:07.903Z</time></trkpt><trkpt lat="45.0726303" lon="11.781609"><ele>3.0</ele><time>2026-04-26T13:12:08.904Z</time></trkpt><trkpt lat="45.0725416" lon="11.7816115"><ele>3.0</ele><time>2026-04-26T13:12:09.903Z</time></trkpt><trkpt lat="45.0724489" lon="11.7816419"><ele>3.0</ele><time>2026-04-26T13:12:10.903Z</time></trkpt><trkpt lat="45.0723618" lon="11.7817029"><ele>3.0</ele><time>2026-04-26T13:12:11.903Z</time></trkpt><trkpt lat="45.0722843" lon="11.7817858"><ele>3.0</ele><time>2026-04-26T13:12:12.904Z</time></trkpt><trkpt lat="45.0722442" lon="11.7818829"><ele>2.6666666666666665</ele><time>2026-04-26T13:12:13.903Z</time></trkpt><trkpt lat="45.0722119" lon="11.7819852"><ele>2.3333333333333335</ele><time>2026-04-26T13:12:14.903Z</time></trkpt><trkpt lat="45.0721731" lon="11.7820722"><ele>2.0</ele><time>2026-04-26T13:12:15.903Z</time></trkpt><trkpt lat="45.0721191" lon="11.7821587"><ele>1.6666666666666665</ele><time>2026-04-26T13:12:16.903Z</time></trkpt><trkpt lat="45.0720508" lon="11.7822202"><ele>1.3333333333333333</ele><time>2026-04-26T13:12:17.903Z</time></trkpt><trkpt lat="45.0719732" lon="11.7822615"><ele>1.0</ele><time>2026-04-26T13:12:18.903Z</time></trkpt><trkpt lat="45.0718927" lon="11.7822889"><ele>1.0</ele><time>2026-04-26T13:12:19.904Z</time></trkpt><trkpt lat="45.0717972" lon="11.7822984"><ele>1.0</ele><time>2026-04-26T13:12:20.904Z</time></trkpt><trkpt lat="45.0716989" lon="11.7822955"><ele>1.0</ele><time>2026-04-26T13:12:21.903Z</time></trkpt><trkpt lat="45.0715969" lon="11.7822848"><ele>1.0</ele><time>2026-04-26T13:12:22.904Z</time></trkpt><trkpt lat="45.0714989" lon="11.78228"><ele>1.0</ele><time>2026-04-26T13:12:23.903Z</time></trkpt><trkpt lat="45.0713995" lon="11.7822798"><ele>1.4</ele><time>2026-04-26T13:12:24.904Z</time></trkpt><trkpt lat="45.071306" lon="11.7822834"><ele>1.8</ele><time>2026-04-26T13:12:25.903Z</time></trkpt><trkpt lat="45.0712105" lon="11.7822874"><ele>2.1999999999999997</ele><time>2026-04-26T13:12:26.903Z</time></trkpt><trkpt lat="45.0711125" lon="11.7822903"><ele>2.6</ele><time>2026-04-26T13:12:27.904Z</time></trkpt><trkpt lat="45.0710135" lon="11.782291"><ele>3.0</ele><time>2026-04-26T13:12:28.903Z</time></trkpt><trkpt lat="45.0709138" lon="11.782304"><ele>3.0</ele><time>2026-04-26T13:12:29.903Z</time></trkpt><trkpt lat="45.0708166" lon="11.782328"><ele>3.0</ele><time>2026-04-26T13:12:30.903Z</time></trkpt><trkpt lat="45.0707186" lon="11.7823435"><ele>3.0</ele><time>2026-04-26T13:12:31.903Z</time></trkpt><trkpt lat="45.0706189" lon="11.7823643"><ele>3.0</ele><time>2026-04-26T13:12:32.904Z</time></trkpt><trkpt lat="45.0705244" lon="11.7823787"><ele>3.0</ele><time>2026-04-26T13:12:33.903Z</time></trkpt><trkpt lat="45.0704292" lon="11.7823922"><ele>3.3333333333333335</ele><time>2026-04-26T13:12:34.903Z</time></trkpt><trkpt lat="45.0703382" lon="11.782409"><ele>3.666666666666667</ele><time>2026-04-26T13:12:35.903Z</time></trkpt><trkpt lat="45.0702501" lon="11.7824265"><ele>4.0</ele><time>2026-04-26T13:12:36.903Z</time></trkpt><trkpt lat="45.0701674" lon="11.7824332"><ele>4.333333333333334</ele><time>2026-04-26T13:12:37.904Z</time></trkpt><trkpt lat="45.0700833" lon="11.7824438"><ele>4.666666666666667</ele><time>2026-04-26T13:12:38.904Z</time></trkpt><trkpt lat="45.0700101" lon="11.7824559"><ele>5.0</ele><time>2026-04-26T13:12:39.903Z</time></trkpt><trkpt lat="45.0699438" lon="11.7824659"><ele>5.0</ele><time>2026-04-26T13:12:40.903Z</time></trkpt><trkpt lat="45.0698322" lon="11.7824739"><ele>5.0</ele><time>2026-04-26T13:12:42.904Z</time></trkpt><trkpt lat="45.0697206" lon="11.7824504"><ele>5.0</ele><time>2026-04-26T13:12:44.903Z</time></trkpt><trkpt lat="45.0696587" lon="11.7824056"><ele>5.0</ele><time>2026-04-26T13:12:45.904Z</time></trkpt><trkpt lat="45.0695938" lon="11.7823552"><ele>5.0</ele><time>2026-04-26T13:12:46.903Z</time></trkpt><trkpt lat="45.0695291" lon="11.7822881"><ele>5.0</ele><time>2026-04-26T13:12:47.904Z</time></trkpt><trkpt lat="45.0694588" lon="11.7822544"><ele>5.0</ele><time>2026-04-26T13:12:48.904Z</time></trkpt><trkpt lat="45.0693876" lon="11.7822507"><ele>5.0</ele><time>2026-04-26T13:12:49.903Z</time></trkpt><trkpt lat="45.069318" lon="11.7823027"><ele>5.0</ele><time>2026-04-26T13:12:50.904Z</time></trkpt><trkpt lat="45.0692499" lon="11.7823802"><ele>5.0</ele><time>2026-04-26T13:12:51.903Z</time></trkpt><trkpt lat="45.0691692" lon="11.7824578"><ele>5.0</ele><time>2026-04-26T13:12:52.903Z</time></trkpt><trkpt lat="45.0690685" lon="11.7825146"><ele>5.0</ele><time>2026-04-26T13:12:53.904Z</time></trkpt><trkpt lat="45.0689621" lon="11.7825511"><ele>5.0</ele><time>2026-04-26T13:12:54.904Z</time></trkpt><trkpt lat="45.068841" lon="11.7825795"><ele>5.0</ele><time>2026-04-26T13:12:55.903Z</time></trkpt><trkpt lat="45.0687037" lon="11.782606"><ele>5.0</ele><time>2026-04-26T13:12:56.903Z</time></trkpt><trkpt lat="45.068553" lon="11.7826414"><ele>5.0</ele><time>2026-04-26T13:12:57.903Z</time></trkpt><trkpt lat="45.0684129" lon="11.7826834"><ele>5.0</ele><time>2026-04-26T13:12:58.903Z</time></trkpt><trkpt lat="45.0682857" lon="11.7827234"><ele>5.0</ele><time>2026-04-26T13:12:59.904Z</time></trkpt><trkpt lat="45.0681611" lon="11.7827694"><ele>5.0</ele><time>2026-04-26T13:13:00.903Z</time></trkpt><trkpt lat="45.0680414" lon="11.7828227"><ele>5.0</ele><time>2026-04-26T13:13:01.903Z</time></trkpt><trkpt lat="45.0679265" lon="11.7828867"><ele>5.25</ele><time>2026-04-26T13:13:02.904Z</time></trkpt><trkpt lat="45.0678184" lon="11.7829507"><ele>5.5</ele><time>2026-04-26T13:13:03.904Z</time></trkpt><trkpt lat="45.0677115" lon="11.783016"><ele>5.75</ele><time>2026-04-26T13:13:04.903Z</time></trkpt><trkpt lat="45.0676083" lon="11.7830814"><ele>6.0</ele><time>2026-04-26T13:13:05.904Z</time></trkpt><trkpt lat="45.0675034" lon="11.7831565"><ele>5.5</ele><time>2026-04-26T13:13:06.904Z</time></trkpt><trkpt lat="45.0673992" lon="11.7832292"><ele>5.0</ele><time>2026-04-26T13:13:07.904Z</time></trkpt><trkpt lat="45.0673013" lon="11.7833071"><ele>4.5</ele><time>2026-04-26T13:13:08.903Z</time></trkpt><trkpt lat="45.0672028" lon="11.7833994"><ele>4.0</ele><time>2026-04-26T13:13:09.903Z</time></trkpt><trkpt lat="45.0671071" lon="11.7834875"><ele>4.25</ele><time>2026-04-26T13:13:10.903Z</time></trkpt><trkpt lat="45.0670049" lon="11.7835808"><ele>4.5</ele><time>2026-04-26T13:13:11.904Z</time></trkpt><trkpt lat="45.0669058" lon="11.7836828"><ele>4.75</ele><time>2026-04-26T13:13:12.903Z</time></trkpt><trkpt lat="45.0668188" lon="11.7837869"><ele>5.0</ele><time>2026-04-26T13:13:13.903Z</time></trkpt><trkpt lat="45.0667312" lon="11.7838915"><ele>5.0</ele><time>2026-04-26T13:13:14.903Z</time></trkpt><trkpt lat="45.0666482" lon="11.7839955"><ele>5.0</ele><time>2026-04-26T13:13:15.904Z</time></trkpt><trkpt lat="45.066564" lon="11.7840994"><ele>5.0</ele><time>2026-04-26T13:13:16.904Z</time></trkpt><trkpt lat="45.0664914" lon="11.784201"><ele>5.0</ele><time>2026-04-26T13:13:17.904Z</time></trkpt><trkpt lat="45.0664278" lon="11.7842895"><ele>5.0</ele><time>2026-04-26T13:13:18.903Z</time></trkpt><trkpt lat="45.0663724" lon="11.784372"><ele>4.857142857142857</ele><time>2026-04-26T13:13:19.903Z</time></trkpt><trkpt lat="45.0663206" lon="11.7844542"><ele>4.714285714285714</ele><time>2026-04-26T13:13:20.903Z</time></trkpt><trkpt lat="45.066272" lon="11.7845289"><ele>4.571428571428571</ele><time>2026-04-26T13:13:21.904Z</time></trkpt><trkpt lat="45.0662288" lon="11.7845941"><ele>4.428571428571429</ele><time>2026-04-26T13:13:22.903Z</time></trkpt><trkpt lat="45.0661813" lon="11.7846572"><ele>4.285714285714286</ele><time>2026-04-26T13:13:23.904Z</time></trkpt><trkpt lat="45.0661142" lon="11.7847532"><ele>4.142857142857142</ele><time>2026-04-26T13:13:25.903Z</time></trkpt><trkpt lat="45.0660576" lon="11.7848148"><ele>4.0</ele><time>2026-04-26T13:13:28.904Z</time></trkpt><trkpt lat="45.0659802" lon="11.7849116"><ele>3.9999999999999996</ele><time>2026-04-26T13:13:41.903Z</time></trkpt><trkpt lat="45.0659302" lon="11.784979"><ele>4.0</ele><time>2026-04-26T13:13:42.903Z</time></trkpt><trkpt lat="45.0658753" lon="11.7850442"><ele>4.0</ele><time>2026-04-26T13:13:43.903Z</time></trkpt><trkpt lat="45.0657543" lon="11.7850713"><ele>4.0</ele><time>2026-04-26T13:13:45.903Z</time></trkpt><trkpt lat="45.0656813" lon="11.7850296"><ele>3.9999999999999996</ele><time>2026-04-26T13:13:46.904Z</time></trkpt><trkpt lat="45.0656093" lon="11.7849543"><ele>4.0</ele><time>2026-04-26T13:13:47.903Z</time></trkpt><trkpt lat="45.0655361" lon="11.7848587"><ele>3.8000000000000003</ele><time>2026-04-26T13:13:48.903Z</time></trkpt><trkpt lat="45.0654688" lon="11.7847621"><ele>3.6000000000000005</ele><time>2026-04-26T13:13:49.904Z</time></trkpt><trkpt lat="45.0653927" lon="11.7846685"><ele>3.4</ele><time>2026-04-26T13:13:50.903Z</time></trkpt><trkpt lat="45.0653084" lon="11.7845754"><ele>3.2</ele><time>2026-04-26T13:13:51.903Z</time></trkpt><trkpt lat="45.0652087" lon="11.7844858"><ele>3.0</ele><time>2026-04-26T13:13:52.903Z</time></trkpt><trkpt lat="45.0650948" lon="11.7844025"><ele>3.0</ele><time>2026-04-26T13:13:53.904Z</time></trkpt><trkpt lat="45.0649711" lon="11.7843269"><ele>3.0</ele><time>2026-04-26T13:13:54.903Z</time></trkpt><trkpt lat="45.064839" lon="11.7842663"><ele>3.0</ele><time>2026-04-26T13:13:55.903Z</time></trkpt><trkpt lat="45.0646901" lon="11.7842149"><ele>3.0</ele><time>2026-04-26T13:13:56.903Z</time></trkpt><trkpt lat="45.0645344" lon="11.784173"><ele>3.333333333333333</ele><time>2026-04-26T13:13:57.904Z</time></trkpt><trkpt lat="45.0643686" lon="11.7841218"><ele>3.6666666666666665</ele><time>2026-04-26T13:13:58.903Z</time></trkpt><trkpt lat="45.0642012" lon="11.7840685"><ele>4.0</ele><time>2026-04-26T13:13:59.903Z</time></trkpt><trkpt lat="45.0640286" lon="11.7840196"><ele>4.0</ele><time>2026-04-26T13:14:00.904Z</time></trkpt><trkpt lat="45.0638588" lon="11.7839733"><ele>4.0</ele><time>2026-04-26T13:14:01.904Z</time></trkpt><trkpt lat="45.0636927" lon="11.7839283"><ele>4.0</ele><time>2026-04-26T13:14:02.903Z</time></trkpt><trkpt lat="45.0635368" lon="11.783877"><ele>4.0</ele><time>2026-04-26T13:14:03.904Z</time></trkpt><trkpt lat="45.0633878" lon="11.7838246"><ele>4.0</ele><time>2026-04-26T13:14:04.904Z</time></trkpt><trkpt lat="45.0632538" lon="11.7837734"><ele>4.0</ele><time>2026-04-26T13:14:05.903Z</time></trkpt><trkpt lat="45.0631352" lon="11.7837202"><ele>4.0</ele><time>2026-04-26T13:14:06.904Z</time></trkpt><trkpt lat="45.063027" lon="11.7836707"><ele>4.0</ele><time>2026-04-26T13:14:07.904Z</time></trkpt><trkpt lat="45.0629159" lon="11.7836227"><ele>4.0</ele><time>2026-04-26T13:14:08.903Z</time></trkpt><trkpt lat="45.0627988" lon="11.7835786"><ele>4.0</ele><time>2026-04-26T13:14:09.903Z</time></trkpt><trkpt lat="45.0626722" lon="11.7835358"><ele>4.0</ele><time>2026-04-26T13:14:10.904Z</time></trkpt><trkpt lat="45.0625367" lon="11.7834923"><ele>4.0</ele><time>2026-04-26T13:14:11.903Z</time></trkpt><trkpt lat="45.0623952" lon="11.7834484"><ele>4.0</ele><time>2026-04-26T13:14:12.903Z</time></trkpt><trkpt lat="45.0622457" lon="11.7834072"><ele>4.0</ele><time>2026-04-26T13:14:13.903Z</time></trkpt><trkpt lat="45.062088" lon="11.7833746"><ele>4.0</ele><time>2026-04-26T13:14:14.904Z</time></trkpt><trkpt lat="45.0619299" lon="11.7833404"><ele>4.0</ele><time>2026-04-26T13:14:15.903Z</time></trkpt><trkpt lat="45.0617727" lon="11.783309"><ele>4.0</ele><time>2026-04-26T13:14:16.904Z</time></trkpt><trkpt lat="45.0616127" lon="11.783285"><ele>4.0</ele><time>2026-04-26T13:14:17.903Z</time></trkpt><trkpt lat="45.0614532" lon="11.7832636"><ele>4.0</ele><time>2026-04-26T13:14:18.903Z</time></trkpt><trkpt lat="45.0612959" lon="11.7832395"><ele>4.0</ele><time>2026-04-26T13:14:19.904Z</time></trkpt><trkpt lat="45.0611518" lon="11.7832169"><ele>4.0</ele><time>2026-04-26T13:14:20.904Z</time></trkpt><trkpt lat="45.0610113" lon="11.7832047"><ele>4.0</ele><time>2026-04-26T13:14:21.903Z</time></trkpt><trkpt lat="45.0608812" lon="11.7831952"><ele>4.0</ele><time>2026-04-26T13:14:22.904Z</time></trkpt><trkpt lat="45.0607617" lon="11.7831806"><ele>4.0</ele><time>2026-04-26T13:14:23.904Z</time></trkpt><trkpt lat="45.0606564" lon="11.7831679"><ele>4.166666666666666</ele><time>2026-04-26T13:14:24.903Z</time></trkpt><trkpt lat="45.0605656" lon="11.7831504"><ele>4.333333333333333</ele><time>2026-04-26T13:14:25.903Z</time></trkpt><trkpt lat="45.060489" lon="11.7831331"><ele>4.5</ele><time>2026-04-26T13:14:26.903Z</time></trkpt><trkpt lat="45.060422" lon="11.7831153"><ele>4.666666666666667</ele><time>2026-04-26T13:14:27.903Z</time></trkpt><trkpt lat="45.0603601" lon="11.783088"><ele>4.833333333333334</ele><time>2026-04-26T13:14:28.903Z</time></trkpt><trkpt lat="45.0602936" lon="11.7830479"><ele>5.0</ele><time>2026-04-26T13:14:29.903Z</time></trkpt><trkpt lat="45.0602195" lon="11.7830027"><ele>5.0</ele><time>2026-04-26T13:14:30.903Z</time></trkpt><trkpt lat="45.0601319" lon="11.7829518"><ele>5.0</ele><time>2026-04-26T13:14:31.903Z</time></trkpt><trkpt lat="45.0600404" lon="11.7828739"><ele>5.0</ele><time>2026-04-26T13:14:32.904Z</time></trkpt><trkpt lat="45.0599416" lon="11.7827889"><ele>5.0</ele><time>2026-04-26T13:14:33.903Z</time></trkpt><trkpt lat="45.0598338" lon="11.7826985"><ele>5.0</ele><time>2026-04-26T13:14:34.903Z</time></trkpt><trkpt lat="45.0597204" lon="11.7826037"><ele>4.75</ele><time>2026-04-26T13:14:35.903Z</time></trkpt><trkpt lat="45.0595991" lon="11.7825009"><ele>4.5</ele><time>2026-04-26T13:14:36.904Z</time></trkpt><trkpt lat="45.0594817" lon="11.7823989"><ele>4.25</ele><time>2026-04-26T13:14:37.903Z</time></trkpt><trkpt lat="45.0593598" lon="11.7822948"><ele>4.0</ele><time>2026-04-26T13:14:38.904Z</time></trkpt><trkpt lat="45.0592396" lon="11.7821966"><ele>4.0</ele><time>2026-04-26T13:14:39.904Z</time></trkpt><trkpt lat="45.0591224" lon="11.7820992"><ele>4.0</ele><time>2026-04-26T13:14:40.904Z</time></trkpt><trkpt lat="45.0590004" lon="11.7819992"><ele>4.0</ele><time>2026-04-26T13:14:41.903Z</time></trkpt><trkpt lat="45.0588824" lon="11.7818936"><ele>4.0</ele><time>2026-04-26T13:14:42.904Z</time></trkpt><trkpt lat="45.0587668" lon="11.7817746"><ele>4.25</ele><time>2026-04-26T13:14:43.903Z</time></trkpt><trkpt lat="45.0586577" lon="11.7816454"><ele>4.5</ele><time>2026-04-26T13:14:44.904Z</time></trkpt><trkpt lat="45.0585581" lon="11.7815013"><ele>4.75</ele><time>2026-04-26T13:14:45.903Z</time></trkpt><trkpt lat="45.0584762" lon="11.7813423"><ele>5.0</ele><time>2026-04-26T13:14:46.904Z</time></trkpt><trkpt lat="45.0583996" lon="11.7811768"><ele>5.0</ele><time>2026-04-26T13:14:47.903Z</time></trkpt><trkpt lat="45.0583228" lon="11.7810092"><ele>5.0</ele><time>2026-04-26T13:14:48.904Z</time></trkpt><trkpt lat="45.0582464" lon="11.7808532"><ele>5.0</ele><time>2026-04-26T13:14:49.904Z</time></trkpt><trkpt lat="45.0581696" lon="11.7807125"><ele>5.0</ele><time>2026-04-26T13:14:50.903Z</time></trkpt><trkpt lat="45.0580855" lon="11.7805907"><ele>4.75</ele><time>2026-04-26T13:14:51.904Z</time></trkpt><trkpt lat="45.0579973" lon="11.7804729"><ele>4.5</ele><time>2026-04-26T13:14:52.904Z</time></trkpt><trkpt lat="45.0579017" lon="11.7803714"><ele>4.25</ele><time>2026-04-26T13:14:53.903Z</time></trkpt><trkpt lat="45.057805" lon="11.7802705"><ele>4.0</ele><time>2026-04-26T13:14:54.904Z</time></trkpt><trkpt lat="45.0577053" lon="11.7801724"><ele>3.75</ele><time>2026-04-26T13:14:55.903Z</time></trkpt><trkpt lat="45.0576011" lon="11.7800747"><ele>3.5</ele><time>2026-04-26T13:14:56.903Z</time></trkpt><trkpt lat="45.0575015" lon="11.7799723"><ele>3.25</ele><time>2026-04-26T13:14:57.903Z</time></trkpt><trkpt lat="45.0574033" lon="11.7798667"><ele>3.0</ele><time>2026-04-26T13:14:58.904Z</time></trkpt><trkpt lat="45.0573082" lon="11.7797639"><ele>3.2</ele><time>2026-04-26T13:14:59.903Z</time></trkpt><trkpt lat="45.0572231" lon="11.7796628"><ele>3.4</ele><time>2026-04-26T13:15:00.903Z</time></trkpt><trkpt lat="45.0571493" lon="11.7795689"><ele>3.6000000000000005</ele><time>2026-04-26T13:15:01.904Z</time></trkpt><trkpt lat="45.0570819" lon="11.779483"><ele>3.8000000000000003</ele><time>2026-04-26T13:15:02.903Z</time></trkpt><trkpt lat="45.0570188" lon="11.7794044"><ele>4.0</ele><time>2026-04-26T13:15:03.903Z</time></trkpt><trkpt lat="45.0569623" lon="11.7793336"><ele>4.0</ele><time>2026-04-26T13:15:04.903Z</time></trkpt><trkpt lat="45.0569156" lon="11.7792656"><ele>4.0</ele><time>2026-04-26T13:15:05.903Z</time></trkpt><trkpt lat="45.0568845" lon="11.7791877"><ele>4.0</ele><time>2026-04-26T13:15:06.903Z</time></trkpt><trkpt lat="45.0568375" lon="11.779039"><ele>4.0</ele><time>2026-04-26T13:15:08.904Z</time></trkpt><trkpt lat="45.0567325" lon="11.7789956"><ele>4.0</ele><time>2026-04-26T13:15:10.903Z</time></trkpt><trkpt lat="45.056641" lon="11.7791403"><ele>4.0</ele><time>2026-04-26T13:15:12.904Z</time></trkpt><trkpt lat="45.056591" lon="11.7792567"><ele>4.0</ele><time>2026-04-26T13:15:13.903Z</time></trkpt><trkpt lat="45.0565102" lon="11.7793693"><ele>4.0</ele><time>2026-04-26T13:15:14.903Z</time></trkpt><trkpt lat="45.0564085" lon="11.7794814"><ele>4.0</ele><time>2026-04-26T13:15:15.903Z</time></trkpt><trkpt lat="45.0562948" lon="11.7795907"><ele>4.25</ele><time>2026-04-26T13:15:16.903Z</time></trkpt><trkpt lat="45.0561687" lon="11.7797074"><ele>4.5</ele><time>2026-04-26T13:15:17.904Z</time></trkpt><trkpt lat="45.0560391" lon="11.7798188"><ele>4.75</ele><time>2026-04-26T13:15:18.904Z</time></trkpt><trkpt lat="45.0559181" lon="11.7799279"><ele>5.0</ele><time>2026-04-26T13:15:19.903Z</time></trkpt><trkpt lat="45.0558009" lon="11.7800401"><ele>5.0</ele><time>2026-04-26T13:15:20.904Z</time></trkpt><trkpt lat="45.0556817" lon="11.7801497"><ele>5.0</ele><time>2026-04-26T13:15:21.904Z</time></trkpt><trkpt lat="45.0555588" lon="11.7802613"><ele>5.0</ele><time>2026-04-26T13:15:22.903Z</time></trkpt><trkpt lat="45.0554284" lon="11.7803781"><ele>5.0</ele><time>2026-04-26T13:15:23.904Z</time></trkpt><trkpt lat="45.0552934" lon="11.7804875"><ele>5.0</ele><time>2026-04-26T13:15:24.904Z</time></trkpt><trkpt lat="45.0551616" lon="11.7805966"><ele>5.0</ele><time>2026-04-26T13:15:25.903Z</time></trkpt><trkpt lat="45.0550314" lon="11.780711"><ele>5.0</ele><time>2026-04-26T13:15:26.903Z</time></trkpt><trkpt lat="45.0548985" lon="11.7808279"><ele>5.0</ele><time>2026-04-26T13:15:27.904Z</time></trkpt><trkpt lat="45.0547694" lon="11.7809416"><ele>5.0</ele><time>2026-04-26T13:15:28.904Z</time></trkpt><trkpt lat="45.0546455" lon="11.7810582"><ele>5.0</ele><time>2026-04-26T13:15:29.903Z</time></trkpt><trkpt lat="45.054524" lon="11.7811751"><ele>5.0</ele><time>2026-04-26T13:15:30.904Z</time></trkpt><trkpt lat="45.0543995" lon="11.7812882"><ele>4.75</ele><time>2026-04-26T13:15:31.903Z</time></trkpt><trkpt lat="45.0542752" lon="11.7814096"><ele>4.5</ele><time>2026-04-26T13:15:32.904Z</time></trkpt><trkpt lat="45.0541565" lon="11.781541"><ele>4.25</ele><time>2026-04-26T13:15:33.903Z</time></trkpt><trkpt lat="45.0540439" lon="11.781676"><ele>4.0</ele><time>2026-04-26T13:15:34.903Z</time></trkpt><trkpt lat="45.0539349" lon="11.7818163"><ele>4.0</ele><time>2026-04-26T13:15:35.903Z</time></trkpt><trkpt lat="45.0538309" lon="11.7819602"><ele>4.0</ele><time>2026-04-26T13:15:36.903Z</time></trkpt><trkpt lat="45.0537324" lon="11.7820969"><ele>4.0</ele><time>2026-04-26T13:15:37.904Z</time></trkpt><trkpt lat="45.0536331" lon="11.7822261"><ele>4.0</ele><time>2026-04-26T13:15:38.903Z</time></trkpt><trkpt lat="45.0535411" lon="11.782352"><ele>4.0</ele><time>2026-04-26T13:15:39.903Z</time></trkpt><trkpt lat="45.0534507" lon="11.7824752"><ele>4.0</ele><time>2026-04-26T13:15:40.903Z</time></trkpt><trkpt lat="45.053359" lon="11.7825937"><ele>4.0</ele><time>2026-04-26T13:15:41.904Z</time></trkpt><trkpt lat="45.0532653" lon="11.7827168"><ele>4.0</ele><time>2026-04-26T13:15:42.904Z</time></trkpt><trkpt lat="45.0531697" lon="11.7828383"><ele>3.75</ele><time>2026-04-26T13:15:43.903Z</time></trkpt><trkpt lat="45.0530747" lon="11.782969"><ele>3.5</ele><time>2026-04-26T13:15:44.903Z</time></trkpt><trkpt lat="45.0529874" lon="11.7831011"><ele>3.25</ele><time>2026-04-26T13:15:45.903Z</time></trkpt><trkpt lat="45.0528947" lon="11.7832349"><ele>3.0</ele><time>2026-04-26T13:15:46.904Z</time></trkpt><trkpt lat="45.052813" lon="11.7833812"><ele>3.0</ele><time>2026-04-26T13:15:47.903Z</time></trkpt><trkpt lat="45.0527429" lon="11.7835451"><ele>3.0</ele><time>2026-04-26T13:15:48.903Z</time></trkpt><trkpt lat="45.0526805" lon="11.7837174"><ele>3.0</ele><time>2026-04-26T13:15:49.903Z</time></trkpt><trkpt lat="45.052625" lon="11.7838937"><ele>3.0</ele><time>2026-04-26T13:15:50.904Z</time></trkpt><trkpt lat="45.0525753" lon="11.7840833"><ele>3.0</ele><time>2026-04-26T13:15:51.904Z</time></trkpt><trkpt lat="45.0525235" lon="11.7842665"><ele>3.0</ele><time>2026-04-26T13:15:52.904Z</time></trkpt><trkpt lat="45.0524769" lon="11.7844653"><ele>3.0</ele><time>2026-04-26T13:15:53.903Z</time></trkpt><trkpt lat="45.0524267" lon="11.7846642"><ele>3.0</ele><time>2026-04-26T13:15:54.903Z</time></trkpt><trkpt lat="45.0523767" lon="11.7848665"><ele>3.333333333333333</ele><time>2026-04-26T13:15:55.903Z</time></trkpt><trkpt lat="45.0523257" lon="11.7850735"><ele>3.6666666666666665</ele><time>2026-04-26T13:15:56.903Z</time></trkpt><trkpt lat="45.0522694" lon="11.7852884"><ele>4.0</ele><time>2026-04-26T13:15:57.903Z</time></trkpt><trkpt lat="45.0522109" lon="11.7854994"><ele>4.666666666666666</ele><time>2026-04-26T13:15:58.904Z</time></trkpt><trkpt lat="45.0521547" lon="11.7857194"><ele>5.333333333333333</ele><time>2026-04-26T13:15:59.903Z</time></trkpt><trkpt lat="45.0520962" lon="11.7859335"><ele>6.0</ele><time>2026-04-26T13:16:00.904Z</time></trkpt><trkpt lat="45.0520373" lon="11.7861429"><ele>6.0</ele><time>2026-04-26T13:16:01.904Z</time></trkpt><trkpt lat="45.0519823" lon="11.786349"><ele>6.0</ele><time>2026-04-26T13:16:02.904Z</time></trkpt><trkpt lat="45.0519308" lon="11.786547"><ele>6.0</ele><time>2026-04-26T13:16:03.904Z</time></trkpt><trkpt lat="45.0518827" lon="11.7867322"><ele>6.0</ele><time>2026-04-26T13:16:04.904Z</time></trkpt><trkpt lat="45.0518358" lon="11.7868982"><ele>6.199999999999999</ele><time>2026-04-26T13:16:05.904Z</time></trkpt><trkpt lat="45.0517938" lon="11.787047"><ele>6.3999999999999995</ele><time>2026-04-26T13:16:06.904Z</time></trkpt><trkpt lat="45.0517613" lon="11.7871772"><ele>6.6</ele><time>2026-04-26T13:16:07.903Z</time></trkpt><trkpt lat="45.0517299" lon="11.7872953"><ele>6.8</ele><time>2026-04-26T13:16:08.903Z</time></trkpt><trkpt lat="45.0517036" lon="11.7873858"><ele>7.0</ele><time>2026-04-26T13:16:09.904Z</time></trkpt><trkpt lat="45.0516626" lon="11.7874965"><ele>7.0</ele><time>2026-04-26T13:16:11.903Z</time></trkpt><trkpt lat="45.0515994" lon="11.7875923"><ele>6.999999999999999</ele><time>2026-04-26T13:16:14.904Z</time></trkpt><trkpt lat="45.0514829" lon="11.7876621"><ele>6.999999999999999</ele><time>2026-04-26T13:16:16.904Z</time></trkpt><trkpt lat="45.051395" lon="11.7876612"><ele>7.0</ele><time>2026-04-26T13:16:17.904Z</time></trkpt><trkpt lat="45.0512909" lon="11.7876294"><ele>7.0</ele><time>2026-04-26T13:16:18.904Z</time></trkpt><trkpt lat="45.0511758" lon="11.7875743"><ele>7.0</ele><time>2026-04-26T13:16:19.903Z</time></trkpt><trkpt lat="45.0510445" lon="11.7875119"><ele>7.0</ele><time>2026-04-26T13:16:20.903Z</time></trkpt><trkpt lat="45.0509158" lon="11.7874472"><ele>7.0</ele><time>2026-04-26T13:16:21.904Z</time></trkpt><trkpt lat="45.0507887" lon="11.7873766"><ele>7.0</ele><time>2026-04-26T13:16:22.903Z</time></trkpt><trkpt lat="45.0506654" lon="11.7873096"><ele>6.333333333333334</ele><time>2026-04-26T13:16:23.904Z</time></trkpt><trkpt lat="45.050531" lon="11.7872411"><ele>5.666666666666667</ele><time>2026-04-26T13:16:24.904Z</time></trkpt><trkpt lat="45.0503907" lon="11.787165"><ele>5.0</ele><time>2026-04-26T13:16:25.904Z</time></trkpt><trkpt lat="45.050238" lon="11.7870873"><ele>5.0</ele><time>2026-04-26T13:16:26.903Z</time></trkpt><trkpt lat="45.0500886" lon="11.7870071"><ele>5.0</ele><time>2026-04-26T13:16:27.903Z</time></trkpt><trkpt lat="45.0499375" lon="11.7869254"><ele>5.0</ele><time>2026-04-26T13:16:28.903Z</time></trkpt><trkpt lat="45.0497908" lon="11.786852"><ele>4.75</ele><time>2026-04-26T13:16:29.904Z</time></trkpt><trkpt lat="45.0496521" lon="11.7867809"><ele>4.5</ele><time>2026-04-26T13:16:30.903Z</time></trkpt><trkpt lat="45.0495134" lon="11.786713"><ele>4.25</ele><time>2026-04-26T13:16:31.903Z</time></trkpt><trkpt lat="45.0493832" lon="11.786643"><ele>4.0</ele><time>2026-04-26T13:16:32.903Z</time></trkpt><trkpt lat="45.0492491" lon="11.7865749"><ele>4.25</ele><time>2026-04-26T13:16:33.903Z</time></trkpt><trkpt lat="45.0491152" lon="11.7864992"><ele>4.5</ele><time>2026-04-26T13:16:34.903Z</time></trkpt><trkpt lat="45.0489774" lon="11.7864254"><ele>4.75</ele><time>2026-04-26T13:16:35.903Z</time></trkpt><trkpt lat="45.0488404" lon="11.7863566"><ele>5.0</ele><time>2026-04-26T13:16:36.903Z</time></trkpt><trkpt lat="45.0487002" lon="11.7862847"><ele>5.0</ele><time>2026-04-26T13:16:37.903Z</time></trkpt><trkpt lat="45.0485612" lon="11.7862144"><ele>5.0</ele><time>2026-04-26T13:16:38.903Z</time></trkpt><trkpt lat="45.0484229" lon="11.7861437"><ele>5.0</ele><time>2026-04-26T13:16:39.903Z</time></trkpt><trkpt lat="45.0482848" lon="11.7860667"><ele>5.0</ele><time>2026-04-26T13:16:40.904Z</time></trkpt><trkpt lat="45.048147" lon="11.78599"><ele>4.75</ele><time>2026-04-26T13:16:41.903Z</time></trkpt><trkpt lat="45.0480066" lon="11.7859162"><ele>4.5</ele><time>2026-04-26T13:16:42.903Z</time></trkpt><trkpt lat="45.0478682" lon="11.7858448"><ele>4.25</ele><time>2026-04-26T13:16:43.904Z</time></trkpt><trkpt lat="45.0477262" lon="11.7857778"><ele>4.0</ele><time>2026-04-26T13:16:44.903Z</time></trkpt><trkpt lat="45.0475854" lon="11.7857074"><ele>4.0</ele><time>2026-04-26T13:16:45.904Z</time></trkpt><trkpt lat="45.0474451" lon="11.7856332"><ele>4.0</ele><time>2026-04-26T13:16:46.904Z</time></trkpt><trkpt lat="45.0473018" lon="11.7855576"><ele>4.0</ele><time>2026-04-26T13:16:47.904Z</time></trkpt><trkpt lat="45.0471603" lon="11.7854857"><ele>4.0</ele><time>2026-04-26T13:16:48.904Z</time></trkpt><trkpt lat="45.047015" lon="11.7854151"><ele>4.0</ele><time>2026-04-26T13:16:49.903Z</time></trkpt><trkpt lat="45.0468696" lon="11.7853371"><ele>4.0</ele><time>2026-04-26T13:16:50.904Z</time></trkpt><trkpt lat="45.0467218" lon="11.7852613"><ele>4.333333333333333</ele><time>2026-04-26T13:16:51.903Z</time></trkpt><trkpt lat="45.0465731" lon="11.7851836"><ele>4.666666666666667</ele><time>2026-04-26T13:16:52.904Z</time></trkpt><trkpt lat="45.0464238" lon="11.7851082"><ele>5.0</ele><time>2026-04-26T13:16:53.903Z</time></trkpt><trkpt lat="45.0462751" lon="11.7850342"><ele>5.0</ele><time>2026-04-26T13:16:54.903Z</time></trkpt><trkpt lat="45.0461366" lon="11.7849643"><ele>5.0</ele><time>2026-04-26T13:16:55.903Z</time></trkpt><trkpt lat="45.0460178" lon="11.784893"><ele>5.0</ele><time>2026-04-26T13:16:56.904Z</time></trkpt><trkpt lat="45.0459259" lon="11.7848361"><ele>5.0</ele><time>2026-04-26T13:16:57.903Z</time></trkpt><trkpt lat="45.0458387" lon="11.7847888"><ele>4.833333333333334</ele><time>2026-04-26T13:16:59.903Z</time></trkpt><trkpt lat="45.0457487" lon="11.7847648"><ele>4.666666666666667</ele><time>2026-04-26T13:17:40.904Z</time></trkpt><trkpt lat="45.045681" lon="11.7847338"><ele>4.5</ele><time>2026-04-26T13:17:41.904Z</time></trkpt><trkpt lat="45.0455983" lon="11.7846963"><ele>4.333333333333333</ele><time>2026-04-26T13:17:42.903Z</time></trkpt><trkpt lat="45.0455088" lon="11.7846509"><ele>4.166666666666666</ele><time>2026-04-26T13:17:43.903Z</time></trkpt><trkpt lat="45.0454123" lon="11.7845989"><ele>4.0</ele><time>2026-04-26T13:17:44.903Z</time></trkpt><trkpt lat="45.0453057" lon="11.784544"><ele>4.0</ele><time>2026-04-26T13:17:45.903Z</time></trkpt><trkpt lat="45.045189" lon="11.7844841"><ele>4.0</ele><time>2026-04-26T13:17:46.903Z</time></trkpt><trkpt lat="45.0450698" lon="11.7844206"><ele>4.0</ele><time>2026-04-26T13:17:47.903Z</time></trkpt><trkpt lat="45.0449526" lon="11.7843561"><ele>4.0</ele><time>2026-04-26T13:17:48.904Z</time></trkpt><trkpt lat="45.0448352" lon="11.7842991"><ele>4.25</ele><time>2026-04-26T13:17:49.904Z</time></trkpt><trkpt lat="45.0447115" lon="11.7842488"><ele>4.5</ele><time>2026-04-26T13:17:50.903Z</time></trkpt><trkpt lat="45.0445829" lon="11.7841837"><ele>4.75</ele><time>2026-04-26T13:17:51.904Z</time></trkpt><trkpt lat="45.0444545" lon="11.7841088"><ele>5.0</ele><time>2026-04-26T13:17:52.903Z</time></trkpt><trkpt lat="45.044319" lon="11.7840327"><ele>5.0</ele><time>2026-04-26T13:17:53.903Z</time></trkpt><trkpt lat="45.044182" lon="11.7839603"><ele>5.0</ele><time>2026-04-26T13:17:54.903Z</time></trkpt><trkpt lat="45.0440458" lon="11.7838872"><ele>5.0</ele><time>2026-04-26T13:17:55.904Z</time></trkpt><trkpt lat="45.043905" lon="11.783816"><ele>5.0</ele><time>2026-04-26T13:17:56.903Z</time></trkpt><trkpt lat="45.0437584" lon="11.783744"><ele>4.666666666666667</ele><time>2026-04-26T13:17:57.903Z</time></trkpt><trkpt lat="45.0436097" lon="11.7836764"><ele>4.333333333333333</ele><time>2026-04-26T13:17:58.903Z</time></trkpt><trkpt lat="45.0434629" lon="11.7836068"><ele>4.0</ele><time>2026-04-26T13:17:59.903Z</time></trkpt><trkpt lat="45.0433223" lon="11.7835353"><ele>4.0</ele><time>2026-04-26T13:18:00.903Z</time></trkpt><trkpt lat="45.0431877" lon="11.7834666"><ele>4.0</ele><time>2026-04-26T13:18:01.903Z</time></trkpt><trkpt lat="45.0430533" lon="11.7833961"><ele>4.0</ele><time>2026-04-26T13:18:02.904Z</time></trkpt><trkpt lat="45.0429185" lon="11.7833261"><ele>4.0</ele><time>2026-04-26T13:18:03.903Z</time></trkpt><trkpt lat="45.042784" lon="11.7832584"><ele>4.0</ele><time>2026-04-26T13:18:04.904Z</time></trkpt><trkpt lat="45.0426469" lon="11.7831846"><ele>4.0</ele><time>2026-04-26T13:18:05.903Z</time></trkpt><trkpt lat="45.0425085" lon="11.7831125"><ele>4.0</ele><time>2026-04-26T13:18:06.904Z</time></trkpt><trkpt lat="45.0423691" lon="11.7830347"><ele>4.0</ele><time>2026-04-26T13:18:07.903Z</time></trkpt><trkpt lat="45.0422269" lon="11.782957"><ele>3.6666666666666665</ele><time>2026-04-26T13:18:08.904Z</time></trkpt><trkpt lat="45.0420818" lon="11.7828777"><ele>3.333333333333333</ele><time>2026-04-26T13:18:09.903Z</time></trkpt><trkpt lat="45.0419332" lon="11.7827987"><ele>3.0</ele><time>2026-04-26T13:18:10.903Z</time></trkpt><trkpt lat="45.0417822" lon="11.7827215"><ele>2.6666666666666665</ele><time>2026-04-26T13:18:11.903Z</time></trkpt><trkpt lat="45.0416296" lon="11.7826422"><ele>2.333333333333333</ele><time>2026-04-26T13:18:12.903Z</time></trkpt><trkpt lat="45.0414766" lon="11.7825614"><ele>2.0</ele><time>2026-04-26T13:18:13.903Z</time></trkpt><trkpt lat="45.0413223" lon="11.7824815"><ele>2.0</ele><time>2026-04-26T13:18:14.903Z</time></trkpt><trkpt lat="45.041168" lon="11.7823991"><ele>2.0</ele><time>2026-04-26T13:18:15.904Z</time></trkpt><trkpt lat="45.0410125" lon="11.7823185"><ele>2.0</ele><time>2026-04-26T13:18:16.904Z</time></trkpt><trkpt lat="45.0408557" lon="11.7822384"><ele>1.6666666666666665</ele><time>2026-04-26T13:18:17.903Z</time></trkpt><trkpt lat="45.040697" lon="11.7821608"><ele>1.3333333333333333</ele><time>2026-04-26T13:18:18.903Z</time></trkpt><trkpt lat="45.0405379" lon="11.7820823"><ele>1.0</ele><time>2026-04-26T13:18:19.904Z</time></trkpt><trkpt lat="45.0403788" lon="11.7820002"><ele>1.0</ele><time>2026-04-26T13:18:20.904Z</time></trkpt><trkpt lat="45.0402209" lon="11.7819202"><ele>1.0</ele><time>2026-04-26T13:18:21.903Z</time></trkpt><trkpt lat="45.0400631" lon="11.7818379"><ele>1.0</ele><time>2026-04-26T13:18:22.904Z</time></trkpt><trkpt lat="45.039906" lon="11.7817556"><ele>2.3333333333333335</ele><time>2026-04-26T13:18:23.903Z</time></trkpt><trkpt lat="45.0397496" lon="11.781672"><ele>3.666666666666667</ele><time>2026-04-26T13:18:24.903Z</time></trkpt><trkpt lat="45.0395935" lon="11.7815905"><ele>5.0</ele><time>2026-04-26T13:18:25.903Z</time></trkpt><trkpt lat="45.039436" lon="11.7815106"><ele>5.0</ele><time>2026-04-26T13:18:26.904Z</time></trkpt><trkpt lat="45.0392804" lon="11.7814322"><ele>5.0</ele><time>2026-04-26T13:18:27.903Z</time></trkpt><trkpt lat="45.0391263" lon="11.781353"><ele>5.0</ele><time>2026-04-26T13:18:28.903Z</time></trkpt><trkpt lat="45.0389743" lon="11.7812763"><ele>4.666666666666667</ele><time>2026-04-26T13:18:29.903Z</time></trkpt><trkpt lat="45.0388262" lon="11.7812041"><ele>4.333333333333333</ele><time>2026-04-26T13:18:30.903Z</time></trkpt><trkpt lat="45.0386753" lon="11.7811274"><ele>4.0</ele><time>2026-04-26T13:18:31.903Z</time></trkpt><trkpt lat="45.0385179" lon="11.7810479"><ele>4.0</ele><time>2026-04-26T13:18:32.903Z</time></trkpt><trkpt lat="45.0383547" lon="11.7809782"><ele>4.0</ele><time>2026-04-26T13:18:33.904Z</time></trkpt><trkpt lat="45.0381875" lon="11.7809092"><ele>4.0</ele><time>2026-04-26T13:18:34.904Z</time></trkpt><trkpt lat="45.0380219" lon="11.7808351"><ele>3.333333333333333</ele><time>2026-04-26T13:18:35.903Z</time></trkpt><trkpt lat="45.0378597" lon="11.7807455"><ele>2.6666666666666665</ele><time>2026-04-26T13:18:36.904Z</time></trkpt><trkpt lat="45.0376992" lon="11.7806496"><ele>2.0</ele><time>2026-04-26T13:18:37.903Z</time></trkpt><trkpt lat="45.0375369" lon="11.780553"><ele>2.333333333333333</ele><time>2026-04-26T13:18:38.903Z</time></trkpt><trkpt lat="45.03737" lon="11.7804559"><ele>2.6666666666666665</ele><time>2026-04-26T13:18:39.903Z</time></trkpt><trkpt lat="45.0371998" lon="11.780363"><ele>3.0</ele><time>2026-04-26T13:18:40.904Z</time></trkpt><trkpt lat="45.0370267" lon="11.7802709"><ele>3.0</ele><time>2026-04-26T13:18:41.904Z</time></trkpt><trkpt lat="45.0368457" lon="11.7801786"><ele>3.0</ele><time>2026-04-26T13:18:42.903Z</time></trkpt><trkpt lat="45.0366564" lon="11.7800801"><ele>3.0</ele><time>2026-04-26T13:18:43.904Z</time></trkpt><trkpt lat="45.0364604" lon="11.7799779"><ele>3.0</ele><time>2026-04-26T13:18:44.903Z</time></trkpt><trkpt lat="45.0362638" lon="11.7798777"><ele>3.0</ele><time>2026-04-26T13:18:45.903Z</time></trkpt><trkpt lat="45.0360675" lon="11.7797786"><ele>3.0</ele><time>2026-04-26T13:18:46.903Z</time></trkpt><trkpt lat="45.0358744" lon="11.7796816"><ele>3.0</ele><time>2026-04-26T13:18:47.904Z</time></trkpt><trkpt lat="45.0356828" lon="11.779585"><ele>3.0</ele><time>2026-04-26T13:18:48.904Z</time></trkpt><trkpt lat="45.0354922" lon="11.779489"><ele>3.0</ele><time>2026-04-26T13:18:49.903Z</time></trkpt><trkpt lat="45.0353032" lon="11.7793927"><ele>2.6666666666666665</ele><time>2026-04-26T13:18:50.903Z</time></trkpt><trkpt lat="45.0351145" lon="11.7792966"><ele>2.333333333333333</ele><time>2026-04-26T13:18:51.903Z</time></trkpt><trkpt lat="45.0349276" lon="11.7792"><ele>2.0</ele><time>2026-04-26T13:18:52.903Z</time></trkpt><trkpt lat="45.0347414" lon="11.779101"><ele>2.0</ele><time>2026-04-26T13:18:53.903Z</time></trkpt><trkpt lat="45.0345551" lon="11.7790028"><ele>2.0</ele><time>2026-04-26T13:18:54.904Z</time></trkpt><trkpt lat="45.0343698" lon="11.7789088"><ele>2.0</ele><time>2026-04-26T13:18:55.904Z</time></trkpt><trkpt lat="45.0341848" lon="11.7788145"><ele>2.0</ele><time>2026-04-26T13:18:56.903Z</time></trkpt><trkpt lat="45.034" lon="11.7787191"><ele>2.0</ele><time>2026-04-26T13:18:57.904Z</time></trkpt><trkpt lat="45.0338148" lon="11.7786222"><ele>2.0</ele><time>2026-04-26T13:18:58.903Z</time></trkpt><trkpt lat="45.0336304" lon="11.7785241"><ele>2.0</ele><time>2026-04-26T13:18:59.903Z</time></trkpt><trkpt lat="45.0334452" lon="11.7784272"><ele>2.0</ele><time>2026-04-26T13:19:00.903Z</time></trkpt><trkpt lat="45.0332599" lon="11.7783323"><ele>2.0</ele><time>2026-04-26T13:19:01.903Z</time></trkpt><trkpt lat="45.0330742" lon="11.7782397"><ele>2.0</ele><time>2026-04-26T13:19:02.904Z</time></trkpt><trkpt lat="45.0328889" lon="11.7781473"><ele>2.0</ele><time>2026-04-26T13:19:03.903Z</time></trkpt><trkpt lat="45.032703" lon="11.7780529"><ele>2.0</ele><time>2026-04-26T13:19:04.903Z</time></trkpt><trkpt lat="45.0325189" lon="11.7779597"><ele>2.333333333333333</ele><time>2026-04-26T13:19:05.904Z</time></trkpt><trkpt lat="45.0323331" lon="11.7778681"><ele>2.6666666666666665</ele><time>2026-04-26T13:19:06.903Z</time></trkpt><trkpt lat="45.0321472" lon="11.7777795"><ele>3.0</ele><time>2026-04-26T13:19:07.903Z</time></trkpt><trkpt lat="45.0319598" lon="11.7776925"><ele>2.6666666666666665</ele><time>2026-04-26T13:19:08.903Z</time></trkpt><trkpt lat="45.0317719" lon="11.7776043"><ele>2.333333333333333</ele><time>2026-04-26T13:19:09.904Z</time></trkpt><trkpt lat="45.0315827" lon="11.7775127"><ele>2.0</ele><time>2026-04-26T13:19:10.903Z</time></trkpt><trkpt lat="45.0313918" lon="11.7774149"><ele>2.0</ele><time>2026-04-26T13:19:11.903Z</time></trkpt><trkpt lat="45.0312027" lon="11.7773169"><ele>2.0</ele><time>2026-04-26T13:19:12.903Z</time></trkpt><trkpt lat="45.0310119" lon="11.777217"><ele>2.0</ele><time>2026-04-26T13:19:13.904Z</time></trkpt><trkpt lat="45.0308225" lon="11.777111"><ele>2.0</ele><time>2026-04-26T13:19:14.903Z</time></trkpt><trkpt lat="45.0306312" lon="11.7769991"><ele>2.0</ele><time>2026-04-26T13:19:15.903Z</time></trkpt><trkpt lat="45.0304396" lon="11.7768811"><ele>2.0</ele><time>2026-04-26T13:19:16.903Z</time></trkpt><trkpt lat="45.0302458" lon="11.7767611"><ele>2.0</ele><time>2026-04-26T13:19:17.903Z</time></trkpt><trkpt lat="45.0300525" lon="11.7766333"><ele>2.0</ele><time>2026-04-26T13:19:18.903Z</time></trkpt><trkpt lat="45.0298631" lon="11.7764923"><ele>2.0</ele><time>2026-04-26T13:19:19.903Z</time></trkpt><trkpt lat="45.0296774" lon="11.7763345"><ele>2.333333333333333</ele><time>2026-04-26T13:19:20.904Z</time></trkpt><trkpt lat="45.0294974" lon="11.7761627"><ele>2.6666666666666665</ele><time>2026-04-26T13:19:21.904Z</time></trkpt><trkpt lat="45.0293218" lon="11.7759792"><ele>3.0</ele><time>2026-04-26T13:19:22.903Z</time></trkpt><trkpt lat="45.0291504" lon="11.775786"><ele>3.0</ele><time>2026-04-26T13:19:23.904Z</time></trkpt><trkpt lat="45.0289872" lon="11.7755818"><ele>3.0</ele><time>2026-04-26T13:19:24.904Z</time></trkpt><trkpt lat="45.0288337" lon="11.7753633"><ele>3.0</ele><time>2026-04-26T13:19:25.903Z</time></trkpt><trkpt lat="45.0286875" lon="11.7751353"><ele>3.0</ele><time>2026-04-26T13:19:26.903Z</time></trkpt><trkpt lat="45.0285468" lon="11.7748996"><ele>3.0</ele><time>2026-04-26T13:19:27.903Z</time></trkpt><trkpt lat="45.0284108" lon="11.7746731"><ele>3.0</ele><time>2026-04-26T13:19:28.903Z</time></trkpt><trkpt lat="45.0282833" lon="11.7744638"><ele>3.333333333333333</ele><time>2026-04-26T13:19:29.903Z</time></trkpt><trkpt lat="45.0281625" lon="11.7742717"><ele>3.6666666666666665</ele><time>2026-04-26T13:19:30.904Z</time></trkpt><trkpt lat="45.0280419" lon="11.7741021"><ele>4.0</ele><time>2026-04-26T13:19:31.903Z</time></trkpt><trkpt lat="45.0279197" lon="11.7739512"><ele>4.0</ele><time>2026-04-26T13:19:32.904Z</time></trkpt><trkpt lat="45.0277856" lon="11.77381"><ele>4.0</ele><time>2026-04-26T13:19:33.903Z</time></trkpt><trkpt lat="45.0276354" lon="11.7736745"><ele>4.0</ele><time>2026-04-26T13:19:34.903Z</time></trkpt><trkpt lat="45.0274589" lon="11.7735286"><ele>4.0</ele><time>2026-04-26T13:19:35.903Z</time></trkpt><trkpt lat="45.0272607" lon="11.7733572"><ele>4.0</ele><time>2026-04-26T13:19:36.903Z</time></trkpt><trkpt lat="45.0270475" lon="11.7731614"><ele>4.0</ele><time>2026-04-26T13:19:37.903Z</time></trkpt><trkpt lat="45.0268426" lon="11.772971"><ele>4.0</ele><time>2026-04-26T13:19:38.904Z</time></trkpt><trkpt lat="45.0266503" lon="11.7727899"><ele>3.333333333333333</ele><time>2026-04-26T13:19:39.903Z</time></trkpt><trkpt lat="45.0264715" lon="11.7726222"><ele>2.6666666666666665</ele><time>2026-04-26T13:19:40.904Z</time></trkpt><trkpt lat="45.0263034" lon="11.7724707"><ele>2.0</ele><time>2026-04-26T13:19:41.903Z</time></trkpt><trkpt lat="45.0261445" lon="11.7723532"><ele>2.0</ele><time>2026-04-26T13:19:42.904Z</time></trkpt><trkpt lat="45.0259824" lon="11.7722753"><ele>2.0</ele><time>2026-04-26T13:19:43.903Z</time></trkpt><trkpt lat="45.0258143" lon="11.7722408"><ele>2.0</ele><time>2026-04-26T13:19:44.903Z</time></trkpt><trkpt lat="45.0256413" lon="11.7722513"><ele>2.333333333333333</ele><time>2026-04-26T13:19:45.903Z</time></trkpt><trkpt lat="45.0254695" lon="11.7723016"><ele>2.6666666666666665</ele><time>2026-04-26T13:19:46.903Z</time></trkpt><trkpt lat="45.0253015" lon="11.7723824"><ele>3.0</ele><time>2026-04-26T13:19:47.903Z</time></trkpt><trkpt lat="45.0251358" lon="11.7724832"><ele>2.6666666666666665</ele><time>2026-04-26T13:19:48.903Z</time></trkpt><trkpt lat="45.0249622" lon="11.7725801"><ele>2.333333333333333</ele><time>2026-04-26T13:19:49.903Z</time></trkpt><trkpt lat="45.0247722" lon="11.772665"><ele>2.0</ele><time>2026-04-26T13:19:50.904Z</time></trkpt><trkpt lat="45.0245672" lon="11.7727525"><ele>2.0</ele><time>2026-04-26T13:19:51.903Z</time></trkpt><trkpt lat="45.0243649" lon="11.7728492"><ele>2.0</ele><time>2026-04-26T13:19:52.904Z</time></trkpt><trkpt lat="45.0241728" lon="11.7729475"><ele>2.0</ele><time>2026-04-26T13:19:53.903Z</time></trkpt><trkpt lat="45.0239867" lon="11.7730281"><ele>1.6666666666666665</ele><time>2026-04-26T13:19:54.903Z</time></trkpt><trkpt lat="45.0237978" lon="11.7730824"><ele>1.3333333333333333</ele><time>2026-04-26T13:19:55.904Z</time></trkpt><trkpt lat="45.0236154" lon="11.7731035"><ele>1.0</ele><time>2026-04-26T13:19:56.903Z</time></trkpt><trkpt lat="45.023435" lon="11.7731014"><ele>1.0</ele><time>2026-04-26T13:19:57.903Z</time></trkpt><trkpt lat="45.0232541" lon="11.7730777"><ele>1.0</ele><time>2026-04-26T13:19:58.904Z</time></trkpt><trkpt lat="45.0230751" lon="11.7730318"><ele>1.0</ele><time>2026-04-26T13:19:59.903Z</time></trkpt><trkpt lat="45.0228958" lon="11.7729667"><ele>1.0</ele><time>2026-04-26T13:20:00.903Z</time></trkpt><trkpt lat="45.0227174" lon="11.7728874"><ele>1.0</ele><time>2026-04-26T13:20:01.903Z</time></trkpt><trkpt lat="45.0225382" lon="11.7728017"><ele>1.0</ele><time>2026-04-26T13:20:02.903Z</time></trkpt><trkpt lat="45.0223572" lon="11.7727109"><ele>1.3333333333333333</ele><time>2026-04-26T13:20:03.903Z</time></trkpt><trkpt lat="45.022174" lon="11.7726178"><ele>1.6666666666666665</ele><time>2026-04-26T13:20:04.903Z</time></trkpt><trkpt lat="45.0219895" lon="11.7725174"><ele>2.0</ele><time>2026-04-26T13:20:05.903Z</time></trkpt><trkpt lat="45.0218035" lon="11.7724185"><ele>2.0</ele><time>2026-04-26T13:20:06.903Z</time></trkpt><trkpt lat="45.0216138" lon="11.7723184"><ele>2.0</ele><time>2026-04-26T13:20:07.903Z</time></trkpt><trkpt lat="45.0214216" lon="11.7722178"><ele>2.0</ele><time>2026-04-26T13:20:08.904Z</time></trkpt><trkpt lat="45.0212299" lon="11.7721164"><ele>2.0</ele><time>2026-04-26T13:20:09.903Z</time></trkpt><trkpt lat="45.0210369" lon="11.7720178"><ele>2.0</ele><time>2026-04-26T13:20:10.903Z</time></trkpt><trkpt lat="45.0208434" lon="11.77192"><ele>2.0</ele><time>2026-04-26T13:20:11.904Z</time></trkpt><trkpt lat="45.0206476" lon="11.771822"><ele>2.0</ele><time>2026-04-26T13:20:12.903Z</time></trkpt><trkpt lat="45.0204501" lon="11.7717253"><ele>2.0</ele><time>2026-04-26T13:20:13.903Z</time></trkpt><trkpt lat="45.0202511" lon="11.7716259"><ele>2.0</ele><time>2026-04-26T13:20:14.903Z</time></trkpt><trkpt lat="45.0200527" lon="11.7715171"><ele>2.0</ele><time>2026-04-26T13:20:15.903Z</time></trkpt><trkpt lat="45.0198528" lon="11.7714112"><ele>2.0</ele><time>2026-04-26T13:20:16.904Z</time></trkpt><trkpt lat="45.0196504" lon="11.771306"><ele>2.0</ele><time>2026-04-26T13:20:17.904Z</time></trkpt><trkpt lat="45.0194462" lon="11.7711997"><ele>2.0</ele><time>2026-04-26T13:20:18.903Z</time></trkpt><trkpt lat="45.0192393" lon="11.7710935"><ele>2.0</ele><time>2026-04-26T13:20:19.904Z</time></trkpt><trkpt lat="45.0190298" lon="11.7709874"><ele>2.0</ele><time>2026-04-26T13:20:20.903Z</time></trkpt><trkpt lat="45.0188234" lon="11.7708793"><ele>2.0</ele><time>2026-04-26T13:20:21.903Z</time></trkpt><trkpt lat="45.0186145" lon="11.7707725"><ele>2.0</ele><time>2026-04-26T13:20:22.904Z</time></trkpt><trkpt lat="45.0184075" lon="11.7706645"><ele>2.0</ele><time>2026-04-26T13:20:23.903Z</time></trkpt><trkpt lat="45.0181994" lon="11.7705575"><ele>2.0</ele><time>2026-04-26T13:20:24.903Z</time></trkpt><trkpt lat="45.0179937" lon="11.7704525"><ele>2.0</ele><time>2026-04-26T13:20:25.903Z</time></trkpt><trkpt lat="45.0177976" lon="11.7703527"><ele>2.0</ele><time>2026-04-26T13:20:26.904Z</time></trkpt><trkpt lat="45.0176091" lon="11.7702555"><ele>2.0</ele><time>2026-04-26T13:20:27.904Z</time></trkpt><trkpt lat="45.0174266" lon="11.7701621"><ele>2.0</ele><time>2026-04-26T13:20:28.904Z</time></trkpt><trkpt lat="45.0172511" lon="11.7700716"><ele>2.0</ele><time>2026-04-26T13:20:29.904Z</time></trkpt><trkpt lat="45.0170799" lon="11.7699825"><ele>2.0</ele><time>2026-04-26T13:20:30.903Z</time></trkpt><trkpt lat="45.0169141" lon="11.7698958"><ele>2.0</ele><time>2026-04-26T13:20:31.904Z</time></trkpt><trkpt lat="45.0167485" lon="11.7698101"><ele>2.0</ele><time>2026-04-26T13:20:32.904Z</time></trkpt><trkpt lat="45.0165826" lon="11.7697241"><ele>1.6666666666666665</ele><time>2026-04-26T13:20:33.903Z</time></trkpt><trkpt lat="45.016415" lon="11.7696419"><ele>1.3333333333333333</ele><time>2026-04-26T13:20:34.903Z</time></trkpt><trkpt lat="45.0162457" lon="11.7695559"><ele>1.0</ele><time>2026-04-26T13:20:35.903Z</time></trkpt><trkpt lat="45.0160755" lon="11.7694678"><ele>1.0</ele><time>2026-04-26T13:20:36.903Z</time></trkpt><trkpt lat="45.0159036" lon="11.7693795"><ele>1.0</ele><time>2026-04-26T13:20:37.903Z</time></trkpt><trkpt lat="45.0157298" lon="11.7692887"><ele>1.0</ele><time>2026-04-26T13:20:38.903Z</time></trkpt><trkpt lat="45.015555" lon="11.7691986"><ele>1.0</ele><time>2026-04-26T13:20:39.903Z</time></trkpt><trkpt lat="45.0153781" lon="11.76911"><ele>1.0</ele><time>2026-04-26T13:20:40.903Z</time></trkpt><trkpt lat="45.0152035" lon="11.7690205"><ele>1.0</ele><time>2026-04-26T13:20:41.904Z</time></trkpt><trkpt lat="45.0150284" lon="11.7689307"><ele>1.0</ele><time>2026-04-26T13:20:42.903Z</time></trkpt><trkpt lat="45.0148539" lon="11.7688413"><ele>1.0</ele><time>2026-04-26T13:20:43.904Z</time></trkpt><trkpt lat="45.0146796" lon="11.7687545"><ele>1.0</ele><time>2026-04-26T13:20:44.904Z</time></trkpt><trkpt lat="45.0145063" lon="11.7686669"><ele>1.0</ele><time>2026-04-26T13:20:45.903Z</time></trkpt><trkpt lat="45.0143334" lon="11.7685742"><ele>1.0</ele><time>2026-04-26T13:20:46.903Z</time></trkpt><trkpt lat="45.0141612" lon="11.7684835"><ele>1.0</ele><time>2026-04-26T13:20:47.903Z</time></trkpt><trkpt lat="45.0139931" lon="11.7683843"><ele>2.0</ele><time>2026-04-26T13:20:48.904Z</time></trkpt><trkpt lat="45.0138271" lon="11.7683004"><ele>3.0</ele><time>2026-04-26T13:20:49.904Z</time></trkpt><trkpt lat="45.0136644" lon="11.7682191"><ele>4.0</ele><time>2026-04-26T13:20:50.904Z</time></trkpt><trkpt lat="45.0135066" lon="11.768135"><ele>4.0</ele><time>2026-04-26T13:20:51.903Z</time></trkpt><trkpt lat="45.0133478" lon="11.7680521"><ele>4.0</ele><time>2026-04-26T13:20:52.903Z</time></trkpt><trkpt lat="45.0131904" lon="11.7679705"><ele>4.0</ele><time>2026-04-26T13:20:53.904Z</time></trkpt><trkpt lat="45.0130309" lon="11.7678875"><ele>4.0</ele><time>2026-04-26T13:20:54.903Z</time></trkpt><trkpt lat="45.0128715" lon="11.7678062"><ele>4.0</ele><time>2026-04-26T13:20:55.904Z</time></trkpt><trkpt lat="45.0127112" lon="11.7677236"><ele>4.0</ele><time>2026-04-26T13:20:56.903Z</time></trkpt><trkpt lat="45.012548" lon="11.7676385"><ele>3.6666666666666665</ele><time>2026-04-26T13:20:57.903Z</time></trkpt><trkpt lat="45.012384" lon="11.7675551"><ele>3.333333333333333</ele><time>2026-04-26T13:20:58.903Z</time></trkpt><trkpt lat="45.0122169" lon="11.7674679"><ele>3.0</ele><time>2026-04-26T13:20:59.904Z</time></trkpt><trkpt lat="45.0120493" lon="11.7673829"><ele>3.0</ele><time>2026-04-26T13:21:00.903Z</time></trkpt><trkpt lat="45.0118816" lon="11.7672994"><ele>3.0</ele><time>2026-04-26T13:21:01.903Z</time></trkpt><trkpt lat="45.0117132" lon="11.7672164"><ele>3.0</ele><time>2026-04-26T13:21:02.903Z</time></trkpt><trkpt lat="45.0115462" lon="11.7671327"><ele>3.0</ele><time>2026-04-26T13:21:03.903Z</time></trkpt><trkpt lat="45.0113777" lon="11.7670452"><ele>3.0</ele><time>2026-04-26T13:21:04.903Z</time></trkpt><trkpt lat="45.0112102" lon="11.7669577"><ele>3.0</ele><time>2026-04-26T13:21:05.903Z</time></trkpt><trkpt lat="45.0110478" lon="11.7668708"><ele>3.0</ele><time>2026-04-26T13:21:06.903Z</time></trkpt><trkpt lat="45.0108952" lon="11.7667899"><ele>3.0</ele><time>2026-04-26T13:21:07.903Z</time></trkpt><trkpt lat="45.0107539" lon="11.7667166"><ele>3.0</ele><time>2026-04-26T13:21:08.903Z</time></trkpt><trkpt lat="45.0106234" lon="11.7666518"><ele>3.25</ele><time>2026-04-26T13:21:09.903Z</time></trkpt><trkpt lat="45.0105025" lon="11.7665934"><ele>3.5</ele><time>2026-04-26T13:21:10.904Z</time></trkpt><trkpt lat="45.010388" lon="11.7665404"><ele>3.75</ele><time>2026-04-26T13:21:11.903Z</time></trkpt><trkpt lat="45.0102824" lon="11.7664914"><ele>4.0</ele><time>2026-04-26T13:21:12.903Z</time></trkpt><trkpt lat="45.0101855" lon="11.7664473"><ele>4.0</ele><time>2026-04-26T13:21:13.904Z</time></trkpt><trkpt lat="45.0100993" lon="11.7664071"><ele>4.0</ele><time>2026-04-26T13:21:14.903Z</time></trkpt><trkpt lat="45.0100264" lon="11.7663794"><ele>4.0</ele><time>2026-04-26T13:21:15.903Z</time></trkpt><trkpt lat="45.0099219" lon="11.7664116"><ele>4.0</ele><time>2026-04-26T13:21:17.903Z</time></trkpt><trkpt lat="45.0098747" lon="11.7665165"><ele>4.0</ele><time>2026-04-26T13:21:19.903Z</time></trkpt><trkpt lat="45.0099028" lon="11.7666392"><ele>4.0</ele><time>2026-04-26T13:21:21.904Z</time></trkpt><trkpt lat="45.0099911" lon="11.7667686"><ele>4.0</ele><time>2026-04-26T13:21:23.903Z</time></trkpt><trkpt lat="45.0100486" lon="11.7668131"><ele>4.0</ele><time>2026-04-26T13:21:24.903Z</time></trkpt><trkpt lat="45.0101215" lon="11.7668635"><ele>4.0</ele><time>2026-04-26T13:21:26.904Z</time></trkpt><trkpt lat="45.0102218" lon="11.7668497"><ele>4.0</ele><time>2026-04-26T13:21:44.903Z</time></trkpt><trkpt lat="45.0102779" lon="11.7667552"><ele>4.0</ele><time>2026-04-26T13:21:46.904Z</time></trkpt><trkpt lat="45.0102846" lon="11.766637"><ele>4.0</ele><time>2026-04-26T13:21:49.903Z</time></trkpt><trkpt lat="45.0102423" lon="11.7665183"><ele>4.0</ele><time>2026-04-26T13:21:52.903Z</time></trkpt><trkpt lat="45.0101552" lon="11.7664141"><ele>4.0</ele><time>2026-04-26T13:21:54.904Z</time></trkpt><trkpt lat="45.0100812" lon="11.7663728"><ele>4.0</ele><time>2026-04-26T13:21:55.904Z</time></trkpt><trkpt lat="45.0099945" lon="11.7663291"><ele>3.5</ele><time>2026-04-26T13:21:56.904Z</time></trkpt><trkpt lat="45.0098961" lon="11.7662772"><ele>3.0</ele><time>2026-04-26T13:21:57.903Z</time></trkpt><trkpt lat="45.0097902" lon="11.7662223"><ele>2.5</ele><time>2026-04-26T13:21:58.903Z</time></trkpt><trkpt lat="45.009682" lon="11.7661669"><ele>2.0</ele><time>2026-04-26T13:21:59.904Z</time></trkpt><trkpt lat="45.0095683" lon="11.7661067"><ele>2.0</ele><time>2026-04-26T13:22:00.903Z</time></trkpt><trkpt lat="45.0094474" lon="11.7660446"><ele>2.0</ele><time>2026-04-26T13:22:01.904Z</time></trkpt><trkpt lat="45.0093203" lon="11.7659798"><ele>2.0</ele><time>2026-04-26T13:22:02.903Z</time></trkpt><trkpt lat="45.0091887" lon="11.7659133"><ele>2.0</ele><time>2026-04-26T13:22:03.904Z</time></trkpt><trkpt lat="45.0090493" lon="11.7658426"><ele>2.6666666666666665</ele><time>2026-04-26T13:22:04.904Z</time></trkpt><trkpt lat="45.0089061" lon="11.7657701"><ele>3.333333333333333</ele><time>2026-04-26T13:22:05.904Z</time></trkpt><trkpt lat="45.0087566" lon="11.7656924"><ele>4.0</ele><time>2026-04-26T13:22:06.903Z</time></trkpt><trkpt lat="45.0085997" lon="11.7656087"><ele>4.0</ele><time>2026-04-26T13:22:07.904Z</time></trkpt><trkpt lat="45.0084345" lon="11.7655202"><ele>4.0</ele><time>2026-04-26T13:22:08.903Z</time></trkpt><trkpt lat="45.0082691" lon="11.7654342"><ele>4.0</ele><time>2026-04-26T13:22:09.903Z</time></trkpt><trkpt lat="45.0081009" lon="11.7653498"><ele>4.0</ele><time>2026-04-26T13:22:10.904Z</time></trkpt><trkpt lat="45.0079317" lon="11.7652643"><ele>4.0</ele><time>2026-04-26T13:22:11.903Z</time></trkpt><trkpt lat="45.007762" lon="11.7651707"><ele>4.0</ele><time>2026-04-26T13:22:12.904Z</time></trkpt><trkpt lat="45.0075915" lon="11.7650772"><ele>3.6666666666666665</ele><time>2026-04-26T13:22:13.904Z</time></trkpt><trkpt lat="45.0074189" lon="11.7649859"><ele>3.333333333333333</ele><time>2026-04-26T13:22:14.903Z</time></trkpt><trkpt lat="45.0072444" lon="11.7648954"><ele>3.0</ele><time>2026-04-26T13:22:15.903Z</time></trkpt><trkpt lat="45.0070716" lon="11.764808"><ele>3.0</ele><time>2026-04-26T13:22:16.903Z</time></trkpt><trkpt lat="45.006897" lon="11.7647252"><ele>3.0</ele><time>2026-04-26T13:22:17.903Z</time></trkpt><trkpt lat="45.0067202" lon="11.7646486"><ele>3.0</ele><time>2026-04-26T13:22:18.903Z</time></trkpt><trkpt lat="45.0065404" lon="11.7645834"><ele>2.3333333333333335</ele><time>2026-04-26T13:22:19.903Z</time></trkpt><trkpt lat="45.0063608" lon="11.7645259"><ele>1.6666666666666665</ele><time>2026-04-26T13:22:20.903Z</time></trkpt><trkpt lat="45.00618" lon="11.7644748"><ele>1.0</ele><time>2026-04-26T13:22:21.903Z</time></trkpt><trkpt lat="45.0059985" lon="11.7644291"><ele>1.0</ele><time>2026-04-26T13:22:22.903Z</time></trkpt><trkpt lat="45.0058212" lon="11.7643863"><ele>1.0</ele><time>2026-04-26T13:22:23.904Z</time></trkpt><trkpt lat="45.0056461" lon="11.7643468"><ele>1.0</ele><time>2026-04-26T13:22:24.903Z</time></trkpt><trkpt lat="45.0054799" lon="11.7643137"><ele>1.0</ele><time>2026-04-26T13:22:25.904Z</time></trkpt><trkpt lat="45.0053224" lon="11.7642831"><ele>1.0</ele><time>2026-04-26T13:22:26.904Z</time></trkpt><trkpt lat="45.0051743" lon="11.7642547"><ele>1.0</ele><time>2026-04-26T13:22:27.903Z</time></trkpt><trkpt lat="45.0050373" lon="11.7642258"><ele>1.0</ele><time>2026-04-26T13:22:28.904Z</time></trkpt><trkpt lat="45.0049139" lon="11.7641953"><ele>1.2000000000000002</ele><time>2026-04-26T13:22:29.904Z</time></trkpt><trkpt lat="45.0048047" lon="11.7641676"><ele>1.4000000000000001</ele><time>2026-04-26T13:22:30.903Z</time></trkpt><trkpt lat="45.0047102" lon="11.7641452"><ele>1.6</ele><time>2026-04-26T13:22:31.903Z</time></trkpt><trkpt lat="45.0046309" lon="11.7641271"><ele>1.8</ele><time>2026-04-26T13:22:32.904Z</time></trkpt><trkpt lat="45.004522" lon="11.7641049"><ele>2.0</ele><time>2026-04-26T13:22:34.903Z</time></trkpt><trkpt lat="45.0044585" lon="11.7640925"><ele>1.9999999999999998</ele><time>2026-04-26T13:22:36.904Z</time></trkpt><trkpt lat="45.0043934" lon="11.764077"><ele>2.0</ele><time>2026-04-26T13:22:40.904Z</time></trkpt><trkpt lat="45.0042917" lon="11.7640541"><ele>2.0</ele><time>2026-04-26T13:23:29.904Z</time></trkpt><trkpt lat="45.0042274" lon="11.764039"><ele>2.0</ele><time>2026-04-26T13:23:30.904Z</time></trkpt><trkpt lat="45.0041605" lon="11.7640246"><ele>1.9999999999999998</ele><time>2026-04-26T13:23:31.903Z</time></trkpt><trkpt lat="45.0040897" lon="11.7640092"><ele>2.0</ele><time>2026-04-26T13:23:32.904Z</time></trkpt><trkpt lat="45.0040125" lon="11.7639959"><ele>2.333333333333333</ele><time>2026-04-26T13:23:33.903Z</time></trkpt><trkpt lat="45.0039308" lon="11.7639797"><ele>2.6666666666666665</ele><time>2026-04-26T13:23:34.903Z</time></trkpt><trkpt lat="45.0038469" lon="11.7639629"><ele>3.0</ele><time>2026-04-26T13:23:35.903Z</time></trkpt><trkpt lat="45.003759" lon="11.7639495"><ele>3.333333333333333</ele><time>2026-04-26T13:23:36.904Z</time></trkpt><trkpt lat="45.0036663" lon="11.7639401"><ele>3.6666666666666665</ele><time>2026-04-26T13:23:37.904Z</time></trkpt><trkpt lat="45.0035722" lon="11.7639299"><ele>4.0</ele><time>2026-04-26T13:23:38.903Z</time></trkpt><trkpt lat="45.0034796" lon="11.7639234"><ele>3.9999999999999996</ele><time>2026-04-26T13:23:39.903Z</time></trkpt><trkpt lat="45.0033876" lon="11.7639179"><ele>4.0</ele><time>2026-04-26T13:23:40.903Z</time></trkpt><trkpt lat="45.0033004" lon="11.7639096"><ele>4.0</ele><time>2026-04-26T13:23:41.903Z</time></trkpt><trkpt lat="45.0032167" lon="11.7638999"><ele>4.0</ele><time>2026-04-26T13:23:42.903Z</time></trkpt><trkpt lat="45.0031395" lon="11.7638908"><ele>3.9999999999999996</ele><time>2026-04-26T13:23:43.903Z</time></trkpt><trkpt lat="45.0030689" lon="11.7638789"><ele>4.0</ele><time>2026-04-26T13:23:44.903Z</time></trkpt><trkpt lat="45.003" lon="11.7638639"><ele>3.6666666666666665</ele><time>2026-04-26T13:23:45.903Z</time></trkpt><trkpt lat="45.0029287" lon="11.7638501"><ele>3.333333333333333</ele><time>2026-04-26T13:23:46.904Z</time></trkpt><trkpt lat="45.0028552" lon="11.7638334"><ele>3.0</ele><time>2026-04-26T13:23:47.904Z</time></trkpt><trkpt lat="45.0027825" lon="11.763817"><ele>2.6666666666666665</ele><time>2026-04-26T13:23:48.903Z</time></trkpt><trkpt lat="45.0027094" lon="11.7638014"><ele>2.333333333333333</ele><time>2026-04-26T13:23:49.903Z</time></trkpt><trkpt lat="45.0026335" lon="11.7637857"><ele>2.0</ele><time>2026-04-26T13:23:50.903Z</time></trkpt><trkpt lat="45.0025505" lon="11.7637693"><ele>2.2</ele><time>2026-04-26T13:23:51.903Z</time></trkpt><trkpt lat="45.0024586" lon="11.7637481"><ele>2.4000000000000004</ele><time>2026-04-26T13:23:52.904Z</time></trkpt><trkpt lat="45.0023631" lon="11.7637275"><ele>2.5999999999999996</ele><time>2026-04-26T13:23:53.904Z</time></trkpt><trkpt lat="45.0022615" lon="11.7637047"><ele>2.8</ele><time>2026-04-26T13:23:54.903Z</time></trkpt><trkpt lat="45.0021617" lon="11.7636804"><ele>3.0</ele><time>2026-04-26T13:23:55.904Z</time></trkpt><trkpt lat="45.0020702" lon="11.7636607"><ele>3.0</ele><time>2026-04-26T13:23:56.903Z</time></trkpt><trkpt lat="45.0019795" lon="11.7636368"><ele>3.0</ele><time>2026-04-26T13:23:57.903Z</time></trkpt><trkpt lat="45.0018793" lon="11.7635936"><ele>3.0</ele><time>2026-04-26T13:23:58.903Z</time></trkpt><trkpt lat="45.0017692" lon="11.7635417"><ele>3.0</ele><time>2026-04-26T13:23:59.904Z</time></trkpt><trkpt lat="45.0016447" lon="11.7635067"><ele>3.0</ele><time>2026-04-26T13:24:00.904Z</time></trkpt><trkpt lat="45.0015019" lon="11.7634745"><ele>3.666666666666667</ele><time>2026-04-26T13:24:01.904Z</time></trkpt><trkpt lat="45.0013484" lon="11.763448"><ele>4.333333333333334</ele><time>2026-04-26T13:24:02.904Z</time></trkpt><trkpt lat="45.0011869" lon="11.7634142"><ele>5.0</ele><time>2026-04-26T13:24:03.903Z</time></trkpt><trkpt lat="45.0010186" lon="11.7633784"><ele>5.0</ele><time>2026-04-26T13:24:04.904Z</time></trkpt><trkpt lat="45.0008462" lon="11.7633424"><ele>5.0</ele><time>2026-04-26T13:24:05.904Z</time></trkpt><trkpt lat="45.0006801" lon="11.7633076"><ele>5.0</ele><time>2026-04-26T13:24:06.904Z</time></trkpt><trkpt lat="45.0005239" lon="11.7632741"><ele>4.75</ele><time>2026-04-26T13:24:07.903Z</time></trkpt><trkpt lat="45.0003729" lon="11.7632416"><ele>4.5</ele><time>2026-04-26T13:24:08.904Z</time></trkpt><trkpt lat="45.000227" lon="11.7632125"><ele>4.25</ele><time>2026-04-26T13:24:09.904Z</time></trkpt><trkpt lat="45.0000815" lon="11.7631829"><ele>4.0</ele><time>2026-04-26T13:24:10.904Z</time></trkpt><trkpt lat="44.9999327" lon="11.7631543"><ele>4.0</ele><time>2026-04-26T13:24:11.903Z</time></trkpt><trkpt lat="44.9997822" lon="11.7631242"><ele>4.0</ele><time>2026-04-26T13:24:12.904Z</time></trkpt><trkpt lat="44.9996306" lon="11.7630902"><ele>4.0</ele><time>2026-04-26T13:24:13.904Z</time></trkpt><trkpt lat="44.9994773" lon="11.7630545"><ele>4.0</ele><time>2026-04-26T13:24:14.903Z</time></trkpt><trkpt lat="44.9993184" lon="11.7630271"><ele>4.0</ele><time>2026-04-26T13:24:15.903Z</time></trkpt><trkpt lat="44.9991617" lon="11.7629977"><ele>4.0</ele><time>2026-04-26T13:24:16.903Z</time></trkpt><trkpt lat="44.9990016" lon="11.7629657"><ele>3.6666666666666665</ele><time>2026-04-26T13:24:17.903Z</time></trkpt><trkpt lat="44.9988402" lon="11.7629315"><ele>3.333333333333333</ele><time>2026-04-26T13:24:18.903Z</time></trkpt><trkpt lat="44.9986813" lon="11.7628956"><ele>3.0</ele><time>2026-04-26T13:24:19.904Z</time></trkpt><trkpt lat="44.9985193" lon="11.7628584"><ele>3.0</ele><time>2026-04-26T13:24:20.904Z</time></trkpt><trkpt lat="44.9983565" lon="11.7628225"><ele>3.0</ele><time>2026-04-26T13:24:21.903Z</time></trkpt><trkpt lat="44.998197" lon="11.7627878"><ele>3.0</ele><time>2026-04-26T13:24:22.903Z</time></trkpt><trkpt lat="44.998043" lon="11.7627555"><ele>3.0</ele><time>2026-04-26T13:24:23.903Z</time></trkpt><trkpt lat="44.9978957" lon="11.7627245"><ele>3.0</ele><time>2026-04-26T13:24:24.903Z</time></trkpt><trkpt lat="44.9977512" lon="11.7626917"><ele>3.0</ele><time>2026-04-26T13:24:25.904Z</time></trkpt><trkpt lat="44.9976078" lon="11.7626619"><ele>3.0</ele><time>2026-04-26T13:24:26.903Z</time></trkpt><trkpt lat="44.9974631" lon="11.7626306"><ele>3.0</ele><time>2026-04-26T13:24:27.904Z</time></trkpt><trkpt lat="44.9973168" lon="11.7625992"><ele>3.0</ele><time>2026-04-26T13:24:28.904Z</time></trkpt><trkpt lat="44.9971707" lon="11.7625677"><ele>3.0</ele><time>2026-04-26T13:24:29.903Z</time></trkpt><trkpt lat="44.9970209" lon="11.7625343"><ele>3.0</ele><time>2026-04-26T13:24:30.903Z</time></trkpt><trkpt lat="44.9968659" lon="11.7625"><ele>3.0</ele><time>2026-04-26T13:24:31.903Z</time></trkpt><trkpt lat="44.9967094" lon="11.7624674"><ele>3.0</ele><time>2026-04-26T13:24:32.904Z</time></trkpt><trkpt lat="44.9965538" lon="11.7624325"><ele>3.0</ele><time>2026-04-26T13:24:33.904Z</time></trkpt><trkpt lat="44.9963947" lon="11.762403"><ele>2.6666666666666665</ele><time>2026-04-26T13:24:34.903Z</time></trkpt><trkpt lat="44.9962384" lon="11.7623727"><ele>2.333333333333333</ele><time>2026-04-26T13:24:35.904Z</time></trkpt><trkpt lat="44.9960882" lon="11.7623471"><ele>2.0</ele><time>2026-04-26T13:24:36.904Z</time></trkpt><trkpt lat="44.9959436" lon="11.762312"><ele>2.25</ele><time>2026-04-26T13:24:37.904Z</time></trkpt><trkpt lat="44.9957982" lon="11.7622871"><ele>2.5</ele><time>2026-04-26T13:24:38.903Z</time></trkpt><trkpt lat="44.9956481" lon="11.7622591"><ele>2.75</ele><time>2026-04-26T13:24:39.903Z</time></trkpt><trkpt lat="44.9954993" lon="11.7622284"><ele>3.0</ele><time>2026-04-26T13:24:40.903Z</time></trkpt><trkpt lat="44.9953481" lon="11.7622007"><ele>3.0</ele><time>2026-04-26T13:24:41.903Z</time></trkpt><trkpt lat="44.9951978" lon="11.7621696"><ele>3.0</ele><time>2026-04-26T13:24:42.903Z</time></trkpt><trkpt lat="44.9950629" lon="11.7621426"><ele>3.0</ele><time>2026-04-26T13:24:43.903Z</time></trkpt><trkpt lat="44.9949433" lon="11.7621185"><ele>3.0</ele><time>2026-04-26T13:24:44.904Z</time></trkpt><trkpt lat="44.9948363" lon="11.7620991"><ele>3.0</ele><time>2026-04-26T13:24:45.904Z</time></trkpt><trkpt lat="44.9947333" lon="11.762082"><ele>3.0</ele><time>2026-04-26T13:24:46.903Z</time></trkpt><trkpt lat="44.99463" lon="11.7620702"><ele>3.0</ele><time>2026-04-26T13:24:47.904Z</time></trkpt><trkpt lat="44.9945221" lon="11.7620542"><ele>3.0</ele><time>2026-04-26T13:24:48.903Z</time></trkpt><trkpt lat="44.9944035" lon="11.7620246"><ele>3.0</ele><time>2026-04-26T13:24:49.904Z</time></trkpt><trkpt lat="44.9942792" lon="11.7619924"><ele>2.75</ele><time>2026-04-26T13:24:50.903Z</time></trkpt><trkpt lat="44.9941512" lon="11.761965"><ele>2.5</ele><time>2026-04-26T13:24:51.904Z</time></trkpt><trkpt lat="44.9940215" lon="11.7619383"><ele>2.25</ele><time>2026-04-26T13:24:52.903Z</time></trkpt><trkpt lat="44.9938904" lon="11.7619098"><ele>2.0</ele><time>2026-04-26T13:24:53.904Z</time></trkpt><trkpt lat="44.9937687" lon="11.7618784"><ele>2.0</ele><time>2026-04-26T13:24:54.904Z</time></trkpt><trkpt lat="44.9936621" lon="11.7618527"><ele>2.0</ele><time>2026-04-26T13:24:55.903Z</time></trkpt><trkpt lat="44.993561" lon="11.7618267"><ele>2.0</ele><time>2026-04-26T13:24:56.903Z</time></trkpt><trkpt lat="44.9934578" lon="11.7618021"><ele>2.0</ele><time>2026-04-26T13:24:57.904Z</time></trkpt><trkpt lat="44.9933523" lon="11.7617846"><ele>2.0</ele><time>2026-04-26T13:24:58.904Z</time></trkpt><trkpt lat="44.9932415" lon="11.7617603"><ele>2.25</ele><time>2026-04-26T13:24:59.903Z</time></trkpt><trkpt lat="44.9931228" lon="11.7617401"><ele>2.5</ele><time>2026-04-26T13:25:00.904Z</time></trkpt><trkpt lat="44.9929984" lon="11.7617104"><ele>2.75</ele><time>2026-04-26T13:25:01.903Z</time></trkpt><trkpt lat="44.9928475" lon="11.7616919"><ele>3.0</ele><time>2026-04-26T13:25:02.903Z</time></trkpt><trkpt lat="44.9926815" lon="11.7616684"><ele>3.0</ele><time>2026-04-26T13:25:03.903Z</time></trkpt><trkpt lat="44.9924981" lon="11.7616317"><ele>3.0</ele><time>2026-04-26T13:25:04.903Z</time></trkpt><trkpt lat="44.992307" lon="11.7615795"><ele>3.0</ele><time>2026-04-26T13:25:05.903Z</time></trkpt><trkpt lat="44.9921087" lon="11.7615277"><ele>3.0</ele><time>2026-04-26T13:25:06.904Z</time></trkpt><trkpt lat="44.9919003" lon="11.7614962"><ele>3.0</ele><time>2026-04-26T13:25:07.904Z</time></trkpt><trkpt lat="44.9916861" lon="11.7614576"><ele>3.0</ele><time>2026-04-26T13:25:08.903Z</time></trkpt><trkpt lat="44.9914649" lon="11.7613928"><ele>3.0</ele><time>2026-04-26T13:25:09.903Z</time></trkpt><trkpt lat="44.9912391" lon="11.7613243"><ele>3.0</ele><time>2026-04-26T13:25:10.903Z</time></trkpt><trkpt lat="44.9910023" lon="11.7612711"><ele>3.0</ele><time>2026-04-26T13:25:11.904Z</time></trkpt><trkpt lat="44.9907625" lon="11.761222"><ele>3.0</ele><time>2026-04-26T13:25:12.903Z</time></trkpt><trkpt lat="44.9905203" lon="11.7611617"><ele>3.0</ele><time>2026-04-26T13:25:13.903Z</time></trkpt><trkpt lat="44.9902746" lon="11.761109"><ele>3.0</ele><time>2026-04-26T13:25:14.904Z</time></trkpt><trkpt lat="44.9900327" lon="11.761052"><ele>1.5</ele><time>2026-04-26T13:25:15.904Z</time></trkpt><trkpt lat="44.989797" lon="11.7610018"><ele>0.0</ele><time>2026-04-26T13:25:16.904Z</time></trkpt><trkpt lat="44.9895703" lon="11.760956"><ele>0.0</ele><time>2026-04-26T13:25:17.904Z</time></trkpt><trkpt lat="44.9893495" lon="11.7609083"><ele>0.0</ele><time>2026-04-26T13:25:18.903Z</time></trkpt><trkpt lat="44.9891417" lon="11.7608638"><ele>0.0</ele><time>2026-04-26T13:25:19.903Z</time></trkpt><trkpt lat="44.9889424" lon="11.7608212"><ele>0.0</ele><time>2026-04-26T13:25:20.904Z</time></trkpt><trkpt lat="44.9887548" lon="11.7607815"><ele>0.0</ele><time>2026-04-26T13:25:21.904Z</time></trkpt><trkpt lat="44.9885705" lon="11.7607409"><ele>0.0</ele><time>2026-04-26T13:25:22.903Z</time></trkpt><trkpt lat="44.9883941" lon="11.7607034"><ele>-0.3333333333333333</ele><time>2026-04-26T13:25:23.903Z</time></trkpt><trkpt lat="44.9882208" lon="11.7606666"><ele>-0.6666666666666666</ele><time>2026-04-26T13:25:24.904Z</time></trkpt><trkpt lat="44.9880505" lon="11.7606305"><ele>-1.0</ele><time>2026-04-26T13:25:25.903Z</time></trkpt><trkpt lat="44.9878905" lon="11.7605945"><ele>-1.0</ele><time>2026-04-26T13:25:26.903Z</time></trkpt><trkpt lat="44.9877359" lon="11.7605576"><ele>-1.0</ele><time>2026-04-26T13:25:27.904Z</time></trkpt><trkpt lat="44.9875874" lon="11.7605319"><ele>-1.0</ele><time>2026-04-26T13:25:28.903Z</time></trkpt><trkpt lat="44.9874428" lon="11.7605003"><ele>-0.6666666666666666</ele><time>2026-04-26T13:25:29.903Z</time></trkpt><trkpt lat="44.9872957" lon="11.7604663"><ele>-0.3333333333333333</ele><time>2026-04-26T13:25:30.903Z</time></trkpt><trkpt lat="44.987145" lon="11.7604343"><ele>0.0</ele><time>2026-04-26T13:25:31.903Z</time></trkpt><trkpt lat="44.9869918" lon="11.7604048"><ele>0.0</ele><time>2026-04-26T13:25:32.903Z</time></trkpt><trkpt lat="44.9868369" lon="11.7603738"><ele>0.0</ele><time>2026-04-26T13:25:33.904Z</time></trkpt><trkpt lat="44.9866791" lon="11.7603424"><ele>0.0</ele><time>2026-04-26T13:25:34.904Z</time></trkpt><trkpt lat="44.9865263" lon="11.7603122"><ele>0.0</ele><time>2026-04-26T13:25:35.904Z</time></trkpt><trkpt lat="44.9863789" lon="11.7602817"><ele>0.0</ele><time>2026-04-26T13:25:36.903Z</time></trkpt><trkpt lat="44.9862346" lon="11.7602514"><ele>0.0</ele><time>2026-04-26T13:25:37.903Z</time></trkpt><trkpt lat="44.9860898" lon="11.7602234"><ele>0.0</ele><time>2026-04-26T13:25:38.903Z</time></trkpt><trkpt lat="44.9859448" lon="11.7601947"><ele>0.0</ele><time>2026-04-26T13:25:39.904Z</time></trkpt><trkpt lat="44.985795" lon="11.7601686"><ele>0.0</ele><time>2026-04-26T13:25:40.903Z</time></trkpt><trkpt lat="44.985645" lon="11.7601416"><ele>0.0</ele><time>2026-04-26T13:25:41.903Z</time></trkpt><trkpt lat="44.985498" lon="11.7601125"><ele>0.0</ele><time>2026-04-26T13:25:42.903Z</time></trkpt><trkpt lat="44.9853493" lon="11.7600811"><ele>0.0</ele><time>2026-04-26T13:25:43.903Z</time></trkpt><trkpt lat="44.9851967" lon="11.7600512"><ele>0.0</ele><time>2026-04-26T13:25:44.904Z</time></trkpt><trkpt lat="44.9850501" lon="11.7600126"><ele>0.0</ele><time>2026-04-26T13:25:45.904Z</time></trkpt><trkpt lat="44.9849023" lon="11.7599832"><ele>0.0</ele><time>2026-04-26T13:25:46.904Z</time></trkpt><trkpt lat="44.9847529" lon="11.7599536"><ele>0.0</ele><time>2026-04-26T13:25:47.904Z</time></trkpt><trkpt lat="44.9846039" lon="11.7599198"><ele>0.0</ele><time>2026-04-26T13:25:48.903Z</time></trkpt><trkpt lat="44.9844569" lon="11.7598893"><ele>0.0</ele><time>2026-04-26T13:25:49.904Z</time></trkpt><trkpt lat="44.9843122" lon="11.7598618"><ele>0.0</ele><time>2026-04-26T13:25:50.903Z</time></trkpt><trkpt lat="44.9841669" lon="11.7598313"><ele>0.0</ele><time>2026-04-26T13:25:51.903Z</time></trkpt><trkpt lat="44.984022" lon="11.7598002"><ele>0.25</ele><time>2026-04-26T13:25:52.904Z</time></trkpt><trkpt lat="44.9838832" lon="11.7597719"><ele>0.5</ele><time>2026-04-26T13:25:53.903Z</time></trkpt><trkpt lat="44.9837468" lon="11.7597457"><ele>0.75</ele><time>2026-04-26T13:25:54.904Z</time></trkpt><trkpt lat="44.9836135" lon="11.7597193"><ele>1.0</ele><time>2026-04-26T13:25:55.904Z</time></trkpt><trkpt lat="44.9834786" lon="11.7596916"><ele>0.75</ele><time>2026-04-26T13:25:56.903Z</time></trkpt><trkpt lat="44.9833411" lon="11.7596615"><ele>0.5</ele><time>2026-04-26T13:25:57.903Z</time></trkpt><trkpt lat="44.9832032" lon="11.75963"><ele>0.25</ele><time>2026-04-26T13:25:58.904Z</time></trkpt><trkpt lat="44.9830646" lon="11.759602"><ele>0.0</ele><time>2026-04-26T13:25:59.904Z</time></trkpt><trkpt lat="44.9829254" lon="11.7595765"><ele>0.0</ele><time>2026-04-26T13:26:00.904Z</time></trkpt><trkpt lat="44.9827846" lon="11.7595463"><ele>0.0</ele><time>2026-04-26T13:26:01.903Z</time></trkpt><trkpt lat="44.9826273" lon="11.7595185"><ele>0.0</ele><time>2026-04-26T13:26:02.903Z</time></trkpt><trkpt lat="44.9824512" lon="11.7594942"><ele>0.0</ele><time>2026-04-26T13:26:03.903Z</time></trkpt><trkpt lat="44.9822632" lon="11.7594522"><ele>0.0</ele><time>2026-04-26T13:26:04.904Z</time></trkpt><trkpt lat="44.9820547" lon="11.7594118"><ele>0.0</ele><time>2026-04-26T13:26:05.903Z</time></trkpt><trkpt lat="44.9818308" lon="11.7593679"><ele>0.3333333333333333</ele><time>2026-04-26T13:26:06.903Z</time></trkpt><trkpt lat="44.9816115" lon="11.7593138"><ele>0.6666666666666666</ele><time>2026-04-26T13:26:07.904Z</time></trkpt><trkpt lat="44.9814222" lon="11.7592686"><ele>1.0</ele><time>2026-04-26T13:26:08.904Z</time></trkpt><trkpt lat="44.981254" lon="11.7592305"><ele>1.0</ele><time>2026-04-26T13:26:09.903Z</time></trkpt><trkpt lat="44.9811046" lon="11.7591957"><ele>1.0</ele><time>2026-04-26T13:26:10.903Z</time></trkpt><trkpt lat="44.9809698" lon="11.7591662"><ele>1.0</ele><time>2026-04-26T13:26:11.903Z</time></trkpt><trkpt lat="44.9808417" lon="11.7591381"><ele>1.0</ele><time>2026-04-26T13:26:12.903Z</time></trkpt><trkpt lat="44.9807106" lon="11.7591113"><ele>1.25</ele><time>2026-04-26T13:26:13.903Z</time></trkpt><trkpt lat="44.9805763" lon="11.7590781"><ele>1.5</ele><time>2026-04-26T13:26:14.904Z</time></trkpt><trkpt lat="44.9804399" lon="11.759045"><ele>1.75</ele><time>2026-04-26T13:26:15.904Z</time></trkpt><trkpt lat="44.9803001" lon="11.7590164"><ele>2.0</ele><time>2026-04-26T13:26:16.903Z</time></trkpt><trkpt lat="44.9801553" lon="11.7589847"><ele>1.75</ele><time>2026-04-26T13:26:17.904Z</time></trkpt><trkpt lat="44.9800094" lon="11.7589565"><ele>1.5</ele><time>2026-04-26T13:26:18.903Z</time></trkpt><trkpt lat="44.9798648" lon="11.7589184"><ele>1.25</ele><time>2026-04-26T13:26:19.904Z</time></trkpt><trkpt lat="44.9797208" lon="11.7588899"><ele>1.0</ele><time>2026-04-26T13:26:20.903Z</time></trkpt><trkpt lat="44.9795772" lon="11.7588588"><ele>1.0</ele><time>2026-04-26T13:26:21.904Z</time></trkpt><trkpt lat="44.979435" lon="11.7588282"><ele>1.0</ele><time>2026-04-26T13:26:22.903Z</time></trkpt><trkpt lat="44.9792917" lon="11.7588022"><ele>1.0</ele><time>2026-04-26T13:26:23.904Z</time></trkpt><trkpt lat="44.9791445" lon="11.758774"><ele>1.0</ele><time>2026-04-26T13:26:24.903Z</time></trkpt><trkpt lat="44.9789985" lon="11.7587408"><ele>1.0</ele><time>2026-04-26T13:26:25.903Z</time></trkpt><trkpt lat="44.9788532" lon="11.7587133"><ele>1.0</ele><time>2026-04-26T13:26:26.904Z</time></trkpt><trkpt lat="44.9787082" lon="11.7586796"><ele>1.0</ele><time>2026-04-26T13:26:27.903Z</time></trkpt><trkpt lat="44.9785587" lon="11.7586475"><ele>1.0</ele><time>2026-04-26T13:26:28.903Z</time></trkpt><trkpt lat="44.9784081" lon="11.7586185"><ele>1.3333333333333333</ele><time>2026-04-26T13:26:29.904Z</time></trkpt><trkpt lat="44.9782568" lon="11.75859"><ele>1.6666666666666665</ele><time>2026-04-26T13:26:30.903Z</time></trkpt><trkpt lat="44.9781046" lon="11.7585593"><ele>2.0</ele><time>2026-04-26T13:26:31.903Z</time></trkpt><trkpt lat="44.9779518" lon="11.7585175"><ele>2.333333333333333</ele><time>2026-04-26T13:26:32.903Z</time></trkpt><trkpt lat="44.9777971" lon="11.7584581"><ele>2.6666666666666665</ele><time>2026-04-26T13:26:33.904Z</time></trkpt><trkpt lat="44.9776499" lon="11.7583758"><ele>3.0</ele><time>2026-04-26T13:26:34.904Z</time></trkpt><trkpt lat="44.977506" lon="11.758272"><ele>3.0</ele><time>2026-04-26T13:26:35.903Z</time></trkpt><trkpt lat="44.9773618" lon="11.7581629"><ele>3.0</ele><time>2026-04-26T13:26:36.903Z</time></trkpt><trkpt lat="44.9772186" lon="11.7580634"><ele>3.0</ele><time>2026-04-26T13:26:37.904Z</time></trkpt><trkpt lat="44.9770763" lon="11.7579575"><ele>3.0</ele><time>2026-04-26T13:26:38.904Z</time></trkpt><trkpt lat="44.976936" lon="11.7578527"><ele>3.0</ele><time>2026-04-26T13:26:39.904Z</time></trkpt><trkpt lat="44.9767941" lon="11.7577489"><ele>3.0</ele><time>2026-04-26T13:26:40.903Z</time></trkpt><trkpt lat="44.9766511" lon="11.7576413"><ele>3.0</ele><time>2026-04-26T13:26:41.904Z</time></trkpt><trkpt lat="44.9765055" lon="11.7575263"><ele>3.0</ele><time>2026-04-26T13:26:42.903Z</time></trkpt><trkpt lat="44.9763605" lon="11.7574195"><ele>3.0</ele><time>2026-04-26T13:26:43.903Z</time></trkpt><trkpt lat="44.9762127" lon="11.7573155"><ele>3.0</ele><time>2026-04-26T13:26:44.904Z</time></trkpt><trkpt lat="44.9760665" lon="11.7572139"><ele>3.0</ele><time>2026-04-26T13:26:45.904Z</time></trkpt><trkpt lat="44.975923" lon="11.7571089"><ele>3.0</ele><time>2026-04-26T13:26:46.904Z</time></trkpt><trkpt lat="44.9757798" lon="11.757001"><ele>3.333333333333333</ele><time>2026-04-26T13:26:47.903Z</time></trkpt><trkpt lat="44.9756362" lon="11.7568941"><ele>3.6666666666666665</ele><time>2026-04-26T13:26:48.904Z</time></trkpt><trkpt lat="44.9754919" lon="11.7567937"><ele>4.0</ele><time>2026-04-26T13:26:49.904Z</time></trkpt><trkpt lat="44.9753538" lon="11.7566904"><ele>4.0</ele><time>2026-04-26T13:26:50.903Z</time></trkpt><trkpt lat="44.9752098" lon="11.7565866"><ele>4.0</ele><time>2026-04-26T13:26:51.904Z</time></trkpt><trkpt lat="44.9750664" lon="11.7564798"><ele>4.0</ele><time>2026-04-26T13:26:52.904Z</time></trkpt><trkpt lat="44.9749214" lon="11.7563741"><ele>4.666666666666666</ele><time>2026-04-26T13:26:53.904Z</time></trkpt><trkpt lat="44.9747762" lon="11.7562736"><ele>5.333333333333333</ele><time>2026-04-26T13:26:54.904Z</time></trkpt><trkpt lat="44.9746299" lon="11.7561702"><ele>6.0</ele><time>2026-04-26T13:26:55.904Z</time></trkpt><trkpt lat="44.9744872" lon="11.7560752"><ele>6.0</ele><time>2026-04-26T13:26:56.903Z</time></trkpt><trkpt lat="44.9743465" lon="11.7559708"><ele>6.0</ele><time>2026-04-26T13:26:57.903Z</time></trkpt><trkpt lat="44.9742045" lon="11.7558701"><ele>6.0</ele><time>2026-04-26T13:26:58.903Z</time></trkpt><trkpt lat="44.9740652" lon="11.7557635"><ele>6.0</ele><time>2026-04-26T13:26:59.903Z</time></trkpt><trkpt lat="44.9739256" lon="11.7556657"><ele>6.0</ele><time>2026-04-26T13:27:00.903Z</time></trkpt><trkpt lat="44.9737853" lon="11.7555639"><ele>6.0</ele><time>2026-04-26T13:27:01.903Z</time></trkpt><trkpt lat="44.9736472" lon="11.7554582"><ele>6.0</ele><time>2026-04-26T13:27:02.904Z</time></trkpt><trkpt lat="44.9735048" lon="11.7553554"><ele>6.0</ele><time>2026-04-26T13:27:03.903Z</time></trkpt><trkpt lat="44.973371" lon="11.7552632"><ele>6.0</ele><time>2026-04-26T13:27:04.904Z</time></trkpt><trkpt lat="44.9732368" lon="11.7551677"><ele>5.25</ele><time>2026-04-26T13:27:05.904Z</time></trkpt><trkpt lat="44.9731071" lon="11.7550791"><ele>4.5</ele><time>2026-04-26T13:27:06.903Z</time></trkpt><trkpt lat="44.9729777" lon="11.7549905"><ele>3.75</ele><time>2026-04-26T13:27:07.903Z</time></trkpt><trkpt lat="44.9728511" lon="11.7549056"><ele>3.0</ele><time>2026-04-26T13:27:08.903Z</time></trkpt><trkpt lat="44.9727247" lon="11.7548182"><ele>3.0</ele><time>2026-04-26T13:27:09.903Z</time></trkpt><trkpt lat="44.9725972" lon="11.7547331"><ele>3.0</ele><time>2026-04-26T13:27:10.904Z</time></trkpt><trkpt lat="44.9724696" lon="11.7546563"><ele>3.0</ele><time>2026-04-26T13:27:11.903Z</time></trkpt><trkpt lat="44.9723385" lon="11.7545814"><ele>3.0</ele><time>2026-04-26T13:27:12.904Z</time></trkpt><trkpt lat="44.9722062" lon="11.7545056"><ele>3.0</ele><time>2026-04-26T13:27:13.903Z</time></trkpt><trkpt lat="44.9720713" lon="11.7544333"><ele>3.0</ele><time>2026-04-26T13:27:14.903Z</time></trkpt><trkpt lat="44.9719349" lon="11.754362"><ele>3.0</ele><time>2026-04-26T13:27:15.903Z</time></trkpt><trkpt lat="44.9717974" lon="11.7542925"><ele>3.0</ele><time>2026-04-26T13:27:16.903Z</time></trkpt><trkpt lat="44.97167" lon="11.7542247"><ele>3.25</ele><time>2026-04-26T13:27:17.904Z</time></trkpt><trkpt lat="44.9715498" lon="11.7541621"><ele>3.5</ele><time>2026-04-26T13:27:18.904Z</time></trkpt><trkpt lat="44.9714336" lon="11.7541041"><ele>3.75</ele><time>2026-04-26T13:27:19.904Z</time></trkpt><trkpt lat="44.971316" lon="11.75405"><ele>4.0</ele><time>2026-04-26T13:27:20.904Z</time></trkpt><trkpt lat="44.9711994" lon="11.7539872"><ele>4.0</ele><time>2026-04-26T13:27:21.903Z</time></trkpt><trkpt lat="44.9710853" lon="11.7539221"><ele>4.0</ele><time>2026-04-26T13:27:22.904Z</time></trkpt><trkpt lat="44.9709723" lon="11.7538562"><ele>4.0</ele><time>2026-04-26T13:27:23.904Z</time></trkpt><trkpt lat="44.9708631" lon="11.7537981"><ele>4.0</ele><time>2026-04-26T13:27:24.903Z</time></trkpt><trkpt lat="44.9707663" lon="11.7537458"><ele>3.833333333333333</ele><time>2026-04-26T13:27:25.903Z</time></trkpt><trkpt lat="44.9706754" lon="11.7536901"><ele>3.6666666666666665</ele><time>2026-04-26T13:27:26.903Z</time></trkpt><trkpt lat="44.9705942" lon="11.7536345"><ele>3.5</ele><time>2026-04-26T13:27:27.903Z</time></trkpt><trkpt lat="44.9705103" lon="11.7536033"><ele>3.333333333333333</ele><time>2026-04-26T13:27:28.903Z</time></trkpt><trkpt lat="44.9704285" lon="11.7535998"><ele>3.1666666666666665</ele><time>2026-04-26T13:27:29.903Z</time></trkpt><trkpt lat="44.9703467" lon="11.7536398"><ele>3.0</ele><time>2026-04-26T13:27:30.903Z</time></trkpt><trkpt lat="44.9702662" lon="11.7537058"><ele>3.0</ele><time>2026-04-26T13:27:31.903Z</time></trkpt><trkpt lat="44.9701847" lon="11.7537991"><ele>3.0</ele><time>2026-04-26T13:27:32.903Z</time></trkpt><trkpt lat="44.9700831" lon="11.7538818"><ele>3.0</ele><time>2026-04-26T13:27:33.903Z</time></trkpt><trkpt lat="44.9699632" lon="11.75396"><ele>3.0</ele><time>2026-04-26T13:27:34.904Z</time></trkpt><trkpt lat="44.9698327" lon="11.754052"><ele>3.0</ele><time>2026-04-26T13:27:35.904Z</time></trkpt><trkpt lat="44.9696872" lon="11.7541567"><ele>3.0</ele><time>2026-04-26T13:27:36.903Z</time></trkpt><trkpt lat="44.9695318" lon="11.7542659"><ele>3.0</ele><time>2026-04-26T13:27:37.904Z</time></trkpt><trkpt lat="44.9693643" lon="11.7543718"><ele>3.333333333333333</ele><time>2026-04-26T13:27:38.903Z</time></trkpt><trkpt lat="44.9691842" lon="11.7544678"><ele>3.6666666666666665</ele><time>2026-04-26T13:27:39.904Z</time></trkpt><trkpt lat="44.9690012" lon="11.7545699"><ele>4.0</ele><time>2026-04-26T13:27:40.904Z</time></trkpt><trkpt lat="44.9688146" lon="11.754681"><ele>4.0</ele><time>2026-04-26T13:27:41.903Z</time></trkpt><trkpt lat="44.9686312" lon="11.7548026"><ele>4.0</ele><time>2026-04-26T13:27:42.904Z</time></trkpt><trkpt lat="44.9684513" lon="11.7549166"><ele>4.0</ele><time>2026-04-26T13:27:43.904Z</time></trkpt><trkpt lat="44.968279" lon="11.7550278"><ele>3.6666666666666665</ele><time>2026-04-26T13:27:44.904Z</time></trkpt><trkpt lat="44.968108" lon="11.7551331"><ele>3.333333333333333</ele><time>2026-04-26T13:27:45.904Z</time></trkpt><trkpt lat="44.9679454" lon="11.7552388"><ele>3.0</ele><time>2026-04-26T13:27:46.903Z</time></trkpt><trkpt lat="44.9677861" lon="11.7553435"><ele>3.0</ele><time>2026-04-26T13:27:47.903Z</time></trkpt><trkpt lat="44.9676331" lon="11.7554454"><ele>3.0</ele><time>2026-04-26T13:27:48.904Z</time></trkpt><trkpt lat="44.9674838" lon="11.7555413"><ele>3.0</ele><time>2026-04-26T13:27:49.904Z</time></trkpt><trkpt lat="44.9673384" lon="11.7556365"><ele>3.0</ele><time>2026-04-26T13:27:50.903Z</time></trkpt><trkpt lat="44.9671936" lon="11.7557223"><ele>3.0</ele><time>2026-04-26T13:27:51.903Z</time></trkpt><trkpt lat="44.9670482" lon="11.7557993"><ele>3.0</ele><time>2026-04-26T13:27:52.903Z</time></trkpt><trkpt lat="44.9668974" lon="11.7558532"><ele>3.0</ele><time>2026-04-26T13:27:53.903Z</time></trkpt><trkpt lat="44.9667444" lon="11.7558895"><ele>3.0</ele><time>2026-04-26T13:27:54.904Z</time></trkpt><trkpt lat="44.9665837" lon="11.7559049"><ele>3.0</ele><time>2026-04-26T13:27:55.903Z</time></trkpt><trkpt lat="44.9664258" lon="11.7559217"><ele>3.333333333333333</ele><time>2026-04-26T13:27:56.904Z</time></trkpt><trkpt lat="44.9662686" lon="11.7559293"><ele>3.6666666666666665</ele><time>2026-04-26T13:27:57.903Z</time></trkpt><trkpt lat="44.9661126" lon="11.755937"><ele>4.0</ele><time>2026-04-26T13:27:58.904Z</time></trkpt><trkpt lat="44.9659544" lon="11.755942"><ele>3.6666666666666665</ele><time>2026-04-26T13:27:59.903Z</time></trkpt><trkpt lat="44.9657914" lon="11.7559428"><ele>3.333333333333333</ele><time>2026-04-26T13:28:00.904Z</time></trkpt><trkpt lat="44.9656286" lon="11.7559482"><ele>3.0</ele><time>2026-04-26T13:28:01.903Z</time></trkpt><trkpt lat="44.9654616" lon="11.755958"><ele>3.0</ele><time>2026-04-26T13:28:02.904Z</time></trkpt><trkpt lat="44.9653012" lon="11.7559608"><ele>3.0</ele><time>2026-04-26T13:28:03.904Z</time></trkpt><trkpt lat="44.9651383" lon="11.7559682"><ele>3.0</ele><time>2026-04-26T13:28:04.903Z</time></trkpt><trkpt lat="44.9649757" lon="11.7559685"><ele>2.6666666666666665</ele><time>2026-04-26T13:28:05.903Z</time></trkpt><trkpt lat="44.9648166" lon="11.7559672"><ele>2.333333333333333</ele><time>2026-04-26T13:28:06.903Z</time></trkpt><trkpt lat="44.9646548" lon="11.7559741"><ele>2.0</ele><time>2026-04-26T13:28:07.903Z</time></trkpt><trkpt lat="44.9644959" lon="11.755979"><ele>2.0</ele><time>2026-04-26T13:28:08.903Z</time></trkpt><trkpt lat="44.9643385" lon="11.7559842"><ele>2.0</ele><time>2026-04-26T13:28:09.904Z</time></trkpt><trkpt lat="44.9641805" lon="11.7559878"><ele>2.0</ele><time>2026-04-26T13:28:10.903Z</time></trkpt><trkpt lat="44.9640219" lon="11.7559956"><ele>3.0</ele><time>2026-04-26T13:28:11.903Z</time></trkpt><trkpt lat="44.9638654" lon="11.7560061"><ele>4.0</ele><time>2026-04-26T13:28:12.904Z</time></trkpt><trkpt lat="44.9637117" lon="11.7560168"><ele>5.0</ele><time>2026-04-26T13:28:13.904Z</time></trkpt><trkpt lat="44.963555" lon="11.7560246"><ele>5.0</ele><time>2026-04-26T13:28:14.904Z</time></trkpt><trkpt lat="44.9634017" lon="11.75603"><ele>5.0</ele><time>2026-04-26T13:28:15.904Z</time></trkpt><trkpt lat="44.9632481" lon="11.7560355"><ele>5.0</ele><time>2026-04-26T13:28:16.904Z</time></trkpt><trkpt lat="44.9630964" lon="11.7560431"><ele>5.333333333333334</ele><time>2026-04-26T13:28:17.903Z</time></trkpt><trkpt lat="44.9629432" lon="11.7560493"><ele>5.666666666666667</ele><time>2026-04-26T13:28:18.903Z</time></trkpt><trkpt lat="44.9627885" lon="11.7560561"><ele>6.0</ele><time>2026-04-26T13:28:19.904Z</time></trkpt><trkpt lat="44.9626362" lon="11.7560646"><ele>6.333333333333334</ele><time>2026-04-26T13:28:20.903Z</time></trkpt><trkpt lat="44.9624784" lon="11.7560788"><ele>6.666666666666667</ele><time>2026-04-26T13:28:21.903Z</time></trkpt><trkpt lat="44.962325" lon="11.7560843"><ele>7.0</ele><time>2026-04-26T13:28:22.904Z</time></trkpt><trkpt lat="44.962173" lon="11.7560892"><ele>7.0</ele><time>2026-04-26T13:28:23.903Z</time></trkpt><trkpt lat="44.9620223" lon="11.7560897"><ele>7.0</ele><time>2026-04-26T13:28:24.903Z</time></trkpt><trkpt lat="44.9618727" lon="11.7560974"><ele>7.0</ele><time>2026-04-26T13:28:25.904Z</time></trkpt><trkpt lat="44.9617167" lon="11.7561019"><ele>7.333333333333334</ele><time>2026-04-26T13:28:26.904Z</time></trkpt><trkpt lat="44.9615611" lon="11.7561057"><ele>7.666666666666666</ele><time>2026-04-26T13:28:27.903Z</time></trkpt><trkpt lat="44.9614019" lon="11.7561117"><ele>8.0</ele><time>2026-04-26T13:28:28.904Z</time></trkpt><trkpt lat="44.9612433" lon="11.7561166"><ele>8.0</ele><time>2026-04-26T13:28:29.903Z</time></trkpt><trkpt lat="44.9610834" lon="11.7561227"><ele>8.0</ele><time>2026-04-26T13:28:30.904Z</time></trkpt><trkpt lat="44.9609198" lon="11.7561312"><ele>8.0</ele><time>2026-04-26T13:28:31.903Z</time></trkpt><trkpt lat="44.9607543" lon="11.7561404"><ele>6.666666666666666</ele><time>2026-04-26T13:28:32.903Z</time></trkpt><trkpt lat="44.9605954" lon="11.7561497"><ele>5.333333333333333</ele><time>2026-04-26T13:28:33.904Z</time></trkpt><trkpt lat="44.9604322" lon="11.7561589"><ele>4.0</ele><time>2026-04-26T13:28:34.904Z</time></trkpt><trkpt lat="44.9602682" lon="11.7561659"><ele>4.0</ele><time>2026-04-26T13:28:35.903Z</time></trkpt><trkpt lat="44.9601048" lon="11.756182"><ele>4.0</ele><time>2026-04-26T13:28:36.903Z</time></trkpt><trkpt lat="44.9599407" lon="11.756193"><ele>4.0</ele><time>2026-04-26T13:28:37.904Z</time></trkpt><trkpt lat="44.9597756" lon="11.7561988"><ele>3.0</ele><time>2026-04-26T13:28:38.904Z</time></trkpt><trkpt lat="44.9596129" lon="11.7562068"><ele>2.0</ele><time>2026-04-26T13:28:39.903Z</time></trkpt><trkpt lat="44.9594496" lon="11.7562154"><ele>1.0</ele><time>2026-04-26T13:28:40.903Z</time></trkpt><trkpt lat="44.9592908" lon="11.7562157"><ele>1.0</ele><time>2026-04-26T13:28:41.903Z</time></trkpt><trkpt lat="44.95913" lon="11.7562215"><ele>1.0</ele><time>2026-04-26T13:28:42.903Z</time></trkpt><trkpt lat="44.95897" lon="11.7562285"><ele>1.0</ele><time>2026-04-26T13:28:43.904Z</time></trkpt><trkpt lat="44.9588053" lon="11.7562347"><ele>1.0</ele><time>2026-04-26T13:28:44.904Z</time></trkpt><trkpt lat="44.9586399" lon="11.7562486"><ele>1.0</ele><time>2026-04-26T13:28:45.903Z</time></trkpt><trkpt lat="44.9584745" lon="11.7562557"><ele>1.0</ele><time>2026-04-26T13:28:46.904Z</time></trkpt><trkpt lat="44.95831" lon="11.756267"><ele>1.6666666666666665</ele><time>2026-04-26T13:28:47.904Z</time></trkpt><trkpt lat="44.9581463" lon="11.7562703"><ele>2.3333333333333335</ele><time>2026-04-26T13:28:48.903Z</time></trkpt><trkpt lat="44.9579856" lon="11.7562744"><ele>3.0</ele><time>2026-04-26T13:28:49.904Z</time></trkpt><trkpt lat="44.9578228" lon="11.7562797"><ele>3.0</ele><time>2026-04-26T13:28:50.903Z</time></trkpt><trkpt lat="44.9576615" lon="11.7562905"><ele>3.0</ele><time>2026-04-26T13:28:51.904Z</time></trkpt><trkpt lat="44.9575012" lon="11.7562996"><ele>3.0</ele><time>2026-04-26T13:28:52.904Z</time></trkpt><trkpt lat="44.9573384" lon="11.7563058"><ele>5.0</ele><time>2026-04-26T13:28:53.904Z</time></trkpt><trkpt lat="44.9571763" lon="11.7563111"><ele>7.0</ele><time>2026-04-26T13:28:54.903Z</time></trkpt><trkpt lat="44.957016" lon="11.7563193"><ele>9.0</ele><time>2026-04-26T13:28:55.903Z</time></trkpt><trkpt lat="44.9568548" lon="11.7563241"><ele>9.0</ele><time>2026-04-26T13:28:56.903Z</time></trkpt><trkpt lat="44.9566928" lon="11.7563331"><ele>9.0</ele><time>2026-04-26T13:28:57.904Z</time></trkpt><trkpt lat="44.9565301" lon="11.756341"><ele>9.0</ele><time>2026-04-26T13:28:58.903Z</time></trkpt><trkpt lat="44.9563671" lon="11.756347"><ele>9.0</ele><time>2026-04-26T13:28:59.903Z</time></trkpt><trkpt lat="44.9562056" lon="11.7563597"><ele>9.0</ele><time>2026-04-26T13:29:00.903Z</time></trkpt><trkpt lat="44.9560447" lon="11.7563728"><ele>9.0</ele><time>2026-04-26T13:29:01.903Z</time></trkpt><trkpt lat="44.9558882" lon="11.7563807"><ele>8.0</ele><time>2026-04-26T13:29:02.903Z</time></trkpt><trkpt lat="44.9557232" lon="11.7563842"><ele>7.0</ele><time>2026-04-26T13:29:03.903Z</time></trkpt><trkpt lat="44.9555595" lon="11.7563872"><ele>6.0</ele><time>2026-04-26T13:29:04.904Z</time></trkpt><trkpt lat="44.9553965" lon="11.7563909"><ele>6.0</ele><time>2026-04-26T13:29:05.904Z</time></trkpt><trkpt lat="44.9552327" lon="11.7563928"><ele>6.0</ele><time>2026-04-26T13:29:06.903Z</time></trkpt><trkpt lat="44.9550689" lon="11.7563985"><ele>6.0</ele><time>2026-04-26T13:29:07.903Z</time></trkpt><trkpt lat="44.9549053" lon="11.7564023"><ele>5.0</ele><time>2026-04-26T13:29:08.904Z</time></trkpt><trkpt lat="44.9547439" lon="11.7564124"><ele>4.0</ele><time>2026-04-26T13:29:09.904Z</time></trkpt><trkpt lat="44.9545845" lon="11.7564241"><ele>3.0</ele><time>2026-04-26T13:29:10.904Z</time></trkpt><trkpt lat="44.954424" lon="11.7564355"><ele>3.0</ele><time>2026-04-26T13:29:11.904Z</time></trkpt><trkpt lat="44.954258" lon="11.7564423"><ele>3.0</ele><time>2026-04-26T13:29:12.903Z</time></trkpt><trkpt lat="44.9540932" lon="11.7564512"><ele>3.0</ele><time>2026-04-26T13:29:13.903Z</time></trkpt><trkpt lat="44.9539301" lon="11.7564619"><ele>3.666666666666667</ele><time>2026-04-26T13:29:14.904Z</time></trkpt><trkpt lat="44.9537652" lon="11.7564685"><ele>4.333333333333334</ele><time>2026-04-26T13:29:15.903Z</time></trkpt><trkpt lat="44.9535961" lon="11.7564713"><ele>5.0</ele><time>2026-04-26T13:29:16.904Z</time></trkpt><trkpt lat="44.9534307" lon="11.756478"><ele>5.0</ele><time>2026-04-26T13:29:17.903Z</time></trkpt><trkpt lat="44.9532624" lon="11.7564876"><ele>5.0</ele><time>2026-04-26T13:29:18.904Z</time></trkpt><trkpt lat="44.9530981" lon="11.7564872"><ele>5.0</ele><time>2026-04-26T13:29:19.903Z</time></trkpt><trkpt lat="44.9529346" lon="11.7564891"><ele>5.0</ele><time>2026-04-26T13:29:20.903Z</time></trkpt><trkpt lat="44.9527691" lon="11.7564945"><ele>5.0</ele><time>2026-04-26T13:29:21.904Z</time></trkpt><trkpt lat="44.9526033" lon="11.7564984"><ele>5.0</ele><time>2026-04-26T13:29:22.903Z</time></trkpt><trkpt lat="44.952439" lon="11.7564977"><ele>4.666666666666667</ele><time>2026-04-26T13:29:23.903Z</time></trkpt><trkpt lat="44.9522758" lon="11.7564913"><ele>4.333333333333333</ele><time>2026-04-26T13:29:24.903Z</time></trkpt><trkpt lat="44.9521144" lon="11.7564782"><ele>4.0</ele><time>2026-04-26T13:29:25.904Z</time></trkpt><trkpt lat="44.9519541" lon="11.7564632"><ele>4.0</ele><time>2026-04-26T13:29:26.903Z</time></trkpt><trkpt lat="44.9517983" lon="11.7564413"><ele>4.0</ele><time>2026-04-26T13:29:27.903Z</time></trkpt><trkpt lat="44.9516417" lon="11.7564197"><ele>4.0</ele><time>2026-04-26T13:29:28.904Z</time></trkpt><trkpt lat="44.9514839" lon="11.7563917"><ele>3.6666666666666665</ele><time>2026-04-26T13:29:29.903Z</time></trkpt><trkpt lat="44.9513259" lon="11.7563602"><ele>3.333333333333333</ele><time>2026-04-26T13:29:30.903Z</time></trkpt><trkpt lat="44.951165" lon="11.7563223"><ele>3.0</ele><time>2026-04-26T13:29:31.904Z</time></trkpt><trkpt lat="44.9510103" lon="11.7562875"><ele>2.6666666666666665</ele><time>2026-04-26T13:29:32.904Z</time></trkpt><trkpt lat="44.9508519" lon="11.7562502"><ele>2.333333333333333</ele><time>2026-04-26T13:29:33.904Z</time></trkpt><trkpt lat="44.950692" lon="11.7562126"><ele>2.0</ele><time>2026-04-26T13:29:34.904Z</time></trkpt><trkpt lat="44.9505355" lon="11.7561722"><ele>2.0</ele><time>2026-04-26T13:29:35.903Z</time></trkpt><trkpt lat="44.9503783" lon="11.7561342"><ele>2.0</ele><time>2026-04-26T13:29:36.903Z</time></trkpt><trkpt lat="44.9502221" lon="11.7560916"><ele>2.0</ele><time>2026-04-26T13:29:37.903Z</time></trkpt><trkpt lat="44.9500674" lon="11.7560492"><ele>2.333333333333333</ele><time>2026-04-26T13:29:38.903Z</time></trkpt><trkpt lat="44.94991" lon="11.7560054"><ele>2.6666666666666665</ele><time>2026-04-26T13:29:39.903Z</time></trkpt><trkpt lat="44.9497534" lon="11.7559651"><ele>3.0</ele><time>2026-04-26T13:29:40.904Z</time></trkpt><trkpt lat="44.9495961" lon="11.7559207"><ele>3.0</ele><time>2026-04-26T13:29:41.903Z</time></trkpt><trkpt lat="44.9494357" lon="11.7558796"><ele>3.0</ele><time>2026-04-26T13:29:42.903Z</time></trkpt><trkpt lat="44.9492795" lon="11.7558417"><ele>3.0</ele><time>2026-04-26T13:29:43.903Z</time></trkpt><trkpt lat="44.9491231" lon="11.7557958"><ele>3.666666666666667</ele><time>2026-04-26T13:29:44.904Z</time></trkpt><trkpt lat="44.9489667" lon="11.7557543"><ele>4.333333333333334</ele><time>2026-04-26T13:29:45.903Z</time></trkpt><trkpt lat="44.9488111" lon="11.755712"><ele>5.0</ele><time>2026-04-26T13:29:46.903Z</time></trkpt><trkpt lat="44.9486595" lon="11.755676"><ele>5.0</ele><time>2026-04-26T13:29:47.904Z</time></trkpt><trkpt lat="44.9485061" lon="11.7556349"><ele>5.0</ele><time>2026-04-26T13:29:48.904Z</time></trkpt><trkpt lat="44.9483502" lon="11.7555941"><ele>5.0</ele><time>2026-04-26T13:29:49.904Z</time></trkpt><trkpt lat="44.9481941" lon="11.7555498"><ele>5.0</ele><time>2026-04-26T13:29:50.903Z</time></trkpt><trkpt lat="44.9480402" lon="11.7555084"><ele>5.0</ele><time>2026-04-26T13:29:51.904Z</time></trkpt><trkpt lat="44.9478858" lon="11.7554654"><ele>5.0</ele><time>2026-04-26T13:29:52.904Z</time></trkpt><trkpt lat="44.9477343" lon="11.7554198"><ele>5.0</ele><time>2026-04-26T13:29:53.903Z</time></trkpt><trkpt lat="44.9475838" lon="11.7553762"><ele>5.0</ele><time>2026-04-26T13:29:54.903Z</time></trkpt><trkpt lat="44.9474384" lon="11.7553367"><ele>5.0</ele><time>2026-04-26T13:29:55.903Z</time></trkpt><trkpt lat="44.9473018" lon="11.7552974"><ele>5.0</ele><time>2026-04-26T13:29:56.904Z</time></trkpt><trkpt lat="44.9471692" lon="11.7552629"><ele>4.8</ele><time>2026-04-26T13:29:57.903Z</time></trkpt><trkpt lat="44.9470464" lon="11.7552336"><ele>4.6</ele><time>2026-04-26T13:29:58.903Z</time></trkpt><trkpt lat="44.9469328" lon="11.7552135"><ele>4.4</ele><time>2026-04-26T13:29:59.903Z</time></trkpt><trkpt lat="44.9468312" lon="11.7552131"><ele>4.2</ele><time>2026-04-26T13:30:00.903Z</time></trkpt><trkpt lat="44.9467407" lon="11.7552491"><ele>4.0</ele><time>2026-04-26T13:30:01.903Z</time></trkpt><trkpt lat="44.946654" lon="11.7553241"><ele>3.75</ele><time>2026-04-26T13:30:02.904Z</time></trkpt><trkpt lat="44.946559" lon="11.7554416"><ele>3.5</ele><time>2026-04-26T13:30:03.904Z</time></trkpt><trkpt lat="44.9464534" lon="11.7555453"><ele>3.25</ele><time>2026-04-26T13:30:04.903Z</time></trkpt><trkpt lat="44.9463298" lon="11.7556526"><ele>3.0</ele><time>2026-04-26T13:30:05.904Z</time></trkpt><trkpt lat="44.9462008" lon="11.7557714"><ele>3.0</ele><time>2026-04-26T13:30:06.904Z</time></trkpt><trkpt lat="44.9460742" lon="11.7558951"><ele>3.0</ele><time>2026-04-26T13:30:07.903Z</time></trkpt><trkpt lat="44.9459446" lon="11.7560114"><ele>3.0</ele><time>2026-04-26T13:30:08.903Z</time></trkpt><trkpt lat="44.9458164" lon="11.7561314"><ele>3.333333333333333</ele><time>2026-04-26T13:30:09.903Z</time></trkpt><trkpt lat="44.9456869" lon="11.7562512"><ele>3.6666666666666665</ele><time>2026-04-26T13:30:10.904Z</time></trkpt><trkpt lat="44.9455553" lon="11.7563759"><ele>4.0</ele><time>2026-04-26T13:30:11.904Z</time></trkpt><trkpt lat="44.9454272" lon="11.7565047"><ele>4.0</ele><time>2026-04-26T13:30:12.903Z</time></trkpt><trkpt lat="44.9453042" lon="11.7566472"><ele>4.0</ele><time>2026-04-26T13:30:13.903Z</time></trkpt><trkpt lat="44.9451906" lon="11.7568016"><ele>4.0</ele><time>2026-04-26T13:30:14.904Z</time></trkpt><trkpt lat="44.9450782" lon="11.7569625"><ele>3.333333333333333</ele><time>2026-04-26T13:30:15.903Z</time></trkpt><trkpt lat="44.944967" lon="11.7571318"><ele>2.6666666666666665</ele><time>2026-04-26T13:30:16.903Z</time></trkpt><trkpt lat="44.94485" lon="11.7572867"><ele>2.0</ele><time>2026-04-26T13:30:17.904Z</time></trkpt><trkpt lat="44.9447316" lon="11.7574634"><ele>2.0</ele><time>2026-04-26T13:30:18.904Z</time></trkpt><trkpt lat="44.9446081" lon="11.7576413"><ele>2.0</ele><time>2026-04-26T13:30:19.903Z</time></trkpt><trkpt lat="44.9444828" lon="11.7578196"><ele>2.0</ele><time>2026-04-26T13:30:20.903Z</time></trkpt><trkpt lat="44.9443598" lon="11.7579977"><ele>2.0</ele><time>2026-04-26T13:30:21.904Z</time></trkpt><trkpt lat="44.9442365" lon="11.7581833"><ele>2.0</ele><time>2026-04-26T13:30:22.904Z</time></trkpt><trkpt lat="44.9441197" lon="11.7583644"><ele>2.0</ele><time>2026-04-26T13:30:23.903Z</time></trkpt><trkpt lat="44.9440143" lon="11.7585539"><ele>2.0</ele><time>2026-04-26T13:30:24.903Z</time></trkpt><trkpt lat="44.9439155" lon="11.7587415"><ele>2.0</ele><time>2026-04-26T13:30:25.903Z</time></trkpt><trkpt lat="44.9438254" lon="11.7589379"><ele>2.0</ele><time>2026-04-26T13:30:26.904Z</time></trkpt><trkpt lat="44.9437337" lon="11.7591304"><ele>2.0</ele><time>2026-04-26T13:30:27.904Z</time></trkpt><trkpt lat="44.9436419" lon="11.7593274"><ele>2.0</ele><time>2026-04-26T13:30:28.903Z</time></trkpt><trkpt lat="44.9435507" lon="11.759523"><ele>2.0</ele><time>2026-04-26T13:30:29.903Z</time></trkpt><trkpt lat="44.9434587" lon="11.7597209"><ele>3.0</ele><time>2026-04-26T13:30:30.904Z</time></trkpt><trkpt lat="44.9433734" lon="11.759929"><ele>4.0</ele><time>2026-04-26T13:30:31.903Z</time></trkpt><trkpt lat="44.9433015" lon="11.7601493"><ele>5.0</ele><time>2026-04-26T13:30:32.903Z</time></trkpt><trkpt lat="44.9432447" lon="11.7603737"><ele>5.0</ele><time>2026-04-26T13:30:33.903Z</time></trkpt><trkpt lat="44.9431936" lon="11.7606036"><ele>5.0</ele><time>2026-04-26T13:30:34.904Z</time></trkpt><trkpt lat="44.9431444" lon="11.7608401"><ele>5.0</ele><time>2026-04-26T13:30:35.903Z</time></trkpt><trkpt lat="44.9430932" lon="11.7610763"><ele>4.333333333333334</ele><time>2026-04-26T13:30:36.903Z</time></trkpt><trkpt lat="44.9430397" lon="11.7613128"><ele>3.666666666666667</ele><time>2026-04-26T13:30:37.904Z</time></trkpt><trkpt lat="44.9429805" lon="11.761539"><ele>3.0</ele><time>2026-04-26T13:30:38.904Z</time></trkpt><trkpt lat="44.9429093" lon="11.7617716"><ele>3.0</ele><time>2026-04-26T13:30:39.904Z</time></trkpt><trkpt lat="44.9428345" lon="11.7620056"><ele>3.0</ele><time>2026-04-26T13:30:40.903Z</time></trkpt><trkpt lat="44.9427576" lon="11.7622422"><ele>3.0</ele><time>2026-04-26T13:30:41.903Z</time></trkpt><trkpt lat="44.9426763" lon="11.7624706"><ele>3.0</ele><time>2026-04-26T13:30:42.903Z</time></trkpt><trkpt lat="44.9425966" lon="11.7626981"><ele>3.0</ele><time>2026-04-26T13:30:43.903Z</time></trkpt><trkpt lat="44.9425161" lon="11.7629173"><ele>3.0</ele><time>2026-04-26T13:30:44.904Z</time></trkpt><trkpt lat="44.9424338" lon="11.7631257"><ele>2.6666666666666665</ele><time>2026-04-26T13:30:45.904Z</time></trkpt><trkpt lat="44.9423235" lon="11.763317"><ele>2.333333333333333</ele><time>2026-04-26T13:30:46.904Z</time></trkpt><trkpt lat="44.942202" lon="11.7634957"><ele>2.0</ele><time>2026-04-26T13:30:47.903Z</time></trkpt><trkpt lat="44.9420751" lon="11.7636673"><ele>2.0</ele><time>2026-04-26T13:30:48.904Z</time></trkpt><trkpt lat="44.9419476" lon="11.7638393"><ele>2.0</ele><time>2026-04-26T13:30:49.903Z</time></trkpt><trkpt lat="44.9418089" lon="11.7639925"><ele>2.0</ele><time>2026-04-26T13:30:50.904Z</time></trkpt><trkpt lat="44.9416536" lon="11.7641392"><ele>2.333333333333333</ele><time>2026-04-26T13:30:51.904Z</time></trkpt><trkpt lat="44.9414879" lon="11.7642555"><ele>2.6666666666666665</ele><time>2026-04-26T13:30:52.903Z</time></trkpt><trkpt lat="44.9413131" lon="11.7643468"><ele>3.0</ele><time>2026-04-26T13:30:53.904Z</time></trkpt><trkpt lat="44.9411332" lon="11.7644221"><ele>3.0</ele><time>2026-04-26T13:30:54.903Z</time></trkpt><trkpt lat="44.9409463" lon="11.7644785"><ele>3.0</ele><time>2026-04-26T13:30:55.903Z</time></trkpt><trkpt lat="44.9407508" lon="11.7645025"><ele>3.0</ele><time>2026-04-26T13:30:56.903Z</time></trkpt><trkpt lat="44.9405488" lon="11.7644986"><ele>3.0</ele><time>2026-04-26T13:30:57.904Z</time></trkpt><trkpt lat="44.9403438" lon="11.7644732"><ele>3.0</ele><time>2026-04-26T13:30:58.904Z</time></trkpt><trkpt lat="44.9401347" lon="11.7644515"><ele>3.0</ele><time>2026-04-26T13:30:59.904Z</time></trkpt><trkpt lat="44.9399198" lon="11.7644292"><ele>2.6666666666666665</ele><time>2026-04-26T13:31:00.903Z</time></trkpt><trkpt lat="44.9396995" lon="11.7644082"><ele>2.333333333333333</ele><time>2026-04-26T13:31:01.904Z</time></trkpt><trkpt lat="44.9394771" lon="11.7643814"><ele>2.0</ele><time>2026-04-26T13:31:02.904Z</time></trkpt><trkpt lat="44.9392512" lon="11.7643575"><ele>2.5</ele><time>2026-04-26T13:31:03.904Z</time></trkpt><trkpt lat="44.9390273" lon="11.7643406"><ele>3.0</ele><time>2026-04-26T13:31:04.903Z</time></trkpt><trkpt lat="44.9388018" lon="11.7643295"><ele>3.0</ele><time>2026-04-26T13:31:05.903Z</time></trkpt><trkpt lat="44.9385777" lon="11.7643214"><ele>3.0</ele><time>2026-04-26T13:31:06.903Z</time></trkpt><trkpt lat="44.9383575" lon="11.7643174"><ele>3.0</ele><time>2026-04-26T13:31:07.903Z</time></trkpt><trkpt lat="44.9381335" lon="11.764311"><ele>3.0</ele><time>2026-04-26T13:31:08.904Z</time></trkpt><trkpt lat="44.9379122" lon="11.764312"><ele>3.0</ele><time>2026-04-26T13:31:09.903Z</time></trkpt><trkpt lat="44.9376934" lon="11.7643111"><ele>3.0</ele><time>2026-04-26T13:31:10.904Z</time></trkpt><trkpt lat="44.9374726" lon="11.7643161"><ele>3.0</ele><time>2026-04-26T13:31:11.903Z</time></trkpt><trkpt lat="44.9372557" lon="11.7643192"><ele>3.0</ele><time>2026-04-26T13:31:12.904Z</time></trkpt><trkpt lat="44.9370385" lon="11.7643204"><ele>3.0</ele><time>2026-04-26T13:31:13.904Z</time></trkpt><trkpt lat="44.9368233" lon="11.7643264"><ele>3.0</ele><time>2026-04-26T13:31:14.904Z</time></trkpt><trkpt lat="44.9366048" lon="11.7643261"><ele>3.0</ele><time>2026-04-26T13:31:15.903Z</time></trkpt><trkpt lat="44.9363875" lon="11.7643275"><ele>3.0</ele><time>2026-04-26T13:31:16.904Z</time></trkpt><trkpt lat="44.9361716" lon="11.7643341"><ele>3.0</ele><time>2026-04-26T13:31:17.904Z</time></trkpt><trkpt lat="44.9359585" lon="11.7643404"><ele>3.0</ele><time>2026-04-26T13:31:18.903Z</time></trkpt><trkpt lat="44.9357459" lon="11.7643381"><ele>3.0</ele><time>2026-04-26T13:31:19.903Z</time></trkpt><trkpt lat="44.9355356" lon="11.7643447"><ele>2.6666666666666665</ele><time>2026-04-26T13:31:20.904Z</time></trkpt><trkpt lat="44.9353218" lon="11.764343"><ele>2.333333333333333</ele><time>2026-04-26T13:31:21.904Z</time></trkpt><trkpt lat="44.9351103" lon="11.7643427"><ele>2.0</ele><time>2026-04-26T13:31:22.904Z</time></trkpt><trkpt lat="44.9348966" lon="11.7643427"><ele>2.0</ele><time>2026-04-26T13:31:23.904Z</time></trkpt><trkpt lat="44.9346868" lon="11.7643454"><ele>2.0</ele><time>2026-04-26T13:31:24.903Z</time></trkpt><trkpt lat="44.9344723" lon="11.7643452"><ele>2.0</ele><time>2026-04-26T13:31:25.904Z</time></trkpt><trkpt lat="44.9342618" lon="11.7643508"><ele>2.0</ele><time>2026-04-26T13:31:26.903Z</time></trkpt><trkpt lat="44.93405" lon="11.7643558"><ele>2.0</ele><time>2026-04-26T13:31:27.903Z</time></trkpt><trkpt lat="44.9338381" lon="11.7643643"><ele>2.0</ele><time>2026-04-26T13:31:28.904Z</time></trkpt><trkpt lat="44.9336249" lon="11.7643735"><ele>2.0</ele><time>2026-04-26T13:31:29.903Z</time></trkpt><trkpt lat="44.9334121" lon="11.7643904"><ele>2.0</ele><time>2026-04-26T13:31:30.903Z</time></trkpt><trkpt lat="44.9332016" lon="11.7644115"><ele>2.0</ele><time>2026-04-26T13:31:31.903Z</time></trkpt><trkpt lat="44.9329901" lon="11.7644443"><ele>2.0</ele><time>2026-04-26T13:31:32.904Z</time></trkpt><trkpt lat="44.9327787" lon="11.7644816"><ele>2.0</ele><time>2026-04-26T13:31:33.904Z</time></trkpt><trkpt lat="44.9325649" lon="11.7645311"><ele>2.0</ele><time>2026-04-26T13:31:34.903Z</time></trkpt><trkpt lat="44.9323523" lon="11.7645925"><ele>2.0</ele><time>2026-04-26T13:31:35.903Z</time></trkpt><trkpt lat="44.9321426" lon="11.7646578"><ele>2.0</ele><time>2026-04-26T13:31:36.903Z</time></trkpt><trkpt lat="44.931928" lon="11.7647315"><ele>2.0</ele><time>2026-04-26T13:31:37.903Z</time></trkpt><trkpt lat="44.931716" lon="11.7648127"><ele>1.6666666666666665</ele><time>2026-04-26T13:31:38.904Z</time></trkpt><trkpt lat="44.9315062" lon="11.7649094"><ele>1.3333333333333333</ele><time>2026-04-26T13:31:39.903Z</time></trkpt><trkpt lat="44.9312961" lon="11.7650149"><ele>1.0</ele><time>2026-04-26T13:31:40.903Z</time></trkpt><trkpt lat="44.9310868" lon="11.765124"><ele>1.3333333333333333</ele><time>2026-04-26T13:31:41.903Z</time></trkpt><trkpt lat="44.9308762" lon="11.765239"><ele>1.6666666666666665</ele><time>2026-04-26T13:31:42.903Z</time></trkpt><trkpt lat="44.930671" lon="11.7653634"><ele>2.0</ele><time>2026-04-26T13:31:43.903Z</time></trkpt><trkpt lat="44.9304645" lon="11.7654987"><ele>2.0</ele><time>2026-04-26T13:31:44.903Z</time></trkpt><trkpt lat="44.9302586" lon="11.7656445"><ele>2.0</ele><time>2026-04-26T13:31:45.904Z</time></trkpt><trkpt lat="44.9300568" lon="11.7657972"><ele>2.5</ele><time>2026-04-26T13:31:46.904Z</time></trkpt><trkpt lat="44.9298539" lon="11.765961"><ele>3.0</ele><time>2026-04-26T13:31:47.903Z</time></trkpt><trkpt lat="44.9296561" lon="11.7661358"><ele>3.0</ele><time>2026-04-26T13:31:48.904Z</time></trkpt><trkpt lat="44.9294642" lon="11.766312"><ele>3.0</ele><time>2026-04-26T13:31:49.903Z</time></trkpt><trkpt lat="44.9292734" lon="11.7664895"><ele>3.0</ele><time>2026-04-26T13:31:50.904Z</time></trkpt><trkpt lat="44.929082" lon="11.76667"><ele>3.0</ele><time>2026-04-26T13:31:51.903Z</time></trkpt><trkpt lat="44.9288902" lon="11.7668519"><ele>3.0</ele><time>2026-04-26T13:31:52.904Z</time></trkpt><trkpt lat="44.9287016" lon="11.7670363"><ele>3.0</ele><time>2026-04-26T13:31:53.904Z</time></trkpt><trkpt lat="44.9285102" lon="11.767219"><ele>2.5</ele><time>2026-04-26T13:31:54.903Z</time></trkpt><trkpt lat="44.9283209" lon="11.7674015"><ele>2.0</ele><time>2026-04-26T13:31:55.904Z</time></trkpt><trkpt lat="44.9281307" lon="11.7675849"><ele>2.0</ele><time>2026-04-26T13:31:56.903Z</time></trkpt><trkpt lat="44.9279443" lon="11.7677626"><ele>2.0</ele><time>2026-04-26T13:31:57.903Z</time></trkpt><trkpt lat="44.927765" lon="11.7679324"><ele>2.0</ele><time>2026-04-26T13:31:58.904Z</time></trkpt><trkpt lat="44.9275939" lon="11.7680944"><ele>2.0</ele><time>2026-04-26T13:31:59.903Z</time></trkpt><trkpt lat="44.9274228" lon="11.7682578"><ele>2.0</ele><time>2026-04-26T13:32:00.903Z</time></trkpt><trkpt lat="44.9272492" lon="11.7684221"><ele>2.0</ele><time>2026-04-26T13:32:01.903Z</time></trkpt><trkpt lat="44.9270758" lon="11.7685897"><ele>2.0</ele><time>2026-04-26T13:32:02.903Z</time></trkpt><trkpt lat="44.9268992" lon="11.7687555"><ele>2.0</ele><time>2026-04-26T13:32:03.904Z</time></trkpt><trkpt lat="44.9267227" lon="11.7689265"><ele>2.0</ele><time>2026-04-26T13:32:04.903Z</time></trkpt><trkpt lat="44.9265475" lon="11.7690928"><ele>2.0</ele><time>2026-04-26T13:32:05.903Z</time></trkpt><trkpt lat="44.9263819" lon="11.7692531"><ele>2.0</ele><time>2026-04-26T13:32:06.903Z</time></trkpt><trkpt lat="44.9262204" lon="11.7693921"><ele>2.0</ele><time>2026-04-26T13:32:07.903Z</time></trkpt><trkpt lat="44.9260525" lon="11.7695007"><ele>2.333333333333333</ele><time>2026-04-26T13:32:08.903Z</time></trkpt><trkpt lat="44.9258753" lon="11.7695837"><ele>2.6666666666666665</ele><time>2026-04-26T13:32:09.904Z</time></trkpt><trkpt lat="44.9256916" lon="11.7696716"><ele>3.0</ele><time>2026-04-26T13:32:10.904Z</time></trkpt><trkpt lat="44.9255055" lon="11.7697629"><ele>3.0</ele><time>2026-04-26T13:32:11.903Z</time></trkpt><trkpt lat="44.9253201" lon="11.7698488"><ele>3.0</ele><time>2026-04-26T13:32:12.904Z</time></trkpt><trkpt lat="44.9251339" lon="11.7699369"><ele>3.0</ele><time>2026-04-26T13:32:13.904Z</time></trkpt><trkpt lat="44.9249454" lon="11.7700237"><ele>3.0</ele><time>2026-04-26T13:32:14.904Z</time></trkpt><trkpt lat="44.9247608" lon="11.7701164"><ele>3.0</ele><time>2026-04-26T13:32:15.903Z</time></trkpt><trkpt lat="44.9245773" lon="11.7701998"><ele>3.0</ele><time>2026-04-26T13:32:16.903Z</time></trkpt><trkpt lat="44.9243987" lon="11.7702832"><ele>2.6666666666666665</ele><time>2026-04-26T13:32:17.903Z</time></trkpt><trkpt lat="44.924227" lon="11.7703666"><ele>2.333333333333333</ele><time>2026-04-26T13:32:18.903Z</time></trkpt><trkpt lat="44.9240628" lon="11.7704459"><ele>2.0</ele><time>2026-04-26T13:32:19.904Z</time></trkpt><trkpt lat="44.9238907" lon="11.7705262"><ele>2.0</ele><time>2026-04-26T13:32:20.904Z</time></trkpt><trkpt lat="44.9237204" lon="11.7706091"><ele>2.0</ele><time>2026-04-26T13:32:21.904Z</time></trkpt><trkpt lat="44.9235409" lon="11.7706883"><ele>2.0</ele><time>2026-04-26T13:32:22.903Z</time></trkpt><trkpt lat="44.9233545" lon="11.7707712"><ele>2.0</ele><time>2026-04-26T13:32:23.903Z</time></trkpt><trkpt lat="44.9231619" lon="11.7708607"><ele>2.0</ele><time>2026-04-26T13:32:24.903Z</time></trkpt><trkpt lat="44.9229599" lon="11.7709598"><ele>2.0</ele><time>2026-04-26T13:32:25.903Z</time></trkpt><trkpt lat="44.9227519" lon="11.7710616"><ele>1.6666666666666665</ele><time>2026-04-26T13:32:26.903Z</time></trkpt><trkpt lat="44.9225485" lon="11.7711641"><ele>1.3333333333333333</ele><time>2026-04-26T13:32:27.903Z</time></trkpt><trkpt lat="44.9223414" lon="11.7712558"><ele>1.0</ele><time>2026-04-26T13:32:28.903Z</time></trkpt><trkpt lat="44.9221357" lon="11.771352"><ele>1.0</ele><time>2026-04-26T13:32:29.904Z</time></trkpt><trkpt lat="44.9219317" lon="11.771451"><ele>1.0</ele><time>2026-04-26T13:32:30.903Z</time></trkpt><trkpt lat="44.9217245" lon="11.7715468"><ele>1.0</ele><time>2026-04-26T13:32:31.903Z</time></trkpt><trkpt lat="44.9215223" lon="11.771642"><ele>1.0</ele><time>2026-04-26T13:32:32.903Z</time></trkpt><trkpt lat="44.9213204" lon="11.7717369"><ele>1.0</ele><time>2026-04-26T13:32:33.903Z</time></trkpt><trkpt lat="44.9211239" lon="11.7718277"><ele>1.0</ele><time>2026-04-26T13:32:34.903Z</time></trkpt><trkpt lat="44.9209278" lon="11.7719192"><ele>1.0</ele><time>2026-04-26T13:32:35.903Z</time></trkpt><trkpt lat="44.9207349" lon="11.772008"><ele>1.0</ele><time>2026-04-26T13:32:36.904Z</time></trkpt><trkpt lat="44.92055" lon="11.7720949"><ele>1.0</ele><time>2026-04-26T13:32:37.903Z</time></trkpt><trkpt lat="44.9203817" lon="11.7721791"><ele>1.0</ele><time>2026-04-26T13:32:38.903Z</time></trkpt><trkpt lat="44.9202212" lon="11.7722694"><ele>1.0</ele><time>2026-04-26T13:32:39.904Z</time></trkpt><trkpt lat="44.9200727" lon="11.772398"><ele>1.0</ele><time>2026-04-26T13:32:40.904Z</time></trkpt><trkpt lat="44.9199264" lon="11.7725466"><ele>2.0</ele><time>2026-04-26T13:32:41.904Z</time></trkpt><trkpt lat="44.9197828" lon="11.7727182"><ele>3.0</ele><time>2026-04-26T13:32:42.904Z</time></trkpt><trkpt lat="44.9196374" lon="11.7728997"><ele>4.0</ele><time>2026-04-26T13:32:43.904Z</time></trkpt><trkpt lat="44.9194907" lon="11.7730889"><ele>4.0</ele><time>2026-04-26T13:32:44.903Z</time></trkpt><trkpt lat="44.9193437" lon="11.7732711"><ele>4.0</ele><time>2026-04-26T13:32:45.904Z</time></trkpt><trkpt lat="44.9191977" lon="11.7734648"><ele>4.0</ele><time>2026-04-26T13:32:46.904Z</time></trkpt><trkpt lat="44.9190499" lon="11.773659"><ele>3.6666666666666665</ele><time>2026-04-26T13:32:47.904Z</time></trkpt><trkpt lat="44.9188977" lon="11.7738584"><ele>3.333333333333333</ele><time>2026-04-26T13:32:48.904Z</time></trkpt><trkpt lat="44.9187458" lon="11.7740621"><ele>3.0</ele><time>2026-04-26T13:32:49.903Z</time></trkpt><trkpt lat="44.9185962" lon="11.7742645"><ele>2.3333333333333335</ele><time>2026-04-26T13:32:50.903Z</time></trkpt><trkpt lat="44.9184401" lon="11.7744704"><ele>1.6666666666666665</ele><time>2026-04-26T13:32:51.904Z</time></trkpt><trkpt lat="44.9182851" lon="11.774672"><ele>1.0</ele><time>2026-04-26T13:32:52.903Z</time></trkpt><trkpt lat="44.9181285" lon="11.7748761"><ele>1.0</ele><time>2026-04-26T13:32:53.904Z</time></trkpt><trkpt lat="44.917973" lon="11.775082"><ele>1.0</ele><time>2026-04-26T13:32:54.904Z</time></trkpt><trkpt lat="44.9178184" lon="11.7752883"><ele>1.0</ele><time>2026-04-26T13:32:55.903Z</time></trkpt><trkpt lat="44.9176613" lon="11.7754971"><ele>1.3333333333333333</ele><time>2026-04-26T13:32:56.904Z</time></trkpt><trkpt lat="44.9175097" lon="11.7757047"><ele>1.6666666666666665</ele><time>2026-04-26T13:32:57.904Z</time></trkpt><trkpt lat="44.9173567" lon="11.7759109"><ele>2.0</ele><time>2026-04-26T13:32:58.904Z</time></trkpt><trkpt lat="44.917197" lon="11.7761154"><ele>2.333333333333333</ele><time>2026-04-26T13:32:59.903Z</time></trkpt><trkpt lat="44.9170396" lon="11.7763212"><ele>2.6666666666666665</ele><time>2026-04-26T13:33:00.904Z</time></trkpt><trkpt lat="44.9168819" lon="11.7765257"><ele>3.0</ele><time>2026-04-26T13:33:01.903Z</time></trkpt><trkpt lat="44.9167271" lon="11.7767291"><ele>2.6666666666666665</ele><time>2026-04-26T13:33:02.904Z</time></trkpt><trkpt lat="44.9165732" lon="11.7769354"><ele>2.333333333333333</ele><time>2026-04-26T13:33:03.904Z</time></trkpt><trkpt lat="44.9164206" lon="11.7771403"><ele>2.0</ele><time>2026-04-26T13:33:04.904Z</time></trkpt><trkpt lat="44.9162703" lon="11.7773426"><ele>2.0</ele><time>2026-04-26T13:33:05.904Z</time></trkpt><trkpt lat="44.9161219" lon="11.7775402"><ele>2.0</ele><time>2026-04-26T13:33:06.903Z</time></trkpt><trkpt lat="44.9159726" lon="11.7777438"><ele>2.0</ele><time>2026-04-26T13:33:07.904Z</time></trkpt><trkpt lat="44.9158256" lon="11.7779478"><ele>1.6666666666666665</ele><time>2026-04-26T13:33:08.903Z</time></trkpt><trkpt lat="44.9156708" lon="11.7781497"><ele>1.3333333333333333</ele><time>2026-04-26T13:33:09.903Z</time></trkpt><trkpt lat="44.915517" lon="11.778354"><ele>1.0</ele><time>2026-04-26T13:33:10.903Z</time></trkpt><trkpt lat="44.9153582" lon="11.7785601"><ele>0.6666666666666666</ele><time>2026-04-26T13:33:11.904Z</time></trkpt><trkpt lat="44.9152032" lon="11.7787679"><ele>0.3333333333333333</ele><time>2026-04-26T13:33:12.904Z</time></trkpt><trkpt lat="44.9150484" lon="11.7789771"><ele>0.0</ele><time>2026-04-26T13:33:13.904Z</time></trkpt><trkpt lat="44.9148895" lon="11.7791877"><ele>0.3333333333333333</ele><time>2026-04-26T13:33:14.903Z</time></trkpt><trkpt lat="44.9147271" lon="11.7794067"><ele>0.6666666666666666</ele><time>2026-04-26T13:33:15.903Z</time></trkpt><trkpt lat="44.9145659" lon="11.7796204"><ele>1.0</ele><time>2026-04-26T13:33:16.904Z</time></trkpt><trkpt lat="44.9143981" lon="11.7798433"><ele>1.0</ele><time>2026-04-26T13:33:17.903Z</time></trkpt><trkpt lat="44.9142278" lon="11.7800691"><ele>1.0</ele><time>2026-04-26T13:33:18.904Z</time></trkpt><trkpt lat="44.9140595" lon="11.7802952"><ele>0.5</ele><time>2026-04-26T13:33:19.903Z</time></trkpt><trkpt lat="44.9138895" lon="11.7805189"><ele>0.0</ele><time>2026-04-26T13:33:20.904Z</time></trkpt><trkpt lat="44.9137194" lon="11.780743"><ele>0.0</ele><time>2026-04-26T13:33:21.903Z</time></trkpt><trkpt lat="44.913552" lon="11.7809751"><ele>0.0</ele><time>2026-04-26T13:33:22.904Z</time></trkpt><trkpt lat="44.9133828" lon="11.7811962"><ele>0.5</ele><time>2026-04-26T13:33:23.903Z</time></trkpt><trkpt lat="44.9132198" lon="11.7814216"><ele>1.0</ele><time>2026-04-26T13:33:24.903Z</time></trkpt><trkpt lat="44.9130521" lon="11.7816486"><ele>1.0</ele><time>2026-04-26T13:33:25.903Z</time></trkpt><trkpt lat="44.9128826" lon="11.781873"><ele>1.0</ele><time>2026-04-26T13:33:26.904Z</time></trkpt><trkpt lat="44.912716" lon="11.7820964"><ele>1.5</ele><time>2026-04-26T13:33:27.904Z</time></trkpt><trkpt lat="44.9125505" lon="11.7823157"><ele>2.0</ele><time>2026-04-26T13:33:28.903Z</time></trkpt><trkpt lat="44.912384" lon="11.7825335"><ele>2.0</ele><time>2026-04-26T13:33:29.903Z</time></trkpt><trkpt lat="44.9122233" lon="11.7827537"><ele>2.0</ele><time>2026-04-26T13:33:30.903Z</time></trkpt><trkpt lat="44.9120682" lon="11.7829672"><ele>2.0</ele><time>2026-04-26T13:33:31.904Z</time></trkpt><trkpt lat="44.9119106" lon="11.7831751"><ele>2.0</ele><time>2026-04-26T13:33:32.903Z</time></trkpt><trkpt lat="44.911752" lon="11.7833814"><ele>2.0</ele><time>2026-04-26T13:33:33.904Z</time></trkpt><trkpt lat="44.9116015" lon="11.7835783"><ele>2.0</ele><time>2026-04-26T13:33:34.903Z</time></trkpt><trkpt lat="44.911456" lon="11.7837787"><ele>1.3333333333333333</ele><time>2026-04-26T13:33:35.903Z</time></trkpt><trkpt lat="44.9113206" lon="11.7839856"><ele>0.6666666666666666</ele><time>2026-04-26T13:33:36.903Z</time></trkpt><trkpt lat="44.9111913" lon="11.7842021"><ele>0.0</ele><time>2026-04-26T13:33:37.904Z</time></trkpt><trkpt lat="44.9110761" lon="11.7844382"><ele>0.0</ele><time>2026-04-26T13:33:38.904Z</time></trkpt><trkpt lat="44.910976" lon="11.7846803"><ele>0.0</ele><time>2026-04-26T13:33:39.904Z</time></trkpt><trkpt lat="44.9108855" lon="11.784934"><ele>0.0</ele><time>2026-04-26T13:33:40.904Z</time></trkpt><trkpt lat="44.9108107" lon="11.7851998"><ele>0.0</ele><time>2026-04-26T13:33:41.903Z</time></trkpt><trkpt lat="44.9107508" lon="11.7854794"><ele>0.0</ele><time>2026-04-26T13:33:42.904Z</time></trkpt><trkpt lat="44.9107053" lon="11.7857637"><ele>0.0</ele><time>2026-04-26T13:33:43.903Z</time></trkpt><trkpt lat="44.9106745" lon="11.7860506"><ele>0.6666666666666666</ele><time>2026-04-26T13:33:44.904Z</time></trkpt><trkpt lat="44.9106541" lon="11.786343"><ele>1.3333333333333333</ele><time>2026-04-26T13:33:45.903Z</time></trkpt><trkpt lat="44.9106534" lon="11.7866391"><ele>2.0</ele><time>2026-04-26T13:33:46.903Z</time></trkpt><trkpt lat="44.9106616" lon="11.7869301"><ele>2.0</ele><time>2026-04-26T13:33:47.903Z</time></trkpt><trkpt lat="44.9106903" lon="11.7872207"><ele>2.0</ele><time>2026-04-26T13:33:48.904Z</time></trkpt><trkpt lat="44.9107245" lon="11.7875117"><ele>2.0</ele><time>2026-04-26T13:33:49.904Z</time></trkpt><trkpt lat="44.9107591" lon="11.7878047"><ele>2.0</ele><time>2026-04-26T13:33:50.904Z</time></trkpt><trkpt lat="44.9107911" lon="11.7880888"><ele>2.0</ele><time>2026-04-26T13:33:51.903Z</time></trkpt><trkpt lat="44.9108261" lon="11.7883735"><ele>2.0</ele><time>2026-04-26T13:33:52.903Z</time></trkpt><trkpt lat="44.9108594" lon="11.7886572"><ele>2.0</ele><time>2026-04-26T13:33:53.903Z</time></trkpt><trkpt lat="44.910893" lon="11.7889356"><ele>2.0</ele><time>2026-04-26T13:33:54.904Z</time></trkpt><trkpt lat="44.9109281" lon="11.7892131"><ele>2.0</ele><time>2026-04-26T13:33:55.904Z</time></trkpt><trkpt lat="44.910962" lon="11.7894937"><ele>2.0</ele><time>2026-04-26T13:33:56.904Z</time></trkpt><trkpt lat="44.9109948" lon="11.7897777"><ele>2.0</ele><time>2026-04-26T13:33:57.903Z</time></trkpt><trkpt lat="44.9110295" lon="11.7900626"><ele>2.0</ele><time>2026-04-26T13:33:58.904Z</time></trkpt><trkpt lat="44.9110592" lon="11.7903477"><ele>1.6666666666666665</ele><time>2026-04-26T13:33:59.903Z</time></trkpt><trkpt lat="44.911088" lon="11.7906428"><ele>1.3333333333333333</ele><time>2026-04-26T13:34:00.903Z</time></trkpt><trkpt lat="44.9111034" lon="11.7909366"><ele>1.0</ele><time>2026-04-26T13:34:01.903Z</time></trkpt><trkpt lat="44.9110972" lon="11.7912295"><ele>1.0</ele><time>2026-04-26T13:34:02.903Z</time></trkpt><trkpt lat="44.9110828" lon="11.7915202"><ele>1.0</ele><time>2026-04-26T13:34:03.903Z</time></trkpt><trkpt lat="44.9110476" lon="11.7918112"><ele>1.0</ele><time>2026-04-26T13:34:04.904Z</time></trkpt><trkpt lat="44.910998" lon="11.7921036"><ele>1.0</ele><time>2026-04-26T13:34:05.904Z</time></trkpt><trkpt lat="44.9109341" lon="11.7923826"><ele>1.0</ele><time>2026-04-26T13:34:06.904Z</time></trkpt><trkpt lat="44.9108444" lon="11.7926581"><ele>1.0</ele><time>2026-04-26T13:34:07.903Z</time></trkpt><trkpt lat="44.9107603" lon="11.7929355"><ele>1.0</ele><time>2026-04-26T13:34:08.904Z</time></trkpt><trkpt lat="44.9106568" lon="11.7932073"><ele>1.0</ele><time>2026-04-26T13:34:09.904Z</time></trkpt><trkpt lat="44.9105652" lon="11.7934842"><ele>1.0</ele><time>2026-04-26T13:34:10.903Z</time></trkpt><trkpt lat="44.9104641" lon="11.7937539"><ele>1.3333333333333333</ele><time>2026-04-26T13:34:11.903Z</time></trkpt><trkpt lat="44.9103708" lon="11.7940297"><ele>1.6666666666666665</ele><time>2026-04-26T13:34:12.903Z</time></trkpt><trkpt lat="44.9102754" lon="11.7943027"><ele>2.0</ele><time>2026-04-26T13:34:13.903Z</time></trkpt><trkpt lat="44.9101822" lon="11.7945722"><ele>2.0</ele><time>2026-04-26T13:34:14.904Z</time></trkpt><trkpt lat="44.9100843" lon="11.7948361"><ele>2.0</ele><time>2026-04-26T13:34:15.904Z</time></trkpt><trkpt lat="44.9099848" lon="11.7950877"><ele>2.0</ele><time>2026-04-26T13:34:16.904Z</time></trkpt><trkpt lat="44.9098748" lon="11.7953309"><ele>1.3333333333333333</ele><time>2026-04-26T13:34:17.903Z</time></trkpt><trkpt lat="44.9097506" lon="11.7955626"><ele>0.6666666666666666</ele><time>2026-04-26T13:34:18.903Z</time></trkpt><trkpt lat="44.9096216" lon="11.7957767"><ele>0.0</ele><time>2026-04-26T13:34:19.903Z</time></trkpt><trkpt lat="44.9094742" lon="11.7959696"><ele>0.3333333333333333</ele><time>2026-04-26T13:34:20.903Z</time></trkpt><trkpt lat="44.9093135" lon="11.7961557"><ele>0.6666666666666666</ele><time>2026-04-26T13:34:21.904Z</time></trkpt><trkpt lat="44.9091392" lon="11.7963183"><ele>1.0</ele><time>2026-04-26T13:34:22.903Z</time></trkpt><trkpt lat="44.9089601" lon="11.7964701"><ele>1.0</ele><time>2026-04-26T13:34:23.903Z</time></trkpt><trkpt lat="44.9087713" lon="11.7966003"><ele>1.0</ele><time>2026-04-26T13:34:24.903Z</time></trkpt><trkpt lat="44.9085805" lon="11.7967314"><ele>1.0</ele><time>2026-04-26T13:34:25.904Z</time></trkpt><trkpt lat="44.9083775" lon="11.7967962"><ele>0.6666666666666666</ele><time>2026-04-26T13:34:26.904Z</time></trkpt><trkpt lat="44.9081745" lon="11.7968683"><ele>0.3333333333333333</ele><time>2026-04-26T13:34:27.903Z</time></trkpt><trkpt lat="44.9079704" lon="11.7969177"><ele>0.0</ele><time>2026-04-26T13:34:28.903Z</time></trkpt><trkpt lat="44.907767" lon="11.7969759"><ele>0.0</ele><time>2026-04-26T13:34:29.904Z</time></trkpt><trkpt lat="44.9075618" lon="11.7970314"><ele>0.0</ele><time>2026-04-26T13:34:30.904Z</time></trkpt><trkpt lat="44.9073559" lon="11.7970886"><ele>0.0</ele><time>2026-04-26T13:34:31.903Z</time></trkpt><trkpt lat="44.9071595" lon="11.7971442"><ele>0.0</ele><time>2026-04-26T13:34:32.903Z</time></trkpt><trkpt lat="44.9069736" lon="11.7972124"><ele>0.0</ele><time>2026-04-26T13:34:33.904Z</time></trkpt><trkpt lat="44.9067963" lon="11.7973059"><ele>0.0</ele><time>2026-04-26T13:34:34.903Z</time></trkpt><trkpt lat="44.9066299" lon="11.7974205"><ele>0.3333333333333333</ele><time>2026-04-26T13:34:35.903Z</time></trkpt><trkpt lat="44.906473" lon="11.797576"><ele>0.6666666666666666</ele><time>2026-04-26T13:34:36.903Z</time></trkpt><trkpt lat="44.9063284" lon="11.7977438"><ele>1.0</ele><time>2026-04-26T13:34:37.903Z</time></trkpt><trkpt lat="44.9062007" lon="11.7979338"><ele>1.3333333333333333</ele><time>2026-04-26T13:34:38.903Z</time></trkpt><trkpt lat="44.9060924" lon="11.7981529"><ele>1.6666666666666665</ele><time>2026-04-26T13:34:39.903Z</time></trkpt><trkpt lat="44.906005" lon="11.7983962"><ele>2.0</ele><time>2026-04-26T13:34:40.904Z</time></trkpt><trkpt lat="44.9059387" lon="11.7986439"><ele>2.333333333333333</ele><time>2026-04-26T13:34:41.904Z</time></trkpt><trkpt lat="44.9058897" lon="11.7989125"><ele>2.6666666666666665</ele><time>2026-04-26T13:34:42.903Z</time></trkpt><trkpt lat="44.9058626" lon="11.79919"><ele>3.0</ele><time>2026-04-26T13:34:43.903Z</time></trkpt><trkpt lat="44.9058528" lon="11.7994759"><ele>3.0</ele><time>2026-04-26T13:34:44.903Z</time></trkpt><trkpt lat="44.9058455" lon="11.7997574"><ele>3.0</ele><time>2026-04-26T13:34:45.903Z</time></trkpt><trkpt lat="44.9058411" lon="11.8000494"><ele>3.0</ele><time>2026-04-26T13:34:46.903Z</time></trkpt><trkpt lat="44.9058354" lon="11.8003489"><ele>2.6666666666666665</ele><time>2026-04-26T13:34:47.903Z</time></trkpt><trkpt lat="44.9058318" lon="11.8006534"><ele>2.333333333333333</ele><time>2026-04-26T13:34:48.903Z</time></trkpt><trkpt lat="44.9058244" lon="11.8009498"><ele>2.0</ele><time>2026-04-26T13:34:49.903Z</time></trkpt><trkpt lat="44.9058217" lon="11.8012534"><ele>1.6666666666666665</ele><time>2026-04-26T13:34:50.903Z</time></trkpt><trkpt lat="44.9058095" lon="11.8015569"><ele>1.3333333333333333</ele><time>2026-04-26T13:34:51.904Z</time></trkpt><trkpt lat="44.9058021" lon="11.8018538"><ele>1.0</ele><time>2026-04-26T13:34:52.904Z</time></trkpt><trkpt lat="44.9057972" lon="11.8021473"><ele>1.0</ele><time>2026-04-26T13:34:53.904Z</time></trkpt><trkpt lat="44.905791" lon="11.8024464"><ele>1.0</ele><time>2026-04-26T13:34:54.903Z</time></trkpt><trkpt lat="44.9057796" lon="11.8027437"><ele>1.0</ele><time>2026-04-26T13:34:55.903Z</time></trkpt><trkpt lat="44.9057667" lon="11.8030403"><ele>1.0</ele><time>2026-04-26T13:34:56.903Z</time></trkpt><trkpt lat="44.9057448" lon="11.8033377"><ele>1.0</ele><time>2026-04-26T13:34:57.903Z</time></trkpt><trkpt lat="44.9057164" lon="11.8036355"><ele>1.0</ele><time>2026-04-26T13:34:58.904Z</time></trkpt><trkpt lat="44.9056829" lon="11.8039315"><ele>1.0</ele><time>2026-04-26T13:34:59.903Z</time></trkpt><trkpt lat="44.9056468" lon="11.8042228"><ele>1.0</ele><time>2026-04-26T13:35:00.903Z</time></trkpt><trkpt lat="44.9056058" lon="11.8045177"><ele>1.0</ele><time>2026-04-26T13:35:01.903Z</time></trkpt><trkpt lat="44.905559" lon="11.8048051"><ele>1.0</ele><time>2026-04-26T13:35:02.904Z</time></trkpt><trkpt lat="44.9055084" lon="11.805095"><ele>1.0</ele><time>2026-04-26T13:35:03.903Z</time></trkpt><trkpt lat="44.9054474" lon="11.805376"><ele>1.0</ele><time>2026-04-26T13:35:04.903Z</time></trkpt><trkpt lat="44.9053811" lon="11.8056561"><ele>1.0</ele><time>2026-04-26T13:35:05.903Z</time></trkpt><trkpt lat="44.9053166" lon="11.8059316"><ele>1.0</ele><time>2026-04-26T13:35:06.903Z</time></trkpt><trkpt lat="44.9052447" lon="11.8062011"><ele>1.0</ele><time>2026-04-26T13:35:07.904Z</time></trkpt><trkpt lat="44.9051722" lon="11.8064574"><ele>1.0</ele><time>2026-04-26T13:35:08.904Z</time></trkpt><trkpt lat="44.9050999" lon="11.8067042"><ele>1.0</ele><time>2026-04-26T13:35:09.903Z</time></trkpt><trkpt lat="44.9050281" lon="11.8069438"><ele>1.0</ele><time>2026-04-26T13:35:10.904Z</time></trkpt><trkpt lat="44.9049598" lon="11.8071763"><ele>1.6666666666666665</ele><time>2026-04-26T13:35:11.903Z</time></trkpt><trkpt lat="44.9048886" lon="11.8074096"><ele>2.3333333333333335</ele><time>2026-04-26T13:35:12.903Z</time></trkpt><trkpt lat="44.9048221" lon="11.8076419"><ele>3.0</ele><time>2026-04-26T13:35:13.903Z</time></trkpt><trkpt lat="44.9047518" lon="11.8078736"><ele>3.0</ele><time>2026-04-26T13:35:14.903Z</time></trkpt><trkpt lat="44.904677" lon="11.808104"><ele>3.0</ele><time>2026-04-26T13:35:15.903Z</time></trkpt><trkpt lat="44.904605" lon="11.8083348"><ele>3.0</ele><time>2026-04-26T13:35:16.904Z</time></trkpt><trkpt lat="44.9045335" lon="11.8085634"><ele>3.666666666666667</ele><time>2026-04-26T13:35:17.904Z</time></trkpt><trkpt lat="44.9044607" lon="11.8087892"><ele>4.333333333333334</ele><time>2026-04-26T13:35:18.904Z</time></trkpt><trkpt lat="44.9043878" lon="11.8090125"><ele>5.0</ele><time>2026-04-26T13:35:19.904Z</time></trkpt><trkpt lat="44.9043134" lon="11.8092341"><ele>3.666666666666667</ele><time>2026-04-26T13:35:20.903Z</time></trkpt><trkpt lat="44.904236" lon="11.8094536"><ele>2.3333333333333335</ele><time>2026-04-26T13:35:21.903Z</time></trkpt><trkpt lat="44.9041414" lon="11.8096605"><ele>1.0</ele><time>2026-04-26T13:35:22.904Z</time></trkpt><trkpt lat="44.9040499" lon="11.8098467"><ele>1.0</ele><time>2026-04-26T13:35:23.903Z</time></trkpt><trkpt lat="44.9039537" lon="11.810016"><ele>1.0</ele><time>2026-04-26T13:35:24.903Z</time></trkpt><trkpt lat="44.9038635" lon="11.8101526"><ele>1.0</ele><time>2026-04-26T13:35:25.904Z</time></trkpt><trkpt lat="44.9037866" lon="11.8102601"><ele>1.0</ele><time>2026-04-26T13:35:26.903Z</time></trkpt><trkpt lat="44.9037051" lon="11.8103406"><ele>1.0</ele><time>2026-04-26T13:35:27.904Z</time></trkpt><trkpt lat="44.9036067" lon="11.8104068"><ele>1.0</ele><time>2026-04-26T13:35:28.903Z</time></trkpt><trkpt lat="44.903488" lon="11.8104415"><ele>1.0</ele><time>2026-04-26T13:35:29.903Z</time></trkpt><trkpt lat="44.9033604" lon="11.8104429"><ele>1.0</ele><time>2026-04-26T13:35:30.904Z</time></trkpt><trkpt lat="44.903229" lon="11.8104085"><ele>1.0</ele><time>2026-04-26T13:35:31.903Z</time></trkpt><trkpt lat="44.9030918" lon="11.8103415"><ele>1.0</ele><time>2026-04-26T13:35:32.904Z</time></trkpt><trkpt lat="44.902954" lon="11.8102576"><ele>1.0</ele><time>2026-04-26T13:35:33.903Z</time></trkpt><trkpt lat="44.9028044" lon="11.8101853"><ele>1.0</ele><time>2026-04-26T13:35:34.903Z</time></trkpt><trkpt lat="44.9026513" lon="11.8101194"><ele>1.0</ele><time>2026-04-26T13:35:35.903Z</time></trkpt><trkpt lat="44.9024963" lon="11.8100562"><ele>1.0</ele><time>2026-04-26T13:35:36.903Z</time></trkpt><trkpt lat="44.9023362" lon="11.8099991"><ele>0.6666666666666666</ele><time>2026-04-26T13:35:37.904Z</time></trkpt><trkpt lat="44.9021709" lon="11.8099472"><ele>0.3333333333333333</ele><time>2026-04-26T13:35:38.904Z</time></trkpt><trkpt lat="44.902003" lon="11.8099023"><ele>0.0</ele><time>2026-04-26T13:35:39.903Z</time></trkpt><trkpt lat="44.9018325" lon="11.8098715"><ele>0.3333333333333333</ele><time>2026-04-26T13:35:40.904Z</time></trkpt><trkpt lat="44.9016573" lon="11.8098569"><ele>0.6666666666666666</ele><time>2026-04-26T13:35:41.904Z</time></trkpt><trkpt lat="44.901475" lon="11.8098517"><ele>1.0</ele><time>2026-04-26T13:35:42.904Z</time></trkpt><trkpt lat="44.9012929" lon="11.8098535"><ele>1.0</ele><time>2026-04-26T13:35:43.904Z</time></trkpt><trkpt lat="44.9011075" lon="11.809858"><ele>1.0</ele><time>2026-04-26T13:35:44.904Z</time></trkpt><trkpt lat="44.9009177" lon="11.8098643"><ele>1.0</ele><time>2026-04-26T13:35:45.903Z</time></trkpt><trkpt lat="44.9007272" lon="11.809871"><ele>1.0</ele><time>2026-04-26T13:35:46.904Z</time></trkpt><trkpt lat="44.9005344" lon="11.80987"><ele>1.0</ele><time>2026-04-26T13:35:47.904Z</time></trkpt><trkpt lat="44.9003366" lon="11.8098758"><ele>1.0</ele><time>2026-04-26T13:35:48.903Z</time></trkpt><trkpt lat="44.9001358" lon="11.8098837"><ele>0.6666666666666666</ele><time>2026-04-26T13:35:49.904Z</time></trkpt><trkpt lat="44.8999363" lon="11.8098974"><ele>0.3333333333333333</ele><time>2026-04-26T13:35:50.903Z</time></trkpt><trkpt lat="44.8997335" lon="11.8099081"><ele>0.0</ele><time>2026-04-26T13:35:51.904Z</time></trkpt><trkpt lat="44.8995258" lon="11.8099173"><ele>0.0</ele><time>2026-04-26T13:35:52.903Z</time></trkpt><trkpt lat="44.8993157" lon="11.8099228"><ele>0.0</ele><time>2026-04-26T13:35:53.904Z</time></trkpt><trkpt lat="44.8990997" lon="11.8099277"><ele>0.0</ele><time>2026-04-26T13:35:54.903Z</time></trkpt><trkpt lat="44.898886" lon="11.8099354"><ele>0.3333333333333333</ele><time>2026-04-26T13:35:55.903Z</time></trkpt><trkpt lat="44.8986662" lon="11.8099415"><ele>0.6666666666666666</ele><time>2026-04-26T13:35:56.904Z</time></trkpt><trkpt lat="44.8984484" lon="11.809954"><ele>1.0</ele><time>2026-04-26T13:35:57.903Z</time></trkpt><trkpt lat="44.8982283" lon="11.8099642"><ele>1.0</ele><time>2026-04-26T13:35:58.904Z</time></trkpt><trkpt lat="44.898006" lon="11.8099709"><ele>1.0</ele><time>2026-04-26T13:35:59.904Z</time></trkpt><trkpt lat="44.8977847" lon="11.8099786"><ele>1.0</ele><time>2026-04-26T13:36:00.903Z</time></trkpt><trkpt lat="44.8975622" lon="11.8099865"><ele>1.0</ele><time>2026-04-26T13:36:01.903Z</time></trkpt><trkpt lat="44.8973427" lon="11.8099939"><ele>1.0</ele><time>2026-04-26T13:36:02.904Z</time></trkpt><trkpt lat="44.8971213" lon="11.8100066"><ele>1.0</ele><time>2026-04-26T13:36:03.903Z</time></trkpt><trkpt lat="44.896912" lon="11.8100243"><ele>1.0</ele><time>2026-04-26T13:36:04.904Z</time></trkpt><trkpt lat="44.8967109" lon="11.8100474"><ele>1.0</ele><time>2026-04-26T13:36:05.904Z</time></trkpt><trkpt lat="44.8965231" lon="11.8100765"><ele>1.0</ele><time>2026-04-26T13:36:06.904Z</time></trkpt><trkpt lat="44.8963478" lon="11.8101191"><ele>1.0</ele><time>2026-04-26T13:36:07.903Z</time></trkpt><trkpt lat="44.8961722" lon="11.8101698"><ele>1.0</ele><time>2026-04-26T13:36:08.903Z</time></trkpt><trkpt lat="44.8959983" lon="11.8102209"><ele>1.0</ele><time>2026-04-26T13:36:09.904Z</time></trkpt><trkpt lat="44.8958261" lon="11.8102751"><ele>1.0</ele><time>2026-04-26T13:36:10.904Z</time></trkpt><trkpt lat="44.8956517" lon="11.8103293"><ele>1.0</ele><time>2026-04-26T13:36:11.904Z</time></trkpt><trkpt lat="44.8954766" lon="11.8103856"><ele>1.0</ele><time>2026-04-26T13:36:12.904Z</time></trkpt><trkpt lat="44.8953019" lon="11.8104429"><ele>1.0</ele><time>2026-04-26T13:36:13.904Z</time></trkpt><trkpt lat="44.8951318" lon="11.8105018"><ele>1.0</ele><time>2026-04-26T13:36:14.903Z</time></trkpt><trkpt lat="44.8949616" lon="11.810548"><ele>1.0</ele><time>2026-04-26T13:36:15.904Z</time></trkpt><trkpt lat="44.8947908" lon="11.8106016"><ele>1.3333333333333333</ele><time>2026-04-26T13:36:16.904Z</time></trkpt><trkpt lat="44.8946224" lon="11.8106549"><ele>1.6666666666666665</ele><time>2026-04-26T13:36:17.903Z</time></trkpt><trkpt lat="44.8944585" lon="11.8107129"><ele>2.0</ele><time>2026-04-26T13:36:18.903Z</time></trkpt><trkpt lat="44.8942953" lon="11.8107653"><ele>1.6666666666666665</ele><time>2026-04-26T13:36:19.904Z</time></trkpt><trkpt lat="44.8941315" lon="11.8108195"><ele>1.3333333333333333</ele><time>2026-04-26T13:36:20.904Z</time></trkpt><trkpt lat="44.8939685" lon="11.8108736"><ele>1.0</ele><time>2026-04-26T13:36:21.903Z</time></trkpt><trkpt lat="44.8938069" lon="11.8109248"><ele>1.0</ele><time>2026-04-26T13:36:22.903Z</time></trkpt><trkpt lat="44.8936412" lon="11.8109797"><ele>1.0</ele><time>2026-04-26T13:36:23.903Z</time></trkpt><trkpt lat="44.8934788" lon="11.8110352"><ele>1.0</ele><time>2026-04-26T13:36:24.904Z</time></trkpt><trkpt lat="44.8933114" lon="11.8110853"><ele>0.6666666666666666</ele><time>2026-04-26T13:36:25.904Z</time></trkpt><trkpt lat="44.8931346" lon="11.8111379"><ele>0.3333333333333333</ele><time>2026-04-26T13:36:26.903Z</time></trkpt><trkpt lat="44.8929606" lon="11.8111931"><ele>0.0</ele><time>2026-04-26T13:36:27.904Z</time></trkpt><trkpt lat="44.8927836" lon="11.8112319"><ele>0.0</ele><time>2026-04-26T13:36:28.903Z</time></trkpt><trkpt lat="44.8926058" lon="11.8112646"><ele>0.0</ele><time>2026-04-26T13:36:29.903Z</time></trkpt><trkpt lat="44.8924288" lon="11.8112937"><ele>0.0</ele><time>2026-04-26T13:36:30.904Z</time></trkpt><trkpt lat="44.892251" lon="11.8113176"><ele>0.3333333333333333</ele><time>2026-04-26T13:36:31.903Z</time></trkpt><trkpt lat="44.8920751" lon="11.8113404"><ele>0.6666666666666666</ele><time>2026-04-26T13:36:32.903Z</time></trkpt><trkpt lat="44.891899" lon="11.8113605"><ele>1.0</ele><time>2026-04-26T13:36:33.904Z</time></trkpt><trkpt lat="44.8917284" lon="11.8113777"><ele>1.0</ele><time>2026-04-26T13:36:34.903Z</time></trkpt><trkpt lat="44.8915569" lon="11.8113897"><ele>1.0</ele><time>2026-04-26T13:36:35.903Z</time></trkpt><trkpt lat="44.891384" lon="11.8114049"><ele>1.0</ele><time>2026-04-26T13:36:36.904Z</time></trkpt><trkpt lat="44.8912138" lon="11.8114191"><ele>1.0</ele><time>2026-04-26T13:36:37.903Z</time></trkpt><trkpt lat="44.8910462" lon="11.8114423"><ele>1.0</ele><time>2026-04-26T13:36:38.903Z</time></trkpt><trkpt lat="44.8908724" lon="11.811455"><ele>1.0</ele><time>2026-04-26T13:36:39.903Z</time></trkpt><trkpt lat="44.8906997" lon="11.8114678"><ele>1.6666666666666665</ele><time>2026-04-26T13:36:40.904Z</time></trkpt><trkpt lat="44.8905303" lon="11.8114777"><ele>2.3333333333333335</ele><time>2026-04-26T13:36:41.903Z</time></trkpt><trkpt lat="44.8903709" lon="11.8114897"><ele>3.0</ele><time>2026-04-26T13:36:42.904Z</time></trkpt><trkpt lat="44.8902211" lon="11.8115045"><ele>3.0</ele><time>2026-04-26T13:36:43.904Z</time></trkpt><trkpt lat="44.8900804" lon="11.8115233"><ele>3.0</ele><time>2026-04-26T13:36:44.903Z</time></trkpt><trkpt lat="44.8899463" lon="11.8115371"><ele>3.0</ele><time>2026-04-26T13:36:45.903Z</time></trkpt><trkpt lat="44.8898308" lon="11.8115515"><ele>3.0</ele><time>2026-04-26T13:36:46.903Z</time></trkpt><trkpt lat="44.8897258" lon="11.8115586"><ele>3.0</ele><time>2026-04-26T13:36:47.904Z</time></trkpt><trkpt lat="44.8896369" lon="11.8115595"><ele>3.0</ele><time>2026-04-26T13:36:48.904Z</time></trkpt><trkpt lat="44.8895572" lon="11.8115385"><ele>3.0</ele><time>2026-04-26T13:36:49.904Z</time></trkpt><trkpt lat="44.8894813" lon="11.8114868"><ele>3.0</ele><time>2026-04-26T13:36:50.904Z</time></trkpt><trkpt lat="44.8894114" lon="11.811402"><ele>3.0</ele><time>2026-04-26T13:36:51.903Z</time></trkpt><trkpt lat="44.8893336" lon="11.8113073"><ele>3.0</ele><time>2026-04-26T13:36:52.903Z</time></trkpt><trkpt lat="44.8892496" lon="11.8112334"><ele>2.6</ele><time>2026-04-26T13:36:53.903Z</time></trkpt><trkpt lat="44.8891519" lon="11.8112241"><ele>2.1999999999999997</ele><time>2026-04-26T13:36:54.903Z</time></trkpt><trkpt lat="44.8890566" lon="11.8112441"><ele>1.8</ele><time>2026-04-26T13:36:55.904Z</time></trkpt><trkpt lat="44.888969" lon="11.8113065"><ele>1.4</ele><time>2026-04-26T13:36:56.903Z</time></trkpt><trkpt lat="44.8888949" lon="11.8114036"><ele>1.0</ele><time>2026-04-26T13:36:57.903Z</time></trkpt><trkpt lat="44.8888322" lon="11.8115184"><ele>1.0</ele><time>2026-04-26T13:36:58.904Z</time></trkpt><trkpt lat="44.8887492" lon="11.8116113"><ele>1.0</ele><time>2026-04-26T13:36:59.904Z</time></trkpt><trkpt lat="44.8886467" lon="11.8116829"><ele>1.0</ele><time>2026-04-26T13:37:00.904Z</time></trkpt><trkpt lat="44.8885347" lon="11.8117289"><ele>1.0</ele><time>2026-04-26T13:37:01.904Z</time></trkpt><trkpt lat="44.8884121" lon="11.8117727"><ele>1.25</ele><time>2026-04-26T13:37:02.903Z</time></trkpt><trkpt lat="44.8882859" lon="11.8118342"><ele>1.5</ele><time>2026-04-26T13:37:03.903Z</time></trkpt><trkpt lat="44.8881648" lon="11.8119016"><ele>1.75</ele><time>2026-04-26T13:37:04.903Z</time></trkpt><trkpt lat="44.8880444" lon="11.8119687"><ele>2.0</ele><time>2026-04-26T13:37:05.904Z</time></trkpt><trkpt lat="44.8879289" lon="11.812046"><ele>2.0</ele><time>2026-04-26T13:37:06.903Z</time></trkpt><trkpt lat="44.8878201" lon="11.8121267"><ele>2.0</ele><time>2026-04-26T13:37:07.903Z</time></trkpt><trkpt lat="44.8877126" lon="11.8122109"><ele>2.0</ele><time>2026-04-26T13:37:08.904Z</time></trkpt><trkpt lat="44.8876098" lon="11.8122982"><ele>2.0</ele><time>2026-04-26T13:37:09.903Z</time></trkpt><trkpt lat="44.8875095" lon="11.8123894"><ele>2.0</ele><time>2026-04-26T13:37:10.904Z</time></trkpt><trkpt lat="44.887404" lon="11.8124865"><ele>2.0</ele><time>2026-04-26T13:37:11.903Z</time></trkpt><trkpt lat="44.8873079" lon="11.8125759"><ele>2.0</ele><time>2026-04-26T13:37:12.903Z</time></trkpt><trkpt lat="44.8872078" lon="11.8126715"><ele>2.0</ele><time>2026-04-26T13:37:13.903Z</time></trkpt><trkpt lat="44.8871042" lon="11.812769"><ele>2.0</ele><time>2026-04-26T13:37:14.903Z</time></trkpt><trkpt lat="44.8870007" lon="11.8128611"><ele>2.0</ele><time>2026-04-26T13:37:15.903Z</time></trkpt><trkpt lat="44.8868923" lon="11.8129637"><ele>2.0</ele><time>2026-04-26T13:37:16.903Z</time></trkpt><trkpt lat="44.8867802" lon="11.8130639"><ele>2.0</ele><time>2026-04-26T13:37:17.903Z</time></trkpt><trkpt lat="44.8866675" lon="11.8131697"><ele>1.6666666666666665</ele><time>2026-04-26T13:37:18.903Z</time></trkpt><trkpt lat="44.8865512" lon="11.8132811"><ele>1.3333333333333333</ele><time>2026-04-26T13:37:19.903Z</time></trkpt><trkpt lat="44.8864179" lon="11.8134075"><ele>1.0</ele><time>2026-04-26T13:37:20.904Z</time></trkpt><trkpt lat="44.8862752" lon="11.8135425"><ele>0.6666666666666666</ele><time>2026-04-26T13:37:21.903Z</time></trkpt><trkpt lat="44.8861216" lon="11.8136912"><ele>0.3333333333333333</ele><time>2026-04-26T13:37:22.904Z</time></trkpt><trkpt lat="44.8859572" lon="11.8138478"><ele>0.0</ele><time>2026-04-26T13:37:23.903Z</time></trkpt><trkpt lat="44.8857866" lon="11.8140096"><ele>0.0</ele><time>2026-04-26T13:37:24.903Z</time></trkpt><trkpt lat="44.8856173" lon="11.814174"><ele>0.0</ele><time>2026-04-26T13:37:25.904Z</time></trkpt><trkpt lat="44.8854498" lon="11.8143355"><ele>0.0</ele><time>2026-04-26T13:37:26.903Z</time></trkpt><trkpt lat="44.885283" lon="11.8144916"><ele>0.3333333333333333</ele><time>2026-04-26T13:37:27.904Z</time></trkpt><trkpt lat="44.8851156" lon="11.8146452"><ele>0.6666666666666666</ele><time>2026-04-26T13:37:28.904Z</time></trkpt><trkpt lat="44.8849499" lon="11.8148038"><ele>1.0</ele><time>2026-04-26T13:37:29.904Z</time></trkpt><trkpt lat="44.8847911" lon="11.8149636"><ele>1.0</ele><time>2026-04-26T13:37:30.903Z</time></trkpt><trkpt lat="44.8846473" lon="11.8151199"><ele>1.0</ele><time>2026-04-26T13:37:31.904Z</time></trkpt><trkpt lat="44.88452" lon="11.8152807"><ele>1.0</ele><time>2026-04-26T13:37:32.903Z</time></trkpt><trkpt lat="44.884414" lon="11.8154673"><ele>1.0</ele><time>2026-04-26T13:37:33.904Z</time></trkpt><trkpt lat="44.8843209" lon="11.8156664"><ele>1.0</ele><time>2026-04-26T13:37:34.904Z</time></trkpt><trkpt lat="44.8842464" lon="11.8158858"><ele>1.0</ele><time>2026-04-26T13:37:35.904Z</time></trkpt><trkpt lat="44.8841939" lon="11.8161133"><ele>1.3333333333333333</ele><time>2026-04-26T13:37:36.904Z</time></trkpt><trkpt lat="44.8841588" lon="11.8163539"><ele>1.6666666666666665</ele><time>2026-04-26T13:37:37.904Z</time></trkpt><trkpt lat="44.8841428" lon="11.8166126"><ele>2.0</ele><time>2026-04-26T13:37:38.903Z</time></trkpt><trkpt lat="44.8841438" lon="11.8168575"><ele>2.0</ele><time>2026-04-26T13:37:39.903Z</time></trkpt><trkpt lat="44.8841538" lon="11.8171106"><ele>2.0</ele><time>2026-04-26T13:37:40.903Z</time></trkpt><trkpt lat="44.8841678" lon="11.8173697"><ele>2.0</ele><time>2026-04-26T13:37:41.904Z</time></trkpt><trkpt lat="44.8841799" lon="11.8176292"><ele>2.6666666666666665</ele><time>2026-04-26T13:37:42.903Z</time></trkpt><trkpt lat="44.8841926" lon="11.8178954"><ele>3.333333333333333</ele><time>2026-04-26T13:37:43.904Z</time></trkpt><trkpt lat="44.8842068" lon="11.8181604"><ele>4.0</ele><time>2026-04-26T13:37:44.903Z</time></trkpt><trkpt lat="44.8842249" lon="11.81843"><ele>4.0</ele><time>2026-04-26T13:37:45.903Z</time></trkpt><trkpt lat="44.8842365" lon="11.8187013"><ele>4.0</ele><time>2026-04-26T13:37:46.904Z</time></trkpt><trkpt lat="44.8842458" lon="11.8189727"><ele>4.0</ele><time>2026-04-26T13:37:47.903Z</time></trkpt><trkpt lat="44.884257" lon="11.8192494"><ele>4.0</ele><time>2026-04-26T13:37:48.903Z</time></trkpt><trkpt lat="44.8842757" lon="11.819524"><ele>4.0</ele><time>2026-04-26T13:37:49.904Z</time></trkpt><trkpt lat="44.8842889" lon="11.8197931"><ele>4.0</ele><time>2026-04-26T13:37:50.903Z</time></trkpt><trkpt lat="44.884307" lon="11.8200664"><ele>3.6666666666666665</ele><time>2026-04-26T13:37:51.903Z</time></trkpt><trkpt lat="44.8843275" lon="11.8203349"><ele>3.333333333333333</ele><time>2026-04-26T13:37:52.903Z</time></trkpt><trkpt lat="44.8843423" lon="11.8205961"><ele>3.0</ele><time>2026-04-26T13:37:53.903Z</time></trkpt><trkpt lat="44.8843581" lon="11.8208526"><ele>3.0</ele><time>2026-04-26T13:37:54.903Z</time></trkpt><trkpt lat="44.884374" lon="11.8211102"><ele>3.0</ele><time>2026-04-26T13:37:55.903Z</time></trkpt><trkpt lat="44.8843899" lon="11.8213567"><ele>3.0</ele><time>2026-04-26T13:37:56.903Z</time></trkpt><trkpt lat="44.8844004" lon="11.8216057"><ele>3.333333333333333</ele><time>2026-04-26T13:37:57.904Z</time></trkpt><trkpt lat="44.884412" lon="11.8218513"><ele>3.6666666666666665</ele><time>2026-04-26T13:37:58.904Z</time></trkpt><trkpt lat="44.8844239" lon="11.8221174"><ele>4.0</ele><time>2026-04-26T13:37:59.903Z</time></trkpt><trkpt lat="44.8844346" lon="11.8223927"><ele>4.0</ele><time>2026-04-26T13:38:00.904Z</time></trkpt><trkpt lat="44.8844476" lon="11.8226737"><ele>4.0</ele><time>2026-04-26T13:38:01.903Z</time></trkpt><trkpt lat="44.8844604" lon="11.8229633"><ele>4.0</ele><time>2026-04-26T13:38:02.903Z</time></trkpt><trkpt lat="44.8844741" lon="11.8232486"><ele>3.333333333333333</ele><time>2026-04-26T13:38:03.903Z</time></trkpt><trkpt lat="44.8844895" lon="11.8235378"><ele>2.6666666666666665</ele><time>2026-04-26T13:38:04.903Z</time></trkpt><trkpt lat="44.8845054" lon="11.823826"><ele>2.0</ele><time>2026-04-26T13:38:05.903Z</time></trkpt><trkpt lat="44.8845179" lon="11.8241118"><ele>2.6666666666666665</ele><time>2026-04-26T13:38:06.904Z</time></trkpt><trkpt lat="44.8845318" lon="11.8243913"><ele>3.333333333333333</ele><time>2026-04-26T13:38:07.903Z</time></trkpt><trkpt lat="44.8845427" lon="11.8246741"><ele>4.0</ele><time>2026-04-26T13:38:08.904Z</time></trkpt><trkpt lat="44.8845577" lon="11.8249563"><ele>3.6666666666666665</ele><time>2026-04-26T13:38:09.903Z</time></trkpt><trkpt lat="44.8845745" lon="11.8252355"><ele>3.333333333333333</ele><time>2026-04-26T13:38:10.903Z</time></trkpt><trkpt lat="44.8845872" lon="11.8255112"><ele>3.0</ele><time>2026-04-26T13:38:11.903Z</time></trkpt><trkpt lat="44.8846003" lon="11.8257839"><ele>2.6666666666666665</ele><time>2026-04-26T13:38:12.904Z</time></trkpt><trkpt lat="44.8846096" lon="11.8260544"><ele>2.333333333333333</ele><time>2026-04-26T13:38:13.904Z</time></trkpt><trkpt lat="44.8846183" lon="11.8263302"><ele>2.0</ele><time>2026-04-26T13:38:14.903Z</time></trkpt><trkpt lat="44.8846307" lon="11.8266017"><ele>1.3333333333333333</ele><time>2026-04-26T13:38:15.904Z</time></trkpt><trkpt lat="44.884645" lon="11.8268709"><ele>0.6666666666666666</ele><time>2026-04-26T13:38:16.904Z</time></trkpt><trkpt lat="44.8846601" lon="11.8271345"><ele>0.0</ele><time>2026-04-26T13:38:17.903Z</time></trkpt><trkpt lat="44.8846799" lon="11.8274015"><ele>0.3333333333333333</ele><time>2026-04-26T13:38:18.903Z</time></trkpt><trkpt lat="44.8847071" lon="11.8276616"><ele>0.6666666666666666</ele><time>2026-04-26T13:38:19.904Z</time></trkpt><trkpt lat="44.8847411" lon="11.8279145"><ele>1.0</ele><time>2026-04-26T13:38:20.904Z</time></trkpt><trkpt lat="44.8847823" lon="11.8281615"><ele>1.0</ele><time>2026-04-26T13:38:21.904Z</time></trkpt><trkpt lat="44.8848319" lon="11.8284065"><ele>1.0</ele><time>2026-04-26T13:38:22.903Z</time></trkpt><trkpt lat="44.8848841" lon="11.8286486"><ele>1.0</ele><time>2026-04-26T13:38:23.904Z</time></trkpt><trkpt lat="44.8849372" lon="11.8288771"><ele>1.0</ele><time>2026-04-26T13:38:24.903Z</time></trkpt><trkpt lat="44.8849949" lon="11.8290933"><ele>1.0</ele><time>2026-04-26T13:38:25.904Z</time></trkpt><trkpt lat="44.8850557" lon="11.8292999"><ele>1.0</ele><time>2026-04-26T13:38:26.903Z</time></trkpt><trkpt lat="44.8851152" lon="11.8295067"><ele>1.3333333333333333</ele><time>2026-04-26T13:38:27.903Z</time></trkpt><trkpt lat="44.8851752" lon="11.8297204"><ele>1.6666666666666665</ele><time>2026-04-26T13:38:28.903Z</time></trkpt><trkpt lat="44.8852386" lon="11.8299463"><ele>2.0</ele><time>2026-04-26T13:38:29.903Z</time></trkpt><trkpt lat="44.8853054" lon="11.8301746"><ele>2.0</ele><time>2026-04-26T13:38:30.904Z</time></trkpt><trkpt lat="44.8853754" lon="11.8304095"><ele>2.0</ele><time>2026-04-26T13:38:31.904Z</time></trkpt><trkpt lat="44.885445" lon="11.8306513"><ele>2.0</ele><time>2026-04-26T13:38:32.903Z</time></trkpt><trkpt lat="44.8855196" lon="11.8309068"><ele>2.0</ele><time>2026-04-26T13:38:33.903Z</time></trkpt><trkpt lat="44.8856017" lon="11.8311749"><ele>2.0</ele><time>2026-04-26T13:38:34.904Z</time></trkpt><trkpt lat="44.8856863" lon="11.8314559"><ele>2.0</ele><time>2026-04-26T13:38:35.903Z</time></trkpt><trkpt lat="44.8857706" lon="11.8317491"><ele>1.5</ele><time>2026-04-26T13:38:36.903Z</time></trkpt><trkpt lat="44.8858596" lon="11.832046"><ele>1.0</ele><time>2026-04-26T13:38:37.903Z</time></trkpt><trkpt lat="44.8859477" lon="11.8323502"><ele>0.5</ele><time>2026-04-26T13:38:38.904Z</time></trkpt><trkpt lat="44.886036" lon="11.8326518"><ele>0.0</ele><time>2026-04-26T13:38:39.903Z</time></trkpt><trkpt lat="44.8861232" lon="11.8329578"><ele>0.0</ele><time>2026-04-26T13:38:40.904Z</time></trkpt><trkpt lat="44.8862086" lon="11.8332589"><ele>0.0</ele><time>2026-04-26T13:38:41.904Z</time></trkpt><trkpt lat="44.8862984" lon="11.8335592"><ele>0.5</ele><time>2026-04-26T13:38:42.904Z</time></trkpt><trkpt lat="44.8863882" lon="11.8338556"><ele>1.0</ele><time>2026-04-26T13:38:43.903Z</time></trkpt><trkpt lat="44.8864765" lon="11.8341531"><ele>1.0</ele><time>2026-04-26T13:38:44.904Z</time></trkpt><trkpt lat="44.8865589" lon="11.8344457"><ele>1.0</ele><time>2026-04-26T13:38:45.903Z</time></trkpt><trkpt lat="44.8866454" lon="11.8347406"><ele>1.0</ele><time>2026-04-26T13:38:46.903Z</time></trkpt><trkpt lat="44.8867278" lon="11.835025"><ele>1.0</ele><time>2026-04-26T13:38:47.903Z</time></trkpt><trkpt lat="44.8868057" lon="11.8352993"><ele>1.0</ele><time>2026-04-26T13:38:48.903Z</time></trkpt><trkpt lat="44.8868805" lon="11.83556"><ele>1.0</ele><time>2026-04-26T13:38:49.904Z</time></trkpt><trkpt lat="44.8869518" lon="11.8357956"><ele>1.0</ele><time>2026-04-26T13:38:50.903Z</time></trkpt><trkpt lat="44.8870173" lon="11.8360143"><ele>1.0</ele><time>2026-04-26T13:38:51.903Z</time></trkpt><trkpt lat="44.8870766" lon="11.8362106"><ele>1.0</ele><time>2026-04-26T13:38:52.903Z</time></trkpt><trkpt lat="44.8871264" lon="11.8363775"><ele>1.0</ele><time>2026-04-26T13:38:53.904Z</time></trkpt><trkpt lat="44.887152" lon="11.8365208"><ele>0.9999999999999999</ele><time>2026-04-26T13:38:54.904Z</time></trkpt><trkpt lat="44.8871547" lon="11.8366541"><ele>1.0</ele><time>2026-04-26T13:38:55.903Z</time></trkpt><trkpt lat="44.88714" lon="11.8367736"><ele>1.0</ele><time>2026-04-26T13:38:56.903Z</time></trkpt><trkpt lat="44.8871055" lon="11.8368801"><ele>1.0</ele><time>2026-04-26T13:38:57.904Z</time></trkpt><trkpt lat="44.8870554" lon="11.8369824"><ele>0.9999999999999999</ele><time>2026-04-26T13:38:58.904Z</time></trkpt><trkpt lat="44.8869801" lon="11.8370688"><ele>1.0</ele><time>2026-04-26T13:38:59.904Z</time></trkpt><trkpt lat="44.8868872" lon="11.837123"><ele>0.75</ele><time>2026-04-26T13:39:00.903Z</time></trkpt><trkpt lat="44.8867783" lon="11.8371578"><ele>0.5</ele><time>2026-04-26T13:39:01.904Z</time></trkpt><trkpt lat="44.8866545" lon="11.8371833"><ele>0.25</ele><time>2026-04-26T13:39:02.903Z</time></trkpt><trkpt lat="44.8865182" lon="11.8372157"><ele>0.0</ele><time>2026-04-26T13:39:03.903Z</time></trkpt><trkpt lat="44.8863776" lon="11.8372509"><ele>0.0</ele><time>2026-04-26T13:39:04.903Z</time></trkpt><trkpt lat="44.8862266" lon="11.8372848"><ele>0.0</ele><time>2026-04-26T13:39:05.903Z</time></trkpt><trkpt lat="44.8860664" lon="11.8373208"><ele>0.0</ele><time>2026-04-26T13:39:06.903Z</time></trkpt><trkpt lat="44.8859009" lon="11.8373564"><ele>0.0</ele><time>2026-04-26T13:39:07.903Z</time></trkpt><trkpt lat="44.8857303" lon="11.8373907"><ele>0.0</ele><time>2026-04-26T13:39:08.904Z</time></trkpt><trkpt lat="44.8855559" lon="11.8374288"><ele>0.0</ele><time>2026-04-26T13:39:09.903Z</time></trkpt><trkpt lat="44.8853734" lon="11.8374677"><ele>0.0</ele><time>2026-04-26T13:39:10.903Z</time></trkpt><trkpt lat="44.8851889" lon="11.8375123"><ele>0.0</ele><time>2026-04-26T13:39:11.904Z</time></trkpt><trkpt lat="44.8850037" lon="11.8375544"><ele>0.0</ele><time>2026-04-26T13:39:12.904Z</time></trkpt><trkpt lat="44.8848195" lon="11.837598"><ele>0.6666666666666666</ele><time>2026-04-26T13:39:13.903Z</time></trkpt><trkpt lat="44.8846378" lon="11.8376416"><ele>1.3333333333333333</ele><time>2026-04-26T13:39:14.904Z</time></trkpt><trkpt lat="44.8844579" lon="11.837677"><ele>2.0</ele><time>2026-04-26T13:39:15.903Z</time></trkpt><trkpt lat="44.8842791" lon="11.8377188"><ele>2.0</ele><time>2026-04-26T13:39:16.904Z</time></trkpt><trkpt lat="44.8841032" lon="11.8377571"><ele>2.0</ele><time>2026-04-26T13:39:17.904Z</time></trkpt><trkpt lat="44.8839256" lon="11.8378005"><ele>2.0</ele><time>2026-04-26T13:39:18.904Z</time></trkpt><trkpt lat="44.8837497" lon="11.837848"><ele>2.0</ele><time>2026-04-26T13:39:19.904Z</time></trkpt><trkpt lat="44.8835751" lon="11.837892"><ele>2.0</ele><time>2026-04-26T13:39:20.904Z</time></trkpt><trkpt lat="44.8834013" lon="11.837945"><ele>2.0</ele><time>2026-04-26T13:39:21.904Z</time></trkpt><trkpt lat="44.8832254" lon="11.838006"><ele>2.0</ele><time>2026-04-26T13:39:22.903Z</time></trkpt><trkpt lat="44.8830504" lon="11.8380911"><ele>2.0</ele><time>2026-04-26T13:39:23.903Z</time></trkpt><trkpt lat="44.8828755" lon="11.8381893"><ele>2.0</ele><time>2026-04-26T13:39:24.904Z</time></trkpt><trkpt lat="44.8826926" lon="11.8382827"><ele>1.6666666666666665</ele><time>2026-04-26T13:39:25.904Z</time></trkpt><trkpt lat="44.8825081" lon="11.8383809"><ele>1.3333333333333333</ele><time>2026-04-26T13:39:26.903Z</time></trkpt><trkpt lat="44.8823203" lon="11.8384718"><ele>1.0</ele><time>2026-04-26T13:39:27.904Z</time></trkpt><trkpt lat="44.8821297" lon="11.8385659"><ele>1.0</ele><time>2026-04-26T13:39:28.904Z</time></trkpt><trkpt lat="44.881936" lon="11.8386687"><ele>1.0</ele><time>2026-04-26T13:39:29.903Z</time></trkpt><trkpt lat="44.8817409" lon="11.8387651"><ele>1.0</ele><time>2026-04-26T13:39:30.903Z</time></trkpt><trkpt lat="44.8815432" lon="11.8388632"><ele>1.3333333333333333</ele><time>2026-04-26T13:39:31.904Z</time></trkpt><trkpt lat="44.8813412" lon="11.8389644"><ele>1.6666666666666665</ele><time>2026-04-26T13:39:32.903Z</time></trkpt><trkpt lat="44.8811422" lon="11.8390653"><ele>2.0</ele><time>2026-04-26T13:39:33.904Z</time></trkpt><trkpt lat="44.8809371" lon="11.8391651"><ele>1.6666666666666665</ele><time>2026-04-26T13:39:34.904Z</time></trkpt><trkpt lat="44.8807364" lon="11.8392668"><ele>1.3333333333333333</ele><time>2026-04-26T13:39:35.903Z</time></trkpt><trkpt lat="44.8805322" lon="11.8393651"><ele>1.0</ele><time>2026-04-26T13:39:36.903Z</time></trkpt><trkpt lat="44.8803314" lon="11.8394699"><ele>1.0</ele><time>2026-04-26T13:39:37.903Z</time></trkpt><trkpt lat="44.8801316" lon="11.8395706"><ele>1.0</ele><time>2026-04-26T13:39:38.903Z</time></trkpt><trkpt lat="44.8799414" lon="11.8396642"><ele>1.0</ele><time>2026-04-26T13:39:39.903Z</time></trkpt><trkpt lat="44.8797467" lon="11.839751"><ele>0.6666666666666666</ele><time>2026-04-26T13:39:40.904Z</time></trkpt><trkpt lat="44.8795525" lon="11.8398252"><ele>0.3333333333333333</ele><time>2026-04-26T13:39:41.903Z</time></trkpt><trkpt lat="44.8793606" lon="11.8398922"><ele>0.0</ele><time>2026-04-26T13:39:42.903Z</time></trkpt><trkpt lat="44.8791724" lon="11.8399549"><ele>-0.3333333333333333</ele><time>2026-04-26T13:39:43.903Z</time></trkpt><trkpt lat="44.8789854" lon="11.8400079"><ele>-0.6666666666666666</ele><time>2026-04-26T13:39:44.904Z</time></trkpt><trkpt lat="44.878799" lon="11.8400341"><ele>-1.0</ele><time>2026-04-26T13:39:45.904Z</time></trkpt><trkpt lat="44.87861" lon="11.8400315"><ele>-0.3333333333333333</ele><time>2026-04-26T13:39:46.904Z</time></trkpt><trkpt lat="44.8784248" lon="11.8399995"><ele>0.3333333333333333</ele><time>2026-04-26T13:39:47.903Z</time></trkpt><trkpt lat="44.8782418" lon="11.8399415"><ele>1.0</ele><time>2026-04-26T13:39:48.903Z</time></trkpt><trkpt lat="44.8780654" lon="11.8398639"><ele>1.0</ele><time>2026-04-26T13:39:49.903Z</time></trkpt><trkpt lat="44.8778941" lon="11.8397625"><ele>1.0</ele><time>2026-04-26T13:39:50.903Z</time></trkpt><trkpt lat="44.8777249" lon="11.8396562"><ele>1.0</ele><time>2026-04-26T13:39:51.903Z</time></trkpt><trkpt lat="44.8775576" lon="11.8395556"><ele>1.3333333333333333</ele><time>2026-04-26T13:39:52.903Z</time></trkpt><trkpt lat="44.8773913" lon="11.8394563"><ele>1.6666666666666665</ele><time>2026-04-26T13:39:53.903Z</time></trkpt><trkpt lat="44.8772214" lon="11.839368"><ele>2.0</ele><time>2026-04-26T13:39:54.903Z</time></trkpt><trkpt lat="44.8770464" lon="11.8392949"><ele>2.0</ele><time>2026-04-26T13:39:55.903Z</time></trkpt><trkpt lat="44.8768666" lon="11.8392287"><ele>2.0</ele><time>2026-04-26T13:39:56.904Z</time></trkpt><trkpt lat="44.8766841" lon="11.8391696"><ele>2.0</ele><time>2026-04-26T13:39:57.903Z</time></trkpt><trkpt lat="44.8765006" lon="11.8391027"><ele>2.0</ele><time>2026-04-26T13:39:58.903Z</time></trkpt><trkpt lat="44.8763239" lon="11.8390334"><ele>2.0</ele><time>2026-04-26T13:39:59.904Z</time></trkpt><trkpt lat="44.8761605" lon="11.8389616"><ele>2.0</ele><time>2026-04-26T13:40:00.904Z</time></trkpt><trkpt lat="44.876007" lon="11.8388861"><ele>1.3333333333333333</ele><time>2026-04-26T13:40:01.903Z</time></trkpt><trkpt lat="44.8758625" lon="11.8387992"><ele>0.6666666666666666</ele><time>2026-04-26T13:40:02.903Z</time></trkpt><trkpt lat="44.8757291" lon="11.8387024"><ele>0.0</ele><time>2026-04-26T13:40:03.904Z</time></trkpt><trkpt lat="44.8756006" lon="11.8385938"><ele>0.3333333333333333</ele><time>2026-04-26T13:40:04.904Z</time></trkpt><trkpt lat="44.8754837" lon="11.8384621"><ele>0.6666666666666666</ele><time>2026-04-26T13:40:05.904Z</time></trkpt><trkpt lat="44.8753783" lon="11.8382989"><ele>1.0</ele><time>2026-04-26T13:40:06.903Z</time></trkpt><trkpt lat="44.8752874" lon="11.838126"><ele>1.0</ele><time>2026-04-26T13:40:07.904Z</time></trkpt><trkpt lat="44.8751819" lon="11.8379551"><ele>1.0</ele><time>2026-04-26T13:40:08.903Z</time></trkpt><trkpt lat="44.8750638" lon="11.8377927"><ele>1.0</ele><time>2026-04-26T13:40:09.904Z</time></trkpt><trkpt lat="44.8749355" lon="11.8376437"><ele>1.6666666666666665</ele><time>2026-04-26T13:40:10.903Z</time></trkpt><trkpt lat="44.8747974" lon="11.8374993"><ele>2.3333333333333335</ele><time>2026-04-26T13:40:11.903Z</time></trkpt><trkpt lat="44.8746593" lon="11.8373533"><ele>3.0</ele><time>2026-04-26T13:40:12.903Z</time></trkpt><trkpt lat="44.8745271" lon="11.8372122"><ele>3.0</ele><time>2026-04-26T13:40:13.903Z</time></trkpt><trkpt lat="44.8743886" lon="11.83707"><ele>3.0</ele><time>2026-04-26T13:40:14.903Z</time></trkpt><trkpt lat="44.8742549" lon="11.8369266"><ele>3.0</ele><time>2026-04-26T13:40:15.903Z</time></trkpt><trkpt lat="44.8741175" lon="11.8367818"><ele>2.3333333333333335</ele><time>2026-04-26T13:40:16.904Z</time></trkpt><trkpt lat="44.8739778" lon="11.8366286"><ele>1.6666666666666665</ele><time>2026-04-26T13:40:17.903Z</time></trkpt><trkpt lat="44.873841" lon="11.8364862"><ele>1.0</ele><time>2026-04-26T13:40:18.904Z</time></trkpt><trkpt lat="44.873702" lon="11.8363431"><ele>1.0</ele><time>2026-04-26T13:40:19.903Z</time></trkpt><trkpt lat="44.8735634" lon="11.8361961"><ele>1.0</ele><time>2026-04-26T13:40:20.903Z</time></trkpt><trkpt lat="44.8734235" lon="11.8360517"><ele>1.0</ele><time>2026-04-26T13:40:21.904Z</time></trkpt><trkpt lat="44.8732855" lon="11.8359044"><ele>0.6666666666666666</ele><time>2026-04-26T13:40:22.904Z</time></trkpt><trkpt lat="44.8731438" lon="11.8357545"><ele>0.3333333333333333</ele><time>2026-04-26T13:40:23.904Z</time></trkpt><trkpt lat="44.8730022" lon="11.8356077"><ele>0.0</ele><time>2026-04-26T13:40:24.903Z</time></trkpt><trkpt lat="44.8728591" lon="11.8354569"><ele>0.0</ele><time>2026-04-26T13:40:25.904Z</time></trkpt><trkpt lat="44.872712" lon="11.8353074"><ele>0.0</ele><time>2026-04-26T13:40:26.904Z</time></trkpt><trkpt lat="44.8725708" lon="11.8351558"><ele>0.0</ele><time>2026-04-26T13:40:27.904Z</time></trkpt><trkpt lat="44.8724237" lon="11.835006"><ele>0.0</ele><time>2026-04-26T13:40:28.904Z</time></trkpt><trkpt lat="44.8722791" lon="11.8348574"><ele>0.0</ele><time>2026-04-26T13:40:29.903Z</time></trkpt><trkpt lat="44.8721378" lon="11.8347115"><ele>0.0</ele><time>2026-04-26T13:40:30.904Z</time></trkpt><trkpt lat="44.8719986" lon="11.8345814"><ele>0.0</ele><time>2026-04-26T13:40:31.903Z</time></trkpt><trkpt lat="44.8718605" lon="11.8344596"><ele>0.0</ele><time>2026-04-26T13:40:32.904Z</time></trkpt><trkpt lat="44.8717218" lon="11.8343547"><ele>0.0</ele><time>2026-04-26T13:40:33.903Z</time></trkpt><trkpt lat="44.8715736" lon="11.8342771"><ele>0.6666666666666666</ele><time>2026-04-26T13:40:34.903Z</time></trkpt><trkpt lat="44.8714279" lon="11.8342046"><ele>1.3333333333333333</ele><time>2026-04-26T13:40:35.903Z</time></trkpt><trkpt lat="44.8712833" lon="11.8341388"><ele>2.0</ele><time>2026-04-26T13:40:36.903Z</time></trkpt><trkpt lat="44.8711429" lon="11.8340567"><ele>2.0</ele><time>2026-04-26T13:40:37.904Z</time></trkpt><trkpt lat="44.8710059" lon="11.8339623"><ele>2.0</ele><time>2026-04-26T13:40:38.904Z</time></trkpt><trkpt lat="44.8708751" lon="11.8338607"><ele>2.0</ele><time>2026-04-26T13:40:39.903Z</time></trkpt><trkpt lat="44.8707493" lon="11.8337494"><ele>2.0</ele><time>2026-04-26T13:40:40.903Z</time></trkpt><trkpt lat="44.8706276" lon="11.8336265"><ele>2.0</ele><time>2026-04-26T13:40:41.903Z</time></trkpt><trkpt lat="44.8705052" lon="11.8335095"><ele>2.0</ele><time>2026-04-26T13:40:42.903Z</time></trkpt><trkpt lat="44.8703805" lon="11.8333999"><ele>2.0</ele><time>2026-04-26T13:40:43.903Z</time></trkpt><trkpt lat="44.8702523" lon="11.8332916"><ele>2.0</ele><time>2026-04-26T13:40:44.904Z</time></trkpt><trkpt lat="44.8701236" lon="11.8331809"><ele>2.0</ele><time>2026-04-26T13:40:45.903Z</time></trkpt><trkpt lat="44.8699895" lon="11.8330692"><ele>2.0</ele><time>2026-04-26T13:40:46.904Z</time></trkpt><trkpt lat="44.8698574" lon="11.8329545"><ele>2.333333333333333</ele><time>2026-04-26T13:40:47.903Z</time></trkpt><trkpt lat="44.8697244" lon="11.8328409"><ele>2.6666666666666665</ele><time>2026-04-26T13:40:48.903Z</time></trkpt><trkpt lat="44.8695901" lon="11.8327304"><ele>3.0</ele><time>2026-04-26T13:40:49.903Z</time></trkpt><trkpt lat="44.8694534" lon="11.8326193"><ele>3.0</ele><time>2026-04-26T13:40:50.903Z</time></trkpt><trkpt lat="44.8693134" lon="11.8325187"><ele>3.0</ele><time>2026-04-26T13:40:51.903Z</time></trkpt><trkpt lat="44.8691785" lon="11.8323998"><ele>3.0</ele><time>2026-04-26T13:40:52.904Z</time></trkpt><trkpt lat="44.8690454" lon="11.8322719"><ele>2.6666666666666665</ele><time>2026-04-26T13:40:53.904Z</time></trkpt><trkpt lat="44.8689147" lon="11.8321357"><ele>2.333333333333333</ele><time>2026-04-26T13:40:54.903Z</time></trkpt><trkpt lat="44.8687901" lon="11.8319939"><ele>2.0</ele><time>2026-04-26T13:40:55.904Z</time></trkpt><trkpt lat="44.8686698" lon="11.8318466"><ele>2.0</ele><time>2026-04-26T13:40:56.903Z</time></trkpt><trkpt lat="44.8685516" lon="11.8317053"><ele>2.0</ele><time>2026-04-26T13:40:57.903Z</time></trkpt><trkpt lat="44.8684355" lon="11.8315641"><ele>2.0</ele><time>2026-04-26T13:40:58.903Z</time></trkpt><trkpt lat="44.8683181" lon="11.83143"><ele>2.0</ele><time>2026-04-26T13:40:59.903Z</time></trkpt><trkpt lat="44.868197" lon="11.8312875"><ele>2.0</ele><time>2026-04-26T13:41:00.903Z</time></trkpt><trkpt lat="44.8680814" lon="11.8311467"><ele>2.0</ele><time>2026-04-26T13:41:01.903Z</time></trkpt><trkpt lat="44.8679664" lon="11.8310103"><ele>2.0</ele><time>2026-04-26T13:41:02.903Z</time></trkpt><trkpt lat="44.8678536" lon="11.8308798"><ele>2.0</ele><time>2026-04-26T13:41:03.903Z</time></trkpt><trkpt lat="44.8677242" lon="11.8307624"><ele>2.0</ele><time>2026-04-26T13:41:04.904Z</time></trkpt><trkpt lat="44.8675858" lon="11.8306614"><ele>2.0</ele><time>2026-04-26T13:41:05.903Z</time></trkpt><trkpt lat="44.8674475" lon="11.8305846"><ele>2.0</ele><time>2026-04-26T13:41:06.903Z</time></trkpt><trkpt lat="44.8672988" lon="11.8305331"><ele>2.0</ele><time>2026-04-26T13:41:07.903Z</time></trkpt><trkpt lat="44.8671476" lon="11.8305137"><ele>2.0</ele><time>2026-04-26T13:41:08.903Z</time></trkpt><trkpt lat="44.8669934" lon="11.8305275"><ele>2.0</ele><time>2026-04-26T13:41:09.903Z</time></trkpt><trkpt lat="44.8668398" lon="11.8305631"><ele>2.0</ele><time>2026-04-26T13:41:10.903Z</time></trkpt><trkpt lat="44.8666881" lon="11.8306158"><ele>1.6666666666666665</ele><time>2026-04-26T13:41:11.903Z</time></trkpt><trkpt lat="44.8665311" lon="11.8306756"><ele>1.3333333333333333</ele><time>2026-04-26T13:41:12.903Z</time></trkpt><trkpt lat="44.8663711" lon="11.8307407"><ele>1.0</ele><time>2026-04-26T13:41:13.903Z</time></trkpt><trkpt lat="44.8662126" lon="11.8308095"><ele>1.0</ele><time>2026-04-26T13:41:14.904Z</time></trkpt><trkpt lat="44.8660538" lon="11.8308868"><ele>1.0</ele><time>2026-04-26T13:41:15.904Z</time></trkpt><trkpt lat="44.8658922" lon="11.8309682"><ele>1.0</ele><time>2026-04-26T13:41:16.904Z</time></trkpt><trkpt lat="44.8657279" lon="11.8310558"><ele>0.6666666666666666</ele><time>2026-04-26T13:41:17.903Z</time></trkpt><trkpt lat="44.8655655" lon="11.8311411"><ele>0.3333333333333333</ele><time>2026-04-26T13:41:18.904Z</time></trkpt><trkpt lat="44.8653958" lon="11.8312051"><ele>0.0</ele><time>2026-04-26T13:41:19.903Z</time></trkpt><trkpt lat="44.8652205" lon="11.8312415"><ele>0.3333333333333333</ele><time>2026-04-26T13:41:20.904Z</time></trkpt><trkpt lat="44.8650449" lon="11.8312595"><ele>0.6666666666666666</ele><time>2026-04-26T13:41:21.903Z</time></trkpt><trkpt lat="44.8648777" lon="11.8312588"><ele>1.0</ele><time>2026-04-26T13:41:22.904Z</time></trkpt><trkpt lat="44.8647123" lon="11.8312535"><ele>1.0</ele><time>2026-04-26T13:41:23.904Z</time></trkpt><trkpt lat="44.864548" lon="11.8312353"><ele>1.0</ele><time>2026-04-26T13:41:24.904Z</time></trkpt><trkpt lat="44.8643831" lon="11.8312308"><ele>1.0</ele><time>2026-04-26T13:41:25.904Z</time></trkpt><trkpt lat="44.8642126" lon="11.8312372"><ele>1.0</ele><time>2026-04-26T13:41:26.904Z</time></trkpt><trkpt lat="44.8640402" lon="11.8312535"><ele>1.0</ele><time>2026-04-26T13:41:27.903Z</time></trkpt><trkpt lat="44.8638525" lon="11.8312637"><ele>1.0</ele><time>2026-04-26T13:41:28.904Z</time></trkpt><trkpt lat="44.8636486" lon="11.831266"><ele>0.6666666666666666</ele><time>2026-04-26T13:41:29.904Z</time></trkpt><trkpt lat="44.8634395" lon="11.8312677"><ele>0.3333333333333333</ele><time>2026-04-26T13:41:30.904Z</time></trkpt><trkpt lat="44.863205" lon="11.8312805"><ele>0.0</ele><time>2026-04-26T13:41:31.903Z</time></trkpt><trkpt lat="44.8629705" lon="11.8312926"><ele>0.0</ele><time>2026-04-26T13:41:32.903Z</time></trkpt><trkpt lat="44.8627434" lon="11.8313019"><ele>0.0</ele><time>2026-04-26T13:41:33.903Z</time></trkpt><trkpt lat="44.8625263" lon="11.8313109"><ele>0.0</ele><time>2026-04-26T13:41:34.903Z</time></trkpt><trkpt lat="44.8623219" lon="11.8313186"><ele>0.0</ele><time>2026-04-26T13:41:35.903Z</time></trkpt><trkpt lat="44.8621309" lon="11.8313318"><ele>0.0</ele><time>2026-04-26T13:41:36.903Z</time></trkpt><trkpt lat="44.8619269" lon="11.8313552"><ele>0.0</ele><time>2026-04-26T13:41:37.903Z</time></trkpt><trkpt lat="44.8617528" lon="11.831415"><ele>-0.3333333333333333</ele><time>2026-04-26T13:41:38.903Z</time></trkpt><trkpt lat="44.8615749" lon="11.8314807"><ele>-0.6666666666666666</ele><time>2026-04-26T13:41:39.904Z</time></trkpt><trkpt lat="44.8614056" lon="11.831609"><ele>-1.0</ele><time>2026-04-26T13:41:40.903Z</time></trkpt><trkpt lat="44.8612485" lon="11.8317486"><ele>-0.6666666666666666</ele><time>2026-04-26T13:41:41.903Z</time></trkpt><trkpt lat="44.8610963" lon="11.8319103"><ele>-0.3333333333333333</ele><time>2026-04-26T13:41:42.903Z</time></trkpt><trkpt lat="44.8609485" lon="11.8320943"><ele>0.0</ele><time>2026-04-26T13:41:43.903Z</time></trkpt><trkpt lat="44.8607997" lon="11.8322852"><ele>0.0</ele><time>2026-04-26T13:41:44.904Z</time></trkpt><trkpt lat="44.8606481" lon="11.8324844"><ele>0.0</ele><time>2026-04-26T13:41:45.903Z</time></trkpt><trkpt lat="44.8605006" lon="11.832695"><ele>0.0</ele><time>2026-04-26T13:41:46.903Z</time></trkpt><trkpt lat="44.8603455" lon="11.8329083"><ele>0.0</ele><time>2026-04-26T13:41:47.904Z</time></trkpt><trkpt lat="44.8601827" lon="11.8331274"><ele>0.0</ele><time>2026-04-26T13:41:48.904Z</time></trkpt><trkpt lat="44.8600002" lon="11.8333622"><ele>0.5</ele><time>2026-04-26T13:41:49.904Z</time></trkpt><trkpt lat="44.8598134" lon="11.8336011"><ele>1.0</ele><time>2026-04-26T13:41:50.903Z</time></trkpt><trkpt lat="44.8595943" lon="11.8338335"><ele>1.0</ele><time>2026-04-26T13:41:51.904Z</time></trkpt><trkpt lat="44.8593575" lon="11.8340486"><ele>1.0</ele><time>2026-04-26T13:41:52.904Z</time></trkpt><trkpt lat="44.8591138" lon="11.8342579"><ele>1.0</ele><time>2026-04-26T13:41:53.903Z</time></trkpt><trkpt lat="44.8588838" lon="11.8344509"><ele>1.0</ele><time>2026-04-26T13:41:54.904Z</time></trkpt><trkpt lat="44.8586675" lon="11.8346334"><ele>1.0</ele><time>2026-04-26T13:41:55.904Z</time></trkpt><trkpt lat="44.8584607" lon="11.8348062"><ele>1.0</ele><time>2026-04-26T13:41:56.903Z</time></trkpt><trkpt lat="44.8582597" lon="11.8349526"><ele>1.0</ele><time>2026-04-26T13:41:57.903Z</time></trkpt><trkpt lat="44.8580565" lon="11.8350613"><ele>1.0</ele><time>2026-04-26T13:41:58.903Z</time></trkpt><trkpt lat="44.8578399" lon="11.8351457"><ele>1.0</ele><time>2026-04-26T13:41:59.903Z</time></trkpt><trkpt lat="44.8576314" lon="11.8351977"><ele>1.6666666666666665</ele><time>2026-04-26T13:42:00.904Z</time></trkpt><trkpt lat="44.8574177" lon="11.8352288"><ele>2.3333333333333335</ele><time>2026-04-26T13:42:01.903Z</time></trkpt><trkpt lat="44.8572039" lon="11.8352448"><ele>3.0</ele><time>2026-04-26T13:42:02.903Z</time></trkpt><trkpt lat="44.8569884" lon="11.8352357"><ele>2.3333333333333335</ele><time>2026-04-26T13:42:03.903Z</time></trkpt><trkpt lat="44.8567678" lon="11.835198"><ele>1.6666666666666665</ele><time>2026-04-26T13:42:04.903Z</time></trkpt><trkpt lat="44.8565514" lon="11.8351311"><ele>1.0</ele><time>2026-04-26T13:42:05.903Z</time></trkpt><trkpt lat="44.8563288" lon="11.8350261"><ele>0.5</ele><time>2026-04-26T13:42:06.903Z</time></trkpt><trkpt lat="44.8561066" lon="11.8348936"><ele>0.0</ele><time>2026-04-26T13:42:07.903Z</time></trkpt><trkpt lat="44.8558822" lon="11.8347235"><ele>0.0</ele><time>2026-04-26T13:42:08.904Z</time></trkpt><trkpt lat="44.8556524" lon="11.8345351"><ele>0.0</ele><time>2026-04-26T13:42:09.903Z</time></trkpt><trkpt lat="44.8554251" lon="11.8343527"><ele>0.5</ele><time>2026-04-26T13:42:10.904Z</time></trkpt><trkpt lat="44.8552119" lon="11.8341768"><ele>1.0</ele><time>2026-04-26T13:42:11.904Z</time></trkpt><trkpt lat="44.8550095" lon="11.8340151"><ele>1.0</ele><time>2026-04-26T13:42:12.903Z</time></trkpt><trkpt lat="44.8548152" lon="11.8338583"><ele>1.0</ele><time>2026-04-26T13:42:13.904Z</time></trkpt><trkpt lat="44.8546241" lon="11.8337024"><ele>1.0</ele><time>2026-04-26T13:42:14.903Z</time></trkpt><trkpt lat="44.8544374" lon="11.8335476"><ele>1.3333333333333333</ele><time>2026-04-26T13:42:15.904Z</time></trkpt><trkpt lat="44.8542494" lon="11.8333888"><ele>1.6666666666666665</ele><time>2026-04-26T13:42:16.903Z</time></trkpt><trkpt lat="44.8540642" lon="11.8332411"><ele>2.0</ele><time>2026-04-26T13:42:17.903Z</time></trkpt><trkpt lat="44.8538756" lon="11.8330897"><ele>2.0</ele><time>2026-04-26T13:42:18.903Z</time></trkpt><trkpt lat="44.8536931" lon="11.8329394"><ele>2.0</ele><time>2026-04-26T13:42:19.903Z</time></trkpt><trkpt lat="44.853512" lon="11.8327896"><ele>2.0</ele><time>2026-04-26T13:42:20.903Z</time></trkpt><trkpt lat="44.8533272" lon="11.8326377"><ele>1.6666666666666665</ele><time>2026-04-26T13:42:21.903Z</time></trkpt><trkpt lat="44.8531416" lon="11.8324847"><ele>1.3333333333333333</ele><time>2026-04-26T13:42:22.903Z</time></trkpt><trkpt lat="44.852956" lon="11.8323311"><ele>1.0</ele><time>2026-04-26T13:42:23.904Z</time></trkpt><trkpt lat="44.8527699" lon="11.832177"><ele>1.0</ele><time>2026-04-26T13:42:24.903Z</time></trkpt><trkpt lat="44.8525809" lon="11.8320234"><ele>1.0</ele><time>2026-04-26T13:42:25.903Z</time></trkpt><trkpt lat="44.8523966" lon="11.8318745"><ele>1.0</ele><time>2026-04-26T13:42:26.903Z</time></trkpt><trkpt lat="44.8522109" lon="11.8317257"><ele>1.0</ele><time>2026-04-26T13:42:27.904Z</time></trkpt><trkpt lat="44.8520273" lon="11.8315778"><ele>1.0</ele><time>2026-04-26T13:42:28.904Z</time></trkpt><trkpt lat="44.8518427" lon="11.8314274"><ele>1.0</ele><time>2026-04-26T13:42:29.904Z</time></trkpt><trkpt lat="44.8516669" lon="11.8312784"><ele>1.0</ele><time>2026-04-26T13:42:30.904Z</time></trkpt><trkpt lat="44.8514947" lon="11.8311412"><ele>1.0</ele><time>2026-04-26T13:42:31.904Z</time></trkpt><trkpt lat="44.8513196" lon="11.8310116"><ele>1.0</ele><time>2026-04-26T13:42:32.903Z</time></trkpt><trkpt lat="44.8511338" lon="11.8309047"><ele>1.0</ele><time>2026-04-26T13:42:33.903Z</time></trkpt><trkpt lat="44.8509451" lon="11.8308216"><ele>1.0</ele><time>2026-04-26T13:42:34.903Z</time></trkpt><trkpt lat="44.8507493" lon="11.8307603"><ele>1.0</ele><time>2026-04-26T13:42:35.903Z</time></trkpt><trkpt lat="44.8505428" lon="11.8307386"><ele>1.0</ele><time>2026-04-26T13:42:36.903Z</time></trkpt><trkpt lat="44.8503374" lon="11.830742"><ele>1.0</ele><time>2026-04-26T13:42:37.903Z</time></trkpt><trkpt lat="44.8501341" lon="11.8307762"><ele>1.0</ele><time>2026-04-26T13:42:38.903Z</time></trkpt><trkpt lat="44.8499306" lon="11.8308349"><ele>1.0</ele><time>2026-04-26T13:42:39.903Z</time></trkpt><trkpt lat="44.8497296" lon="11.8308985"><ele>1.0</ele><time>2026-04-26T13:42:40.904Z</time></trkpt><trkpt lat="44.849529" lon="11.8309909"><ele>1.0</ele><time>2026-04-26T13:42:41.904Z</time></trkpt><trkpt lat="44.8493213" lon="11.8310816"><ele>1.0</ele><time>2026-04-26T13:42:42.903Z</time></trkpt><trkpt lat="44.849116" lon="11.83117"><ele>1.0</ele><time>2026-04-26T13:42:43.904Z</time></trkpt><trkpt lat="44.8489039" lon="11.8312584"><ele>1.0</ele><time>2026-04-26T13:42:44.903Z</time></trkpt><trkpt lat="44.8486986" lon="11.8313545"><ele>1.0</ele><time>2026-04-26T13:42:45.904Z</time></trkpt><trkpt lat="44.8484943" lon="11.8314685"><ele>1.0</ele><time>2026-04-26T13:42:46.903Z</time></trkpt><trkpt lat="44.8482928" lon="11.831591"><ele>1.0</ele><time>2026-04-26T13:42:47.903Z</time></trkpt><trkpt lat="44.8480978" lon="11.8317166"><ele>0.6666666666666666</ele><time>2026-04-26T13:42:48.903Z</time></trkpt><trkpt lat="44.8479126" lon="11.8318563"><ele>0.3333333333333333</ele><time>2026-04-26T13:42:49.904Z</time></trkpt><trkpt lat="44.8477272" lon="11.8320033"><ele>0.0</ele><time>2026-04-26T13:42:50.904Z</time></trkpt><trkpt lat="44.8475593" lon="11.8321603"><ele>0.6666666666666666</ele><time>2026-04-26T13:42:51.903Z</time></trkpt><trkpt lat="44.8474026" lon="11.8323131"><ele>1.3333333333333333</ele><time>2026-04-26T13:42:52.904Z</time></trkpt><trkpt lat="44.8472484" lon="11.8324672"><ele>2.0</ele><time>2026-04-26T13:42:53.903Z</time></trkpt><trkpt lat="44.8471056" lon="11.8326194"><ele>2.0</ele><time>2026-04-26T13:42:54.904Z</time></trkpt><trkpt lat="44.8469805" lon="11.8327797"><ele>2.0</ele><time>2026-04-26T13:42:55.904Z</time></trkpt><trkpt lat="44.8468744" lon="11.8329522"><ele>2.0</ele><time>2026-04-26T13:42:56.904Z</time></trkpt><trkpt lat="44.8467872" lon="11.8331907"><ele>2.0</ele><time>2026-04-26T13:42:57.904Z</time></trkpt><trkpt lat="44.8467095" lon="11.8334487"><ele>2.0</ele><time>2026-04-26T13:42:58.904Z</time></trkpt><trkpt lat="44.8466396" lon="11.8336953"><ele>2.0</ele><time>2026-04-26T13:42:59.903Z</time></trkpt><trkpt lat="44.8465816" lon="11.8339941"><ele>2.0</ele><time>2026-04-26T13:43:00.903Z</time></trkpt><trkpt lat="44.8465288" lon="11.8342885"><ele>2.0</ele><time>2026-04-26T13:43:01.903Z</time></trkpt><trkpt lat="44.8464905" lon="11.834595"><ele>2.0</ele><time>2026-04-26T13:43:02.903Z</time></trkpt><trkpt lat="44.8464684" lon="11.8349141"><ele>0.5</ele><time>2026-04-26T13:43:03.903Z</time></trkpt><trkpt lat="44.8464758" lon="11.8352466"><ele>-1.0</ele><time>2026-04-26T13:43:04.903Z</time></trkpt><trkpt lat="44.8464914" lon="11.8355873"><ele>-1.0</ele><time>2026-04-26T13:43:05.903Z</time></trkpt><trkpt lat="44.8465046" lon="11.8359232"><ele>-1.0</ele><time>2026-04-26T13:43:06.903Z</time></trkpt><trkpt lat="44.8465187" lon="11.8362493"><ele>-0.5</ele><time>2026-04-26T13:43:07.903Z</time></trkpt><trkpt lat="44.8465355" lon="11.8365773"><ele>0.0</ele><time>2026-04-26T13:43:08.903Z</time></trkpt><trkpt lat="44.846549" lon="11.8368996"><ele>0.6666666666666666</ele><time>2026-04-26T13:43:09.903Z</time></trkpt><trkpt lat="44.846557" lon="11.8372098"><ele>1.3333333333333333</ele><time>2026-04-26T13:43:10.903Z</time></trkpt><trkpt lat="44.8465596" lon="11.8375191"><ele>2.0</ele><time>2026-04-26T13:43:11.903Z</time></trkpt><trkpt lat="44.8465518" lon="11.8378272"><ele>2.0</ele><time>2026-04-26T13:43:12.903Z</time></trkpt><trkpt lat="44.8465363" lon="11.8381385"><ele>2.0</ele><time>2026-04-26T13:43:13.903Z</time></trkpt><trkpt lat="44.846517" lon="11.8384452"><ele>2.0</ele><time>2026-04-26T13:43:14.903Z</time></trkpt><trkpt lat="44.8465022" lon="11.8387473"><ele>1.6666666666666665</ele><time>2026-04-26T13:43:15.903Z</time></trkpt><trkpt lat="44.8464798" lon="11.8390547"><ele>1.3333333333333333</ele><time>2026-04-26T13:43:16.904Z</time></trkpt><trkpt lat="44.8464602" lon="11.8393575"><ele>1.0</ele><time>2026-04-26T13:43:17.903Z</time></trkpt><trkpt lat="44.8464417" lon="11.8396658"><ele>1.0</ele><time>2026-04-26T13:43:18.904Z</time></trkpt><trkpt lat="44.8464209" lon="11.8399694"><ele>1.0</ele><time>2026-04-26T13:43:19.903Z</time></trkpt><trkpt lat="44.8464031" lon="11.8402726"><ele>1.0</ele><time>2026-04-26T13:43:20.903Z</time></trkpt><trkpt lat="44.846385" lon="11.8405774"><ele>0.6666666666666666</ele><time>2026-04-26T13:43:21.903Z</time></trkpt><trkpt lat="44.8463678" lon="11.8408832"><ele>0.3333333333333333</ele><time>2026-04-26T13:43:22.904Z</time></trkpt><trkpt lat="44.8463526" lon="11.8411875"><ele>0.0</ele><time>2026-04-26T13:43:23.903Z</time></trkpt><trkpt lat="44.846332" lon="11.8414637"><ele>-1.0</ele><time>2026-04-26T13:43:24.904Z</time></trkpt><trkpt lat="44.846301" lon="11.8417257"><ele>-2.0</ele><time>2026-04-26T13:43:25.904Z</time></trkpt><trkpt lat="44.8462487" lon="11.8419678"><ele>-3.0</ele><time>2026-04-26T13:43:26.904Z</time></trkpt><trkpt lat="44.8461639" lon="11.8421923"><ele>-3.0</ele><time>2026-04-26T13:43:27.904Z</time></trkpt><trkpt lat="44.8460536" lon="11.8424033"><ele>-3.0</ele><time>2026-04-26T13:43:28.904Z</time></trkpt><trkpt lat="44.8459208" lon="11.8425991"><ele>-3.0</ele><time>2026-04-26T13:43:29.904Z</time></trkpt><trkpt lat="44.8457688" lon="11.8427792"><ele>-3.0</ele><time>2026-04-26T13:43:30.903Z</time></trkpt><trkpt lat="44.8456072" lon="11.8429607"><ele>-3.0</ele><time>2026-04-26T13:43:31.904Z</time></trkpt><trkpt lat="44.8454463" lon="11.8431534"><ele>-3.0</ele><time>2026-04-26T13:43:32.903Z</time></trkpt><trkpt lat="44.8452828" lon="11.8433439"><ele>-1.0</ele><time>2026-04-26T13:43:33.903Z</time></trkpt><trkpt lat="44.8451167" lon="11.8435371"><ele>1.0</ele><time>2026-04-26T13:43:34.903Z</time></trkpt><trkpt lat="44.8449511" lon="11.8437229"><ele>3.0</ele><time>2026-04-26T13:43:35.903Z</time></trkpt><trkpt lat="44.8447853" lon="11.8439085"><ele>3.0</ele><time>2026-04-26T13:43:36.903Z</time></trkpt><trkpt lat="44.8446236" lon="11.8440956"><ele>3.0</ele><time>2026-04-26T13:43:37.904Z</time></trkpt><trkpt lat="44.8444575" lon="11.8442842"><ele>3.0</ele><time>2026-04-26T13:43:38.903Z</time></trkpt><trkpt lat="44.8442899" lon="11.8444707"><ele>4.0</ele><time>2026-04-26T13:43:39.903Z</time></trkpt><trkpt lat="44.8441226" lon="11.8446556"><ele>5.0</ele><time>2026-04-26T13:43:40.904Z</time></trkpt><trkpt lat="44.8439609" lon="11.84484"><ele>6.0</ele><time>2026-04-26T13:43:41.903Z</time></trkpt><trkpt lat="44.8437999" lon="11.8450321"><ele>5.0</ele><time>2026-04-26T13:43:42.904Z</time></trkpt><trkpt lat="44.8436349" lon="11.8452157"><ele>4.0</ele><time>2026-04-26T13:43:43.904Z</time></trkpt><trkpt lat="44.8434743" lon="11.8453999"><ele>3.0</ele><time>2026-04-26T13:43:44.904Z</time></trkpt><trkpt lat="44.8433138" lon="11.8455844"><ele>3.0</ele><time>2026-04-26T13:43:45.903Z</time></trkpt><trkpt lat="44.8431582" lon="11.8457599"><ele>3.0</ele><time>2026-04-26T13:43:46.903Z</time></trkpt><trkpt lat="44.8430118" lon="11.8459322"><ele>3.0</ele><time>2026-04-26T13:43:47.904Z</time></trkpt><trkpt lat="44.8428725" lon="11.8460979"><ele>3.0</ele><time>2026-04-26T13:43:48.903Z</time></trkpt><trkpt lat="44.8427456" lon="11.84626"><ele>3.0</ele><time>2026-04-26T13:43:49.904Z</time></trkpt><trkpt lat="44.8426377" lon="11.8464289"><ele>3.0</ele><time>2026-04-26T13:43:50.903Z</time></trkpt><trkpt lat="44.8425437" lon="11.8466067"><ele>3.0</ele><time>2026-04-26T13:43:51.903Z</time></trkpt><trkpt lat="44.8424666" lon="11.8468031"><ele>3.0</ele><time>2026-04-26T13:43:52.903Z</time></trkpt><trkpt lat="44.8424049" lon="11.8470083"><ele>3.0</ele><time>2026-04-26T13:43:53.904Z</time></trkpt><trkpt lat="44.8423554" lon="11.847234"><ele>3.0</ele><time>2026-04-26T13:43:54.903Z</time></trkpt><trkpt lat="44.8423222" lon="11.847466"><ele>3.0</ele><time>2026-04-26T13:43:55.904Z</time></trkpt><trkpt lat="44.8423082" lon="11.8477072"><ele>3.0</ele><time>2026-04-26T13:43:56.904Z</time></trkpt><trkpt lat="44.8423121" lon="11.8479492"><ele>3.333333333333333</ele><time>2026-04-26T13:43:57.903Z</time></trkpt><trkpt lat="44.8423248" lon="11.8481893"><ele>3.6666666666666665</ele><time>2026-04-26T13:43:58.903Z</time></trkpt><trkpt lat="44.842333" lon="11.848415"><ele>4.0</ele><time>2026-04-26T13:43:59.903Z</time></trkpt><trkpt lat="44.8423409" lon="11.8486061"><ele>3.4000000000000004</ele><time>2026-04-26T13:44:00.903Z</time></trkpt><trkpt lat="44.8423493" lon="11.8487685"><ele>2.8000000000000003</ele><time>2026-04-26T13:44:01.903Z</time></trkpt><trkpt lat="44.8423538" lon="11.8488949"><ele>2.2</ele><time>2026-04-26T13:44:02.903Z</time></trkpt><trkpt lat="44.8423481" lon="11.8489894"><ele>1.6</ele><time>2026-04-26T13:44:03.903Z</time></trkpt><trkpt lat="44.8423013" lon="11.8491188"><ele>1.0</ele><time>2026-04-26T13:44:05.904Z</time></trkpt><trkpt lat="44.8422024" lon="11.8492062"><ele>0.8</ele><time>2026-04-26T13:44:07.903Z</time></trkpt><trkpt lat="44.8421047" lon="11.8493369"><ele>0.6000000000000001</ele><time>2026-04-26T13:44:09.904Z</time></trkpt><trkpt lat="44.8420665" lon="11.8494437"><ele>0.4</ele><time>2026-04-26T13:44:10.904Z</time></trkpt><trkpt lat="44.8420447" lon="11.8495616"><ele>0.2</ele><time>2026-04-26T13:44:11.904Z</time></trkpt><trkpt lat="44.8420078" lon="11.849686"><ele>0.0</ele><time>2026-04-26T13:44:12.903Z</time></trkpt><trkpt lat="44.8419569" lon="11.849817"><ele>0.0</ele><time>2026-04-26T13:44:13.904Z</time></trkpt><trkpt lat="44.8418584" lon="11.8499356"><ele>0.0</ele><time>2026-04-26T13:44:14.903Z</time></trkpt><trkpt lat="44.8417392" lon="11.8500695"><ele>0.0</ele><time>2026-04-26T13:44:15.904Z</time></trkpt><trkpt lat="44.8415926" lon="11.85022"><ele>-0.5</ele><time>2026-04-26T13:44:16.904Z</time></trkpt><trkpt lat="44.8414273" lon="11.8504095"><ele>-1.0</ele><time>2026-04-26T13:44:17.904Z</time></trkpt><trkpt lat="44.8412219" lon="11.8506362"><ele>-1.0</ele><time>2026-04-26T13:44:18.903Z</time></trkpt><trkpt lat="44.8409989" lon="11.8508846"><ele>-1.0</ele><time>2026-04-26T13:44:19.903Z</time></trkpt><trkpt lat="44.8407557" lon="11.8511571"><ele>-1.0</ele><time>2026-04-26T13:44:20.904Z</time></trkpt><trkpt lat="44.840491" lon="11.8514525"><ele>-1.0</ele><time>2026-04-26T13:44:21.903Z</time></trkpt><trkpt lat="44.84021" lon="11.8517582"><ele>0.0</ele><time>2026-04-26T13:44:22.903Z</time></trkpt><trkpt lat="44.8399234" lon="11.852073"><ele>1.0</ele><time>2026-04-26T13:44:23.903Z</time></trkpt><trkpt lat="44.8396387" lon="11.8523846"><ele>1.0</ele><time>2026-04-26T13:44:24.904Z</time></trkpt><trkpt lat="44.8393771" lon="11.8526718"><ele>1.0</ele><time>2026-04-26T13:44:25.904Z</time></trkpt><trkpt lat="44.8391451" lon="11.8529312"><ele>0.5</ele><time>2026-04-26T13:44:26.903Z</time></trkpt><trkpt lat="44.8389339" lon="11.8531734"><ele>0.0</ele><time>2026-04-26T13:44:27.904Z</time></trkpt><trkpt lat="44.8387541" lon="11.8534049"><ele>0.3333333333333333</ele><time>2026-04-26T13:44:28.904Z</time></trkpt><trkpt lat="44.8386007" lon="11.8536377"><ele>0.6666666666666666</ele><time>2026-04-26T13:44:29.903Z</time></trkpt><trkpt lat="44.83847" lon="11.8538573"><ele>1.0</ele><time>2026-04-26T13:44:30.903Z</time></trkpt><trkpt lat="44.8383526" lon="11.8540758"><ele>1.0</ele><time>2026-04-26T13:44:31.904Z</time></trkpt><trkpt lat="44.838253" lon="11.8542788"><ele>1.0</ele><time>2026-04-26T13:44:32.903Z</time></trkpt><trkpt lat="44.8381628" lon="11.8544816"><ele>1.0</ele><time>2026-04-26T13:44:33.903Z</time></trkpt><trkpt lat="44.8380837" lon="11.8546795"><ele>1.0</ele><time>2026-04-26T13:44:34.904Z</time></trkpt><trkpt lat="44.8380125" lon="11.8548749"><ele>1.0</ele><time>2026-04-26T13:44:35.903Z</time></trkpt><trkpt lat="44.8379441" lon="11.8550732"><ele>1.0</ele><time>2026-04-26T13:44:36.904Z</time></trkpt><trkpt lat="44.837885" lon="11.8552757"><ele>0.3333333333333333</ele><time>2026-04-26T13:44:37.903Z</time></trkpt><trkpt lat="44.8378182" lon="11.8554787"><ele>-0.3333333333333333</ele><time>2026-04-26T13:44:38.903Z</time></trkpt><trkpt lat="44.8377558" lon="11.8556841"><ele>-1.0</ele><time>2026-04-26T13:44:39.904Z</time></trkpt><trkpt lat="44.8376931" lon="11.8558877"><ele>-1.3333333333333333</ele><time>2026-04-26T13:44:40.904Z</time></trkpt><trkpt lat="44.837632" lon="11.8560906"><ele>-1.6666666666666665</ele><time>2026-04-26T13:44:41.904Z</time></trkpt><trkpt lat="44.8375743" lon="11.8562948"><ele>-2.0</ele><time>2026-04-26T13:44:42.903Z</time></trkpt><trkpt lat="44.8375129" lon="11.8564934"><ele>-2.0</ele><time>2026-04-26T13:44:43.903Z</time></trkpt><trkpt lat="44.8374547" lon="11.8566932"><ele>-2.0</ele><time>2026-04-26T13:44:44.903Z</time></trkpt><trkpt lat="44.8373981" lon="11.8568872"><ele>-2.0</ele><time>2026-04-26T13:44:45.904Z</time></trkpt><trkpt lat="44.8373439" lon="11.8570857"><ele>-2.0</ele><time>2026-04-26T13:44:46.903Z</time></trkpt><trkpt lat="44.8372993" lon="11.8572862"><ele>-2.0</ele><time>2026-04-26T13:44:47.904Z</time></trkpt><trkpt lat="44.8372641" lon="11.8574795"><ele>-2.0</ele><time>2026-04-26T13:44:48.903Z</time></trkpt><trkpt lat="44.8372453" lon="11.857683"><ele>-2.0</ele><time>2026-04-26T13:44:49.903Z</time></trkpt><trkpt lat="44.8372408" lon="11.857882"><ele>-1.8</ele><time>2026-04-26T13:44:50.903Z</time></trkpt><trkpt lat="44.8372428" lon="11.8580632"><ele>-1.6</ele><time>2026-04-26T13:44:51.903Z</time></trkpt><trkpt lat="44.8372508" lon="11.8582279"><ele>-1.4000000000000001</ele><time>2026-04-26T13:44:52.904Z</time></trkpt><trkpt lat="44.8372462" lon="11.8583668"><ele>-1.2000000000000002</ele><time>2026-04-26T13:44:53.904Z</time></trkpt><trkpt lat="44.8372255" lon="11.8584814"><ele>-1.0</ele><time>2026-04-26T13:44:54.903Z</time></trkpt><trkpt lat="44.8371873" lon="11.8585875"><ele>-0.6000000000000001</ele><time>2026-04-26T13:44:55.903Z</time></trkpt><trkpt lat="44.8371365" lon="11.8586997"><ele>-0.20000000000000007</ele><time>2026-04-26T13:44:56.904Z</time></trkpt><trkpt lat="44.8370837" lon="11.8588249"><ele>0.20000000000000007</ele><time>2026-04-26T13:44:57.903Z</time></trkpt><trkpt lat="44.8370049" lon="11.8589349"><ele>0.6000000000000001</ele><time>2026-04-26T13:44:58.904Z</time></trkpt><trkpt lat="44.8368983" lon="11.8590098"><ele>1.0</ele><time>2026-04-26T13:44:59.904Z</time></trkpt><trkpt lat="44.8367791" lon="11.8590569"><ele>1.0</ele><time>2026-04-26T13:45:00.904Z</time></trkpt><trkpt lat="44.8366477" lon="11.8590912"><ele>1.0</ele><time>2026-04-26T13:45:01.903Z</time></trkpt><trkpt lat="44.836507" lon="11.859126"><ele>1.0</ele><time>2026-04-26T13:45:02.903Z</time></trkpt><trkpt lat="44.8363524" lon="11.8591684"><ele>1.0</ele><time>2026-04-26T13:45:03.904Z</time></trkpt><trkpt lat="44.8361953" lon="11.8592176"><ele>1.0</ele><time>2026-04-26T13:45:04.903Z</time></trkpt><trkpt lat="44.8360387" lon="11.8592677"><ele>1.0</ele><time>2026-04-26T13:45:05.903Z</time></trkpt><trkpt lat="44.8358807" lon="11.8593304"><ele>1.0</ele><time>2026-04-26T13:45:06.903Z</time></trkpt><trkpt lat="44.8357185" lon="11.8594104"><ele>0.6666666666666666</ele><time>2026-04-26T13:45:07.904Z</time></trkpt><trkpt lat="44.8355623" lon="11.8595202"><ele>0.3333333333333333</ele><time>2026-04-26T13:45:08.903Z</time></trkpt><trkpt lat="44.8354081" lon="11.8596383"><ele>0.0</ele><time>2026-04-26T13:45:09.903Z</time></trkpt><trkpt lat="44.8352574" lon="11.859766"><ele>0.0</ele><time>2026-04-26T13:45:10.903Z</time></trkpt><trkpt lat="44.8351078" lon="11.8599078"><ele>0.0</ele><time>2026-04-26T13:45:11.904Z</time></trkpt><trkpt lat="44.8349617" lon="11.8600602"><ele>0.0</ele><time>2026-04-26T13:45:12.904Z</time></trkpt><trkpt lat="44.8348147" lon="11.8602187"><ele>0.3333333333333333</ele><time>2026-04-26T13:45:13.904Z</time></trkpt><trkpt lat="44.8346741" lon="11.8603893"><ele>0.6666666666666666</ele><time>2026-04-26T13:45:14.904Z</time></trkpt><trkpt lat="44.8345413" lon="11.8605749"><ele>1.0</ele><time>2026-04-26T13:45:15.903Z</time></trkpt><trkpt lat="44.8344113" lon="11.8607599"><ele>0.6666666666666666</ele><time>2026-04-26T13:45:16.903Z</time></trkpt><trkpt lat="44.8342851" lon="11.8609336"><ele>0.3333333333333333</ele><time>2026-04-26T13:45:17.903Z</time></trkpt><trkpt lat="44.8341528" lon="11.8610738"><ele>0.0</ele><time>2026-04-26T13:45:18.903Z</time></trkpt><trkpt lat="44.8340025" lon="11.8611841"><ele>0.0</ele><time>2026-04-26T13:45:19.904Z</time></trkpt><trkpt lat="44.833836" lon="11.8612616"><ele>0.0</ele><time>2026-04-26T13:45:20.904Z</time></trkpt><trkpt lat="44.8336504" lon="11.8613023"><ele>0.0</ele><time>2026-04-26T13:45:21.903Z</time></trkpt><trkpt lat="44.833461" lon="11.8613351"><ele>0.0</ele><time>2026-04-26T13:45:22.903Z</time></trkpt><trkpt lat="44.8332477" lon="11.8613193"><ele>0.0</ele><time>2026-04-26T13:45:23.904Z</time></trkpt><trkpt lat="44.83304" lon="11.8613418"><ele>0.0</ele><time>2026-04-26T13:45:24.903Z</time></trkpt><trkpt lat="44.8328289" lon="11.8613883"><ele>0.0</ele><time>2026-04-26T13:45:25.904Z</time></trkpt><trkpt lat="44.8326179" lon="11.8614536"><ele>0.0</ele><time>2026-04-26T13:45:26.903Z</time></trkpt><trkpt lat="44.8324072" lon="11.861516"><ele>0.0</ele><time>2026-04-26T13:45:27.904Z</time></trkpt><trkpt lat="44.832199" lon="11.8615813"><ele>0.0</ele><time>2026-04-26T13:45:28.904Z</time></trkpt><trkpt lat="44.8319884" lon="11.8616411"><ele>0.0</ele><time>2026-04-26T13:45:29.904Z</time></trkpt><trkpt lat="44.8317764" lon="11.8617004"><ele>0.0</ele><time>2026-04-26T13:45:30.904Z</time></trkpt><trkpt lat="44.8315679" lon="11.8617609"><ele>-0.6666666666666666</ele><time>2026-04-26T13:45:31.904Z</time></trkpt><trkpt lat="44.8313583" lon="11.8618252"><ele>-1.3333333333333333</ele><time>2026-04-26T13:45:32.903Z</time></trkpt><trkpt lat="44.8311513" lon="11.8618885"><ele>-2.0</ele><time>2026-04-26T13:45:33.903Z</time></trkpt><trkpt lat="44.8309381" lon="11.8619561"><ele>-2.0</ele><time>2026-04-26T13:45:34.904Z</time></trkpt><trkpt lat="44.830721" lon="11.8619924"><ele>-2.0</ele><time>2026-04-26T13:45:35.904Z</time></trkpt><trkpt lat="44.8305132" lon="11.8620213"><ele>-2.0</ele><time>2026-04-26T13:45:36.904Z</time></trkpt><trkpt lat="44.8303045" lon="11.8620379"><ele>-1.3333333333333333</ele><time>2026-04-26T13:45:37.904Z</time></trkpt><trkpt lat="44.8300928" lon="11.8620556"><ele>-0.6666666666666666</ele><time>2026-04-26T13:45:38.903Z</time></trkpt><trkpt lat="44.8298846" lon="11.8620755"><ele>0.0</ele><time>2026-04-26T13:45:39.903Z</time></trkpt><trkpt lat="44.82967" lon="11.8620935"><ele>0.0</ele><time>2026-04-26T13:45:40.904Z</time></trkpt><trkpt lat="44.8294525" lon="11.862106"><ele>0.0</ele><time>2026-04-26T13:45:41.903Z</time></trkpt><trkpt lat="44.8292321" lon="11.862118"><ele>0.0</ele><time>2026-04-26T13:45:42.904Z</time></trkpt><trkpt lat="44.8290081" lon="11.8621304"><ele>-0.5</ele><time>2026-04-26T13:45:43.903Z</time></trkpt><trkpt lat="44.8287777" lon="11.8621343"><ele>-1.0</ele><time>2026-04-26T13:45:44.903Z</time></trkpt><trkpt lat="44.8285461" lon="11.8621429"><ele>-1.0</ele><time>2026-04-26T13:45:45.903Z</time></trkpt><trkpt lat="44.8283099" lon="11.8621503"><ele>-1.0</ele><time>2026-04-26T13:45:46.904Z</time></trkpt><trkpt lat="44.8280723" lon="11.8621606"><ele>-1.0</ele><time>2026-04-26T13:45:47.903Z</time></trkpt><trkpt lat="44.8278332" lon="11.8621714"><ele>-1.0</ele><time>2026-04-26T13:45:48.903Z</time></trkpt><trkpt lat="44.8275994" lon="11.8621842"><ele>-0.5</ele><time>2026-04-26T13:45:49.904Z</time></trkpt><trkpt lat="44.8273655" lon="11.8622107"><ele>0.0</ele><time>2026-04-26T13:45:50.903Z</time></trkpt><trkpt lat="44.8271364" lon="11.8622565"><ele>0.0</ele><time>2026-04-26T13:45:51.903Z</time></trkpt><trkpt lat="44.8269092" lon="11.8623337"><ele>0.0</ele><time>2026-04-26T13:45:52.903Z</time></trkpt><trkpt lat="44.8266826" lon="11.8624445"><ele>0.0</ele><time>2026-04-26T13:45:53.903Z</time></trkpt><trkpt lat="44.8264565" lon="11.8625566"><ele>0.0</ele><time>2026-04-26T13:45:54.904Z</time></trkpt><trkpt lat="44.8262357" lon="11.8626649"><ele>0.0</ele><time>2026-04-26T13:45:55.903Z</time></trkpt><trkpt lat="44.8260145" lon="11.8627786"><ele>0.0</ele><time>2026-04-26T13:45:56.903Z</time></trkpt><trkpt lat="44.8258048" lon="11.862907"><ele>0.0</ele><time>2026-04-26T13:45:57.903Z</time></trkpt><trkpt lat="44.8256115" lon="11.8630553"><ele>0.0</ele><time>2026-04-26T13:45:58.904Z</time></trkpt><trkpt lat="44.8254351" lon="11.8632126"><ele>0.0</ele><time>2026-04-26T13:45:59.903Z</time></trkpt><trkpt lat="44.8252735" lon="11.8633884"><ele>0.0</ele><time>2026-04-26T13:46:00.903Z</time></trkpt><trkpt lat="44.825125" lon="11.8635987"><ele>0.0</ele><time>2026-04-26T13:46:01.903Z</time></trkpt><trkpt lat="44.8249986" lon="11.8638308"><ele>0.0</ele><time>2026-04-26T13:46:02.903Z</time></trkpt><trkpt lat="44.8248813" lon="11.8640784"><ele>-0.3333333333333333</ele><time>2026-04-26T13:46:03.904Z</time></trkpt><trkpt lat="44.8247655" lon="11.8643326"><ele>-0.6666666666666666</ele><time>2026-04-26T13:46:04.904Z</time></trkpt><trkpt lat="44.8246443" lon="11.8645919"><ele>-1.0</ele><time>2026-04-26T13:46:05.904Z</time></trkpt><trkpt lat="44.8245242" lon="11.8648534"><ele>-1.0</ele><time>2026-04-26T13:46:06.904Z</time></trkpt><trkpt lat="44.8243975" lon="11.8651128"><ele>-1.0</ele><time>2026-04-26T13:46:07.904Z</time></trkpt><trkpt lat="44.8242713" lon="11.8653779"><ele>-0.5</ele><time>2026-04-26T13:46:08.904Z</time></trkpt><trkpt lat="44.8241416" lon="11.8656405"><ele>0.0</ele><time>2026-04-26T13:46:09.903Z</time></trkpt><trkpt lat="44.8240153" lon="11.8659086"><ele>0.0</ele><time>2026-04-26T13:46:10.903Z</time></trkpt><trkpt lat="44.823892" lon="11.866166"><ele>0.0</ele><time>2026-04-26T13:46:11.903Z</time></trkpt><trkpt lat="44.8237778" lon="11.8664056"><ele>0.0</ele><time>2026-04-26T13:46:12.904Z</time></trkpt><trkpt lat="44.8236454" lon="11.8666233"><ele>-0.3333333333333333</ele><time>2026-04-26T13:46:13.903Z</time></trkpt><trkpt lat="44.8234926" lon="11.8668208"><ele>-0.6666666666666666</ele><time>2026-04-26T13:46:14.903Z</time></trkpt><trkpt lat="44.823325" lon="11.8669965"><ele>-1.0</ele><time>2026-04-26T13:46:15.903Z</time></trkpt><trkpt lat="44.8231618" lon="11.8671705"><ele>-0.3333333333333333</ele><time>2026-04-26T13:46:16.903Z</time></trkpt><trkpt lat="44.8229912" lon="11.8673555"><ele>0.3333333333333333</ele><time>2026-04-26T13:46:17.903Z</time></trkpt><trkpt lat="44.8228158" lon="11.8675355"><ele>1.0</ele><time>2026-04-26T13:46:18.903Z</time></trkpt><trkpt lat="44.8226395" lon="11.8677237"><ele>1.0</ele><time>2026-04-26T13:46:19.903Z</time></trkpt><trkpt lat="44.8224668" lon="11.8679155"><ele>1.0</ele><time>2026-04-26T13:46:20.904Z</time></trkpt><trkpt lat="44.8222995" lon="11.8681131"><ele>1.0</ele><time>2026-04-26T13:46:21.903Z</time></trkpt><trkpt lat="44.8221326" lon="11.868313"><ele>1.0</ele><time>2026-04-26T13:46:22.903Z</time></trkpt><trkpt lat="44.82197" lon="11.8685141"><ele>1.0</ele><time>2026-04-26T13:46:23.903Z</time></trkpt><trkpt lat="44.8218042" lon="11.8687127"><ele>1.0</ele><time>2026-04-26T13:46:24.903Z</time></trkpt><trkpt lat="44.8216365" lon="11.8689106"><ele>0.3333333333333333</ele><time>2026-04-26T13:46:25.903Z</time></trkpt><trkpt lat="44.8214745" lon="11.8691171"><ele>-0.3333333333333333</ele><time>2026-04-26T13:46:26.903Z</time></trkpt><trkpt lat="44.821319" lon="11.8693293"><ele>-1.0</ele><time>2026-04-26T13:46:27.903Z</time></trkpt><trkpt lat="44.8211687" lon="11.8695487"><ele>-1.0</ele><time>2026-04-26T13:46:28.904Z</time></trkpt><trkpt lat="44.8210195" lon="11.8697689"><ele>-1.0</ele><time>2026-04-26T13:46:29.903Z</time></trkpt><trkpt lat="44.8208765" lon="11.8699961"><ele>-1.0</ele><time>2026-04-26T13:46:30.903Z</time></trkpt><trkpt lat="44.8207358" lon="11.8702332"><ele>-1.3333333333333333</ele><time>2026-04-26T13:46:31.903Z</time></trkpt><trkpt lat="44.8206006" lon="11.8704634"><ele>-1.6666666666666665</ele><time>2026-04-26T13:46:32.904Z</time></trkpt><trkpt lat="44.8204623" lon="11.8706793"><ele>-2.0</ele><time>2026-04-26T13:46:33.904Z</time></trkpt><trkpt lat="44.8203195" lon="11.8708639"><ele>-2.0</ele><time>2026-04-26T13:46:34.903Z</time></trkpt><trkpt lat="44.8201635" lon="11.8710157"><ele>-2.0</ele><time>2026-04-26T13:46:35.903Z</time></trkpt><trkpt lat="44.8199937" lon="11.8711348"><ele>-2.0</ele><time>2026-04-26T13:46:36.904Z</time></trkpt><trkpt lat="44.8198196" lon="11.8712045"><ele>-1.6666666666666665</ele><time>2026-04-26T13:46:37.904Z</time></trkpt><trkpt lat="44.8196365" lon="11.8712191"><ele>-1.3333333333333333</ele><time>2026-04-26T13:46:38.903Z</time></trkpt><trkpt lat="44.8194386" lon="11.8711991"><ele>-1.0</ele><time>2026-04-26T13:46:39.903Z</time></trkpt><trkpt lat="44.8192327" lon="11.8711588"><ele>-1.0</ele><time>2026-04-26T13:46:40.903Z</time></trkpt><trkpt lat="44.8190227" lon="11.8711128"><ele>-1.0</ele><time>2026-04-26T13:46:41.904Z</time></trkpt><trkpt lat="44.8188104" lon="11.8710567"><ele>-1.0</ele><time>2026-04-26T13:46:42.904Z</time></trkpt><trkpt lat="44.8185975" lon="11.8710004"><ele>-1.3333333333333333</ele><time>2026-04-26T13:46:43.903Z</time></trkpt><trkpt lat="44.8183925" lon="11.8709459"><ele>-1.6666666666666665</ele><time>2026-04-26T13:46:44.903Z</time></trkpt><trkpt lat="44.8181968" lon="11.8708954"><ele>-2.0</ele><time>2026-04-26T13:46:45.903Z</time></trkpt><trkpt lat="44.8180105" lon="11.8708657"><ele>-1.3333333333333333</ele><time>2026-04-26T13:46:46.903Z</time></trkpt><trkpt lat="44.8178218" lon="11.8708679"><ele>-0.6666666666666666</ele><time>2026-04-26T13:46:47.903Z</time></trkpt><trkpt lat="44.8176361" lon="11.870905"><ele>0.0</ele><time>2026-04-26T13:46:48.903Z</time></trkpt><trkpt lat="44.8174503" lon="11.8709772"><ele>0.0</ele><time>2026-04-26T13:46:49.904Z</time></trkpt><trkpt lat="44.8172656" lon="11.8710877"><ele>0.0</ele><time>2026-04-26T13:46:50.904Z</time></trkpt><trkpt lat="44.8170847" lon="11.8712287"><ele>0.0</ele><time>2026-04-26T13:46:51.903Z</time></trkpt><trkpt lat="44.8169036" lon="11.8713784"><ele>-0.3333333333333333</ele><time>2026-04-26T13:46:52.903Z</time></trkpt><trkpt lat="44.8167164" lon="11.87153"><ele>-0.6666666666666666</ele><time>2026-04-26T13:46:53.903Z</time></trkpt><trkpt lat="44.8165302" lon="11.8716769"><ele>-1.0</ele><time>2026-04-26T13:46:54.904Z</time></trkpt><trkpt lat="44.8163449" lon="11.8718233"><ele>-1.0</ele><time>2026-04-26T13:46:55.903Z</time></trkpt><trkpt lat="44.8161601" lon="11.8719664"><ele>-1.0</ele><time>2026-04-26T13:46:56.904Z</time></trkpt><trkpt lat="44.8159774" lon="11.8721053"><ele>-1.0</ele><time>2026-04-26T13:46:57.904Z</time></trkpt><trkpt lat="44.8157916" lon="11.8722412"><ele>-1.0</ele><time>2026-04-26T13:46:58.904Z</time></trkpt><trkpt lat="44.8156086" lon="11.8723724"><ele>-1.0</ele><time>2026-04-26T13:46:59.903Z</time></trkpt><trkpt lat="44.8154242" lon="11.8725031"><ele>-1.0</ele><time>2026-04-26T13:47:00.904Z</time></trkpt><trkpt lat="44.8152399" lon="11.8726321"><ele>-0.6666666666666666</ele><time>2026-04-26T13:47:01.903Z</time></trkpt><trkpt lat="44.8150556" lon="11.8727593"><ele>-0.3333333333333333</ele><time>2026-04-26T13:47:02.904Z</time></trkpt><trkpt lat="44.8148739" lon="11.8728849"><ele>0.0</ele><time>2026-04-26T13:47:03.903Z</time></trkpt><trkpt lat="44.8146931" lon="11.8730156"><ele>0.0</ele><time>2026-04-26T13:47:04.903Z</time></trkpt><trkpt lat="44.8145092" lon="11.8731464"><ele>0.0</ele><time>2026-04-26T13:47:05.903Z</time></trkpt><trkpt lat="44.814327" lon="11.8732764"><ele>0.0</ele><time>2026-04-26T13:47:06.903Z</time></trkpt><trkpt lat="44.8141431" lon="11.8734045"><ele>1.0</ele><time>2026-04-26T13:47:07.904Z</time></trkpt><trkpt lat="44.813961" lon="11.8735316"><ele>2.0</ele><time>2026-04-26T13:47:08.903Z</time></trkpt><trkpt lat="44.8137784" lon="11.8736605"><ele>3.0</ele><time>2026-04-26T13:47:09.903Z</time></trkpt><trkpt lat="44.8135949" lon="11.8737901"><ele>2.3333333333333335</ele><time>2026-04-26T13:47:10.904Z</time></trkpt><trkpt lat="44.813412" lon="11.873916"><ele>1.6666666666666665</ele><time>2026-04-26T13:47:11.904Z</time></trkpt><trkpt lat="44.8132279" lon="11.8740434"><ele>1.0</ele><time>2026-04-26T13:47:12.903Z</time></trkpt><trkpt lat="44.8130461" lon="11.8741764"><ele>1.0</ele><time>2026-04-26T13:47:13.903Z</time></trkpt><trkpt lat="44.8128653" lon="11.8743095"><ele>1.0</ele><time>2026-04-26T13:47:14.903Z</time></trkpt><trkpt lat="44.8126776" lon="11.8744399"><ele>1.0</ele><time>2026-04-26T13:47:15.903Z</time></trkpt><trkpt lat="44.8124889" lon="11.874561"><ele>1.0</ele><time>2026-04-26T13:47:16.903Z</time></trkpt><trkpt lat="44.8123002" lon="11.8746856"><ele>1.0</ele><time>2026-04-26T13:47:17.904Z</time></trkpt><trkpt lat="44.8121113" lon="11.8748118"><ele>1.0</ele><time>2026-04-26T13:47:18.903Z</time></trkpt><trkpt lat="44.811922" lon="11.8749363"><ele>1.0</ele><time>2026-04-26T13:47:19.903Z</time></trkpt><trkpt lat="44.8117334" lon="11.8750597"><ele>1.0</ele><time>2026-04-26T13:47:20.903Z</time></trkpt><trkpt lat="44.8115531" lon="11.8751748"><ele>1.0</ele><time>2026-04-26T13:47:21.904Z</time></trkpt><trkpt lat="44.8113884" lon="11.8752843"><ele>1.0</ele><time>2026-04-26T13:47:22.903Z</time></trkpt><trkpt lat="44.8112358" lon="11.8753879"><ele>1.0</ele><time>2026-04-26T13:47:23.903Z</time></trkpt><trkpt lat="44.8110917" lon="11.8754841"><ele>1.0</ele><time>2026-04-26T13:47:24.903Z</time></trkpt><trkpt lat="44.810948" lon="11.8755564"><ele>1.5</ele><time>2026-04-26T13:47:25.903Z</time></trkpt><trkpt lat="44.8107972" lon="11.8755977"><ele>2.0</ele><time>2026-04-26T13:47:26.903Z</time></trkpt><trkpt lat="44.8106547" lon="11.8756088"><ele>2.5</ele><time>2026-04-26T13:47:27.904Z</time></trkpt><trkpt lat="44.810519" lon="11.8756106"><ele>3.0</ele><time>2026-04-26T13:47:28.903Z</time></trkpt><trkpt lat="44.8103927" lon="11.8755802"><ele>3.0</ele><time>2026-04-26T13:47:29.903Z</time></trkpt><trkpt lat="44.8102661" lon="11.875532"><ele>3.0</ele><time>2026-04-26T13:47:30.903Z</time></trkpt><trkpt lat="44.8101455" lon="11.8754653"><ele>3.0</ele><time>2026-04-26T13:47:31.904Z</time></trkpt><trkpt lat="44.810025" lon="11.8753787"><ele>3.0</ele><time>2026-04-26T13:47:32.904Z</time></trkpt><trkpt lat="44.8099136" lon="11.8752707"><ele>2.75</ele><time>2026-04-26T13:47:33.903Z</time></trkpt><trkpt lat="44.809806" lon="11.8751481"><ele>2.5</ele><time>2026-04-26T13:47:34.904Z</time></trkpt><trkpt lat="44.8096983" lon="11.8750191"><ele>2.25</ele><time>2026-04-26T13:47:35.903Z</time></trkpt><trkpt lat="44.8095904" lon="11.8748843"><ele>2.0</ele><time>2026-04-26T13:47:36.904Z</time></trkpt><trkpt lat="44.8094823" lon="11.8747543"><ele>2.0</ele><time>2026-04-26T13:47:37.904Z</time></trkpt><trkpt lat="44.8093776" lon="11.8746279"><ele>2.0</ele><time>2026-04-26T13:47:38.904Z</time></trkpt><trkpt lat="44.8092719" lon="11.8744957"><ele>2.0</ele><time>2026-04-26T13:47:39.904Z</time></trkpt><trkpt lat="44.809172" lon="11.8743698"><ele>2.0</ele><time>2026-04-26T13:47:40.903Z</time></trkpt><trkpt lat="44.8090709" lon="11.8742631"><ele>1.75</ele><time>2026-04-26T13:47:41.903Z</time></trkpt><trkpt lat="44.8089668" lon="11.8741678"><ele>1.5</ele><time>2026-04-26T13:47:42.903Z</time></trkpt><trkpt lat="44.8088621" lon="11.8740854"><ele>1.25</ele><time>2026-04-26T13:47:43.903Z</time></trkpt><trkpt lat="44.8087578" lon="11.8740107"><ele>1.0</ele><time>2026-04-26T13:47:44.904Z</time></trkpt><trkpt lat="44.8086482" lon="11.873948"><ele>1.0</ele><time>2026-04-26T13:47:45.904Z</time></trkpt><trkpt lat="44.8085364" lon="11.8738941"><ele>1.0</ele><time>2026-04-26T13:47:46.904Z</time></trkpt><trkpt lat="44.8084202" lon="11.8738566"><ele>1.0</ele><time>2026-04-26T13:47:47.903Z</time></trkpt><trkpt lat="44.8083027" lon="11.8738303"><ele>1.0</ele><time>2026-04-26T13:47:48.904Z</time></trkpt><trkpt lat="44.8081861" lon="11.873818"><ele>1.2000000000000002</ele><time>2026-04-26T13:47:49.904Z</time></trkpt><trkpt lat="44.808079" lon="11.8738205"><ele>1.4000000000000001</ele><time>2026-04-26T13:47:50.904Z</time></trkpt><trkpt lat="44.8079787" lon="11.8738384"><ele>1.6</ele><time>2026-04-26T13:47:51.903Z</time></trkpt><trkpt lat="44.8078843" lon="11.8738747"><ele>1.8</ele><time>2026-04-26T13:47:52.904Z</time></trkpt><trkpt lat="44.8077969" lon="11.873936"><ele>2.0</ele><time>2026-04-26T13:47:53.904Z</time></trkpt><trkpt lat="44.807723" lon="11.8740247"><ele>1.9999999999999998</ele><time>2026-04-26T13:47:54.903Z</time></trkpt><trkpt lat="44.8076623" lon="11.8741318"><ele>2.0</ele><time>2026-04-26T13:47:55.903Z</time></trkpt><trkpt lat="44.8076146" lon="11.8742356"><ele>2.0</ele><time>2026-04-26T13:47:56.903Z</time></trkpt><trkpt lat="44.8075752" lon="11.8743314"><ele>2.0</ele><time>2026-04-26T13:47:57.903Z</time></trkpt><trkpt lat="44.80754" lon="11.8744217"><ele>1.9999999999999998</ele><time>2026-04-26T13:47:58.903Z</time></trkpt><trkpt lat="44.8074985" lon="11.8744966"><ele>2.0</ele><time>2026-04-26T13:47:59.903Z</time></trkpt><trkpt lat="44.8074441" lon="11.8745486"><ele>2.2857142857142856</ele><time>2026-04-26T13:48:00.903Z</time></trkpt><trkpt lat="44.8073913" lon="11.8746039"><ele>2.571428571428571</ele><time>2026-04-26T13:48:01.903Z</time></trkpt><trkpt lat="44.8073481" lon="11.8746776"><ele>2.8571428571428568</ele><time>2026-04-26T13:48:02.903Z</time></trkpt><trkpt lat="44.8073216" lon="11.8747626"><ele>3.142857142857143</ele><time>2026-04-26T13:48:03.903Z</time></trkpt><trkpt lat="44.8073333" lon="11.8748651"><ele>3.428571428571428</ele><time>2026-04-26T13:48:04.904Z</time></trkpt><trkpt lat="44.8073689" lon="11.87495"><ele>3.714285714285714</ele><time>2026-04-26T13:48:05.904Z</time></trkpt><trkpt lat="44.8074093" lon="11.87502"><ele>4.0</ele><time>2026-04-26T13:48:06.903Z</time></trkpt><trkpt lat="44.8074927" lon="11.8750343"><ele>4.0</ele><time>2026-04-26T13:48:07.903Z</time></trkpt><trkpt lat="44.8075839" lon="11.8750326"><ele>4.0</ele><time>2026-04-26T13:48:08.903Z</time></trkpt><trkpt lat="44.8076798" lon="11.8750389"><ele>4.0</ele><time>2026-04-26T13:48:09.904Z</time></trkpt><trkpt lat="44.8077827" lon="11.8750783"><ele>4.0</ele><time>2026-04-26T13:48:10.904Z</time></trkpt><trkpt lat="44.8078832" lon="11.8751476"><ele>4.0</ele><time>2026-04-26T13:48:11.903Z</time></trkpt><trkpt lat="44.8079832" lon="11.8752474"><ele>3.75</ele><time>2026-04-26T13:48:12.903Z</time></trkpt><trkpt lat="44.8080829" lon="11.8753616"><ele>3.5</ele><time>2026-04-26T13:48:13.903Z</time></trkpt><trkpt lat="44.8081866" lon="11.8754795"><ele>3.25</ele><time>2026-04-26T13:48:14.903Z</time></trkpt><trkpt lat="44.8082917" lon="11.8755982"><ele>3.0</ele><time>2026-04-26T13:48:15.903Z</time></trkpt><trkpt lat="44.8083998" lon="11.8757334"><ele>2.75</ele><time>2026-04-26T13:48:16.903Z</time></trkpt><trkpt lat="44.8084971" lon="11.8758837"><ele>2.5</ele><time>2026-04-26T13:48:17.904Z</time></trkpt><trkpt lat="44.8085865" lon="11.8760472"><ele>2.25</ele><time>2026-04-26T13:48:18.904Z</time></trkpt><trkpt lat="44.8086766" lon="11.8762123"><ele>2.0</ele><time>2026-04-26T13:48:19.903Z</time></trkpt><trkpt lat="44.8087661" lon="11.8763779"><ele>2.0</ele><time>2026-04-26T13:48:20.904Z</time></trkpt><trkpt lat="44.8088504" lon="11.8765469"><ele>2.0</ele><time>2026-04-26T13:48:21.904Z</time></trkpt><trkpt lat="44.8089355" lon="11.8767177"><ele>2.0</ele><time>2026-04-26T13:48:22.903Z</time></trkpt><trkpt lat="44.8090159" lon="11.8768848"><ele>2.0</ele><time>2026-04-26T13:48:23.903Z</time></trkpt><trkpt lat="44.809094" lon="11.8770378"><ele>2.0</ele><time>2026-04-26T13:48:24.903Z</time></trkpt><trkpt lat="44.8091757" lon="11.8772008"><ele>2.0</ele><time>2026-04-26T13:48:25.903Z</time></trkpt><trkpt lat="44.8092603" lon="11.87736"><ele>2.0</ele><time>2026-04-26T13:48:26.903Z</time></trkpt><trkpt lat="44.8093417" lon="11.8775237"><ele>2.0</ele><time>2026-04-26T13:48:27.903Z</time></trkpt><trkpt lat="44.8094276" lon="11.8777003"><ele>3.0</ele><time>2026-04-26T13:48:28.903Z</time></trkpt><trkpt lat="44.8095136" lon="11.8778723"><ele>4.0</ele><time>2026-04-26T13:48:29.904Z</time></trkpt><trkpt lat="44.8096025" lon="11.8780495"><ele>5.0</ele><time>2026-04-26T13:48:30.904Z</time></trkpt><trkpt lat="44.8096879" lon="11.8782248"><ele>5.0</ele><time>2026-04-26T13:48:31.904Z</time></trkpt><trkpt lat="44.809773" lon="11.8784023"><ele>5.0</ele><time>2026-04-26T13:48:32.903Z</time></trkpt><trkpt lat="44.8098579" lon="11.8785777"><ele>5.0</ele><time>2026-04-26T13:48:33.904Z</time></trkpt><trkpt lat="44.8099427" lon="11.8787526"><ele>5.0</ele><time>2026-04-26T13:48:34.903Z</time></trkpt><trkpt lat="44.8100309" lon="11.8789284"><ele>5.0</ele><time>2026-04-26T13:48:35.903Z</time></trkpt><trkpt lat="44.8101242" lon="11.8791113"><ele>5.0</ele><time>2026-04-26T13:48:36.903Z</time></trkpt><trkpt lat="44.8102132" lon="11.8792994"><ele>5.0</ele><time>2026-04-26T13:48:37.904Z</time></trkpt><trkpt lat="44.8103032" lon="11.87949"><ele>5.0</ele><time>2026-04-26T13:48:38.904Z</time></trkpt><trkpt lat="44.8103973" lon="11.8796742"><ele>5.0</ele><time>2026-04-26T13:48:39.904Z</time></trkpt><trkpt lat="44.8104908" lon="11.8798708"><ele>5.0</ele><time>2026-04-26T13:48:40.903Z</time></trkpt><trkpt lat="44.8105824" lon="11.8800599"><ele>5.0</ele><time>2026-04-26T13:48:41.903Z</time></trkpt><trkpt lat="44.8106736" lon="11.8802509"><ele>5.0</ele><time>2026-04-26T13:48:42.903Z</time></trkpt><trkpt lat="44.8107656" lon="11.8804302"><ele>4.75</ele><time>2026-04-26T13:48:43.903Z</time></trkpt><trkpt lat="44.8108511" lon="11.8806029"><ele>4.5</ele><time>2026-04-26T13:48:44.904Z</time></trkpt><trkpt lat="44.8109362" lon="11.8807778"><ele>4.25</ele><time>2026-04-26T13:48:45.903Z</time></trkpt><trkpt lat="44.8110212" lon="11.8809433"><ele>4.0</ele><time>2026-04-26T13:48:46.904Z</time></trkpt><trkpt lat="44.811108" lon="11.8811173"><ele>4.25</ele><time>2026-04-26T13:48:47.903Z</time></trkpt><trkpt lat="44.8111928" lon="11.88129"><ele>4.5</ele><time>2026-04-26T13:48:48.903Z</time></trkpt><trkpt lat="44.8112755" lon="11.8814639"><ele>4.75</ele><time>2026-04-26T13:48:49.904Z</time></trkpt><trkpt lat="44.8113586" lon="11.8816411"><ele>5.0</ele><time>2026-04-26T13:48:50.904Z</time></trkpt><trkpt lat="44.8114414" lon="11.8818159"><ele>5.0</ele><time>2026-04-26T13:48:51.903Z</time></trkpt><trkpt lat="44.8115274" lon="11.8819819"><ele>5.0</ele><time>2026-04-26T13:48:52.903Z</time></trkpt><trkpt lat="44.8116101" lon="11.8821526"><ele>5.0</ele><time>2026-04-26T13:48:53.904Z</time></trkpt><trkpt lat="44.8116904" lon="11.8823167"><ele>5.0</ele><time>2026-04-26T13:48:54.903Z</time></trkpt><trkpt lat="44.8117678" lon="11.8824597"><ele>4.5</ele><time>2026-04-26T13:48:55.904Z</time></trkpt><trkpt lat="44.8118453" lon="11.8826104"><ele>4.0</ele><time>2026-04-26T13:48:56.903Z</time></trkpt><trkpt lat="44.8119097" lon="11.8827676"><ele>3.5</ele><time>2026-04-26T13:48:57.903Z</time></trkpt><trkpt lat="44.8119842" lon="11.8829273"><ele>3.0</ele><time>2026-04-26T13:48:58.903Z</time></trkpt><trkpt lat="44.8120566" lon="11.8830899"><ele>3.0</ele><time>2026-04-26T13:48:59.903Z</time></trkpt><trkpt lat="44.8121309" lon="11.8832452"><ele>3.0</ele><time>2026-04-26T13:49:00.903Z</time></trkpt><trkpt lat="44.8122114" lon="11.8834129"><ele>3.0</ele><time>2026-04-26T13:49:01.903Z</time></trkpt><trkpt lat="44.8122981" lon="11.883578"><ele>3.0</ele><time>2026-04-26T13:49:02.904Z</time></trkpt><trkpt lat="44.812382" lon="11.8837427"><ele>3.333333333333333</ele><time>2026-04-26T13:49:03.904Z</time></trkpt><trkpt lat="44.8124754" lon="11.8839089"><ele>3.6666666666666665</ele><time>2026-04-26T13:49:04.904Z</time></trkpt><trkpt lat="44.8125737" lon="11.8840729"><ele>4.0</ele><time>2026-04-26T13:49:05.903Z</time></trkpt><trkpt lat="44.8126734" lon="11.8842374"><ele>3.6666666666666665</ele><time>2026-04-26T13:49:06.903Z</time></trkpt><trkpt lat="44.8127817" lon="11.8844008"><ele>3.333333333333333</ele><time>2026-04-26T13:49:07.904Z</time></trkpt><trkpt lat="44.8128869" lon="11.8845514"><ele>3.0</ele><time>2026-04-26T13:49:08.904Z</time></trkpt><trkpt lat="44.8129961" lon="11.8847063"><ele>3.0</ele><time>2026-04-26T13:49:09.904Z</time></trkpt><trkpt lat="44.8131097" lon="11.8848563"><ele>3.0</ele><time>2026-04-26T13:49:10.904Z</time></trkpt><trkpt lat="44.8132242" lon="11.885002"><ele>3.0</ele><time>2026-04-26T13:49:11.904Z</time></trkpt><trkpt lat="44.8133393" lon="11.8851399"><ele>2.3333333333333335</ele><time>2026-04-26T13:49:12.904Z</time></trkpt><trkpt lat="44.8134607" lon="11.8852686"><ele>1.6666666666666665</ele><time>2026-04-26T13:49:13.904Z</time></trkpt><trkpt lat="44.8135923" lon="11.8853981"><ele>1.0</ele><time>2026-04-26T13:49:14.904Z</time></trkpt><trkpt lat="44.8137258" lon="11.8855294"><ele>2.3333333333333335</ele><time>2026-04-26T13:49:15.904Z</time></trkpt><trkpt lat="44.8138573" lon="11.8856569"><ele>3.666666666666667</ele><time>2026-04-26T13:49:16.903Z</time></trkpt><trkpt lat="44.8139921" lon="11.8857843"><ele>5.0</ele><time>2026-04-26T13:49:17.903Z</time></trkpt><trkpt lat="44.8141264" lon="11.8859037"><ele>4.333333333333334</ele><time>2026-04-26T13:49:18.903Z</time></trkpt><trkpt lat="44.8142575" lon="11.8860238"><ele>3.666666666666667</ele><time>2026-04-26T13:49:19.904Z</time></trkpt><trkpt lat="44.8143941" lon="11.8861433"><ele>3.0</ele><time>2026-04-26T13:49:20.903Z</time></trkpt><trkpt lat="44.8145291" lon="11.8862597"><ele>3.0</ele><time>2026-04-26T13:49:21.903Z</time></trkpt><trkpt lat="44.8146621" lon="11.886377"><ele>3.0</ele><time>2026-04-26T13:49:22.903Z</time></trkpt><trkpt lat="44.8147961" lon="11.8864937"><ele>3.0</ele><time>2026-04-26T13:49:23.903Z</time></trkpt><trkpt lat="44.8149283" lon="11.8866118"><ele>3.0</ele><time>2026-04-26T13:49:24.904Z</time></trkpt><trkpt lat="44.8150533" lon="11.8867284"><ele>3.0</ele><time>2026-04-26T13:49:25.904Z</time></trkpt><trkpt lat="44.8151744" lon="11.8868416"><ele>3.0</ele><time>2026-04-26T13:49:26.904Z</time></trkpt><trkpt lat="44.8152963" lon="11.8869462"><ele>3.0</ele><time>2026-04-26T13:49:27.904Z</time></trkpt><trkpt lat="44.8154096" lon="11.8870452"><ele>2.75</ele><time>2026-04-26T13:49:28.903Z</time></trkpt><trkpt lat="44.8155177" lon="11.88714"><ele>2.5</ele><time>2026-04-26T13:49:29.903Z</time></trkpt><trkpt lat="44.8156236" lon="11.8872364"><ele>2.25</ele><time>2026-04-26T13:49:30.904Z</time></trkpt><trkpt lat="44.8157323" lon="11.8873298"><ele>2.0</ele><time>2026-04-26T13:49:31.903Z</time></trkpt><trkpt lat="44.8158378" lon="11.8874239"><ele>2.0</ele><time>2026-04-26T13:49:32.904Z</time></trkpt><trkpt lat="44.8159433" lon="11.8875103"><ele>2.0</ele><time>2026-04-26T13:49:33.903Z</time></trkpt><trkpt lat="44.8160507" lon="11.8876071"><ele>2.0</ele><time>2026-04-26T13:49:34.903Z</time></trkpt><trkpt lat="44.8161555" lon="11.8876985"><ele>2.0</ele><time>2026-04-26T13:49:35.903Z</time></trkpt><trkpt lat="44.8162559" lon="11.8877923"><ele>2.0</ele><time>2026-04-26T13:49:36.904Z</time></trkpt><trkpt lat="44.8163568" lon="11.8878756"><ele>2.0</ele><time>2026-04-26T13:49:37.903Z</time></trkpt><trkpt lat="44.8164446" lon="11.8879528"><ele>2.0</ele><time>2026-04-26T13:49:38.903Z</time></trkpt><trkpt lat="44.8165287" lon="11.888031"><ele>2.0</ele><time>2026-04-26T13:49:39.904Z</time></trkpt><trkpt lat="44.8166125" lon="11.8881077"><ele>2.0</ele><time>2026-04-26T13:49:40.904Z</time></trkpt><trkpt lat="44.8166803" lon="11.8881877"><ele>2.0</ele><time>2026-04-26T13:49:41.904Z</time></trkpt><trkpt lat="44.8167383" lon="11.888283"><ele>2.0</ele><time>2026-04-26T13:49:42.904Z</time></trkpt><trkpt lat="44.8167842" lon="11.8884028"><ele>2.0</ele><time>2026-04-26T13:49:43.903Z</time></trkpt><trkpt lat="44.8168179" lon="11.8885365"><ele>2.0</ele><time>2026-04-26T13:49:44.904Z</time></trkpt><trkpt lat="44.8168399" lon="11.8886847"><ele>2.0</ele><time>2026-04-26T13:49:45.904Z</time></trkpt><trkpt lat="44.8168416" lon="11.8888507"><ele>2.0</ele><time>2026-04-26T13:49:46.904Z</time></trkpt><trkpt lat="44.8168281" lon="11.8890254"><ele>2.0</ele><time>2026-04-26T13:49:47.903Z</time></trkpt><trkpt lat="44.8168051" lon="11.8892079"><ele>2.0</ele><time>2026-04-26T13:49:48.903Z</time></trkpt><trkpt lat="44.8167791" lon="11.8893932"><ele>2.0</ele><time>2026-04-26T13:49:49.903Z</time></trkpt><trkpt lat="44.816754" lon="11.8895881"><ele>2.0</ele><time>2026-04-26T13:49:50.904Z</time></trkpt><trkpt lat="44.8167314" lon="11.8897802"><ele>2.0</ele><time>2026-04-26T13:49:51.904Z</time></trkpt><trkpt lat="44.8167043" lon="11.8899748"><ele>2.0</ele><time>2026-04-26T13:49:52.904Z</time></trkpt><trkpt lat="44.8166853" lon="11.8901598"><ele>2.0</ele><time>2026-04-26T13:49:53.903Z</time></trkpt><trkpt lat="44.8166623" lon="11.8903319"><ele>2.0</ele><time>2026-04-26T13:49:54.903Z</time></trkpt><trkpt lat="44.8166405" lon="11.8904883"><ele>2.0</ele><time>2026-04-26T13:49:55.904Z</time></trkpt><trkpt lat="44.8166214" lon="11.8906414"><ele>2.0</ele><time>2026-04-26T13:49:56.904Z</time></trkpt><trkpt lat="44.816605" lon="11.8907912"><ele>2.0</ele><time>2026-04-26T13:49:57.904Z</time></trkpt><trkpt lat="44.8165888" lon="11.8909439"><ele>2.0</ele><time>2026-04-26T13:49:58.904Z</time></trkpt><trkpt lat="44.8165677" lon="11.8910855"><ele>2.0</ele><time>2026-04-26T13:49:59.904Z</time></trkpt><trkpt lat="44.8165538" lon="11.8912305"><ele>2.0</ele><time>2026-04-26T13:50:00.903Z</time></trkpt><trkpt lat="44.8165349" lon="11.8913776"><ele>2.0</ele><time>2026-04-26T13:50:01.904Z</time></trkpt><trkpt lat="44.8165181" lon="11.8915217"><ele>2.0</ele><time>2026-04-26T13:50:02.904Z</time></trkpt><trkpt lat="44.8165081" lon="11.8916736"><ele>2.0</ele><time>2026-04-26T13:50:03.904Z</time></trkpt><trkpt lat="44.8164933" lon="11.89183"><ele>1.75</ele><time>2026-04-26T13:50:04.903Z</time></trkpt><trkpt lat="44.8164738" lon="11.8919843"><ele>1.5</ele><time>2026-04-26T13:50:05.904Z</time></trkpt><trkpt lat="44.8164474" lon="11.8921458"><ele>1.25</ele><time>2026-04-26T13:50:06.904Z</time></trkpt><trkpt lat="44.8164291" lon="11.8923112"><ele>1.0</ele><time>2026-04-26T13:50:07.904Z</time></trkpt><trkpt lat="44.8164182" lon="11.892481"><ele>1.0</ele><time>2026-04-26T13:50:08.903Z</time></trkpt><trkpt lat="44.8163988" lon="11.892658"><ele>1.0</ele><time>2026-04-26T13:50:09.903Z</time></trkpt><trkpt lat="44.8163777" lon="11.8928367"><ele>1.0</ele><time>2026-04-26T13:50:10.903Z</time></trkpt><trkpt lat="44.816354" lon="11.8930159"><ele>1.0</ele><time>2026-04-26T13:50:11.904Z</time></trkpt><trkpt lat="44.8163333" lon="11.8931965"><ele>1.0</ele><time>2026-04-26T13:50:12.904Z</time></trkpt><trkpt lat="44.8163097" lon="11.8933824"><ele>1.0</ele><time>2026-04-26T13:50:13.903Z</time></trkpt><trkpt lat="44.816289" lon="11.8935684"><ele>1.0</ele><time>2026-04-26T13:50:14.904Z</time></trkpt><trkpt lat="44.8162668" lon="11.8937533"><ele>1.0</ele><time>2026-04-26T13:50:15.904Z</time></trkpt><trkpt lat="44.8162471" lon="11.8939367"><ele>1.0</ele><time>2026-04-26T13:50:16.903Z</time></trkpt><trkpt lat="44.8162222" lon="11.8941227"><ele>1.0</ele><time>2026-04-26T13:50:17.904Z</time></trkpt><trkpt lat="44.8161999" lon="11.8943165"><ele>1.0</ele><time>2026-04-26T13:50:18.904Z</time></trkpt><trkpt lat="44.816175" lon="11.8945063"><ele>1.0</ele><time>2026-04-26T13:50:19.904Z</time></trkpt><trkpt lat="44.8161521" lon="11.894691"><ele>1.0</ele><time>2026-04-26T13:50:20.904Z</time></trkpt><trkpt lat="44.8161305" lon="11.8948888"><ele>1.0</ele><time>2026-04-26T13:50:21.904Z</time></trkpt><trkpt lat="44.8161105" lon="11.8950827"><ele>1.0</ele><time>2026-04-26T13:50:22.903Z</time></trkpt><trkpt lat="44.8160869" lon="11.8952815"><ele>1.0</ele><time>2026-04-26T13:50:23.904Z</time></trkpt><trkpt lat="44.816063" lon="11.8954775"><ele>1.0</ele><time>2026-04-26T13:50:24.904Z</time></trkpt><trkpt lat="44.81604" lon="11.8956707"><ele>1.0</ele><time>2026-04-26T13:50:25.904Z</time></trkpt><trkpt lat="44.8160196" lon="11.8958521"><ele>1.0</ele><time>2026-04-26T13:50:26.904Z</time></trkpt><trkpt lat="44.815996" lon="11.8960186"><ele>1.0</ele><time>2026-04-26T13:50:27.903Z</time></trkpt><trkpt lat="44.8159715" lon="11.8961658"><ele>1.2000000000000002</ele><time>2026-04-26T13:50:28.903Z</time></trkpt><trkpt lat="44.8159529" lon="11.896306"><ele>1.4000000000000001</ele><time>2026-04-26T13:50:29.904Z</time></trkpt><trkpt lat="44.8159378" lon="11.896447"><ele>1.6</ele><time>2026-04-26T13:50:30.903Z</time></trkpt><trkpt lat="44.8159242" lon="11.8965942"><ele>1.8</ele><time>2026-04-26T13:50:31.904Z</time></trkpt><trkpt lat="44.8159071" lon="11.8967478"><ele>2.0</ele><time>2026-04-26T13:50:32.903Z</time></trkpt><trkpt lat="44.8158803" lon="11.8969103"><ele>2.5</ele><time>2026-04-26T13:50:33.903Z</time></trkpt><trkpt lat="44.8158576" lon="11.8970763"><ele>3.0</ele><time>2026-04-26T13:50:34.903Z</time></trkpt><trkpt lat="44.8158413" lon="11.8972559"><ele>3.5</ele><time>2026-04-26T13:50:35.903Z</time></trkpt><trkpt lat="44.8158158" lon="11.8974367"><ele>4.0</ele><time>2026-04-26T13:50:36.903Z</time></trkpt><trkpt lat="44.8157923" lon="11.8976268"><ele>4.0</ele><time>2026-04-26T13:50:37.903Z</time></trkpt><trkpt lat="44.8157685" lon="11.8978152"><ele>4.0</ele><time>2026-04-26T13:50:38.903Z</time></trkpt><trkpt lat="44.8157442" lon="11.8980061"><ele>4.0</ele><time>2026-04-26T13:50:39.903Z</time></trkpt><trkpt lat="44.8157175" lon="11.8982075"><ele>4.0</ele><time>2026-04-26T13:50:40.904Z</time></trkpt><trkpt lat="44.8156973" lon="11.8984119"><ele>4.0</ele><time>2026-04-26T13:50:41.903Z</time></trkpt><trkpt lat="44.8156774" lon="11.8986104"><ele>4.0</ele><time>2026-04-26T13:50:42.903Z</time></trkpt><trkpt lat="44.8156588" lon="11.8987957"><ele>4.0</ele><time>2026-04-26T13:50:43.903Z</time></trkpt><trkpt lat="44.8156414" lon="11.8989647"><ele>4.0</ele><time>2026-04-26T13:50:44.904Z</time></trkpt><trkpt lat="44.8156245" lon="11.8991191"><ele>3.9999999999999996</ele><time>2026-04-26T13:50:45.903Z</time></trkpt><trkpt lat="44.8156063" lon="11.8992463"><ele>4.0</ele><time>2026-04-26T13:50:46.903Z</time></trkpt><trkpt lat="44.8155916" lon="11.8993491"><ele>4.0</ele><time>2026-04-26T13:50:47.903Z</time></trkpt><trkpt lat="44.8155521" lon="11.8994427"><ele>4.0</ele><time>2026-04-26T13:50:48.904Z</time></trkpt><trkpt lat="44.8155037" lon="11.8995328"><ele>3.9999999999999996</ele><time>2026-04-26T13:50:49.903Z</time></trkpt><trkpt lat="44.8154738" lon="11.8996449"><ele>4.0</ele><time>2026-04-26T13:50:50.903Z</time></trkpt><trkpt lat="44.8154637" lon="11.8997741"><ele>3.5</ele><time>2026-04-26T13:50:51.903Z</time></trkpt><trkpt lat="44.8154735" lon="11.8999071"><ele>3.0</ele><time>2026-04-26T13:50:52.903Z</time></trkpt><trkpt lat="44.8154875" lon="11.9000644"><ele>2.5</ele><time>2026-04-26T13:50:53.904Z</time></trkpt><trkpt lat="44.8154751" lon="11.900244"><ele>2.0</ele><time>2026-04-26T13:50:54.903Z</time></trkpt><trkpt lat="44.8154533" lon="11.900433"><ele>1.3333333333333333</ele><time>2026-04-26T13:50:55.904Z</time></trkpt><trkpt lat="44.8154327" lon="11.900646"><ele>0.6666666666666666</ele><time>2026-04-26T13:50:56.903Z</time></trkpt><trkpt lat="44.8154084" lon="11.9008596"><ele>0.0</ele><time>2026-04-26T13:50:57.903Z</time></trkpt><trkpt lat="44.8153903" lon="11.901076"><ele>0.0</ele><time>2026-04-26T13:50:58.903Z</time></trkpt><trkpt lat="44.8153664" lon="11.9012775"><ele>0.0</ele><time>2026-04-26T13:50:59.904Z</time></trkpt><trkpt lat="44.8153432" lon="11.9014666"><ele>0.0</ele><time>2026-04-26T13:51:00.904Z</time></trkpt><trkpt lat="44.81532" lon="11.901652"><ele>0.0</ele><time>2026-04-26T13:51:01.904Z</time></trkpt><trkpt lat="44.8152984" lon="11.9018285"><ele>-0.25</ele><time>2026-04-26T13:51:02.903Z</time></trkpt><trkpt lat="44.8152816" lon="11.9020055"><ele>-0.5</ele><time>2026-04-26T13:51:03.904Z</time></trkpt><trkpt lat="44.8152626" lon="11.9021855"><ele>-0.75</ele><time>2026-04-26T13:51:04.904Z</time></trkpt><trkpt lat="44.815242" lon="11.9023605"><ele>-1.0</ele><time>2026-04-26T13:51:05.903Z</time></trkpt><trkpt lat="44.8152248" lon="11.9025353"><ele>-1.0</ele><time>2026-04-26T13:51:06.903Z</time></trkpt><trkpt lat="44.815212" lon="11.9027145"><ele>-1.0</ele><time>2026-04-26T13:51:07.903Z</time></trkpt><trkpt lat="44.8151896" lon="11.9028935"><ele>-1.0</ele><time>2026-04-26T13:51:08.904Z</time></trkpt><trkpt lat="44.815168" lon="11.903053"><ele>-1.0</ele><time>2026-04-26T13:51:09.904Z</time></trkpt><trkpt lat="44.8151508" lon="11.9032112"><ele>-0.75</ele><time>2026-04-26T13:51:10.904Z</time></trkpt><trkpt lat="44.8151296" lon="11.9033737"><ele>-0.5</ele><time>2026-04-26T13:51:11.904Z</time></trkpt><trkpt lat="44.8151101" lon="11.9035408"><ele>-0.25</ele><time>2026-04-26T13:51:12.903Z</time></trkpt><trkpt lat="44.8150919" lon="11.9037117"><ele>0.0</ele><time>2026-04-26T13:51:13.903Z</time></trkpt><trkpt lat="44.8150718" lon="11.9038828"><ele>0.25</ele><time>2026-04-26T13:51:14.904Z</time></trkpt><trkpt lat="44.8150472" lon="11.9040682"><ele>0.5</ele><time>2026-04-26T13:51:15.903Z</time></trkpt><trkpt lat="44.8150241" lon="11.9042547"><ele>0.75</ele><time>2026-04-26T13:51:16.904Z</time></trkpt><trkpt lat="44.8150045" lon="11.9044444"><ele>1.0</ele><time>2026-04-26T13:51:17.904Z</time></trkpt><trkpt lat="44.8149806" lon="11.9046408"><ele>1.0</ele><time>2026-04-26T13:51:18.903Z</time></trkpt><trkpt lat="44.8149545" lon="11.90484"><ele>1.0</ele><time>2026-04-26T13:51:19.904Z</time></trkpt><trkpt lat="44.814928" lon="11.9050325"><ele>1.0</ele><time>2026-04-26T13:51:20.903Z</time></trkpt><trkpt lat="44.8149073" lon="11.9052249"><ele>1.0</ele><time>2026-04-26T13:51:21.904Z</time></trkpt><trkpt lat="44.8148856" lon="11.9054154"><ele>1.0</ele><time>2026-04-26T13:51:22.904Z</time></trkpt><trkpt lat="44.8148629" lon="11.9056107"><ele>1.0</ele><time>2026-04-26T13:51:23.904Z</time></trkpt><trkpt lat="44.8148456" lon="11.9058016"><ele>1.0</ele><time>2026-04-26T13:51:24.904Z</time></trkpt><trkpt lat="44.8148391" lon="11.9059931"><ele>1.0</ele><time>2026-04-26T13:51:25.904Z</time></trkpt><trkpt lat="44.8148408" lon="11.9061935"><ele>1.0</ele><time>2026-04-26T13:51:26.903Z</time></trkpt><trkpt lat="44.8148499" lon="11.9063981"><ele>1.0</ele><time>2026-04-26T13:51:27.904Z</time></trkpt><trkpt lat="44.8148675" lon="11.9066095"><ele>1.0</ele><time>2026-04-26T13:51:28.903Z</time></trkpt><trkpt lat="44.8148944" lon="11.9068258"><ele>1.3333333333333333</ele><time>2026-04-26T13:51:29.903Z</time></trkpt><trkpt lat="44.814919" lon="11.9070505"><ele>1.6666666666666665</ele><time>2026-04-26T13:51:30.904Z</time></trkpt><trkpt lat="44.8149464" lon="11.9072723"><ele>2.0</ele><time>2026-04-26T13:51:31.903Z</time></trkpt><trkpt lat="44.8149696" lon="11.9075005"><ele>2.0</ele><time>2026-04-26T13:51:32.903Z</time></trkpt><trkpt lat="44.8149899" lon="11.9077248"><ele>2.0</ele><time>2026-04-26T13:51:33.904Z</time></trkpt><trkpt lat="44.8150121" lon="11.9079529"><ele>2.0</ele><time>2026-04-26T13:51:34.903Z</time></trkpt><trkpt lat="44.8150386" lon="11.9081875"><ele>2.0</ele><time>2026-04-26T13:51:35.903Z</time></trkpt><trkpt lat="44.8150596" lon="11.9084008"><ele>2.0</ele><time>2026-04-26T13:51:36.904Z</time></trkpt><trkpt lat="44.8150792" lon="11.9086012"><ele>2.0</ele><time>2026-04-26T13:51:37.903Z</time></trkpt><trkpt lat="44.8150968" lon="11.9087926"><ele>2.0</ele><time>2026-04-26T13:51:38.904Z</time></trkpt><trkpt lat="44.8151138" lon="11.9089642"><ele>2.0</ele><time>2026-04-26T13:51:39.904Z</time></trkpt><trkpt lat="44.8151292" lon="11.9091279"><ele>2.0</ele><time>2026-04-26T13:51:40.903Z</time></trkpt><trkpt lat="44.815145" lon="11.9092736"><ele>2.0</ele><time>2026-04-26T13:51:41.904Z</time></trkpt><trkpt lat="44.8151619" lon="11.9094343"><ele>2.0</ele><time>2026-04-26T13:51:42.903Z</time></trkpt><trkpt lat="44.8151778" lon="11.9095985"><ele>1.75</ele><time>2026-04-26T13:51:43.903Z</time></trkpt><trkpt lat="44.8151991" lon="11.9097643"><ele>1.5</ele><time>2026-04-26T13:51:44.903Z</time></trkpt><trkpt lat="44.8152117" lon="11.9099375"><ele>1.25</ele><time>2026-04-26T13:51:45.903Z</time></trkpt><trkpt lat="44.81523" lon="11.9101118"><ele>1.0</ele><time>2026-04-26T13:51:46.904Z</time></trkpt><trkpt lat="44.8152485" lon="11.9102818"><ele>0.75</ele><time>2026-04-26T13:51:47.903Z</time></trkpt><trkpt lat="44.8152698" lon="11.9104621"><ele>0.5</ele><time>2026-04-26T13:51:48.903Z</time></trkpt><trkpt lat="44.8152894" lon="11.9106445"><ele>0.25</ele><time>2026-04-26T13:51:49.904Z</time></trkpt><trkpt lat="44.8153106" lon="11.9108201"><ele>0.0</ele><time>2026-04-26T13:51:50.904Z</time></trkpt><trkpt lat="44.8153274" lon="11.9110045"><ele>0.0</ele><time>2026-04-26T13:51:51.903Z</time></trkpt><trkpt lat="44.8153451" lon="11.9111938"><ele>0.0</ele><time>2026-04-26T13:51:52.903Z</time></trkpt><trkpt lat="44.8153631" lon="11.9113751"><ele>0.0</ele><time>2026-04-26T13:51:53.903Z</time></trkpt><trkpt lat="44.8153852" lon="11.9115651"><ele>0.0</ele><time>2026-04-26T13:51:54.903Z</time></trkpt><trkpt lat="44.8154044" lon="11.9117574"><ele>0.0</ele><time>2026-04-26T13:51:55.904Z</time></trkpt><trkpt lat="44.8154224" lon="11.9119495"><ele>0.0</ele><time>2026-04-26T13:51:56.904Z</time></trkpt><trkpt lat="44.8154368" lon="11.912145"><ele>0.0</ele><time>2026-04-26T13:51:57.904Z</time></trkpt><trkpt lat="44.8154561" lon="11.9123459"><ele>0.0</ele><time>2026-04-26T13:51:58.903Z</time></trkpt><trkpt lat="44.8154761" lon="11.9125519"><ele>0.0</ele><time>2026-04-26T13:51:59.903Z</time></trkpt><trkpt lat="44.8154976" lon="11.9127591"><ele>0.0</ele><time>2026-04-26T13:52:00.903Z</time></trkpt><trkpt lat="44.8155181" lon="11.9129633"><ele>0.0</ele><time>2026-04-26T13:52:01.903Z</time></trkpt><trkpt lat="44.815534" lon="11.913173"><ele>0.0</ele><time>2026-04-26T13:52:02.903Z</time></trkpt><trkpt lat="44.8155556" lon="11.913379"><ele>-0.25</ele><time>2026-04-26T13:52:03.903Z</time></trkpt><trkpt lat="44.8155784" lon="11.9135857"><ele>-0.5</ele><time>2026-04-26T13:52:04.903Z</time></trkpt><trkpt lat="44.815601" lon="11.913794"><ele>-0.75</ele><time>2026-04-26T13:52:05.904Z</time></trkpt><trkpt lat="44.8156218" lon="11.9140047"><ele>-1.0</ele><time>2026-04-26T13:52:06.903Z</time></trkpt><trkpt lat="44.8156423" lon="11.9142121"><ele>-0.6666666666666666</ele><time>2026-04-26T13:52:07.903Z</time></trkpt><trkpt lat="44.8156618" lon="11.9144158"><ele>-0.3333333333333333</ele><time>2026-04-26T13:52:08.904Z</time></trkpt><trkpt lat="44.8156805" lon="11.9146261"><ele>0.0</ele><time>2026-04-26T13:52:09.903Z</time></trkpt><trkpt lat="44.8157037" lon="11.9148415"><ele>0.0</ele><time>2026-04-26T13:52:10.904Z</time></trkpt><trkpt lat="44.8157246" lon="11.9150519"><ele>0.0</ele><time>2026-04-26T13:52:11.904Z</time></trkpt><trkpt lat="44.8157459" lon="11.91526"><ele>0.0</ele><time>2026-04-26T13:52:12.903Z</time></trkpt><trkpt lat="44.8157648" lon="11.9154672"><ele>0.0</ele><time>2026-04-26T13:52:13.904Z</time></trkpt><trkpt lat="44.8157836" lon="11.9156747"><ele>0.3333333333333333</ele><time>2026-04-26T13:52:14.904Z</time></trkpt><trkpt lat="44.8158039" lon="11.9158892"><ele>0.6666666666666666</ele><time>2026-04-26T13:52:15.903Z</time></trkpt><trkpt lat="44.8158223" lon="11.916105"><ele>1.0</ele><time>2026-04-26T13:52:16.903Z</time></trkpt><trkpt lat="44.8158345" lon="11.9163231"><ele>1.0</ele><time>2026-04-26T13:52:17.904Z</time></trkpt><trkpt lat="44.8158341" lon="11.9165433"><ele>1.0</ele><time>2026-04-26T13:52:18.904Z</time></trkpt><trkpt lat="44.8158291" lon="11.9167567"><ele>1.0</ele><time>2026-04-26T13:52:19.904Z</time></trkpt><trkpt lat="44.8158231" lon="11.9169736"><ele>1.0</ele><time>2026-04-26T13:52:20.904Z</time></trkpt><trkpt lat="44.815813" lon="11.917189"><ele>1.0</ele><time>2026-04-26T13:52:21.904Z</time></trkpt><trkpt lat="44.8157994" lon="11.9174074"><ele>1.0</ele><time>2026-04-26T13:52:22.903Z</time></trkpt><trkpt lat="44.8157747" lon="11.9176213"><ele>0.6666666666666666</ele><time>2026-04-26T13:52:23.904Z</time></trkpt><trkpt lat="44.8157498" lon="11.9178407"><ele>0.3333333333333333</ele><time>2026-04-26T13:52:24.904Z</time></trkpt><trkpt lat="44.8157153" lon="11.918052"><ele>0.0</ele><time>2026-04-26T13:52:25.904Z</time></trkpt><trkpt lat="44.8156767" lon="11.9182706"><ele>-0.3333333333333333</ele><time>2026-04-26T13:52:26.903Z</time></trkpt><trkpt lat="44.8156366" lon="11.918489"><ele>-0.6666666666666666</ele><time>2026-04-26T13:52:27.903Z</time></trkpt><trkpt lat="44.8155958" lon="11.9187072"><ele>-1.0</ele><time>2026-04-26T13:52:28.904Z</time></trkpt><trkpt lat="44.8155532" lon="11.9189234"><ele>-1.0</ele><time>2026-04-26T13:52:29.904Z</time></trkpt><trkpt lat="44.815515" lon="11.9191402"><ele>-1.0</ele><time>2026-04-26T13:52:30.903Z</time></trkpt><trkpt lat="44.8154841" lon="11.9193637"><ele>-1.0</ele><time>2026-04-26T13:52:31.903Z</time></trkpt><trkpt lat="44.8154566" lon="11.9195887"><ele>-0.6666666666666666</ele><time>2026-04-26T13:52:32.904Z</time></trkpt><trkpt lat="44.8154334" lon="11.9198193"><ele>-0.3333333333333333</ele><time>2026-04-26T13:52:33.903Z</time></trkpt><trkpt lat="44.8154217" lon="11.9200559"><ele>0.0</ele><time>2026-04-26T13:52:34.904Z</time></trkpt><trkpt lat="44.8154159" lon="11.9202927"><ele>0.0</ele><time>2026-04-26T13:52:35.903Z</time></trkpt><trkpt lat="44.8154131" lon="11.9205338"><ele>0.0</ele><time>2026-04-26T13:52:36.904Z</time></trkpt><trkpt lat="44.8154168" lon="11.9207698"><ele>0.0</ele><time>2026-04-26T13:52:37.903Z</time></trkpt><trkpt lat="44.815433" lon="11.9210085"><ele>-0.3333333333333333</ele><time>2026-04-26T13:52:38.904Z</time></trkpt><trkpt lat="44.8154565" lon="11.9212522"><ele>-0.6666666666666666</ele><time>2026-04-26T13:52:39.903Z</time></trkpt><trkpt lat="44.8154809" lon="11.921494"><ele>-1.0</ele><time>2026-04-26T13:52:40.904Z</time></trkpt><trkpt lat="44.8155113" lon="11.9217396"><ele>-1.6666666666666665</ele><time>2026-04-26T13:52:41.904Z</time></trkpt><trkpt lat="44.8155445" lon="11.921978"><ele>-2.3333333333333335</ele><time>2026-04-26T13:52:42.904Z</time></trkpt><trkpt lat="44.8155805" lon="11.9222192"><ele>-3.0</ele><time>2026-04-26T13:52:43.904Z</time></trkpt><trkpt lat="44.815617" lon="11.9224589"><ele>-2.6666666666666665</ele><time>2026-04-26T13:52:44.904Z</time></trkpt><trkpt lat="44.8156593" lon="11.9226926"><ele>-2.333333333333333</ele><time>2026-04-26T13:52:45.903Z</time></trkpt><trkpt lat="44.8156978" lon="11.9229381"><ele>-2.0</ele><time>2026-04-26T13:52:46.904Z</time></trkpt><trkpt lat="44.8157368" lon="11.9231908"><ele>-2.0</ele><time>2026-04-26T13:52:47.903Z</time></trkpt><trkpt lat="44.8157729" lon="11.9234555"><ele>-2.0</ele><time>2026-04-26T13:52:48.904Z</time></trkpt><trkpt lat="44.8158106" lon="11.9237226"><ele>-2.0</ele><time>2026-04-26T13:52:49.904Z</time></trkpt><trkpt lat="44.8158492" lon="11.9239948"><ele>-2.0</ele><time>2026-04-26T13:52:50.904Z</time></trkpt><trkpt lat="44.8158891" lon="11.9242696"><ele>-2.0</ele><time>2026-04-26T13:52:51.903Z</time></trkpt><trkpt lat="44.8159324" lon="11.9245529"><ele>-2.0</ele><time>2026-04-26T13:52:52.903Z</time></trkpt><trkpt lat="44.815974" lon="11.9248382"><ele>-1.6666666666666665</ele><time>2026-04-26T13:52:53.903Z</time></trkpt><trkpt lat="44.8160166" lon="11.9251262"><ele>-1.3333333333333333</ele><time>2026-04-26T13:52:54.903Z</time></trkpt><trkpt lat="44.816058" lon="11.9254132"><ele>-1.0</ele><time>2026-04-26T13:52:55.903Z</time></trkpt><trkpt lat="44.8161015" lon="11.9257086"><ele>-1.0</ele><time>2026-04-26T13:52:56.904Z</time></trkpt><trkpt lat="44.8161482" lon="11.9259994"><ele>-1.0</ele><time>2026-04-26T13:52:57.903Z</time></trkpt><trkpt lat="44.8161948" lon="11.9262994"><ele>-1.0</ele><time>2026-04-26T13:52:58.903Z</time></trkpt><trkpt lat="44.8162442" lon="11.9265999"><ele>-1.0</ele><time>2026-04-26T13:52:59.903Z</time></trkpt><trkpt lat="44.8162854" lon="11.9268892"><ele>-1.0</ele><time>2026-04-26T13:53:00.903Z</time></trkpt><trkpt lat="44.8163298" lon="11.9271957"><ele>-1.0</ele><time>2026-04-26T13:53:01.903Z</time></trkpt><trkpt lat="44.8163731" lon="11.9274942"><ele>-1.3333333333333333</ele><time>2026-04-26T13:53:02.903Z</time></trkpt><trkpt lat="44.8164116" lon="11.9277845"><ele>-1.6666666666666665</ele><time>2026-04-26T13:53:03.904Z</time></trkpt><trkpt lat="44.8164577" lon="11.9280739"><ele>-2.0</ele><time>2026-04-26T13:53:04.903Z</time></trkpt><trkpt lat="44.8165053" lon="11.9283636"><ele>-1.3333333333333333</ele><time>2026-04-26T13:53:05.903Z</time></trkpt><trkpt lat="44.8165484" lon="11.928652"><ele>-0.6666666666666666</ele><time>2026-04-26T13:53:06.904Z</time></trkpt><trkpt lat="44.8165806" lon="11.9289417"><ele>0.0</ele><time>2026-04-26T13:53:07.903Z</time></trkpt><trkpt lat="44.8166188" lon="11.9292261"><ele>0.0</ele><time>2026-04-26T13:53:08.903Z</time></trkpt><trkpt lat="44.8166602" lon="11.9295157"><ele>0.0</ele><time>2026-04-26T13:53:09.903Z</time></trkpt><trkpt lat="44.8167017" lon="11.9298037"><ele>0.0</ele><time>2026-04-26T13:53:10.904Z</time></trkpt><trkpt lat="44.8167443" lon="11.9300816"><ele>-0.6666666666666666</ele><time>2026-04-26T13:53:11.903Z</time></trkpt><trkpt lat="44.8167871" lon="11.9303601"><ele>-1.3333333333333333</ele><time>2026-04-26T13:53:12.903Z</time></trkpt><trkpt lat="44.8168333" lon="11.9306423"><ele>-2.0</ele><time>2026-04-26T13:53:13.903Z</time></trkpt><trkpt lat="44.8168843" lon="11.9309145"><ele>-2.333333333333333</ele><time>2026-04-26T13:53:14.904Z</time></trkpt><trkpt lat="44.8169435" lon="11.9311907"><ele>-2.6666666666666665</ele><time>2026-04-26T13:53:15.904Z</time></trkpt><trkpt lat="44.8170085" lon="11.9314537"><ele>-3.0</ele><time>2026-04-26T13:53:16.903Z</time></trkpt><trkpt lat="44.8170802" lon="11.9317154"><ele>-2.3333333333333335</ele><time>2026-04-26T13:53:17.904Z</time></trkpt><trkpt lat="44.8171599" lon="11.931972"><ele>-1.6666666666666665</ele><time>2026-04-26T13:53:18.903Z</time></trkpt><trkpt lat="44.8172467" lon="11.9322332"><ele>-1.0</ele><time>2026-04-26T13:53:19.903Z</time></trkpt><trkpt lat="44.8173408" lon="11.9325064"><ele>0.0</ele><time>2026-04-26T13:53:20.903Z</time></trkpt><trkpt lat="44.8174298" lon="11.9327822"><ele>1.0</ele><time>2026-04-26T13:53:21.904Z</time></trkpt><trkpt lat="44.8175209" lon="11.9330623"><ele>2.0</ele><time>2026-04-26T13:53:22.903Z</time></trkpt><trkpt lat="44.8176167" lon="11.9333472"><ele>1.0</ele><time>2026-04-26T13:53:23.903Z</time></trkpt><trkpt lat="44.817712" lon="11.9336366"><ele>0.0</ele><time>2026-04-26T13:53:24.904Z</time></trkpt><trkpt lat="44.8178092" lon="11.9339312"><ele>0.5</ele><time>2026-04-26T13:53:25.904Z</time></trkpt><trkpt lat="44.8179058" lon="11.9342235"><ele>1.0</ele><time>2026-04-26T13:53:26.904Z</time></trkpt><trkpt lat="44.8179939" lon="11.9345135"><ele>1.0</ele><time>2026-04-26T13:53:27.904Z</time></trkpt><trkpt lat="44.8180903" lon="11.9347994"><ele>1.0</ele><time>2026-04-26T13:53:28.904Z</time></trkpt><trkpt lat="44.8181835" lon="11.935093"><ele>0.5</ele><time>2026-04-26T13:53:29.903Z</time></trkpt><trkpt lat="44.8182805" lon="11.9353786"><ele>0.0</ele><time>2026-04-26T13:53:30.904Z</time></trkpt><trkpt lat="44.818372" lon="11.9356719"><ele>-0.5</ele><time>2026-04-26T13:53:31.903Z</time></trkpt><trkpt lat="44.8184692" lon="11.935962"><ele>-1.0</ele><time>2026-04-26T13:53:32.904Z</time></trkpt><trkpt lat="44.8185678" lon="11.936256"><ele>-1.0</ele><time>2026-04-26T13:53:33.903Z</time></trkpt><trkpt lat="44.8186643" lon="11.936547"><ele>-1.0</ele><time>2026-04-26T13:53:34.903Z</time></trkpt><trkpt lat="44.8187629" lon="11.9368378"><ele>0.33333333333333337</ele><time>2026-04-26T13:53:35.903Z</time></trkpt><trkpt lat="44.8188598" lon="11.9371288"><ele>1.6666666666666667</ele><time>2026-04-26T13:53:36.903Z</time></trkpt><trkpt lat="44.8189472" lon="11.9374138"><ele>3.0</ele><time>2026-04-26T13:53:37.903Z</time></trkpt><trkpt lat="44.8190423" lon="11.937682"><ele>3.0</ele><time>2026-04-26T13:53:38.903Z</time></trkpt><trkpt lat="44.8191354" lon="11.9379471"><ele>3.0</ele><time>2026-04-26T13:53:39.904Z</time></trkpt><trkpt lat="44.8192098" lon="11.9381871"><ele>3.0</ele><time>2026-04-26T13:53:40.904Z</time></trkpt><trkpt lat="44.819287" lon="11.9384215"><ele>1.6666666666666667</ele><time>2026-04-26T13:53:41.903Z</time></trkpt><trkpt lat="44.819365" lon="11.9386515"><ele>0.33333333333333337</ele><time>2026-04-26T13:53:42.903Z</time></trkpt><trkpt lat="44.8194358" lon="11.9388773"><ele>-1.0</ele><time>2026-04-26T13:53:43.903Z</time></trkpt><trkpt lat="44.8195035" lon="11.9390889"><ele>-0.3333333333333333</ele><time>2026-04-26T13:53:44.903Z</time></trkpt><trkpt lat="44.8195728" lon="11.9393023"><ele>0.3333333333333333</ele><time>2026-04-26T13:53:45.904Z</time></trkpt><trkpt lat="44.8196432" lon="11.9395202"><ele>1.0</ele><time>2026-04-26T13:53:46.903Z</time></trkpt><trkpt lat="44.8197162" lon="11.9397433"><ele>1.0</ele><time>2026-04-26T13:53:47.904Z</time></trkpt><trkpt lat="44.8197865" lon="11.939962"><ele>1.0</ele><time>2026-04-26T13:53:48.904Z</time></trkpt><trkpt lat="44.8198545" lon="11.9401722"><ele>1.0</ele><time>2026-04-26T13:53:49.904Z</time></trkpt><trkpt lat="44.819929" lon="11.9403925"><ele>1.0</ele><time>2026-04-26T13:53:50.903Z</time></trkpt><trkpt lat="44.8199959" lon="11.9405993"><ele>1.0</ele><time>2026-04-26T13:53:51.904Z</time></trkpt><trkpt lat="44.8200618" lon="11.9408001"><ele>1.0</ele><time>2026-04-26T13:53:52.903Z</time></trkpt><trkpt lat="44.820119" lon="11.9409827"><ele>0.25</ele><time>2026-04-26T13:53:53.904Z</time></trkpt><trkpt lat="44.8201766" lon="11.9411656"><ele>-0.5</ele><time>2026-04-26T13:53:54.903Z</time></trkpt><trkpt lat="44.820236" lon="11.9413417"><ele>-1.25</ele><time>2026-04-26T13:53:55.903Z</time></trkpt><trkpt lat="44.8202931" lon="11.9415073"><ele>-2.0</ele><time>2026-04-26T13:53:56.903Z</time></trkpt><trkpt lat="44.8203453" lon="11.9416584"><ele>-1.75</ele><time>2026-04-26T13:53:57.904Z</time></trkpt><trkpt lat="44.8203937" lon="11.9418158"><ele>-1.5</ele><time>2026-04-26T13:53:58.904Z</time></trkpt><trkpt lat="44.8204436" lon="11.94198"><ele>-1.25</ele><time>2026-04-26T13:53:59.904Z</time></trkpt><trkpt lat="44.820493" lon="11.94214"><ele>-1.0</ele><time>2026-04-26T13:54:00.903Z</time></trkpt><trkpt lat="44.8205467" lon="11.9422978"><ele>-1.0</ele><time>2026-04-26T13:54:01.904Z</time></trkpt><trkpt lat="44.8205969" lon="11.9424599"><ele>-1.0</ele><time>2026-04-26T13:54:02.904Z</time></trkpt><trkpt lat="44.8206533" lon="11.9426265"><ele>-1.0</ele><time>2026-04-26T13:54:03.904Z</time></trkpt><trkpt lat="44.8207079" lon="11.9427881"><ele>-1.0</ele><time>2026-04-26T13:54:04.904Z</time></trkpt><trkpt lat="44.8207629" lon="11.9429602"><ele>-1.0</ele><time>2026-04-26T13:54:05.904Z</time></trkpt><trkpt lat="44.8208185" lon="11.9431372"><ele>-1.0</ele><time>2026-04-26T13:54:06.904Z</time></trkpt><trkpt lat="44.8208751" lon="11.9433109"><ele>-1.0</ele><time>2026-04-26T13:54:07.903Z</time></trkpt><trkpt lat="44.8209348" lon="11.9434948"><ele>-1.0</ele><time>2026-04-26T13:54:08.903Z</time></trkpt><trkpt lat="44.8209909" lon="11.9436854"><ele>-1.3333333333333333</ele><time>2026-04-26T13:54:09.903Z</time></trkpt><trkpt lat="44.8210559" lon="11.943879"><ele>-1.6666666666666665</ele><time>2026-04-26T13:54:10.903Z</time></trkpt><trkpt lat="44.8211267" lon="11.9440687"><ele>-2.0</ele><time>2026-04-26T13:54:11.904Z</time></trkpt><trkpt lat="44.8211896" lon="11.944275"><ele>-2.0</ele><time>2026-04-26T13:54:12.904Z</time></trkpt><trkpt lat="44.8212598" lon="11.9444919"><ele>-2.0</ele><time>2026-04-26T13:54:13.903Z</time></trkpt><trkpt lat="44.821332" lon="11.9447199"><ele>-2.0</ele><time>2026-04-26T13:54:14.904Z</time></trkpt><trkpt lat="44.8214092" lon="11.9449525"><ele>-1.6666666666666665</ele><time>2026-04-26T13:54:15.904Z</time></trkpt><trkpt lat="44.8214887" lon="11.9451906"><ele>-1.3333333333333333</ele><time>2026-04-26T13:54:16.903Z</time></trkpt><trkpt lat="44.8215701" lon="11.9454292"><ele>-1.0</ele><time>2026-04-26T13:54:17.904Z</time></trkpt><trkpt lat="44.8216523" lon="11.9456801"><ele>-1.3333333333333333</ele><time>2026-04-26T13:54:18.904Z</time></trkpt><trkpt lat="44.8217339" lon="11.9459304"><ele>-1.6666666666666665</ele><time>2026-04-26T13:54:19.903Z</time></trkpt><trkpt lat="44.8218109" lon="11.9461938"><ele>-2.0</ele><time>2026-04-26T13:54:20.904Z</time></trkpt><trkpt lat="44.8218793" lon="11.9464659"><ele>-2.6666666666666665</ele><time>2026-04-26T13:54:21.903Z</time></trkpt><trkpt lat="44.8219379" lon="11.9467481"><ele>-3.333333333333333</ele><time>2026-04-26T13:54:22.904Z</time></trkpt><trkpt lat="44.8219893" lon="11.9470355"><ele>-4.0</ele><time>2026-04-26T13:54:23.904Z</time></trkpt><trkpt lat="44.8220312" lon="11.947327"><ele>-3.6666666666666665</ele><time>2026-04-26T13:54:24.904Z</time></trkpt><trkpt lat="44.8220639" lon="11.9476293"><ele>-3.333333333333333</ele><time>2026-04-26T13:54:25.903Z</time></trkpt><trkpt lat="44.8220811" lon="11.9479353"><ele>-3.0</ele><time>2026-04-26T13:54:26.903Z</time></trkpt><trkpt lat="44.8220907" lon="11.9482409"><ele>-2.6666666666666665</ele><time>2026-04-26T13:54:27.904Z</time></trkpt><trkpt lat="44.8220929" lon="11.9485509"><ele>-2.333333333333333</ele><time>2026-04-26T13:54:28.903Z</time></trkpt><trkpt lat="44.8220939" lon="11.9488658"><ele>-2.0</ele><time>2026-04-26T13:54:29.904Z</time></trkpt><trkpt lat="44.8221011" lon="11.9491807"><ele>-2.0</ele><time>2026-04-26T13:54:30.903Z</time></trkpt><trkpt lat="44.8221056" lon="11.9494973"><ele>-2.0</ele><time>2026-04-26T13:54:31.903Z</time></trkpt><trkpt lat="44.8221048" lon="11.9498083"><ele>-2.0</ele><time>2026-04-26T13:54:32.903Z</time></trkpt><trkpt lat="44.8221111" lon="11.950118"><ele>-2.333333333333333</ele><time>2026-04-26T13:54:33.903Z</time></trkpt><trkpt lat="44.8221165" lon="11.950426"><ele>-2.6666666666666665</ele><time>2026-04-26T13:54:34.903Z</time></trkpt><trkpt lat="44.8221202" lon="11.9507352"><ele>-3.0</ele><time>2026-04-26T13:54:35.904Z</time></trkpt><trkpt lat="44.8221306" lon="11.9510416"><ele>-3.0</ele><time>2026-04-26T13:54:36.904Z</time></trkpt><trkpt lat="44.8221349" lon="11.9513466"><ele>-3.0</ele><time>2026-04-26T13:54:37.903Z</time></trkpt><trkpt lat="44.8221373" lon="11.9516471"><ele>-3.0</ele><time>2026-04-26T13:54:38.904Z</time></trkpt><trkpt lat="44.8221405" lon="11.9519437"><ele>-3.0</ele><time>2026-04-26T13:54:39.904Z</time></trkpt><trkpt lat="44.8221523" lon="11.9522416"><ele>-3.0</ele><time>2026-04-26T13:54:40.903Z</time></trkpt><trkpt lat="44.8221606" lon="11.9525285"><ele>-3.0</ele><time>2026-04-26T13:54:41.903Z</time></trkpt><trkpt lat="44.8221631" lon="11.9528212"><ele>-3.0</ele><time>2026-04-26T13:54:42.903Z</time></trkpt><trkpt lat="44.8221673" lon="11.9531077"><ele>-3.0</ele><time>2026-04-26T13:54:43.903Z</time></trkpt><trkpt lat="44.8221686" lon="11.9533935"><ele>-3.0</ele><time>2026-04-26T13:54:44.904Z</time></trkpt><trkpt lat="44.8221722" lon="11.9536753"><ele>-3.0</ele><time>2026-04-26T13:54:45.903Z</time></trkpt><trkpt lat="44.822183" lon="11.9539585"><ele>-3.0</ele><time>2026-04-26T13:54:46.903Z</time></trkpt><trkpt lat="44.822181" lon="11.9542371"><ele>-3.0</ele><time>2026-04-26T13:54:47.903Z</time></trkpt><trkpt lat="44.8221845" lon="11.9545109"><ele>-3.0</ele><time>2026-04-26T13:54:48.904Z</time></trkpt><trkpt lat="44.8221902" lon="11.9547949"><ele>-3.0</ele><time>2026-04-26T13:54:49.903Z</time></trkpt><trkpt lat="44.8221997" lon="11.9550761"><ele>-3.0</ele><time>2026-04-26T13:54:50.904Z</time></trkpt><trkpt lat="44.8222034" lon="11.955348"><ele>-3.0</ele><time>2026-04-26T13:54:51.903Z</time></trkpt><trkpt lat="44.822204" lon="11.9556192"><ele>-3.0</ele><time>2026-04-26T13:54:52.904Z</time></trkpt><trkpt lat="44.822207" lon="11.9558898"><ele>-3.0</ele><time>2026-04-26T13:54:53.903Z</time></trkpt><trkpt lat="44.8222077" lon="11.9561637"><ele>-3.0</ele><time>2026-04-26T13:54:54.903Z</time></trkpt><trkpt lat="44.8222027" lon="11.9564292"><ele>-3.0</ele><time>2026-04-26T13:54:55.904Z</time></trkpt><trkpt lat="44.8222056" lon="11.9567046"><ele>-3.0</ele><time>2026-04-26T13:54:56.903Z</time></trkpt><trkpt lat="44.8222051" lon="11.9569762"><ele>-2.6666666666666665</ele><time>2026-04-26T13:54:57.903Z</time></trkpt><trkpt lat="44.8222078" lon="11.9572539"><ele>-2.333333333333333</ele><time>2026-04-26T13:54:58.903Z</time></trkpt><trkpt lat="44.8222133" lon="11.9575296"><ele>-2.0</ele><time>2026-04-26T13:54:59.904Z</time></trkpt><trkpt lat="44.8222192" lon="11.9578053"><ele>-2.0</ele><time>2026-04-26T13:55:00.903Z</time></trkpt><trkpt lat="44.8222242" lon="11.9580814"><ele>-2.0</ele><time>2026-04-26T13:55:01.904Z</time></trkpt><trkpt lat="44.8222255" lon="11.9583583"><ele>-2.0</ele><time>2026-04-26T13:55:02.904Z</time></trkpt><trkpt lat="44.8222288" lon="11.9586358"><ele>-2.0</ele><time>2026-04-26T13:55:03.904Z</time></trkpt><trkpt lat="44.8222307" lon="11.9589102"><ele>-2.0</ele><time>2026-04-26T13:55:04.904Z</time></trkpt><trkpt lat="44.8222325" lon="11.9591813"><ele>-2.0</ele><time>2026-04-26T13:55:05.904Z</time></trkpt><trkpt lat="44.8222347" lon="11.9594525"><ele>-2.0</ele><time>2026-04-26T13:55:06.903Z</time></trkpt><trkpt lat="44.8222361" lon="11.9597283"><ele>-2.0</ele><time>2026-04-26T13:55:07.904Z</time></trkpt><trkpt lat="44.8222375" lon="11.9600046"><ele>-2.0</ele><time>2026-04-26T13:55:08.903Z</time></trkpt><trkpt lat="44.8222393" lon="11.9602822"><ele>-2.333333333333333</ele><time>2026-04-26T13:55:09.904Z</time></trkpt><trkpt lat="44.8222498" lon="11.9605542"><ele>-2.6666666666666665</ele><time>2026-04-26T13:55:10.904Z</time></trkpt><trkpt lat="44.8222529" lon="11.9608289"><ele>-3.0</ele><time>2026-04-26T13:55:11.903Z</time></trkpt><trkpt lat="44.8222576" lon="11.961104"><ele>-3.0</ele><time>2026-04-26T13:55:12.904Z</time></trkpt><trkpt lat="44.822262" lon="11.9613813"><ele>-3.0</ele><time>2026-04-26T13:55:13.903Z</time></trkpt><trkpt lat="44.8222635" lon="11.9616627"><ele>-3.0</ele><time>2026-04-26T13:55:14.903Z</time></trkpt><trkpt lat="44.8222719" lon="11.961938"><ele>-3.0</ele><time>2026-04-26T13:55:15.903Z</time></trkpt><trkpt lat="44.8222789" lon="11.9622211"><ele>-3.0</ele><time>2026-04-26T13:55:16.903Z</time></trkpt><trkpt lat="44.822283" lon="11.962502"><ele>-3.0</ele><time>2026-04-26T13:55:17.904Z</time></trkpt><trkpt lat="44.8222905" lon="11.9627824"><ele>-3.0</ele><time>2026-04-26T13:55:18.903Z</time></trkpt><trkpt lat="44.8222917" lon="11.9630722"><ele>-3.0</ele><time>2026-04-26T13:55:19.903Z</time></trkpt><trkpt lat="44.8222981" lon="11.9633585"><ele>-3.0</ele><time>2026-04-26T13:55:20.903Z</time></trkpt><trkpt lat="44.8223071" lon="11.9636569"><ele>-3.0</ele><time>2026-04-26T13:55:21.903Z</time></trkpt><trkpt lat="44.8223128" lon="11.963959"><ele>-3.0</ele><time>2026-04-26T13:55:22.904Z</time></trkpt><trkpt lat="44.8223198" lon="11.9642688"><ele>-3.0</ele><time>2026-04-26T13:55:23.904Z</time></trkpt><trkpt lat="44.8223241" lon="11.9645752"><ele>-3.0</ele><time>2026-04-26T13:55:24.904Z</time></trkpt><trkpt lat="44.8223273" lon="11.9648839"><ele>-3.0</ele><time>2026-04-26T13:55:25.903Z</time></trkpt><trkpt lat="44.8223263" lon="11.9651925"><ele>-3.0</ele><time>2026-04-26T13:55:26.904Z</time></trkpt><trkpt lat="44.8223286" lon="11.9654964"><ele>-3.0</ele><time>2026-04-26T13:55:27.903Z</time></trkpt><trkpt lat="44.8223345" lon="11.9658006"><ele>-3.0</ele><time>2026-04-26T13:55:28.903Z</time></trkpt><trkpt lat="44.8223425" lon="11.9661115"><ele>-3.0</ele><time>2026-04-26T13:55:29.904Z</time></trkpt><trkpt lat="44.8223453" lon="11.9664126"><ele>-3.0</ele><time>2026-04-26T13:55:30.904Z</time></trkpt><trkpt lat="44.8223468" lon="11.9667207"><ele>-3.0</ele><time>2026-04-26T13:55:31.903Z</time></trkpt><trkpt lat="44.8223481" lon="11.9670204"><ele>-3.0</ele><time>2026-04-26T13:55:32.904Z</time></trkpt><trkpt lat="44.8223511" lon="11.96733"><ele>-3.333333333333333</ele><time>2026-04-26T13:55:33.903Z</time></trkpt><trkpt lat="44.8223604" lon="11.9676401"><ele>-3.6666666666666665</ele><time>2026-04-26T13:55:34.904Z</time></trkpt><trkpt lat="44.8223626" lon="11.9679486"><ele>-4.0</ele><time>2026-04-26T13:55:35.904Z</time></trkpt><trkpt lat="44.8223684" lon="11.9682573"><ele>-3.333333333333333</ele><time>2026-04-26T13:55:36.904Z</time></trkpt><trkpt lat="44.8223754" lon="11.9685644"><ele>-2.6666666666666665</ele><time>2026-04-26T13:55:37.903Z</time></trkpt><trkpt lat="44.8223817" lon="11.9688625"><ele>-2.0</ele><time>2026-04-26T13:55:38.903Z</time></trkpt><trkpt lat="44.8223742" lon="11.9691725"><ele>-1.6666666666666665</ele><time>2026-04-26T13:55:39.904Z</time></trkpt><trkpt lat="44.8223556" lon="11.969479"><ele>-1.3333333333333333</ele><time>2026-04-26T13:55:40.903Z</time></trkpt><trkpt lat="44.8223304" lon="11.9697771"><ele>-1.0</ele><time>2026-04-26T13:55:41.903Z</time></trkpt><trkpt lat="44.8222946" lon="11.970078"><ele>-1.0</ele><time>2026-04-26T13:55:42.904Z</time></trkpt><trkpt lat="44.822252" lon="11.9703754"><ele>-1.0</ele><time>2026-04-26T13:55:43.903Z</time></trkpt><trkpt lat="44.8222041" lon="11.970668"><ele>-1.0</ele><time>2026-04-26T13:55:44.903Z</time></trkpt><trkpt lat="44.8221505" lon="11.9709607"><ele>-1.3333333333333333</ele><time>2026-04-26T13:55:45.904Z</time></trkpt><trkpt lat="44.8220911" lon="11.9712528"><ele>-1.6666666666666665</ele><time>2026-04-26T13:55:46.904Z</time></trkpt><trkpt lat="44.8220356" lon="11.9715451"><ele>-2.0</ele><time>2026-04-26T13:55:47.903Z</time></trkpt><trkpt lat="44.8219731" lon="11.9718361"><ele>-2.6666666666666665</ele><time>2026-04-26T13:55:48.904Z</time></trkpt><trkpt lat="44.8219125" lon="11.972123"><ele>-3.333333333333333</ele><time>2026-04-26T13:55:49.903Z</time></trkpt><trkpt lat="44.8218544" lon="11.9724118"><ele>-4.0</ele><time>2026-04-26T13:55:50.904Z</time></trkpt><trkpt lat="44.8217974" lon="11.9726961"><ele>-3.333333333333333</ele><time>2026-04-26T13:55:51.903Z</time></trkpt><trkpt lat="44.8217389" lon="11.9729791"><ele>-2.6666666666666665</ele><time>2026-04-26T13:55:52.904Z</time></trkpt><trkpt lat="44.8216751" lon="11.9732662"><ele>-2.0</ele><time>2026-04-26T13:55:53.904Z</time></trkpt><trkpt lat="44.8216198" lon="11.9735558"><ele>-2.0</ele><time>2026-04-26T13:55:54.903Z</time></trkpt><trkpt lat="44.8215645" lon="11.9738429"><ele>-2.0</ele><time>2026-04-26T13:55:55.903Z</time></trkpt><trkpt lat="44.8215107" lon="11.9741314"><ele>-2.0</ele><time>2026-04-26T13:55:56.903Z</time></trkpt><trkpt lat="44.8214539" lon="11.9744152"><ele>-2.333333333333333</ele><time>2026-04-26T13:55:57.904Z</time></trkpt><trkpt lat="44.8213994" lon="11.9746963"><ele>-2.6666666666666665</ele><time>2026-04-26T13:55:58.904Z</time></trkpt><trkpt lat="44.8213416" lon="11.9749894"><ele>-3.0</ele><time>2026-04-26T13:55:59.903Z</time></trkpt><trkpt lat="44.8212812" lon="11.9752816"><ele>-3.333333333333333</ele><time>2026-04-26T13:56:00.904Z</time></trkpt><trkpt lat="44.821219" lon="11.9755816"><ele>-3.6666666666666665</ele><time>2026-04-26T13:56:01.903Z</time></trkpt><trkpt lat="44.8211592" lon="11.9758806"><ele>-4.0</ele><time>2026-04-26T13:56:02.903Z</time></trkpt><trkpt lat="44.8211014" lon="11.9761869"><ele>-4.0</ele><time>2026-04-26T13:56:03.903Z</time></trkpt><trkpt lat="44.8210407" lon="11.976489"><ele>-4.0</ele><time>2026-04-26T13:56:04.903Z</time></trkpt><trkpt lat="44.8209829" lon="11.9767885"><ele>-4.0</ele><time>2026-04-26T13:56:05.903Z</time></trkpt><trkpt lat="44.820918" lon="11.977091"><ele>-4.0</ele><time>2026-04-26T13:56:06.904Z</time></trkpt><trkpt lat="44.8208585" lon="11.9773881"><ele>-4.0</ele><time>2026-04-26T13:56:07.903Z</time></trkpt><trkpt lat="44.8207974" lon="11.9776864"><ele>-4.0</ele><time>2026-04-26T13:56:08.903Z</time></trkpt><trkpt lat="44.8207362" lon="11.9779865"><ele>-4.0</ele><time>2026-04-26T13:56:09.903Z</time></trkpt><trkpt lat="44.8206763" lon="11.9782853"><ele>-4.0</ele><time>2026-04-26T13:56:10.903Z</time></trkpt><trkpt lat="44.8206164" lon="11.9785821"><ele>-4.0</ele><time>2026-04-26T13:56:11.903Z</time></trkpt><trkpt lat="44.8205561" lon="11.9788806"><ele>-4.333333333333333</ele><time>2026-04-26T13:56:12.903Z</time></trkpt><trkpt lat="44.8204928" lon="11.9791801"><ele>-4.666666666666667</ele><time>2026-04-26T13:56:13.904Z</time></trkpt><trkpt lat="44.8204324" lon="11.9794794"><ele>-5.0</ele><time>2026-04-26T13:56:14.903Z</time></trkpt><trkpt lat="44.8203706" lon="11.9797799"><ele>-4.333333333333334</ele><time>2026-04-26T13:56:15.904Z</time></trkpt><trkpt lat="44.8203038" lon="11.98007"><ele>-3.666666666666667</ele><time>2026-04-26T13:56:16.904Z</time></trkpt><trkpt lat="44.820242" lon="11.9803677"><ele>-3.0</ele><time>2026-04-26T13:56:17.903Z</time></trkpt><trkpt lat="44.8201834" lon="11.9806692"><ele>-3.0</ele><time>2026-04-26T13:56:18.904Z</time></trkpt><trkpt lat="44.820123" lon="11.9809667"><ele>-3.0</ele><time>2026-04-26T13:56:19.903Z</time></trkpt><trkpt lat="44.8200679" lon="11.9812717"><ele>-3.0</ele><time>2026-04-26T13:56:20.903Z</time></trkpt><trkpt lat="44.8200089" lon="11.9815699"><ele>-3.0</ele><time>2026-04-26T13:56:21.904Z</time></trkpt><trkpt lat="44.8199462" lon="11.9818713"><ele>-3.0</ele><time>2026-04-26T13:56:22.903Z</time></trkpt><trkpt lat="44.8198857" lon="11.9821729"><ele>-3.0</ele><time>2026-04-26T13:56:23.903Z</time></trkpt><trkpt lat="44.8198254" lon="11.9824716"><ele>-3.0</ele><time>2026-04-26T13:56:24.903Z</time></trkpt><trkpt lat="44.8197719" lon="11.9827763"><ele>-3.0</ele><time>2026-04-26T13:56:25.903Z</time></trkpt><trkpt lat="44.8197146" lon="11.9830706"><ele>-3.0</ele><time>2026-04-26T13:56:26.903Z</time></trkpt><trkpt lat="44.8196545" lon="11.9833668"><ele>-3.333333333333333</ele><time>2026-04-26T13:56:27.903Z</time></trkpt><trkpt lat="44.8195942" lon="11.9836637"><ele>-3.6666666666666665</ele><time>2026-04-26T13:56:28.903Z</time></trkpt><trkpt lat="44.8195345" lon="11.9839666"><ele>-4.0</ele><time>2026-04-26T13:56:29.903Z</time></trkpt><trkpt lat="44.8194712" lon="11.9842664"><ele>-4.0</ele><time>2026-04-26T13:56:30.904Z</time></trkpt><trkpt lat="44.8194106" lon="11.9845637"><ele>-4.0</ele><time>2026-04-26T13:56:31.903Z</time></trkpt><trkpt lat="44.8193487" lon="11.9848686"><ele>-4.0</ele><time>2026-04-26T13:56:32.904Z</time></trkpt><trkpt lat="44.8192881" lon="11.9851726"><ele>-3.333333333333333</ele><time>2026-04-26T13:56:33.903Z</time></trkpt><trkpt lat="44.8192334" lon="11.9854634"><ele>-2.6666666666666665</ele><time>2026-04-26T13:56:34.903Z</time></trkpt><trkpt lat="44.8191756" lon="11.9857525"><ele>-2.0</ele><time>2026-04-26T13:56:35.903Z</time></trkpt><trkpt lat="44.8191162" lon="11.9860474"><ele>-2.0</ele><time>2026-04-26T13:56:36.903Z</time></trkpt><trkpt lat="44.8190579" lon="11.9863461"><ele>-2.0</ele><time>2026-04-26T13:56:37.904Z</time></trkpt><trkpt lat="44.8189964" lon="11.9866483"><ele>-2.0</ele><time>2026-04-26T13:56:38.903Z</time></trkpt><trkpt lat="44.8189376" lon="11.9869497"><ele>-2.0</ele><time>2026-04-26T13:56:39.903Z</time></trkpt><trkpt lat="44.8188803" lon="11.9872569"><ele>-2.0</ele><time>2026-04-26T13:56:40.904Z</time></trkpt><trkpt lat="44.8188222" lon="11.9875648"><ele>-2.6666666666666665</ele><time>2026-04-26T13:56:41.903Z</time></trkpt><trkpt lat="44.8187674" lon="11.9878711"><ele>-3.333333333333333</ele><time>2026-04-26T13:56:42.903Z</time></trkpt><trkpt lat="44.818711" lon="11.9881734"><ele>-4.0</ele><time>2026-04-26T13:56:43.904Z</time></trkpt><trkpt lat="44.8186607" lon="11.9884714"><ele>-4.333333333333333</ele><time>2026-04-26T13:56:44.903Z</time></trkpt><trkpt lat="44.8186096" lon="11.9887718"><ele>-4.666666666666667</ele><time>2026-04-26T13:56:45.904Z</time></trkpt><trkpt lat="44.8185536" lon="11.9890795"><ele>-5.0</ele><time>2026-04-26T13:56:46.904Z</time></trkpt><trkpt lat="44.8185021" lon="11.9893861"><ele>-4.333333333333334</ele><time>2026-04-26T13:56:47.903Z</time></trkpt><trkpt lat="44.8184513" lon="11.9896954"><ele>-3.666666666666667</ele><time>2026-04-26T13:56:48.904Z</time></trkpt><trkpt lat="44.8183992" lon="11.9899956"><ele>-3.0</ele><time>2026-04-26T13:56:49.904Z</time></trkpt><trkpt lat="44.8183489" lon="11.9903006"><ele>-3.0</ele><time>2026-04-26T13:56:50.903Z</time></trkpt><trkpt lat="44.8182957" lon="11.9905993"><ele>-3.0</ele><time>2026-04-26T13:56:51.903Z</time></trkpt><trkpt lat="44.8182418" lon="11.9909018"><ele>-3.0</ele><time>2026-04-26T13:56:52.903Z</time></trkpt><trkpt lat="44.8181903" lon="11.9911992"><ele>-3.0</ele><time>2026-04-26T13:56:53.903Z</time></trkpt><trkpt lat="44.8181366" lon="11.9914974"><ele>-3.0</ele><time>2026-04-26T13:56:54.904Z</time></trkpt><trkpt lat="44.81809" lon="11.9917972"><ele>-3.0</ele><time>2026-04-26T13:56:55.904Z</time></trkpt><trkpt lat="44.8180392" lon="11.9920945"><ele>-3.333333333333333</ele><time>2026-04-26T13:56:56.904Z</time></trkpt><trkpt lat="44.8179865" lon="11.9923865"><ele>-3.6666666666666665</ele><time>2026-04-26T13:56:57.903Z</time></trkpt><trkpt lat="44.8179362" lon="11.992682"><ele>-4.0</ele><time>2026-04-26T13:56:58.903Z</time></trkpt><trkpt lat="44.8178863" lon="11.992976"><ele>-4.0</ele><time>2026-04-26T13:56:59.903Z</time></trkpt><trkpt lat="44.8178372" lon="11.9932666"><ele>-4.0</ele><time>2026-04-26T13:57:00.903Z</time></trkpt><trkpt lat="44.8177853" lon="11.9935557"><ele>-4.0</ele><time>2026-04-26T13:57:01.904Z</time></trkpt><trkpt lat="44.8177372" lon="11.9938418"><ele>-4.333333333333333</ele><time>2026-04-26T13:57:02.904Z</time></trkpt><trkpt lat="44.8176924" lon="11.9941269"><ele>-4.666666666666667</ele><time>2026-04-26T13:57:03.904Z</time></trkpt><trkpt lat="44.8176456" lon="11.9944043"><ele>-5.0</ele><time>2026-04-26T13:57:04.904Z</time></trkpt><trkpt lat="44.8176006" lon="11.9946899"><ele>-4.333333333333334</ele><time>2026-04-26T13:57:05.903Z</time></trkpt><trkpt lat="44.8175531" lon="11.994972"><ele>-3.666666666666667</ele><time>2026-04-26T13:57:06.903Z</time></trkpt><trkpt lat="44.8174979" lon="11.9952561"><ele>-3.0</ele><time>2026-04-26T13:57:07.904Z</time></trkpt><trkpt lat="44.8174438" lon="11.9955347"><ele>-3.0</ele><time>2026-04-26T13:57:08.904Z</time></trkpt><trkpt lat="44.8173951" lon="11.9958168"><ele>-3.0</ele><time>2026-04-26T13:57:09.903Z</time></trkpt><trkpt lat="44.8173478" lon="11.9961013"><ele>-3.0</ele><time>2026-04-26T13:57:10.904Z</time></trkpt><trkpt lat="44.8173068" lon="11.9963899"><ele>-2.6666666666666665</ele><time>2026-04-26T13:57:11.904Z</time></trkpt><trkpt lat="44.8172586" lon="11.9966746"><ele>-2.333333333333333</ele><time>2026-04-26T13:57:12.904Z</time></trkpt><trkpt lat="44.8172107" lon="11.99696"><ele>-2.0</ele><time>2026-04-26T13:57:13.903Z</time></trkpt><trkpt lat="44.8171647" lon="11.997244"><ele>-1.6666666666666665</ele><time>2026-04-26T13:57:14.904Z</time></trkpt><trkpt lat="44.8171179" lon="11.9975249"><ele>-1.3333333333333333</ele><time>2026-04-26T13:57:15.903Z</time></trkpt><trkpt lat="44.8170723" lon="11.9978075"><ele>-1.0</ele><time>2026-04-26T13:57:16.904Z</time></trkpt><trkpt lat="44.8170224" lon="11.9980903"><ele>-1.6666666666666665</ele><time>2026-04-26T13:57:17.904Z</time></trkpt><trkpt lat="44.8169754" lon="11.9983594"><ele>-2.3333333333333335</ele><time>2026-04-26T13:57:18.904Z</time></trkpt><trkpt lat="44.8169299" lon="11.9986136"><ele>-3.0</ele><time>2026-04-26T13:57:19.903Z</time></trkpt><trkpt lat="44.816888" lon="11.998855"><ele>-3.0</ele><time>2026-04-26T13:57:20.904Z</time></trkpt><trkpt lat="44.8168504" lon="11.9990823"><ele>-3.0</ele><time>2026-04-26T13:57:21.903Z</time></trkpt><trkpt lat="44.8168141" lon="11.9993124"><ele>-3.0</ele><time>2026-04-26T13:57:22.903Z</time></trkpt><trkpt lat="44.8167717" lon="11.9995487"><ele>-1.0</ele><time>2026-04-26T13:57:23.904Z</time></trkpt><trkpt lat="44.8167317" lon="11.9997891"><ele>1.0</ele><time>2026-04-26T13:57:24.904Z</time></trkpt><trkpt lat="44.8166916" lon="12.0000435"><ele>3.0</ele><time>2026-04-26T13:57:25.903Z</time></trkpt><trkpt lat="44.8166458" lon="12.0002915"><ele>3.0</ele><time>2026-04-26T13:57:26.904Z</time></trkpt><trkpt lat="44.8166002" lon="12.000552"><ele>3.0</ele><time>2026-04-26T13:57:27.904Z</time></trkpt><trkpt lat="44.8165547" lon="12.0008173"><ele>3.0</ele><time>2026-04-26T13:57:28.904Z</time></trkpt><trkpt lat="44.816511" lon="12.0010845"><ele>2.6666666666666665</ele><time>2026-04-26T13:57:29.903Z</time></trkpt><trkpt lat="44.8164674" lon="12.001356"><ele>2.333333333333333</ele><time>2026-04-26T13:57:30.903Z</time></trkpt><trkpt lat="44.816423" lon="12.0016296"><ele>2.0</ele><time>2026-04-26T13:57:31.903Z</time></trkpt><trkpt lat="44.8163753" lon="12.0019105"><ele>1.3333333333333333</ele><time>2026-04-26T13:57:32.904Z</time></trkpt><trkpt lat="44.8163266" lon="12.0021867"><ele>0.6666666666666666</ele><time>2026-04-26T13:57:33.904Z</time></trkpt><trkpt lat="44.8162712" lon="12.0024651"><ele>0.0</ele><time>2026-04-26T13:57:34.903Z</time></trkpt><trkpt lat="44.8162227" lon="12.0027498"><ele>0.0</ele><time>2026-04-26T13:57:35.903Z</time></trkpt><trkpt lat="44.8161719" lon="12.0030496"><ele>0.0</ele><time>2026-04-26T13:57:36.904Z</time></trkpt><trkpt lat="44.8161226" lon="12.0033382"><ele>0.0</ele><time>2026-04-26T13:57:37.903Z</time></trkpt><trkpt lat="44.8160741" lon="12.0036254"><ele>-0.3333333333333333</ele><time>2026-04-26T13:57:38.903Z</time></trkpt><trkpt lat="44.8160227" lon="12.0039201"><ele>-0.6666666666666666</ele><time>2026-04-26T13:57:39.903Z</time></trkpt><trkpt lat="44.815969" lon="12.0042156"><ele>-1.0</ele><time>2026-04-26T13:57:40.903Z</time></trkpt><trkpt lat="44.8159174" lon="12.0045028"><ele>0.0</ele><time>2026-04-26T13:57:41.904Z</time></trkpt><trkpt lat="44.8158714" lon="12.0047887"><ele>1.0</ele><time>2026-04-26T13:57:42.903Z</time></trkpt><trkpt lat="44.8158159" lon="12.0050691"><ele>2.0</ele><time>2026-04-26T13:57:43.904Z</time></trkpt><trkpt lat="44.815762" lon="12.0053521"><ele>2.0</ele><time>2026-04-26T13:57:44.903Z</time></trkpt><trkpt lat="44.815694" lon="12.0056372"><ele>2.0</ele><time>2026-04-26T13:57:45.903Z</time></trkpt><trkpt lat="44.8156218" lon="12.0059067"><ele>2.0</ele><time>2026-04-26T13:57:46.904Z</time></trkpt><trkpt lat="44.8155479" lon="12.0061784"><ele>1.0</ele><time>2026-04-26T13:57:47.903Z</time></trkpt><trkpt lat="44.8154737" lon="12.0064295"><ele>0.0</ele><time>2026-04-26T13:57:48.904Z</time></trkpt><trkpt lat="44.8153901" lon="12.0066799"><ele>-1.0</ele><time>2026-04-26T13:57:49.904Z</time></trkpt><trkpt lat="44.8153048" lon="12.0069119"><ele>-1.3333333333333333</ele><time>2026-04-26T13:57:50.903Z</time></trkpt><trkpt lat="44.8152194" lon="12.0071477"><ele>-1.6666666666666665</ele><time>2026-04-26T13:57:51.904Z</time></trkpt><trkpt lat="44.8151346" lon="12.0073717"><ele>-2.0</ele><time>2026-04-26T13:57:52.904Z</time></trkpt><trkpt lat="44.8150432" lon="12.0075931"><ele>-1.3333333333333333</ele><time>2026-04-26T13:57:53.904Z</time></trkpt><trkpt lat="44.8149564" lon="12.0078102"><ele>-0.6666666666666666</ele><time>2026-04-26T13:57:54.903Z</time></trkpt><trkpt lat="44.8148602" lon="12.0080176"><ele>0.0</ele><time>2026-04-26T13:57:55.903Z</time></trkpt><trkpt lat="44.8147549" lon="12.0082107"><ele>0.0</ele><time>2026-04-26T13:57:56.903Z</time></trkpt><trkpt lat="44.8146413" lon="12.0083995"><ele>0.0</ele><time>2026-04-26T13:57:57.903Z</time></trkpt><trkpt lat="44.8145188" lon="12.0085749"><ele>0.0</ele><time>2026-04-26T13:57:58.903Z</time></trkpt><trkpt lat="44.8143862" lon="12.0087404"><ele>0.0</ele><time>2026-04-26T13:57:59.904Z</time></trkpt><trkpt lat="44.8142439" lon="12.0088976"><ele>0.0</ele><time>2026-04-26T13:58:00.903Z</time></trkpt><trkpt lat="44.8141043" lon="12.0090429"><ele>0.0</ele><time>2026-04-26T13:58:01.903Z</time></trkpt><trkpt lat="44.8139599" lon="12.0091882"><ele>0.0</ele><time>2026-04-26T13:58:02.904Z</time></trkpt><trkpt lat="44.8138182" lon="12.0093369"><ele>0.0</ele><time>2026-04-26T13:58:03.904Z</time></trkpt><trkpt lat="44.8136701" lon="12.0094801"><ele>0.0</ele><time>2026-04-26T13:58:04.904Z</time></trkpt><trkpt lat="44.8135285" lon="12.0096271"><ele>0.0</ele><time>2026-04-26T13:58:05.903Z</time></trkpt><trkpt lat="44.813385" lon="12.0097773"><ele>0.0</ele><time>2026-04-26T13:58:06.903Z</time></trkpt><trkpt lat="44.8132496" lon="12.0099306"><ele>0.0</ele><time>2026-04-26T13:58:07.904Z</time></trkpt><trkpt lat="44.8131357" lon="12.0100924"><ele>0.0</ele><time>2026-04-26T13:58:08.903Z</time></trkpt><trkpt lat="44.8130385" lon="12.0102583"><ele>0.0</ele><time>2026-04-26T13:58:09.904Z</time></trkpt><trkpt lat="44.8129532" lon="12.0104326"><ele>0.0</ele><time>2026-04-26T13:58:10.904Z</time></trkpt><trkpt lat="44.8128791" lon="12.0106034"><ele>0.0</ele><time>2026-04-26T13:58:11.903Z</time></trkpt><trkpt lat="44.8128145" lon="12.010789"><ele>-0.3333333333333333</ele><time>2026-04-26T13:58:12.903Z</time></trkpt><trkpt lat="44.8127455" lon="12.010977"><ele>-0.6666666666666666</ele><time>2026-04-26T13:58:13.904Z</time></trkpt><trkpt lat="44.8126773" lon="12.0111732"><ele>-1.0</ele><time>2026-04-26T13:58:14.903Z</time></trkpt><trkpt lat="44.8126123" lon="12.0113724"><ele>-0.3333333333333333</ele><time>2026-04-26T13:58:15.903Z</time></trkpt><trkpt lat="44.8125497" lon="12.0115743"><ele>0.3333333333333333</ele><time>2026-04-26T13:58:16.903Z</time></trkpt><trkpt lat="44.8124835" lon="12.0117727"><ele>1.0</ele><time>2026-04-26T13:58:17.903Z</time></trkpt><trkpt lat="44.8124175" lon="12.0119705"><ele>1.0</ele><time>2026-04-26T13:58:18.903Z</time></trkpt><trkpt lat="44.8123469" lon="12.0121591"><ele>1.0</ele><time>2026-04-26T13:58:19.904Z</time></trkpt><trkpt lat="44.8122834" lon="12.0123434"><ele>1.0</ele><time>2026-04-26T13:58:20.903Z</time></trkpt><trkpt lat="44.8122261" lon="12.0125296"><ele>1.0</ele><time>2026-04-26T13:58:21.903Z</time></trkpt><trkpt lat="44.8121726" lon="12.0127049"><ele>1.0</ele><time>2026-04-26T13:58:22.903Z</time></trkpt><trkpt lat="44.812127" lon="12.0128807"><ele>1.0</ele><time>2026-04-26T13:58:23.903Z</time></trkpt><trkpt lat="44.8120856" lon="12.0130669"><ele>1.0</ele><time>2026-04-26T13:58:24.904Z</time></trkpt><trkpt lat="44.812057" lon="12.0132557"><ele>1.0</ele><time>2026-04-26T13:58:25.903Z</time></trkpt><trkpt lat="44.8120383" lon="12.0134477"><ele>1.0</ele><time>2026-04-26T13:58:26.904Z</time></trkpt><trkpt lat="44.8120311" lon="12.0136416"><ele>1.0</ele><time>2026-04-26T13:58:27.903Z</time></trkpt><trkpt lat="44.8120327" lon="12.0138405"><ele>1.0</ele><time>2026-04-26T13:58:28.904Z</time></trkpt><trkpt lat="44.8120296" lon="12.0140254"><ele>1.0</ele><time>2026-04-26T13:58:29.904Z</time></trkpt><trkpt lat="44.8120248" lon="12.0142075"><ele>1.5</ele><time>2026-04-26T13:58:30.903Z</time></trkpt><trkpt lat="44.8120042" lon="12.0143942"><ele>2.0</ele><time>2026-04-26T13:58:31.904Z</time></trkpt><trkpt lat="44.8119743" lon="12.0145698"><ele>2.5</ele><time>2026-04-26T13:58:32.904Z</time></trkpt><trkpt lat="44.8119353" lon="12.0147396"><ele>3.0</ele><time>2026-04-26T13:58:33.904Z</time></trkpt><trkpt lat="44.8118904" lon="12.0149107"><ele>2.8</ele><time>2026-04-26T13:58:34.903Z</time></trkpt><trkpt lat="44.8118355" lon="12.0150571"><ele>2.5999999999999996</ele><time>2026-04-26T13:58:35.903Z</time></trkpt><trkpt lat="44.8117795" lon="12.0151865"><ele>2.4000000000000004</ele><time>2026-04-26T13:58:36.904Z</time></trkpt><trkpt lat="44.8117192" lon="12.0153019"><ele>2.2</ele><time>2026-04-26T13:58:37.903Z</time></trkpt><trkpt lat="44.811657" lon="12.0154"><ele>2.0</ele><time>2026-04-26T13:58:38.904Z</time></trkpt><trkpt lat="44.8115963" lon="12.0154988"><ele>1.8</ele><time>2026-04-26T13:58:39.903Z</time></trkpt><trkpt lat="44.8115213" lon="12.0155962"><ele>1.6</ele><time>2026-04-26T13:58:40.903Z</time></trkpt><trkpt lat="44.8114396" lon="12.0156896"><ele>1.4000000000000001</ele><time>2026-04-26T13:58:41.903Z</time></trkpt><trkpt lat="44.8113615" lon="12.0157947"><ele>1.2000000000000002</ele><time>2026-04-26T13:58:42.904Z</time></trkpt><trkpt lat="44.8112775" lon="12.0159074"><ele>1.0</ele><time>2026-04-26T13:58:43.903Z</time></trkpt><trkpt lat="44.8111802" lon="12.0160259"><ele>0.75</ele><time>2026-04-26T13:58:44.903Z</time></trkpt><trkpt lat="44.8110804" lon="12.0161479"><ele>0.5</ele><time>2026-04-26T13:58:45.904Z</time></trkpt><trkpt lat="44.8109789" lon="12.0162768"><ele>0.25</ele><time>2026-04-26T13:58:46.904Z</time></trkpt><trkpt lat="44.810876" lon="12.0164073"><ele>0.0</ele><time>2026-04-26T13:58:47.903Z</time></trkpt><trkpt lat="44.8107735" lon="12.0165306"><ele>0.25</ele><time>2026-04-26T13:58:48.904Z</time></trkpt><trkpt lat="44.8106698" lon="12.0166561"><ele>0.5</ele><time>2026-04-26T13:58:49.903Z</time></trkpt><trkpt lat="44.8105689" lon="12.0167825"><ele>0.75</ele><time>2026-04-26T13:58:50.903Z</time></trkpt><trkpt lat="44.81047" lon="12.0168965"><ele>1.0</ele><time>2026-04-26T13:58:51.903Z</time></trkpt><trkpt lat="44.8103637" lon="12.0170185"><ele>1.0</ele><time>2026-04-26T13:58:52.903Z</time></trkpt><trkpt lat="44.8102645" lon="12.017136"><ele>1.0</ele><time>2026-04-26T13:58:53.903Z</time></trkpt><trkpt lat="44.8101778" lon="12.0172422"><ele>1.0</ele><time>2026-04-26T13:58:54.903Z</time></trkpt><trkpt lat="44.8100899" lon="12.017326"><ele>1.0</ele><time>2026-04-26T13:58:55.904Z</time></trkpt><trkpt lat="44.8099975" lon="12.0173855"><ele>0.9999999999999999</ele><time>2026-04-26T13:58:56.904Z</time></trkpt><trkpt lat="44.8099082" lon="12.0174328"><ele>1.0</ele><time>2026-04-26T13:58:57.903Z</time></trkpt><trkpt lat="44.8098301" lon="12.0174674"><ele>1.0</ele><time>2026-04-26T13:58:58.903Z</time></trkpt><trkpt lat="44.8097707" lon="12.0175292"><ele>1.0</ele><time>2026-04-26T13:58:59.904Z</time></trkpt><trkpt lat="44.8097223" lon="12.0176163"><ele>0.9999999999999999</ele><time>2026-04-26T13:59:00.903Z</time></trkpt><trkpt lat="44.8096789" lon="12.0177398"><ele>1.0</ele><time>2026-04-26T13:59:01.903Z</time></trkpt><trkpt lat="44.8096269" lon="12.0178691"><ele>0.75</ele><time>2026-04-26T13:59:02.903Z</time></trkpt><trkpt lat="44.8095496" lon="12.0179941"><ele>0.5</ele><time>2026-04-26T13:59:03.903Z</time></trkpt><trkpt lat="44.8094594" lon="12.0181261"><ele>0.25</ele><time>2026-04-26T13:59:04.904Z</time></trkpt><trkpt lat="44.8093607" lon="12.0182481"><ele>0.0</ele><time>2026-04-26T13:59:05.903Z</time></trkpt><trkpt lat="44.8092546" lon="12.0183651"><ele>0.0</ele><time>2026-04-26T13:59:06.904Z</time></trkpt><trkpt lat="44.8091564" lon="12.0185007"><ele>0.0</ele><time>2026-04-26T13:59:07.904Z</time></trkpt><trkpt lat="44.8090488" lon="12.0186344"><ele>0.0</ele><time>2026-04-26T13:59:08.903Z</time></trkpt><trkpt lat="44.8089447" lon="12.0187685"><ele>0.0</ele><time>2026-04-26T13:59:09.903Z</time></trkpt><trkpt lat="44.808841" lon="12.0189008"><ele>0.0</ele><time>2026-04-26T13:59:10.904Z</time></trkpt><trkpt lat="44.8087406" lon="12.0190307"><ele>0.0</ele><time>2026-04-26T13:59:11.903Z</time></trkpt><trkpt lat="44.808636" lon="12.0191629"><ele>0.0</ele><time>2026-04-26T13:59:12.903Z</time></trkpt><trkpt lat="44.8085259" lon="12.0192985"><ele>0.0</ele><time>2026-04-26T13:59:13.904Z</time></trkpt><trkpt lat="44.8084165" lon="12.0194294"><ele>-0.3333333333333333</ele><time>2026-04-26T13:59:14.903Z</time></trkpt><trkpt lat="44.8083048" lon="12.0195651"><ele>-0.6666666666666666</ele><time>2026-04-26T13:59:15.904Z</time></trkpt><trkpt lat="44.8081938" lon="12.0197092"><ele>-1.0</ele><time>2026-04-26T13:59:16.904Z</time></trkpt><trkpt lat="44.808078" lon="12.0198505"><ele>-1.3333333333333333</ele><time>2026-04-26T13:59:17.903Z</time></trkpt><trkpt lat="44.8079575" lon="12.019992"><ele>-1.6666666666666665</ele><time>2026-04-26T13:59:18.903Z</time></trkpt><trkpt lat="44.8078388" lon="12.0201375"><ele>-2.0</ele><time>2026-04-26T13:59:19.903Z</time></trkpt><trkpt lat="44.8077195" lon="12.020283"><ele>-1.6666666666666665</ele><time>2026-04-26T13:59:20.904Z</time></trkpt><trkpt lat="44.8076014" lon="12.0204326"><ele>-1.3333333333333333</ele><time>2026-04-26T13:59:21.904Z</time></trkpt><trkpt lat="44.807486" lon="12.0205823"><ele>-1.0</ele><time>2026-04-26T13:59:22.904Z</time></trkpt><trkpt lat="44.8073707" lon="12.0207258"><ele>-1.0</ele><time>2026-04-26T13:59:23.903Z</time></trkpt><trkpt lat="44.8072505" lon="12.020867"><ele>-1.0</ele><time>2026-04-26T13:59:24.904Z</time></trkpt><trkpt lat="44.8071224" lon="12.0210062"><ele>-1.0</ele><time>2026-04-26T13:59:25.903Z</time></trkpt><trkpt lat="44.8069925" lon="12.0211406"><ele>-1.0</ele><time>2026-04-26T13:59:26.904Z</time></trkpt><trkpt lat="44.806857" lon="12.0212697"><ele>-1.0</ele><time>2026-04-26T13:59:27.904Z</time></trkpt><trkpt lat="44.8067245" lon="12.0214013"><ele>-1.0</ele><time>2026-04-26T13:59:28.904Z</time></trkpt><trkpt lat="44.8065877" lon="12.0215297"><ele>-1.0</ele><time>2026-04-26T13:59:29.904Z</time></trkpt><trkpt lat="44.8064437" lon="12.0216592"><ele>-1.0</ele><time>2026-04-26T13:59:30.903Z</time></trkpt><trkpt lat="44.8062918" lon="12.0217897"><ele>-1.0</ele><time>2026-04-26T13:59:31.903Z</time></trkpt><trkpt lat="44.8061276" lon="12.0219256"><ele>-0.6666666666666666</ele><time>2026-04-26T13:59:32.904Z</time></trkpt><trkpt lat="44.8059571" lon="12.0220607"><ele>-0.3333333333333333</ele><time>2026-04-26T13:59:33.904Z</time></trkpt><trkpt lat="44.8057781" lon="12.022202"><ele>0.0</ele><time>2026-04-26T13:59:34.903Z</time></trkpt><trkpt lat="44.8055953" lon="12.0223483"><ele>-0.3333333333333333</ele><time>2026-04-26T13:59:35.904Z</time></trkpt><trkpt lat="44.8054146" lon="12.0224929"><ele>-0.6666666666666666</ele><time>2026-04-26T13:59:36.903Z</time></trkpt><trkpt lat="44.8052349" lon="12.0226388"><ele>-1.0</ele><time>2026-04-26T13:59:37.903Z</time></trkpt><trkpt lat="44.8050626" lon="12.022778"><ele>-1.0</ele><time>2026-04-26T13:59:38.904Z</time></trkpt><trkpt lat="44.8048941" lon="12.0229088"><ele>-1.0</ele><time>2026-04-26T13:59:39.904Z</time></trkpt><trkpt lat="44.8047273" lon="12.0230407"><ele>-1.0</ele><time>2026-04-26T13:59:40.904Z</time></trkpt><trkpt lat="44.8045671" lon="12.023171"><ele>-1.0</ele><time>2026-04-26T13:59:41.903Z</time></trkpt><trkpt lat="44.8044054" lon="12.0232953"><ele>-1.0</ele><time>2026-04-26T13:59:42.903Z</time></trkpt><trkpt lat="44.8042509" lon="12.023414"><ele>-1.0</ele><time>2026-04-26T13:59:43.904Z</time></trkpt><trkpt lat="44.8040921" lon="12.0235288"><ele>-1.0</ele><time>2026-04-26T13:59:44.903Z</time></trkpt><trkpt lat="44.8039394" lon="12.0236553"><ele>-1.0</ele><time>2026-04-26T13:59:45.903Z</time></trkpt><trkpt lat="44.8037868" lon="12.0237779"><ele>-1.0</ele><time>2026-04-26T13:59:46.903Z</time></trkpt><trkpt lat="44.8036341" lon="12.0239022"><ele>-1.3333333333333333</ele><time>2026-04-26T13:59:47.903Z</time></trkpt><trkpt lat="44.8034744" lon="12.0240268"><ele>-1.6666666666666665</ele><time>2026-04-26T13:59:48.904Z</time></trkpt><trkpt lat="44.8033161" lon="12.0241508"><ele>-2.0</ele><time>2026-04-26T13:59:49.903Z</time></trkpt><trkpt lat="44.8031601" lon="12.0242728"><ele>-2.0</ele><time>2026-04-26T13:59:50.903Z</time></trkpt><trkpt lat="44.8029997" lon="12.0243971"><ele>-2.0</ele><time>2026-04-26T13:59:51.903Z</time></trkpt><trkpt lat="44.8028431" lon="12.0245248"><ele>-2.0</ele><time>2026-04-26T13:59:52.904Z</time></trkpt><trkpt lat="44.8026858" lon="12.0246504"><ele>-2.0</ele><time>2026-04-26T13:59:53.903Z</time></trkpt><trkpt lat="44.8025319" lon="12.0247749"><ele>-2.0</ele><time>2026-04-26T13:59:54.904Z</time></trkpt><trkpt lat="44.8023724" lon="12.0249032"><ele>-2.0</ele><time>2026-04-26T13:59:55.904Z</time></trkpt><trkpt lat="44.8022155" lon="12.0250325"><ele>-2.0</ele><time>2026-04-26T13:59:56.903Z</time></trkpt><trkpt lat="44.8020554" lon="12.0251536"><ele>-2.0</ele><time>2026-04-26T13:59:57.903Z</time></trkpt><trkpt lat="44.8018942" lon="12.0252787"><ele>-2.0</ele><time>2026-04-26T13:59:58.903Z</time></trkpt><trkpt lat="44.8017366" lon="12.0253989"><ele>-1.3333333333333333</ele><time>2026-04-26T13:59:59.903Z</time></trkpt><trkpt lat="44.801579" lon="12.0255223"><ele>-0.6666666666666666</ele><time>2026-04-26T14:00:00.903Z</time></trkpt><trkpt lat="44.8014218" lon="12.0256522"><ele>0.0</ele><time>2026-04-26T14:00:01.904Z</time></trkpt><trkpt lat="44.8012615" lon="12.0257784"><ele>-0.3333333333333333</ele><time>2026-04-26T14:00:02.903Z</time></trkpt><trkpt lat="44.8011001" lon="12.0259018"><ele>-0.6666666666666666</ele><time>2026-04-26T14:00:03.904Z</time></trkpt><trkpt lat="44.8009379" lon="12.026031"><ele>-1.0</ele><time>2026-04-26T14:00:04.903Z</time></trkpt><trkpt lat="44.8007722" lon="12.0261671"><ele>0.0</ele><time>2026-04-26T14:00:05.904Z</time></trkpt><trkpt lat="44.8006048" lon="12.0262993"><ele>1.0</ele><time>2026-04-26T14:00:06.903Z</time></trkpt><trkpt lat="44.8004363" lon="12.0264329"><ele>2.0</ele><time>2026-04-26T14:00:07.903Z</time></trkpt><trkpt lat="44.8002711" lon="12.0265626"><ele>1.3333333333333333</ele><time>2026-04-26T14:00:08.904Z</time></trkpt><trkpt lat="44.8001078" lon="12.026691"><ele>0.6666666666666666</ele><time>2026-04-26T14:00:09.903Z</time></trkpt><trkpt lat="44.7999425" lon="12.0268229"><ele>0.0</ele><time>2026-04-26T14:00:10.903Z</time></trkpt><trkpt lat="44.799778" lon="12.0269465"><ele>0.0</ele><time>2026-04-26T14:00:11.904Z</time></trkpt><trkpt lat="44.7996213" lon="12.0270732"><ele>0.0</ele><time>2026-04-26T14:00:12.903Z</time></trkpt><trkpt lat="44.7994619" lon="12.0271993"><ele>0.0</ele><time>2026-04-26T14:00:13.904Z</time></trkpt><trkpt lat="44.799302" lon="12.0273215"><ele>-0.6666666666666666</ele><time>2026-04-26T14:00:14.904Z</time></trkpt><trkpt lat="44.7991467" lon="12.0274447"><ele>-1.3333333333333333</ele><time>2026-04-26T14:00:15.903Z</time></trkpt><trkpt lat="44.7989889" lon="12.0275726"><ele>-2.0</ele><time>2026-04-26T14:00:16.903Z</time></trkpt><trkpt lat="44.7988295" lon="12.0277029"><ele>-2.333333333333333</ele><time>2026-04-26T14:00:17.903Z</time></trkpt><trkpt lat="44.7986742" lon="12.0278309"><ele>-2.6666666666666665</ele><time>2026-04-26T14:00:18.903Z</time></trkpt><trkpt lat="44.7985216" lon="12.0279562"><ele>-3.0</ele><time>2026-04-26T14:00:19.903Z</time></trkpt><trkpt lat="44.7983682" lon="12.0280959"><ele>-3.0</ele><time>2026-04-26T14:00:20.904Z</time></trkpt><trkpt lat="44.7982153" lon="12.0282393"><ele>-3.0</ele><time>2026-04-26T14:00:21.903Z</time></trkpt><trkpt lat="44.7980638" lon="12.0284155"><ele>-3.0</ele><time>2026-04-26T14:00:22.904Z</time></trkpt><trkpt lat="44.797909" lon="12.0286084"><ele>-3.0</ele><time>2026-04-26T14:00:23.903Z</time></trkpt><trkpt lat="44.7977568" lon="12.0288138"><ele>-3.0</ele><time>2026-04-26T14:00:24.904Z</time></trkpt><trkpt lat="44.7976062" lon="12.0290301"><ele>-3.0</ele><time>2026-04-26T14:00:25.903Z</time></trkpt><trkpt lat="44.7974606" lon="12.0292527"><ele>-2.0</ele><time>2026-04-26T14:00:26.904Z</time></trkpt><trkpt lat="44.7973269" lon="12.0294775"><ele>-1.0</ele><time>2026-04-26T14:00:27.904Z</time></trkpt><trkpt lat="44.7971966" lon="12.029705"><ele>0.0</ele><time>2026-04-26T14:00:28.904Z</time></trkpt><trkpt lat="44.7970715" lon="12.0299296"><ele>-0.3333333333333333</ele><time>2026-04-26T14:00:29.904Z</time></trkpt><trkpt lat="44.7969457" lon="12.0301568"><ele>-0.6666666666666666</ele><time>2026-04-26T14:00:30.904Z</time></trkpt><trkpt lat="44.7968171" lon="12.0303796"><ele>-1.0</ele><time>2026-04-26T14:00:31.904Z</time></trkpt><trkpt lat="44.7966917" lon="12.0306015"><ele>-1.6666666666666665</ele><time>2026-04-26T14:00:32.903Z</time></trkpt><trkpt lat="44.7965683" lon="12.0308333"><ele>-2.3333333333333335</ele><time>2026-04-26T14:00:33.903Z</time></trkpt><trkpt lat="44.7964429" lon="12.0310648"><ele>-3.0</ele><time>2026-04-26T14:00:34.903Z</time></trkpt><trkpt lat="44.7963155" lon="12.0312903"><ele>-3.0</ele><time>2026-04-26T14:00:35.904Z</time></trkpt><trkpt lat="44.7961837" lon="12.0315158"><ele>-3.0</ele><time>2026-04-26T14:00:36.904Z</time></trkpt><trkpt lat="44.7960564" lon="12.0317477"><ele>-3.0</ele><time>2026-04-26T14:00:37.903Z</time></trkpt><trkpt lat="44.7959289" lon="12.0319776"><ele>-3.0</ele><time>2026-04-26T14:00:38.904Z</time></trkpt><trkpt lat="44.795804" lon="12.0322006"><ele>-3.0</ele><time>2026-04-26T14:00:39.904Z</time></trkpt><trkpt lat="44.7956758" lon="12.0324319"><ele>-3.0</ele><time>2026-04-26T14:00:40.903Z</time></trkpt><trkpt lat="44.7955459" lon="12.0326663"><ele>-3.666666666666667</ele><time>2026-04-26T14:00:41.904Z</time></trkpt><trkpt lat="44.7954147" lon="12.0329051"><ele>-4.333333333333334</ele><time>2026-04-26T14:00:42.903Z</time></trkpt><trkpt lat="44.7952821" lon="12.0331407"><ele>-5.0</ele><time>2026-04-26T14:00:43.903Z</time></trkpt><trkpt lat="44.7951514" lon="12.0333812"><ele>-5.0</ele><time>2026-04-26T14:00:44.904Z</time></trkpt><trkpt lat="44.7950143" lon="12.0336222"><ele>-5.0</ele><time>2026-04-26T14:00:45.904Z</time></trkpt><trkpt lat="44.7948756" lon="12.0338635"><ele>-5.0</ele><time>2026-04-26T14:00:46.904Z</time></trkpt><trkpt lat="44.7947447" lon="12.0341044"><ele>-4.333333333333334</ele><time>2026-04-26T14:00:47.903Z</time></trkpt><trkpt lat="44.7946125" lon="12.034347"><ele>-3.666666666666667</ele><time>2026-04-26T14:00:48.903Z</time></trkpt><trkpt lat="44.7944798" lon="12.034588"><ele>-3.0</ele><time>2026-04-26T14:00:49.903Z</time></trkpt><trkpt lat="44.7943469" lon="12.0348241"><ele>-2.6666666666666665</ele><time>2026-04-26T14:00:50.903Z</time></trkpt><trkpt lat="44.7942131" lon="12.0350713"><ele>-2.333333333333333</ele><time>2026-04-26T14:00:51.903Z</time></trkpt><trkpt lat="44.7940775" lon="12.0353189"><ele>-2.0</ele><time>2026-04-26T14:00:52.903Z</time></trkpt><trkpt lat="44.7939377" lon="12.0355683"><ele>-3.0</ele><time>2026-04-26T14:00:53.903Z</time></trkpt><trkpt lat="44.7937974" lon="12.0358225"><ele>-4.0</ele><time>2026-04-26T14:00:54.903Z</time></trkpt><trkpt lat="44.7936555" lon="12.0360708"><ele>-4.0</ele><time>2026-04-26T14:00:55.903Z</time></trkpt><trkpt lat="44.7935199" lon="12.0363308"><ele>-4.0</ele><time>2026-04-26T14:00:56.903Z</time></trkpt><trkpt lat="44.7933791" lon="12.0365867"><ele>-3.5</ele><time>2026-04-26T14:00:57.904Z</time></trkpt><trkpt lat="44.7932333" lon="12.0368396"><ele>-3.0</ele><time>2026-04-26T14:00:58.903Z</time></trkpt><trkpt lat="44.7930907" lon="12.0370981"><ele>-3.0</ele><time>2026-04-26T14:00:59.903Z</time></trkpt><trkpt lat="44.7929471" lon="12.0373508"><ele>-3.0</ele><time>2026-04-26T14:01:00.903Z</time></trkpt><trkpt lat="44.7928031" lon="12.0376074"><ele>-2.5</ele><time>2026-04-26T14:01:01.903Z</time></trkpt><trkpt lat="44.7926602" lon="12.0378603"><ele>-2.0</ele><time>2026-04-26T14:01:02.903Z</time></trkpt><trkpt lat="44.7925167" lon="12.0381147"><ele>-1.5</ele><time>2026-04-26T14:01:03.903Z</time></trkpt><trkpt lat="44.7923756" lon="12.0383722"><ele>-1.0</ele><time>2026-04-26T14:01:04.904Z</time></trkpt><trkpt lat="44.7922357" lon="12.0386234"><ele>-1.0</ele><time>2026-04-26T14:01:05.903Z</time></trkpt><trkpt lat="44.7920944" lon="12.0388701"><ele>-1.0</ele><time>2026-04-26T14:01:06.903Z</time></trkpt><trkpt lat="44.7919553" lon="12.0391223"><ele>-1.3333333333333333</ele><time>2026-04-26T14:01:07.903Z</time></trkpt><trkpt lat="44.7918179" lon="12.0393672"><ele>-1.6666666666666665</ele><time>2026-04-26T14:01:08.903Z</time></trkpt><trkpt lat="44.7916818" lon="12.0396142"><ele>-2.0</ele><time>2026-04-26T14:01:09.903Z</time></trkpt><trkpt lat="44.7915535" lon="12.03986"><ele>-2.333333333333333</ele><time>2026-04-26T14:01:10.903Z</time></trkpt><trkpt lat="44.791428" lon="12.0400972"><ele>-2.6666666666666665</ele><time>2026-04-26T14:01:11.903Z</time></trkpt><trkpt lat="44.7912982" lon="12.0403188"><ele>-3.0</ele><time>2026-04-26T14:01:12.904Z</time></trkpt><trkpt lat="44.7911697" lon="12.0405441"><ele>-3.0</ele><time>2026-04-26T14:01:13.903Z</time></trkpt><trkpt lat="44.7910442" lon="12.0407585"><ele>-3.0</ele><time>2026-04-26T14:01:14.903Z</time></trkpt><trkpt lat="44.7909172" lon="12.040977"><ele>-3.0</ele><time>2026-04-26T14:01:15.903Z</time></trkpt><trkpt lat="44.7907932" lon="12.0412112"><ele>-3.0</ele><time>2026-04-26T14:01:16.903Z</time></trkpt><trkpt lat="44.7906672" lon="12.0414339"><ele>-3.0</ele><time>2026-04-26T14:01:17.903Z</time></trkpt><trkpt lat="44.7905401" lon="12.0416542"><ele>-3.0</ele><time>2026-04-26T14:01:18.903Z</time></trkpt><trkpt lat="44.7904176" lon="12.0418779"><ele>-3.0</ele><time>2026-04-26T14:01:19.903Z</time></trkpt><trkpt lat="44.7902937" lon="12.0421"><ele>-3.0</ele><time>2026-04-26T14:01:20.903Z</time></trkpt><trkpt lat="44.790171" lon="12.0423193"><ele>-3.0</ele><time>2026-04-26T14:01:21.904Z</time></trkpt><trkpt lat="44.790048" lon="12.0425486"><ele>-3.333333333333333</ele><time>2026-04-26T14:01:22.904Z</time></trkpt><trkpt lat="44.7899248" lon="12.0427743"><ele>-3.6666666666666665</ele><time>2026-04-26T14:01:23.903Z</time></trkpt><trkpt lat="44.7898032" lon="12.0429985"><ele>-4.0</ele><time>2026-04-26T14:01:24.903Z</time></trkpt><trkpt lat="44.7896774" lon="12.0432222"><ele>-3.6666666666666665</ele><time>2026-04-26T14:01:25.904Z</time></trkpt><trkpt lat="44.7895538" lon="12.0434463"><ele>-3.333333333333333</ele><time>2026-04-26T14:01:26.903Z</time></trkpt><trkpt lat="44.7894298" lon="12.0436751"><ele>-3.0</ele><time>2026-04-26T14:01:27.903Z</time></trkpt><trkpt lat="44.7893045" lon="12.0438943"><ele>-3.0</ele><time>2026-04-26T14:01:28.903Z</time></trkpt><trkpt lat="44.7891722" lon="12.0441132"><ele>-3.0</ele><time>2026-04-26T14:01:29.903Z</time></trkpt><trkpt lat="44.7890497" lon="12.0443377"><ele>-3.0</ele><time>2026-04-26T14:01:30.903Z</time></trkpt><trkpt lat="44.7889293" lon="12.0445597"><ele>-3.0</ele><time>2026-04-26T14:01:31.903Z</time></trkpt><trkpt lat="44.7888018" lon="12.0447751"><ele>-3.0</ele><time>2026-04-26T14:01:32.903Z</time></trkpt><trkpt lat="44.7886805" lon="12.0449938"><ele>-3.0</ele><time>2026-04-26T14:01:33.903Z</time></trkpt><trkpt lat="44.7885589" lon="12.0452121"><ele>-3.0</ele><time>2026-04-26T14:01:34.903Z</time></trkpt><trkpt lat="44.7884414" lon="12.0454264"><ele>-3.0</ele><time>2026-04-26T14:01:35.903Z</time></trkpt><trkpt lat="44.7883223" lon="12.0456449"><ele>-3.0</ele><time>2026-04-26T14:01:36.903Z</time></trkpt><trkpt lat="44.7881979" lon="12.0458572"><ele>-3.0</ele><time>2026-04-26T14:01:37.904Z</time></trkpt><trkpt lat="44.7880766" lon="12.0460743"><ele>-3.0</ele><time>2026-04-26T14:01:38.903Z</time></trkpt><trkpt lat="44.7879571" lon="12.0462931"><ele>-3.0</ele><time>2026-04-26T14:01:39.904Z</time></trkpt><trkpt lat="44.7878299" lon="12.0465115"><ele>-3.0</ele><time>2026-04-26T14:01:40.903Z</time></trkpt><trkpt lat="44.7877047" lon="12.0467299"><ele>-3.0</ele><time>2026-04-26T14:01:41.903Z</time></trkpt><trkpt lat="44.7875795" lon="12.0469396"><ele>-3.0</ele><time>2026-04-26T14:01:42.903Z</time></trkpt><trkpt lat="44.7874625" lon="12.0471562"><ele>-3.0</ele><time>2026-04-26T14:01:43.904Z</time></trkpt><trkpt lat="44.7873423" lon="12.0473708"><ele>-3.0</ele><time>2026-04-26T14:01:44.904Z</time></trkpt><trkpt lat="44.7872158" lon="12.0475777"><ele>-3.0</ele><time>2026-04-26T14:01:45.903Z</time></trkpt><trkpt lat="44.7870947" lon="12.0477954"><ele>-3.0</ele><time>2026-04-26T14:01:46.903Z</time></trkpt><trkpt lat="44.7869733" lon="12.0480129"><ele>-3.0</ele><time>2026-04-26T14:01:47.904Z</time></trkpt><trkpt lat="44.7868489" lon="12.04823"><ele>-3.0</ele><time>2026-04-26T14:01:48.903Z</time></trkpt><trkpt lat="44.7867274" lon="12.0484472"><ele>-2.3333333333333335</ele><time>2026-04-26T14:01:49.904Z</time></trkpt><trkpt lat="44.7866088" lon="12.0486654"><ele>-1.6666666666666665</ele><time>2026-04-26T14:01:50.904Z</time></trkpt><trkpt lat="44.7864896" lon="12.0488764"><ele>-1.0</ele><time>2026-04-26T14:01:51.903Z</time></trkpt><trkpt lat="44.7863663" lon="12.0490957"><ele>-1.0</ele><time>2026-04-26T14:01:52.903Z</time></trkpt><trkpt lat="44.7862431" lon="12.0493176"><ele>-1.0</ele><time>2026-04-26T14:01:53.903Z</time></trkpt><trkpt lat="44.786119" lon="12.0495353"><ele>-1.0</ele><time>2026-04-26T14:01:54.904Z</time></trkpt><trkpt lat="44.7859932" lon="12.0497529"><ele>-1.3333333333333333</ele><time>2026-04-26T14:01:55.903Z</time></trkpt><trkpt lat="44.7858655" lon="12.0499776"><ele>-1.6666666666666665</ele><time>2026-04-26T14:01:56.904Z</time></trkpt><trkpt lat="44.7857463" lon="12.0502006"><ele>-2.0</ele><time>2026-04-26T14:01:57.904Z</time></trkpt><trkpt lat="44.7856262" lon="12.0504137"><ele>-2.0</ele><time>2026-04-26T14:01:58.903Z</time></trkpt><trkpt lat="44.7855012" lon="12.0506341"><ele>-2.0</ele><time>2026-04-26T14:01:59.903Z</time></trkpt><trkpt lat="44.785378" lon="12.0508528"><ele>-2.0</ele><time>2026-04-26T14:02:00.903Z</time></trkpt><trkpt lat="44.7852539" lon="12.0510771"><ele>-2.0</ele><time>2026-04-26T14:02:01.903Z</time></trkpt><trkpt lat="44.7851285" lon="12.0512991"><ele>-2.0</ele><time>2026-04-26T14:02:02.904Z</time></trkpt><trkpt lat="44.7850035" lon="12.051524"><ele>-2.0</ele><time>2026-04-26T14:02:03.903Z</time></trkpt><trkpt lat="44.7848799" lon="12.0517425"><ele>-1.6666666666666665</ele><time>2026-04-26T14:02:04.904Z</time></trkpt><trkpt lat="44.7847514" lon="12.0519628"><ele>-1.3333333333333333</ele><time>2026-04-26T14:02:05.903Z</time></trkpt><trkpt lat="44.784625" lon="12.0521947"><ele>-1.0</ele><time>2026-04-26T14:02:06.904Z</time></trkpt><trkpt lat="44.7845061" lon="12.0524258"><ele>-1.3333333333333333</ele><time>2026-04-26T14:02:07.903Z</time></trkpt><trkpt lat="44.784388" lon="12.05266"><ele>-1.6666666666666665</ele><time>2026-04-26T14:02:08.903Z</time></trkpt><trkpt lat="44.7842773" lon="12.052899"><ele>-2.0</ele><time>2026-04-26T14:02:09.904Z</time></trkpt><trkpt lat="44.7841668" lon="12.0531397"><ele>-2.333333333333333</ele><time>2026-04-26T14:02:10.903Z</time></trkpt><trkpt lat="44.7840664" lon="12.053392"><ele>-2.6666666666666665</ele><time>2026-04-26T14:02:11.903Z</time></trkpt><trkpt lat="44.7839656" lon="12.0536483"><ele>-3.0</ele><time>2026-04-26T14:02:12.903Z</time></trkpt><trkpt lat="44.7838657" lon="12.0539086"><ele>-3.0</ele><time>2026-04-26T14:02:13.903Z</time></trkpt><trkpt lat="44.7837629" lon="12.0541674"><ele>-3.0</ele><time>2026-04-26T14:02:14.903Z</time></trkpt><trkpt lat="44.78366" lon="12.0544247"><ele>-3.0</ele><time>2026-04-26T14:02:15.903Z</time></trkpt><trkpt lat="44.7835612" lon="12.0546906"><ele>-2.3333333333333335</ele><time>2026-04-26T14:02:16.904Z</time></trkpt><trkpt lat="44.7834604" lon="12.0549538"><ele>-1.6666666666666665</ele><time>2026-04-26T14:02:17.903Z</time></trkpt><trkpt lat="44.7833568" lon="12.0552213"><ele>-1.0</ele><time>2026-04-26T14:02:18.904Z</time></trkpt><trkpt lat="44.7832574" lon="12.0554842"><ele>-0.6666666666666666</ele><time>2026-04-26T14:02:19.904Z</time></trkpt><trkpt lat="44.7831599" lon="12.0557499"><ele>-0.3333333333333333</ele><time>2026-04-26T14:02:20.903Z</time></trkpt><trkpt lat="44.7830617" lon="12.0560117"><ele>0.0</ele><time>2026-04-26T14:02:21.903Z</time></trkpt><trkpt lat="44.7829666" lon="12.0562733"><ele>-0.6666666666666666</ele><time>2026-04-26T14:02:22.903Z</time></trkpt><trkpt lat="44.782868" lon="12.0565377"><ele>-1.3333333333333333</ele><time>2026-04-26T14:02:23.903Z</time></trkpt><trkpt lat="44.7827688" lon="12.0567964"><ele>-2.0</ele><time>2026-04-26T14:02:24.904Z</time></trkpt><trkpt lat="44.7826663" lon="12.0570601"><ele>-2.0</ele><time>2026-04-26T14:02:25.904Z</time></trkpt><trkpt lat="44.7825607" lon="12.0573207"><ele>-2.0</ele><time>2026-04-26T14:02:26.903Z</time></trkpt><trkpt lat="44.7824594" lon="12.0575857"><ele>-2.0</ele><time>2026-04-26T14:02:27.903Z</time></trkpt><trkpt lat="44.7823603" lon="12.0578479"><ele>-2.0</ele><time>2026-04-26T14:02:28.904Z</time></trkpt><trkpt lat="44.7822569" lon="12.0581095"><ele>-2.0</ele><time>2026-04-26T14:02:29.904Z</time></trkpt><trkpt lat="44.7821567" lon="12.0583715"><ele>-2.0</ele><time>2026-04-26T14:02:30.903Z</time></trkpt><trkpt lat="44.7820573" lon="12.0586312"><ele>-2.0</ele><time>2026-04-26T14:02:31.904Z</time></trkpt><trkpt lat="44.7819582" lon="12.0588919"><ele>-2.0</ele><time>2026-04-26T14:02:32.904Z</time></trkpt><trkpt lat="44.7818545" lon="12.0591524"><ele>-2.0</ele><time>2026-04-26T14:02:33.904Z</time></trkpt><trkpt lat="44.7817541" lon="12.0594132"><ele>-2.333333333333333</ele><time>2026-04-26T14:02:34.903Z</time></trkpt><trkpt lat="44.7816549" lon="12.0596794"><ele>-2.6666666666666665</ele><time>2026-04-26T14:02:35.904Z</time></trkpt><trkpt lat="44.7815568" lon="12.0599416"><ele>-3.0</ele><time>2026-04-26T14:02:36.904Z</time></trkpt><trkpt lat="44.7814553" lon="12.060206"><ele>-3.333333333333333</ele><time>2026-04-26T14:02:37.904Z</time></trkpt><trkpt lat="44.7813539" lon="12.0604572"><ele>-3.6666666666666665</ele><time>2026-04-26T14:02:38.904Z</time></trkpt><trkpt lat="44.7812552" lon="12.0607096"><ele>-4.0</ele><time>2026-04-26T14:02:39.903Z</time></trkpt><trkpt lat="44.7811577" lon="12.0609557"><ele>-4.0</ele><time>2026-04-26T14:02:40.904Z</time></trkpt><trkpt lat="44.7810611" lon="12.0612049"><ele>-4.0</ele><time>2026-04-26T14:02:41.904Z</time></trkpt><trkpt lat="44.7809651" lon="12.0614508"><ele>-4.0</ele><time>2026-04-26T14:02:42.903Z</time></trkpt><trkpt lat="44.7808734" lon="12.0616883"><ele>-3.6666666666666665</ele><time>2026-04-26T14:02:43.904Z</time></trkpt><trkpt lat="44.7807788" lon="12.0619281"><ele>-3.333333333333333</ele><time>2026-04-26T14:02:44.903Z</time></trkpt><trkpt lat="44.7806859" lon="12.0621708"><ele>-3.0</ele><time>2026-04-26T14:02:45.904Z</time></trkpt><trkpt lat="44.7805941" lon="12.0624116"><ele>-3.0</ele><time>2026-04-26T14:02:46.904Z</time></trkpt><trkpt lat="44.7805027" lon="12.0626496"><ele>-3.0</ele><time>2026-04-26T14:02:47.904Z</time></trkpt><trkpt lat="44.780411" lon="12.0628841"><ele>-3.0</ele><time>2026-04-26T14:02:48.903Z</time></trkpt><trkpt lat="44.7803202" lon="12.0631177"><ele>-3.333333333333333</ele><time>2026-04-26T14:02:49.903Z</time></trkpt><trkpt lat="44.78023" lon="12.0633524"><ele>-3.6666666666666665</ele><time>2026-04-26T14:02:50.904Z</time></trkpt><trkpt lat="44.7801382" lon="12.0635888"><ele>-4.0</ele><time>2026-04-26T14:02:51.903Z</time></trkpt><trkpt lat="44.7800436" lon="12.0638253"><ele>-3.333333333333333</ele><time>2026-04-26T14:02:52.903Z</time></trkpt><trkpt lat="44.7799479" lon="12.0640616"><ele>-2.6666666666666665</ele><time>2026-04-26T14:02:53.903Z</time></trkpt><trkpt lat="44.779856" lon="12.0642966"><ele>-2.0</ele><time>2026-04-26T14:02:54.904Z</time></trkpt><trkpt lat="44.7797667" lon="12.064536"><ele>-2.0</ele><time>2026-04-26T14:02:55.903Z</time></trkpt><trkpt lat="44.7796727" lon="12.0647781"><ele>-2.0</ele><time>2026-04-26T14:02:56.904Z</time></trkpt><trkpt lat="44.7795819" lon="12.0650188"><ele>-2.0</ele><time>2026-04-26T14:02:57.903Z</time></trkpt><trkpt lat="44.7794892" lon="12.0652552"><ele>-2.6666666666666665</ele><time>2026-04-26T14:02:58.903Z</time></trkpt><trkpt lat="44.7793964" lon="12.065493"><ele>-3.333333333333333</ele><time>2026-04-26T14:02:59.904Z</time></trkpt><trkpt lat="44.779309" lon="12.0657235"><ele>-4.0</ele><time>2026-04-26T14:03:00.904Z</time></trkpt><trkpt lat="44.7792217" lon="12.0659552"><ele>-4.333333333333333</ele><time>2026-04-26T14:03:01.903Z</time></trkpt><trkpt lat="44.7791299" lon="12.0661874"><ele>-4.666666666666667</ele><time>2026-04-26T14:03:02.904Z</time></trkpt><trkpt lat="44.7790369" lon="12.0664259"><ele>-5.0</ele><time>2026-04-26T14:03:03.904Z</time></trkpt><trkpt lat="44.7789449" lon="12.0666668"><ele>-4.0</ele><time>2026-04-26T14:03:04.903Z</time></trkpt><trkpt lat="44.7788544" lon="12.0668985"><ele>-3.0</ele><time>2026-04-26T14:03:05.903Z</time></trkpt><trkpt lat="44.7787626" lon="12.067137"><ele>-2.0</ele><time>2026-04-26T14:03:06.903Z</time></trkpt><trkpt lat="44.7786757" lon="12.0673745"><ele>-2.333333333333333</ele><time>2026-04-26T14:03:07.903Z</time></trkpt><trkpt lat="44.7785848" lon="12.067614"><ele>-2.6666666666666665</ele><time>2026-04-26T14:03:08.904Z</time></trkpt><trkpt lat="44.7784894" lon="12.0678476"><ele>-3.0</ele><time>2026-04-26T14:03:09.903Z</time></trkpt><trkpt lat="44.7783897" lon="12.0680886"><ele>-3.666666666666667</ele><time>2026-04-26T14:03:10.903Z</time></trkpt><trkpt lat="44.7782931" lon="12.0683408"><ele>-4.333333333333334</ele><time>2026-04-26T14:03:11.904Z</time></trkpt><trkpt lat="44.7781953" lon="12.0685972"><ele>-5.0</ele><time>2026-04-26T14:03:12.903Z</time></trkpt><trkpt lat="44.7781009" lon="12.0688532"><ele>-4.666666666666667</ele><time>2026-04-26T14:03:13.904Z</time></trkpt><trkpt lat="44.778002" lon="12.069115"><ele>-4.333333333333333</ele><time>2026-04-26T14:03:14.903Z</time></trkpt><trkpt lat="44.7779045" lon="12.069377"><ele>-4.0</ele><time>2026-04-26T14:03:15.903Z</time></trkpt><trkpt lat="44.777804" lon="12.0696354"><ele>-4.0</ele><time>2026-04-26T14:03:16.903Z</time></trkpt><trkpt lat="44.7777036" lon="12.0698996"><ele>-4.0</ele><time>2026-04-26T14:03:17.903Z</time></trkpt><trkpt lat="44.7776009" lon="12.070157"><ele>-4.0</ele><time>2026-04-26T14:03:18.903Z</time></trkpt><trkpt lat="44.7774979" lon="12.07042"><ele>-3.6666666666666665</ele><time>2026-04-26T14:03:19.903Z</time></trkpt><trkpt lat="44.7773967" lon="12.0706801"><ele>-3.333333333333333</ele><time>2026-04-26T14:03:20.903Z</time></trkpt><trkpt lat="44.7772951" lon="12.0709429"><ele>-3.0</ele><time>2026-04-26T14:03:21.903Z</time></trkpt><trkpt lat="44.777192" lon="12.0712074"><ele>-3.0</ele><time>2026-04-26T14:03:22.904Z</time></trkpt><trkpt lat="44.7770918" lon="12.0714699"><ele>-3.0</ele><time>2026-04-26T14:03:23.903Z</time></trkpt><trkpt lat="44.7769902" lon="12.0717355"><ele>-3.0</ele><time>2026-04-26T14:03:24.904Z</time></trkpt><trkpt lat="44.7768913" lon="12.0720048"><ele>-3.333333333333333</ele><time>2026-04-26T14:03:25.904Z</time></trkpt><trkpt lat="44.7767875" lon="12.0722701"><ele>-3.6666666666666665</ele><time>2026-04-26T14:03:26.904Z</time></trkpt><trkpt lat="44.776685" lon="12.0725331"><ele>-4.0</ele><time>2026-04-26T14:03:27.903Z</time></trkpt><trkpt lat="44.7765844" lon="12.0727966"><ele>-4.0</ele><time>2026-04-26T14:03:28.904Z</time></trkpt><trkpt lat="44.7764852" lon="12.0730639"><ele>-4.0</ele><time>2026-04-26T14:03:29.903Z</time></trkpt><trkpt lat="44.7763846" lon="12.0733277"><ele>-4.0</ele><time>2026-04-26T14:03:30.903Z</time></trkpt><trkpt lat="44.7762848" lon="12.0735823"><ele>-4.0</ele><time>2026-04-26T14:03:31.904Z</time></trkpt><trkpt lat="44.7761822" lon="12.0738371"><ele>-4.0</ele><time>2026-04-26T14:03:32.903Z</time></trkpt><trkpt lat="44.7760882" lon="12.0740917"><ele>-4.0</ele><time>2026-04-26T14:03:33.903Z</time></trkpt><trkpt lat="44.7759936" lon="12.0743421"><ele>-4.0</ele><time>2026-04-26T14:03:34.903Z</time></trkpt><trkpt lat="44.7758974" lon="12.0745932"><ele>-4.0</ele><time>2026-04-26T14:03:35.903Z</time></trkpt><trkpt lat="44.7758029" lon="12.074846"><ele>-4.0</ele><time>2026-04-26T14:03:36.904Z</time></trkpt><trkpt lat="44.7757073" lon="12.0750937"><ele>-4.0</ele><time>2026-04-26T14:03:37.903Z</time></trkpt><trkpt lat="44.77561" lon="12.0753435"><ele>-4.0</ele><time>2026-04-26T14:03:38.904Z</time></trkpt><trkpt lat="44.7755133" lon="12.0755926"><ele>-4.0</ele><time>2026-04-26T14:03:39.903Z</time></trkpt><trkpt lat="44.7754158" lon="12.0758382"><ele>-4.0</ele><time>2026-04-26T14:03:40.904Z</time></trkpt><trkpt lat="44.775322" lon="12.0760894"><ele>-4.0</ele><time>2026-04-26T14:03:41.903Z</time></trkpt><trkpt lat="44.7752263" lon="12.0763389"><ele>-4.0</ele><time>2026-04-26T14:03:42.903Z</time></trkpt><trkpt lat="44.7751249" lon="12.0766045"><ele>-3.5</ele><time>2026-04-26T14:03:43.903Z</time></trkpt><trkpt lat="44.7750182" lon="12.0768802"><ele>-3.0</ele><time>2026-04-26T14:03:44.903Z</time></trkpt><trkpt lat="44.7749056" lon="12.0771771"><ele>-4.0</ele><time>2026-04-26T14:03:45.904Z</time></trkpt><trkpt lat="44.7747872" lon="12.0774837"><ele>-5.0</ele><time>2026-04-26T14:03:46.903Z</time></trkpt><trkpt lat="44.7746682" lon="12.0777948"><ele>-5.0</ele><time>2026-04-26T14:03:47.904Z</time></trkpt><trkpt lat="44.7745471" lon="12.0781055"><ele>-5.0</ele><time>2026-04-26T14:03:48.904Z</time></trkpt><trkpt lat="44.774425" lon="12.0784134"><ele>-6.0</ele><time>2026-04-26T14:03:49.903Z</time></trkpt><trkpt lat="44.7743057" lon="12.0787205"><ele>-7.0</ele><time>2026-04-26T14:03:50.904Z</time></trkpt><trkpt lat="44.7741824" lon="12.0790218"><ele>-6.5</ele><time>2026-04-26T14:03:51.903Z</time></trkpt><trkpt lat="44.7740511" lon="12.0793144"><ele>-6.0</ele><time>2026-04-26T14:03:52.903Z</time></trkpt><trkpt lat="44.77391" lon="12.0796056"><ele>-6.0</ele><time>2026-04-26T14:03:53.904Z</time></trkpt><trkpt lat="44.7737662" lon="12.0798896"><ele>-6.0</ele><time>2026-04-26T14:03:54.904Z</time></trkpt><trkpt lat="44.7736203" lon="12.0801663"><ele>-5.5</ele><time>2026-04-26T14:03:55.903Z</time></trkpt><trkpt lat="44.7734787" lon="12.0804455"><ele>-5.0</ele><time>2026-04-26T14:03:56.904Z</time></trkpt><trkpt lat="44.7733342" lon="12.0807245"><ele>-5.0</ele><time>2026-04-26T14:03:57.903Z</time></trkpt><trkpt lat="44.7731911" lon="12.0810018"><ele>-5.0</ele><time>2026-04-26T14:03:58.903Z</time></trkpt><trkpt lat="44.7730488" lon="12.0812734"><ele>-5.0</ele><time>2026-04-26T14:03:59.903Z</time></trkpt><trkpt lat="44.772906" lon="12.0815486"><ele>-5.0</ele><time>2026-04-26T14:04:00.904Z</time></trkpt><trkpt lat="44.772763" lon="12.0818175"><ele>-4.0</ele><time>2026-04-26T14:04:01.904Z</time></trkpt><trkpt lat="44.7726221" lon="12.0820903"><ele>-3.0</ele><time>2026-04-26T14:04:02.903Z</time></trkpt><trkpt lat="44.7724781" lon="12.0823593"><ele>-3.0</ele><time>2026-04-26T14:04:03.903Z</time></trkpt><trkpt lat="44.7723384" lon="12.0826304"><ele>-3.0</ele><time>2026-04-26T14:04:04.903Z</time></trkpt><trkpt lat="44.7721958" lon="12.0829079"><ele>-3.0</ele><time>2026-04-26T14:04:05.904Z</time></trkpt><trkpt lat="44.7720478" lon="12.0831821"><ele>-3.0</ele><time>2026-04-26T14:04:06.903Z</time></trkpt><trkpt lat="44.7719085" lon="12.0834591"><ele>-3.5</ele><time>2026-04-26T14:04:07.903Z</time></trkpt><trkpt lat="44.7717632" lon="12.0837419"><ele>-4.0</ele><time>2026-04-26T14:04:08.904Z</time></trkpt><trkpt lat="44.7716195" lon="12.0840202"><ele>-4.5</ele><time>2026-04-26T14:04:09.904Z</time></trkpt><trkpt lat="44.7714729" lon="12.0843001"><ele>-5.0</ele><time>2026-04-26T14:04:10.903Z</time></trkpt><trkpt lat="44.7713278" lon="12.0845766"><ele>-5.0</ele><time>2026-04-26T14:04:11.904Z</time></trkpt><trkpt lat="44.7711858" lon="12.0848591"><ele>-5.0</ele><time>2026-04-26T14:04:12.903Z</time></trkpt><trkpt lat="44.771044" lon="12.0851356"><ele>-5.5</ele><time>2026-04-26T14:04:13.904Z</time></trkpt><trkpt lat="44.7709098" lon="12.0854047"><ele>-6.0</ele><time>2026-04-26T14:04:14.903Z</time></trkpt><trkpt lat="44.770782" lon="12.085658"><ele>-6.0</ele><time>2026-04-26T14:04:15.904Z</time></trkpt><trkpt lat="44.7706582" lon="12.0859029"><ele>-6.0</ele><time>2026-04-26T14:04:16.904Z</time></trkpt><trkpt lat="44.7705335" lon="12.0861302"><ele>-6.0</ele><time>2026-04-26T14:04:17.903Z</time></trkpt><trkpt lat="44.7704114" lon="12.0863576"><ele>-6.0</ele><time>2026-04-26T14:04:18.904Z</time></trkpt><trkpt lat="44.7702676" lon="12.0865745"><ele>-6.0</ele><time>2026-04-26T14:04:19.903Z</time></trkpt><trkpt lat="44.7701123" lon="12.0867749"><ele>-6.0</ele><time>2026-04-26T14:04:20.904Z</time></trkpt><trkpt lat="44.7699443" lon="12.0869603"><ele>-5.666666666666667</ele><time>2026-04-26T14:04:21.904Z</time></trkpt><trkpt lat="44.7697702" lon="12.087117"><ele>-5.333333333333334</ele><time>2026-04-26T14:04:22.903Z</time></trkpt><trkpt lat="44.769584" lon="12.0872562"><ele>-5.0</ele><time>2026-04-26T14:04:23.904Z</time></trkpt><trkpt lat="44.7693923" lon="12.0873859"><ele>-5.666666666666667</ele><time>2026-04-26T14:04:24.904Z</time></trkpt><trkpt lat="44.7691928" lon="12.0874985"><ele>-6.333333333333334</ele><time>2026-04-26T14:04:25.903Z</time></trkpt><trkpt lat="44.7689836" lon="12.0875997"><ele>-7.0</ele><time>2026-04-26T14:04:26.903Z</time></trkpt><trkpt lat="44.7687673" lon="12.087694"><ele>-7.0</ele><time>2026-04-26T14:04:27.904Z</time></trkpt><trkpt lat="44.7685544" lon="12.0877839"><ele>-7.0</ele><time>2026-04-26T14:04:28.903Z</time></trkpt><trkpt lat="44.768341" lon="12.0878819"><ele>-7.0</ele><time>2026-04-26T14:04:29.903Z</time></trkpt><trkpt lat="44.7681248" lon="12.0879714"><ele>-6.5</ele><time>2026-04-26T14:04:30.904Z</time></trkpt><trkpt lat="44.7679085" lon="12.0880651"><ele>-6.0</ele><time>2026-04-26T14:04:31.903Z</time></trkpt><trkpt lat="44.7676935" lon="12.088161"><ele>-6.0</ele><time>2026-04-26T14:04:32.903Z</time></trkpt><trkpt lat="44.7674751" lon="12.0882495"><ele>-6.0</ele><time>2026-04-26T14:04:33.903Z</time></trkpt><trkpt lat="44.7672723" lon="12.0883429"><ele>-6.0</ele><time>2026-04-26T14:04:34.904Z</time></trkpt><trkpt lat="44.7670754" lon="12.0884348"><ele>-5.666666666666667</ele><time>2026-04-26T14:04:35.904Z</time></trkpt><trkpt lat="44.7668806" lon="12.0885212"><ele>-5.333333333333334</ele><time>2026-04-26T14:04:36.904Z</time></trkpt><trkpt lat="44.76669" lon="12.0886067"><ele>-5.0</ele><time>2026-04-26T14:04:37.904Z</time></trkpt><trkpt lat="44.7664939" lon="12.088694"><ele>-5.0</ele><time>2026-04-26T14:04:38.903Z</time></trkpt><trkpt lat="44.7663029" lon="12.0887739"><ele>-5.0</ele><time>2026-04-26T14:04:39.904Z</time></trkpt><trkpt lat="44.7661085" lon="12.0888566"><ele>-5.0</ele><time>2026-04-26T14:04:40.903Z</time></trkpt><trkpt lat="44.7659158" lon="12.0889417"><ele>-4.666666666666667</ele><time>2026-04-26T14:04:41.903Z</time></trkpt><trkpt lat="44.7657273" lon="12.0890258"><ele>-4.333333333333333</ele><time>2026-04-26T14:04:42.903Z</time></trkpt><trkpt lat="44.7655402" lon="12.089105"><ele>-4.0</ele><time>2026-04-26T14:04:43.903Z</time></trkpt><trkpt lat="44.7653609" lon="12.0891845"><ele>-4.333333333333333</ele><time>2026-04-26T14:04:44.903Z</time></trkpt><trkpt lat="44.7651927" lon="12.0892586"><ele>-4.666666666666667</ele><time>2026-04-26T14:04:45.903Z</time></trkpt><trkpt lat="44.7650365" lon="12.0893263"><ele>-5.0</ele><time>2026-04-26T14:04:46.904Z</time></trkpt><trkpt lat="44.7648858" lon="12.089392"><ele>-5.0</ele><time>2026-04-26T14:04:47.903Z</time></trkpt><trkpt lat="44.7647318" lon="12.0894662"><ele>-5.0</ele><time>2026-04-26T14:04:48.904Z</time></trkpt><trkpt lat="44.7645873" lon="12.0895331"><ele>-5.0</ele><time>2026-04-26T14:04:49.903Z</time></trkpt><trkpt lat="44.7644538" lon="12.0895928"><ele>-5.0</ele><time>2026-04-26T14:04:50.903Z</time></trkpt><trkpt lat="44.7643293" lon="12.0896486"><ele>-5.0</ele><time>2026-04-26T14:04:51.903Z</time></trkpt><trkpt lat="44.7642113" lon="12.0896952"><ele>-5.0</ele><time>2026-04-26T14:04:52.904Z</time></trkpt><trkpt lat="44.7641081" lon="12.0897353"><ele>-5.0</ele><time>2026-04-26T14:04:53.904Z</time></trkpt><trkpt lat="44.7640283" lon="12.0897648"><ele>-5.0</ele><time>2026-04-26T14:04:54.904Z</time></trkpt><trkpt lat="44.7639051" lon="12.0897594"><ele>-5.0</ele><time>2026-04-26T14:04:56.903Z</time></trkpt><trkpt lat="44.7638339" lon="12.0897599"><ele>-5.0</ele><time>2026-04-26T14:04:57.904Z</time></trkpt><trkpt lat="44.7637539" lon="12.0897709"><ele>-5.0</ele><time>2026-04-26T14:04:58.903Z</time></trkpt><trkpt lat="44.7636569" lon="12.0898762"><ele>-5.0</ele><time>2026-04-26T14:04:59.903Z</time></trkpt><trkpt lat="44.7635445" lon="12.0899698"><ele>-5.0</ele><time>2026-04-26T14:05:00.903Z</time></trkpt><trkpt lat="44.7634107" lon="12.0900542"><ele>-5.333333333333334</ele><time>2026-04-26T14:05:01.903Z</time></trkpt><trkpt lat="44.7632628" lon="12.0901243"><ele>-5.666666666666667</ele><time>2026-04-26T14:05:02.904Z</time></trkpt><trkpt lat="44.7630996" lon="12.0902077"><ele>-6.0</ele><time>2026-04-26T14:05:03.904Z</time></trkpt><trkpt lat="44.7629205" lon="12.0902949"><ele>-6.0</ele><time>2026-04-26T14:05:04.903Z</time></trkpt><trkpt lat="44.7627032" lon="12.0903865"><ele>-6.0</ele><time>2026-04-26T14:05:05.903Z</time></trkpt><trkpt lat="44.7624533" lon="12.0904965"><ele>-5.5</ele><time>2026-04-26T14:05:06.904Z</time></trkpt><trkpt lat="44.7621782" lon="12.0906261"><ele>-5.0</ele><time>2026-04-26T14:05:07.903Z</time></trkpt><trkpt lat="44.7618939" lon="12.0907547"><ele>-5.5</ele><time>2026-04-26T14:05:08.903Z</time></trkpt><trkpt lat="44.7616238" lon="12.0908692"><ele>-6.0</ele><time>2026-04-26T14:05:09.903Z</time></trkpt><trkpt lat="44.761372" lon="12.0909836"><ele>-6.0</ele><time>2026-04-26T14:05:10.903Z</time></trkpt><trkpt lat="44.7611324" lon="12.0910901"><ele>-6.0</ele><time>2026-04-26T14:05:11.903Z</time></trkpt><trkpt lat="44.7609055" lon="12.0911929"><ele>-6.0</ele><time>2026-04-26T14:05:12.904Z</time></trkpt><trkpt lat="44.760689" lon="12.0912894"><ele>-6.0</ele><time>2026-04-26T14:05:13.904Z</time></trkpt><trkpt lat="44.7604843" lon="12.0913788"><ele>-6.0</ele><time>2026-04-26T14:05:14.904Z</time></trkpt><trkpt lat="44.7602842" lon="12.0914624"><ele>-6.0</ele><time>2026-04-26T14:05:15.903Z</time></trkpt><trkpt lat="44.7600868" lon="12.0915502"><ele>-6.0</ele><time>2026-04-26T14:05:16.904Z</time></trkpt><trkpt lat="44.7598951" lon="12.0916325"><ele>-6.0</ele><time>2026-04-26T14:05:17.903Z</time></trkpt><trkpt lat="44.7596977" lon="12.0917121"><ele>-6.0</ele><time>2026-04-26T14:05:18.903Z</time></trkpt><trkpt lat="44.7595046" lon="12.091797"><ele>-6.0</ele><time>2026-04-26T14:05:19.904Z</time></trkpt><trkpt lat="44.7593119" lon="12.0918788"><ele>-6.0</ele><time>2026-04-26T14:05:20.903Z</time></trkpt><trkpt lat="44.7591198" lon="12.0919625"><ele>-6.0</ele><time>2026-04-26T14:05:21.903Z</time></trkpt><trkpt lat="44.7589295" lon="12.0920469"><ele>-6.0</ele><time>2026-04-26T14:05:22.903Z</time></trkpt><trkpt lat="44.7587365" lon="12.0921346"><ele>-6.0</ele><time>2026-04-26T14:05:23.903Z</time></trkpt><trkpt lat="44.7585448" lon="12.0922191"><ele>-6.0</ele><time>2026-04-26T14:05:24.903Z</time></trkpt><trkpt lat="44.7583575" lon="12.0923008"><ele>-6.0</ele><time>2026-04-26T14:05:25.903Z</time></trkpt><trkpt lat="44.7581684" lon="12.0923794"><ele>-6.0</ele><time>2026-04-26T14:05:26.903Z</time></trkpt><trkpt lat="44.7579838" lon="12.0924612"><ele>-6.0</ele><time>2026-04-26T14:05:27.903Z</time></trkpt><trkpt lat="44.7577974" lon="12.0925425"><ele>-6.0</ele><time>2026-04-26T14:05:28.904Z</time></trkpt><trkpt lat="44.7576135" lon="12.092625"><ele>-6.0</ele><time>2026-04-26T14:05:29.903Z</time></trkpt><trkpt lat="44.7574281" lon="12.0927019"><ele>-5.666666666666667</ele><time>2026-04-26T14:05:30.904Z</time></trkpt><trkpt lat="44.7572479" lon="12.0927846"><ele>-5.333333333333334</ele><time>2026-04-26T14:05:31.904Z</time></trkpt><trkpt lat="44.757064" lon="12.0928665"><ele>-5.0</ele><time>2026-04-26T14:05:32.903Z</time></trkpt><trkpt lat="44.7568821" lon="12.0929464"><ele>-5.0</ele><time>2026-04-26T14:05:33.903Z</time></trkpt><trkpt lat="44.7567015" lon="12.0930259"><ele>-5.0</ele><time>2026-04-26T14:05:34.903Z</time></trkpt><trkpt lat="44.7565211" lon="12.0931038"><ele>-5.0</ele><time>2026-04-26T14:05:35.903Z</time></trkpt><trkpt lat="44.7563433" lon="12.0931868"><ele>-5.0</ele><time>2026-04-26T14:05:36.904Z</time></trkpt><trkpt lat="44.7561657" lon="12.0932615"><ele>-5.0</ele><time>2026-04-26T14:05:37.903Z</time></trkpt><trkpt lat="44.7559888" lon="12.0933359"><ele>-5.0</ele><time>2026-04-26T14:05:38.904Z</time></trkpt><trkpt lat="44.7558064" lon="12.0934122"><ele>-5.0</ele><time>2026-04-26T14:05:39.904Z</time></trkpt><trkpt lat="44.7556243" lon="12.0934934"><ele>-5.0</ele><time>2026-04-26T14:05:40.904Z</time></trkpt><trkpt lat="44.7554373" lon="12.0935763"><ele>-5.0</ele><time>2026-04-26T14:05:41.903Z</time></trkpt><trkpt lat="44.7552425" lon="12.0936615"><ele>-4.666666666666667</ele><time>2026-04-26T14:05:42.903Z</time></trkpt><trkpt lat="44.7550449" lon="12.0937513"><ele>-4.333333333333333</ele><time>2026-04-26T14:05:43.903Z</time></trkpt><trkpt lat="44.7548484" lon="12.0938538"><ele>-4.0</ele><time>2026-04-26T14:05:44.904Z</time></trkpt><trkpt lat="44.7546597" lon="12.0939676"><ele>-4.0</ele><time>2026-04-26T14:05:45.903Z</time></trkpt><trkpt lat="44.754472" lon="12.0941082"><ele>-4.0</ele><time>2026-04-26T14:05:46.903Z</time></trkpt><trkpt lat="44.7542916" lon="12.0942675"><ele>-4.0</ele><time>2026-04-26T14:05:47.903Z</time></trkpt><trkpt lat="44.7541184" lon="12.0944423"><ele>-4.0</ele><time>2026-04-26T14:05:48.903Z</time></trkpt><trkpt lat="44.7539485" lon="12.0946246"><ele>-4.0</ele><time>2026-04-26T14:05:49.904Z</time></trkpt><trkpt lat="44.7537854" lon="12.094814"><ele>-4.0</ele><time>2026-04-26T14:05:50.904Z</time></trkpt><trkpt lat="44.7536347" lon="12.0950183"><ele>-3.6666666666666665</ele><time>2026-04-26T14:05:51.904Z</time></trkpt><trkpt lat="44.7534907" lon="12.0952435"><ele>-3.333333333333333</ele><time>2026-04-26T14:05:52.904Z</time></trkpt><trkpt lat="44.7533594" lon="12.0954766"><ele>-3.0</ele><time>2026-04-26T14:05:53.903Z</time></trkpt><trkpt lat="44.7532336" lon="12.0957214"><ele>-3.0</ele><time>2026-04-26T14:05:54.904Z</time></trkpt><trkpt lat="44.753122" lon="12.0959804"><ele>-3.0</ele><time>2026-04-26T14:05:55.904Z</time></trkpt><trkpt lat="44.753022" lon="12.0962487"><ele>-3.0</ele><time>2026-04-26T14:05:56.903Z</time></trkpt><trkpt lat="44.7529304" lon="12.0965132"><ele>-3.333333333333333</ele><time>2026-04-26T14:05:57.903Z</time></trkpt><trkpt lat="44.7528638" lon="12.096789"><ele>-3.6666666666666665</ele><time>2026-04-26T14:05:58.903Z</time></trkpt><trkpt lat="44.7527989" lon="12.0970727"><ele>-4.0</ele><time>2026-04-26T14:05:59.903Z</time></trkpt><trkpt lat="44.7527482" lon="12.0973597"><ele>-4.0</ele><time>2026-04-26T14:06:00.904Z</time></trkpt><trkpt lat="44.7526996" lon="12.0976514"><ele>-4.0</ele><time>2026-04-26T14:06:01.904Z</time></trkpt><trkpt lat="44.7526607" lon="12.0979377"><ele>-4.0</ele><time>2026-04-26T14:06:02.904Z</time></trkpt><trkpt lat="44.7526145" lon="12.0982235"><ele>-3.333333333333333</ele><time>2026-04-26T14:06:03.903Z</time></trkpt><trkpt lat="44.7525697" lon="12.0985117"><ele>-2.6666666666666665</ele><time>2026-04-26T14:06:04.903Z</time></trkpt><trkpt lat="44.7525304" lon="12.0988024"><ele>-2.0</ele><time>2026-04-26T14:06:05.903Z</time></trkpt><trkpt lat="44.7524866" lon="12.0990854"><ele>-1.6666666666666665</ele><time>2026-04-26T14:06:06.903Z</time></trkpt><trkpt lat="44.752442" lon="12.099374"><ele>-1.3333333333333333</ele><time>2026-04-26T14:06:07.904Z</time></trkpt><trkpt lat="44.7524017" lon="12.0996618"><ele>-1.0</ele><time>2026-04-26T14:06:08.903Z</time></trkpt><trkpt lat="44.7523585" lon="12.099958"><ele>-1.0</ele><time>2026-04-26T14:06:09.903Z</time></trkpt><trkpt lat="44.7523004" lon="12.1002467"><ele>-1.0</ele><time>2026-04-26T14:06:10.903Z</time></trkpt><trkpt lat="44.7522546" lon="12.1005443"><ele>-1.0</ele><time>2026-04-26T14:06:11.903Z</time></trkpt><trkpt lat="44.7522096" lon="12.1008438"><ele>-1.0</ele><time>2026-04-26T14:06:12.903Z</time></trkpt><trkpt lat="44.7521623" lon="12.1011459"><ele>-1.0</ele><time>2026-04-26T14:06:13.904Z</time></trkpt><trkpt lat="44.7521122" lon="12.1014444"><ele>-1.0</ele><time>2026-04-26T14:06:14.904Z</time></trkpt><trkpt lat="44.7520658" lon="12.1017511"><ele>-1.6666666666666665</ele><time>2026-04-26T14:06:15.903Z</time></trkpt><trkpt lat="44.7520235" lon="12.1020596"><ele>-2.3333333333333335</ele><time>2026-04-26T14:06:16.903Z</time></trkpt><trkpt lat="44.7519813" lon="12.102345"><ele>-3.0</ele><time>2026-04-26T14:06:17.904Z</time></trkpt><trkpt lat="44.7519357" lon="12.1026535"><ele>-3.0</ele><time>2026-04-26T14:06:18.903Z</time></trkpt><trkpt lat="44.7518892" lon="12.1029657"><ele>-3.0</ele><time>2026-04-26T14:06:19.904Z</time></trkpt><trkpt lat="44.7518447" lon="12.103271"><ele>-3.0</ele><time>2026-04-26T14:06:20.904Z</time></trkpt><trkpt lat="44.7517925" lon="12.1035816"><ele>-3.0</ele><time>2026-04-26T14:06:21.903Z</time></trkpt><trkpt lat="44.7517435" lon="12.1039026"><ele>-3.0</ele><time>2026-04-26T14:06:22.904Z</time></trkpt><trkpt lat="44.7516958" lon="12.1042318"><ele>-3.0</ele><time>2026-04-26T14:06:23.904Z</time></trkpt><trkpt lat="44.7516441" lon="12.1045658"><ele>-3.0</ele><time>2026-04-26T14:06:24.904Z</time></trkpt><trkpt lat="44.7515914" lon="12.1049074"><ele>-3.5</ele><time>2026-04-26T14:06:25.904Z</time></trkpt><trkpt lat="44.7515357" lon="12.1052646"><ele>-4.0</ele><time>2026-04-26T14:06:26.904Z</time></trkpt><trkpt lat="44.7514779" lon="12.1056254"><ele>-4.0</ele><time>2026-04-26T14:06:27.903Z</time></trkpt><trkpt lat="44.7514263" lon="12.1059756"><ele>-4.0</ele><time>2026-04-26T14:06:28.904Z</time></trkpt><trkpt lat="44.7513721" lon="12.1063236"><ele>-4.5</ele><time>2026-04-26T14:06:29.903Z</time></trkpt><trkpt lat="44.7513225" lon="12.1066656"><ele>-5.0</ele><time>2026-04-26T14:06:30.904Z</time></trkpt><trkpt lat="44.7512729" lon="12.1069972"><ele>-5.0</ele><time>2026-04-26T14:06:31.903Z</time></trkpt><trkpt lat="44.7512211" lon="12.1073273"><ele>-5.0</ele><time>2026-04-26T14:06:32.904Z</time></trkpt><trkpt lat="44.7511696" lon="12.1076553"><ele>-5.0</ele><time>2026-04-26T14:06:33.904Z</time></trkpt><trkpt lat="44.7511256" lon="12.107977"><ele>-5.0</ele><time>2026-04-26T14:06:34.903Z</time></trkpt><trkpt lat="44.7510727" lon="12.108302"><ele>-5.5</ele><time>2026-04-26T14:06:35.904Z</time></trkpt><trkpt lat="44.7510236" lon="12.1086211"><ele>-6.0</ele><time>2026-04-26T14:06:36.904Z</time></trkpt><trkpt lat="44.750974" lon="12.108939"><ele>-6.0</ele><time>2026-04-26T14:06:37.903Z</time></trkpt><trkpt lat="44.7509259" lon="12.1092587"><ele>-6.0</ele><time>2026-04-26T14:06:38.904Z</time></trkpt><trkpt lat="44.7508756" lon="12.1095754"><ele>-6.0</ele><time>2026-04-26T14:06:39.903Z</time></trkpt><trkpt lat="44.7508284" lon="12.1098879"><ele>-6.0</ele><time>2026-04-26T14:06:40.903Z</time></trkpt><trkpt lat="44.7507817" lon="12.1101994"><ele>-6.0</ele><time>2026-04-26T14:06:41.904Z</time></trkpt><trkpt lat="44.7507342" lon="12.1105134"><ele>-6.0</ele><time>2026-04-26T14:06:42.904Z</time></trkpt><trkpt lat="44.7506864" lon="12.1108278"><ele>-6.0</ele><time>2026-04-26T14:06:43.903Z</time></trkpt><trkpt lat="44.7506389" lon="12.1111364"><ele>-6.0</ele><time>2026-04-26T14:06:44.903Z</time></trkpt><trkpt lat="44.7505924" lon="12.1114419"><ele>-6.0</ele><time>2026-04-26T14:06:45.903Z</time></trkpt><trkpt lat="44.7505471" lon="12.1117502"><ele>-6.0</ele><time>2026-04-26T14:06:46.904Z</time></trkpt><trkpt lat="44.7505026" lon="12.1120606"><ele>-6.0</ele><time>2026-04-26T14:06:47.904Z</time></trkpt><trkpt lat="44.7504567" lon="12.1123669"><ele>-6.0</ele><time>2026-04-26T14:06:48.903Z</time></trkpt><trkpt lat="44.7504119" lon="12.112669"><ele>-5.666666666666667</ele><time>2026-04-26T14:06:49.903Z</time></trkpt><trkpt lat="44.7503699" lon="12.1129697"><ele>-5.333333333333334</ele><time>2026-04-26T14:06:50.903Z</time></trkpt><trkpt lat="44.7503259" lon="12.1132589"><ele>-5.0</ele><time>2026-04-26T14:06:51.903Z</time></trkpt><trkpt lat="44.7502855" lon="12.1135352"><ele>-5.0</ele><time>2026-04-26T14:06:52.904Z</time></trkpt><trkpt lat="44.7502387" lon="12.1138103"><ele>-5.0</ele><time>2026-04-26T14:06:53.903Z</time></trkpt><trkpt lat="44.7501973" lon="12.1140705"><ele>-5.0</ele><time>2026-04-26T14:06:54.903Z</time></trkpt><trkpt lat="44.7501614" lon="12.1143231"><ele>-5.0</ele><time>2026-04-26T14:06:55.904Z</time></trkpt><trkpt lat="44.7501213" lon="12.1145732"><ele>-5.0</ele><time>2026-04-26T14:06:56.904Z</time></trkpt><trkpt lat="44.7500859" lon="12.1148117"><ele>-5.0</ele><time>2026-04-26T14:06:57.904Z</time></trkpt><trkpt lat="44.7500481" lon="12.1150418"><ele>-4.666666666666667</ele><time>2026-04-26T14:06:58.904Z</time></trkpt><trkpt lat="44.7500146" lon="12.1152612"><ele>-4.333333333333333</ele><time>2026-04-26T14:06:59.903Z</time></trkpt><trkpt lat="44.7499816" lon="12.1154815"><ele>-4.0</ele><time>2026-04-26T14:07:00.903Z</time></trkpt><trkpt lat="44.7499555" lon="12.1156841"><ele>-4.5</ele><time>2026-04-26T14:07:01.903Z</time></trkpt><trkpt lat="44.7499265" lon="12.1158785"><ele>-5.0</ele><time>2026-04-26T14:07:02.903Z</time></trkpt><trkpt lat="44.7499014" lon="12.1160775"><ele>-5.5</ele><time>2026-04-26T14:07:03.903Z</time></trkpt><trkpt lat="44.7498732" lon="12.1162813"><ele>-6.0</ele><time>2026-04-26T14:07:04.903Z</time></trkpt><trkpt lat="44.749847" lon="12.1164808"><ele>-6.25</ele><time>2026-04-26T14:07:05.903Z</time></trkpt><trkpt lat="44.7498202" lon="12.1166619"><ele>-6.5</ele><time>2026-04-26T14:07:06.903Z</time></trkpt><trkpt lat="44.7497921" lon="12.1168315"><ele>-6.75</ele><time>2026-04-26T14:07:07.904Z</time></trkpt><trkpt lat="44.7497691" lon="12.116996"><ele>-7.0</ele><time>2026-04-26T14:07:08.904Z</time></trkpt><trkpt lat="44.7497486" lon="12.1171551"><ele>-7.0</ele><time>2026-04-26T14:07:09.904Z</time></trkpt><trkpt lat="44.7497277" lon="12.1173084"><ele>-6.999999999999999</ele><time>2026-04-26T14:07:10.904Z</time></trkpt><trkpt lat="44.7497024" lon="12.1174557"><ele>-6.999999999999999</ele><time>2026-04-26T14:07:11.904Z</time></trkpt><trkpt lat="44.7496482" lon="12.1175916"><ele>-7.0</ele><time>2026-04-26T14:07:12.903Z</time></trkpt><trkpt lat="44.7495818" lon="12.1177069"><ele>-7.0</ele><time>2026-04-26T14:07:13.904Z</time></trkpt><trkpt lat="44.749498" lon="12.1178208"><ele>-7.0</ele><time>2026-04-26T14:07:14.903Z</time></trkpt><trkpt lat="44.7494399" lon="12.1179434"><ele>-6.999999999999999</ele><time>2026-04-26T14:07:15.903Z</time></trkpt><trkpt lat="44.7494153" lon="12.1180711"><ele>-6.999999999999999</ele><time>2026-04-26T14:07:16.904Z</time></trkpt><trkpt lat="44.7494364" lon="12.1182172"><ele>-7.0</ele><time>2026-04-26T14:07:17.903Z</time></trkpt><trkpt lat="44.7494734" lon="12.1183398"><ele>-7.0</ele><time>2026-04-26T14:07:18.904Z</time></trkpt><trkpt lat="44.7495023" lon="12.1184607"><ele>-7.199999999999999</ele><time>2026-04-26T14:07:19.904Z</time></trkpt><trkpt lat="44.7495227" lon="12.1185918"><ele>-7.3999999999999995</ele><time>2026-04-26T14:07:20.904Z</time></trkpt><trkpt lat="44.7495181" lon="12.118731"><ele>-7.6000000000000005</ele><time>2026-04-26T14:07:21.903Z</time></trkpt><trkpt lat="44.7494968" lon="12.1188775"><ele>-7.800000000000001</ele><time>2026-04-26T14:07:22.904Z</time></trkpt><trkpt lat="44.7494671" lon="12.1190359"><ele>-8.0</ele><time>2026-04-26T14:07:23.904Z</time></trkpt><trkpt lat="44.7494386" lon="12.1192024"><ele>-7.5</ele><time>2026-04-26T14:07:24.904Z</time></trkpt><trkpt lat="44.7494108" lon="12.1193723"><ele>-7.0</ele><time>2026-04-26T14:07:25.904Z</time></trkpt><trkpt lat="44.7493776" lon="12.1195531"><ele>-6.5</ele><time>2026-04-26T14:07:26.903Z</time></trkpt><trkpt lat="44.7493467" lon="12.1197455"><ele>-6.0</ele><time>2026-04-26T14:07:27.903Z</time></trkpt><trkpt lat="44.7493196" lon="12.1199484"><ele>-5.666666666666667</ele><time>2026-04-26T14:07:28.904Z</time></trkpt><trkpt lat="44.7492892" lon="12.1201556"><ele>-5.333333333333334</ele><time>2026-04-26T14:07:29.903Z</time></trkpt><trkpt lat="44.749261" lon="12.1203751"><ele>-5.0</ele><time>2026-04-26T14:07:30.903Z</time></trkpt><trkpt lat="44.7492271" lon="12.1206005"><ele>-5.0</ele><time>2026-04-26T14:07:31.904Z</time></trkpt><trkpt lat="44.7491937" lon="12.1208275"><ele>-5.0</ele><time>2026-04-26T14:07:32.903Z</time></trkpt><trkpt lat="44.7491587" lon="12.1210609"><ele>-5.0</ele><time>2026-04-26T14:07:33.903Z</time></trkpt><trkpt lat="44.7491234" lon="12.1213018"><ele>-5.0</ele><time>2026-04-26T14:07:34.903Z</time></trkpt><trkpt lat="44.7490857" lon="12.1215314"><ele>-5.0</ele><time>2026-04-26T14:07:35.904Z</time></trkpt><trkpt lat="44.7490453" lon="12.1218219"><ele>-5.0</ele><time>2026-04-26T14:07:36.903Z</time></trkpt><trkpt lat="44.7489994" lon="12.1220993"><ele>-5.0</ele><time>2026-04-26T14:07:37.904Z</time></trkpt><trkpt lat="44.7489574" lon="12.1223642"><ele>-5.0</ele><time>2026-04-26T14:07:38.904Z</time></trkpt><trkpt lat="44.748916" lon="12.1226354"><ele>-5.0</ele><time>2026-04-26T14:07:39.904Z</time></trkpt><trkpt lat="44.748878" lon="12.1229198"><ele>-5.0</ele><time>2026-04-26T14:07:40.903Z</time></trkpt><trkpt lat="44.7488378" lon="12.1232081"><ele>-5.0</ele><time>2026-04-26T14:07:41.904Z</time></trkpt><trkpt lat="44.7487921" lon="12.1235063"><ele>-5.0</ele><time>2026-04-26T14:07:42.903Z</time></trkpt><trkpt lat="44.7487484" lon="12.1238073"><ele>-4.666666666666667</ele><time>2026-04-26T14:07:43.904Z</time></trkpt><trkpt lat="44.7486999" lon="12.1241025"><ele>-4.333333333333333</ele><time>2026-04-26T14:07:44.903Z</time></trkpt><trkpt lat="44.7486596" lon="12.1243903"><ele>-4.0</ele><time>2026-04-26T14:07:45.903Z</time></trkpt><trkpt lat="44.7486164" lon="12.1246778"><ele>-4.0</ele><time>2026-04-26T14:07:46.904Z</time></trkpt><trkpt lat="44.7485722" lon="12.124965"><ele>-4.0</ele><time>2026-04-26T14:07:47.903Z</time></trkpt><trkpt lat="44.7485296" lon="12.1252426"><ele>-4.0</ele><time>2026-04-26T14:07:48.903Z</time></trkpt><trkpt lat="44.7484883" lon="12.1255138"><ele>-4.0</ele><time>2026-04-26T14:07:49.903Z</time></trkpt><trkpt lat="44.7484482" lon="12.1257756"><ele>-4.0</ele><time>2026-04-26T14:07:50.904Z</time></trkpt><trkpt lat="44.7484091" lon="12.1260252"><ele>-4.0</ele><time>2026-04-26T14:07:51.904Z</time></trkpt><trkpt lat="44.7483736" lon="12.1262673"><ele>-4.0</ele><time>2026-04-26T14:07:52.904Z</time></trkpt><trkpt lat="44.7483355" lon="12.1264961"><ele>-4.0</ele><time>2026-04-26T14:07:53.904Z</time></trkpt><trkpt lat="44.7482976" lon="12.1267257"><ele>-4.0</ele><time>2026-04-26T14:07:54.903Z</time></trkpt><trkpt lat="44.7482642" lon="12.126959"><ele>-4.0</ele><time>2026-04-26T14:07:55.903Z</time></trkpt><trkpt lat="44.7482321" lon="12.1271913"><ele>-4.0</ele><time>2026-04-26T14:07:56.903Z</time></trkpt><trkpt lat="44.7481942" lon="12.1274268"><ele>-4.0</ele><time>2026-04-26T14:07:57.904Z</time></trkpt><trkpt lat="44.7481588" lon="12.1276668"><ele>-4.666666666666666</ele><time>2026-04-26T14:07:58.903Z</time></trkpt><trkpt lat="44.7481221" lon="12.1279147"><ele>-5.333333333333333</ele><time>2026-04-26T14:07:59.903Z</time></trkpt><trkpt lat="44.7480835" lon="12.1281635"><ele>-6.0</ele><time>2026-04-26T14:08:00.903Z</time></trkpt><trkpt lat="44.7480463" lon="12.1284182"><ele>-6.0</ele><time>2026-04-26T14:08:01.904Z</time></trkpt><trkpt lat="44.7480082" lon="12.1286729"><ele>-6.0</ele><time>2026-04-26T14:08:02.903Z</time></trkpt><trkpt lat="44.7479661" lon="12.1289309"><ele>-6.0</ele><time>2026-04-26T14:08:03.903Z</time></trkpt><trkpt lat="44.7479299" lon="12.1291838"><ele>-6.0</ele><time>2026-04-26T14:08:04.904Z</time></trkpt><trkpt lat="44.7478912" lon="12.1294305"><ele>-6.0</ele><time>2026-04-26T14:08:05.903Z</time></trkpt><trkpt lat="44.7478573" lon="12.1296689"><ele>-6.0</ele><time>2026-04-26T14:08:06.903Z</time></trkpt><trkpt lat="44.7478238" lon="12.1299036"><ele>-5.333333333333333</ele><time>2026-04-26T14:08:07.903Z</time></trkpt><trkpt lat="44.7477851" lon="12.1301373"><ele>-4.666666666666666</ele><time>2026-04-26T14:08:08.904Z</time></trkpt><trkpt lat="44.7477468" lon="12.1303719"><ele>-4.0</ele><time>2026-04-26T14:08:09.903Z</time></trkpt><trkpt lat="44.7477108" lon="12.1306081"><ele>-3.6666666666666665</ele><time>2026-04-26T14:08:10.903Z</time></trkpt><trkpt lat="44.7476765" lon="12.1308387"><ele>-3.333333333333333</ele><time>2026-04-26T14:08:11.904Z</time></trkpt><trkpt lat="44.7476398" lon="12.1310731"><ele>-3.0</ele><time>2026-04-26T14:08:12.904Z</time></trkpt><trkpt lat="44.7476007" lon="12.1313041"><ele>-3.0</ele><time>2026-04-26T14:08:13.904Z</time></trkpt><trkpt lat="44.7475675" lon="12.1315272"><ele>-3.0</ele><time>2026-04-26T14:08:14.904Z</time></trkpt><trkpt lat="44.7475342" lon="12.1317435"><ele>-3.0</ele><time>2026-04-26T14:08:15.904Z</time></trkpt><trkpt lat="44.7475048" lon="12.1319522"><ele>-3.0</ele><time>2026-04-26T14:08:16.904Z</time></trkpt><trkpt lat="44.7474782" lon="12.1321556"><ele>-3.0</ele><time>2026-04-26T14:08:17.903Z</time></trkpt><trkpt lat="44.747448" lon="12.1323544"><ele>-3.0</ele><time>2026-04-26T14:08:18.903Z</time></trkpt><trkpt lat="44.7474183" lon="12.1325538"><ele>-3.0</ele><time>2026-04-26T14:08:19.904Z</time></trkpt><trkpt lat="44.7473849" lon="12.1327518"><ele>-3.25</ele><time>2026-04-26T14:08:20.904Z</time></trkpt><trkpt lat="44.747354" lon="12.1329489"><ele>-3.5</ele><time>2026-04-26T14:08:21.903Z</time></trkpt><trkpt lat="44.7473225" lon="12.1331521"><ele>-3.75</ele><time>2026-04-26T14:08:22.904Z</time></trkpt><trkpt lat="44.7472868" lon="12.1333538"><ele>-4.0</ele><time>2026-04-26T14:08:23.903Z</time></trkpt><trkpt lat="44.7472535" lon="12.1335608"><ele>-4.0</ele><time>2026-04-26T14:08:24.903Z</time></trkpt><trkpt lat="44.7472168" lon="12.1337753"><ele>-4.0</ele><time>2026-04-26T14:08:25.903Z</time></trkpt><trkpt lat="44.7471804" lon="12.1339903"><ele>-4.0</ele><time>2026-04-26T14:08:26.903Z</time></trkpt><trkpt lat="44.7471466" lon="12.1342072"><ele>-4.0</ele><time>2026-04-26T14:08:27.903Z</time></trkpt><trkpt lat="44.7471201" lon="12.1344137"><ele>-4.0</ele><time>2026-04-26T14:08:28.903Z</time></trkpt><trkpt lat="44.7470923" lon="12.1345979"><ele>-4.0</ele><time>2026-04-26T14:08:29.904Z</time></trkpt><trkpt lat="44.7470646" lon="12.1347742"><ele>-4.0</ele><time>2026-04-26T14:08:30.904Z</time></trkpt><trkpt lat="44.747041" lon="12.1349388"><ele>-3.6</ele><time>2026-04-26T14:08:31.903Z</time></trkpt><trkpt lat="44.7470177" lon="12.1350941"><ele>-3.2</ele><time>2026-04-26T14:08:32.904Z</time></trkpt><trkpt lat="44.7469964" lon="12.1352347"><ele>-2.8000000000000003</ele><time>2026-04-26T14:08:33.903Z</time></trkpt><trkpt lat="44.7469764" lon="12.1353615"><ele>-2.4000000000000004</ele><time>2026-04-26T14:08:34.903Z</time></trkpt><trkpt lat="44.7469607" lon="12.1354839"><ele>-2.0</ele><time>2026-04-26T14:08:35.904Z</time></trkpt><trkpt lat="44.7469451" lon="12.1355911"><ele>-1.9999999999999998</ele><time>2026-04-26T14:08:36.904Z</time></trkpt><trkpt lat="44.7469308" lon="12.1356986"><ele>-2.0</ele><time>2026-04-26T14:08:37.903Z</time></trkpt><trkpt lat="44.7469153" lon="12.1357945"><ele>-2.0</ele><time>2026-04-26T14:08:38.904Z</time></trkpt><trkpt lat="44.7468904" lon="12.1359017"><ele>-2.0</ele><time>2026-04-26T14:08:39.903Z</time></trkpt><trkpt lat="44.7468471" lon="12.1360065"><ele>-1.9999999999999998</ele><time>2026-04-26T14:08:40.903Z</time></trkpt><trkpt lat="44.7467855" lon="12.1360981"><ele>-2.0</ele><time>2026-04-26T14:08:41.904Z</time></trkpt><trkpt lat="44.7467203" lon="12.1361773"><ele>-1.9999999999999998</ele><time>2026-04-26T14:08:42.904Z</time></trkpt><trkpt lat="44.7466624" lon="12.1362734"><ele>-2.0</ele><time>2026-04-26T14:08:43.903Z</time></trkpt><trkpt lat="44.7466239" lon="12.1363895"><ele>-2.0</ele><time>2026-04-26T14:08:44.903Z</time></trkpt><trkpt lat="44.7466101" lon="12.1365127"><ele>-2.0</ele><time>2026-04-26T14:08:45.903Z</time></trkpt><trkpt lat="44.7466245" lon="12.1366337"><ele>-1.9999999999999998</ele><time>2026-04-26T14:08:46.903Z</time></trkpt><trkpt lat="44.7466544" lon="12.1367484"><ele>-2.0</ele><time>2026-04-26T14:08:47.903Z</time></trkpt><trkpt lat="44.7466867" lon="12.136867"><ele>-1.8</ele><time>2026-04-26T14:08:48.903Z</time></trkpt><trkpt lat="44.7467048" lon="12.1369954"><ele>-1.6</ele><time>2026-04-26T14:08:49.903Z</time></trkpt><trkpt lat="44.7467075" lon="12.1371257"><ele>-1.4000000000000001</ele><time>2026-04-26T14:08:50.904Z</time></trkpt><trkpt lat="44.7466968" lon="12.1372639"><ele>-1.2000000000000002</ele><time>2026-04-26T14:08:51.904Z</time></trkpt><trkpt lat="44.7466704" lon="12.1374153"><ele>-1.0</ele><time>2026-04-26T14:08:52.903Z</time></trkpt><trkpt lat="44.7466488" lon="12.1375864"><ele>-1.0</ele><time>2026-04-26T14:08:53.904Z</time></trkpt><trkpt lat="44.7466216" lon="12.1377735"><ele>-1.0</ele><time>2026-04-26T14:08:54.903Z</time></trkpt><trkpt lat="44.7465848" lon="12.1379708"><ele>-1.0</ele><time>2026-04-26T14:08:55.903Z</time></trkpt><trkpt lat="44.7465442" lon="12.138171"><ele>-1.0</ele><time>2026-04-26T14:08:56.903Z</time></trkpt><trkpt lat="44.7464975" lon="12.1383843"><ele>-1.6666666666666665</ele><time>2026-04-26T14:08:57.904Z</time></trkpt><trkpt lat="44.7464401" lon="12.1386042"><ele>-2.3333333333333335</ele><time>2026-04-26T14:08:58.903Z</time></trkpt><trkpt lat="44.7463703" lon="12.1388296"><ele>-3.0</ele><time>2026-04-26T14:08:59.903Z</time></trkpt><trkpt lat="44.7463014" lon="12.1390588"><ele>-3.0</ele><time>2026-04-26T14:09:00.904Z</time></trkpt><trkpt lat="44.7462217" lon="12.1392824"><ele>-3.0</ele><time>2026-04-26T14:09:01.903Z</time></trkpt><trkpt lat="44.74613" lon="12.1394971"><ele>-3.0</ele><time>2026-04-26T14:09:02.904Z</time></trkpt><trkpt lat="44.7460323" lon="12.1397076"><ele>-3.0</ele><time>2026-04-26T14:09:03.903Z</time></trkpt><trkpt lat="44.7459289" lon="12.1399121"><ele>-3.0</ele><time>2026-04-26T14:09:04.903Z</time></trkpt><trkpt lat="44.7458153" lon="12.1401061"><ele>-3.0</ele><time>2026-04-26T14:09:05.904Z</time></trkpt><trkpt lat="44.7456996" lon="12.140297"><ele>-3.0</ele><time>2026-04-26T14:09:06.903Z</time></trkpt><trkpt lat="44.7455737" lon="12.140476"><ele>-3.0</ele><time>2026-04-26T14:09:07.904Z</time></trkpt><trkpt lat="44.7454409" lon="12.1406461"><ele>-3.0</ele><time>2026-04-26T14:09:08.903Z</time></trkpt><trkpt lat="44.7453062" lon="12.1408065"><ele>-2.6666666666666665</ele><time>2026-04-26T14:09:09.903Z</time></trkpt><trkpt lat="44.7451595" lon="12.1409604"><ele>-2.333333333333333</ele><time>2026-04-26T14:09:10.903Z</time></trkpt><trkpt lat="44.7450192" lon="12.1411103"><ele>-2.0</ele><time>2026-04-26T14:09:11.904Z</time></trkpt><trkpt lat="44.7448723" lon="12.1412482"><ele>-2.0</ele><time>2026-04-26T14:09:12.903Z</time></trkpt><trkpt lat="44.7447183" lon="12.1413753"><ele>-2.0</ele><time>2026-04-26T14:09:13.904Z</time></trkpt><trkpt lat="44.7445608" lon="12.1414833"><ele>-2.0</ele><time>2026-04-26T14:09:14.904Z</time></trkpt><trkpt lat="44.7443994" lon="12.1415885"><ele>-2.6666666666666665</ele><time>2026-04-26T14:09:15.903Z</time></trkpt><trkpt lat="44.744233" lon="12.141689"><ele>-3.333333333333333</ele><time>2026-04-26T14:09:16.903Z</time></trkpt><trkpt lat="44.7440701" lon="12.1417871"><ele>-4.0</ele><time>2026-04-26T14:09:17.904Z</time></trkpt><trkpt lat="44.7438996" lon="12.1418908"><ele>-4.0</ele><time>2026-04-26T14:09:18.904Z</time></trkpt><trkpt lat="44.743731" lon="12.1419906"><ele>-4.0</ele><time>2026-04-26T14:09:19.903Z</time></trkpt><trkpt lat="44.7435657" lon="12.1420833"><ele>-4.0</ele><time>2026-04-26T14:09:20.904Z</time></trkpt><trkpt lat="44.7434089" lon="12.1421728"><ele>-3.333333333333333</ele><time>2026-04-26T14:09:21.903Z</time></trkpt><trkpt lat="44.7432645" lon="12.1422577"><ele>-2.6666666666666665</ele><time>2026-04-26T14:09:22.904Z</time></trkpt><trkpt lat="44.7431196" lon="12.1423379"><ele>-2.0</ele><time>2026-04-26T14:09:23.904Z</time></trkpt><trkpt lat="44.7429667" lon="12.1424257"><ele>-2.0</ele><time>2026-04-26T14:09:24.903Z</time></trkpt><trkpt lat="44.7428127" lon="12.1425182"><ele>-2.0</ele><time>2026-04-26T14:09:25.904Z</time></trkpt><trkpt lat="44.7426555" lon="12.1426072"><ele>-2.0</ele><time>2026-04-26T14:09:26.903Z</time></trkpt><trkpt lat="44.7425036" lon="12.1426962"><ele>-2.0</ele><time>2026-04-26T14:09:27.904Z</time></trkpt><trkpt lat="44.7423508" lon="12.1427795"><ele>-2.0</ele><time>2026-04-26T14:09:28.904Z</time></trkpt><trkpt lat="44.7421863" lon="12.1428736"><ele>-2.0</ele><time>2026-04-26T14:09:29.904Z</time></trkpt><trkpt lat="44.7420046" lon="12.1429982"><ele>-2.5</ele><time>2026-04-26T14:09:30.904Z</time></trkpt><trkpt lat="44.7418044" lon="12.1431206"><ele>-3.0</ele><time>2026-04-26T14:09:31.903Z</time></trkpt><trkpt lat="44.7415855" lon="12.1432397"><ele>-3.0</ele><time>2026-04-26T14:09:32.903Z</time></trkpt><trkpt lat="44.7413442" lon="12.1433727"><ele>-3.0</ele><time>2026-04-26T14:09:33.903Z</time></trkpt><trkpt lat="44.7410944" lon="12.1435169"><ele>-3.0</ele><time>2026-04-26T14:09:34.903Z</time></trkpt><trkpt lat="44.7408389" lon="12.1436626"><ele>-3.0</ele><time>2026-04-26T14:09:35.903Z</time></trkpt><trkpt lat="44.7405876" lon="12.1438082"><ele>-3.0</ele><time>2026-04-26T14:09:36.903Z</time></trkpt><trkpt lat="44.7403354" lon="12.1439527"><ele>-3.0</ele><time>2026-04-26T14:09:37.903Z</time></trkpt><trkpt lat="44.7400912" lon="12.1440965"><ele>-3.5</ele><time>2026-04-26T14:09:38.904Z</time></trkpt><trkpt lat="44.7398488" lon="12.1442217"><ele>-4.0</ele><time>2026-04-26T14:09:39.904Z</time></trkpt><trkpt lat="44.7396127" lon="12.1443389"><ele>-4.0</ele><time>2026-04-26T14:09:40.903Z</time></trkpt><trkpt lat="44.73939" lon="12.1444589"><ele>-4.0</ele><time>2026-04-26T14:09:41.904Z</time></trkpt><trkpt lat="44.7391671" lon="12.1445823"><ele>-3.5</ele><time>2026-04-26T14:09:42.903Z</time></trkpt><trkpt lat="44.7389534" lon="12.1447037"><ele>-3.0</ele><time>2026-04-26T14:09:43.904Z</time></trkpt><trkpt lat="44.7387489" lon="12.1448214"><ele>-4.0</ele><time>2026-04-26T14:09:44.903Z</time></trkpt><trkpt lat="44.7385507" lon="12.1449379"><ele>-5.0</ele><time>2026-04-26T14:09:45.904Z</time></trkpt><trkpt lat="44.7383554" lon="12.145047"><ele>-6.0</ele><time>2026-04-26T14:09:46.904Z</time></trkpt><trkpt lat="44.7381575" lon="12.1451615"><ele>-6.0</ele><time>2026-04-26T14:09:47.903Z</time></trkpt><trkpt lat="44.737967" lon="12.1452701"><ele>-6.0</ele><time>2026-04-26T14:09:48.904Z</time></trkpt><trkpt lat="44.7377803" lon="12.1453817"><ele>-6.0</ele><time>2026-04-26T14:09:49.904Z</time></trkpt><trkpt lat="44.7375993" lon="12.1454873"><ele>-5.0</ele><time>2026-04-26T14:09:50.904Z</time></trkpt><trkpt lat="44.7374143" lon="12.1455985"><ele>-4.0</ele><time>2026-04-26T14:09:51.903Z</time></trkpt><trkpt lat="44.7372275" lon="12.1457083"><ele>-3.0</ele><time>2026-04-26T14:09:52.903Z</time></trkpt><trkpt lat="44.7370416" lon="12.1458178"><ele>-3.0</ele><time>2026-04-26T14:09:53.903Z</time></trkpt><trkpt lat="44.7368559" lon="12.1459221"><ele>-3.0</ele><time>2026-04-26T14:09:54.903Z</time></trkpt><trkpt lat="44.7366673" lon="12.1460312"><ele>-3.0</ele><time>2026-04-26T14:09:55.904Z</time></trkpt><trkpt lat="44.7364758" lon="12.1461385"><ele>-3.0</ele><time>2026-04-26T14:09:56.903Z</time></trkpt><trkpt lat="44.7362861" lon="12.1462478"><ele>-3.0</ele><time>2026-04-26T14:09:57.904Z</time></trkpt><trkpt lat="44.736094" lon="12.1463578"><ele>-3.0</ele><time>2026-04-26T14:09:58.904Z</time></trkpt><trkpt lat="44.7359044" lon="12.1464643"><ele>-2.3333333333333335</ele><time>2026-04-26T14:09:59.904Z</time></trkpt><trkpt lat="44.735713" lon="12.146579"><ele>-1.6666666666666665</ele><time>2026-04-26T14:10:00.903Z</time></trkpt><trkpt lat="44.7355192" lon="12.1466913"><ele>-1.0</ele><time>2026-04-26T14:10:01.903Z</time></trkpt><trkpt lat="44.7353264" lon="12.1468033"><ele>-1.6666666666666665</ele><time>2026-04-26T14:10:02.903Z</time></trkpt><trkpt lat="44.7351349" lon="12.1469168"><ele>-2.3333333333333335</ele><time>2026-04-26T14:10:03.903Z</time></trkpt><trkpt lat="44.734936" lon="12.1470278"><ele>-3.0</ele><time>2026-04-26T14:10:04.904Z</time></trkpt><trkpt lat="44.7347383" lon="12.1471416"><ele>-3.0</ele><time>2026-04-26T14:10:05.903Z</time></trkpt><trkpt lat="44.7345386" lon="12.1472498"><ele>-3.0</ele><time>2026-04-26T14:10:06.904Z</time></trkpt><trkpt lat="44.7343397" lon="12.147364"><ele>-3.0</ele><time>2026-04-26T14:10:07.904Z</time></trkpt><trkpt lat="44.73414" lon="12.1474807"><ele>-3.0</ele><time>2026-04-26T14:10:08.904Z</time></trkpt><trkpt lat="44.7339378" lon="12.1476001"><ele>-3.0</ele><time>2026-04-26T14:10:09.903Z</time></trkpt><trkpt lat="44.7337387" lon="12.1477183"><ele>-3.0</ele><time>2026-04-26T14:10:10.904Z</time></trkpt><trkpt lat="44.7335367" lon="12.1478374"><ele>-3.333333333333333</ele><time>2026-04-26T14:10:11.904Z</time></trkpt><trkpt lat="44.7333372" lon="12.1479603"><ele>-3.6666666666666665</ele><time>2026-04-26T14:10:12.904Z</time></trkpt><trkpt lat="44.7331357" lon="12.1480755"><ele>-4.0</ele><time>2026-04-26T14:10:13.903Z</time></trkpt><trkpt lat="44.7329333" lon="12.1481943"><ele>-4.0</ele><time>2026-04-26T14:10:14.904Z</time></trkpt><trkpt lat="44.7327296" lon="12.1483041"><ele>-4.0</ele><time>2026-04-26T14:10:15.904Z</time></trkpt><trkpt lat="44.7325229" lon="12.1484175"><ele>-4.0</ele><time>2026-04-26T14:10:16.903Z</time></trkpt><trkpt lat="44.7323214" lon="12.148536"><ele>-4.0</ele><time>2026-04-26T14:10:17.904Z</time></trkpt><trkpt lat="44.732118" lon="12.1486482"><ele>-4.0</ele><time>2026-04-26T14:10:18.904Z</time></trkpt><trkpt lat="44.7319133" lon="12.1487651"><ele>-4.0</ele><time>2026-04-26T14:10:19.903Z</time></trkpt><trkpt lat="44.7317092" lon="12.14888"><ele>-3.6666666666666665</ele><time>2026-04-26T14:10:20.903Z</time></trkpt><trkpt lat="44.7315037" lon="12.1489947"><ele>-3.333333333333333</ele><time>2026-04-26T14:10:21.903Z</time></trkpt><trkpt lat="44.7312973" lon="12.1491119"><ele>-3.0</ele><time>2026-04-26T14:10:22.903Z</time></trkpt><trkpt lat="44.7310939" lon="12.1492315"><ele>-3.333333333333333</ele><time>2026-04-26T14:10:23.903Z</time></trkpt><trkpt lat="44.7308889" lon="12.1493555"><ele>-3.6666666666666665</ele><time>2026-04-26T14:10:24.903Z</time></trkpt><trkpt lat="44.7306822" lon="12.1494843"><ele>-4.0</ele><time>2026-04-26T14:10:25.903Z</time></trkpt><trkpt lat="44.7304734" lon="12.1496032"><ele>-4.0</ele><time>2026-04-26T14:10:26.903Z</time></trkpt><trkpt lat="44.7302737" lon="12.1497186"><ele>-4.0</ele><time>2026-04-26T14:10:27.903Z</time></trkpt><trkpt lat="44.7300912" lon="12.1498215"><ele>-4.0</ele><time>2026-04-26T14:10:28.904Z</time></trkpt><trkpt lat="44.7299285" lon="12.1499046"><ele>-3.75</ele><time>2026-04-26T14:10:29.903Z</time></trkpt><trkpt lat="44.7297902" lon="12.1499848"><ele>-3.5</ele><time>2026-04-26T14:10:30.903Z</time></trkpt><trkpt lat="44.72967" lon="12.1500544"><ele>-3.25</ele><time>2026-04-26T14:10:31.903Z</time></trkpt><trkpt lat="44.7295609" lon="12.1501021"><ele>-3.0</ele><time>2026-04-26T14:10:32.903Z</time></trkpt><trkpt lat="44.7294576" lon="12.1501173"><ele>-3.0</ele><time>2026-04-26T14:10:33.904Z</time></trkpt><trkpt lat="44.7293662" lon="12.1501274"><ele>-3.0</ele><time>2026-04-26T14:10:34.904Z</time></trkpt><trkpt lat="44.7292725" lon="12.1501733"><ele>-3.0</ele><time>2026-04-26T14:10:35.904Z</time></trkpt><trkpt lat="44.7291834" lon="12.1502556"><ele>-3.0</ele><time>2026-04-26T14:10:36.903Z</time></trkpt><trkpt lat="44.7290799" lon="12.1503602"><ele>-3.0</ele><time>2026-04-26T14:10:37.904Z</time></trkpt><trkpt lat="44.728952" lon="12.1504599"><ele>-3.0</ele><time>2026-04-26T14:10:38.903Z</time></trkpt><trkpt lat="44.7287985" lon="12.1505517"><ele>-3.0</ele><time>2026-04-26T14:10:39.903Z</time></trkpt><trkpt lat="44.728626" lon="12.1506396"><ele>-3.0</ele><time>2026-04-26T14:10:40.903Z</time></trkpt><trkpt lat="44.7284531" lon="12.1507418"><ele>-3.0</ele><time>2026-04-26T14:10:41.904Z</time></trkpt><trkpt lat="44.728281" lon="12.1508422"><ele>-3.0</ele><time>2026-04-26T14:10:42.903Z</time></trkpt><trkpt lat="44.7281026" lon="12.1509432"><ele>-3.0</ele><time>2026-04-26T14:10:43.903Z</time></trkpt><trkpt lat="44.7279122" lon="12.1510423"><ele>-3.0</ele><time>2026-04-26T14:10:44.903Z</time></trkpt><trkpt lat="44.7277247" lon="12.1511541"><ele>-3.0</ele><time>2026-04-26T14:10:45.904Z</time></trkpt><trkpt lat="44.7275343" lon="12.151266"><ele>-3.0</ele><time>2026-04-26T14:10:46.903Z</time></trkpt><trkpt lat="44.7273367" lon="12.1513806"><ele>-3.0</ele><time>2026-04-26T14:10:47.904Z</time></trkpt><trkpt lat="44.7271387" lon="12.1514907"><ele>-3.0</ele><time>2026-04-26T14:10:48.903Z</time></trkpt><trkpt lat="44.7269492" lon="12.1515957"><ele>-3.0</ele><time>2026-04-26T14:10:49.903Z</time></trkpt><trkpt lat="44.7267432" lon="12.151716"><ele>-4.0</ele><time>2026-04-26T14:10:50.903Z</time></trkpt><trkpt lat="44.7265412" lon="12.1518372"><ele>-5.0</ele><time>2026-04-26T14:10:51.903Z</time></trkpt><trkpt lat="44.7263405" lon="12.1519551"><ele>-6.0</ele><time>2026-04-26T14:10:52.903Z</time></trkpt><trkpt lat="44.7261386" lon="12.1520718"><ele>-5.666666666666667</ele><time>2026-04-26T14:10:53.903Z</time></trkpt><trkpt lat="44.7259426" lon="12.1521803"><ele>-5.333333333333334</ele><time>2026-04-26T14:10:54.903Z</time></trkpt><trkpt lat="44.7257503" lon="12.1522896"><ele>-5.0</ele><time>2026-04-26T14:10:55.903Z</time></trkpt><trkpt lat="44.7255521" lon="12.1524083"><ele>-4.666666666666667</ele><time>2026-04-26T14:10:56.904Z</time></trkpt><trkpt lat="44.725359" lon="12.1525246"><ele>-4.333333333333333</ele><time>2026-04-26T14:10:57.903Z</time></trkpt><trkpt lat="44.7251639" lon="12.1526367"><ele>-4.0</ele><time>2026-04-26T14:10:58.904Z</time></trkpt><trkpt lat="44.7249714" lon="12.152745"><ele>-3.6666666666666665</ele><time>2026-04-26T14:10:59.904Z</time></trkpt><trkpt lat="44.7247754" lon="12.1528516"><ele>-3.333333333333333</ele><time>2026-04-26T14:11:00.904Z</time></trkpt><trkpt lat="44.7245802" lon="12.1529586"><ele>-3.0</ele><time>2026-04-26T14:11:01.903Z</time></trkpt><trkpt lat="44.724387" lon="12.1530645"><ele>-3.0</ele><time>2026-04-26T14:11:02.903Z</time></trkpt><trkpt lat="44.7241934" lon="12.1531793"><ele>-3.0</ele><time>2026-04-26T14:11:03.903Z</time></trkpt><trkpt lat="44.724001" lon="12.1532984"><ele>-3.0</ele><time>2026-04-26T14:11:04.903Z</time></trkpt><trkpt lat="44.7238059" lon="12.1534102"><ele>-3.0</ele><time>2026-04-26T14:11:05.903Z</time></trkpt><trkpt lat="44.7236125" lon="12.1535233"><ele>-3.0</ele><time>2026-04-26T14:11:06.904Z</time></trkpt><trkpt lat="44.723412" lon="12.153636"><ele>-3.0</ele><time>2026-04-26T14:11:07.903Z</time></trkpt><trkpt lat="44.7232146" lon="12.1537503"><ele>-3.0</ele><time>2026-04-26T14:11:08.903Z</time></trkpt><trkpt lat="44.7230153" lon="12.1538607"><ele>-3.0</ele><time>2026-04-26T14:11:09.903Z</time></trkpt><trkpt lat="44.7228182" lon="12.1539812"><ele>-3.0</ele><time>2026-04-26T14:11:10.903Z</time></trkpt><trkpt lat="44.7226181" lon="12.1540923"><ele>-3.0</ele><time>2026-04-26T14:11:11.904Z</time></trkpt><trkpt lat="44.7224214" lon="12.1542131"><ele>-3.0</ele><time>2026-04-26T14:11:12.903Z</time></trkpt><trkpt lat="44.7222208" lon="12.15433"><ele>-3.0</ele><time>2026-04-26T14:11:13.904Z</time></trkpt><trkpt lat="44.7220211" lon="12.1544438"><ele>-3.333333333333333</ele><time>2026-04-26T14:11:14.903Z</time></trkpt><trkpt lat="44.7218223" lon="12.1545577"><ele>-3.6666666666666665</ele><time>2026-04-26T14:11:15.904Z</time></trkpt><trkpt lat="44.7216225" lon="12.1546645"><ele>-4.0</ele><time>2026-04-26T14:11:16.904Z</time></trkpt><trkpt lat="44.7214198" lon="12.1547812"><ele>-4.0</ele><time>2026-04-26T14:11:17.904Z</time></trkpt><trkpt lat="44.7212211" lon="12.1548942"><ele>-4.0</ele><time>2026-04-26T14:11:18.904Z</time></trkpt><trkpt lat="44.7210298" lon="12.1550065"><ele>-4.0</ele><time>2026-04-26T14:11:19.903Z</time></trkpt><trkpt lat="44.720841" lon="12.1551193"><ele>-4.0</ele><time>2026-04-26T14:11:20.903Z</time></trkpt><trkpt lat="44.7206542" lon="12.1552228"><ele>-4.0</ele><time>2026-04-26T14:11:21.904Z</time></trkpt><trkpt lat="44.7204709" lon="12.1553201"><ele>-4.0</ele><time>2026-04-26T14:11:22.903Z</time></trkpt><trkpt lat="44.7202891" lon="12.1554223"><ele>-3.6666666666666665</ele><time>2026-04-26T14:11:23.903Z</time></trkpt><trkpt lat="44.7201075" lon="12.1555307"><ele>-3.333333333333333</ele><time>2026-04-26T14:11:24.904Z</time></trkpt><trkpt lat="44.7199219" lon="12.1556361"><ele>-3.0</ele><time>2026-04-26T14:11:25.903Z</time></trkpt><trkpt lat="44.7197399" lon="12.1557461"><ele>-3.0</ele><time>2026-04-26T14:11:26.903Z</time></trkpt><trkpt lat="44.7195589" lon="12.1558499"><ele>-3.0</ele><time>2026-04-26T14:11:27.904Z</time></trkpt><trkpt lat="44.7193739" lon="12.1559584"><ele>-3.0</ele><time>2026-04-26T14:11:28.903Z</time></trkpt><trkpt lat="44.719184" lon="12.1560696"><ele>-3.333333333333333</ele><time>2026-04-26T14:11:29.903Z</time></trkpt><trkpt lat="44.7189939" lon="12.156178"><ele>-3.6666666666666665</ele><time>2026-04-26T14:11:30.904Z</time></trkpt><trkpt lat="44.7188027" lon="12.1562827"><ele>-4.0</ele><time>2026-04-26T14:11:31.903Z</time></trkpt><trkpt lat="44.718609" lon="12.1563914"><ele>-4.0</ele><time>2026-04-26T14:11:32.904Z</time></trkpt><trkpt lat="44.7184151" lon="12.156503"><ele>-4.0</ele><time>2026-04-26T14:11:33.904Z</time></trkpt><trkpt lat="44.7182196" lon="12.156612"><ele>-4.0</ele><time>2026-04-26T14:11:34.904Z</time></trkpt><trkpt lat="44.7180208" lon="12.1567229"><ele>-4.0</ele><time>2026-04-26T14:11:35.903Z</time></trkpt><trkpt lat="44.7178226" lon="12.1568301"><ele>-4.0</ele><time>2026-04-26T14:11:36.903Z</time></trkpt><trkpt lat="44.7176271" lon="12.1569379"><ele>-4.0</ele><time>2026-04-26T14:11:37.903Z</time></trkpt><trkpt lat="44.7174493" lon="12.1570377"><ele>-3.333333333333333</ele><time>2026-04-26T14:11:38.904Z</time></trkpt><trkpt lat="44.7172927" lon="12.1571283"><ele>-2.6666666666666665</ele><time>2026-04-26T14:11:39.904Z</time></trkpt><trkpt lat="44.7171477" lon="12.1572167"><ele>-2.0</ele><time>2026-04-26T14:11:40.903Z</time></trkpt><trkpt lat="44.7170017" lon="12.1572995"><ele>-2.6666666666666665</ele><time>2026-04-26T14:11:41.903Z</time></trkpt><trkpt lat="44.7168508" lon="12.1573819"><ele>-3.333333333333333</ele><time>2026-04-26T14:11:42.904Z</time></trkpt><trkpt lat="44.7166952" lon="12.1574658"><ele>-4.0</ele><time>2026-04-26T14:11:43.903Z</time></trkpt><trkpt lat="44.7165324" lon="12.1575579"><ele>-4.0</ele><time>2026-04-26T14:11:44.904Z</time></trkpt><trkpt lat="44.7163631" lon="12.1576488"><ele>-4.0</ele><time>2026-04-26T14:11:45.903Z</time></trkpt><trkpt lat="44.7161939" lon="12.1577477"><ele>-4.0</ele><time>2026-04-26T14:11:46.904Z</time></trkpt><trkpt lat="44.7160224" lon="12.1578451"><ele>-3.6666666666666665</ele><time>2026-04-26T14:11:47.903Z</time></trkpt><trkpt lat="44.7158493" lon="12.1579402"><ele>-3.333333333333333</ele><time>2026-04-26T14:11:48.903Z</time></trkpt><trkpt lat="44.7156734" lon="12.1580409"><ele>-3.0</ele><time>2026-04-26T14:11:49.903Z</time></trkpt><trkpt lat="44.7155001" lon="12.1581438"><ele>-3.0</ele><time>2026-04-26T14:11:50.903Z</time></trkpt><trkpt lat="44.7153265" lon="12.1582421"><ele>-3.0</ele><time>2026-04-26T14:11:51.904Z</time></trkpt><trkpt lat="44.7151469" lon="12.1583412"><ele>-3.0</ele><time>2026-04-26T14:11:52.903Z</time></trkpt><trkpt lat="44.7149642" lon="12.1584485"><ele>-2.3333333333333335</ele><time>2026-04-26T14:11:53.903Z</time></trkpt><trkpt lat="44.7147892" lon="12.1585435"><ele>-1.6666666666666665</ele><time>2026-04-26T14:11:54.903Z</time></trkpt><trkpt lat="44.7146289" lon="12.1586398"><ele>-1.0</ele><time>2026-04-26T14:11:55.903Z</time></trkpt><trkpt lat="44.7144721" lon="12.1587256"><ele>-2.0</ele><time>2026-04-26T14:11:56.904Z</time></trkpt><trkpt lat="44.7143231" lon="12.1588147"><ele>-3.0</ele><time>2026-04-26T14:11:57.903Z</time></trkpt><trkpt lat="44.714163" lon="12.158896"><ele>-4.0</ele><time>2026-04-26T14:11:58.903Z</time></trkpt><trkpt lat="44.7139991" lon="12.158985"><ele>-4.0</ele><time>2026-04-26T14:11:59.903Z</time></trkpt><trkpt lat="44.7138288" lon="12.1590756"><ele>-4.0</ele><time>2026-04-26T14:12:00.904Z</time></trkpt><trkpt lat="44.7136528" lon="12.1591716"><ele>-4.0</ele><time>2026-04-26T14:12:01.904Z</time></trkpt><trkpt lat="44.7134783" lon="12.1592736"><ele>-4.333333333333333</ele><time>2026-04-26T14:12:02.904Z</time></trkpt><trkpt lat="44.7133031" lon="12.1593794"><ele>-4.666666666666667</ele><time>2026-04-26T14:12:03.904Z</time></trkpt><trkpt lat="44.7131261" lon="12.1594923"><ele>-5.0</ele><time>2026-04-26T14:12:04.904Z</time></trkpt><trkpt lat="44.7129487" lon="12.159608"><ele>-5.0</ele><time>2026-04-26T14:12:05.903Z</time></trkpt><trkpt lat="44.7127718" lon="12.1597211"><ele>-5.0</ele><time>2026-04-26T14:12:06.903Z</time></trkpt><trkpt lat="44.7125988" lon="12.1598321"><ele>-5.0</ele><time>2026-04-26T14:12:07.903Z</time></trkpt><trkpt lat="44.7124286" lon="12.1599296"><ele>-5.0</ele><time>2026-04-26T14:12:08.904Z</time></trkpt><trkpt lat="44.7122517" lon="12.1600338"><ele>-5.0</ele><time>2026-04-26T14:12:09.904Z</time></trkpt><trkpt lat="44.7120778" lon="12.1601376"><ele>-5.0</ele><time>2026-04-26T14:12:10.903Z</time></trkpt><trkpt lat="44.7119022" lon="12.1602367"><ele>-4.666666666666667</ele><time>2026-04-26T14:12:11.903Z</time></trkpt><trkpt lat="44.7117294" lon="12.1603436"><ele>-4.333333333333333</ele><time>2026-04-26T14:12:12.904Z</time></trkpt><trkpt lat="44.7115504" lon="12.1604429"><ele>-4.0</ele><time>2026-04-26T14:12:13.903Z</time></trkpt><trkpt lat="44.7113717" lon="12.1605461"><ele>-4.0</ele><time>2026-04-26T14:12:14.904Z</time></trkpt><trkpt lat="44.7111946" lon="12.1606515"><ele>-4.0</ele><time>2026-04-26T14:12:15.904Z</time></trkpt><trkpt lat="44.7110166" lon="12.1607512"><ele>-4.0</ele><time>2026-04-26T14:12:16.904Z</time></trkpt><trkpt lat="44.7108364" lon="12.1608527"><ele>-4.0</ele><time>2026-04-26T14:12:17.904Z</time></trkpt><trkpt lat="44.7106577" lon="12.1609559"><ele>-4.0</ele><time>2026-04-26T14:12:18.904Z</time></trkpt><trkpt lat="44.7104792" lon="12.1610587"><ele>-4.0</ele><time>2026-04-26T14:12:19.903Z</time></trkpt><trkpt lat="44.7102971" lon="12.161163"><ele>-4.666666666666666</ele><time>2026-04-26T14:12:20.903Z</time></trkpt><trkpt lat="44.7101104" lon="12.161276"><ele>-5.333333333333333</ele><time>2026-04-26T14:12:21.904Z</time></trkpt><trkpt lat="44.7099272" lon="12.1613783"><ele>-6.0</ele><time>2026-04-26T14:12:22.903Z</time></trkpt><trkpt lat="44.7097425" lon="12.1614864"><ele>-5.666666666666667</ele><time>2026-04-26T14:12:23.904Z</time></trkpt><trkpt lat="44.7095581" lon="12.1615915"><ele>-5.333333333333334</ele><time>2026-04-26T14:12:24.904Z</time></trkpt><trkpt lat="44.7093699" lon="12.1616938"><ele>-5.0</ele><time>2026-04-26T14:12:25.903Z</time></trkpt><trkpt lat="44.709186" lon="12.1617962"><ele>-5.0</ele><time>2026-04-26T14:12:26.904Z</time></trkpt><trkpt lat="44.7090027" lon="12.161894"><ele>-5.0</ele><time>2026-04-26T14:12:27.903Z</time></trkpt><trkpt lat="44.7088188" lon="12.1619976"><ele>-5.0</ele><time>2026-04-26T14:12:28.903Z</time></trkpt><trkpt lat="44.7086377" lon="12.1621037"><ele>-4.666666666666667</ele><time>2026-04-26T14:12:29.904Z</time></trkpt><trkpt lat="44.708458" lon="12.1622138"><ele>-4.333333333333333</ele><time>2026-04-26T14:12:30.903Z</time></trkpt><trkpt lat="44.7082753" lon="12.1623178"><ele>-4.0</ele><time>2026-04-26T14:12:31.903Z</time></trkpt><trkpt lat="44.7080969" lon="12.1624253"><ele>-4.0</ele><time>2026-04-26T14:12:32.904Z</time></trkpt><trkpt lat="44.7079146" lon="12.1625285"><ele>-4.0</ele><time>2026-04-26T14:12:33.903Z</time></trkpt><trkpt lat="44.7077364" lon="12.1626276"><ele>-4.0</ele><time>2026-04-26T14:12:34.904Z</time></trkpt><trkpt lat="44.7075525" lon="12.1627298"><ele>-3.6666666666666665</ele><time>2026-04-26T14:12:35.903Z</time></trkpt><trkpt lat="44.7073734" lon="12.162829"><ele>-3.333333333333333</ele><time>2026-04-26T14:12:36.903Z</time></trkpt><trkpt lat="44.7071956" lon="12.1629326"><ele>-3.0</ele><time>2026-04-26T14:12:37.903Z</time></trkpt><trkpt lat="44.7070136" lon="12.1630341"><ele>-3.333333333333333</ele><time>2026-04-26T14:12:38.903Z</time></trkpt><trkpt lat="44.7068374" lon="12.1631459"><ele>-3.6666666666666665</ele><time>2026-04-26T14:12:39.904Z</time></trkpt><trkpt lat="44.7066562" lon="12.1632424"><ele>-4.0</ele><time>2026-04-26T14:12:40.904Z</time></trkpt><trkpt lat="44.7064795" lon="12.1633409"><ele>-4.0</ele><time>2026-04-26T14:12:41.903Z</time></trkpt><trkpt lat="44.706301" lon="12.1634418"><ele>-4.0</ele><time>2026-04-26T14:12:42.903Z</time></trkpt><trkpt lat="44.7061265" lon="12.1635432"><ele>-4.0</ele><time>2026-04-26T14:12:43.904Z</time></trkpt><trkpt lat="44.7059601" lon="12.1636447"><ele>-4.0</ele><time>2026-04-26T14:12:44.904Z</time></trkpt><trkpt lat="44.7057951" lon="12.1637385"><ele>-4.0</ele><time>2026-04-26T14:12:45.904Z</time></trkpt><trkpt lat="44.7056364" lon="12.1638308"><ele>-4.0</ele><time>2026-04-26T14:12:46.904Z</time></trkpt><trkpt lat="44.7054824" lon="12.1639193"><ele>-4.0</ele><time>2026-04-26T14:12:47.903Z</time></trkpt><trkpt lat="44.7053353" lon="12.1640074"><ele>-4.0</ele><time>2026-04-26T14:12:48.903Z</time></trkpt><trkpt lat="44.705194" lon="12.1640948"><ele>-4.0</ele><time>2026-04-26T14:12:49.903Z</time></trkpt><trkpt lat="44.7050574" lon="12.1641687"><ele>-3.75</ele><time>2026-04-26T14:12:50.903Z</time></trkpt><trkpt lat="44.7049216" lon="12.1642437"><ele>-3.5</ele><time>2026-04-26T14:12:51.903Z</time></trkpt><trkpt lat="44.7047925" lon="12.1643207"><ele>-3.25</ele><time>2026-04-26T14:12:52.903Z</time></trkpt><trkpt lat="44.7046647" lon="12.1643957"><ele>-3.0</ele><time>2026-04-26T14:12:53.903Z</time></trkpt><trkpt lat="44.7045401" lon="12.1644688"><ele>-3.0</ele><time>2026-04-26T14:12:54.903Z</time></trkpt><trkpt lat="44.7044225" lon="12.1645327"><ele>-3.0</ele><time>2026-04-26T14:12:55.903Z</time></trkpt><trkpt lat="44.7043015" lon="12.1645973"><ele>-3.0</ele><time>2026-04-26T14:12:56.904Z</time></trkpt><trkpt lat="44.7041854" lon="12.1646606"><ele>-3.0</ele><time>2026-04-26T14:12:57.904Z</time></trkpt><trkpt lat="44.7040833" lon="12.164718"><ele>-3.0</ele><time>2026-04-26T14:12:58.904Z</time></trkpt><trkpt lat="44.7039855" lon="12.1647855"><ele>-3.0</ele><time>2026-04-26T14:12:59.903Z</time></trkpt><trkpt lat="44.7038854" lon="12.1648461"><ele>-3.0</ele><time>2026-04-26T14:13:00.903Z</time></trkpt><trkpt lat="44.7038019" lon="12.1648998"><ele>-3.0</ele><time>2026-04-26T14:13:01.903Z</time></trkpt><trkpt lat="44.703727" lon="12.1649452"><ele>-3.0</ele><time>2026-04-26T14:13:02.904Z</time></trkpt><trkpt lat="44.7036595" lon="12.1649706"><ele>-3.0</ele><time>2026-04-26T14:13:03.903Z</time></trkpt><trkpt lat="44.7035921" lon="12.1649863"><ele>-3.0</ele><time>2026-04-26T14:13:04.903Z</time></trkpt><trkpt lat="44.7035194" lon="12.1649968"><ele>-3.0</ele><time>2026-04-26T14:13:05.903Z</time></trkpt><trkpt lat="44.703436" lon="12.1650107"><ele>-3.0</ele><time>2026-04-26T14:13:06.904Z</time></trkpt><trkpt lat="44.7033492" lon="12.1650393"><ele>-3.0</ele><time>2026-04-26T14:13:07.903Z</time></trkpt><trkpt lat="44.7032537" lon="12.1651026"><ele>-3.0</ele><time>2026-04-26T14:13:08.904Z</time></trkpt><trkpt lat="44.703159" lon="12.1651926"><ele>-2.25</ele><time>2026-04-26T14:13:09.903Z</time></trkpt><trkpt lat="44.7030558" lon="12.1652927"><ele>-1.5</ele><time>2026-04-26T14:13:10.903Z</time></trkpt><trkpt lat="44.7029378" lon="12.1653853"><ele>-0.75</ele><time>2026-04-26T14:13:11.903Z</time></trkpt><trkpt lat="44.7028104" lon="12.1654534"><ele>0.0</ele><time>2026-04-26T14:13:12.903Z</time></trkpt><trkpt lat="44.7026765" lon="12.1655208"><ele>0.0</ele><time>2026-04-26T14:13:13.903Z</time></trkpt><trkpt lat="44.7025416" lon="12.1655929"><ele>0.0</ele><time>2026-04-26T14:13:14.903Z</time></trkpt><trkpt lat="44.7024042" lon="12.1656687"><ele>0.0</ele><time>2026-04-26T14:13:15.904Z</time></trkpt><trkpt lat="44.7022667" lon="12.1657468"><ele>0.0</ele><time>2026-04-26T14:13:16.904Z</time></trkpt><trkpt lat="44.702132" lon="12.1658244"><ele>-0.3333333333333333</ele><time>2026-04-26T14:13:17.903Z</time></trkpt><trkpt lat="44.7019923" lon="12.1659002"><ele>-0.6666666666666666</ele><time>2026-04-26T14:13:18.903Z</time></trkpt><trkpt lat="44.7018502" lon="12.1659808"><ele>-1.0</ele><time>2026-04-26T14:13:19.903Z</time></trkpt><trkpt lat="44.7017059" lon="12.1660634"><ele>-1.0</ele><time>2026-04-26T14:13:20.904Z</time></trkpt><trkpt lat="44.7015639" lon="12.1661487"><ele>-1.0</ele><time>2026-04-26T14:13:21.904Z</time></trkpt><trkpt lat="44.7014241" lon="12.1662276"><ele>-1.0</ele><time>2026-04-26T14:13:22.903Z</time></trkpt><trkpt lat="44.7012844" lon="12.166308"><ele>-1.0</ele><time>2026-04-26T14:13:23.903Z</time></trkpt><trkpt lat="44.7011442" lon="12.1663851"><ele>-1.0</ele><time>2026-04-26T14:13:24.904Z</time></trkpt><trkpt lat="44.7010118" lon="12.1664598"><ele>-1.0</ele><time>2026-04-26T14:13:25.903Z</time></trkpt><trkpt lat="44.700879" lon="12.1665343"><ele>-1.0</ele><time>2026-04-26T14:13:26.903Z</time></trkpt><trkpt lat="44.7007472" lon="12.1666064"><ele>-1.25</ele><time>2026-04-26T14:13:27.903Z</time></trkpt><trkpt lat="44.7006215" lon="12.166678"><ele>-1.5</ele><time>2026-04-26T14:13:28.903Z</time></trkpt><trkpt lat="44.7004995" lon="12.1667484"><ele>-1.75</ele><time>2026-04-26T14:13:29.904Z</time></trkpt><trkpt lat="44.7003768" lon="12.166821"><ele>-2.0</ele><time>2026-04-26T14:13:30.904Z</time></trkpt><trkpt lat="44.7002547" lon="12.1668934"><ele>-1.25</ele><time>2026-04-26T14:13:31.903Z</time></trkpt><trkpt lat="44.7001378" lon="12.1669575"><ele>-0.5</ele><time>2026-04-26T14:13:32.903Z</time></trkpt><trkpt lat="44.7000262" lon="12.1670195"><ele>0.25</ele><time>2026-04-26T14:13:33.903Z</time></trkpt><trkpt lat="44.6999286" lon="12.1670748"><ele>1.0</ele><time>2026-04-26T14:13:34.903Z</time></trkpt><trkpt lat="44.6998373" lon="12.1671283"><ele>0.9999999999999999</ele><time>2026-04-26T14:13:35.903Z</time></trkpt><trkpt lat="44.6997543" lon="12.1671715"><ele>1.0</ele><time>2026-04-26T14:13:36.903Z</time></trkpt><trkpt lat="44.6996718" lon="12.1672176"><ele>1.0</ele><time>2026-04-26T14:13:37.903Z</time></trkpt><trkpt lat="44.6995929" lon="12.1672604"><ele>1.0</ele><time>2026-04-26T14:13:38.903Z</time></trkpt><trkpt lat="44.699523" lon="12.1673079"><ele>0.9999999999999999</ele><time>2026-04-26T14:13:39.904Z</time></trkpt><trkpt lat="44.699455" lon="12.1673444"><ele>1.0</ele><time>2026-04-26T14:13:40.904Z</time></trkpt><trkpt lat="44.6993951" lon="12.1673778"><ele>1.0</ele><time>2026-04-26T14:13:41.903Z</time></trkpt><trkpt lat="44.6992795" lon="12.1674158"><ele>1.0</ele><time>2026-04-26T14:13:43.904Z</time></trkpt><trkpt lat="44.6991935" lon="12.1674089"><ele>1.0</ele><time>2026-04-26T14:13:45.904Z</time></trkpt><trkpt lat="44.6991244" lon="12.1674228"><ele>1.0</ele><time>2026-04-26T14:14:11.903Z</time></trkpt><trkpt lat="44.6990596" lon="12.1672841"><ele>1.0</ele><time>2026-04-26T14:14:13.903Z</time></trkpt><trkpt lat="44.6990463" lon="12.1671547"><ele>1.0</ele><time>2026-04-26T14:14:14.903Z</time></trkpt><trkpt lat="44.6990409" lon="12.1669924"><ele>1.0</ele><time>2026-04-26T14:14:15.903Z</time></trkpt><trkpt lat="44.6990309" lon="12.1668064"><ele>1.0</ele><time>2026-04-26T14:14:16.904Z</time></trkpt><trkpt lat="44.6990131" lon="12.1666175"><ele>1.0</ele><time>2026-04-26T14:14:17.903Z</time></trkpt><trkpt lat="44.6989816" lon="12.1664176"><ele>1.0</ele><time>2026-04-26T14:14:18.903Z</time></trkpt><trkpt lat="44.6989497" lon="12.166207"><ele>1.0</ele><time>2026-04-26T14:14:19.904Z</time></trkpt><trkpt lat="44.6989184" lon="12.1659735"><ele>1.0</ele><time>2026-04-26T14:14:20.903Z</time></trkpt><trkpt lat="44.6988871" lon="12.1657308"><ele>0.6666666666666666</ele><time>2026-04-26T14:14:21.903Z</time></trkpt><trkpt lat="44.6988493" lon="12.1654802"><ele>0.3333333333333333</ele><time>2026-04-26T14:14:22.903Z</time></trkpt><trkpt lat="44.6988063" lon="12.1651973"><ele>0.0</ele><time>2026-04-26T14:14:23.903Z</time></trkpt><trkpt lat="44.6987602" lon="12.1648664"><ele>-1.0</ele><time>2026-04-26T14:14:24.903Z</time></trkpt><trkpt lat="44.6987023" lon="12.1644897"><ele>-2.0</ele><time>2026-04-26T14:14:25.904Z</time></trkpt><trkpt lat="44.6986351" lon="12.1640735"><ele>-2.0</ele><time>2026-04-26T14:14:26.904Z</time></trkpt><trkpt lat="44.6985717" lon="12.1636424"><ele>-2.0</ele><time>2026-04-26T14:14:27.903Z</time></trkpt><trkpt lat="44.6985136" lon="12.1632499"><ele>-2.5</ele><time>2026-04-26T14:14:28.903Z</time></trkpt><trkpt lat="44.698461" lon="12.1628885"><ele>-3.0</ele><time>2026-04-26T14:14:29.903Z</time></trkpt><trkpt lat="44.6984092" lon="12.1625509"><ele>-2.5</ele><time>2026-04-26T14:14:30.903Z</time></trkpt><trkpt lat="44.6983614" lon="12.1622362"><ele>-2.0</ele><time>2026-04-26T14:14:31.904Z</time></trkpt><trkpt lat="44.6983169" lon="12.1619282"><ele>-2.0</ele><time>2026-04-26T14:14:32.903Z</time></trkpt><trkpt lat="44.6982701" lon="12.1616304"><ele>-2.0</ele><time>2026-04-26T14:14:33.904Z</time></trkpt><trkpt lat="44.6982262" lon="12.1613371"><ele>-2.0</ele><time>2026-04-26T14:14:34.903Z</time></trkpt><trkpt lat="44.6981915" lon="12.1610563"><ele>-2.0</ele><time>2026-04-26T14:14:35.904Z</time></trkpt><trkpt lat="44.698187" lon="12.1607886"><ele>-2.0</ele><time>2026-04-26T14:14:36.904Z</time></trkpt><trkpt lat="44.6982094" lon="12.1605265"><ele>-2.0</ele><time>2026-04-26T14:14:37.904Z</time></trkpt><trkpt lat="44.6982562" lon="12.1602631"><ele>-2.0</ele><time>2026-04-26T14:14:38.903Z</time></trkpt><trkpt lat="44.6983212" lon="12.1600029"><ele>-2.0</ele><time>2026-04-26T14:14:39.903Z</time></trkpt><trkpt lat="44.6984034" lon="12.1597476"><ele>-2.0</ele><time>2026-04-26T14:14:40.904Z</time></trkpt><trkpt lat="44.6984981" lon="12.1594901"><ele>-2.0</ele><time>2026-04-26T14:14:41.903Z</time></trkpt><trkpt lat="44.6985956" lon="12.1592288"><ele>-2.0</ele><time>2026-04-26T14:14:42.904Z</time></trkpt><trkpt lat="44.6986902" lon="12.1589601"><ele>-2.0</ele><time>2026-04-26T14:14:43.904Z</time></trkpt><trkpt lat="44.6987885" lon="12.1586892"><ele>-2.0</ele><time>2026-04-26T14:14:44.903Z</time></trkpt><trkpt lat="44.6988869" lon="12.1584078"><ele>-2.0</ele><time>2026-04-26T14:14:45.903Z</time></trkpt><trkpt lat="44.6989891" lon="12.1581235"><ele>-2.0</ele><time>2026-04-26T14:14:46.903Z</time></trkpt><trkpt lat="44.6990944" lon="12.1578329"><ele>-1.0</ele><time>2026-04-26T14:14:47.904Z</time></trkpt><trkpt lat="44.6992038" lon="12.1575434"><ele>0.0</ele><time>2026-04-26T14:14:48.903Z</time></trkpt><trkpt lat="44.6993123" lon="12.1572421"><ele>-1.0</ele><time>2026-04-26T14:14:49.903Z</time></trkpt><trkpt lat="44.6994205" lon="12.1569386"><ele>-2.0</ele><time>2026-04-26T14:14:50.904Z</time></trkpt><trkpt lat="44.6995327" lon="12.1566393"><ele>-2.5</ele><time>2026-04-26T14:14:51.903Z</time></trkpt><trkpt lat="44.6996442" lon="12.1563367"><ele>-3.0</ele><time>2026-04-26T14:14:52.904Z</time></trkpt><trkpt lat="44.6997508" lon="12.1560364"><ele>-3.0</ele><time>2026-04-26T14:14:53.904Z</time></trkpt><trkpt lat="44.6998573" lon="12.1557345"><ele>-3.0</ele><time>2026-04-26T14:14:54.904Z</time></trkpt><trkpt lat="44.6999622" lon="12.155437"><ele>-2.0</ele><time>2026-04-26T14:14:55.904Z</time></trkpt><trkpt lat="44.7000664" lon="12.1551481"><ele>-1.0</ele><time>2026-04-26T14:14:56.903Z</time></trkpt><trkpt lat="44.7001643" lon="12.1548629"><ele>-0.6666666666666666</ele><time>2026-04-26T14:14:57.903Z</time></trkpt><trkpt lat="44.7002473" lon="12.1545773"><ele>-0.3333333333333333</ele><time>2026-04-26T14:14:58.903Z</time></trkpt><trkpt lat="44.7003158" lon="12.1542872"><ele>0.0</ele><time>2026-04-26T14:14:59.903Z</time></trkpt><trkpt lat="44.7003719" lon="12.154002"><ele>-0.6666666666666666</ele><time>2026-04-26T14:15:00.903Z</time></trkpt><trkpt lat="44.7004237" lon="12.1537257"><ele>-1.3333333333333333</ele><time>2026-04-26T14:15:01.904Z</time></trkpt><trkpt lat="44.7004677" lon="12.1534656"><ele>-2.0</ele><time>2026-04-26T14:15:02.903Z</time></trkpt><trkpt lat="44.7005104" lon="12.1532187"><ele>-2.333333333333333</ele><time>2026-04-26T14:15:03.904Z</time></trkpt><trkpt lat="44.7005531" lon="12.1529803"><ele>-2.6666666666666665</ele><time>2026-04-26T14:15:04.903Z</time></trkpt><trkpt lat="44.7005934" lon="12.1527523"><ele>-3.0</ele><time>2026-04-26T14:15:05.904Z</time></trkpt><trkpt lat="44.7006308" lon="12.1525224"><ele>-3.333333333333333</ele><time>2026-04-26T14:15:06.903Z</time></trkpt><trkpt lat="44.7006678" lon="12.1522902"><ele>-3.6666666666666665</ele><time>2026-04-26T14:15:07.904Z</time></trkpt><trkpt lat="44.700709" lon="12.1520451"><ele>-4.0</ele><time>2026-04-26T14:15:08.903Z</time></trkpt><trkpt lat="44.7007498" lon="12.1517853"><ele>-3.6666666666666665</ele><time>2026-04-26T14:15:09.904Z</time></trkpt><trkpt lat="44.7007868" lon="12.1515053"><ele>-3.333333333333333</ele><time>2026-04-26T14:15:10.903Z</time></trkpt><trkpt lat="44.7008219" lon="12.1512167"><ele>-3.0</ele><time>2026-04-26T14:15:11.903Z</time></trkpt><trkpt lat="44.7008466" lon="12.1509071"><ele>-2.5</ele><time>2026-04-26T14:15:12.903Z</time></trkpt><trkpt lat="44.700871" lon="12.1505895"><ele>-2.0</ele><time>2026-04-26T14:15:13.903Z</time></trkpt><trkpt lat="44.7009004" lon="12.1502714"><ele>-2.0</ele><time>2026-04-26T14:15:14.903Z</time></trkpt><trkpt lat="44.700949" lon="12.1499537"><ele>-2.0</ele><time>2026-04-26T14:15:15.904Z</time></trkpt><trkpt lat="44.7010146" lon="12.1496432"><ele>-2.0</ele><time>2026-04-26T14:15:16.903Z</time></trkpt><trkpt lat="44.701078" lon="12.1493376"><ele>-2.0</ele><time>2026-04-26T14:15:17.903Z</time></trkpt><trkpt lat="44.7011202" lon="12.1490296"><ele>-2.0</ele><time>2026-04-26T14:15:18.903Z</time></trkpt><trkpt lat="44.7011445" lon="12.1487158"><ele>-2.5</ele><time>2026-04-26T14:15:19.904Z</time></trkpt><trkpt lat="44.7011541" lon="12.1483944"><ele>-3.0</ele><time>2026-04-26T14:15:20.903Z</time></trkpt><trkpt lat="44.701152" lon="12.1480736"><ele>-3.0</ele><time>2026-04-26T14:15:21.904Z</time></trkpt><trkpt lat="44.7011475" lon="12.1477501"><ele>-3.0</ele><time>2026-04-26T14:15:22.904Z</time></trkpt><trkpt lat="44.7011517" lon="12.1474272"><ele>-3.5</ele><time>2026-04-26T14:15:23.903Z</time></trkpt><trkpt lat="44.7011692" lon="12.1471064"><ele>-4.0</ele><time>2026-04-26T14:15:24.903Z</time></trkpt><trkpt lat="44.7011999" lon="12.1467976"><ele>-4.0</ele><time>2026-04-26T14:15:25.904Z</time></trkpt><trkpt lat="44.7012433" lon="12.1464845"><ele>-4.0</ele><time>2026-04-26T14:15:26.903Z</time></trkpt><trkpt lat="44.7013089" lon="12.1461822"><ele>-4.0</ele><time>2026-04-26T14:15:27.904Z</time></trkpt><trkpt lat="44.7013869" lon="12.1458815"><ele>-4.0</ele><time>2026-04-26T14:15:28.903Z</time></trkpt><trkpt lat="44.7014616" lon="12.1455802"><ele>-4.5</ele><time>2026-04-26T14:15:29.904Z</time></trkpt><trkpt lat="44.7015289" lon="12.1452759"><ele>-5.0</ele><time>2026-04-26T14:15:30.904Z</time></trkpt><trkpt lat="44.7015818" lon="12.1449644"><ele>-5.0</ele><time>2026-04-26T14:15:31.904Z</time></trkpt><trkpt lat="44.7016267" lon="12.1446539"><ele>-5.0</ele><time>2026-04-26T14:15:32.903Z</time></trkpt><trkpt lat="44.7016656" lon="12.1443503"><ele>-5.0</ele><time>2026-04-26T14:15:33.903Z</time></trkpt><trkpt lat="44.7016927" lon="12.1440667"><ele>-4.333333333333334</ele><time>2026-04-26T14:15:34.903Z</time></trkpt><trkpt lat="44.7016978" lon="12.1437871"><ele>-3.666666666666667</ele><time>2026-04-26T14:15:35.903Z</time></trkpt><trkpt lat="44.7016792" lon="12.1435073"><ele>-3.0</ele><time>2026-04-26T14:15:36.903Z</time></trkpt><trkpt lat="44.7016366" lon="12.1432333"><ele>-3.0</ele><time>2026-04-26T14:15:37.904Z</time></trkpt><trkpt lat="44.7015767" lon="12.1429611"><ele>-3.0</ele><time>2026-04-26T14:15:38.903Z</time></trkpt><trkpt lat="44.7015105" lon="12.1426871"><ele>-3.0</ele><time>2026-04-26T14:15:39.904Z</time></trkpt><trkpt lat="44.7014352" lon="12.1424144"><ele>-3.0</ele><time>2026-04-26T14:15:40.903Z</time></trkpt><trkpt lat="44.7013518" lon="12.1421423"><ele>-3.0</ele><time>2026-04-26T14:15:41.903Z</time></trkpt><trkpt lat="44.7012533" lon="12.1418754"><ele>-3.0</ele><time>2026-04-26T14:15:42.903Z</time></trkpt><trkpt lat="44.7011468" lon="12.1416201"><ele>-3.0</ele><time>2026-04-26T14:15:43.904Z</time></trkpt><trkpt lat="44.7010376" lon="12.1413711"><ele>-3.0</ele><time>2026-04-26T14:15:44.903Z</time></trkpt><trkpt lat="44.7009122" lon="12.1411338"><ele>-3.0</ele><time>2026-04-26T14:15:45.903Z</time></trkpt><trkpt lat="44.7007775" lon="12.1409099"><ele>-3.0</ele><time>2026-04-26T14:15:46.903Z</time></trkpt><trkpt lat="44.7006384" lon="12.1406899"><ele>-3.0</ele><time>2026-04-26T14:15:47.904Z</time></trkpt><trkpt lat="44.7004944" lon="12.1404688"><ele>-3.0</ele><time>2026-04-26T14:15:48.903Z</time></trkpt><trkpt lat="44.7003526" lon="12.1402621"><ele>-2.6666666666666665</ele><time>2026-04-26T14:15:49.903Z</time></trkpt><trkpt lat="44.7002198" lon="12.1400602"><ele>-2.333333333333333</ele><time>2026-04-26T14:15:50.903Z</time></trkpt><trkpt lat="44.7001131" lon="12.1398411"><ele>-2.0</ele><time>2026-04-26T14:15:51.903Z</time></trkpt><trkpt lat="44.7000248" lon="12.1396055"><ele>-2.0</ele><time>2026-04-26T14:15:52.904Z</time></trkpt><trkpt lat="44.6999627" lon="12.1393528"><ele>-2.0</ele><time>2026-04-26T14:15:53.903Z</time></trkpt><trkpt lat="44.6999216" lon="12.1390802"><ele>-2.0</ele><time>2026-04-26T14:15:54.903Z</time></trkpt><trkpt lat="44.6998963" lon="12.1387976"><ele>-2.0</ele><time>2026-04-26T14:15:55.904Z</time></trkpt><trkpt lat="44.6998897" lon="12.1385204"><ele>-2.0</ele><time>2026-04-26T14:15:56.903Z</time></trkpt><trkpt lat="44.6998984" lon="12.1382544"><ele>-2.0</ele><time>2026-04-26T14:15:57.903Z</time></trkpt><trkpt lat="44.6999152" lon="12.1380086"><ele>-2.0</ele><time>2026-04-26T14:15:58.904Z</time></trkpt><trkpt lat="44.6999246" lon="12.1377731"><ele>-2.0</ele><time>2026-04-26T14:15:59.903Z</time></trkpt><trkpt lat="44.6999331" lon="12.137548"><ele>-2.0</ele><time>2026-04-26T14:16:00.904Z</time></trkpt><trkpt lat="44.6999382" lon="12.137329"><ele>-2.333333333333333</ele><time>2026-04-26T14:16:01.903Z</time></trkpt><trkpt lat="44.6999555" lon="12.1371199"><ele>-2.6666666666666665</ele><time>2026-04-26T14:16:02.903Z</time></trkpt><trkpt lat="44.6999636" lon="12.1368987"><ele>-3.0</ele><time>2026-04-26T14:16:03.904Z</time></trkpt><trkpt lat="44.6999729" lon="12.1366806"><ele>-2.3333333333333335</ele><time>2026-04-26T14:16:04.904Z</time></trkpt><trkpt lat="44.6999784" lon="12.1364597"><ele>-1.6666666666666665</ele><time>2026-04-26T14:16:05.904Z</time></trkpt><trkpt lat="44.6999833" lon="12.1362461"><ele>-1.0</ele><time>2026-04-26T14:16:06.903Z</time></trkpt><trkpt lat="44.6999797" lon="12.1360443"><ele>-1.0</ele><time>2026-04-26T14:16:07.904Z</time></trkpt><trkpt lat="44.6999658" lon="12.1358432"><ele>-1.0</ele><time>2026-04-26T14:16:08.903Z</time></trkpt><trkpt lat="44.6999399" lon="12.1356399"><ele>-1.0</ele><time>2026-04-26T14:16:09.903Z</time></trkpt><trkpt lat="44.6999145" lon="12.1354283"><ele>-1.0</ele><time>2026-04-26T14:16:10.904Z</time></trkpt><trkpt lat="44.6998842" lon="12.1352092"><ele>-1.0</ele><time>2026-04-26T14:16:11.904Z</time></trkpt><trkpt lat="44.6998555" lon="12.1349867"><ele>-1.0</ele><time>2026-04-26T14:16:12.903Z</time></trkpt><trkpt lat="44.6998236" lon="12.1347754"><ele>-1.0</ele><time>2026-04-26T14:16:13.904Z</time></trkpt><trkpt lat="44.6997902" lon="12.1345632"><ele>-1.0</ele><time>2026-04-26T14:16:14.903Z</time></trkpt><trkpt lat="44.6997608" lon="12.1343547"><ele>-1.0</ele><time>2026-04-26T14:16:15.904Z</time></trkpt><trkpt lat="44.6997356" lon="12.1341433"><ele>-1.0</ele><time>2026-04-26T14:16:16.903Z</time></trkpt><trkpt lat="44.699714" lon="12.1339273"><ele>-1.0</ele><time>2026-04-26T14:16:17.904Z</time></trkpt><trkpt lat="44.6997108" lon="12.1336956"><ele>-1.0</ele><time>2026-04-26T14:16:18.904Z</time></trkpt><trkpt lat="44.6997227" lon="12.1334361"><ele>-1.0</ele><time>2026-04-26T14:16:19.903Z</time></trkpt><trkpt lat="44.6997589" lon="12.133151"><ele>-1.0</ele><time>2026-04-26T14:16:20.904Z</time></trkpt><trkpt lat="44.6998087" lon="12.132854"><ele>-1.0</ele><time>2026-04-26T14:16:21.904Z</time></trkpt><trkpt lat="44.6998604" lon="12.1325378"><ele>-1.0</ele><time>2026-04-26T14:16:22.903Z</time></trkpt><trkpt lat="44.6999104" lon="12.1322037"><ele>-1.0</ele><time>2026-04-26T14:16:23.903Z</time></trkpt><trkpt lat="44.6999545" lon="12.1318635"><ele>-1.0</ele><time>2026-04-26T14:16:24.904Z</time></trkpt><trkpt lat="44.6999937" lon="12.1315196"><ele>-1.0</ele><time>2026-04-26T14:16:25.903Z</time></trkpt><trkpt lat="44.7000349" lon="12.1311746"><ele>-1.0</ele><time>2026-04-26T14:16:26.903Z</time></trkpt><trkpt lat="44.7000779" lon="12.1308375"><ele>-1.5</ele><time>2026-04-26T14:16:27.903Z</time></trkpt><trkpt lat="44.7001212" lon="12.1305085"><ele>-2.0</ele><time>2026-04-26T14:16:28.903Z</time></trkpt><trkpt lat="44.7001601" lon="12.1301785"><ele>-1.5</ele><time>2026-04-26T14:16:29.903Z</time></trkpt><trkpt lat="44.7001987" lon="12.1298484"><ele>-1.0</ele><time>2026-04-26T14:16:30.903Z</time></trkpt><trkpt lat="44.7002429" lon="12.1295213"><ele>-1.3333333333333333</ele><time>2026-04-26T14:16:31.903Z</time></trkpt><trkpt lat="44.7002874" lon="12.1292096"><ele>-1.6666666666666665</ele><time>2026-04-26T14:16:32.904Z</time></trkpt><trkpt lat="44.700325" lon="12.1289098"><ele>-2.0</ele><time>2026-04-26T14:16:33.903Z</time></trkpt><trkpt lat="44.7003613" lon="12.1286127"><ele>-2.0</ele><time>2026-04-26T14:16:34.903Z</time></trkpt><trkpt lat="44.7003985" lon="12.1283249"><ele>-2.0</ele><time>2026-04-26T14:16:35.904Z</time></trkpt><trkpt lat="44.7004347" lon="12.1280487"><ele>-2.0</ele><time>2026-04-26T14:16:36.903Z</time></trkpt><trkpt lat="44.7004646" lon="12.1277879"><ele>-2.6666666666666665</ele><time>2026-04-26T14:16:37.904Z</time></trkpt><trkpt lat="44.70049" lon="12.1275439"><ele>-3.333333333333333</ele><time>2026-04-26T14:16:38.903Z</time></trkpt><trkpt lat="44.7004987" lon="12.1273167"><ele>-4.0</ele><time>2026-04-26T14:16:39.903Z</time></trkpt><trkpt lat="44.7004818" lon="12.1271079"><ele>-4.0</ele><time>2026-04-26T14:16:40.903Z</time></trkpt><trkpt lat="44.7004447" lon="12.1269011"><ele>-4.0</ele><time>2026-04-26T14:16:41.903Z</time></trkpt><trkpt lat="44.7003872" lon="12.1266962"><ele>-4.0</ele><time>2026-04-26T14:16:42.904Z</time></trkpt><trkpt lat="44.7003094" lon="12.1264925"><ele>-3.333333333333333</ele><time>2026-04-26T14:16:43.903Z</time></trkpt><trkpt lat="44.700208" lon="12.1262991"><ele>-2.6666666666666665</ele><time>2026-04-26T14:16:44.904Z</time></trkpt><trkpt lat="44.7000917" lon="12.1261101"><ele>-2.0</ele><time>2026-04-26T14:16:45.904Z</time></trkpt><trkpt lat="44.6999696" lon="12.1259196"><ele>-2.333333333333333</ele><time>2026-04-26T14:16:46.904Z</time></trkpt><trkpt lat="44.699838" lon="12.1257238"><ele>-2.6666666666666665</ele><time>2026-04-26T14:16:47.903Z</time></trkpt><trkpt lat="44.6997027" lon="12.1255225"><ele>-3.0</ele><time>2026-04-26T14:16:48.903Z</time></trkpt><trkpt lat="44.699561" lon="12.1253103"><ele>-2.6666666666666665</ele><time>2026-04-26T14:16:49.903Z</time></trkpt><trkpt lat="44.6994156" lon="12.1250926"><ele>-2.333333333333333</ele><time>2026-04-26T14:16:50.904Z</time></trkpt><trkpt lat="44.6992667" lon="12.124875"><ele>-2.0</ele><time>2026-04-26T14:16:51.903Z</time></trkpt><trkpt lat="44.6991209" lon="12.1246567"><ele>-2.0</ele><time>2026-04-26T14:16:52.904Z</time></trkpt><trkpt lat="44.698983" lon="12.1244426"><ele>-2.0</ele><time>2026-04-26T14:16:53.904Z</time></trkpt><trkpt lat="44.6988676" lon="12.1242186"><ele>-2.0</ele><time>2026-04-26T14:16:54.904Z</time></trkpt><trkpt lat="44.6987712" lon="12.1239816"><ele>-3.0</ele><time>2026-04-26T14:16:55.904Z</time></trkpt><trkpt lat="44.6986942" lon="12.1237264"><ele>-4.0</ele><time>2026-04-26T14:16:56.904Z</time></trkpt><trkpt lat="44.6986342" lon="12.1234553"><ele>-5.0</ele><time>2026-04-26T14:16:57.904Z</time></trkpt><trkpt lat="44.6985946" lon="12.1231736"><ele>-4.0</ele><time>2026-04-26T14:16:58.904Z</time></trkpt><trkpt lat="44.6985633" lon="12.1228768"><ele>-3.0</ele><time>2026-04-26T14:16:59.903Z</time></trkpt><trkpt lat="44.6985311" lon="12.1225763"><ele>-2.0</ele><time>2026-04-26T14:17:00.903Z</time></trkpt><trkpt lat="44.6984994" lon="12.1222749"><ele>-1.6666666666666665</ele><time>2026-04-26T14:17:01.904Z</time></trkpt><trkpt lat="44.6984631" lon="12.1219706"><ele>-1.3333333333333333</ele><time>2026-04-26T14:17:02.903Z</time></trkpt><trkpt lat="44.698427" lon="12.1216584"><ele>-1.0</ele><time>2026-04-26T14:17:03.903Z</time></trkpt><trkpt lat="44.6983937" lon="12.1213395"><ele>-1.0</ele><time>2026-04-26T14:17:04.904Z</time></trkpt><trkpt lat="44.6983575" lon="12.121022"><ele>-1.0</ele><time>2026-04-26T14:17:05.903Z</time></trkpt><trkpt lat="44.6983233" lon="12.1207056"><ele>-1.0</ele><time>2026-04-26T14:17:06.904Z</time></trkpt><trkpt lat="44.6982872" lon="12.1203873"><ele>-1.0</ele><time>2026-04-26T14:17:07.903Z</time></trkpt><trkpt lat="44.6982519" lon="12.1200725"><ele>-1.5</ele><time>2026-04-26T14:17:08.904Z</time></trkpt><trkpt lat="44.6982137" lon="12.1197512"><ele>-2.0</ele><time>2026-04-26T14:17:09.904Z</time></trkpt><trkpt lat="44.6981794" lon="12.1194343"><ele>-2.0</ele><time>2026-04-26T14:17:10.904Z</time></trkpt><trkpt lat="44.6981434" lon="12.1191169"><ele>-2.0</ele><time>2026-04-26T14:17:11.904Z</time></trkpt><trkpt lat="44.698105" lon="12.1188035"><ele>-2.0</ele><time>2026-04-26T14:17:12.904Z</time></trkpt><trkpt lat="44.6980715" lon="12.118492"><ele>-2.0</ele><time>2026-04-26T14:17:13.903Z</time></trkpt><trkpt lat="44.6980377" lon="12.1181823"><ele>-2.0</ele><time>2026-04-26T14:17:14.904Z</time></trkpt><trkpt lat="44.6980012" lon="12.1178869"><ele>-2.0</ele><time>2026-04-26T14:17:15.903Z</time></trkpt><trkpt lat="44.6979672" lon="12.1176125"><ele>-2.0</ele><time>2026-04-26T14:17:16.903Z</time></trkpt><trkpt lat="44.6979315" lon="12.1173432"><ele>-2.0</ele><time>2026-04-26T14:17:17.904Z</time></trkpt><trkpt lat="44.6978809" lon="12.1170773"><ele>-2.333333333333333</ele><time>2026-04-26T14:17:18.904Z</time></trkpt><trkpt lat="44.6978153" lon="12.1168109"><ele>-2.6666666666666665</ele><time>2026-04-26T14:17:19.903Z</time></trkpt><trkpt lat="44.6977386" lon="12.1165466"><ele>-3.0</ele><time>2026-04-26T14:17:20.904Z</time></trkpt><trkpt lat="44.6976556" lon="12.1162804"><ele>-2.6666666666666665</ele><time>2026-04-26T14:17:21.903Z</time></trkpt><trkpt lat="44.6975701" lon="12.1160123"><ele>-2.333333333333333</ele><time>2026-04-26T14:17:22.904Z</time></trkpt><trkpt lat="44.697484" lon="12.1157385"><ele>-2.0</ele><time>2026-04-26T14:17:23.903Z</time></trkpt><trkpt lat="44.6974009" lon="12.1154605"><ele>-2.0</ele><time>2026-04-26T14:17:24.903Z</time></trkpt><trkpt lat="44.6973137" lon="12.1151806"><ele>-2.0</ele><time>2026-04-26T14:17:25.903Z</time></trkpt><trkpt lat="44.6972263" lon="12.1149017"><ele>-2.0</ele><time>2026-04-26T14:17:26.904Z</time></trkpt><trkpt lat="44.6971399" lon="12.114623"><ele>-2.333333333333333</ele><time>2026-04-26T14:17:27.903Z</time></trkpt><trkpt lat="44.6970577" lon="12.1143561"><ele>-2.6666666666666665</ele><time>2026-04-26T14:17:28.904Z</time></trkpt><trkpt lat="44.6969816" lon="12.1141113"><ele>-3.0</ele><time>2026-04-26T14:17:29.904Z</time></trkpt><trkpt lat="44.696911" lon="12.1138787"><ele>-1.6666666666666667</ele><time>2026-04-26T14:17:30.903Z</time></trkpt><trkpt lat="44.696856" lon="12.1136561"><ele>-0.33333333333333337</ele><time>2026-04-26T14:17:31.903Z</time></trkpt><trkpt lat="44.6968313" lon="12.1134184"><ele>1.0</ele><time>2026-04-26T14:17:32.904Z</time></trkpt><trkpt lat="44.6968315" lon="12.1131767"><ele>1.0</ele><time>2026-04-26T14:17:33.904Z</time></trkpt><trkpt lat="44.6968524" lon="12.1129367"><ele>1.0</ele><time>2026-04-26T14:17:34.903Z</time></trkpt><trkpt lat="44.6969067" lon="12.1127001"><ele>1.0</ele><time>2026-04-26T14:17:35.903Z</time></trkpt><trkpt lat="44.6969903" lon="12.1124676"><ele>-0.33333333333333337</ele><time>2026-04-26T14:17:36.904Z</time></trkpt><trkpt lat="44.6970974" lon="12.1122468"><ele>-1.6666666666666667</ele><time>2026-04-26T14:17:37.903Z</time></trkpt><trkpt lat="44.6972147" lon="12.1120263"><ele>-3.0</ele><time>2026-04-26T14:17:38.903Z</time></trkpt><trkpt lat="44.697339" lon="12.1118045"><ele>-3.0</ele><time>2026-04-26T14:17:39.903Z</time></trkpt><trkpt lat="44.6974592" lon="12.1115825"><ele>-3.0</ele><time>2026-04-26T14:17:40.903Z</time></trkpt><trkpt lat="44.6975781" lon="12.1113684"><ele>-3.0</ele><time>2026-04-26T14:17:41.903Z</time></trkpt><trkpt lat="44.697687" lon="12.1111665"><ele>-3.0</ele><time>2026-04-26T14:17:42.903Z</time></trkpt><trkpt lat="44.6977898" lon="12.1109763"><ele>-3.0</ele><time>2026-04-26T14:17:43.904Z</time></trkpt><trkpt lat="44.697891" lon="12.1107959"><ele>-3.0</ele><time>2026-04-26T14:17:44.904Z</time></trkpt><trkpt lat="44.6979837" lon="12.1106278"><ele>-3.0</ele><time>2026-04-26T14:17:45.903Z</time></trkpt><trkpt lat="44.6980698" lon="12.1104648"><ele>-3.0</ele><time>2026-04-26T14:17:46.904Z</time></trkpt><trkpt lat="44.698144" lon="12.1103097"><ele>-3.0</ele><time>2026-04-26T14:17:47.903Z</time></trkpt><trkpt lat="44.6981992" lon="12.1101622"><ele>-3.0</ele><time>2026-04-26T14:17:48.903Z</time></trkpt><trkpt lat="44.698242" lon="12.1100142"><ele>-3.0</ele><time>2026-04-26T14:17:49.903Z</time></trkpt><trkpt lat="44.6982911" lon="12.1099251"><ele>-3.0</ele><time>2026-04-26T14:17:50.903Z</time></trkpt><trkpt lat="44.6983489" lon="12.109844"><ele>-3.0</ele><time>2026-04-26T14:17:51.903Z</time></trkpt><trkpt lat="44.6983892" lon="12.1097585"><ele>-3.0</ele><time>2026-04-26T14:17:52.904Z</time></trkpt><trkpt lat="44.6983573" lon="12.1096026"><ele>-3.0</ele><time>2026-04-26T14:17:54.904Z</time></trkpt><trkpt lat="44.6982355" lon="12.1095512"><ele>-3.0</ele><time>2026-04-26T14:17:56.904Z</time></trkpt><trkpt lat="44.6981616" lon="12.1095879"><ele>-3.0</ele><time>2026-04-26T14:17:57.903Z</time></trkpt><trkpt lat="44.6980826" lon="12.1096332"><ele>-3.0</ele><time>2026-04-26T14:17:58.904Z</time></trkpt><trkpt lat="44.6979832" lon="12.109707"><ele>-3.0</ele><time>2026-04-26T14:17:59.903Z</time></trkpt><trkpt lat="44.6978503" lon="12.1097391"><ele>-3.0</ele><time>2026-04-26T14:18:00.903Z</time></trkpt><trkpt lat="44.6976933" lon="12.1097264"><ele>-2.6666666666666665</ele><time>2026-04-26T14:18:01.904Z</time></trkpt><trkpt lat="44.6975182" lon="12.1096797"><ele>-2.333333333333333</ele><time>2026-04-26T14:18:02.903Z</time></trkpt><trkpt lat="44.6973456" lon="12.1096053"><ele>-2.0</ele><time>2026-04-26T14:18:03.904Z</time></trkpt><trkpt lat="44.6971631" lon="12.1095189"><ele>-2.0</ele><time>2026-04-26T14:18:04.903Z</time></trkpt><trkpt lat="44.6969836" lon="12.1094389"><ele>-2.0</ele><time>2026-04-26T14:18:05.903Z</time></trkpt><trkpt lat="44.6967984" lon="12.1093608"><ele>-2.0</ele><time>2026-04-26T14:18:06.903Z</time></trkpt><trkpt lat="44.6966219" lon="12.1092616"><ele>-2.0</ele><time>2026-04-26T14:18:07.903Z</time></trkpt><trkpt lat="44.6964513" lon="12.1091964"><ele>-2.0</ele><time>2026-04-26T14:18:08.904Z</time></trkpt><trkpt lat="44.6962915" lon="12.1091292"><ele>-2.0</ele><time>2026-04-26T14:18:09.904Z</time></trkpt><trkpt lat="44.6961307" lon="12.1090613"><ele>-2.6666666666666665</ele><time>2026-04-26T14:18:10.903Z</time></trkpt><trkpt lat="44.6959652" lon="12.1089924"><ele>-3.333333333333333</ele><time>2026-04-26T14:18:11.903Z</time></trkpt><trkpt lat="44.6957916" lon="12.1089192"><ele>-4.0</ele><time>2026-04-26T14:18:12.903Z</time></trkpt><trkpt lat="44.6956081" lon="12.1088371"><ele>-4.0</ele><time>2026-04-26T14:18:13.904Z</time></trkpt><trkpt lat="44.6954248" lon="12.1087351"><ele>-4.0</ele><time>2026-04-26T14:18:14.903Z</time></trkpt><trkpt lat="44.695255" lon="12.1085855"><ele>-4.0</ele><time>2026-04-26T14:18:15.903Z</time></trkpt><trkpt lat="44.6950902" lon="12.1084144"><ele>-3.6666666666666665</ele><time>2026-04-26T14:18:16.903Z</time></trkpt><trkpt lat="44.6949272" lon="12.1082642"><ele>-3.333333333333333</ele><time>2026-04-26T14:18:17.904Z</time></trkpt><trkpt lat="44.6947586" lon="12.1081343"><ele>-3.0</ele><time>2026-04-26T14:18:18.904Z</time></trkpt><trkpt lat="44.6945758" lon="12.108025"><ele>-3.333333333333333</ele><time>2026-04-26T14:18:19.904Z</time></trkpt><trkpt lat="44.6943864" lon="12.107934"><ele>-3.6666666666666665</ele><time>2026-04-26T14:18:20.903Z</time></trkpt><trkpt lat="44.6941924" lon="12.1078517"><ele>-4.0</ele><time>2026-04-26T14:18:21.904Z</time></trkpt><trkpt lat="44.6940028" lon="12.1077675"><ele>-4.0</ele><time>2026-04-26T14:18:22.904Z</time></trkpt><trkpt lat="44.6938139" lon="12.1076784"><ele>-4.0</ele><time>2026-04-26T14:18:23.903Z</time></trkpt><trkpt lat="44.6936261" lon="12.1075874"><ele>-4.0</ele><time>2026-04-26T14:18:24.904Z</time></trkpt><trkpt lat="44.6934363" lon="12.1074998"><ele>-3.6666666666666665</ele><time>2026-04-26T14:18:25.903Z</time></trkpt><trkpt lat="44.6932501" lon="12.1074115"><ele>-3.333333333333333</ele><time>2026-04-26T14:18:26.903Z</time></trkpt><trkpt lat="44.6930745" lon="12.1073223"><ele>-3.0</ele><time>2026-04-26T14:18:27.903Z</time></trkpt><trkpt lat="44.6929166" lon="12.1072021"><ele>-3.0</ele><time>2026-04-26T14:18:28.903Z</time></trkpt><trkpt lat="44.692761" lon="12.1070554"><ele>-3.0</ele><time>2026-04-26T14:18:29.903Z</time></trkpt><trkpt lat="44.6926171" lon="12.1068817"><ele>-3.0</ele><time>2026-04-26T14:18:30.903Z</time></trkpt><trkpt lat="44.6924812" lon="12.1066848"><ele>-3.0</ele><time>2026-04-26T14:18:31.904Z</time></trkpt><trkpt lat="44.692355" lon="12.1064722"><ele>-3.0</ele><time>2026-04-26T14:18:32.904Z</time></trkpt><trkpt lat="44.6922524" lon="12.1062325"><ele>-3.0</ele><time>2026-04-26T14:18:33.903Z</time></trkpt><trkpt lat="44.6921611" lon="12.1059636"><ele>-3.333333333333333</ele><time>2026-04-26T14:18:34.904Z</time></trkpt><trkpt lat="44.6920815" lon="12.1056806"><ele>-3.6666666666666665</ele><time>2026-04-26T14:18:35.903Z</time></trkpt><trkpt lat="44.6919996" lon="12.1053981"><ele>-4.0</ele><time>2026-04-26T14:18:36.903Z</time></trkpt><trkpt lat="44.6919154" lon="12.1051079"><ele>-3.5</ele><time>2026-04-26T14:18:37.904Z</time></trkpt><trkpt lat="44.6918297" lon="12.1048132"><ele>-3.0</ele><time>2026-04-26T14:18:38.903Z</time></trkpt><trkpt lat="44.6917433" lon="12.1045167"><ele>-3.0</ele><time>2026-04-26T14:18:39.903Z</time></trkpt><trkpt lat="44.6916551" lon="12.1042194"><ele>-3.0</ele><time>2026-04-26T14:18:40.904Z</time></trkpt><trkpt lat="44.691568" lon="12.1039196"><ele>-3.0</ele><time>2026-04-26T14:18:41.903Z</time></trkpt><trkpt lat="44.6914692" lon="12.1036259"><ele>-3.0</ele><time>2026-04-26T14:18:42.903Z</time></trkpt><trkpt lat="44.6913703" lon="12.1033329"><ele>-1.5</ele><time>2026-04-26T14:18:43.903Z</time></trkpt><trkpt lat="44.691281" lon="12.1030339"><ele>0.0</ele><time>2026-04-26T14:18:44.904Z</time></trkpt><trkpt lat="44.6912019" lon="12.1027301"><ele>0.0</ele><time>2026-04-26T14:18:45.903Z</time></trkpt><trkpt lat="44.691124" lon="12.1024248"><ele>0.0</ele><time>2026-04-26T14:18:46.903Z</time></trkpt><trkpt lat="44.6910471" lon="12.1021195"><ele>-0.5</ele><time>2026-04-26T14:18:47.904Z</time></trkpt><trkpt lat="44.6909656" lon="12.1018178"><ele>-1.0</ele><time>2026-04-26T14:18:48.904Z</time></trkpt><trkpt lat="44.6908838" lon="12.1015297"><ele>-1.0</ele><time>2026-04-26T14:18:49.904Z</time></trkpt><trkpt lat="44.69081" lon="12.1012617"><ele>-1.0</ele><time>2026-04-26T14:18:50.904Z</time></trkpt><trkpt lat="44.6907393" lon="12.1010017"><ele>-1.0</ele><time>2026-04-26T14:18:51.903Z</time></trkpt><trkpt lat="44.6906688" lon="12.1007583"><ele>-0.6666666666666666</ele><time>2026-04-26T14:18:52.904Z</time></trkpt><trkpt lat="44.6905965" lon="12.1005302"><ele>-0.3333333333333333</ele><time>2026-04-26T14:18:53.903Z</time></trkpt><trkpt lat="44.6905107" lon="12.1003073"><ele>0.0</ele><time>2026-04-26T14:18:54.904Z</time></trkpt><trkpt lat="44.6904111" lon="12.1000871"><ele>-0.6666666666666666</ele><time>2026-04-26T14:18:55.904Z</time></trkpt><trkpt lat="44.6903052" lon="12.0998798"><ele>-1.3333333333333333</ele><time>2026-04-26T14:18:56.904Z</time></trkpt><trkpt lat="44.6901825" lon="12.0996809"><ele>-2.0</ele><time>2026-04-26T14:18:57.904Z</time></trkpt><trkpt lat="44.6900464" lon="12.0995003"><ele>-2.0</ele><time>2026-04-26T14:18:58.903Z</time></trkpt><trkpt lat="44.6898942" lon="12.0993396"><ele>-2.0</ele><time>2026-04-26T14:18:59.903Z</time></trkpt><trkpt lat="44.6897272" lon="12.0992096"><ele>-2.0</ele><time>2026-04-26T14:19:00.904Z</time></trkpt><trkpt lat="44.6895476" lon="12.0991136"><ele>-2.0</ele><time>2026-04-26T14:19:01.904Z</time></trkpt><trkpt lat="44.6893636" lon="12.0990368"><ele>-2.0</ele><time>2026-04-26T14:19:02.904Z</time></trkpt><trkpt lat="44.6891686" lon="12.0989909"><ele>-2.0</ele><time>2026-04-26T14:19:03.904Z</time></trkpt><trkpt lat="44.6889724" lon="12.0989769"><ele>-2.0</ele><time>2026-04-26T14:19:04.904Z</time></trkpt><trkpt lat="44.6887767" lon="12.0989976"><ele>-2.0</ele><time>2026-04-26T14:19:05.903Z</time></trkpt><trkpt lat="44.688582" lon="12.0990484"><ele>-2.0</ele><time>2026-04-26T14:19:06.903Z</time></trkpt><trkpt lat="44.6883866" lon="12.0991223"><ele>-2.6666666666666665</ele><time>2026-04-26T14:19:07.904Z</time></trkpt><trkpt lat="44.6881942" lon="12.0992138"><ele>-3.333333333333333</ele><time>2026-04-26T14:19:08.903Z</time></trkpt><trkpt lat="44.6880026" lon="12.0993233"><ele>-4.0</ele><time>2026-04-26T14:19:09.904Z</time></trkpt><trkpt lat="44.6878077" lon="12.0994371"><ele>-3.5</ele><time>2026-04-26T14:19:10.903Z</time></trkpt><trkpt lat="44.6876062" lon="12.0995645"><ele>-3.0</ele><time>2026-04-26T14:19:11.903Z</time></trkpt><trkpt lat="44.6873986" lon="12.0996994"><ele>-3.0</ele><time>2026-04-26T14:19:12.903Z</time></trkpt><trkpt lat="44.6871939" lon="12.0998397"><ele>-3.0</ele><time>2026-04-26T14:19:13.904Z</time></trkpt><trkpt lat="44.6869822" lon="12.0999857"><ele>-2.5</ele><time>2026-04-26T14:19:14.903Z</time></trkpt><trkpt lat="44.686772" lon="12.1001263"><ele>-2.0</ele><time>2026-04-26T14:19:15.903Z</time></trkpt><trkpt lat="44.6865553" lon="12.1002645"><ele>-2.0</ele><time>2026-04-26T14:19:16.903Z</time></trkpt><trkpt lat="44.6863385" lon="12.1004061"><ele>-2.0</ele><time>2026-04-26T14:19:17.903Z</time></trkpt><trkpt lat="44.6861225" lon="12.1005503"><ele>-2.5</ele><time>2026-04-26T14:19:18.903Z</time></trkpt><trkpt lat="44.6859054" lon="12.1006993"><ele>-3.0</ele><time>2026-04-26T14:19:19.904Z</time></trkpt><trkpt lat="44.6856907" lon="12.1008381"><ele>-3.0</ele><time>2026-04-26T14:19:20.904Z</time></trkpt><trkpt lat="44.6854737" lon="12.1009838"><ele>-3.0</ele><time>2026-04-26T14:19:21.903Z</time></trkpt><trkpt lat="44.6852537" lon="12.1011249"><ele>-3.0</ele><time>2026-04-26T14:19:22.904Z</time></trkpt><trkpt lat="44.6850352" lon="12.1012727"><ele>-3.0</ele><time>2026-04-26T14:19:23.904Z</time></trkpt><trkpt lat="44.68482" lon="12.1014129"><ele>-3.0</ele><time>2026-04-26T14:19:24.903Z</time></trkpt><trkpt lat="44.6846033" lon="12.1015538"><ele>-3.0</ele><time>2026-04-26T14:19:25.903Z</time></trkpt><trkpt lat="44.6843883" lon="12.1016967"><ele>-2.5</ele><time>2026-04-26T14:19:26.903Z</time></trkpt><trkpt lat="44.6841736" lon="12.1018418"><ele>-2.0</ele><time>2026-04-26T14:19:27.904Z</time></trkpt><trkpt lat="44.683957" lon="12.1019829"><ele>-2.0</ele><time>2026-04-26T14:19:28.904Z</time></trkpt><trkpt lat="44.6837415" lon="12.1021261"><ele>-2.0</ele><time>2026-04-26T14:19:29.903Z</time></trkpt><trkpt lat="44.6835288" lon="12.1022669"><ele>-2.0</ele><time>2026-04-26T14:19:30.903Z</time></trkpt><trkpt lat="44.6833177" lon="12.1024144"><ele>-2.0</ele><time>2026-04-26T14:19:31.904Z</time></trkpt><trkpt lat="44.6831042" lon="12.1025588"><ele>-2.5</ele><time>2026-04-26T14:19:32.904Z</time></trkpt><trkpt lat="44.6828898" lon="12.1027034"><ele>-3.0</ele><time>2026-04-26T14:19:33.904Z</time></trkpt><trkpt lat="44.6826759" lon="12.1028473"><ele>-3.0</ele><time>2026-04-26T14:19:34.903Z</time></trkpt><trkpt lat="44.6824584" lon="12.1029908"><ele>-3.0</ele><time>2026-04-26T14:19:35.903Z</time></trkpt><trkpt lat="44.682239" lon="12.1031281"><ele>-3.5</ele><time>2026-04-26T14:19:36.904Z</time></trkpt><trkpt lat="44.6820253" lon="12.1032743"><ele>-4.0</ele><time>2026-04-26T14:19:37.903Z</time></trkpt><trkpt lat="44.6818084" lon="12.1034153"><ele>-3.0</ele><time>2026-04-26T14:19:38.904Z</time></trkpt><trkpt lat="44.6815838" lon="12.103561"><ele>-2.0</ele><time>2026-04-26T14:19:39.903Z</time></trkpt><trkpt lat="44.6813656" lon="12.1037059"><ele>-2.0</ele><time>2026-04-26T14:19:40.904Z</time></trkpt><trkpt lat="44.6811507" lon="12.1038529"><ele>-2.0</ele><time>2026-04-26T14:19:41.903Z</time></trkpt><trkpt lat="44.6809263" lon="12.103993"><ele>-2.5</ele><time>2026-04-26T14:19:42.904Z</time></trkpt><trkpt lat="44.6807073" lon="12.1041368"><ele>-3.0</ele><time>2026-04-26T14:19:43.903Z</time></trkpt><trkpt lat="44.6804947" lon="12.10428"><ele>-3.0</ele><time>2026-04-26T14:19:44.904Z</time></trkpt><trkpt lat="44.6802744" lon="12.1044275"><ele>-3.0</ele><time>2026-04-26T14:19:45.903Z</time></trkpt><trkpt lat="44.6800558" lon="12.104565"><ele>-3.0</ele><time>2026-04-26T14:19:46.904Z</time></trkpt><trkpt lat="44.6798383" lon="12.1046955"><ele>-3.0</ele><time>2026-04-26T14:19:47.904Z</time></trkpt><trkpt lat="44.6796167" lon="12.1048213"><ele>-3.0</ele><time>2026-04-26T14:19:48.904Z</time></trkpt><trkpt lat="44.6793945" lon="12.1049415"><ele>-3.0</ele><time>2026-04-26T14:19:49.903Z</time></trkpt><trkpt lat="44.6791781" lon="12.1050622"><ele>-3.0</ele><time>2026-04-26T14:19:50.903Z</time></trkpt><trkpt lat="44.6789569" lon="12.1051887"><ele>-3.0</ele><time>2026-04-26T14:19:51.903Z</time></trkpt><trkpt lat="44.6787358" lon="12.1053139"><ele>-3.5</ele><time>2026-04-26T14:19:52.903Z</time></trkpt><trkpt lat="44.6785156" lon="12.1054353"><ele>-4.0</ele><time>2026-04-26T14:19:53.903Z</time></trkpt><trkpt lat="44.678298" lon="12.1055637"><ele>-4.0</ele><time>2026-04-26T14:19:54.903Z</time></trkpt><trkpt lat="44.6780761" lon="12.1056859"><ele>-4.0</ele><time>2026-04-26T14:19:55.904Z</time></trkpt><trkpt lat="44.6778573" lon="12.1058032"><ele>-3.5</ele><time>2026-04-26T14:19:56.903Z</time></trkpt><trkpt lat="44.6776371" lon="12.1059295"><ele>-3.0</ele><time>2026-04-26T14:19:57.904Z</time></trkpt><trkpt lat="44.6774166" lon="12.1060551"><ele>-3.0</ele><time>2026-04-26T14:19:58.904Z</time></trkpt><trkpt lat="44.6771934" lon="12.1061803"><ele>-3.0</ele><time>2026-04-26T14:19:59.903Z</time></trkpt><trkpt lat="44.6769708" lon="12.1063023"><ele>-3.0</ele><time>2026-04-26T14:20:00.904Z</time></trkpt><trkpt lat="44.6767486" lon="12.106422"><ele>-3.0</ele><time>2026-04-26T14:20:01.903Z</time></trkpt><trkpt lat="44.6765313" lon="12.1065447"><ele>-3.5</ele><time>2026-04-26T14:20:02.903Z</time></trkpt><trkpt lat="44.6763142" lon="12.1066665"><ele>-4.0</ele><time>2026-04-26T14:20:03.903Z</time></trkpt><trkpt lat="44.6760994" lon="12.1067847"><ele>-4.0</ele><time>2026-04-26T14:20:04.904Z</time></trkpt><trkpt lat="44.6758846" lon="12.1069092"><ele>-4.0</ele><time>2026-04-26T14:20:05.903Z</time></trkpt><trkpt lat="44.6756688" lon="12.1070316"><ele>-4.0</ele><time>2026-04-26T14:20:06.904Z</time></trkpt><trkpt lat="44.6754558" lon="12.1071566"><ele>-4.0</ele><time>2026-04-26T14:20:07.903Z</time></trkpt><trkpt lat="44.6752406" lon="12.1072804"><ele>-4.5</ele><time>2026-04-26T14:20:08.904Z</time></trkpt><trkpt lat="44.6750267" lon="12.1073983"><ele>-5.0</ele><time>2026-04-26T14:20:09.904Z</time></trkpt><trkpt lat="44.6748164" lon="12.1075148"><ele>-4.0</ele><time>2026-04-26T14:20:10.903Z</time></trkpt><trkpt lat="44.6746064" lon="12.1076331"><ele>-3.0</ele><time>2026-04-26T14:20:11.904Z</time></trkpt><trkpt lat="44.6743936" lon="12.1077507"><ele>-2.5</ele><time>2026-04-26T14:20:12.903Z</time></trkpt><trkpt lat="44.6741807" lon="12.1078685"><ele>-2.0</ele><time>2026-04-26T14:20:13.904Z</time></trkpt><trkpt lat="44.6739696" lon="12.1079867"><ele>-2.0</ele><time>2026-04-26T14:20:14.903Z</time></trkpt><trkpt lat="44.6737592" lon="12.1081094"><ele>-2.0</ele><time>2026-04-26T14:20:15.903Z</time></trkpt><trkpt lat="44.6735481" lon="12.1082334"><ele>-1.5</ele><time>2026-04-26T14:20:16.904Z</time></trkpt><trkpt lat="44.6733358" lon="12.1083482"><ele>-1.0</ele><time>2026-04-26T14:20:17.903Z</time></trkpt><trkpt lat="44.6731202" lon="12.1084628"><ele>-1.0</ele><time>2026-04-26T14:20:18.904Z</time></trkpt><trkpt lat="44.6729101" lon="12.1085838"><ele>-1.0</ele><time>2026-04-26T14:20:19.904Z</time></trkpt><trkpt lat="44.6726983" lon="12.1087"><ele>-2.5</ele><time>2026-04-26T14:20:20.904Z</time></trkpt><trkpt lat="44.6724883" lon="12.1088091"><ele>-4.0</ele><time>2026-04-26T14:20:21.903Z</time></trkpt><trkpt lat="44.6722745" lon="12.1089148"><ele>-4.0</ele><time>2026-04-26T14:20:22.904Z</time></trkpt><trkpt lat="44.6720555" lon="12.1090132"><ele>-4.0</ele><time>2026-04-26T14:20:23.904Z</time></trkpt><trkpt lat="44.6718428" lon="12.1091145"><ele>-3.333333333333333</ele><time>2026-04-26T14:20:24.903Z</time></trkpt><trkpt lat="44.6716354" lon="12.1092256"><ele>-2.6666666666666665</ele><time>2026-04-26T14:20:25.903Z</time></trkpt><trkpt lat="44.6714286" lon="12.1093338"><ele>-2.0</ele><time>2026-04-26T14:20:26.903Z</time></trkpt><trkpt lat="44.6712244" lon="12.1094403"><ele>-2.6666666666666665</ele><time>2026-04-26T14:20:27.904Z</time></trkpt><trkpt lat="44.6710196" lon="12.1095445"><ele>-3.333333333333333</ele><time>2026-04-26T14:20:28.903Z</time></trkpt><trkpt lat="44.6708177" lon="12.109646"><ele>-4.0</ele><time>2026-04-26T14:20:29.904Z</time></trkpt><trkpt lat="44.6706153" lon="12.1097556"><ele>-4.0</ele><time>2026-04-26T14:20:30.904Z</time></trkpt><trkpt lat="44.6704161" lon="12.1098645"><ele>-4.0</ele><time>2026-04-26T14:20:31.903Z</time></trkpt><trkpt lat="44.6702132" lon="12.109978"><ele>-4.0</ele><time>2026-04-26T14:20:32.904Z</time></trkpt><trkpt lat="44.6700182" lon="12.110098"><ele>-3.333333333333333</ele><time>2026-04-26T14:20:33.904Z</time></trkpt><trkpt lat="44.669817" lon="12.1102231"><ele>-2.6666666666666665</ele><time>2026-04-26T14:20:34.904Z</time></trkpt><trkpt lat="44.6696233" lon="12.1103434"><ele>-2.0</ele><time>2026-04-26T14:20:35.903Z</time></trkpt><trkpt lat="44.6694229" lon="12.1104881"><ele>-2.0</ele><time>2026-04-26T14:20:36.903Z</time></trkpt><trkpt lat="44.6692288" lon="12.1106197"><ele>-2.0</ele><time>2026-04-26T14:20:37.903Z</time></trkpt><trkpt lat="44.6690325" lon="12.1107545"><ele>-2.0</ele><time>2026-04-26T14:20:38.903Z</time></trkpt><trkpt lat="44.6688365" lon="12.1108933"><ele>-2.0</ele><time>2026-04-26T14:20:39.904Z</time></trkpt><trkpt lat="44.6686371" lon="12.1110332"><ele>-2.0</ele><time>2026-04-26T14:20:40.904Z</time></trkpt><trkpt lat="44.66844" lon="12.111176"><ele>-2.0</ele><time>2026-04-26T14:20:41.903Z</time></trkpt><trkpt lat="44.6682447" lon="12.1113237"><ele>-2.5</ele><time>2026-04-26T14:20:42.904Z</time></trkpt><trkpt lat="44.668047" lon="12.1114771"><ele>-3.0</ele><time>2026-04-26T14:20:43.904Z</time></trkpt><trkpt lat="44.6678538" lon="12.111636"><ele>-3.0</ele><time>2026-04-26T14:20:44.903Z</time></trkpt><trkpt lat="44.667662" lon="12.111801"><ele>-3.0</ele><time>2026-04-26T14:20:45.904Z</time></trkpt><trkpt lat="44.6674676" lon="12.1119767"><ele>-3.0</ele><time>2026-04-26T14:20:46.903Z</time></trkpt><trkpt lat="44.6672746" lon="12.1121581"><ele>-3.0</ele><time>2026-04-26T14:20:47.903Z</time></trkpt><trkpt lat="44.6670807" lon="12.1123329"><ele>-2.5</ele><time>2026-04-26T14:20:48.904Z</time></trkpt><trkpt lat="44.6668853" lon="12.112506"><ele>-2.0</ele><time>2026-04-26T14:20:49.903Z</time></trkpt><trkpt lat="44.666691" lon="12.1126819"><ele>-2.0</ele><time>2026-04-26T14:20:50.904Z</time></trkpt><trkpt lat="44.6664968" lon="12.1128557"><ele>-2.0</ele><time>2026-04-26T14:20:51.904Z</time></trkpt><trkpt lat="44.6663039" lon="12.1130208"><ele>-2.0</ele><time>2026-04-26T14:20:52.904Z</time></trkpt><trkpt lat="44.6661135" lon="12.1131882"><ele>-2.0</ele><time>2026-04-26T14:20:53.903Z</time></trkpt><trkpt lat="44.6659211" lon="12.1133585"><ele>-2.5</ele><time>2026-04-26T14:20:54.903Z</time></trkpt><trkpt lat="44.6657275" lon="12.1135276"><ele>-3.0</ele><time>2026-04-26T14:20:55.904Z</time></trkpt><trkpt lat="44.6655352" lon="12.1136982"><ele>-3.0</ele><time>2026-04-26T14:20:56.904Z</time></trkpt><trkpt lat="44.6653416" lon="12.1138607"><ele>-3.0</ele><time>2026-04-26T14:20:57.903Z</time></trkpt><trkpt lat="44.665147" lon="12.114031"><ele>-3.0</ele><time>2026-04-26T14:20:58.903Z</time></trkpt><trkpt lat="44.6649556" lon="12.1141996"><ele>-3.0</ele><time>2026-04-26T14:20:59.903Z</time></trkpt><trkpt lat="44.6647653" lon="12.1143682"><ele>-3.0</ele><time>2026-04-26T14:21:00.904Z</time></trkpt><trkpt lat="44.6645757" lon="12.1145387"><ele>-3.0</ele><time>2026-04-26T14:21:01.903Z</time></trkpt><trkpt lat="44.6644029" lon="12.1146926"><ele>-3.0</ele><time>2026-04-26T14:21:02.904Z</time></trkpt><trkpt lat="44.6642382" lon="12.1148389"><ele>-3.0</ele><time>2026-04-26T14:21:03.904Z</time></trkpt><trkpt lat="44.6640826" lon="12.1149772"><ele>-3.0</ele><time>2026-04-26T14:21:04.903Z</time></trkpt><trkpt lat="44.6639307" lon="12.1151052"><ele>-3.0</ele><time>2026-04-26T14:21:05.903Z</time></trkpt><trkpt lat="44.6637907" lon="12.1152208"><ele>-3.0</ele><time>2026-04-26T14:21:06.903Z</time></trkpt><trkpt lat="44.6636616" lon="12.1153421"><ele>-3.0</ele><time>2026-04-26T14:21:07.904Z</time></trkpt><trkpt lat="44.6635269" lon="12.1154565"><ele>-3.0</ele><time>2026-04-26T14:21:08.903Z</time></trkpt><trkpt lat="44.6633861" lon="12.1155592"><ele>-2.6666666666666665</ele><time>2026-04-26T14:21:09.904Z</time></trkpt><trkpt lat="44.6632354" lon="12.1156443"><ele>-2.333333333333333</ele><time>2026-04-26T14:21:10.904Z</time></trkpt><trkpt lat="44.6630755" lon="12.1157164"><ele>-2.0</ele><time>2026-04-26T14:21:11.904Z</time></trkpt><trkpt lat="44.6629082" lon="12.1157799"><ele>-1.3333333333333333</ele><time>2026-04-26T14:21:12.904Z</time></trkpt><trkpt lat="44.6627326" lon="12.1158182"><ele>-0.6666666666666666</ele><time>2026-04-26T14:21:13.904Z</time></trkpt><trkpt lat="44.6625512" lon="12.1158279"><ele>0.0</ele><time>2026-04-26T14:21:14.903Z</time></trkpt><trkpt lat="44.6623709" lon="12.1158158"><ele>0.0</ele><time>2026-04-26T14:21:15.904Z</time></trkpt><trkpt lat="44.6621869" lon="12.1157773"><ele>0.0</ele><time>2026-04-26T14:21:16.903Z</time></trkpt><trkpt lat="44.6619995" lon="12.1157183"><ele>0.0</ele><time>2026-04-26T14:21:17.904Z</time></trkpt><trkpt lat="44.6618161" lon="12.1156436"><ele>-0.3333333333333333</ele><time>2026-04-26T14:21:18.904Z</time></trkpt><trkpt lat="44.661635" lon="12.1155332"><ele>-0.6666666666666666</ele><time>2026-04-26T14:21:19.904Z</time></trkpt><trkpt lat="44.6614604" lon="12.1154066"><ele>-1.0</ele><time>2026-04-26T14:21:20.904Z</time></trkpt><trkpt lat="44.6612909" lon="12.1152557"><ele>-1.0</ele><time>2026-04-26T14:21:21.903Z</time></trkpt><trkpt lat="44.6611202" lon="12.115091"><ele>-1.0</ele><time>2026-04-26T14:21:22.903Z</time></trkpt><trkpt lat="44.6609511" lon="12.1149213"><ele>-1.0</ele><time>2026-04-26T14:21:23.903Z</time></trkpt><trkpt lat="44.6607788" lon="12.1147527"><ele>-1.3333333333333333</ele><time>2026-04-26T14:21:24.904Z</time></trkpt><trkpt lat="44.6606012" lon="12.1145769"><ele>-1.6666666666666665</ele><time>2026-04-26T14:21:25.903Z</time></trkpt><trkpt lat="44.660419" lon="12.1144059"><ele>-2.0</ele><time>2026-04-26T14:21:26.903Z</time></trkpt><trkpt lat="44.6602361" lon="12.1142246"><ele>-2.333333333333333</ele><time>2026-04-26T14:21:27.903Z</time></trkpt><trkpt lat="44.6600541" lon="12.114043"><ele>-2.6666666666666665</ele><time>2026-04-26T14:21:28.904Z</time></trkpt><trkpt lat="44.6598684" lon="12.1138637"><ele>-3.0</ele><time>2026-04-26T14:21:29.904Z</time></trkpt><trkpt lat="44.659682" lon="12.1136855"><ele>-3.0</ele><time>2026-04-26T14:21:30.903Z</time></trkpt><trkpt lat="44.659492" lon="12.1135004"><ele>-3.0</ele><time>2026-04-26T14:21:31.904Z</time></trkpt><trkpt lat="44.6593025" lon="12.113319"><ele>-3.0</ele><time>2026-04-26T14:21:32.903Z</time></trkpt><trkpt lat="44.6591123" lon="12.1131361"><ele>-3.0</ele><time>2026-04-26T14:21:33.904Z</time></trkpt><trkpt lat="44.6589213" lon="12.1129539"><ele>-3.0</ele><time>2026-04-26T14:21:34.903Z</time></trkpt><trkpt lat="44.6587293" lon="12.1127746"><ele>-3.0</ele><time>2026-04-26T14:21:35.903Z</time></trkpt><trkpt lat="44.6585442" lon="12.1125947"><ele>-2.6666666666666665</ele><time>2026-04-26T14:21:36.904Z</time></trkpt><trkpt lat="44.6583622" lon="12.112411"><ele>-2.333333333333333</ele><time>2026-04-26T14:21:37.904Z</time></trkpt><trkpt lat="44.6581807" lon="12.1122286"><ele>-2.0</ele><time>2026-04-26T14:21:38.904Z</time></trkpt><trkpt lat="44.6580006" lon="12.1120417"><ele>-2.0</ele><time>2026-04-26T14:21:39.903Z</time></trkpt><trkpt lat="44.6578336" lon="12.1118408"><ele>-2.0</ele><time>2026-04-26T14:21:40.903Z</time></trkpt><trkpt lat="44.65767" lon="12.1116236"><ele>-2.0</ele><time>2026-04-26T14:21:41.903Z</time></trkpt><trkpt lat="44.6575106" lon="12.1114097"><ele>-2.0</ele><time>2026-04-26T14:21:42.903Z</time></trkpt><trkpt lat="44.6573581" lon="12.1111836"><ele>-2.0</ele><time>2026-04-26T14:21:43.903Z</time></trkpt><trkpt lat="44.6572083" lon="12.1109528"><ele>-2.0</ele><time>2026-04-26T14:21:44.903Z</time></trkpt><trkpt lat="44.6570624" lon="12.1107223"><ele>-1.3333333333333333</ele><time>2026-04-26T14:21:45.903Z</time></trkpt><trkpt lat="44.6569119" lon="12.1104911"><ele>-0.6666666666666666</ele><time>2026-04-26T14:21:46.903Z</time></trkpt><trkpt lat="44.6567586" lon="12.1102649"><ele>0.0</ele><time>2026-04-26T14:21:47.904Z</time></trkpt><trkpt lat="44.6566073" lon="12.1100381"><ele>-0.3333333333333333</ele><time>2026-04-26T14:21:48.903Z</time></trkpt><trkpt lat="44.6564594" lon="12.1098089"><ele>-0.6666666666666666</ele><time>2026-04-26T14:21:49.903Z</time></trkpt><trkpt lat="44.656313" lon="12.1095746"><ele>-1.0</ele><time>2026-04-26T14:21:50.903Z</time></trkpt><trkpt lat="44.6561667" lon="12.1093458"><ele>-1.0</ele><time>2026-04-26T14:21:51.903Z</time></trkpt><trkpt lat="44.6560206" lon="12.1091208"><ele>-1.0</ele><time>2026-04-26T14:21:52.903Z</time></trkpt><trkpt lat="44.655877" lon="12.1088956"><ele>-1.0</ele><time>2026-04-26T14:21:53.904Z</time></trkpt><trkpt lat="44.6557313" lon="12.1086778"><ele>-1.3333333333333333</ele><time>2026-04-26T14:21:54.904Z</time></trkpt><trkpt lat="44.6555781" lon="12.1084763"><ele>-1.6666666666666665</ele><time>2026-04-26T14:21:55.904Z</time></trkpt><trkpt lat="44.6554187" lon="12.1082891"><ele>-2.0</ele><time>2026-04-26T14:21:56.903Z</time></trkpt><trkpt lat="44.655253" lon="12.1081068"><ele>-2.0</ele><time>2026-04-26T14:21:57.903Z</time></trkpt><trkpt lat="44.6550773" lon="12.107938"><ele>-2.0</ele><time>2026-04-26T14:21:58.904Z</time></trkpt><trkpt lat="44.6549023" lon="12.1077649"><ele>-2.0</ele><time>2026-04-26T14:21:59.904Z</time></trkpt><trkpt lat="44.6547164" lon="12.107625"><ele>-2.0</ele><time>2026-04-26T14:22:00.903Z</time></trkpt><trkpt lat="44.6545314" lon="12.1074859"><ele>-2.0</ele><time>2026-04-26T14:22:01.903Z</time></trkpt><trkpt lat="44.6543429" lon="12.1073558"><ele>-2.0</ele><time>2026-04-26T14:22:02.903Z</time></trkpt><trkpt lat="44.6541535" lon="12.1072335"><ele>-2.333333333333333</ele><time>2026-04-26T14:22:03.903Z</time></trkpt><trkpt lat="44.6539587" lon="12.1071269"><ele>-2.6666666666666665</ele><time>2026-04-26T14:22:04.904Z</time></trkpt><trkpt lat="44.6537744" lon="12.1070329"><ele>-3.0</ele><time>2026-04-26T14:22:05.904Z</time></trkpt><trkpt lat="44.6535997" lon="12.1069541"><ele>-2.0</ele><time>2026-04-26T14:22:06.903Z</time></trkpt><trkpt lat="44.6534261" lon="12.1068784"><ele>-1.0</ele><time>2026-04-26T14:22:07.903Z</time></trkpt><trkpt lat="44.653262" lon="12.1068177"><ele>0.0</ele><time>2026-04-26T14:22:08.904Z</time></trkpt><trkpt lat="44.6530866" lon="12.1067739"><ele>0.0</ele><time>2026-04-26T14:22:09.903Z</time></trkpt><trkpt lat="44.6529044" lon="12.1067456"><ele>0.0</ele><time>2026-04-26T14:22:10.903Z</time></trkpt><trkpt lat="44.6527173" lon="12.1067139"><ele>0.0</ele><time>2026-04-26T14:22:11.904Z</time></trkpt><trkpt lat="44.6525284" lon="12.1066735"><ele>0.0</ele><time>2026-04-26T14:22:12.904Z</time></trkpt><trkpt lat="44.6523387" lon="12.10665"><ele>0.0</ele><time>2026-04-26T14:22:13.904Z</time></trkpt><trkpt lat="44.6521478" lon="12.1066458"><ele>0.0</ele><time>2026-04-26T14:22:14.904Z</time></trkpt><trkpt lat="44.6519559" lon="12.1066543"><ele>-0.3333333333333333</ele><time>2026-04-26T14:22:15.903Z</time></trkpt><trkpt lat="44.6517694" lon="12.1066821"><ele>-0.6666666666666666</ele><time>2026-04-26T14:22:16.903Z</time></trkpt><trkpt lat="44.6515811" lon="12.1067095"><ele>-1.0</ele><time>2026-04-26T14:22:17.903Z</time></trkpt><trkpt lat="44.6513953" lon="12.1067351"><ele>-1.0</ele><time>2026-04-26T14:22:18.903Z</time></trkpt><trkpt lat="44.6512101" lon="12.1067653"><ele>-1.0</ele><time>2026-04-26T14:22:19.903Z</time></trkpt><trkpt lat="44.6510248" lon="12.1068034"><ele>-1.0</ele><time>2026-04-26T14:22:20.904Z</time></trkpt><trkpt lat="44.6508411" lon="12.106837"><ele>-1.3333333333333333</ele><time>2026-04-26T14:22:21.903Z</time></trkpt><trkpt lat="44.650648" lon="12.106856"><ele>-1.6666666666666665</ele><time>2026-04-26T14:22:22.904Z</time></trkpt><trkpt lat="44.6504574" lon="12.1068693"><ele>-2.0</ele><time>2026-04-26T14:22:23.903Z</time></trkpt><trkpt lat="44.6502668" lon="12.10689"><ele>-2.0</ele><time>2026-04-26T14:22:24.903Z</time></trkpt><trkpt lat="44.6500759" lon="12.1069213"><ele>-2.0</ele><time>2026-04-26T14:22:25.903Z</time></trkpt><trkpt lat="44.6498832" lon="12.1069528"><ele>-2.0</ele><time>2026-04-26T14:22:26.904Z</time></trkpt><trkpt lat="44.6496911" lon="12.1069903"><ele>-2.0</ele><time>2026-04-26T14:22:27.903Z</time></trkpt><trkpt lat="44.6495001" lon="12.1070237"><ele>-2.0</ele><time>2026-04-26T14:22:28.903Z</time></trkpt><trkpt lat="44.6493115" lon="12.1070517"><ele>-2.0</ele><time>2026-04-26T14:22:29.903Z</time></trkpt><trkpt lat="44.6491188" lon="12.1070801"><ele>-1.3333333333333333</ele><time>2026-04-26T14:22:30.903Z</time></trkpt><trkpt lat="44.6489314" lon="12.1071087"><ele>-0.6666666666666666</ele><time>2026-04-26T14:22:31.903Z</time></trkpt><trkpt lat="44.6487462" lon="12.1071354"><ele>0.0</ele><time>2026-04-26T14:22:32.904Z</time></trkpt><trkpt lat="44.6485574" lon="12.1071561"><ele>0.0</ele><time>2026-04-26T14:22:33.904Z</time></trkpt><trkpt lat="44.648366" lon="12.1071755"><ele>0.0</ele><time>2026-04-26T14:22:34.903Z</time></trkpt><trkpt lat="44.6481729" lon="12.1071975"><ele>0.0</ele><time>2026-04-26T14:22:35.904Z</time></trkpt><trkpt lat="44.6479767" lon="12.1072262"><ele>-0.3333333333333333</ele><time>2026-04-26T14:22:36.903Z</time></trkpt><trkpt lat="44.647782" lon="12.1072561"><ele>-0.6666666666666666</ele><time>2026-04-26T14:22:37.903Z</time></trkpt><trkpt lat="44.6475861" lon="12.1072899"><ele>-1.0</ele><time>2026-04-26T14:22:38.903Z</time></trkpt><trkpt lat="44.6473917" lon="12.1073211"><ele>-1.0</ele><time>2026-04-26T14:22:39.904Z</time></trkpt><trkpt lat="44.6471952" lon="12.1073456"><ele>-1.0</ele><time>2026-04-26T14:22:40.904Z</time></trkpt><trkpt lat="44.6469962" lon="12.1073716"><ele>-1.0</ele><time>2026-04-26T14:22:41.903Z</time></trkpt><trkpt lat="44.6467993" lon="12.1073964"><ele>-1.6666666666666665</ele><time>2026-04-26T14:22:42.904Z</time></trkpt><trkpt lat="44.6466028" lon="12.1074286"><ele>-2.3333333333333335</ele><time>2026-04-26T14:22:43.904Z</time></trkpt><trkpt lat="44.6464052" lon="12.1074628"><ele>-3.0</ele><time>2026-04-26T14:22:44.904Z</time></trkpt><trkpt lat="44.6462108" lon="12.1074982"><ele>-2.6666666666666665</ele><time>2026-04-26T14:22:45.903Z</time></trkpt><trkpt lat="44.6460161" lon="12.1075347"><ele>-2.333333333333333</ele><time>2026-04-26T14:22:46.904Z</time></trkpt><trkpt lat="44.6458176" lon="12.1075746"><ele>-2.0</ele><time>2026-04-26T14:22:47.903Z</time></trkpt><trkpt lat="44.6456224" lon="12.1076024"><ele>-2.0</ele><time>2026-04-26T14:22:48.903Z</time></trkpt><trkpt lat="44.6454214" lon="12.1076366"><ele>-2.0</ele><time>2026-04-26T14:22:49.903Z</time></trkpt><trkpt lat="44.6452251" lon="12.1076678"><ele>-2.0</ele><time>2026-04-26T14:22:50.904Z</time></trkpt><trkpt lat="44.6450278" lon="12.1076902"><ele>-2.0</ele><time>2026-04-26T14:22:51.904Z</time></trkpt><trkpt lat="44.6448319" lon="12.107712"><ele>-2.0</ele><time>2026-04-26T14:22:52.904Z</time></trkpt><trkpt lat="44.6446324" lon="12.1077385"><ele>-2.0</ele><time>2026-04-26T14:22:53.903Z</time></trkpt><trkpt lat="44.6444312" lon="12.1077687"><ele>-2.0</ele><time>2026-04-26T14:22:54.903Z</time></trkpt><trkpt lat="44.6442312" lon="12.1078013"><ele>-2.0</ele><time>2026-04-26T14:22:55.904Z</time></trkpt><trkpt lat="44.6440366" lon="12.1078333"><ele>-2.0</ele><time>2026-04-26T14:22:56.904Z</time></trkpt><trkpt lat="44.6438402" lon="12.1078648"><ele>-2.0</ele><time>2026-04-26T14:22:57.904Z</time></trkpt><trkpt lat="44.6436435" lon="12.1078911"><ele>-2.0</ele><time>2026-04-26T14:22:58.903Z</time></trkpt><trkpt lat="44.6434455" lon="12.1079127"><ele>-2.0</ele><time>2026-04-26T14:22:59.904Z</time></trkpt><trkpt lat="44.6432512" lon="12.1079216"><ele>-2.0</ele><time>2026-04-26T14:23:00.904Z</time></trkpt><trkpt lat="44.6430513" lon="12.1079198"><ele>-2.0</ele><time>2026-04-26T14:23:01.903Z</time></trkpt><trkpt lat="44.6428549" lon="12.1079032"><ele>-2.0</ele><time>2026-04-26T14:23:02.904Z</time></trkpt><trkpt lat="44.6426557" lon="12.1078717"><ele>-2.0</ele><time>2026-04-26T14:23:03.903Z</time></trkpt><trkpt lat="44.6424602" lon="12.1078266"><ele>-2.0</ele><time>2026-04-26T14:23:04.903Z</time></trkpt><trkpt lat="44.6422633" lon="12.1077752"><ele>-2.0</ele><time>2026-04-26T14:23:05.903Z</time></trkpt><trkpt lat="44.6420675" lon="12.1077069"><ele>-2.333333333333333</ele><time>2026-04-26T14:23:06.904Z</time></trkpt><trkpt lat="44.6418728" lon="12.1076249"><ele>-2.6666666666666665</ele><time>2026-04-26T14:23:07.904Z</time></trkpt><trkpt lat="44.641686" lon="12.1075242"><ele>-3.0</ele><time>2026-04-26T14:23:08.903Z</time></trkpt><trkpt lat="44.6415012" lon="12.1074099"><ele>-3.0</ele><time>2026-04-26T14:23:09.903Z</time></trkpt><trkpt lat="44.6413155" lon="12.1072914"><ele>-3.0</ele><time>2026-04-26T14:23:10.903Z</time></trkpt><trkpt lat="44.6411308" lon="12.1071696"><ele>-3.0</ele><time>2026-04-26T14:23:11.903Z</time></trkpt><trkpt lat="44.6409445" lon="12.107044"><ele>-2.6666666666666665</ele><time>2026-04-26T14:23:12.904Z</time></trkpt><trkpt lat="44.6407596" lon="12.1069182"><ele>-2.333333333333333</ele><time>2026-04-26T14:23:13.904Z</time></trkpt><trkpt lat="44.6405749" lon="12.1067938"><ele>-2.0</ele><time>2026-04-26T14:23:14.904Z</time></trkpt><trkpt lat="44.6403915" lon="12.106661"><ele>-2.0</ele><time>2026-04-26T14:23:15.903Z</time></trkpt><trkpt lat="44.6402032" lon="12.1065273"><ele>-2.0</ele><time>2026-04-26T14:23:16.903Z</time></trkpt><trkpt lat="44.6400164" lon="12.1063987"><ele>-2.0</ele><time>2026-04-26T14:23:17.903Z</time></trkpt><trkpt lat="44.6398256" lon="12.1062719"><ele>-2.0</ele><time>2026-04-26T14:23:18.904Z</time></trkpt><trkpt lat="44.6396371" lon="12.1061392"><ele>-2.0</ele><time>2026-04-26T14:23:19.903Z</time></trkpt><trkpt lat="44.6394501" lon="12.1060035"><ele>-2.0</ele><time>2026-04-26T14:23:20.904Z</time></trkpt><trkpt lat="44.6392606" lon="12.1058756"><ele>-2.0</ele><time>2026-04-26T14:23:21.903Z</time></trkpt><trkpt lat="44.6390687" lon="12.105739"><ele>-2.0</ele><time>2026-04-26T14:23:22.904Z</time></trkpt><trkpt lat="44.6388825" lon="12.10561"><ele>-2.0</ele><time>2026-04-26T14:23:23.903Z</time></trkpt><trkpt lat="44.6386972" lon="12.1054834"><ele>-1.6666666666666665</ele><time>2026-04-26T14:23:24.903Z</time></trkpt><trkpt lat="44.6385077" lon="12.1053558"><ele>-1.3333333333333333</ele><time>2026-04-26T14:23:25.904Z</time></trkpt><trkpt lat="44.638326" lon="12.1052359"><ele>-1.0</ele><time>2026-04-26T14:23:26.903Z</time></trkpt><trkpt lat="44.6381445" lon="12.1051179"><ele>-1.0</ele><time>2026-04-26T14:23:27.904Z</time></trkpt><trkpt lat="44.6379636" lon="12.1050024"><ele>-1.0</ele><time>2026-04-26T14:23:28.903Z</time></trkpt><trkpt lat="44.6377829" lon="12.1048935"><ele>-1.0</ele><time>2026-04-26T14:23:29.904Z</time></trkpt><trkpt lat="44.6376003" lon="12.1047883"><ele>-1.0</ele><time>2026-04-26T14:23:30.903Z</time></trkpt><trkpt lat="44.6374148" lon="12.1046918"><ele>-1.0</ele><time>2026-04-26T14:23:31.903Z</time></trkpt><trkpt lat="44.6372301" lon="12.1045956"><ele>-1.0</ele><time>2026-04-26T14:23:32.904Z</time></trkpt><trkpt lat="44.6370459" lon="12.1045053"><ele>-0.6666666666666666</ele><time>2026-04-26T14:23:33.904Z</time></trkpt><trkpt lat="44.6368601" lon="12.1044143"><ele>-0.3333333333333333</ele><time>2026-04-26T14:23:34.903Z</time></trkpt><trkpt lat="44.636678" lon="12.1043209"><ele>0.0</ele><time>2026-04-26T14:23:35.903Z</time></trkpt><trkpt lat="44.63649" lon="12.1042179"><ele>0.0</ele><time>2026-04-26T14:23:36.903Z</time></trkpt><trkpt lat="44.63631" lon="12.1041238"><ele>0.0</ele><time>2026-04-26T14:23:37.904Z</time></trkpt><trkpt lat="44.6361274" lon="12.1040297"><ele>0.0</ele><time>2026-04-26T14:23:38.904Z</time></trkpt><trkpt lat="44.6359468" lon="12.1039361"><ele>-0.6666666666666666</ele><time>2026-04-26T14:23:39.904Z</time></trkpt><trkpt lat="44.6357622" lon="12.1038456"><ele>-1.3333333333333333</ele><time>2026-04-26T14:23:40.904Z</time></trkpt><trkpt lat="44.6355791" lon="12.1037557"><ele>-2.0</ele><time>2026-04-26T14:23:41.903Z</time></trkpt><trkpt lat="44.6354076" lon="12.1036665"><ele>-1.75</ele><time>2026-04-26T14:23:42.903Z</time></trkpt><trkpt lat="44.6352573" lon="12.1035803"><ele>-1.5</ele><time>2026-04-26T14:23:43.904Z</time></trkpt><trkpt lat="44.6351181" lon="12.1035019"><ele>-1.25</ele><time>2026-04-26T14:23:44.904Z</time></trkpt><trkpt lat="44.6349981" lon="12.1034256"><ele>-1.0</ele><time>2026-04-26T14:23:45.904Z</time></trkpt><trkpt lat="44.6348862" lon="12.1033625"><ele>-1.0</ele><time>2026-04-26T14:23:46.903Z</time></trkpt><trkpt lat="44.6347787" lon="12.1033077"><ele>-1.0</ele><time>2026-04-26T14:23:47.904Z</time></trkpt><trkpt lat="44.6346797" lon="12.1032602"><ele>-1.0</ele><time>2026-04-26T14:23:48.903Z</time></trkpt><trkpt lat="44.6345654" lon="12.1032083"><ele>-1.0</ele><time>2026-04-26T14:23:49.903Z</time></trkpt><trkpt lat="44.6344469" lon="12.103142"><ele>-1.0</ele><time>2026-04-26T14:23:50.903Z</time></trkpt><trkpt lat="44.6343179" lon="12.1030691"><ele>-1.0</ele><time>2026-04-26T14:23:51.904Z</time></trkpt><trkpt lat="44.6341738" lon="12.1030026"><ele>-1.0</ele><time>2026-04-26T14:23:52.903Z</time></trkpt><trkpt lat="44.6340196" lon="12.1029371"><ele>-1.0</ele><time>2026-04-26T14:23:53.904Z</time></trkpt><trkpt lat="44.6338486" lon="12.102874"><ele>-1.0</ele><time>2026-04-26T14:23:54.903Z</time></trkpt><trkpt lat="44.6336717" lon="12.1028159"><ele>-1.0</ele><time>2026-04-26T14:23:55.904Z</time></trkpt><trkpt lat="44.6334809" lon="12.1027639"><ele>-1.0</ele><time>2026-04-26T14:23:56.903Z</time></trkpt><trkpt lat="44.6332805" lon="12.1027157"><ele>-1.0</ele><time>2026-04-26T14:23:57.904Z</time></trkpt><trkpt lat="44.63307" lon="12.1026726"><ele>-1.0</ele><time>2026-04-26T14:23:58.903Z</time></trkpt><trkpt lat="44.6328538" lon="12.1026249"><ele>-1.5</ele><time>2026-04-26T14:23:59.904Z</time></trkpt><trkpt lat="44.6326302" lon="12.1025796"><ele>-2.0</ele><time>2026-04-26T14:24:00.904Z</time></trkpt><trkpt lat="44.632403" lon="12.1025338"><ele>-2.0</ele><time>2026-04-26T14:24:01.903Z</time></trkpt><trkpt lat="44.6321695" lon="12.1024866"><ele>-2.0</ele><time>2026-04-26T14:24:02.904Z</time></trkpt><trkpt lat="44.6319336" lon="12.1024388"><ele>-2.0</ele><time>2026-04-26T14:24:03.904Z</time></trkpt><trkpt lat="44.6316928" lon="12.1023837"><ele>-2.0</ele><time>2026-04-26T14:24:04.903Z</time></trkpt><trkpt lat="44.6314521" lon="12.1023313"><ele>-2.0</ele><time>2026-04-26T14:24:05.904Z</time></trkpt><trkpt lat="44.6312048" lon="12.1022781"><ele>-2.0</ele><time>2026-04-26T14:24:06.903Z</time></trkpt><trkpt lat="44.630956" lon="12.1022277"><ele>-2.0</ele><time>2026-04-26T14:24:07.904Z</time></trkpt><trkpt lat="44.6307054" lon="12.1021776"><ele>-2.0</ele><time>2026-04-26T14:24:08.904Z</time></trkpt><trkpt lat="44.6304553" lon="12.102121"><ele>-2.5</ele><time>2026-04-26T14:24:09.904Z</time></trkpt><trkpt lat="44.6302068" lon="12.1020674"><ele>-3.0</ele><time>2026-04-26T14:24:10.904Z</time></trkpt><trkpt lat="44.6299523" lon="12.1020134"><ele>-3.0</ele><time>2026-04-26T14:24:11.904Z</time></trkpt><trkpt lat="44.6297" lon="12.1019617"><ele>-3.0</ele><time>2026-04-26T14:24:12.904Z</time></trkpt><trkpt lat="44.6294474" lon="12.1019063"><ele>-1.5</ele><time>2026-04-26T14:24:13.903Z</time></trkpt><trkpt lat="44.6291951" lon="12.1018606"><ele>0.0</ele><time>2026-04-26T14:24:14.903Z</time></trkpt><trkpt lat="44.628941" lon="12.1018053"><ele>0.0</ele><time>2026-04-26T14:24:15.903Z</time></trkpt><trkpt lat="44.6286843" lon="12.1017481"><ele>0.0</ele><time>2026-04-26T14:24:16.904Z</time></trkpt><trkpt lat="44.6284333" lon="12.1016927"><ele>-0.5</ele><time>2026-04-26T14:24:17.903Z</time></trkpt><trkpt lat="44.6281756" lon="12.1016385"><ele>-1.0</ele><time>2026-04-26T14:24:18.903Z</time></trkpt><trkpt lat="44.6279221" lon="12.1015846"><ele>-1.5</ele><time>2026-04-26T14:24:19.904Z</time></trkpt><trkpt lat="44.6276657" lon="12.1015283"><ele>-2.0</ele><time>2026-04-26T14:24:20.903Z</time></trkpt><trkpt lat="44.627411" lon="12.1014773"><ele>-2.0</ele><time>2026-04-26T14:24:21.903Z</time></trkpt><trkpt lat="44.6271546" lon="12.1014245"><ele>-2.0</ele><time>2026-04-26T14:24:22.903Z</time></trkpt><trkpt lat="44.6269057" lon="12.1013694"><ele>-2.5</ele><time>2026-04-26T14:24:23.904Z</time></trkpt><trkpt lat="44.6266569" lon="12.1013146"><ele>-3.0</ele><time>2026-04-26T14:24:24.904Z</time></trkpt><trkpt lat="44.626417" lon="12.1012636"><ele>-3.0</ele><time>2026-04-26T14:24:25.903Z</time></trkpt><trkpt lat="44.6261877" lon="12.1012125"><ele>-3.0</ele><time>2026-04-26T14:24:26.904Z</time></trkpt><trkpt lat="44.6259617" lon="12.1011744"><ele>-2.5</ele><time>2026-04-26T14:24:27.904Z</time></trkpt><trkpt lat="44.6257399" lon="12.1011384"><ele>-2.0</ele><time>2026-04-26T14:24:28.903Z</time></trkpt><trkpt lat="44.6255127" lon="12.101118"><ele>-2.0</ele><time>2026-04-26T14:24:29.903Z</time></trkpt><trkpt lat="44.6252881" lon="12.1011216"><ele>-2.0</ele><time>2026-04-26T14:24:30.904Z</time></trkpt><trkpt lat="44.6250563" lon="12.1011334"><ele>-2.0</ele><time>2026-04-26T14:24:31.903Z</time></trkpt><trkpt lat="44.6248282" lon="12.1011542"><ele>-2.0</ele><time>2026-04-26T14:24:32.904Z</time></trkpt><trkpt lat="44.6245967" lon="12.1011736"><ele>-1.0</ele><time>2026-04-26T14:24:33.904Z</time></trkpt><trkpt lat="44.624363" lon="12.1011924"><ele>0.0</ele><time>2026-04-26T14:24:34.904Z</time></trkpt><trkpt lat="44.6241329" lon="12.1012065"><ele>0.0</ele><time>2026-04-26T14:24:35.903Z</time></trkpt><trkpt lat="44.6238989" lon="12.1012224"><ele>0.0</ele><time>2026-04-26T14:24:36.903Z</time></trkpt><trkpt lat="44.6236628" lon="12.1012403"><ele>0.0</ele><time>2026-04-26T14:24:37.903Z</time></trkpt><trkpt lat="44.6234262" lon="12.1012644"><ele>0.0</ele><time>2026-04-26T14:24:38.903Z</time></trkpt><trkpt lat="44.6231869" lon="12.101284"><ele>0.0</ele><time>2026-04-26T14:24:39.904Z</time></trkpt><trkpt lat="44.6229485" lon="12.1013013"><ele>0.0</ele><time>2026-04-26T14:24:40.904Z</time></trkpt><trkpt lat="44.6227164" lon="12.101312"><ele>0.0</ele><time>2026-04-26T14:24:41.904Z</time></trkpt><trkpt lat="44.622495" lon="12.1013021"><ele>0.0</ele><time>2026-04-26T14:24:42.904Z</time></trkpt><trkpt lat="44.6222722" lon="12.1012672"><ele>0.0</ele><time>2026-04-26T14:24:43.903Z</time></trkpt><trkpt lat="44.6220529" lon="12.1012057"><ele>-0.3333333333333333</ele><time>2026-04-26T14:24:44.904Z</time></trkpt><trkpt lat="44.6218443" lon="12.1011205"><ele>-0.6666666666666666</ele><time>2026-04-26T14:24:45.903Z</time></trkpt><trkpt lat="44.6216354" lon="12.1010145"><ele>-1.0</ele><time>2026-04-26T14:24:46.904Z</time></trkpt><trkpt lat="44.6214364" lon="12.1008874"><ele>-1.3333333333333333</ele><time>2026-04-26T14:24:47.904Z</time></trkpt><trkpt lat="44.621239" lon="12.1007446"><ele>-1.6666666666666665</ele><time>2026-04-26T14:24:48.903Z</time></trkpt><trkpt lat="44.6210512" lon="12.1005765"><ele>-2.0</ele><time>2026-04-26T14:24:49.904Z</time></trkpt><trkpt lat="44.6208679" lon="12.1003883"><ele>-2.0</ele><time>2026-04-26T14:24:50.903Z</time></trkpt><trkpt lat="44.6206938" lon="12.1001782"><ele>-2.0</ele><time>2026-04-26T14:24:51.904Z</time></trkpt><trkpt lat="44.6205274" lon="12.0999617"><ele>-2.0</ele><time>2026-04-26T14:24:52.904Z</time></trkpt><trkpt lat="44.6203627" lon="12.0997293"><ele>-2.0</ele><time>2026-04-26T14:24:53.904Z</time></trkpt><trkpt lat="44.6201989" lon="12.0994992"><ele>-2.0</ele><time>2026-04-26T14:24:54.904Z</time></trkpt><trkpt lat="44.620033" lon="12.099268"><ele>-2.0</ele><time>2026-04-26T14:24:55.903Z</time></trkpt><trkpt lat="44.6198614" lon="12.099039"><ele>-2.5</ele><time>2026-04-26T14:24:56.904Z</time></trkpt><trkpt lat="44.6196865" lon="12.098823"><ele>-3.0</ele><time>2026-04-26T14:24:57.903Z</time></trkpt><trkpt lat="44.6194978" lon="12.0986276"><ele>-2.5</ele><time>2026-04-26T14:24:58.903Z</time></trkpt><trkpt lat="44.6192977" lon="12.0984506"><ele>-2.0</ele><time>2026-04-26T14:24:59.903Z</time></trkpt><trkpt lat="44.6190865" lon="12.0982966"><ele>-2.5</ele><time>2026-04-26T14:25:00.903Z</time></trkpt><trkpt lat="44.618869" lon="12.0981612"><ele>-3.0</ele><time>2026-04-26T14:25:01.903Z</time></trkpt><trkpt lat="44.618646" lon="12.0980463"><ele>-1.5</ele><time>2026-04-26T14:25:02.903Z</time></trkpt><trkpt lat="44.6184182" lon="12.0979629"><ele>0.0</ele><time>2026-04-26T14:25:03.903Z</time></trkpt><trkpt lat="44.6181871" lon="12.0978993"><ele>0.0</ele><time>2026-04-26T14:25:04.904Z</time></trkpt><trkpt lat="44.6179486" lon="12.0978589"><ele>0.0</ele><time>2026-04-26T14:25:05.904Z</time></trkpt><trkpt lat="44.6177099" lon="12.0978396"><ele>-1.0</ele><time>2026-04-26T14:25:06.903Z</time></trkpt><trkpt lat="44.6174727" lon="12.0978451"><ele>-2.0</ele><time>2026-04-26T14:25:07.903Z</time></trkpt><trkpt lat="44.6172297" lon="12.0978547"><ele>-2.0</ele><time>2026-04-26T14:25:08.903Z</time></trkpt><trkpt lat="44.6169889" lon="12.0978766"><ele>-2.0</ele><time>2026-04-26T14:25:09.903Z</time></trkpt><trkpt lat="44.6167481" lon="12.0979059"><ele>-2.0</ele><time>2026-04-26T14:25:10.903Z</time></trkpt><trkpt lat="44.6165196" lon="12.0979234"><ele>-2.0</ele><time>2026-04-26T14:25:11.903Z</time></trkpt><trkpt lat="44.6162789" lon="12.0979254"><ele>-1.5</ele><time>2026-04-26T14:25:12.904Z</time></trkpt><trkpt lat="44.6160492" lon="12.0979341"><ele>-1.0</ele><time>2026-04-26T14:25:13.903Z</time></trkpt><trkpt lat="44.6158171" lon="12.0979467"><ele>-1.0</ele><time>2026-04-26T14:25:14.904Z</time></trkpt><trkpt lat="44.6155864" lon="12.0979598"><ele>-1.0</ele><time>2026-04-26T14:25:15.904Z</time></trkpt><trkpt lat="44.6153589" lon="12.0979758"><ele>-2.0</ele><time>2026-04-26T14:25:16.904Z</time></trkpt><trkpt lat="44.6151308" lon="12.0979888"><ele>-3.0</ele><time>2026-04-26T14:25:17.903Z</time></trkpt><trkpt lat="44.6149021" lon="12.0979991"><ele>-3.0</ele><time>2026-04-26T14:25:18.903Z</time></trkpt><trkpt lat="44.6146728" lon="12.0980115"><ele>-3.0</ele><time>2026-04-26T14:25:19.904Z</time></trkpt><trkpt lat="44.6144433" lon="12.0980205"><ele>-2.0</ele><time>2026-04-26T14:25:20.903Z</time></trkpt><trkpt lat="44.6142199" lon="12.0980299"><ele>-1.0</ele><time>2026-04-26T14:25:21.904Z</time></trkpt><trkpt lat="44.613992" lon="12.0980409"><ele>-1.0</ele><time>2026-04-26T14:25:22.903Z</time></trkpt><trkpt lat="44.6137646" lon="12.0980502"><ele>-1.0</ele><time>2026-04-26T14:25:23.904Z</time></trkpt><trkpt lat="44.6135376" lon="12.0980594"><ele>-0.5</ele><time>2026-04-26T14:25:24.903Z</time></trkpt><trkpt lat="44.6133099" lon="12.0980698"><ele>0.0</ele><time>2026-04-26T14:25:25.903Z</time></trkpt><trkpt lat="44.6130788" lon="12.0980808"><ele>0.0</ele><time>2026-04-26T14:25:26.903Z</time></trkpt><trkpt lat="44.612847" lon="12.0980952"><ele>0.0</ele><time>2026-04-26T14:25:27.903Z</time></trkpt><trkpt lat="44.6126173" lon="12.0981061"><ele>-0.5</ele><time>2026-04-26T14:25:28.903Z</time></trkpt><trkpt lat="44.6123848" lon="12.0981233"><ele>-1.0</ele><time>2026-04-26T14:25:29.903Z</time></trkpt><trkpt lat="44.6121513" lon="12.0981365"><ele>-1.5</ele><time>2026-04-26T14:25:30.903Z</time></trkpt><trkpt lat="44.6119192" lon="12.0981485"><ele>-2.0</ele><time>2026-04-26T14:25:31.904Z</time></trkpt><trkpt lat="44.6116863" lon="12.098163"><ele>-2.0</ele><time>2026-04-26T14:25:32.903Z</time></trkpt><trkpt lat="44.6114526" lon="12.0981773"><ele>-2.0</ele><time>2026-04-26T14:25:33.904Z</time></trkpt><trkpt lat="44.6112197" lon="12.0981896"><ele>-2.0</ele><time>2026-04-26T14:25:34.903Z</time></trkpt><trkpt lat="44.6109857" lon="12.0982016"><ele>-2.0</ele><time>2026-04-26T14:25:35.904Z</time></trkpt><trkpt lat="44.6107514" lon="12.0982161"><ele>-2.0</ele><time>2026-04-26T14:25:36.904Z</time></trkpt><trkpt lat="44.610518" lon="12.098228"><ele>-2.0</ele><time>2026-04-26T14:25:37.904Z</time></trkpt><trkpt lat="44.6102866" lon="12.0982406"><ele>-1.5</ele><time>2026-04-26T14:25:38.904Z</time></trkpt><trkpt lat="44.6100532" lon="12.0982519"><ele>-1.0</ele><time>2026-04-26T14:25:39.903Z</time></trkpt><trkpt lat="44.6098199" lon="12.0982666"><ele>-1.0</ele><time>2026-04-26T14:25:40.904Z</time></trkpt><trkpt lat="44.6095849" lon="12.0982794"><ele>-1.0</ele><time>2026-04-26T14:25:41.904Z</time></trkpt><trkpt lat="44.609352" lon="12.0982918"><ele>-1.5</ele><time>2026-04-26T14:25:42.903Z</time></trkpt><trkpt lat="44.6091161" lon="12.0983052"><ele>-2.0</ele><time>2026-04-26T14:25:43.904Z</time></trkpt><trkpt lat="44.6088833" lon="12.0983176"><ele>-2.5</ele><time>2026-04-26T14:25:44.904Z</time></trkpt><trkpt lat="44.6086522" lon="12.098331"><ele>-3.0</ele><time>2026-04-26T14:25:45.904Z</time></trkpt><trkpt lat="44.6084176" lon="12.0983482"><ele>-3.0</ele><time>2026-04-26T14:25:46.904Z</time></trkpt><trkpt lat="44.6081836" lon="12.0983666"><ele>-3.0</ele><time>2026-04-26T14:25:47.903Z</time></trkpt><trkpt lat="44.6079485" lon="12.0983812"><ele>-2.5</ele><time>2026-04-26T14:25:48.903Z</time></trkpt><trkpt lat="44.607715" lon="12.0983921"><ele>-2.0</ele><time>2026-04-26T14:25:49.904Z</time></trkpt><trkpt lat="44.6074808" lon="12.0984039"><ele>-2.0</ele><time>2026-04-26T14:25:50.903Z</time></trkpt><trkpt lat="44.6072469" lon="12.0984134"><ele>-2.0</ele><time>2026-04-26T14:25:51.903Z</time></trkpt><trkpt lat="44.6070119" lon="12.0984253"><ele>-1.0</ele><time>2026-04-26T14:25:52.903Z</time></trkpt><trkpt lat="44.6067814" lon="12.0984344"><ele>0.0</ele><time>2026-04-26T14:25:53.903Z</time></trkpt><trkpt lat="44.6065509" lon="12.0984503"><ele>0.0</ele><time>2026-04-26T14:25:54.903Z</time></trkpt><trkpt lat="44.606323" lon="12.0984636"><ele>0.0</ele><time>2026-04-26T14:25:55.903Z</time></trkpt><trkpt lat="44.6060945" lon="12.0984751"><ele>-0.5</ele><time>2026-04-26T14:25:56.903Z</time></trkpt><trkpt lat="44.605867" lon="12.098487"><ele>-1.0</ele><time>2026-04-26T14:25:57.903Z</time></trkpt><trkpt lat="44.6056402" lon="12.0985007"><ele>-1.0</ele><time>2026-04-26T14:25:58.904Z</time></trkpt><trkpt lat="44.6054118" lon="12.0985145"><ele>-1.0</ele><time>2026-04-26T14:25:59.903Z</time></trkpt><trkpt lat="44.6051843" lon="12.0985269"><ele>-0.5</ele><time>2026-04-26T14:26:00.903Z</time></trkpt><trkpt lat="44.6049546" lon="12.0985399"><ele>0.0</ele><time>2026-04-26T14:26:01.904Z</time></trkpt><trkpt lat="44.6047287" lon="12.0985561"><ele>0.0</ele><time>2026-04-26T14:26:02.904Z</time></trkpt><trkpt lat="44.6044991" lon="12.0985776"><ele>0.0</ele><time>2026-04-26T14:26:03.904Z</time></trkpt><trkpt lat="44.6042697" lon="12.098597"><ele>0.0</ele><time>2026-04-26T14:26:04.903Z</time></trkpt><trkpt lat="44.6040393" lon="12.0986231"><ele>0.0</ele><time>2026-04-26T14:26:05.904Z</time></trkpt><trkpt lat="44.6038078" lon="12.0986535"><ele>0.0</ele><time>2026-04-26T14:26:06.904Z</time></trkpt><trkpt lat="44.6035765" lon="12.0986819"><ele>0.0</ele><time>2026-04-26T14:26:07.903Z</time></trkpt><trkpt lat="44.6033432" lon="12.0987134"><ele>0.0</ele><time>2026-04-26T14:26:08.903Z</time></trkpt><trkpt lat="44.6031117" lon="12.0987439"><ele>0.0</ele><time>2026-04-26T14:26:09.903Z</time></trkpt><trkpt lat="44.6028758" lon="12.0987755"><ele>-1.0</ele><time>2026-04-26T14:26:10.904Z</time></trkpt><trkpt lat="44.6026433" lon="12.0988055"><ele>-2.0</ele><time>2026-04-26T14:26:11.903Z</time></trkpt><trkpt lat="44.6024066" lon="12.0988306"><ele>-2.0</ele><time>2026-04-26T14:26:12.903Z</time></trkpt><trkpt lat="44.6021718" lon="12.0988594"><ele>-2.0</ele><time>2026-04-26T14:26:13.904Z</time></trkpt><trkpt lat="44.6019389" lon="12.0988859"><ele>-1.0</ele><time>2026-04-26T14:26:14.903Z</time></trkpt><trkpt lat="44.6017043" lon="12.0989158"><ele>0.0</ele><time>2026-04-26T14:26:15.904Z</time></trkpt><trkpt lat="44.6014651" lon="12.0989462"><ele>0.0</ele><time>2026-04-26T14:26:16.904Z</time></trkpt><trkpt lat="44.6012336" lon="12.098982"><ele>0.0</ele><time>2026-04-26T14:26:17.904Z</time></trkpt><trkpt lat="44.6010036" lon="12.0990215"><ele>-0.5</ele><time>2026-04-26T14:26:18.904Z</time></trkpt><trkpt lat="44.6007674" lon="12.0990686"><ele>-1.0</ele><time>2026-04-26T14:26:19.904Z</time></trkpt><trkpt lat="44.6005342" lon="12.0991235"><ele>-1.0</ele><time>2026-04-26T14:26:20.903Z</time></trkpt><trkpt lat="44.6002996" lon="12.0991889"><ele>-1.0</ele><time>2026-04-26T14:26:21.904Z</time></trkpt><trkpt lat="44.6000645" lon="12.0992581"><ele>-1.0</ele><time>2026-04-26T14:26:22.904Z</time></trkpt><trkpt lat="44.5998348" lon="12.0993299"><ele>-1.0</ele><time>2026-04-26T14:26:23.903Z</time></trkpt><trkpt lat="44.5996012" lon="12.0994075"><ele>-2.0</ele><time>2026-04-26T14:26:24.903Z</time></trkpt><trkpt lat="44.5993656" lon="12.0994824"><ele>-3.0</ele><time>2026-04-26T14:26:25.904Z</time></trkpt><trkpt lat="44.5991272" lon="12.0995617"><ele>-3.0</ele><time>2026-04-26T14:26:26.904Z</time></trkpt><trkpt lat="44.5988888" lon="12.0996422"><ele>-3.0</ele><time>2026-04-26T14:26:27.904Z</time></trkpt><trkpt lat="44.5986533" lon="12.0997228"><ele>-3.0</ele><time>2026-04-26T14:26:28.903Z</time></trkpt><trkpt lat="44.5984126" lon="12.0998029"><ele>-3.0</ele><time>2026-04-26T14:26:29.904Z</time></trkpt><trkpt lat="44.5981723" lon="12.0998737"><ele>-2.0</ele><time>2026-04-26T14:26:30.903Z</time></trkpt><trkpt lat="44.5979285" lon="12.0999401"><ele>-1.0</ele><time>2026-04-26T14:26:31.903Z</time></trkpt><trkpt lat="44.5976826" lon="12.0999956"><ele>-1.0</ele><time>2026-04-26T14:26:32.903Z</time></trkpt><trkpt lat="44.5974373" lon="12.1000283"><ele>-1.0</ele><time>2026-04-26T14:26:33.904Z</time></trkpt><trkpt lat="44.59719" lon="12.1000541"><ele>-1.0</ele><time>2026-04-26T14:26:34.904Z</time></trkpt><trkpt lat="44.5969439" lon="12.1000798"><ele>-1.0</ele><time>2026-04-26T14:26:35.903Z</time></trkpt><trkpt lat="44.5967006" lon="12.1001082"><ele>-1.0</ele><time>2026-04-26T14:26:36.904Z</time></trkpt><trkpt lat="44.5964535" lon="12.1001337"><ele>-1.0</ele><time>2026-04-26T14:26:37.903Z</time></trkpt><trkpt lat="44.5962111" lon="12.1001621"><ele>-1.5</ele><time>2026-04-26T14:26:38.903Z</time></trkpt><trkpt lat="44.5959677" lon="12.1001935"><ele>-2.0</ele><time>2026-04-26T14:26:39.904Z</time></trkpt><trkpt lat="44.5957311" lon="12.1002267"><ele>-2.0</ele><time>2026-04-26T14:26:40.904Z</time></trkpt><trkpt lat="44.5954874" lon="12.1002563"><ele>-2.0</ele><time>2026-04-26T14:26:41.904Z</time></trkpt><trkpt lat="44.5952505" lon="12.1002839"><ele>-2.0</ele><time>2026-04-26T14:26:42.904Z</time></trkpt><trkpt lat="44.5950129" lon="12.1003108"><ele>-2.0</ele><time>2026-04-26T14:26:43.903Z</time></trkpt><trkpt lat="44.5947733" lon="12.1003439"><ele>-2.0</ele><time>2026-04-26T14:26:44.903Z</time></trkpt><trkpt lat="44.5945341" lon="12.1003821"><ele>-2.0</ele><time>2026-04-26T14:26:45.903Z</time></trkpt><trkpt lat="44.5942981" lon="12.1004135"><ele>-1.5</ele><time>2026-04-26T14:26:46.904Z</time></trkpt><trkpt lat="44.5940556" lon="12.1004457"><ele>-1.0</ele><time>2026-04-26T14:26:47.903Z</time></trkpt><trkpt lat="44.5938155" lon="12.1004701"><ele>-1.5</ele><time>2026-04-26T14:26:48.904Z</time></trkpt><trkpt lat="44.5935765" lon="12.1005021"><ele>-2.0</ele><time>2026-04-26T14:26:49.904Z</time></trkpt><trkpt lat="44.5933365" lon="12.1005352"><ele>-2.0</ele><time>2026-04-26T14:26:50.904Z</time></trkpt><trkpt lat="44.5931004" lon="12.1005671"><ele>-2.0</ele><time>2026-04-26T14:26:51.904Z</time></trkpt><trkpt lat="44.5928616" lon="12.1005958"><ele>-1.5</ele><time>2026-04-26T14:26:52.904Z</time></trkpt><trkpt lat="44.5926246" lon="12.1006231"><ele>-1.0</ele><time>2026-04-26T14:26:53.903Z</time></trkpt><trkpt lat="44.5923881" lon="12.100653"><ele>-1.0</ele><time>2026-04-26T14:26:54.903Z</time></trkpt><trkpt lat="44.5921511" lon="12.100683"><ele>-1.0</ele><time>2026-04-26T14:26:55.903Z</time></trkpt><trkpt lat="44.5919127" lon="12.1007107"><ele>-1.0</ele><time>2026-04-26T14:26:56.904Z</time></trkpt><trkpt lat="44.5916741" lon="12.1007402"><ele>-1.0</ele><time>2026-04-26T14:26:57.903Z</time></trkpt><trkpt lat="44.5914358" lon="12.1007761"><ele>0.5</ele><time>2026-04-26T14:26:58.904Z</time></trkpt><trkpt lat="44.5911997" lon="12.1008139"><ele>2.0</ele><time>2026-04-26T14:26:59.903Z</time></trkpt><trkpt lat="44.590964" lon="12.100862"><ele>2.0</ele><time>2026-04-26T14:27:00.903Z</time></trkpt><trkpt lat="44.5907313" lon="12.1009247"><ele>2.0</ele><time>2026-04-26T14:27:01.903Z</time></trkpt><trkpt lat="44.5904977" lon="12.1010041"><ele>-0.5</ele><time>2026-04-26T14:27:02.903Z</time></trkpt><trkpt lat="44.5902676" lon="12.1010983"><ele>-3.0</ele><time>2026-04-26T14:27:03.903Z</time></trkpt><trkpt lat="44.5900423" lon="12.1012055"><ele>-3.0</ele><time>2026-04-26T14:27:04.903Z</time></trkpt><trkpt lat="44.5898189" lon="12.101324"><ele>-3.0</ele><time>2026-04-26T14:27:05.903Z</time></trkpt><trkpt lat="44.5896009" lon="12.1014476"><ele>-2.0</ele><time>2026-04-26T14:27:06.903Z</time></trkpt><trkpt lat="44.5893783" lon="12.1015728"><ele>-1.0</ele><time>2026-04-26T14:27:07.903Z</time></trkpt><trkpt lat="44.5891575" lon="12.1016972"><ele>-1.0</ele><time>2026-04-26T14:27:08.904Z</time></trkpt><trkpt lat="44.5889364" lon="12.1018218"><ele>-1.0</ele><time>2026-04-26T14:27:09.903Z</time></trkpt><trkpt lat="44.588715" lon="12.1019453"><ele>-2.0</ele><time>2026-04-26T14:27:10.903Z</time></trkpt><trkpt lat="44.5884956" lon="12.1020672"><ele>-3.0</ele><time>2026-04-26T14:27:11.904Z</time></trkpt><trkpt lat="44.5882749" lon="12.1021901"><ele>-3.0</ele><time>2026-04-26T14:27:12.904Z</time></trkpt><trkpt lat="44.5880531" lon="12.1023121"><ele>-3.0</ele><time>2026-04-26T14:27:13.903Z</time></trkpt><trkpt lat="44.587831" lon="12.1024357"><ele>-3.0</ele><time>2026-04-26T14:27:14.903Z</time></trkpt><trkpt lat="44.5876065" lon="12.1025516"><ele>-3.0</ele><time>2026-04-26T14:27:15.904Z</time></trkpt><trkpt lat="44.5873828" lon="12.1026412"><ele>-3.0</ele><time>2026-04-26T14:27:16.903Z</time></trkpt><trkpt lat="44.5871615" lon="12.1027052"><ele>-3.0</ele><time>2026-04-26T14:27:17.904Z</time></trkpt><trkpt lat="44.5869388" lon="12.102748"><ele>-2.0</ele><time>2026-04-26T14:27:18.903Z</time></trkpt><trkpt lat="44.5867151" lon="12.1027673"><ele>-1.0</ele><time>2026-04-26T14:27:19.904Z</time></trkpt><trkpt lat="44.5864892" lon="12.1027738"><ele>-1.0</ele><time>2026-04-26T14:27:20.904Z</time></trkpt><trkpt lat="44.5862623" lon="12.10277"><ele>-1.0</ele><time>2026-04-26T14:27:21.903Z</time></trkpt><trkpt lat="44.5860329" lon="12.1027464"><ele>-1.0</ele><time>2026-04-26T14:27:22.904Z</time></trkpt><trkpt lat="44.5858027" lon="12.1026995"><ele>-1.0</ele><time>2026-04-26T14:27:23.904Z</time></trkpt><trkpt lat="44.585574" lon="12.1026394"><ele>-1.0</ele><time>2026-04-26T14:27:24.904Z</time></trkpt><trkpt lat="44.5853466" lon="12.1025654"><ele>-1.0</ele><time>2026-04-26T14:27:25.903Z</time></trkpt><trkpt lat="44.5851188" lon="12.1024943"><ele>-1.0</ele><time>2026-04-26T14:27:26.903Z</time></trkpt><trkpt lat="44.5848884" lon="12.1024258"><ele>-1.0</ele><time>2026-04-26T14:27:27.904Z</time></trkpt><trkpt lat="44.5846568" lon="12.1023712"><ele>-0.5</ele><time>2026-04-26T14:27:28.903Z</time></trkpt><trkpt lat="44.5844268" lon="12.10234"><ele>0.0</ele><time>2026-04-26T14:27:29.903Z</time></trkpt><trkpt lat="44.5841966" lon="12.1023281"><ele>0.0</ele><time>2026-04-26T14:27:30.903Z</time></trkpt><trkpt lat="44.5839669" lon="12.1023411"><ele>0.0</ele><time>2026-04-26T14:27:31.903Z</time></trkpt><trkpt lat="44.583739" lon="12.1023748"><ele>0.0</ele><time>2026-04-26T14:27:32.904Z</time></trkpt><trkpt lat="44.5835116" lon="12.1024209"><ele>0.0</ele><time>2026-04-26T14:27:33.904Z</time></trkpt><trkpt lat="44.5832875" lon="12.1024879"><ele>0.0</ele><time>2026-04-26T14:27:34.904Z</time></trkpt><trkpt lat="44.5830665" lon="12.1025711"><ele>0.0</ele><time>2026-04-26T14:27:35.903Z</time></trkpt><trkpt lat="44.5828487" lon="12.1026619"><ele>-1.0</ele><time>2026-04-26T14:27:36.904Z</time></trkpt><trkpt lat="44.5826273" lon="12.1027576"><ele>-2.0</ele><time>2026-04-26T14:27:37.904Z</time></trkpt><trkpt lat="44.5824075" lon="12.1028509"><ele>-2.0</ele><time>2026-04-26T14:27:38.904Z</time></trkpt><trkpt lat="44.5821878" lon="12.1029443"><ele>-2.0</ele><time>2026-04-26T14:27:39.903Z</time></trkpt><trkpt lat="44.5819711" lon="12.1030395"><ele>-1.6666666666666665</ele><time>2026-04-26T14:27:40.903Z</time></trkpt><trkpt lat="44.5817686" lon="12.1031288"><ele>-1.3333333333333333</ele><time>2026-04-26T14:27:41.904Z</time></trkpt><trkpt lat="44.5815756" lon="12.1032108"><ele>-1.0</ele><time>2026-04-26T14:27:42.903Z</time></trkpt><trkpt lat="44.5813894" lon="12.103294"><ele>-1.3333333333333333</ele><time>2026-04-26T14:27:43.903Z</time></trkpt><trkpt lat="44.581215" lon="12.1033698"><ele>-1.6666666666666665</ele><time>2026-04-26T14:27:44.903Z</time></trkpt><trkpt lat="44.5810537" lon="12.1034373"><ele>-2.0</ele><time>2026-04-26T14:27:45.904Z</time></trkpt><trkpt lat="44.5809003" lon="12.1035043"><ele>-2.0</ele><time>2026-04-26T14:27:46.903Z</time></trkpt><trkpt lat="44.5807554" lon="12.1035757"><ele>-2.0</ele><time>2026-04-26T14:27:47.903Z</time></trkpt><trkpt lat="44.5806016" lon="12.1036509"><ele>-2.0</ele><time>2026-04-26T14:27:48.903Z</time></trkpt><trkpt lat="44.5804434" lon="12.1037138"><ele>-2.0</ele><time>2026-04-26T14:27:49.903Z</time></trkpt><trkpt lat="44.580285" lon="12.1037786"><ele>-2.0</ele><time>2026-04-26T14:27:50.903Z</time></trkpt><trkpt lat="44.5801237" lon="12.1038432"><ele>-2.0</ele><time>2026-04-26T14:27:51.903Z</time></trkpt><trkpt lat="44.5799641" lon="12.1039135"><ele>-2.0</ele><time>2026-04-26T14:27:52.903Z</time></trkpt><trkpt lat="44.579808" lon="12.1039823"><ele>-2.0</ele><time>2026-04-26T14:27:53.903Z</time></trkpt><trkpt lat="44.5796595" lon="12.1040559"><ele>-2.0</ele><time>2026-04-26T14:27:54.904Z</time></trkpt><trkpt lat="44.5795156" lon="12.1041154"><ele>-2.0</ele><time>2026-04-26T14:27:55.904Z</time></trkpt><trkpt lat="44.5793726" lon="12.1041767"><ele>-2.0</ele><time>2026-04-26T14:27:56.904Z</time></trkpt><trkpt lat="44.579234" lon="12.1042319"><ele>-2.0</ele><time>2026-04-26T14:27:57.903Z</time></trkpt><trkpt lat="44.579091" lon="12.1042872"><ele>-2.0</ele><time>2026-04-26T14:27:58.903Z</time></trkpt><trkpt lat="44.5789506" lon="12.1043331"><ele>-2.0</ele><time>2026-04-26T14:27:59.904Z</time></trkpt><trkpt lat="44.5788157" lon="12.1043641"><ele>-2.0</ele><time>2026-04-26T14:28:00.903Z</time></trkpt><trkpt lat="44.5786803" lon="12.1043934"><ele>-2.0</ele><time>2026-04-26T14:28:01.904Z</time></trkpt><trkpt lat="44.5785555" lon="12.1044219"><ele>-2.0</ele><time>2026-04-26T14:28:02.904Z</time></trkpt><trkpt lat="44.5784385" lon="12.1044372"><ele>-2.6</ele><time>2026-04-26T14:28:03.903Z</time></trkpt><trkpt lat="44.5783354" lon="12.1044585"><ele>-3.2</ele><time>2026-04-26T14:28:04.904Z</time></trkpt><trkpt lat="44.5782346" lon="12.1044778"><ele>-3.8</ele><time>2026-04-26T14:28:05.903Z</time></trkpt><trkpt lat="44.5781461" lon="12.104497"><ele>-4.4</ele><time>2026-04-26T14:28:06.904Z</time></trkpt><trkpt lat="44.5780709" lon="12.1045142"><ele>-5.0</ele><time>2026-04-26T14:28:07.904Z</time></trkpt><trkpt lat="44.5779653" lon="12.1045528"><ele>-5.0</ele><time>2026-04-26T14:28:09.903Z</time></trkpt><trkpt lat="44.5779324" lon="12.1046597"><ele>-5.0</ele><time>2026-04-26T14:28:12.904Z</time></trkpt><trkpt lat="44.5779324" lon="12.1046597"><ele>-5.0</ele><time>2026-04-26T14:28:12.904Z</time></trkpt><trkpt lat="44.5779324" lon="12.1046597"><ele>-5.0</ele><time>2026-04-26T14:28:12.904Z</time></trkpt><trkpt lat="44.5779324" lon="12.1046597"><ele>-5.0</ele><time>2026-04-26T14:28:12.904Z</time></trkpt></trkseg><trkseg><trkpt lat="44.5779791" lon="12.1045631"><ele>-5.0</ele><time>2026-04-26T14:40:51.879Z</time></trkpt><trkpt lat="44.5780814" lon="12.1045197"><ele>-5.0</ele><time>2026-04-26T14:40:53.879Z</time></trkpt><trkpt lat="44.5781577" lon="12.104501"><ele>-5.0</ele><time>2026-04-26T14:40:54.878Z</time></trkpt><trkpt lat="44.5782483" lon="12.1044852"><ele>-5.0</ele><time>2026-04-26T14:40:55.878Z</time></trkpt><trkpt lat="44.5783486" lon="12.104475"><ele>-5.0</ele><time>2026-04-26T14:40:56.878Z</time></trkpt><trkpt lat="44.5784514" lon="12.1044558"><ele>-5.0</ele><time>2026-04-26T14:40:57.879Z</time></trkpt><trkpt lat="44.5785595" lon="12.1044306"><ele>-5.0</ele><time>2026-04-26T14:40:58.878Z</time></trkpt><trkpt lat="44.5786723" lon="12.104404"><ele>-5.0</ele><time>2026-04-26T14:40:59.878Z</time></trkpt><trkpt lat="44.5788009" lon="12.1043726"><ele>-5.0</ele><time>2026-04-26T14:41:00.878Z</time></trkpt><trkpt lat="44.5789349" lon="12.1043403"><ele>-4.25</ele><time>2026-04-26T14:41:01.879Z</time></trkpt><trkpt lat="44.5790809" lon="12.1042988"><ele>-3.5</ele><time>2026-04-26T14:41:02.879Z</time></trkpt><trkpt lat="44.5792254" lon="12.1042547"><ele>-2.75</ele><time>2026-04-26T14:41:03.879Z</time></trkpt><trkpt lat="44.579372" lon="12.1041996"><ele>-2.0</ele><time>2026-04-26T14:41:04.878Z</time></trkpt><trkpt lat="44.5795189" lon="12.1041334"><ele>-2.0</ele><time>2026-04-26T14:41:05.878Z</time></trkpt><trkpt lat="44.5796752" lon="12.1040614"><ele>-2.0</ele><time>2026-04-26T14:41:06.879Z</time></trkpt><trkpt lat="44.5798382" lon="12.1039881"><ele>-2.0</ele><time>2026-04-26T14:41:07.878Z</time></trkpt><trkpt lat="44.5800054" lon="12.1039228"><ele>-2.0</ele><time>2026-04-26T14:41:08.878Z</time></trkpt><trkpt lat="44.5801702" lon="12.1038531"><ele>-2.0</ele><time>2026-04-26T14:41:09.878Z</time></trkpt><trkpt lat="44.5803316" lon="12.1037789"><ele>-2.0</ele><time>2026-04-26T14:41:10.879Z</time></trkpt><trkpt lat="44.5805017" lon="12.1037013"><ele>-2.0</ele><time>2026-04-26T14:41:11.879Z</time></trkpt><trkpt lat="44.580675" lon="12.1036308"><ele>-2.0</ele><time>2026-04-26T14:41:12.878Z</time></trkpt><trkpt lat="44.580853" lon="12.1035518"><ele>-2.0</ele><time>2026-04-26T14:41:13.878Z</time></trkpt><trkpt lat="44.5810305" lon="12.1034768"><ele>-1.6666666666666665</ele><time>2026-04-26T14:41:14.878Z</time></trkpt><trkpt lat="44.5812105" lon="12.1033979"><ele>-1.3333333333333333</ele><time>2026-04-26T14:41:15.878Z</time></trkpt><trkpt lat="44.5813923" lon="12.1033174"><ele>-1.0</ele><time>2026-04-26T14:41:16.878Z</time></trkpt><trkpt lat="44.581579" lon="12.1032388"><ele>-1.0</ele><time>2026-04-26T14:41:17.878Z</time></trkpt><trkpt lat="44.5817668" lon="12.1031617"><ele>-1.0</ele><time>2026-04-26T14:41:18.879Z</time></trkpt><trkpt lat="44.5819521" lon="12.103085"><ele>-1.0</ele><time>2026-04-26T14:41:19.878Z</time></trkpt><trkpt lat="44.5821333" lon="12.1030124"><ele>-1.3333333333333333</ele><time>2026-04-26T14:41:20.879Z</time></trkpt><trkpt lat="44.5823079" lon="12.1029324"><ele>-1.6666666666666665</ele><time>2026-04-26T14:41:21.878Z</time></trkpt><trkpt lat="44.582488" lon="12.1028558"><ele>-2.0</ele><time>2026-04-26T14:41:22.878Z</time></trkpt><trkpt lat="44.5826714" lon="12.1027772"><ele>-1.3333333333333333</ele><time>2026-04-26T14:41:23.879Z</time></trkpt><trkpt lat="44.5828517" lon="12.1027014"><ele>-0.6666666666666666</ele><time>2026-04-26T14:41:24.879Z</time></trkpt><trkpt lat="44.583033" lon="12.102628"><ele>0.0</ele><time>2026-04-26T14:41:25.878Z</time></trkpt><trkpt lat="44.5832187" lon="12.1025543"><ele>0.0</ele><time>2026-04-26T14:41:26.878Z</time></trkpt><trkpt lat="44.5833973" lon="12.1024914"><ele>0.0</ele><time>2026-04-26T14:41:27.878Z</time></trkpt><trkpt lat="44.5835838" lon="12.1024365"><ele>0.0</ele><time>2026-04-26T14:41:28.878Z</time></trkpt><trkpt lat="44.5837745" lon="12.102404"><ele>0.0</ele><time>2026-04-26T14:41:29.878Z</time></trkpt><trkpt lat="44.5839657" lon="12.1023805"><ele>0.0</ele><time>2026-04-26T14:41:30.878Z</time></trkpt><trkpt lat="44.5841577" lon="12.1023654"><ele>0.0</ele><time>2026-04-26T14:41:31.878Z</time></trkpt><trkpt lat="44.5843504" lon="12.1023686"><ele>-0.3333333333333333</ele><time>2026-04-26T14:41:32.878Z</time></trkpt><trkpt lat="44.5845446" lon="12.1023889"><ele>-0.6666666666666666</ele><time>2026-04-26T14:41:33.879Z</time></trkpt><trkpt lat="44.5847382" lon="12.1024173"><ele>-1.0</ele><time>2026-04-26T14:41:34.879Z</time></trkpt><trkpt lat="44.5849308" lon="12.1024618"><ele>-1.0</ele><time>2026-04-26T14:41:35.878Z</time></trkpt><trkpt lat="44.5851249" lon="12.1025166"><ele>-1.0</ele><time>2026-04-26T14:41:36.879Z</time></trkpt><trkpt lat="44.5853203" lon="12.1025806"><ele>-1.0</ele><time>2026-04-26T14:41:37.878Z</time></trkpt><trkpt lat="44.5855093" lon="12.1026413"><ele>-1.0</ele><time>2026-04-26T14:41:38.879Z</time></trkpt><trkpt lat="44.5857057" lon="12.102699"><ele>-1.0</ele><time>2026-04-26T14:41:39.878Z</time></trkpt><trkpt lat="44.5859032" lon="12.1027503"><ele>-1.0</ele><time>2026-04-26T14:41:40.878Z</time></trkpt><trkpt lat="44.5861018" lon="12.1027859"><ele>-1.0</ele><time>2026-04-26T14:41:41.878Z</time></trkpt><trkpt lat="44.5863022" lon="12.1028069"><ele>-1.0</ele><time>2026-04-26T14:41:42.879Z</time></trkpt><trkpt lat="44.5865059" lon="12.1028153"><ele>-1.0</ele><time>2026-04-26T14:41:43.878Z</time></trkpt><trkpt lat="44.5867114" lon="12.1028122"><ele>-1.0</ele><time>2026-04-26T14:41:44.879Z</time></trkpt><trkpt lat="44.5869154" lon="12.1027943"><ele>-1.0</ele><time>2026-04-26T14:41:45.879Z</time></trkpt><trkpt lat="44.587119" lon="12.102754"><ele>-1.0</ele><time>2026-04-26T14:41:46.878Z</time></trkpt><trkpt lat="44.5873199" lon="12.1026971"><ele>-1.0</ele><time>2026-04-26T14:41:47.879Z</time></trkpt><trkpt lat="44.5875196" lon="12.1026234"><ele>-1.0</ele><time>2026-04-26T14:41:48.878Z</time></trkpt><trkpt lat="44.5877201" lon="12.1025323"><ele>-1.0</ele><time>2026-04-26T14:41:49.878Z</time></trkpt><trkpt lat="44.5879193" lon="12.1024238"><ele>-1.6666666666666665</ele><time>2026-04-26T14:41:50.879Z</time></trkpt><trkpt lat="44.5881158" lon="12.1023103"><ele>-2.3333333333333335</ele><time>2026-04-26T14:41:51.878Z</time></trkpt><trkpt lat="44.5883122" lon="12.1021976"><ele>-3.0</ele><time>2026-04-26T14:41:52.878Z</time></trkpt><trkpt lat="44.5885117" lon="12.1020843"><ele>-2.3333333333333335</ele><time>2026-04-26T14:41:53.879Z</time></trkpt><trkpt lat="44.5887144" lon="12.1019697"><ele>-1.6666666666666665</ele><time>2026-04-26T14:41:54.879Z</time></trkpt><trkpt lat="44.5889185" lon="12.1018558"><ele>-1.0</ele><time>2026-04-26T14:41:55.878Z</time></trkpt><trkpt lat="44.5891218" lon="12.1017454"><ele>-1.0</ele><time>2026-04-26T14:41:56.879Z</time></trkpt><trkpt lat="44.5893277" lon="12.1016298"><ele>-1.0</ele><time>2026-04-26T14:41:57.879Z</time></trkpt><trkpt lat="44.5895331" lon="12.1015125"><ele>-1.0</ele><time>2026-04-26T14:41:58.878Z</time></trkpt><trkpt lat="44.5897397" lon="12.1013991"><ele>-1.6666666666666665</ele><time>2026-04-26T14:41:59.878Z</time></trkpt><trkpt lat="44.5899485" lon="12.1012848"><ele>-2.3333333333333335</ele><time>2026-04-26T14:42:00.878Z</time></trkpt><trkpt lat="44.5901572" lon="12.1011773"><ele>-3.0</ele><time>2026-04-26T14:42:01.879Z</time></trkpt><trkpt lat="44.5903706" lon="12.1010828"><ele>-1.3333333333333335</ele><time>2026-04-26T14:42:02.879Z</time></trkpt><trkpt lat="44.5905879" lon="12.1010019"><ele>0.33333333333333326</ele><time>2026-04-26T14:42:03.879Z</time></trkpt><trkpt lat="44.5908051" lon="12.1009348"><ele>2.0</ele><time>2026-04-26T14:42:04.878Z</time></trkpt><trkpt lat="44.5910254" lon="12.1008782"><ele>2.5</ele><time>2026-04-26T14:42:05.879Z</time></trkpt><trkpt lat="44.5912484" lon="12.1008316"><ele>3.0</ele><time>2026-04-26T14:42:06.879Z</time></trkpt><trkpt lat="44.5914713" lon="12.1007974"><ele>3.0</ele><time>2026-04-26T14:42:07.878Z</time></trkpt><trkpt lat="44.5916945" lon="12.1007708"><ele>3.0</ele><time>2026-04-26T14:42:08.878Z</time></trkpt><trkpt lat="44.5919224" lon="12.1007463"><ele>1.0</ele><time>2026-04-26T14:42:09.878Z</time></trkpt><trkpt lat="44.5921465" lon="12.1007204"><ele>-1.0</ele><time>2026-04-26T14:42:10.878Z</time></trkpt><trkpt lat="44.5923722" lon="12.100691"><ele>-1.0</ele><time>2026-04-26T14:42:11.879Z</time></trkpt><trkpt lat="44.5925976" lon="12.1006634"><ele>-1.0</ele><time>2026-04-26T14:42:12.878Z</time></trkpt><trkpt lat="44.5928245" lon="12.1006358"><ele>-1.5</ele><time>2026-04-26T14:42:13.879Z</time></trkpt><trkpt lat="44.5930501" lon="12.1006077"><ele>-2.0</ele><time>2026-04-26T14:42:14.879Z</time></trkpt><trkpt lat="44.5932786" lon="12.1005783"><ele>-2.0</ele><time>2026-04-26T14:42:15.879Z</time></trkpt><trkpt lat="44.5935064" lon="12.1005536"><ele>-2.0</ele><time>2026-04-26T14:42:16.878Z</time></trkpt><trkpt lat="44.5937318" lon="12.1005258"><ele>-1.5</ele><time>2026-04-26T14:42:17.878Z</time></trkpt><trkpt lat="44.5939625" lon="12.1005005"><ele>-1.0</ele><time>2026-04-26T14:42:18.878Z</time></trkpt><trkpt lat="44.5941933" lon="12.1004719"><ele>-1.0</ele><time>2026-04-26T14:42:19.879Z</time></trkpt><trkpt lat="44.5944221" lon="12.10044"><ele>-1.0</ele><time>2026-04-26T14:42:20.879Z</time></trkpt><trkpt lat="44.5946505" lon="12.1004147"><ele>-1.5</ele><time>2026-04-26T14:42:21.878Z</time></trkpt><trkpt lat="44.5948783" lon="12.1003844"><ele>-2.0</ele><time>2026-04-26T14:42:22.878Z</time></trkpt><trkpt lat="44.5951076" lon="12.100357"><ele>-2.0</ele><time>2026-04-26T14:42:23.879Z</time></trkpt><trkpt lat="44.5953365" lon="12.1003289"><ele>-2.0</ele><time>2026-04-26T14:42:24.878Z</time></trkpt><trkpt lat="44.5955676" lon="12.1003011"><ele>-2.0</ele><time>2026-04-26T14:42:25.878Z</time></trkpt><trkpt lat="44.595797" lon="12.1002746"><ele>-2.0</ele><time>2026-04-26T14:42:26.878Z</time></trkpt><trkpt lat="44.5960247" lon="12.1002455"><ele>-1.5</ele><time>2026-04-26T14:42:27.879Z</time></trkpt><trkpt lat="44.5962565" lon="12.1002128"><ele>-1.0</ele><time>2026-04-26T14:42:28.878Z</time></trkpt><trkpt lat="44.5964844" lon="12.1001884"><ele>-1.0</ele><time>2026-04-26T14:42:29.878Z</time></trkpt><trkpt lat="44.5967182" lon="12.1001601"><ele>-1.0</ele><time>2026-04-26T14:42:30.879Z</time></trkpt><trkpt lat="44.5969488" lon="12.100131"><ele>-1.0</ele><time>2026-04-26T14:42:31.878Z</time></trkpt><trkpt lat="44.5971795" lon="12.1001036"><ele>-1.0</ele><time>2026-04-26T14:42:32.878Z</time></trkpt><trkpt lat="44.5974093" lon="12.1000738"><ele>-1.0</ele><time>2026-04-26T14:42:33.879Z</time></trkpt><trkpt lat="44.5976376" lon="12.1000409"><ele>-1.0</ele><time>2026-04-26T14:42:34.878Z</time></trkpt><trkpt lat="44.5978653" lon="12.0999975"><ele>-1.0</ele><time>2026-04-26T14:42:35.879Z</time></trkpt><trkpt lat="44.5980934" lon="12.0999436"><ele>-1.0</ele><time>2026-04-26T14:42:36.878Z</time></trkpt><trkpt lat="44.5983213" lon="12.0998761"><ele>-2.0</ele><time>2026-04-26T14:42:37.878Z</time></trkpt><trkpt lat="44.5985439" lon="12.0998016"><ele>-3.0</ele><time>2026-04-26T14:42:38.879Z</time></trkpt><trkpt lat="44.5987638" lon="12.099727"><ele>-3.0</ele><time>2026-04-26T14:42:39.879Z</time></trkpt><trkpt lat="44.5989835" lon="12.0996609"><ele>-3.0</ele><time>2026-04-26T14:42:40.879Z</time></trkpt><trkpt lat="44.599203" lon="12.099593"><ele>-3.0</ele><time>2026-04-26T14:42:41.879Z</time></trkpt><trkpt lat="44.5994186" lon="12.0995276"><ele>-2.3333333333333335</ele><time>2026-04-26T14:42:42.878Z</time></trkpt><trkpt lat="44.5996335" lon="12.0994595"><ele>-1.6666666666666665</ele><time>2026-04-26T14:42:43.878Z</time></trkpt><trkpt lat="44.5998511" lon="12.0993864"><ele>-1.0</ele><time>2026-04-26T14:42:44.878Z</time></trkpt><trkpt lat="44.6000673" lon="12.0993173"><ele>-1.0</ele><time>2026-04-26T14:42:45.879Z</time></trkpt><trkpt lat="44.6002824" lon="12.0992407"><ele>-1.0</ele><time>2026-04-26T14:42:46.878Z</time></trkpt><trkpt lat="44.600498" lon="12.0991744"><ele>-1.0</ele><time>2026-04-26T14:42:47.878Z</time></trkpt><trkpt lat="44.6007139" lon="12.099118"><ele>-1.3333333333333333</ele><time>2026-04-26T14:42:48.879Z</time></trkpt><trkpt lat="44.6009363" lon="12.0990693"><ele>-1.6666666666666665</ele><time>2026-04-26T14:42:49.878Z</time></trkpt><trkpt lat="44.6011552" lon="12.0990368"><ele>-2.0</ele><time>2026-04-26T14:42:50.878Z</time></trkpt><trkpt lat="44.6013736" lon="12.0990157"><ele>-2.0</ele><time>2026-04-26T14:42:51.879Z</time></trkpt><trkpt lat="44.601596" lon="12.0989931"><ele>-2.0</ele><time>2026-04-26T14:42:52.878Z</time></trkpt><trkpt lat="44.6018115" lon="12.0989644"><ele>-2.0</ele><time>2026-04-26T14:42:53.878Z</time></trkpt><trkpt lat="44.6020295" lon="12.0989394"><ele>-2.0</ele><time>2026-04-26T14:42:54.879Z</time></trkpt><trkpt lat="44.6022491" lon="12.0989126"><ele>-2.0</ele><time>2026-04-26T14:42:55.878Z</time></trkpt><trkpt lat="44.6024713" lon="12.0988947"><ele>-2.0</ele><time>2026-04-26T14:42:56.878Z</time></trkpt><trkpt lat="44.6026924" lon="12.0988613"><ele>-1.3333333333333333</ele><time>2026-04-26T14:42:57.878Z</time></trkpt><trkpt lat="44.6029125" lon="12.0988341"><ele>-0.6666666666666666</ele><time>2026-04-26T14:42:58.878Z</time></trkpt><trkpt lat="44.6031305" lon="12.0988078"><ele>0.0</ele><time>2026-04-26T14:42:59.879Z</time></trkpt><trkpt lat="44.6033529" lon="12.0987789"><ele>0.0</ele><time>2026-04-26T14:43:00.879Z</time></trkpt><trkpt lat="44.6035729" lon="12.0987527"><ele>0.0</ele><time>2026-04-26T14:43:01.879Z</time></trkpt><trkpt lat="44.6037983" lon="12.0987261"><ele>0.0</ele><time>2026-04-26T14:43:02.878Z</time></trkpt><trkpt lat="44.6040193" lon="12.0986953"><ele>0.0</ele><time>2026-04-26T14:43:03.878Z</time></trkpt><trkpt lat="44.6042389" lon="12.0986721"><ele>0.0</ele><time>2026-04-26T14:43:04.879Z</time></trkpt><trkpt lat="44.604462" lon="12.098649"><ele>0.0</ele><time>2026-04-26T14:43:05.878Z</time></trkpt><trkpt lat="44.6046855" lon="12.0986252"><ele>0.0</ele><time>2026-04-26T14:43:06.879Z</time></trkpt><trkpt lat="44.6049083" lon="12.0986086"><ele>0.0</ele><time>2026-04-26T14:43:07.878Z</time></trkpt><trkpt lat="44.6051264" lon="12.0985947"><ele>0.0</ele><time>2026-04-26T14:43:08.878Z</time></trkpt><trkpt lat="44.6053472" lon="12.0985859"><ele>-0.3333333333333333</ele><time>2026-04-26T14:43:09.879Z</time></trkpt><trkpt lat="44.6055672" lon="12.0985726"><ele>-0.6666666666666666</ele><time>2026-04-26T14:43:10.879Z</time></trkpt><trkpt lat="44.6057905" lon="12.0985602"><ele>-1.0</ele><time>2026-04-26T14:43:11.879Z</time></trkpt><trkpt lat="44.6060116" lon="12.0985486"><ele>-0.6666666666666666</ele><time>2026-04-26T14:43:12.878Z</time></trkpt><trkpt lat="44.6062356" lon="12.0985389"><ele>-0.3333333333333333</ele><time>2026-04-26T14:43:13.879Z</time></trkpt><trkpt lat="44.6064546" lon="12.0985199"><ele>0.0</ele><time>2026-04-26T14:43:14.878Z</time></trkpt><trkpt lat="44.6066742" lon="12.0985081"><ele>0.0</ele><time>2026-04-26T14:43:15.879Z</time></trkpt><trkpt lat="44.6068945" lon="12.0984951"><ele>0.0</ele><time>2026-04-26T14:43:16.879Z</time></trkpt><trkpt lat="44.6071126" lon="12.0984813"><ele>0.0</ele><time>2026-04-26T14:43:17.879Z</time></trkpt><trkpt lat="44.6073313" lon="12.0984739"><ele>-0.6666666666666666</ele><time>2026-04-26T14:43:18.879Z</time></trkpt><trkpt lat="44.6075491" lon="12.0984642"><ele>-1.3333333333333333</ele><time>2026-04-26T14:43:19.878Z</time></trkpt><trkpt lat="44.6077672" lon="12.0984513"><ele>-2.0</ele><time>2026-04-26T14:43:20.878Z</time></trkpt><trkpt lat="44.6079854" lon="12.0984358"><ele>-2.333333333333333</ele><time>2026-04-26T14:43:21.879Z</time></trkpt><trkpt lat="44.6082036" lon="12.0984267"><ele>-2.6666666666666665</ele><time>2026-04-26T14:43:22.879Z</time></trkpt><trkpt lat="44.6084234" lon="12.0984127"><ele>-3.0</ele><time>2026-04-26T14:43:23.879Z</time></trkpt><trkpt lat="44.6086454" lon="12.0984007"><ele>-2.6666666666666665</ele><time>2026-04-26T14:43:24.879Z</time></trkpt><trkpt lat="44.6088641" lon="12.0983819"><ele>-2.333333333333333</ele><time>2026-04-26T14:43:25.879Z</time></trkpt><trkpt lat="44.6090873" lon="12.0983718"><ele>-2.0</ele><time>2026-04-26T14:43:26.878Z</time></trkpt><trkpt lat="44.6093101" lon="12.0983607"><ele>-1.6666666666666665</ele><time>2026-04-26T14:43:27.879Z</time></trkpt><trkpt lat="44.6095298" lon="12.0983481"><ele>-1.3333333333333333</ele><time>2026-04-26T14:43:28.879Z</time></trkpt><trkpt lat="44.6097536" lon="12.0983277"><ele>-1.0</ele><time>2026-04-26T14:43:29.878Z</time></trkpt><trkpt lat="44.6099771" lon="12.0983131"><ele>-1.0</ele><time>2026-04-26T14:43:30.879Z</time></trkpt><trkpt lat="44.6102071" lon="12.0982965"><ele>-1.0</ele><time>2026-04-26T14:43:31.878Z</time></trkpt><trkpt lat="44.6104317" lon="12.0982883"><ele>-1.0</ele><time>2026-04-26T14:43:32.879Z</time></trkpt><trkpt lat="44.6106577" lon="12.0982761"><ele>-1.0</ele><time>2026-04-26T14:43:33.878Z</time></trkpt><trkpt lat="44.6108827" lon="12.0982636"><ele>-1.0</ele><time>2026-04-26T14:43:34.878Z</time></trkpt><trkpt lat="44.611106" lon="12.0982531"><ele>-1.0</ele><time>2026-04-26T14:43:35.878Z</time></trkpt><trkpt lat="44.6113274" lon="12.0982386"><ele>-1.0</ele><time>2026-04-26T14:43:36.879Z</time></trkpt><trkpt lat="44.6115555" lon="12.0982287"><ele>-1.0</ele><time>2026-04-26T14:43:37.879Z</time></trkpt><trkpt lat="44.6117842" lon="12.0982237"><ele>-1.0</ele><time>2026-04-26T14:43:38.879Z</time></trkpt><trkpt lat="44.6120107" lon="12.0982129"><ele>-1.0</ele><time>2026-04-26T14:43:39.878Z</time></trkpt><trkpt lat="44.612238" lon="12.0981997"><ele>-1.0</ele><time>2026-04-26T14:43:40.878Z</time></trkpt><trkpt lat="44.6124644" lon="12.0981879"><ele>-1.0</ele><time>2026-04-26T14:43:41.878Z</time></trkpt><trkpt lat="44.6126926" lon="12.0981776"><ele>-1.0</ele><time>2026-04-26T14:43:42.879Z</time></trkpt><trkpt lat="44.61292" lon="12.0981642"><ele>-0.5</ele><time>2026-04-26T14:43:43.879Z</time></trkpt><trkpt lat="44.6131478" lon="12.0981496"><ele>0.0</ele><time>2026-04-26T14:43:44.878Z</time></trkpt><trkpt lat="44.6133763" lon="12.0981339"><ele>0.0</ele><time>2026-04-26T14:43:45.878Z</time></trkpt><trkpt lat="44.6135983" lon="12.0981236"><ele>0.0</ele><time>2026-04-26T14:43:46.878Z</time></trkpt><trkpt lat="44.613829" lon="12.098116"><ele>-0.5</ele><time>2026-04-26T14:43:47.879Z</time></trkpt><trkpt lat="44.6140585" lon="12.0981113"><ele>-1.0</ele><time>2026-04-26T14:43:48.879Z</time></trkpt><trkpt lat="44.6142852" lon="12.0980983"><ele>-2.0</ele><time>2026-04-26T14:43:49.879Z</time></trkpt><trkpt lat="44.6145146" lon="12.0980831"><ele>-3.0</ele><time>2026-04-26T14:43:50.878Z</time></trkpt><trkpt lat="44.6147448" lon="12.0980692"><ele>-3.0</ele><time>2026-04-26T14:43:51.878Z</time></trkpt><trkpt lat="44.6149714" lon="12.0980578"><ele>-3.0</ele><time>2026-04-26T14:43:52.878Z</time></trkpt><trkpt lat="44.6151984" lon="12.0980481"><ele>-2.3333333333333335</ele><time>2026-04-26T14:43:53.879Z</time></trkpt><trkpt lat="44.6154226" lon="12.0980334"><ele>-1.6666666666666665</ele><time>2026-04-26T14:43:54.878Z</time></trkpt><trkpt lat="44.615644" lon="12.0980146"><ele>-1.0</ele><time>2026-04-26T14:43:55.879Z</time></trkpt><trkpt lat="44.6158817" lon="12.0979953"><ele>-1.0</ele><time>2026-04-26T14:43:56.879Z</time></trkpt><trkpt lat="44.6161151" lon="12.0979825"><ele>-1.0</ele><time>2026-04-26T14:43:57.878Z</time></trkpt><trkpt lat="44.6163464" lon="12.0979672"><ele>-1.5</ele><time>2026-04-26T14:43:58.878Z</time></trkpt><trkpt lat="44.6165862" lon="12.0979534"><ele>-2.0</ele><time>2026-04-26T14:43:59.879Z</time></trkpt><trkpt lat="44.6168159" lon="12.0979404"><ele>-2.0</ele><time>2026-04-26T14:44:00.878Z</time></trkpt><trkpt lat="44.6170469" lon="12.0979261"><ele>-2.0</ele><time>2026-04-26T14:44:01.879Z</time></trkpt><trkpt lat="44.6172781" lon="12.0979152"><ele>-2.0</ele><time>2026-04-26T14:44:02.879Z</time></trkpt><trkpt lat="44.6175081" lon="12.0979092"><ele>-2.0</ele><time>2026-04-26T14:44:03.878Z</time></trkpt><trkpt lat="44.6177361" lon="12.0979041"><ele>-1.0</ele><time>2026-04-26T14:44:04.878Z</time></trkpt><trkpt lat="44.6179681" lon="12.0979121"><ele>0.0</ele><time>2026-04-26T14:44:05.878Z</time></trkpt><trkpt lat="44.618193" lon="12.0979462"><ele>0.0</ele><time>2026-04-26T14:44:06.878Z</time></trkpt><trkpt lat="44.6184136" lon="12.0980058"><ele>0.0</ele><time>2026-04-26T14:44:07.879Z</time></trkpt><trkpt lat="44.6186309" lon="12.0980847"><ele>0.0</ele><time>2026-04-26T14:44:08.879Z</time></trkpt><trkpt lat="44.6188422" lon="12.0981865"><ele>-0.6666666666666666</ele><time>2026-04-26T14:44:09.878Z</time></trkpt><trkpt lat="44.6190426" lon="12.0983076"><ele>-1.3333333333333333</ele><time>2026-04-26T14:44:10.878Z</time></trkpt><trkpt lat="44.6192431" lon="12.0984485"><ele>-2.0</ele><time>2026-04-26T14:44:11.878Z</time></trkpt><trkpt lat="44.6194349" lon="12.0986141"><ele>-2.0</ele><time>2026-04-26T14:44:12.878Z</time></trkpt><trkpt lat="44.6196156" lon="12.0988018"><ele>-2.0</ele><time>2026-04-26T14:44:13.879Z</time></trkpt><trkpt lat="44.6197863" lon="12.0990068"><ele>-2.0</ele><time>2026-04-26T14:44:14.879Z</time></trkpt><trkpt lat="44.6199479" lon="12.0992202"><ele>-2.0</ele><time>2026-04-26T14:44:15.879Z</time></trkpt><trkpt lat="44.6201079" lon="12.0994414"><ele>-2.0</ele><time>2026-04-26T14:44:16.879Z</time></trkpt><trkpt lat="44.6202677" lon="12.0996616"><ele>-2.0</ele><time>2026-04-26T14:44:17.879Z</time></trkpt><trkpt lat="44.6204249" lon="12.0998874"><ele>-2.0</ele><time>2026-04-26T14:44:18.878Z</time></trkpt><trkpt lat="44.6205863" lon="12.1001074"><ele>-2.0</ele><time>2026-04-26T14:44:19.879Z</time></trkpt><trkpt lat="44.6207541" lon="12.1003193"><ele>-2.0</ele><time>2026-04-26T14:44:20.878Z</time></trkpt><trkpt lat="44.6209279" lon="12.100522"><ele>-2.0</ele><time>2026-04-26T14:44:21.879Z</time></trkpt><trkpt lat="44.6211138" lon="12.1007082"><ele>-1.5</ele><time>2026-04-26T14:44:22.878Z</time></trkpt><trkpt lat="44.6213109" lon="12.1008691"><ele>-1.0</ele><time>2026-04-26T14:44:23.878Z</time></trkpt><trkpt lat="44.6215155" lon="12.1010076"><ele>-1.0</ele><time>2026-04-26T14:44:24.878Z</time></trkpt><trkpt lat="44.6217252" lon="12.1011234"><ele>-1.0</ele><time>2026-04-26T14:44:25.879Z</time></trkpt><trkpt lat="44.6219419" lon="12.1012197"><ele>-0.5</ele><time>2026-04-26T14:44:26.878Z</time></trkpt><trkpt lat="44.6221625" lon="12.1012882"><ele>0.0</ele><time>2026-04-26T14:44:27.878Z</time></trkpt><trkpt lat="44.6223923" lon="12.1013349"><ele>0.0</ele><time>2026-04-26T14:44:28.878Z</time></trkpt><trkpt lat="44.6226226" lon="12.1013624"><ele>0.0</ele><time>2026-04-26T14:44:29.878Z</time></trkpt><trkpt lat="44.6228574" lon="12.1013755"><ele>0.0</ele><time>2026-04-26T14:44:30.878Z</time></trkpt><trkpt lat="44.6230893" lon="12.1013583"><ele>0.0</ele><time>2026-04-26T14:44:31.878Z</time></trkpt><trkpt lat="44.623321" lon="12.1013418"><ele>0.0</ele><time>2026-04-26T14:44:32.878Z</time></trkpt><trkpt lat="44.6235569" lon="12.1013216"><ele>0.0</ele><time>2026-04-26T14:44:33.878Z</time></trkpt><trkpt lat="44.623788" lon="12.1013019"><ele>0.0</ele><time>2026-04-26T14:44:34.879Z</time></trkpt><trkpt lat="44.6240278" lon="12.101281"><ele>0.0</ele><time>2026-04-26T14:44:35.879Z</time></trkpt><trkpt lat="44.624264" lon="12.1012583"><ele>-1.0</ele><time>2026-04-26T14:44:36.878Z</time></trkpt><trkpt lat="44.6245029" lon="12.1012418"><ele>-2.0</ele><time>2026-04-26T14:44:37.879Z</time></trkpt><trkpt lat="44.6247431" lon="12.1012303"><ele>-2.0</ele><time>2026-04-26T14:44:38.878Z</time></trkpt><trkpt lat="44.6249832" lon="12.1012073"><ele>-2.0</ele><time>2026-04-26T14:44:39.878Z</time></trkpt><trkpt lat="44.6252228" lon="12.101197"><ele>-2.0</ele><time>2026-04-26T14:44:40.878Z</time></trkpt><trkpt lat="44.6254664" lon="12.101183"><ele>-2.0</ele><time>2026-04-26T14:44:41.878Z</time></trkpt><trkpt lat="44.6257026" lon="12.1011925"><ele>-2.0</ele><time>2026-04-26T14:44:42.879Z</time></trkpt><trkpt lat="44.6259256" lon="12.1012273"><ele>-2.0</ele><time>2026-04-26T14:44:43.879Z</time></trkpt><trkpt lat="44.6261405" lon="12.1012719"><ele>-2.0</ele><time>2026-04-26T14:44:44.878Z</time></trkpt><trkpt lat="44.6263554" lon="12.1013138"><ele>-2.0</ele><time>2026-04-26T14:44:45.878Z</time></trkpt><trkpt lat="44.6265706" lon="12.1013605"><ele>-2.0</ele><time>2026-04-26T14:44:46.878Z</time></trkpt><trkpt lat="44.6267873" lon="12.1013965"><ele>-2.0</ele><time>2026-04-26T14:44:47.879Z</time></trkpt><trkpt lat="44.627003" lon="12.10144"><ele>-2.0</ele><time>2026-04-26T14:44:48.878Z</time></trkpt><trkpt lat="44.6272172" lon="12.1014825"><ele>-2.0</ele><time>2026-04-26T14:44:49.879Z</time></trkpt><trkpt lat="44.6274352" lon="12.1015275"><ele>-2.0</ele><time>2026-04-26T14:44:50.879Z</time></trkpt><trkpt lat="44.6276508" lon="12.1015695"><ele>-1.6666666666666665</ele><time>2026-04-26T14:44:51.878Z</time></trkpt><trkpt lat="44.6278718" lon="12.1016086"><ele>-1.3333333333333333</ele><time>2026-04-26T14:44:52.879Z</time></trkpt><trkpt lat="44.628093" lon="12.1016517"><ele>-1.0</ele><time>2026-04-26T14:44:53.878Z</time></trkpt><trkpt lat="44.6283138" lon="12.1016912"><ele>-1.0</ele><time>2026-04-26T14:44:54.878Z</time></trkpt><trkpt lat="44.6285344" lon="12.1017376"><ele>-1.0</ele><time>2026-04-26T14:44:55.878Z</time></trkpt><trkpt lat="44.6287553" lon="12.1017894"><ele>-1.0</ele><time>2026-04-26T14:44:56.878Z</time></trkpt><trkpt lat="44.6289769" lon="12.1018487"><ele>-0.5</ele><time>2026-04-26T14:44:57.878Z</time></trkpt><trkpt lat="44.6292" lon="12.1019063"><ele>0.0</ele><time>2026-04-26T14:44:58.878Z</time></trkpt><trkpt lat="44.6294229" lon="12.1019605"><ele>-1.5</ele><time>2026-04-26T14:44:59.879Z</time></trkpt><trkpt lat="44.6296445" lon="12.1020157"><ele>-3.0</ele><time>2026-04-26T14:45:00.878Z</time></trkpt><trkpt lat="44.6298692" lon="12.1020567"><ele>-3.0</ele><time>2026-04-26T14:45:01.878Z</time></trkpt><trkpt lat="44.6300948" lon="12.1020978"><ele>-3.0</ele><time>2026-04-26T14:45:02.878Z</time></trkpt><trkpt lat="44.6303195" lon="12.1021406"><ele>-2.5</ele><time>2026-04-26T14:45:03.878Z</time></trkpt><trkpt lat="44.6305471" lon="12.1021853"><ele>-2.0</ele><time>2026-04-26T14:45:04.879Z</time></trkpt><trkpt lat="44.6307752" lon="12.1022389"><ele>-2.0</ele><time>2026-04-26T14:45:05.878Z</time></trkpt><trkpt lat="44.6310043" lon="12.1022895"><ele>-2.0</ele><time>2026-04-26T14:45:06.878Z</time></trkpt><trkpt lat="44.6312301" lon="12.1023366"><ele>-2.0</ele><time>2026-04-26T14:45:07.878Z</time></trkpt><trkpt lat="44.6314591" lon="12.1023822"><ele>-2.0</ele><time>2026-04-26T14:45:08.878Z</time></trkpt><trkpt lat="44.6316886" lon="12.1024293"><ele>-2.0</ele><time>2026-04-26T14:45:09.878Z</time></trkpt><trkpt lat="44.6319168" lon="12.1024725"><ele>-2.0</ele><time>2026-04-26T14:45:10.878Z</time></trkpt><trkpt lat="44.6321457" lon="12.10252"><ele>-2.0</ele><time>2026-04-26T14:45:11.879Z</time></trkpt><trkpt lat="44.6323729" lon="12.1025654"><ele>-2.0</ele><time>2026-04-26T14:45:12.878Z</time></trkpt><trkpt lat="44.6326029" lon="12.1026038"><ele>-1.5</ele><time>2026-04-26T14:45:13.878Z</time></trkpt><trkpt lat="44.6328299" lon="12.1026527"><ele>-1.0</ele><time>2026-04-26T14:45:14.878Z</time></trkpt><trkpt lat="44.6330574" lon="12.1026975"><ele>-1.0</ele><time>2026-04-26T14:45:15.878Z</time></trkpt><trkpt lat="44.6332778" lon="12.1027454"><ele>-1.0</ele><time>2026-04-26T14:45:16.878Z</time></trkpt><trkpt lat="44.6334961" lon="12.1027939"><ele>-1.0</ele><time>2026-04-26T14:45:17.878Z</time></trkpt><trkpt lat="44.6337108" lon="12.1028513"><ele>-1.0</ele><time>2026-04-26T14:45:18.878Z</time></trkpt><trkpt lat="44.6339263" lon="12.1029202"><ele>-1.0</ele><time>2026-04-26T14:45:19.879Z</time></trkpt><trkpt lat="44.6341342" lon="12.1030012"><ele>-1.0</ele><time>2026-04-26T14:45:20.878Z</time></trkpt><trkpt lat="44.6343416" lon="12.1030986"><ele>-1.0</ele><time>2026-04-26T14:45:21.878Z</time></trkpt><trkpt lat="44.6345484" lon="12.103201"><ele>-1.0</ele><time>2026-04-26T14:45:22.879Z</time></trkpt><trkpt lat="44.6347524" lon="12.1033093"><ele>-1.0</ele><time>2026-04-26T14:45:23.878Z</time></trkpt><trkpt lat="44.6349563" lon="12.1034178"><ele>-1.0</ele><time>2026-04-26T14:45:24.878Z</time></trkpt><trkpt lat="44.6351603" lon="12.1035303"><ele>-1.0</ele><time>2026-04-26T14:45:25.879Z</time></trkpt><trkpt lat="44.6353631" lon="12.1036425"><ele>-1.0</ele><time>2026-04-26T14:45:26.879Z</time></trkpt><trkpt lat="44.6355706" lon="12.1037507"><ele>-1.3333333333333333</ele><time>2026-04-26T14:45:27.878Z</time></trkpt><trkpt lat="44.6357748" lon="12.1038609"><ele>-1.6666666666666665</ele><time>2026-04-26T14:45:28.878Z</time></trkpt><trkpt lat="44.6359818" lon="12.1039677"><ele>-2.0</ele><time>2026-04-26T14:45:29.879Z</time></trkpt><trkpt lat="44.6361871" lon="12.1040805"><ele>-1.3333333333333333</ele><time>2026-04-26T14:45:30.878Z</time></trkpt><trkpt lat="44.6363938" lon="12.1041881"><ele>-0.6666666666666666</ele><time>2026-04-26T14:45:31.879Z</time></trkpt><trkpt lat="44.6365986" lon="12.1043017"><ele>0.0</ele><time>2026-04-26T14:45:32.878Z</time></trkpt><trkpt lat="44.6368079" lon="12.1044109"><ele>-0.3333333333333333</ele><time>2026-04-26T14:45:33.879Z</time></trkpt><trkpt lat="44.6370177" lon="12.1045187"><ele>-0.6666666666666666</ele><time>2026-04-26T14:45:34.878Z</time></trkpt><trkpt lat="44.6372241" lon="12.104627"><ele>-1.0</ele><time>2026-04-26T14:45:35.879Z</time></trkpt><trkpt lat="44.6374307" lon="12.1047361"><ele>-1.0</ele><time>2026-04-26T14:45:36.878Z</time></trkpt><trkpt lat="44.6376347" lon="12.1048495"><ele>-1.0</ele><time>2026-04-26T14:45:37.879Z</time></trkpt><trkpt lat="44.6378365" lon="12.1049664"><ele>-1.0</ele><time>2026-04-26T14:45:38.879Z</time></trkpt><trkpt lat="44.6380404" lon="12.1050951"><ele>-1.0</ele><time>2026-04-26T14:45:39.878Z</time></trkpt><trkpt lat="44.6382354" lon="12.1052298"><ele>-1.0</ele><time>2026-04-26T14:45:40.878Z</time></trkpt><trkpt lat="44.6384303" lon="12.1053657"><ele>-1.0</ele><time>2026-04-26T14:45:41.878Z</time></trkpt><trkpt lat="44.6386279" lon="12.1055032"><ele>-1.5</ele><time>2026-04-26T14:45:42.878Z</time></trkpt><trkpt lat="44.638839" lon="12.1056512"><ele>-2.0</ele><time>2026-04-26T14:45:43.879Z</time></trkpt><trkpt lat="44.639037" lon="12.1057871"><ele>-2.0</ele><time>2026-04-26T14:45:44.878Z</time></trkpt><trkpt lat="44.6392352" lon="12.1059192"><ele>-2.0</ele><time>2026-04-26T14:45:45.878Z</time></trkpt><trkpt lat="44.639433" lon="12.1060489"><ele>-2.0</ele><time>2026-04-26T14:45:46.878Z</time></trkpt><trkpt lat="44.6396323" lon="12.1061824"><ele>-2.0</ele><time>2026-04-26T14:45:47.879Z</time></trkpt><trkpt lat="44.6398318" lon="12.1063169"><ele>-2.0</ele><time>2026-04-26T14:45:48.879Z</time></trkpt><trkpt lat="44.6400251" lon="12.1064525"><ele>-2.0</ele><time>2026-04-26T14:45:49.878Z</time></trkpt><trkpt lat="44.6402237" lon="12.1065933"><ele>-2.0</ele><time>2026-04-26T14:45:50.879Z</time></trkpt><trkpt lat="44.6404226" lon="12.1067314"><ele>-2.0</ele><time>2026-04-26T14:45:51.879Z</time></trkpt><trkpt lat="44.6406218" lon="12.1068701"><ele>-2.0</ele><time>2026-04-26T14:45:52.878Z</time></trkpt><trkpt lat="44.6408226" lon="12.1070101"><ele>-2.0</ele><time>2026-04-26T14:45:53.879Z</time></trkpt><trkpt lat="44.6410235" lon="12.1071467"><ele>-2.0</ele><time>2026-04-26T14:45:54.878Z</time></trkpt><trkpt lat="44.6412231" lon="12.1072773"><ele>-2.0</ele><time>2026-04-26T14:45:55.878Z</time></trkpt><trkpt lat="44.6414229" lon="12.1074108"><ele>-2.0</ele><time>2026-04-26T14:45:56.878Z</time></trkpt><trkpt lat="44.6416221" lon="12.1075395"><ele>-2.0</ele><time>2026-04-26T14:45:57.878Z</time></trkpt><trkpt lat="44.6418268" lon="12.1076566"><ele>-2.0</ele><time>2026-04-26T14:45:58.879Z</time></trkpt><trkpt lat="44.6420425" lon="12.1077527"><ele>-2.0</ele><time>2026-04-26T14:45:59.879Z</time></trkpt><trkpt lat="44.6422591" lon="12.1078251"><ele>-2.0</ele><time>2026-04-26T14:46:00.879Z</time></trkpt><trkpt lat="44.6424759" lon="12.1078841"><ele>-2.0</ele><time>2026-04-26T14:46:01.879Z</time></trkpt><trkpt lat="44.6426957" lon="12.1079275"><ele>-1.5</ele><time>2026-04-26T14:46:02.879Z</time></trkpt><trkpt lat="44.6429217" lon="12.1079559"><ele>-1.0</ele><time>2026-04-26T14:46:03.879Z</time></trkpt><trkpt lat="44.643147" lon="12.1079679"><ele>-1.0</ele><time>2026-04-26T14:46:04.878Z</time></trkpt><trkpt lat="44.6433716" lon="12.1079702"><ele>-1.0</ele><time>2026-04-26T14:46:05.878Z</time></trkpt><trkpt lat="44.6435959" lon="12.1079531"><ele>-1.0</ele><time>2026-04-26T14:46:06.879Z</time></trkpt><trkpt lat="44.6438198" lon="12.1079232"><ele>-1.5</ele><time>2026-04-26T14:46:07.878Z</time></trkpt><trkpt lat="44.6440443" lon="12.1078833"><ele>-2.0</ele><time>2026-04-26T14:46:08.879Z</time></trkpt><trkpt lat="44.6442656" lon="12.1078414"><ele>-1.6666666666666665</ele><time>2026-04-26T14:46:09.879Z</time></trkpt><trkpt lat="44.6444868" lon="12.1078088"><ele>-1.3333333333333333</ele><time>2026-04-26T14:46:10.879Z</time></trkpt><trkpt lat="44.6447097" lon="12.1077719"><ele>-1.0</ele><time>2026-04-26T14:46:11.878Z</time></trkpt><trkpt lat="44.6449308" lon="12.107746"><ele>-1.0</ele><time>2026-04-26T14:46:12.878Z</time></trkpt><trkpt lat="44.6451511" lon="12.1077163"><ele>-1.0</ele><time>2026-04-26T14:46:13.879Z</time></trkpt><trkpt lat="44.64537" lon="12.1076774"><ele>-1.0</ele><time>2026-04-26T14:46:14.878Z</time></trkpt><trkpt lat="44.6455908" lon="12.1076422"><ele>-1.3333333333333333</ele><time>2026-04-26T14:46:15.878Z</time></trkpt><trkpt lat="44.6458094" lon="12.1076062"><ele>-1.6666666666666665</ele><time>2026-04-26T14:46:16.878Z</time></trkpt><trkpt lat="44.6460308" lon="12.1075724"><ele>-2.0</ele><time>2026-04-26T14:46:17.879Z</time></trkpt><trkpt lat="44.6462519" lon="12.107533"><ele>-2.333333333333333</ele><time>2026-04-26T14:46:18.878Z</time></trkpt><trkpt lat="44.6464698" lon="12.1075028"><ele>-2.6666666666666665</ele><time>2026-04-26T14:46:19.878Z</time></trkpt><trkpt lat="44.6466891" lon="12.1074687"><ele>-3.0</ele><time>2026-04-26T14:46:20.878Z</time></trkpt><trkpt lat="44.6469104" lon="12.1074378"><ele>-2.3333333333333335</ele><time>2026-04-26T14:46:21.879Z</time></trkpt><trkpt lat="44.6471294" lon="12.1074059"><ele>-1.6666666666666665</ele><time>2026-04-26T14:46:22.879Z</time></trkpt><trkpt lat="44.647351" lon="12.1073685"><ele>-1.0</ele><time>2026-04-26T14:46:23.878Z</time></trkpt><trkpt lat="44.6475701" lon="12.1073291"><ele>-1.0</ele><time>2026-04-26T14:46:24.878Z</time></trkpt><trkpt lat="44.6477921" lon="12.107295"><ele>-1.0</ele><time>2026-04-26T14:46:25.879Z</time></trkpt><trkpt lat="44.6480102" lon="12.107256"><ele>-1.0</ele><time>2026-04-26T14:46:26.878Z</time></trkpt><trkpt lat="44.6482319" lon="12.1072233"><ele>-0.6666666666666666</ele><time>2026-04-26T14:46:27.878Z</time></trkpt><trkpt lat="44.6484547" lon="12.1071921"><ele>-0.3333333333333333</ele><time>2026-04-26T14:46:28.878Z</time></trkpt><trkpt lat="44.6486781" lon="12.1071589"><ele>0.0</ele><time>2026-04-26T14:46:29.878Z</time></trkpt><trkpt lat="44.648899" lon="12.1071262"><ele>0.0</ele><time>2026-04-26T14:46:30.878Z</time></trkpt><trkpt lat="44.6491202" lon="12.1070926"><ele>0.0</ele><time>2026-04-26T14:46:31.879Z</time></trkpt><trkpt lat="44.6493437" lon="12.1070589"><ele>0.0</ele><time>2026-04-26T14:46:32.879Z</time></trkpt><trkpt lat="44.6495628" lon="12.1070266"><ele>-0.6666666666666666</ele><time>2026-04-26T14:46:33.878Z</time></trkpt><trkpt lat="44.6497852" lon="12.106993"><ele>-1.3333333333333333</ele><time>2026-04-26T14:46:34.878Z</time></trkpt><trkpt lat="44.6500065" lon="12.1069615"><ele>-2.0</ele><time>2026-04-26T14:46:35.878Z</time></trkpt><trkpt lat="44.6502281" lon="12.1069311"><ele>-2.0</ele><time>2026-04-26T14:46:36.878Z</time></trkpt><trkpt lat="44.6504494" lon="12.1068969"><ele>-2.0</ele><time>2026-04-26T14:46:37.878Z</time></trkpt><trkpt lat="44.6506722" lon="12.1068665"><ele>-2.0</ele><time>2026-04-26T14:46:38.879Z</time></trkpt><trkpt lat="44.650894" lon="12.1068379"><ele>-2.0</ele><time>2026-04-26T14:46:39.879Z</time></trkpt><trkpt lat="44.6511187" lon="12.1068015"><ele>-2.0</ele><time>2026-04-26T14:46:40.879Z</time></trkpt><trkpt lat="44.651341" lon="12.1067643"><ele>-1.6666666666666665</ele><time>2026-04-26T14:46:41.878Z</time></trkpt><trkpt lat="44.6515619" lon="12.1067296"><ele>-1.3333333333333333</ele><time>2026-04-26T14:46:42.878Z</time></trkpt><trkpt lat="44.6517778" lon="12.1067003"><ele>-1.0</ele><time>2026-04-26T14:46:43.878Z</time></trkpt><trkpt lat="44.6519921" lon="12.1066698"><ele>-0.6666666666666666</ele><time>2026-04-26T14:46:44.879Z</time></trkpt><trkpt lat="44.6521997" lon="12.1066561"><ele>-0.3333333333333333</ele><time>2026-04-26T14:46:45.878Z</time></trkpt><trkpt lat="44.6524042" lon="12.1066582"><ele>0.0</ele><time>2026-04-26T14:46:46.879Z</time></trkpt><trkpt lat="44.652597" lon="12.1066845"><ele>0.0</ele><time>2026-04-26T14:46:47.879Z</time></trkpt><trkpt lat="44.6527879" lon="12.1067212"><ele>0.0</ele><time>2026-04-26T14:46:48.878Z</time></trkpt><trkpt lat="44.6529734" lon="12.1067622"><ele>0.0</ele><time>2026-04-26T14:46:49.878Z</time></trkpt><trkpt lat="44.6531604" lon="12.1068075"><ele>0.0</ele><time>2026-04-26T14:46:50.878Z</time></trkpt><trkpt lat="44.6533522" lon="12.1068718"><ele>0.0</ele><time>2026-04-26T14:46:51.879Z</time></trkpt><trkpt lat="44.6535413" lon="12.1069377"><ele>0.0</ele><time>2026-04-26T14:46:52.879Z</time></trkpt><trkpt lat="44.6537354" lon="12.107029"><ele>-1.0</ele><time>2026-04-26T14:46:53.879Z</time></trkpt><trkpt lat="44.6539275" lon="12.1071265"><ele>-2.0</ele><time>2026-04-26T14:46:54.879Z</time></trkpt><trkpt lat="44.6541241" lon="12.1072323"><ele>-3.0</ele><time>2026-04-26T14:46:55.878Z</time></trkpt><trkpt lat="44.6543206" lon="12.1073512"><ele>-2.6666666666666665</ele><time>2026-04-26T14:46:56.878Z</time></trkpt><trkpt lat="44.6545171" lon="12.1074801"><ele>-2.333333333333333</ele><time>2026-04-26T14:46:57.878Z</time></trkpt><trkpt lat="44.6547085" lon="12.1076243"><ele>-2.0</ele><time>2026-04-26T14:46:58.878Z</time></trkpt><trkpt lat="44.6548992" lon="12.1077828"><ele>-2.0</ele><time>2026-04-26T14:46:59.879Z</time></trkpt><trkpt lat="44.6550853" lon="12.1079547"><ele>-2.0</ele><time>2026-04-26T14:47:00.878Z</time></trkpt><trkpt lat="44.6552669" lon="12.1081459"><ele>-2.0</ele><time>2026-04-26T14:47:01.878Z</time></trkpt><trkpt lat="44.6554427" lon="12.1083461"><ele>-2.0</ele><time>2026-04-26T14:47:02.878Z</time></trkpt><trkpt lat="44.6556109" lon="12.1085562"><ele>-2.0</ele><time>2026-04-26T14:47:03.878Z</time></trkpt><trkpt lat="44.6557729" lon="12.1087752"><ele>-2.0</ele><time>2026-04-26T14:47:04.878Z</time></trkpt><trkpt lat="44.6559266" lon="12.108993"><ele>-2.0</ele><time>2026-04-26T14:47:05.878Z</time></trkpt><trkpt lat="44.6560796" lon="12.1092307"><ele>-1.5</ele><time>2026-04-26T14:47:06.879Z</time></trkpt><trkpt lat="44.656232" lon="12.1094683"><ele>-1.0</ele><time>2026-04-26T14:47:07.878Z</time></trkpt><trkpt lat="44.6563815" lon="12.109705"><ele>-0.5</ele><time>2026-04-26T14:47:08.878Z</time></trkpt><trkpt lat="44.6565374" lon="12.109946"><ele>0.0</ele><time>2026-04-26T14:47:09.879Z</time></trkpt><trkpt lat="44.6566926" lon="12.1101808"><ele>0.0</ele><time>2026-04-26T14:47:10.879Z</time></trkpt><trkpt lat="44.6568475" lon="12.1104223"><ele>0.0</ele><time>2026-04-26T14:47:11.879Z</time></trkpt><trkpt lat="44.657004" lon="12.1106615"><ele>-1.0</ele><time>2026-04-26T14:47:12.879Z</time></trkpt><trkpt lat="44.6571588" lon="12.1109065"><ele>-2.0</ele><time>2026-04-26T14:47:13.878Z</time></trkpt><trkpt lat="44.6573135" lon="12.1111446"><ele>-2.0</ele><time>2026-04-26T14:47:14.878Z</time></trkpt><trkpt lat="44.6574675" lon="12.111379"><ele>-2.0</ele><time>2026-04-26T14:47:15.879Z</time></trkpt><trkpt lat="44.65763" lon="12.111606"><ele>-2.0</ele><time>2026-04-26T14:47:16.878Z</time></trkpt><trkpt lat="44.657799" lon="12.1118269"><ele>-2.0</ele><time>2026-04-26T14:47:17.879Z</time></trkpt><trkpt lat="44.6579773" lon="12.1120372"><ele>-2.0</ele><time>2026-04-26T14:47:18.878Z</time></trkpt><trkpt lat="44.6581597" lon="12.1122373"><ele>-2.0</ele><time>2026-04-26T14:47:19.879Z</time></trkpt><trkpt lat="44.6583497" lon="12.1124284"><ele>-2.0</ele><time>2026-04-26T14:47:20.878Z</time></trkpt><trkpt lat="44.6585393" lon="12.1126213"><ele>-2.0</ele><time>2026-04-26T14:47:21.879Z</time></trkpt><trkpt lat="44.6587337" lon="12.1128067"><ele>-2.5</ele><time>2026-04-26T14:47:22.878Z</time></trkpt><trkpt lat="44.6589269" lon="12.1129955"><ele>-3.0</ele><time>2026-04-26T14:47:23.878Z</time></trkpt><trkpt lat="44.6591207" lon="12.1131861"><ele>-3.0</ele><time>2026-04-26T14:47:24.878Z</time></trkpt><trkpt lat="44.6593091" lon="12.1133761"><ele>-3.0</ele><time>2026-04-26T14:47:25.879Z</time></trkpt><trkpt lat="44.6595044" lon="12.1135667"><ele>-3.0</ele><time>2026-04-26T14:47:26.878Z</time></trkpt><trkpt lat="44.6597018" lon="12.1137573"><ele>-3.0</ele><time>2026-04-26T14:47:27.879Z</time></trkpt><trkpt lat="44.6598925" lon="12.1139463"><ele>-3.0</ele><time>2026-04-26T14:47:28.878Z</time></trkpt><trkpt lat="44.6600875" lon="12.1141336"><ele>-3.0</ele><time>2026-04-26T14:47:29.878Z</time></trkpt><trkpt lat="44.660283" lon="12.11432"><ele>-2.5</ele><time>2026-04-26T14:47:30.879Z</time></trkpt><trkpt lat="44.6604802" lon="12.114508"><ele>-2.0</ele><time>2026-04-26T14:47:31.878Z</time></trkpt><trkpt lat="44.6606733" lon="12.114699"><ele>-2.0</ele><time>2026-04-26T14:47:32.878Z</time></trkpt><trkpt lat="44.6608642" lon="12.1148842"><ele>-2.0</ele><time>2026-04-26T14:47:33.879Z</time></trkpt><trkpt lat="44.6610546" lon="12.1150677"><ele>-1.6666666666666665</ele><time>2026-04-26T14:47:34.878Z</time></trkpt><trkpt lat="44.661234" lon="12.1152461"><ele>-1.3333333333333333</ele><time>2026-04-26T14:47:35.879Z</time></trkpt><trkpt lat="44.661409" lon="12.1154031"><ele>-1.0</ele><time>2026-04-26T14:47:36.879Z</time></trkpt><trkpt lat="44.6615873" lon="12.1155455"><ele>-1.0</ele><time>2026-04-26T14:47:37.878Z</time></trkpt><trkpt lat="44.661775" lon="12.1156615"><ele>-1.0</ele><time>2026-04-26T14:47:38.878Z</time></trkpt><trkpt lat="44.6619719" lon="12.1157474"><ele>-1.0</ele><time>2026-04-26T14:47:39.878Z</time></trkpt><trkpt lat="44.6621642" lon="12.1158158"><ele>-0.6666666666666666</ele><time>2026-04-26T14:47:40.878Z</time></trkpt><trkpt lat="44.6623645" lon="12.1158565"><ele>-0.3333333333333333</ele><time>2026-04-26T14:47:41.879Z</time></trkpt><trkpt lat="44.6625721" lon="12.1158795"><ele>0.0</ele><time>2026-04-26T14:47:42.879Z</time></trkpt><trkpt lat="44.6627728" lon="12.1158394"><ele>-0.6666666666666666</ele><time>2026-04-26T14:47:43.878Z</time></trkpt><trkpt lat="44.6629762" lon="12.1157888"><ele>-1.3333333333333333</ele><time>2026-04-26T14:47:44.879Z</time></trkpt><trkpt lat="44.6631741" lon="12.1157012"><ele>-2.0</ele><time>2026-04-26T14:47:45.879Z</time></trkpt><trkpt lat="44.6633675" lon="12.1155947"><ele>-2.0</ele><time>2026-04-26T14:47:46.879Z</time></trkpt><trkpt lat="44.6635566" lon="12.1154698"><ele>-2.0</ele><time>2026-04-26T14:47:47.878Z</time></trkpt><trkpt lat="44.6637459" lon="12.1153209"><ele>-2.0</ele><time>2026-04-26T14:47:48.878Z</time></trkpt><trkpt lat="44.6639296" lon="12.1151601"><ele>-2.0</ele><time>2026-04-26T14:47:49.879Z</time></trkpt><trkpt lat="44.664114" lon="12.1149994"><ele>-2.0</ele><time>2026-04-26T14:47:50.878Z</time></trkpt><trkpt lat="44.6642986" lon="12.1148318"><ele>-2.0</ele><time>2026-04-26T14:47:51.879Z</time></trkpt><trkpt lat="44.6644853" lon="12.1146636"><ele>-2.5</ele><time>2026-04-26T14:47:52.879Z</time></trkpt><trkpt lat="44.6646762" lon="12.1144939"><ele>-3.0</ele><time>2026-04-26T14:47:53.878Z</time></trkpt><trkpt lat="44.6648713" lon="12.1143224"><ele>-3.0</ele><time>2026-04-26T14:47:54.879Z</time></trkpt><trkpt lat="44.6650644" lon="12.1141538"><ele>-3.0</ele><time>2026-04-26T14:47:55.879Z</time></trkpt><trkpt lat="44.6652587" lon="12.1139837"><ele>-3.0</ele><time>2026-04-26T14:47:56.878Z</time></trkpt><trkpt lat="44.6654527" lon="12.1138158"><ele>-3.0</ele><time>2026-04-26T14:47:57.878Z</time></trkpt><trkpt lat="44.6656497" lon="12.1136432"><ele>-3.0</ele><time>2026-04-26T14:47:58.879Z</time></trkpt><trkpt lat="44.665847" lon="12.1134741"><ele>-3.0</ele><time>2026-04-26T14:47:59.878Z</time></trkpt><trkpt lat="44.6660445" lon="12.1133023"><ele>-2.5</ele><time>2026-04-26T14:48:00.879Z</time></trkpt><trkpt lat="44.6662398" lon="12.1131248"><ele>-2.0</ele><time>2026-04-26T14:48:01.878Z</time></trkpt><trkpt lat="44.666442" lon="12.1129462"><ele>-2.0</ele><time>2026-04-26T14:48:02.879Z</time></trkpt><trkpt lat="44.6666413" lon="12.1127679"><ele>-2.0</ele><time>2026-04-26T14:48:03.879Z</time></trkpt><trkpt lat="44.6668385" lon="12.1125912"><ele>-2.5</ele><time>2026-04-26T14:48:04.878Z</time></trkpt><trkpt lat="44.667039" lon="12.1124071"><ele>-3.0</ele><time>2026-04-26T14:48:05.878Z</time></trkpt><trkpt lat="44.6672396" lon="12.1122306"><ele>-3.0</ele><time>2026-04-26T14:48:06.878Z</time></trkpt><trkpt lat="44.6674404" lon="12.1120508"><ele>-3.0</ele><time>2026-04-26T14:48:07.879Z</time></trkpt><trkpt lat="44.6676396" lon="12.1118773"><ele>-3.0</ele><time>2026-04-26T14:48:08.878Z</time></trkpt><trkpt lat="44.6678392" lon="12.1117061"><ele>-3.0</ele><time>2026-04-26T14:48:09.879Z</time></trkpt><trkpt lat="44.6680401" lon="12.111541"><ele>-3.0</ele><time>2026-04-26T14:48:10.878Z</time></trkpt><trkpt lat="44.6682382" lon="12.1113832"><ele>-3.0</ele><time>2026-04-26T14:48:11.878Z</time></trkpt><trkpt lat="44.6684275" lon="12.111241"><ele>-3.0</ele><time>2026-04-26T14:48:12.878Z</time></trkpt><trkpt lat="44.6686144" lon="12.1111099"><ele>-2.6666666666666665</ele><time>2026-04-26T14:48:13.878Z</time></trkpt><trkpt lat="44.6687973" lon="12.1109834"><ele>-2.333333333333333</ele><time>2026-04-26T14:48:14.878Z</time></trkpt><trkpt lat="44.6689772" lon="12.1108569"><ele>-2.0</ele><time>2026-04-26T14:48:15.879Z</time></trkpt><trkpt lat="44.6691501" lon="12.1107323"><ele>-2.0</ele><time>2026-04-26T14:48:16.878Z</time></trkpt><trkpt lat="44.669314" lon="12.1106122"><ele>-2.0</ele><time>2026-04-26T14:48:17.879Z</time></trkpt><trkpt lat="44.6694684" lon="12.1105006"><ele>-2.0</ele><time>2026-04-26T14:48:18.878Z</time></trkpt><trkpt lat="44.6696119" lon="12.110401"><ele>-1.75</ele><time>2026-04-26T14:48:19.879Z</time></trkpt><trkpt lat="44.6697472" lon="12.110305"><ele>-1.5</ele><time>2026-04-26T14:48:20.879Z</time></trkpt><trkpt lat="44.6698644" lon="12.110227"><ele>-1.25</ele><time>2026-04-26T14:48:21.879Z</time></trkpt><trkpt lat="44.6699604" lon="12.1101733"><ele>-1.0</ele><time>2026-04-26T14:48:22.878Z</time></trkpt><trkpt lat="44.6700524" lon="12.1101591"><ele>-1.0</ele><time>2026-04-26T14:48:23.879Z</time></trkpt><trkpt lat="44.6701428" lon="12.1101854"><ele>-1.0</ele><time>2026-04-26T14:48:24.879Z</time></trkpt><trkpt lat="44.6702226" lon="12.1102514"><ele>-1.0</ele><time>2026-04-26T14:48:25.878Z</time></trkpt><trkpt lat="44.6702864" lon="12.1103575"><ele>-1.0</ele><time>2026-04-26T14:48:26.879Z</time></trkpt><trkpt lat="44.6703327" lon="12.1104937"><ele>-1.0</ele><time>2026-04-26T14:48:27.878Z</time></trkpt><trkpt lat="44.6703849" lon="12.1106578"><ele>-2.0</ele><time>2026-04-26T14:48:28.879Z</time></trkpt><trkpt lat="44.6704306" lon="12.1108437"><ele>-3.0</ele><time>2026-04-26T14:48:29.879Z</time></trkpt><trkpt lat="44.6704858" lon="12.1110497"><ele>-4.0</ele><time>2026-04-26T14:48:30.879Z</time></trkpt><trkpt lat="44.6705469" lon="12.1112665"><ele>-4.0</ele><time>2026-04-26T14:48:31.878Z</time></trkpt><trkpt lat="44.6706071" lon="12.1114999"><ele>-4.0</ele><time>2026-04-26T14:48:32.878Z</time></trkpt><trkpt lat="44.6706731" lon="12.111741"><ele>-4.0</ele><time>2026-04-26T14:48:33.878Z</time></trkpt><trkpt lat="44.6707408" lon="12.1119954"><ele>-4.0</ele><time>2026-04-26T14:48:34.878Z</time></trkpt><trkpt lat="44.6708077" lon="12.1122482"><ele>-4.0</ele><time>2026-04-26T14:48:35.878Z</time></trkpt><trkpt lat="44.6708732" lon="12.112503"><ele>-4.0</ele><time>2026-04-26T14:48:36.879Z</time></trkpt><trkpt lat="44.6709434" lon="12.1127602"><ele>-4.0</ele><time>2026-04-26T14:48:37.878Z</time></trkpt><trkpt lat="44.6710179" lon="12.1130193"><ele>-4.0</ele><time>2026-04-26T14:48:38.879Z</time></trkpt><trkpt lat="44.6710842" lon="12.1132791"><ele>-4.0</ele><time>2026-04-26T14:48:39.879Z</time></trkpt><trkpt lat="44.6711551" lon="12.113539"><ele>-4.0</ele><time>2026-04-26T14:48:40.878Z</time></trkpt><trkpt lat="44.6712221" lon="12.113797"><ele>-4.0</ele><time>2026-04-26T14:48:41.879Z</time></trkpt><trkpt lat="44.6712894" lon="12.1140507"><ele>-4.0</ele><time>2026-04-26T14:48:42.879Z</time></trkpt><trkpt lat="44.6713536" lon="12.114307"><ele>-4.0</ele><time>2026-04-26T14:48:43.879Z</time></trkpt><trkpt lat="44.6714236" lon="12.1145574"><ele>-4.0</ele><time>2026-04-26T14:48:44.878Z</time></trkpt><trkpt lat="44.671491" lon="12.1148118"><ele>-4.0</ele><time>2026-04-26T14:48:45.879Z</time></trkpt><trkpt lat="44.671556" lon="12.1150638"><ele>-4.0</ele><time>2026-04-26T14:48:46.878Z</time></trkpt><trkpt lat="44.6716211" lon="12.1153125"><ele>-4.0</ele><time>2026-04-26T14:48:47.879Z</time></trkpt><trkpt lat="44.6716918" lon="12.1155614"><ele>-4.0</ele><time>2026-04-26T14:48:48.878Z</time></trkpt><trkpt lat="44.6717567" lon="12.1158171"><ele>-4.0</ele><time>2026-04-26T14:48:49.878Z</time></trkpt><trkpt lat="44.6718263" lon="12.1160639"><ele>-4.0</ele><time>2026-04-26T14:48:50.878Z</time></trkpt><trkpt lat="44.6718954" lon="12.1163116"><ele>-4.0</ele><time>2026-04-26T14:48:51.878Z</time></trkpt><trkpt lat="44.6719652" lon="12.1165613"><ele>-3.6666666666666665</ele><time>2026-04-26T14:48:52.879Z</time></trkpt><trkpt lat="44.6720291" lon="12.1168109"><ele>-3.333333333333333</ele><time>2026-04-26T14:48:53.879Z</time></trkpt><trkpt lat="44.6720913" lon="12.1170609"><ele>-3.0</ele><time>2026-04-26T14:48:54.878Z</time></trkpt><trkpt lat="44.672162" lon="12.1173143"><ele>-2.6666666666666665</ele><time>2026-04-26T14:48:55.879Z</time></trkpt><trkpt lat="44.672232" lon="12.1175734"><ele>-2.333333333333333</ele><time>2026-04-26T14:48:56.878Z</time></trkpt><trkpt lat="44.6723046" lon="12.1178344"><ele>-2.0</ele><time>2026-04-26T14:48:57.878Z</time></trkpt><trkpt lat="44.6723756" lon="12.1180929"><ele>-1.6666666666666665</ele><time>2026-04-26T14:48:58.879Z</time></trkpt><trkpt lat="44.6724477" lon="12.1183498"><ele>-1.3333333333333333</ele><time>2026-04-26T14:48:59.878Z</time></trkpt><trkpt lat="44.6725203" lon="12.1186057"><ele>-1.0</ele><time>2026-04-26T14:49:00.879Z</time></trkpt><trkpt lat="44.6725934" lon="12.1188669"><ele>-1.3333333333333333</ele><time>2026-04-26T14:49:01.879Z</time></trkpt><trkpt lat="44.6726618" lon="12.1191288"><ele>-1.6666666666666665</ele><time>2026-04-26T14:49:02.878Z</time></trkpt><trkpt lat="44.6727285" lon="12.11939"><ele>-2.0</ele><time>2026-04-26T14:49:03.879Z</time></trkpt><trkpt lat="44.6727979" lon="12.1196522"><ele>-2.0</ele><time>2026-04-26T14:49:04.878Z</time></trkpt><trkpt lat="44.6728666" lon="12.1199128"><ele>-2.0</ele><time>2026-04-26T14:49:05.879Z</time></trkpt><trkpt lat="44.6729399" lon="12.1201746"><ele>-2.0</ele><time>2026-04-26T14:49:06.879Z</time></trkpt><trkpt lat="44.6730095" lon="12.1204351"><ele>-2.0</ele><time>2026-04-26T14:49:07.879Z</time></trkpt><trkpt lat="44.6730843" lon="12.1206965"><ele>-2.0</ele><time>2026-04-26T14:49:08.878Z</time></trkpt><trkpt lat="44.6731555" lon="12.1209604"><ele>-2.0</ele><time>2026-04-26T14:49:09.878Z</time></trkpt><trkpt lat="44.6732235" lon="12.12122"><ele>-2.333333333333333</ele><time>2026-04-26T14:49:10.879Z</time></trkpt><trkpt lat="44.6732927" lon="12.1214857"><ele>-2.6666666666666665</ele><time>2026-04-26T14:49:11.878Z</time></trkpt><trkpt lat="44.6733629" lon="12.1217464"><ele>-3.0</ele><time>2026-04-26T14:49:12.879Z</time></trkpt><trkpt lat="44.6734342" lon="12.1220045"><ele>-3.0</ele><time>2026-04-26T14:49:13.878Z</time></trkpt><trkpt lat="44.6735082" lon="12.1222657"><ele>-3.0</ele><time>2026-04-26T14:49:14.878Z</time></trkpt><trkpt lat="44.6735794" lon="12.1225294"><ele>-3.0</ele><time>2026-04-26T14:49:15.879Z</time></trkpt><trkpt lat="44.6736518" lon="12.1227894"><ele>-2.6666666666666665</ele><time>2026-04-26T14:49:16.879Z</time></trkpt><trkpt lat="44.6737184" lon="12.1230489"><ele>-2.333333333333333</ele><time>2026-04-26T14:49:17.879Z</time></trkpt><trkpt lat="44.6737875" lon="12.1233126"><ele>-2.0</ele><time>2026-04-26T14:49:18.878Z</time></trkpt><trkpt lat="44.6738599" lon="12.123576"><ele>-2.0</ele><time>2026-04-26T14:49:19.878Z</time></trkpt><trkpt lat="44.6739291" lon="12.1238384"><ele>-2.0</ele><time>2026-04-26T14:49:20.878Z</time></trkpt><trkpt lat="44.6740033" lon="12.1240974"><ele>-2.0</ele><time>2026-04-26T14:49:21.879Z</time></trkpt><trkpt lat="44.6740726" lon="12.1243608"><ele>-2.0</ele><time>2026-04-26T14:49:22.879Z</time></trkpt><trkpt lat="44.6741403" lon="12.1246239"><ele>-2.0</ele><time>2026-04-26T14:49:23.879Z</time></trkpt><trkpt lat="44.6742094" lon="12.1248874"><ele>-2.0</ele><time>2026-04-26T14:49:24.878Z</time></trkpt><trkpt lat="44.6742826" lon="12.1251529"><ele>-2.0</ele><time>2026-04-26T14:49:25.878Z</time></trkpt><trkpt lat="44.6743518" lon="12.1254194"><ele>-2.0</ele><time>2026-04-26T14:49:26.879Z</time></trkpt><trkpt lat="44.6744267" lon="12.1256854"><ele>-2.0</ele><time>2026-04-26T14:49:27.878Z</time></trkpt><trkpt lat="44.6744997" lon="12.1259482"><ele>-2.333333333333333</ele><time>2026-04-26T14:49:28.878Z</time></trkpt><trkpt lat="44.6745698" lon="12.1262129"><ele>-2.6666666666666665</ele><time>2026-04-26T14:49:29.878Z</time></trkpt><trkpt lat="44.6746409" lon="12.1264756"><ele>-3.0</ele><time>2026-04-26T14:49:30.878Z</time></trkpt><trkpt lat="44.67471" lon="12.1267394"><ele>-3.333333333333333</ele><time>2026-04-26T14:49:31.878Z</time></trkpt><trkpt lat="44.6747758" lon="12.1269938"><ele>-3.6666666666666665</ele><time>2026-04-26T14:49:32.879Z</time></trkpt><trkpt lat="44.6748485" lon="12.1272619"><ele>-4.0</ele><time>2026-04-26T14:49:33.879Z</time></trkpt><trkpt lat="44.6749207" lon="12.1275336"><ele>-4.0</ele><time>2026-04-26T14:49:34.878Z</time></trkpt><trkpt lat="44.6749942" lon="12.1277942"><ele>-4.0</ele><time>2026-04-26T14:49:35.878Z</time></trkpt><trkpt lat="44.6750674" lon="12.1280592"><ele>-4.0</ele><time>2026-04-26T14:49:36.879Z</time></trkpt><trkpt lat="44.6751398" lon="12.128317"><ele>-3.6666666666666665</ele><time>2026-04-26T14:49:37.878Z</time></trkpt><trkpt lat="44.6752101" lon="12.1285793"><ele>-3.333333333333333</ele><time>2026-04-26T14:49:38.878Z</time></trkpt><trkpt lat="44.6752822" lon="12.1288387"><ele>-3.0</ele><time>2026-04-26T14:49:39.879Z</time></trkpt><trkpt lat="44.6753489" lon="12.1291033"><ele>-3.666666666666667</ele><time>2026-04-26T14:49:40.879Z</time></trkpt><trkpt lat="44.6754224" lon="12.1293617"><ele>-4.333333333333334</ele><time>2026-04-26T14:49:41.878Z</time></trkpt><trkpt lat="44.6754944" lon="12.1296199"><ele>-5.0</ele><time>2026-04-26T14:49:42.878Z</time></trkpt><trkpt lat="44.6755651" lon="12.1298867"><ele>-4.666666666666667</ele><time>2026-04-26T14:49:43.878Z</time></trkpt><trkpt lat="44.6756355" lon="12.1301548"><ele>-4.333333333333333</ele><time>2026-04-26T14:49:44.878Z</time></trkpt><trkpt lat="44.6757049" lon="12.1304225"><ele>-4.0</ele><time>2026-04-26T14:49:45.878Z</time></trkpt><trkpt lat="44.6757795" lon="12.1306856"><ele>-3.6666666666666665</ele><time>2026-04-26T14:49:46.878Z</time></trkpt><trkpt lat="44.6758555" lon="12.1309463"><ele>-3.333333333333333</ele><time>2026-04-26T14:49:47.878Z</time></trkpt><trkpt lat="44.6759281" lon="12.1312104"><ele>-3.0</ele><time>2026-04-26T14:49:48.879Z</time></trkpt><trkpt lat="44.6759998" lon="12.1314763"><ele>-3.0</ele><time>2026-04-26T14:49:49.879Z</time></trkpt><trkpt lat="44.6760702" lon="12.1317416"><ele>-3.0</ele><time>2026-04-26T14:49:50.879Z</time></trkpt><trkpt lat="44.6761398" lon="12.1320072"><ele>-3.0</ele><time>2026-04-26T14:49:51.878Z</time></trkpt><trkpt lat="44.6762112" lon="12.1322746"><ele>-3.0</ele><time>2026-04-26T14:49:52.879Z</time></trkpt><trkpt lat="44.6762846" lon="12.1325399"><ele>-3.0</ele><time>2026-04-26T14:49:53.879Z</time></trkpt><trkpt lat="44.6763573" lon="12.1328041"><ele>-3.0</ele><time>2026-04-26T14:49:54.879Z</time></trkpt><trkpt lat="44.6764245" lon="12.1330692"><ele>-3.333333333333333</ele><time>2026-04-26T14:49:55.879Z</time></trkpt><trkpt lat="44.6764958" lon="12.1333358"><ele>-3.6666666666666665</ele><time>2026-04-26T14:49:56.878Z</time></trkpt><trkpt lat="44.6765644" lon="12.1336008"><ele>-4.0</ele><time>2026-04-26T14:49:57.879Z</time></trkpt><trkpt lat="44.6766368" lon="12.1338664"><ele>-3.6666666666666665</ele><time>2026-04-26T14:49:58.878Z</time></trkpt><trkpt lat="44.6767112" lon="12.1341167"><ele>-3.333333333333333</ele><time>2026-04-26T14:49:59.878Z</time></trkpt><trkpt lat="44.6767815" lon="12.1343775"><ele>-3.0</ele><time>2026-04-26T14:50:00.878Z</time></trkpt><trkpt lat="44.6768486" lon="12.1346356"><ele>-3.0</ele><time>2026-04-26T14:50:01.878Z</time></trkpt><trkpt lat="44.6769155" lon="12.1348815"><ele>-3.0</ele><time>2026-04-26T14:50:02.878Z</time></trkpt><trkpt lat="44.6769841" lon="12.1351225"><ele>-3.0</ele><time>2026-04-26T14:50:03.878Z</time></trkpt><trkpt lat="44.6770507" lon="12.1353623"><ele>-3.0</ele><time>2026-04-26T14:50:04.879Z</time></trkpt><trkpt lat="44.6771167" lon="12.1356041"><ele>-3.0</ele><time>2026-04-26T14:50:05.878Z</time></trkpt><trkpt lat="44.6771807" lon="12.1358467"><ele>-3.0</ele><time>2026-04-26T14:50:06.878Z</time></trkpt><trkpt lat="44.6772432" lon="12.1360791"><ele>-3.0</ele><time>2026-04-26T14:50:07.879Z</time></trkpt><trkpt lat="44.6773154" lon="12.1363251"><ele>-3.0</ele><time>2026-04-26T14:50:08.878Z</time></trkpt><trkpt lat="44.6773789" lon="12.1365637"><ele>-3.0</ele><time>2026-04-26T14:50:09.879Z</time></trkpt><trkpt lat="44.677434" lon="12.1368019"><ele>-3.0</ele><time>2026-04-26T14:50:10.879Z</time></trkpt><trkpt lat="44.6775003" lon="12.1370451"><ele>-3.0</ele><time>2026-04-26T14:50:11.878Z</time></trkpt><trkpt lat="44.6775638" lon="12.1372892"><ele>-3.0</ele><time>2026-04-26T14:50:12.879Z</time></trkpt><trkpt lat="44.6776352" lon="12.1375394"><ele>-3.0</ele><time>2026-04-26T14:50:13.878Z</time></trkpt><trkpt lat="44.6777036" lon="12.137787"><ele>-3.0</ele><time>2026-04-26T14:50:14.878Z</time></trkpt><trkpt lat="44.6777779" lon="12.1380382"><ele>-3.0</ele><time>2026-04-26T14:50:15.878Z</time></trkpt><trkpt lat="44.6778453" lon="12.1382895"><ele>-2.6666666666666665</ele><time>2026-04-26T14:50:16.878Z</time></trkpt><trkpt lat="44.6779127" lon="12.1385402"><ele>-2.333333333333333</ele><time>2026-04-26T14:50:17.878Z</time></trkpt><trkpt lat="44.6779796" lon="12.1387911"><ele>-2.0</ele><time>2026-04-26T14:50:18.878Z</time></trkpt><trkpt lat="44.6780475" lon="12.1390478"><ele>-2.0</ele><time>2026-04-26T14:50:19.879Z</time></trkpt><trkpt lat="44.6781129" lon="12.1393118"><ele>-2.0</ele><time>2026-04-26T14:50:20.878Z</time></trkpt><trkpt lat="44.6781786" lon="12.1395696"><ele>-2.0</ele><time>2026-04-26T14:50:21.878Z</time></trkpt><trkpt lat="44.6782446" lon="12.1398224"><ele>-2.333333333333333</ele><time>2026-04-26T14:50:22.878Z</time></trkpt><trkpt lat="44.6783181" lon="12.1400803"><ele>-2.6666666666666665</ele><time>2026-04-26T14:50:23.879Z</time></trkpt><trkpt lat="44.6783875" lon="12.1403421"><ele>-3.0</ele><time>2026-04-26T14:50:24.878Z</time></trkpt><trkpt lat="44.6784574" lon="12.1406026"><ele>-3.333333333333333</ele><time>2026-04-26T14:50:25.879Z</time></trkpt><trkpt lat="44.6785247" lon="12.1408596"><ele>-3.6666666666666665</ele><time>2026-04-26T14:50:26.879Z</time></trkpt><trkpt lat="44.6785932" lon="12.1411152"><ele>-4.0</ele><time>2026-04-26T14:50:27.878Z</time></trkpt><trkpt lat="44.6786674" lon="12.1413717"><ele>-3.6666666666666665</ele><time>2026-04-26T14:50:28.878Z</time></trkpt><trkpt lat="44.6787387" lon="12.1416301"><ele>-3.333333333333333</ele><time>2026-04-26T14:50:29.878Z</time></trkpt><trkpt lat="44.6788085" lon="12.1418836"><ele>-3.0</ele><time>2026-04-26T14:50:30.878Z</time></trkpt><trkpt lat="44.678876" lon="12.1421393"><ele>-2.6666666666666665</ele><time>2026-04-26T14:50:31.878Z</time></trkpt><trkpt lat="44.678942" lon="12.1423838"><ele>-2.333333333333333</ele><time>2026-04-26T14:50:32.878Z</time></trkpt><trkpt lat="44.6790067" lon="12.14262"><ele>-2.0</ele><time>2026-04-26T14:50:33.879Z</time></trkpt><trkpt lat="44.6790695" lon="12.1428425"><ele>-2.0</ele><time>2026-04-26T14:50:34.878Z</time></trkpt><trkpt lat="44.6791302" lon="12.1430615"><ele>-2.0</ele><time>2026-04-26T14:50:35.878Z</time></trkpt><trkpt lat="44.6791893" lon="12.1432843"><ele>-2.0</ele><time>2026-04-26T14:50:36.878Z</time></trkpt><trkpt lat="44.6792475" lon="12.1434925"><ele>-1.6666666666666665</ele><time>2026-04-26T14:50:37.878Z</time></trkpt><trkpt lat="44.6793009" lon="12.1436991"><ele>-1.3333333333333333</ele><time>2026-04-26T14:50:38.879Z</time></trkpt><trkpt lat="44.6793584" lon="12.1439029"><ele>-1.0</ele><time>2026-04-26T14:50:39.879Z</time></trkpt><trkpt lat="44.6794144" lon="12.1441145"><ele>-1.3333333333333333</ele><time>2026-04-26T14:50:40.878Z</time></trkpt><trkpt lat="44.6794684" lon="12.1443376"><ele>-1.6666666666666665</ele><time>2026-04-26T14:50:41.879Z</time></trkpt><trkpt lat="44.679533" lon="12.1445658"><ele>-2.0</ele><time>2026-04-26T14:50:42.878Z</time></trkpt><trkpt lat="44.6795992" lon="12.1447989"><ele>-2.333333333333333</ele><time>2026-04-26T14:50:43.879Z</time></trkpt><trkpt lat="44.6796628" lon="12.1450326"><ele>-2.6666666666666665</ele><time>2026-04-26T14:50:44.878Z</time></trkpt><trkpt lat="44.679726" lon="12.1452743"><ele>-3.0</ele><time>2026-04-26T14:50:45.879Z</time></trkpt><trkpt lat="44.6797881" lon="12.1455155"><ele>-3.333333333333333</ele><time>2026-04-26T14:50:46.878Z</time></trkpt><trkpt lat="44.6798578" lon="12.1457625"><ele>-3.6666666666666665</ele><time>2026-04-26T14:50:47.878Z</time></trkpt><trkpt lat="44.6799261" lon="12.1460106"><ele>-4.0</ele><time>2026-04-26T14:50:48.878Z</time></trkpt><trkpt lat="44.6799903" lon="12.1462597"><ele>-4.0</ele><time>2026-04-26T14:50:49.879Z</time></trkpt><trkpt lat="44.6800566" lon="12.1465082"><ele>-4.0</ele><time>2026-04-26T14:50:50.878Z</time></trkpt><trkpt lat="44.6801263" lon="12.1467596"><ele>-4.0</ele><time>2026-04-26T14:50:51.878Z</time></trkpt><trkpt lat="44.6801946" lon="12.147008"><ele>-3.6666666666666665</ele><time>2026-04-26T14:50:52.879Z</time></trkpt><trkpt lat="44.6802655" lon="12.1472601"><ele>-3.333333333333333</ele><time>2026-04-26T14:50:53.879Z</time></trkpt><trkpt lat="44.680331" lon="12.1475173"><ele>-3.0</ele><time>2026-04-26T14:50:54.878Z</time></trkpt><trkpt lat="44.6804001" lon="12.1477741"><ele>-3.0</ele><time>2026-04-26T14:50:55.879Z</time></trkpt><trkpt lat="44.6804676" lon="12.1480326"><ele>-3.0</ele><time>2026-04-26T14:50:56.878Z</time></trkpt><trkpt lat="44.68054" lon="12.1482919"><ele>-3.0</ele><time>2026-04-26T14:50:57.878Z</time></trkpt><trkpt lat="44.6806093" lon="12.148549"><ele>-2.3333333333333335</ele><time>2026-04-26T14:50:58.878Z</time></trkpt><trkpt lat="44.6806794" lon="12.148807"><ele>-1.6666666666666665</ele><time>2026-04-26T14:50:59.878Z</time></trkpt><trkpt lat="44.6807483" lon="12.1490661"><ele>-1.0</ele><time>2026-04-26T14:51:00.879Z</time></trkpt><trkpt lat="44.6808186" lon="12.1493278"><ele>-1.0</ele><time>2026-04-26T14:51:01.878Z</time></trkpt><trkpt lat="44.6808882" lon="12.1495888"><ele>-1.0</ele><time>2026-04-26T14:51:02.879Z</time></trkpt><trkpt lat="44.68096" lon="12.1498546"><ele>-1.0</ele><time>2026-04-26T14:51:03.879Z</time></trkpt><trkpt lat="44.6810273" lon="12.1501154"><ele>-2.3333333333333335</ele><time>2026-04-26T14:51:04.879Z</time></trkpt><trkpt lat="44.6811013" lon="12.1503775"><ele>-3.666666666666667</ele><time>2026-04-26T14:51:05.878Z</time></trkpt><trkpt lat="44.6811714" lon="12.1506375"><ele>-5.0</ele><time>2026-04-26T14:51:06.879Z</time></trkpt><trkpt lat="44.6812454" lon="12.150901"><ele>-5.0</ele><time>2026-04-26T14:51:07.879Z</time></trkpt><trkpt lat="44.6813154" lon="12.151165"><ele>-5.0</ele><time>2026-04-26T14:51:08.878Z</time></trkpt><trkpt lat="44.6813891" lon="12.1514291"><ele>-5.0</ele><time>2026-04-26T14:51:09.878Z</time></trkpt><trkpt lat="44.6814621" lon="12.1516947"><ele>-4.666666666666667</ele><time>2026-04-26T14:51:10.878Z</time></trkpt><trkpt lat="44.6815324" lon="12.1519621"><ele>-4.333333333333333</ele><time>2026-04-26T14:51:11.879Z</time></trkpt><trkpt lat="44.6815998" lon="12.1522307"><ele>-4.0</ele><time>2026-04-26T14:51:12.878Z</time></trkpt><trkpt lat="44.6816727" lon="12.1524971"><ele>-4.0</ele><time>2026-04-26T14:51:13.878Z</time></trkpt><trkpt lat="44.6817505" lon="12.1527693"><ele>-4.0</ele><time>2026-04-26T14:51:14.878Z</time></trkpt><trkpt lat="44.6818181" lon="12.1530355"><ele>-4.0</ele><time>2026-04-26T14:51:15.878Z</time></trkpt><trkpt lat="44.6818903" lon="12.1533045"><ele>-4.0</ele><time>2026-04-26T14:51:16.878Z</time></trkpt><trkpt lat="44.681963" lon="12.1535709"><ele>-4.0</ele><time>2026-04-26T14:51:17.878Z</time></trkpt><trkpt lat="44.6820346" lon="12.1538408"><ele>-4.0</ele><time>2026-04-26T14:51:18.879Z</time></trkpt><trkpt lat="44.6821065" lon="12.1541109"><ele>-4.0</ele><time>2026-04-26T14:51:19.878Z</time></trkpt><trkpt lat="44.6821767" lon="12.1543799"><ele>-4.0</ele><time>2026-04-26T14:51:20.879Z</time></trkpt><trkpt lat="44.6822509" lon="12.1546478"><ele>-4.0</ele><time>2026-04-26T14:51:21.879Z</time></trkpt><trkpt lat="44.6823259" lon="12.1549173"><ele>-4.0</ele><time>2026-04-26T14:51:22.878Z</time></trkpt><trkpt lat="44.6823992" lon="12.1551871"><ele>-4.0</ele><time>2026-04-26T14:51:23.878Z</time></trkpt><trkpt lat="44.6824691" lon="12.1554559"><ele>-4.0</ele><time>2026-04-26T14:51:24.878Z</time></trkpt><trkpt lat="44.6825407" lon="12.1557279"><ele>-4.0</ele><time>2026-04-26T14:51:25.878Z</time></trkpt><trkpt lat="44.6826117" lon="12.1559995"><ele>-4.0</ele><time>2026-04-26T14:51:26.878Z</time></trkpt><trkpt lat="44.6826855" lon="12.156265"><ele>-4.0</ele><time>2026-04-26T14:51:27.878Z</time></trkpt><trkpt lat="44.6827574" lon="12.1565363"><ele>-4.0</ele><time>2026-04-26T14:51:28.878Z</time></trkpt><trkpt lat="44.6828314" lon="12.1568046"><ele>-4.0</ele><time>2026-04-26T14:51:29.878Z</time></trkpt><trkpt lat="44.6829055" lon="12.1570728"><ele>-4.0</ele><time>2026-04-26T14:51:30.878Z</time></trkpt><trkpt lat="44.6829802" lon="12.1573401"><ele>-3.333333333333333</ele><time>2026-04-26T14:51:31.879Z</time></trkpt><trkpt lat="44.6830545" lon="12.1576061"><ele>-2.6666666666666665</ele><time>2026-04-26T14:51:32.879Z</time></trkpt><trkpt lat="44.6831262" lon="12.1578708"><ele>-2.0</ele><time>2026-04-26T14:51:33.878Z</time></trkpt><trkpt lat="44.6831989" lon="12.1581336"><ele>-2.6666666666666665</ele><time>2026-04-26T14:51:34.878Z</time></trkpt><trkpt lat="44.6832683" lon="12.1583955"><ele>-3.333333333333333</ele><time>2026-04-26T14:51:35.879Z</time></trkpt><trkpt lat="44.6833386" lon="12.158657"><ele>-4.0</ele><time>2026-04-26T14:51:36.879Z</time></trkpt><trkpt lat="44.6834066" lon="12.158917"><ele>-4.0</ele><time>2026-04-26T14:51:37.879Z</time></trkpt><trkpt lat="44.6834787" lon="12.1591769"><ele>-4.0</ele><time>2026-04-26T14:51:38.878Z</time></trkpt><trkpt lat="44.683548" lon="12.1594385"><ele>-4.0</ele><time>2026-04-26T14:51:39.879Z</time></trkpt><trkpt lat="44.6836184" lon="12.1596975"><ele>-3.6666666666666665</ele><time>2026-04-26T14:51:40.878Z</time></trkpt><trkpt lat="44.6836895" lon="12.159957"><ele>-3.333333333333333</ele><time>2026-04-26T14:51:41.878Z</time></trkpt><trkpt lat="44.6837567" lon="12.1602183"><ele>-3.0</ele><time>2026-04-26T14:51:42.879Z</time></trkpt><trkpt lat="44.6838264" lon="12.160475"><ele>-3.0</ele><time>2026-04-26T14:51:43.878Z</time></trkpt><trkpt lat="44.683894" lon="12.160735"><ele>-3.0</ele><time>2026-04-26T14:51:44.878Z</time></trkpt><trkpt lat="44.6839629" lon="12.1609954"><ele>-3.0</ele><time>2026-04-26T14:51:45.878Z</time></trkpt><trkpt lat="44.6840321" lon="12.1612524"><ele>-3.0</ele><time>2026-04-26T14:51:46.879Z</time></trkpt><trkpt lat="44.6841013" lon="12.1615117"><ele>-3.0</ele><time>2026-04-26T14:51:47.878Z</time></trkpt><trkpt lat="44.6841732" lon="12.1617744"><ele>-3.0</ele><time>2026-04-26T14:51:48.878Z</time></trkpt><trkpt lat="44.6842458" lon="12.1620304"><ele>-3.333333333333333</ele><time>2026-04-26T14:51:49.878Z</time></trkpt><trkpt lat="44.684316" lon="12.1622888"><ele>-3.6666666666666665</ele><time>2026-04-26T14:51:50.878Z</time></trkpt><trkpt lat="44.6843873" lon="12.1625488"><ele>-4.0</ele><time>2026-04-26T14:51:51.878Z</time></trkpt><trkpt lat="44.6844604" lon="12.162813"><ele>-4.0</ele><time>2026-04-26T14:51:52.878Z</time></trkpt><trkpt lat="44.6845311" lon="12.163077"><ele>-4.0</ele><time>2026-04-26T14:51:53.879Z</time></trkpt><trkpt lat="44.684601" lon="12.1633405"><ele>-4.0</ele><time>2026-04-26T14:51:54.879Z</time></trkpt><trkpt lat="44.684671" lon="12.163603"><ele>-4.0</ele><time>2026-04-26T14:51:55.879Z</time></trkpt><trkpt lat="44.6847439" lon="12.163865"><ele>-4.0</ele><time>2026-04-26T14:51:56.879Z</time></trkpt><trkpt lat="44.6848171" lon="12.164131"><ele>-4.0</ele><time>2026-04-26T14:51:57.879Z</time></trkpt><trkpt lat="44.6848906" lon="12.1643968"><ele>-3.6666666666666665</ele><time>2026-04-26T14:51:58.878Z</time></trkpt><trkpt lat="44.6849604" lon="12.1646589"><ele>-3.333333333333333</ele><time>2026-04-26T14:51:59.879Z</time></trkpt><trkpt lat="44.6850315" lon="12.1649236"><ele>-3.0</ele><time>2026-04-26T14:52:00.878Z</time></trkpt><trkpt lat="44.6851057" lon="12.1651901"><ele>-3.0</ele><time>2026-04-26T14:52:01.878Z</time></trkpt><trkpt lat="44.6851766" lon="12.1654597"><ele>-3.0</ele><time>2026-04-26T14:52:02.879Z</time></trkpt><trkpt lat="44.6852482" lon="12.165727"><ele>-3.0</ele><time>2026-04-26T14:52:03.879Z</time></trkpt><trkpt lat="44.6853207" lon="12.1659956"><ele>-3.0</ele><time>2026-04-26T14:52:04.878Z</time></trkpt><trkpt lat="44.685396" lon="12.1662646"><ele>-3.0</ele><time>2026-04-26T14:52:05.879Z</time></trkpt><trkpt lat="44.6854701" lon="12.166532"><ele>-3.0</ele><time>2026-04-26T14:52:06.878Z</time></trkpt><trkpt lat="44.6855387" lon="12.1668002"><ele>-3.0</ele><time>2026-04-26T14:52:07.879Z</time></trkpt><trkpt lat="44.6856117" lon="12.1670701"><ele>-3.0</ele><time>2026-04-26T14:52:08.878Z</time></trkpt><trkpt lat="44.6856837" lon="12.1673359"><ele>-3.0</ele><time>2026-04-26T14:52:09.878Z</time></trkpt><trkpt lat="44.6857512" lon="12.1676063"><ele>-3.333333333333333</ele><time>2026-04-26T14:52:10.879Z</time></trkpt><trkpt lat="44.685827" lon="12.1678759"><ele>-3.6666666666666665</ele><time>2026-04-26T14:52:11.879Z</time></trkpt><trkpt lat="44.6858963" lon="12.1681452"><ele>-4.0</ele><time>2026-04-26T14:52:12.878Z</time></trkpt><trkpt lat="44.6859684" lon="12.168411"><ele>-4.0</ele><time>2026-04-26T14:52:13.879Z</time></trkpt><trkpt lat="44.6860431" lon="12.1686819"><ele>-4.0</ele><time>2026-04-26T14:52:14.879Z</time></trkpt><trkpt lat="44.6861145" lon="12.168949"><ele>-4.0</ele><time>2026-04-26T14:52:15.879Z</time></trkpt><trkpt lat="44.6861866" lon="12.1692138"><ele>-4.0</ele><time>2026-04-26T14:52:16.878Z</time></trkpt><trkpt lat="44.6862569" lon="12.1694811"><ele>-4.0</ele><time>2026-04-26T14:52:17.878Z</time></trkpt><trkpt lat="44.6863265" lon="12.1697496"><ele>-4.0</ele><time>2026-04-26T14:52:18.878Z</time></trkpt><trkpt lat="44.6863996" lon="12.1700161"><ele>-4.0</ele><time>2026-04-26T14:52:19.879Z</time></trkpt><trkpt lat="44.6864731" lon="12.1702795"><ele>-4.0</ele><time>2026-04-26T14:52:20.878Z</time></trkpt><trkpt lat="44.6865418" lon="12.1705463"><ele>-4.0</ele><time>2026-04-26T14:52:21.878Z</time></trkpt><trkpt lat="44.6866138" lon="12.1708119"><ele>-4.0</ele><time>2026-04-26T14:52:22.878Z</time></trkpt><trkpt lat="44.6866932" lon="12.1710746"><ele>-4.0</ele><time>2026-04-26T14:52:23.878Z</time></trkpt><trkpt lat="44.6867669" lon="12.171335"><ele>-4.0</ele><time>2026-04-26T14:52:24.879Z</time></trkpt><trkpt lat="44.6868436" lon="12.1715982"><ele>-4.0</ele><time>2026-04-26T14:52:25.878Z</time></trkpt><trkpt lat="44.6869173" lon="12.1718618"><ele>-4.0</ele><time>2026-04-26T14:52:26.878Z</time></trkpt><trkpt lat="44.6869884" lon="12.172129"><ele>-4.0</ele><time>2026-04-26T14:52:27.878Z</time></trkpt><trkpt lat="44.6870568" lon="12.1723932"><ele>-4.0</ele><time>2026-04-26T14:52:28.878Z</time></trkpt><trkpt lat="44.6871258" lon="12.1726597"><ele>-4.0</ele><time>2026-04-26T14:52:29.879Z</time></trkpt><trkpt lat="44.687194" lon="12.1729309"><ele>-4.0</ele><time>2026-04-26T14:52:30.879Z</time></trkpt><trkpt lat="44.6872643" lon="12.173193"><ele>-4.0</ele><time>2026-04-26T14:52:31.878Z</time></trkpt><trkpt lat="44.6873326" lon="12.1734583"><ele>-4.0</ele><time>2026-04-26T14:52:32.878Z</time></trkpt><trkpt lat="44.6874031" lon="12.1737201"><ele>-4.0</ele><time>2026-04-26T14:52:33.879Z</time></trkpt><trkpt lat="44.6874769" lon="12.1739799"><ele>-3.6666666666666665</ele><time>2026-04-26T14:52:34.879Z</time></trkpt><trkpt lat="44.6875462" lon="12.1742408"><ele>-3.333333333333333</ele><time>2026-04-26T14:52:35.878Z</time></trkpt><trkpt lat="44.6876103" lon="12.1744847"><ele>-3.0</ele><time>2026-04-26T14:52:36.879Z</time></trkpt><trkpt lat="44.6876722" lon="12.1747076"><ele>-2.6666666666666665</ele><time>2026-04-26T14:52:37.879Z</time></trkpt><trkpt lat="44.6877379" lon="12.1749114"><ele>-2.333333333333333</ele><time>2026-04-26T14:52:38.878Z</time></trkpt><trkpt lat="44.6878169" lon="12.1750945"><ele>-2.0</ele><time>2026-04-26T14:52:39.878Z</time></trkpt><trkpt lat="44.6879073" lon="12.175259"><ele>-2.6666666666666665</ele><time>2026-04-26T14:52:40.879Z</time></trkpt><trkpt lat="44.68801" lon="12.1754119"><ele>-3.333333333333333</ele><time>2026-04-26T14:52:41.878Z</time></trkpt><trkpt lat="44.6881254" lon="12.1755521"><ele>-4.0</ele><time>2026-04-26T14:52:42.878Z</time></trkpt><trkpt lat="44.6882506" lon="12.1756761"><ele>-3.6666666666666665</ele><time>2026-04-26T14:52:43.878Z</time></trkpt><trkpt lat="44.6883808" lon="12.1757882"><ele>-3.333333333333333</ele><time>2026-04-26T14:52:44.878Z</time></trkpt><trkpt lat="44.6885134" lon="12.1758982"><ele>-3.0</ele><time>2026-04-26T14:52:45.879Z</time></trkpt><trkpt lat="44.6886436" lon="12.1760061"><ele>-3.0</ele><time>2026-04-26T14:52:46.878Z</time></trkpt><trkpt lat="44.6887664" lon="12.176112"><ele>-3.0</ele><time>2026-04-26T14:52:47.879Z</time></trkpt><trkpt lat="44.6888933" lon="12.1762038"><ele>-3.0</ele><time>2026-04-26T14:52:48.878Z</time></trkpt><trkpt lat="44.6890237" lon="12.1762859"><ele>-3.0</ele><time>2026-04-26T14:52:49.878Z</time></trkpt><trkpt lat="44.6891553" lon="12.1763689"><ele>-3.0</ele><time>2026-04-26T14:52:50.879Z</time></trkpt><trkpt lat="44.6892908" lon="12.1764496"><ele>-3.0</ele><time>2026-04-26T14:52:51.878Z</time></trkpt><trkpt lat="44.6894188" lon="12.1765302"><ele>-3.0</ele><time>2026-04-26T14:52:52.878Z</time></trkpt><trkpt lat="44.6895417" lon="12.1766041"><ele>-3.0</ele><time>2026-04-26T14:52:53.878Z</time></trkpt><trkpt lat="44.6896548" lon="12.1766739"><ele>-3.25</ele><time>2026-04-26T14:52:54.878Z</time></trkpt><trkpt lat="44.689772" lon="12.1767463"><ele>-3.5</ele><time>2026-04-26T14:52:55.878Z</time></trkpt><trkpt lat="44.6898751" lon="12.1768146"><ele>-3.75</ele><time>2026-04-26T14:52:56.878Z</time></trkpt><trkpt lat="44.6899789" lon="12.1768807"><ele>-4.0</ele><time>2026-04-26T14:52:57.879Z</time></trkpt><trkpt lat="44.690076" lon="12.1769513"><ele>-4.0</ele><time>2026-04-26T14:52:58.879Z</time></trkpt><trkpt lat="44.6901657" lon="12.1770269"><ele>-4.0</ele><time>2026-04-26T14:52:59.878Z</time></trkpt><trkpt lat="44.6902517" lon="12.1771129"><ele>-4.0</ele><time>2026-04-26T14:53:00.879Z</time></trkpt><trkpt lat="44.6903326" lon="12.1772067"><ele>-4.0</ele><time>2026-04-26T14:53:01.879Z</time></trkpt><trkpt lat="44.6904036" lon="12.1772944"><ele>-4.0</ele><time>2026-04-26T14:53:02.879Z</time></trkpt><trkpt lat="44.6904686" lon="12.1773834"><ele>-4.166666666666666</ele><time>2026-04-26T14:53:03.878Z</time></trkpt><trkpt lat="44.6905286" lon="12.1774645"><ele>-4.333333333333333</ele><time>2026-04-26T14:53:04.878Z</time></trkpt><trkpt lat="44.6905835" lon="12.1775466"><ele>-4.5</ele><time>2026-04-26T14:53:05.878Z</time></trkpt><trkpt lat="44.690629" lon="12.1776271"><ele>-4.666666666666667</ele><time>2026-04-26T14:53:06.878Z</time></trkpt><trkpt lat="44.690688" lon="12.1777573"><ele>-4.833333333333334</ele><time>2026-04-26T14:53:08.878Z</time></trkpt><trkpt lat="44.6907276" lon="12.1778454"><ele>-5.0</ele><time>2026-04-26T14:53:10.878Z</time></trkpt><trkpt lat="44.6907615" lon="12.1779227"><ele>-5.0</ele><time>2026-04-26T14:53:12.879Z</time></trkpt><trkpt lat="44.6908048" lon="12.1780167"><ele>-5.0</ele><time>2026-04-26T14:53:14.878Z</time></trkpt><trkpt lat="44.6908448" lon="12.1781103"><ele>-5.0</ele><time>2026-04-26T14:53:16.879Z</time></trkpt><trkpt lat="44.6908971" lon="12.1782267"><ele>-5.0</ele><time>2026-04-26T14:53:19.879Z</time></trkpt><trkpt lat="44.6909328" lon="12.1783054"><ele>-5.0</ele><time>2026-04-26T14:53:21.878Z</time></trkpt><trkpt lat="44.6909763" lon="12.1784104"><ele>-5.0</ele><time>2026-04-26T14:53:24.878Z</time></trkpt><trkpt lat="44.6910121" lon="12.1785084"><ele>-4.833333333333334</ele><time>2026-04-26T14:53:27.878Z</time></trkpt><trkpt lat="44.691054" lon="12.1785985"><ele>-4.666666666666667</ele><time>2026-04-26T14:53:29.878Z</time></trkpt><trkpt lat="44.6910923" lon="12.1786938"><ele>-4.5</ele><time>2026-04-26T14:53:31.878Z</time></trkpt><trkpt lat="44.6911299" lon="12.1787782"><ele>-4.333333333333333</ele><time>2026-04-26T14:53:33.878Z</time></trkpt><trkpt lat="44.6911581" lon="12.1788746"><ele>-4.166666666666666</ele><time>2026-04-26T14:53:36.878Z</time></trkpt><trkpt lat="44.6911314" lon="12.1789573"><ele>-4.0</ele><time>2026-04-26T14:53:40.878Z</time></trkpt><trkpt lat="44.6910926" lon="12.1790913"><ele>-3.6666666666666665</ele><time>2026-04-26T14:53:43.878Z</time></trkpt><trkpt lat="44.69105" lon="12.1791707"><ele>-3.333333333333333</ele><time>2026-04-26T14:53:44.879Z</time></trkpt><trkpt lat="44.691005" lon="12.1792632"><ele>-3.0</ele><time>2026-04-26T14:53:45.879Z</time></trkpt><trkpt lat="44.6909649" lon="12.1793689"><ele>-2.6666666666666665</ele><time>2026-04-26T14:53:46.879Z</time></trkpt><trkpt lat="44.6909389" lon="12.1794704"><ele>-2.333333333333333</ele><time>2026-04-26T14:53:47.879Z</time></trkpt><trkpt lat="44.6909198" lon="12.1795771"><ele>-2.0</ele><time>2026-04-26T14:53:48.879Z</time></trkpt><trkpt lat="44.690913" lon="12.1796756"><ele>-1.9999999999999998</ele><time>2026-04-26T14:53:49.878Z</time></trkpt><trkpt lat="44.6909127" lon="12.1797714"><ele>-2.0</ele><time>2026-04-26T14:53:50.879Z</time></trkpt><trkpt lat="44.6909212" lon="12.1798661"><ele>-2.0</ele><time>2026-04-26T14:53:51.878Z</time></trkpt><trkpt lat="44.6909385" lon="12.1799684"><ele>-2.0</ele><time>2026-04-26T14:53:52.878Z</time></trkpt><trkpt lat="44.6909566" lon="12.1800764"><ele>-1.9999999999999998</ele><time>2026-04-26T14:53:53.879Z</time></trkpt><trkpt lat="44.6909857" lon="12.1801888"><ele>-2.0</ele><time>2026-04-26T14:53:54.878Z</time></trkpt><trkpt lat="44.6910201" lon="12.1803023"><ele>-1.8</ele><time>2026-04-26T14:53:55.879Z</time></trkpt><trkpt lat="44.691057" lon="12.1804222"><ele>-1.6</ele><time>2026-04-26T14:53:56.878Z</time></trkpt><trkpt lat="44.6910985" lon="12.1805463"><ele>-1.4000000000000001</ele><time>2026-04-26T14:53:57.878Z</time></trkpt><trkpt lat="44.6911431" lon="12.1806743"><ele>-1.2000000000000002</ele><time>2026-04-26T14:53:58.878Z</time></trkpt><trkpt lat="44.6911842" lon="12.1808024"><ele>-1.0</ele><time>2026-04-26T14:53:59.879Z</time></trkpt><trkpt lat="44.6912294" lon="12.1809326"><ele>-0.8</ele><time>2026-04-26T14:54:00.878Z</time></trkpt><trkpt lat="44.6912759" lon="12.181064"><ele>-0.6000000000000001</ele><time>2026-04-26T14:54:01.878Z</time></trkpt><trkpt lat="44.6913169" lon="12.1811932"><ele>-0.4</ele><time>2026-04-26T14:54:02.878Z</time></trkpt><trkpt lat="44.6913601" lon="12.1813189"><ele>-0.2</ele><time>2026-04-26T14:54:03.878Z</time></trkpt><trkpt lat="44.6914007" lon="12.1814444"><ele>0.0</ele><time>2026-04-26T14:54:04.879Z</time></trkpt><trkpt lat="44.6914442" lon="12.1815777"><ele>0.2</ele><time>2026-04-26T14:54:05.878Z</time></trkpt><trkpt lat="44.6914909" lon="12.1817032"><ele>0.4</ele><time>2026-04-26T14:54:06.879Z</time></trkpt><trkpt lat="44.6915342" lon="12.1818321"><ele>0.6000000000000001</ele><time>2026-04-26T14:54:07.879Z</time></trkpt><trkpt lat="44.6915793" lon="12.1819565"><ele>0.8</ele><time>2026-04-26T14:54:08.879Z</time></trkpt><trkpt lat="44.6916314" lon="12.1820615"><ele>1.0</ele><time>2026-04-26T14:54:09.878Z</time></trkpt><trkpt lat="44.6916803" lon="12.1821523"><ele>0.9999999999999999</ele><time>2026-04-26T14:54:10.878Z</time></trkpt><trkpt lat="44.6917236" lon="12.1822323"><ele>1.0</ele><time>2026-04-26T14:54:11.879Z</time></trkpt><trkpt lat="44.691791" lon="12.1823539"><ele>1.0</ele><time>2026-04-26T14:54:13.879Z</time></trkpt><trkpt lat="44.6918369" lon="12.1824309"><ele>1.0</ele><time>2026-04-26T14:54:15.878Z</time></trkpt><trkpt lat="44.6918998" lon="12.1824525"><ele>0.9999999999999999</ele><time>2026-04-26T14:54:17.879Z</time></trkpt><trkpt lat="44.6919786" lon="12.182445"><ele>1.0</ele><time>2026-04-26T14:54:20.879Z</time></trkpt><trkpt lat="44.6919265" lon="12.1823719"><ele>2.0</ele><time>2026-04-26T14:54:45.878Z</time></trkpt><trkpt lat="44.6918648" lon="12.1824203"><ele>3.0</ele><time>2026-04-26T14:54:48.879Z</time></trkpt><trkpt lat="44.6917831" lon="12.1824563"><ele>3.0</ele><time>2026-04-26T14:54:50.878Z</time></trkpt><trkpt lat="44.691781" lon="12.1825714"><ele>3.0</ele><time>2026-04-26T14:54:53.879Z</time></trkpt><trkpt lat="44.6918371" lon="12.1826332"><ele>3.0</ele><time>2026-04-26T14:54:55.879Z</time></trkpt></trkseg><trkseg><trkpt lat="44.6917432" lon="12.1830891"><ele>3.0</ele><time>2026-04-26T15:55:47.869Z</time></trkpt><trkpt lat="44.6918857" lon="12.1827758"><ele>3.0</ele><time>2026-04-26T15:55:52.866Z</time></trkpt><trkpt lat="44.6919448" lon="12.1827287"><ele>3.0</ele><time>2026-04-26T15:55:58.867Z</time></trkpt><trkpt lat="44.6919133" lon="12.1826472"><ele>3.0</ele><time>2026-04-26T15:56:13.866Z</time></trkpt><trkpt lat="44.6918362" lon="12.1825427"><ele>3.0</ele><time>2026-04-26T15:57:35.867Z</time></trkpt><trkpt lat="44.6918338" lon="12.1826477"><ele>3.0</ele><time>2026-04-26T15:58:12.866Z</time></trkpt><trkpt lat="44.6919048" lon="12.1827943"><ele>3.0</ele><time>2026-04-26T15:58:15.867Z</time></trkpt><trkpt lat="44.6919613" lon="12.1828636"><ele>3.0</ele><time>2026-04-26T15:58:18.867Z</time></trkpt><trkpt lat="44.6920281" lon="12.1828731"><ele>3.0</ele><time>2026-04-26T15:59:53.867Z</time></trkpt><trkpt lat="44.6920895" lon="12.1829395"><ele>3.0</ele><time>2026-04-26T15:59:56.866Z</time></trkpt><trkpt lat="44.6921397" lon="12.1830262"><ele>2.8333333333333335</ele><time>2026-04-26T15:59:58.866Z</time></trkpt><trkpt lat="44.6922196" lon="12.1831455"><ele>2.6666666666666665</ele><time>2026-04-26T16:00:00.867Z</time></trkpt><trkpt lat="44.6922669" lon="12.1832165"><ele>2.5</ele><time>2026-04-26T16:00:01.866Z</time></trkpt><trkpt lat="44.6923161" lon="12.1832948"><ele>2.333333333333333</ele><time>2026-04-26T16:00:02.866Z</time></trkpt><trkpt lat="44.6923728" lon="12.1833753"><ele>2.1666666666666665</ele><time>2026-04-26T16:00:03.866Z</time></trkpt><trkpt lat="44.6924237" lon="12.1834568"><ele>2.0</ele><time>2026-04-26T16:00:04.867Z</time></trkpt><trkpt lat="44.692467" lon="12.1835264"><ele>1.75</ele><time>2026-04-26T16:00:05.867Z</time></trkpt><trkpt lat="44.6925377" lon="12.1836493"><ele>1.5</ele><time>2026-04-26T16:00:07.867Z</time></trkpt><trkpt lat="44.6925975" lon="12.1837574"><ele>1.25</ele><time>2026-04-26T16:00:09.866Z</time></trkpt><trkpt lat="44.692671" lon="12.183867"><ele>1.0</ele><time>2026-04-26T16:00:11.867Z</time></trkpt><trkpt lat="44.6927615" lon="12.184009"><ele>1.1666666666666665</ele><time>2026-04-26T16:00:13.866Z</time></trkpt><trkpt lat="44.69281" lon="12.1840945"><ele>1.3333333333333333</ele><time>2026-04-26T16:00:14.866Z</time></trkpt><trkpt lat="44.6928528" lon="12.1841832"><ele>1.5</ele><time>2026-04-26T16:00:15.867Z</time></trkpt><trkpt lat="44.6928804" lon="12.1842687"><ele>1.6666666666666665</ele><time>2026-04-26T16:00:16.866Z</time></trkpt><trkpt lat="44.6929096" lon="12.1844161"><ele>1.8333333333333333</ele><time>2026-04-26T16:00:18.866Z</time></trkpt><trkpt lat="44.692902" lon="12.1845322"><ele>2.0</ele><time>2026-04-26T16:00:20.867Z</time></trkpt><trkpt lat="44.6928724" lon="12.1846343"><ele>1.9999999999999998</ele><time>2026-04-26T16:00:22.867Z</time></trkpt><trkpt lat="44.6928264" lon="12.1847201"><ele>2.0</ele><time>2026-04-26T16:00:24.867Z</time></trkpt><trkpt lat="44.6927735" lon="12.184799"><ele>2.0</ele><time>2026-04-26T16:00:26.867Z</time></trkpt><trkpt lat="44.6927446" lon="12.1848842"><ele>2.0</ele><time>2026-04-26T16:00:28.866Z</time></trkpt><trkpt lat="44.6927432" lon="12.1850156"><ele>1.9999999999999998</ele><time>2026-04-26T16:00:31.867Z</time></trkpt><trkpt lat="44.6927562" lon="12.1851489"><ele>2.0</ele><time>2026-04-26T16:00:34.867Z</time></trkpt><trkpt lat="44.6927547" lon="12.1852503"><ele>1.8333333333333333</ele><time>2026-04-26T16:00:36.867Z</time></trkpt><trkpt lat="44.6927467" lon="12.1853547"><ele>1.6666666666666665</ele><time>2026-04-26T16:00:38.867Z</time></trkpt><trkpt lat="44.6927345" lon="12.1854476"><ele>1.5</ele><time>2026-04-26T16:00:40.866Z</time></trkpt><trkpt lat="44.6927136" lon="12.1855737"><ele>1.3333333333333333</ele><time>2026-04-26T16:00:43.866Z</time></trkpt><trkpt lat="44.6927031" lon="12.1856864"><ele>1.1666666666666665</ele><time>2026-04-26T16:00:46.867Z</time></trkpt><trkpt lat="44.6926964" lon="12.1857831"><ele>1.0</ele><time>2026-04-26T16:00:49.867Z</time></trkpt><trkpt lat="44.6926828" lon="12.1858765"><ele>1.0</ele><time>2026-04-26T16:00:52.866Z</time></trkpt><trkpt lat="44.6926667" lon="12.1859898"><ele>0.9999999999999999</ele><time>2026-04-26T16:00:55.867Z</time></trkpt><trkpt lat="44.6926526" lon="12.1860799"><ele>1.0</ele><time>2026-04-26T16:00:57.866Z</time></trkpt><trkpt lat="44.6926439" lon="12.1861787"><ele>1.0</ele><time>2026-04-26T16:00:59.866Z</time></trkpt><trkpt lat="44.6926333" lon="12.1862816"><ele>0.9999999999999999</ele><time>2026-04-26T16:01:01.867Z</time></trkpt><trkpt lat="44.6926238" lon="12.1863905"><ele>1.0</ele><time>2026-04-26T16:01:03.867Z</time></trkpt><trkpt lat="44.6926132" lon="12.1864952"><ele>1.0</ele><time>2026-04-26T16:01:05.867Z</time></trkpt><trkpt lat="44.6926055" lon="12.1865888"><ele>1.0</ele><time>2026-04-26T16:01:07.867Z</time></trkpt><trkpt lat="44.6925969" lon="12.1866974"><ele>1.0</ele><time>2026-04-26T16:01:09.866Z</time></trkpt><trkpt lat="44.6925872" lon="12.1868356"><ele>1.0</ele><time>2026-04-26T16:01:11.866Z</time></trkpt><trkpt lat="44.6925736" lon="12.1869705"><ele>1.0</ele><time>2026-04-26T16:01:13.866Z</time></trkpt><trkpt lat="44.6925518" lon="12.1870896"><ele>1.0</ele><time>2026-04-26T16:01:15.866Z</time></trkpt><trkpt lat="44.6925295" lon="12.1872395"><ele>0.9999999999999999</ele><time>2026-04-26T16:01:17.867Z</time></trkpt><trkpt lat="44.6925001" lon="12.1874136"><ele>1.0</ele><time>2026-04-26T16:01:19.867Z</time></trkpt><trkpt lat="44.6924901" lon="12.187509"><ele>1.0</ele><time>2026-04-26T16:01:20.866Z</time></trkpt><trkpt lat="44.6924804" lon="12.1876085"><ele>1.0</ele><time>2026-04-26T16:01:21.867Z</time></trkpt><trkpt lat="44.692467" lon="12.1877106"><ele>0.9999999999999999</ele><time>2026-04-26T16:01:22.866Z</time></trkpt><trkpt lat="44.6924543" lon="12.1878195"><ele>1.0</ele><time>2026-04-26T16:01:23.866Z</time></trkpt><trkpt lat="44.6924424" lon="12.1879231"><ele>0.9999999999999999</ele><time>2026-04-26T16:01:24.867Z</time></trkpt><trkpt lat="44.692427" lon="12.188029"><ele>1.0</ele><time>2026-04-26T16:01:25.866Z</time></trkpt><trkpt lat="44.6924107" lon="12.1881336"><ele>1.0</ele><time>2026-04-26T16:01:26.866Z</time></trkpt><trkpt lat="44.6924014" lon="12.1882353"><ele>1.0</ele><time>2026-04-26T16:01:27.866Z</time></trkpt><trkpt lat="44.6923864" lon="12.1883394"><ele>0.9999999999999999</ele><time>2026-04-26T16:01:28.866Z</time></trkpt><trkpt lat="44.6923703" lon="12.1884428"><ele>1.0</ele><time>2026-04-26T16:01:29.866Z</time></trkpt><trkpt lat="44.6923546" lon="12.1885484"><ele>0.8333333333333333</ele><time>2026-04-26T16:01:30.866Z</time></trkpt><trkpt lat="44.6923419" lon="12.1886549"><ele>0.6666666666666666</ele><time>2026-04-26T16:01:31.867Z</time></trkpt><trkpt lat="44.6923309" lon="12.1887566"><ele>0.5</ele><time>2026-04-26T16:01:32.866Z</time></trkpt><trkpt lat="44.6923151" lon="12.1888706"><ele>0.3333333333333333</ele><time>2026-04-26T16:01:33.866Z</time></trkpt><trkpt lat="44.6922994" lon="12.1889901"><ele>0.16666666666666666</ele><time>2026-04-26T16:01:34.866Z</time></trkpt><trkpt lat="44.6922859" lon="12.1891101"><ele>0.0</ele><time>2026-04-26T16:01:35.867Z</time></trkpt><trkpt lat="44.6922574" lon="12.1892321"><ele>0.0</ele><time>2026-04-26T16:01:36.867Z</time></trkpt><trkpt lat="44.6922336" lon="12.189352"><ele>0.0</ele><time>2026-04-26T16:01:37.867Z</time></trkpt><trkpt lat="44.6922069" lon="12.1894772"><ele>0.0</ele><time>2026-04-26T16:01:38.866Z</time></trkpt><trkpt lat="44.6921779" lon="12.1895984"><ele>0.0</ele><time>2026-04-26T16:01:39.867Z</time></trkpt><trkpt lat="44.6921523" lon="12.1897198"><ele>0.0</ele><time>2026-04-26T16:01:40.866Z</time></trkpt><trkpt lat="44.6921252" lon="12.1898479"><ele>0.2</ele><time>2026-04-26T16:01:41.867Z</time></trkpt><trkpt lat="44.692096" lon="12.189976"><ele>0.4</ele><time>2026-04-26T16:01:42.866Z</time></trkpt><trkpt lat="44.6920631" lon="12.190103"><ele>0.6000000000000001</ele><time>2026-04-26T16:01:43.866Z</time></trkpt><trkpt lat="44.6920385" lon="12.1902257"><ele>0.8</ele><time>2026-04-26T16:01:44.867Z</time></trkpt><trkpt lat="44.6920092" lon="12.1903534"><ele>1.0</ele><time>2026-04-26T16:01:45.866Z</time></trkpt><trkpt lat="44.6919767" lon="12.1904796"><ele>1.0</ele><time>2026-04-26T16:01:46.866Z</time></trkpt><trkpt lat="44.691941" lon="12.1906115"><ele>1.0</ele><time>2026-04-26T16:01:47.867Z</time></trkpt><trkpt lat="44.6919079" lon="12.1907409"><ele>1.0</ele><time>2026-04-26T16:01:48.867Z</time></trkpt><trkpt lat="44.6918691" lon="12.1908684"><ele>1.0</ele><time>2026-04-26T16:01:49.866Z</time></trkpt><trkpt lat="44.6918377" lon="12.1909958"><ele>1.0</ele><time>2026-04-26T16:01:50.867Z</time></trkpt><trkpt lat="44.6918127" lon="12.1911167"><ele>0.6666666666666666</ele><time>2026-04-26T16:01:51.867Z</time></trkpt><trkpt lat="44.6917947" lon="12.1912299"><ele>0.3333333333333333</ele><time>2026-04-26T16:01:52.866Z</time></trkpt><trkpt lat="44.6917834" lon="12.1913371"><ele>0.0</ele><time>2026-04-26T16:01:53.866Z</time></trkpt><trkpt lat="44.6917831" lon="12.1914372"><ele>-0.3333333333333333</ele><time>2026-04-26T16:01:54.867Z</time></trkpt><trkpt lat="44.6917855" lon="12.1915304"><ele>-0.6666666666666666</ele><time>2026-04-26T16:01:55.866Z</time></trkpt><trkpt lat="44.6917987" lon="12.1916343"><ele>-1.0</ele><time>2026-04-26T16:01:56.866Z</time></trkpt><trkpt lat="44.6918208" lon="12.1917422"><ele>-0.9999999999999999</ele><time>2026-04-26T16:01:57.866Z</time></trkpt><trkpt lat="44.6918475" lon="12.191856"><ele>-1.0</ele><time>2026-04-26T16:01:58.866Z</time></trkpt><trkpt lat="44.6918779" lon="12.1919656"><ele>-1.0</ele><time>2026-04-26T16:01:59.866Z</time></trkpt><trkpt lat="44.6919084" lon="12.1920821"><ele>-1.0</ele><time>2026-04-26T16:02:00.866Z</time></trkpt><trkpt lat="44.6919397" lon="12.1922035"><ele>-0.9999999999999999</ele><time>2026-04-26T16:02:01.867Z</time></trkpt><trkpt lat="44.6919704" lon="12.1923227"><ele>-1.0</ele><time>2026-04-26T16:02:02.866Z</time></trkpt><trkpt lat="44.6919986" lon="12.1924392"><ele>-1.0</ele><time>2026-04-26T16:02:03.867Z</time></trkpt><trkpt lat="44.6920286" lon="12.1925585"><ele>-1.0</ele><time>2026-04-26T16:02:04.867Z</time></trkpt><trkpt lat="44.6920553" lon="12.1926795"><ele>-1.0</ele><time>2026-04-26T16:02:05.867Z</time></trkpt><trkpt lat="44.6920835" lon="12.1927979"><ele>-1.0</ele><time>2026-04-26T16:02:06.866Z</time></trkpt><trkpt lat="44.6921138" lon="12.1929182"><ele>-1.0</ele><time>2026-04-26T16:02:07.867Z</time></trkpt><trkpt lat="44.6921439" lon="12.1930397"><ele>-1.0</ele><time>2026-04-26T16:02:08.866Z</time></trkpt><trkpt lat="44.6921756" lon="12.1931655"><ele>-1.0</ele><time>2026-04-26T16:02:09.866Z</time></trkpt><trkpt lat="44.6922107" lon="12.193297"><ele>-1.0</ele><time>2026-04-26T16:02:10.866Z</time></trkpt><trkpt lat="44.6922433" lon="12.1934307"><ele>-1.0</ele><time>2026-04-26T16:02:11.866Z</time></trkpt><trkpt lat="44.6922811" lon="12.1935679"><ele>-1.0</ele><time>2026-04-26T16:02:12.866Z</time></trkpt><trkpt lat="44.6923138" lon="12.1937108"><ele>-0.8333333333333333</ele><time>2026-04-26T16:02:13.866Z</time></trkpt><trkpt lat="44.6923459" lon="12.193845"><ele>-0.6666666666666666</ele><time>2026-04-26T16:02:14.866Z</time></trkpt><trkpt lat="44.6923781" lon="12.1939646"><ele>-0.5</ele><time>2026-04-26T16:02:15.866Z</time></trkpt><trkpt lat="44.6924042" lon="12.1940761"><ele>-0.3333333333333333</ele><time>2026-04-26T16:02:16.866Z</time></trkpt><trkpt lat="44.6924324" lon="12.1941789"><ele>-0.16666666666666666</ele><time>2026-04-26T16:02:17.866Z</time></trkpt><trkpt lat="44.6924545" lon="12.1942747"><ele>0.0</ele><time>2026-04-26T16:02:18.867Z</time></trkpt><trkpt lat="44.69247" lon="12.1943867"><ele>0.0</ele><time>2026-04-26T16:02:19.867Z</time></trkpt><trkpt lat="44.6924729" lon="12.1945085"><ele>0.0</ele><time>2026-04-26T16:02:20.866Z</time></trkpt><trkpt lat="44.6924587" lon="12.1946369"><ele>0.0</ele><time>2026-04-26T16:02:21.866Z</time></trkpt><trkpt lat="44.6924338" lon="12.1947725"><ele>0.0</ele><time>2026-04-26T16:02:22.866Z</time></trkpt><trkpt lat="44.6924001" lon="12.1948957"><ele>0.0</ele><time>2026-04-26T16:02:23.866Z</time></trkpt><trkpt lat="44.6923723" lon="12.1950081"><ele>-0.3333333333333333</ele><time>2026-04-26T16:02:24.866Z</time></trkpt><trkpt lat="44.6923461" lon="12.1951098"><ele>-0.6666666666666666</ele><time>2026-04-26T16:02:25.867Z</time></trkpt><trkpt lat="44.6923175" lon="12.1952061"><ele>-1.0</ele><time>2026-04-26T16:02:26.866Z</time></trkpt><trkpt lat="44.6922865" lon="12.1953198"><ele>-1.3333333333333333</ele><time>2026-04-26T16:02:27.867Z</time></trkpt><trkpt lat="44.6922503" lon="12.1954501"><ele>-1.6666666666666665</ele><time>2026-04-26T16:02:28.866Z</time></trkpt><trkpt lat="44.692213" lon="12.1955913"><ele>-2.0</ele><time>2026-04-26T16:02:29.866Z</time></trkpt><trkpt lat="44.6921703" lon="12.1957474"><ele>-2.0</ele><time>2026-04-26T16:02:30.866Z</time></trkpt><trkpt lat="44.6921253" lon="12.1959146"><ele>-2.0</ele><time>2026-04-26T16:02:31.866Z</time></trkpt><trkpt lat="44.6920875" lon="12.1960905"><ele>-2.0</ele><time>2026-04-26T16:02:32.867Z</time></trkpt><trkpt lat="44.6920458" lon="12.1962755"><ele>-2.0</ele><time>2026-04-26T16:02:33.867Z</time></trkpt><trkpt lat="44.6920027" lon="12.1964599"><ele>-2.0</ele><time>2026-04-26T16:02:34.866Z</time></trkpt><trkpt lat="44.6919643" lon="12.1966494"><ele>-2.0</ele><time>2026-04-26T16:02:35.867Z</time></trkpt><trkpt lat="44.6919227" lon="12.1968432"><ele>-2.0</ele><time>2026-04-26T16:02:36.867Z</time></trkpt><trkpt lat="44.691879" lon="12.1970335"><ele>-2.0</ele><time>2026-04-26T16:02:37.866Z</time></trkpt><trkpt lat="44.6918352" lon="12.197228"><ele>-1.75</ele><time>2026-04-26T16:02:38.867Z</time></trkpt><trkpt lat="44.6917894" lon="12.1974115"><ele>-1.5</ele><time>2026-04-26T16:02:39.866Z</time></trkpt><trkpt lat="44.691747" lon="12.1975813"><ele>-1.25</ele><time>2026-04-26T16:02:40.866Z</time></trkpt><trkpt lat="44.6917108" lon="12.1977357"><ele>-1.0</ele><time>2026-04-26T16:02:41.866Z</time></trkpt><trkpt lat="44.6916789" lon="12.1978746"><ele>-0.9999999999999999</ele><time>2026-04-26T16:02:42.867Z</time></trkpt><trkpt lat="44.6916495" lon="12.1980028"><ele>-1.0</ele><time>2026-04-26T16:02:43.866Z</time></trkpt><trkpt lat="44.6916239" lon="12.1981147"><ele>-1.0</ele><time>2026-04-26T16:02:44.867Z</time></trkpt><trkpt lat="44.6915969" lon="12.1982082"><ele>-1.0</ele><time>2026-04-26T16:02:45.866Z</time></trkpt><trkpt lat="44.6915648" lon="12.198285"><ele>-0.9999999999999999</ele><time>2026-04-26T16:02:46.867Z</time></trkpt><trkpt lat="44.6915006" lon="12.1983925"><ele>-1.0</ele><time>2026-04-26T16:02:48.866Z</time></trkpt><trkpt lat="44.6914598" lon="12.1984787"><ele>-1.1428571428571428</ele><time>2026-04-26T16:02:50.866Z</time></trkpt><trkpt lat="44.6914319" lon="12.1985727"><ele>-1.2857142857142856</ele><time>2026-04-26T16:02:54.867Z</time></trkpt><trkpt lat="44.6914308" lon="12.1986616"><ele>-1.4285714285714284</ele><time>2026-04-26T16:05:53.867Z</time></trkpt><trkpt lat="44.6914221" lon="12.1987861"><ele>-1.5714285714285714</ele><time>2026-04-26T16:05:56.867Z</time></trkpt><trkpt lat="44.6914047" lon="12.1988723"><ele>-1.714285714285714</ele><time>2026-04-26T16:05:58.867Z</time></trkpt><trkpt lat="44.6914177" lon="12.1989957"><ele>-1.857142857142857</ele><time>2026-04-26T16:06:01.867Z</time></trkpt><trkpt lat="44.691402" lon="12.199094"><ele>-2.0</ele><time>2026-04-26T16:06:03.866Z</time></trkpt><trkpt lat="44.6913797" lon="12.199199"><ele>-1.9999999999999998</ele><time>2026-04-26T16:06:05.867Z</time></trkpt><trkpt lat="44.691357" lon="12.1993198"><ele>-2.0</ele><time>2026-04-26T16:06:07.867Z</time></trkpt><trkpt lat="44.6913175" lon="12.1994853"><ele>-2.0</ele><time>2026-04-26T16:06:09.867Z</time></trkpt><trkpt lat="44.6912935" lon="12.1995836"><ele>-2.0</ele><time>2026-04-26T16:06:10.867Z</time></trkpt><trkpt lat="44.6912737" lon="12.19968"><ele>-1.9999999999999998</ele><time>2026-04-26T16:06:11.866Z</time></trkpt><trkpt lat="44.691249" lon="12.1997965"><ele>-2.0</ele><time>2026-04-26T16:06:12.867Z</time></trkpt><trkpt lat="44.6912181" lon="12.1999236"><ele>-1.75</ele><time>2026-04-26T16:06:13.866Z</time></trkpt><trkpt lat="44.6911851" lon="12.200075"><ele>-1.5</ele><time>2026-04-26T16:06:14.867Z</time></trkpt><trkpt lat="44.6911521" lon="12.2002394"><ele>-1.25</ele><time>2026-04-26T16:06:15.866Z</time></trkpt><trkpt lat="44.6911127" lon="12.2004198"><ele>-1.0</ele><time>2026-04-26T16:06:16.866Z</time></trkpt><trkpt lat="44.6910702" lon="12.2005979"><ele>-1.25</ele><time>2026-04-26T16:06:17.867Z</time></trkpt><trkpt lat="44.6910268" lon="12.2007819"><ele>-1.5</ele><time>2026-04-26T16:06:18.866Z</time></trkpt><trkpt lat="44.6909833" lon="12.2009758"><ele>-1.75</ele><time>2026-04-26T16:06:19.867Z</time></trkpt><trkpt lat="44.6909398" lon="12.2011685"><ele>-2.0</ele><time>2026-04-26T16:06:20.866Z</time></trkpt><trkpt lat="44.6908962" lon="12.2013608"><ele>-2.0</ele><time>2026-04-26T16:06:21.866Z</time></trkpt><trkpt lat="44.6908541" lon="12.2015539"><ele>-2.0</ele><time>2026-04-26T16:06:22.866Z</time></trkpt><trkpt lat="44.690806" lon="12.2017521"><ele>-2.0</ele><time>2026-04-26T16:06:23.867Z</time></trkpt><trkpt lat="44.6907571" lon="12.2019543"><ele>-2.0</ele><time>2026-04-26T16:06:24.866Z</time></trkpt><trkpt lat="44.6907121" lon="12.2021639"><ele>-1.0</ele><time>2026-04-26T16:06:25.866Z</time></trkpt><trkpt lat="44.6906655" lon="12.2023726"><ele>0.0</ele><time>2026-04-26T16:06:26.867Z</time></trkpt><trkpt lat="44.6906146" lon="12.2025883"><ele>1.0</ele><time>2026-04-26T16:06:27.867Z</time></trkpt><trkpt lat="44.6905629" lon="12.20281"><ele>1.0</ele><time>2026-04-26T16:06:28.867Z</time></trkpt><trkpt lat="44.690505" lon="12.2030346"><ele>1.0</ele><time>2026-04-26T16:06:29.866Z</time></trkpt><trkpt lat="44.6904403" lon="12.2032612"><ele>1.0</ele><time>2026-04-26T16:06:30.866Z</time></trkpt><trkpt lat="44.6903788" lon="12.203482"><ele>0.25</ele><time>2026-04-26T16:06:31.866Z</time></trkpt><trkpt lat="44.690332" lon="12.2036899"><ele>-0.5</ele><time>2026-04-26T16:06:32.867Z</time></trkpt><trkpt lat="44.6902869" lon="12.2038849"><ele>-1.25</ele><time>2026-04-26T16:06:33.867Z</time></trkpt><trkpt lat="44.6902439" lon="12.2040793"><ele>-2.0</ele><time>2026-04-26T16:06:34.867Z</time></trkpt><trkpt lat="44.6902016" lon="12.2042834"><ele>-2.0</ele><time>2026-04-26T16:06:35.866Z</time></trkpt><trkpt lat="44.6901602" lon="12.2044933"><ele>-2.0</ele><time>2026-04-26T16:06:36.866Z</time></trkpt><trkpt lat="44.690118" lon="12.2047054"><ele>-2.0</ele><time>2026-04-26T16:06:37.866Z</time></trkpt><trkpt lat="44.6900763" lon="12.2049227"><ele>-1.6666666666666665</ele><time>2026-04-26T16:06:38.866Z</time></trkpt><trkpt lat="44.6900288" lon="12.2051463"><ele>-1.3333333333333333</ele><time>2026-04-26T16:06:39.866Z</time></trkpt><trkpt lat="44.6899783" lon="12.2053735"><ele>-1.0</ele><time>2026-04-26T16:06:40.866Z</time></trkpt><trkpt lat="44.6899289" lon="12.2056044"><ele>-1.0</ele><time>2026-04-26T16:06:41.866Z</time></trkpt><trkpt lat="44.6898765" lon="12.2058394"><ele>-1.0</ele><time>2026-04-26T16:06:42.867Z</time></trkpt><trkpt lat="44.6898213" lon="12.2060772"><ele>-1.0</ele><time>2026-04-26T16:06:43.867Z</time></trkpt><trkpt lat="44.6897652" lon="12.2063216"><ele>-1.6666666666666665</ele><time>2026-04-26T16:06:44.866Z</time></trkpt><trkpt lat="44.6897115" lon="12.2065665"><ele>-2.3333333333333335</ele><time>2026-04-26T16:06:45.866Z</time></trkpt><trkpt lat="44.6896548" lon="12.2068147"><ele>-3.0</ele><time>2026-04-26T16:06:46.867Z</time></trkpt><trkpt lat="44.6895983" lon="12.2070653"><ele>-3.0</ele><time>2026-04-26T16:06:47.867Z</time></trkpt><trkpt lat="44.6895439" lon="12.2073013"><ele>-3.0</ele><time>2026-04-26T16:06:48.867Z</time></trkpt><trkpt lat="44.689485" lon="12.2075482"><ele>-3.0</ele><time>2026-04-26T16:06:49.866Z</time></trkpt><trkpt lat="44.6894264" lon="12.2077918"><ele>-3.0</ele><time>2026-04-26T16:06:50.866Z</time></trkpt><trkpt lat="44.6893732" lon="12.2080285"><ele>-3.0</ele><time>2026-04-26T16:06:51.866Z</time></trkpt><trkpt lat="44.6893202" lon="12.208276"><ele>-3.0</ele><time>2026-04-26T16:06:52.867Z</time></trkpt><trkpt lat="44.6892654" lon="12.2085184"><ele>-3.0</ele><time>2026-04-26T16:06:53.867Z</time></trkpt><trkpt lat="44.6892117" lon="12.208758"><ele>-3.0</ele><time>2026-04-26T16:06:54.867Z</time></trkpt><trkpt lat="44.6891639" lon="12.2089998"><ele>-3.0</ele><time>2026-04-26T16:06:55.866Z</time></trkpt><trkpt lat="44.6891222" lon="12.2092452"><ele>-3.0</ele><time>2026-04-26T16:06:56.867Z</time></trkpt><trkpt lat="44.6890856" lon="12.2094912"><ele>-3.0</ele><time>2026-04-26T16:06:57.867Z</time></trkpt><trkpt lat="44.689054" lon="12.2097402"><ele>-3.0</ele><time>2026-04-26T16:06:58.866Z</time></trkpt><trkpt lat="44.6890244" lon="12.2099901"><ele>-2.6666666666666665</ele><time>2026-04-26T16:06:59.866Z</time></trkpt><trkpt lat="44.6889949" lon="12.2102433"><ele>-2.333333333333333</ele><time>2026-04-26T16:07:00.866Z</time></trkpt><trkpt lat="44.6889628" lon="12.2104941"><ele>-2.0</ele><time>2026-04-26T16:07:01.867Z</time></trkpt><trkpt lat="44.6889356" lon="12.2107456"><ele>-2.0</ele><time>2026-04-26T16:07:02.866Z</time></trkpt><trkpt lat="44.6889063" lon="12.2109952"><ele>-2.0</ele><time>2026-04-26T16:07:03.867Z</time></trkpt><trkpt lat="44.688874" lon="12.2112461"><ele>-2.0</ele><time>2026-04-26T16:07:04.866Z</time></trkpt><trkpt lat="44.6888433" lon="12.2114948"><ele>-2.0</ele><time>2026-04-26T16:07:05.866Z</time></trkpt><trkpt lat="44.6888137" lon="12.2117457"><ele>-2.0</ele><time>2026-04-26T16:07:06.867Z</time></trkpt><trkpt lat="44.6887877" lon="12.2119956"><ele>-2.0</ele><time>2026-04-26T16:07:07.867Z</time></trkpt><trkpt lat="44.6887636" lon="12.2122452"><ele>-2.333333333333333</ele><time>2026-04-26T16:07:08.866Z</time></trkpt><trkpt lat="44.6887397" lon="12.2124958"><ele>-2.6666666666666665</ele><time>2026-04-26T16:07:09.866Z</time></trkpt><trkpt lat="44.6887205" lon="12.2127461"><ele>-3.0</ele><time>2026-04-26T16:07:10.866Z</time></trkpt><trkpt lat="44.6887104" lon="12.2129994"><ele>-3.0</ele><time>2026-04-26T16:07:11.867Z</time></trkpt><trkpt lat="44.6887136" lon="12.2132515"><ele>-3.0</ele><time>2026-04-26T16:07:12.866Z</time></trkpt><trkpt lat="44.6887146" lon="12.2135069"><ele>-3.0</ele><time>2026-04-26T16:07:13.867Z</time></trkpt><trkpt lat="44.6887211" lon="12.2137627"><ele>-3.0</ele><time>2026-04-26T16:07:14.866Z</time></trkpt><trkpt lat="44.6887275" lon="12.2140194"><ele>-3.0</ele><time>2026-04-26T16:07:15.866Z</time></trkpt><trkpt lat="44.6887349" lon="12.2142812"><ele>-3.0</ele><time>2026-04-26T16:07:16.866Z</time></trkpt><trkpt lat="44.6887446" lon="12.2145418"><ele>-3.0</ele><time>2026-04-26T16:07:17.866Z</time></trkpt><trkpt lat="44.6887554" lon="12.2147956"><ele>-3.0</ele><time>2026-04-26T16:07:18.866Z</time></trkpt><trkpt lat="44.6887666" lon="12.2150522"><ele>-3.0</ele><time>2026-04-26T16:07:19.867Z</time></trkpt><trkpt lat="44.6887773" lon="12.2153106"><ele>-3.0</ele><time>2026-04-26T16:07:20.867Z</time></trkpt><trkpt lat="44.6887883" lon="12.2155697"><ele>-3.0</ele><time>2026-04-26T16:07:21.866Z</time></trkpt><trkpt lat="44.6887994" lon="12.2158304"><ele>-3.0</ele><time>2026-04-26T16:07:22.866Z</time></trkpt><trkpt lat="44.6888118" lon="12.2160875"><ele>-3.333333333333333</ele><time>2026-04-26T16:07:23.867Z</time></trkpt><trkpt lat="44.6888189" lon="12.2163473"><ele>-3.6666666666666665</ele><time>2026-04-26T16:07:24.866Z</time></trkpt><trkpt lat="44.6888271" lon="12.2166019"><ele>-4.0</ele><time>2026-04-26T16:07:25.866Z</time></trkpt><trkpt lat="44.6888394" lon="12.2168603"><ele>-4.0</ele><time>2026-04-26T16:07:26.867Z</time></trkpt><trkpt lat="44.6888519" lon="12.2171202"><ele>-4.0</ele><time>2026-04-26T16:07:27.866Z</time></trkpt><trkpt lat="44.6888601" lon="12.2173813"><ele>-4.0</ele><time>2026-04-26T16:07:28.866Z</time></trkpt><trkpt lat="44.6888717" lon="12.217639"><ele>-3.6666666666666665</ele><time>2026-04-26T16:07:29.867Z</time></trkpt><trkpt lat="44.6888786" lon="12.2179018"><ele>-3.333333333333333</ele><time>2026-04-26T16:07:30.866Z</time></trkpt><trkpt lat="44.6888893" lon="12.218157"><ele>-3.0</ele><time>2026-04-26T16:07:31.867Z</time></trkpt><trkpt lat="44.6889006" lon="12.2183934"><ele>-3.0</ele><time>2026-04-26T16:07:32.867Z</time></trkpt><trkpt lat="44.6889133" lon="12.2185951"><ele>-3.0</ele><time>2026-04-26T16:07:33.867Z</time></trkpt><trkpt lat="44.6889299" lon="12.2187542"><ele>-3.0</ele><time>2026-04-26T16:07:34.866Z</time></trkpt><trkpt lat="44.6889451" lon="12.2188916"><ele>-3.0</ele><time>2026-04-26T16:07:35.866Z</time></trkpt><trkpt lat="44.6889485" lon="12.2190418"><ele>-2.75</ele><time>2026-04-26T16:07:36.866Z</time></trkpt><trkpt lat="44.6889465" lon="12.2192011"><ele>-2.5</ele><time>2026-04-26T16:07:37.866Z</time></trkpt><trkpt lat="44.6889521" lon="12.2193876"><ele>-2.25</ele><time>2026-04-26T16:07:38.867Z</time></trkpt><trkpt lat="44.688965" lon="12.2195908"><ele>-2.0</ele><time>2026-04-26T16:07:39.867Z</time></trkpt><trkpt lat="44.6889627" lon="12.2197978"><ele>-2.0</ele><time>2026-04-26T16:07:40.867Z</time></trkpt><trkpt lat="44.6889554" lon="12.2200024"><ele>-2.0</ele><time>2026-04-26T16:07:41.866Z</time></trkpt><trkpt lat="44.6889502" lon="12.2202042"><ele>-2.0</ele><time>2026-04-26T16:07:42.866Z</time></trkpt><trkpt lat="44.6889448" lon="12.2204145"><ele>-2.0</ele><time>2026-04-26T16:07:43.867Z</time></trkpt><trkpt lat="44.6889352" lon="12.2206218"><ele>-2.0</ele><time>2026-04-26T16:07:44.866Z</time></trkpt><trkpt lat="44.6889142" lon="12.2208277"><ele>-2.0</ele><time>2026-04-26T16:07:45.866Z</time></trkpt><trkpt lat="44.6888898" lon="12.2210315"><ele>-2.0</ele><time>2026-04-26T16:07:46.867Z</time></trkpt><trkpt lat="44.6888652" lon="12.2212254"><ele>-2.0</ele><time>2026-04-26T16:07:47.866Z</time></trkpt><trkpt lat="44.6888398" lon="12.2214215"><ele>-1.5</ele><time>2026-04-26T16:07:48.867Z</time></trkpt><trkpt lat="44.6888202" lon="12.2216143"><ele>-1.0</ele><time>2026-04-26T16:07:49.866Z</time></trkpt><trkpt lat="44.6888035" lon="12.2218098"><ele>-0.5</ele><time>2026-04-26T16:07:50.867Z</time></trkpt><trkpt lat="44.688795" lon="12.2220106"><ele>0.0</ele><time>2026-04-26T16:07:51.867Z</time></trkpt><trkpt lat="44.6887876" lon="12.2222083"><ele>0.5</ele><time>2026-04-26T16:07:52.866Z</time></trkpt><trkpt lat="44.6887925" lon="12.2224113"><ele>1.0</ele><time>2026-04-26T16:07:53.866Z</time></trkpt><trkpt lat="44.6887947" lon="12.2226125"><ele>1.5</ele><time>2026-04-26T16:07:54.866Z</time></trkpt><trkpt lat="44.6887968" lon="12.2228154"><ele>2.0</ele><time>2026-04-26T16:07:55.867Z</time></trkpt><trkpt lat="44.688791" lon="12.2230228"><ele>2.25</ele><time>2026-04-26T16:07:56.867Z</time></trkpt><trkpt lat="44.68879" lon="12.2232317"><ele>2.5</ele><time>2026-04-26T16:07:57.867Z</time></trkpt><trkpt lat="44.6887918" lon="12.2234407"><ele>2.75</ele><time>2026-04-26T16:07:58.866Z</time></trkpt><trkpt lat="44.6887928" lon="12.2236497"><ele>3.0</ele><time>2026-04-26T16:07:59.866Z</time></trkpt><trkpt lat="44.6887926" lon="12.2238548"><ele>3.333333333333333</ele><time>2026-04-26T16:08:00.866Z</time></trkpt><trkpt lat="44.6887897" lon="12.2240653"><ele>3.6666666666666665</ele><time>2026-04-26T16:08:01.867Z</time></trkpt><trkpt lat="44.6887933" lon="12.2242801"><ele>4.0</ele><time>2026-04-26T16:08:02.866Z</time></trkpt><trkpt lat="44.6887935" lon="12.2244989"><ele>4.0</ele><time>2026-04-26T16:08:03.867Z</time></trkpt><trkpt lat="44.6887974" lon="12.224717"><ele>4.0</ele><time>2026-04-26T16:08:04.867Z</time></trkpt><trkpt lat="44.6888022" lon="12.224936"><ele>4.0</ele><time>2026-04-26T16:08:05.867Z</time></trkpt><trkpt lat="44.6888029" lon="12.2251556"><ele>3.0</ele><time>2026-04-26T16:08:06.866Z</time></trkpt><trkpt lat="44.6888066" lon="12.225376"><ele>2.0</ele><time>2026-04-26T16:08:07.866Z</time></trkpt><trkpt lat="44.6888084" lon="12.2256005"><ele>1.0</ele><time>2026-04-26T16:08:08.867Z</time></trkpt><trkpt lat="44.6888147" lon="12.2258216"><ele>0.6666666666666666</ele><time>2026-04-26T16:08:09.867Z</time></trkpt><trkpt lat="44.6888191" lon="12.2260403"><ele>0.3333333333333333</ele><time>2026-04-26T16:08:10.867Z</time></trkpt><trkpt lat="44.6888236" lon="12.2262556"><ele>0.0</ele><time>2026-04-26T16:08:11.867Z</time></trkpt><trkpt lat="44.6888249" lon="12.2264695"><ele>0.25</ele><time>2026-04-26T16:08:12.867Z</time></trkpt><trkpt lat="44.6888286" lon="12.2266822"><ele>0.5</ele><time>2026-04-26T16:08:13.866Z</time></trkpt><trkpt lat="44.6888288" lon="12.2268929"><ele>0.75</ele><time>2026-04-26T16:08:14.866Z</time></trkpt><trkpt lat="44.688821" lon="12.2270913"><ele>1.0</ele><time>2026-04-26T16:08:15.867Z</time></trkpt><trkpt lat="44.6888194" lon="12.2272797"><ele>1.25</ele><time>2026-04-26T16:08:16.867Z</time></trkpt><trkpt lat="44.688814" lon="12.2274562"><ele>1.5</ele><time>2026-04-26T16:08:17.867Z</time></trkpt><trkpt lat="44.6888123" lon="12.2276271"><ele>1.75</ele><time>2026-04-26T16:08:18.866Z</time></trkpt><trkpt lat="44.6888061" lon="12.2277993"><ele>2.0</ele><time>2026-04-26T16:08:19.867Z</time></trkpt><trkpt lat="44.6888042" lon="12.2279732"><ele>2.0</ele><time>2026-04-26T16:08:20.866Z</time></trkpt><trkpt lat="44.6888004" lon="12.2281374"><ele>2.0</ele><time>2026-04-26T16:08:21.866Z</time></trkpt><trkpt lat="44.6887976" lon="12.2282996"><ele>2.0</ele><time>2026-04-26T16:08:22.867Z</time></trkpt><trkpt lat="44.688796" lon="12.2284531"><ele>2.0</ele><time>2026-04-26T16:08:23.867Z</time></trkpt><trkpt lat="44.6887923" lon="12.2286017"><ele>2.0</ele><time>2026-04-26T16:08:24.867Z</time></trkpt><trkpt lat="44.6887878" lon="12.228743"><ele>1.9999999999999998</ele><time>2026-04-26T16:08:25.867Z</time></trkpt><trkpt lat="44.6887843" lon="12.2288764"><ele>2.0</ele><time>2026-04-26T16:08:26.866Z</time></trkpt><trkpt lat="44.6887794" lon="12.2290042"><ele>2.0</ele><time>2026-04-26T16:08:27.866Z</time></trkpt><trkpt lat="44.6887709" lon="12.2291209"><ele>2.0</ele><time>2026-04-26T16:08:28.866Z</time></trkpt><trkpt lat="44.6887538" lon="12.2292296"><ele>1.9999999999999998</ele><time>2026-04-26T16:08:29.867Z</time></trkpt><trkpt lat="44.6887412" lon="12.229324"><ele>2.0</ele><time>2026-04-26T16:08:30.866Z</time></trkpt><trkpt lat="44.688731" lon="12.2294129"><ele>2.142857142857143</ele><time>2026-04-26T16:08:31.867Z</time></trkpt><trkpt lat="44.6887311" lon="12.2295362"><ele>2.2857142857142856</ele><time>2026-04-26T16:08:33.866Z</time></trkpt><trkpt lat="44.6887806" lon="12.2295969"><ele>2.4285714285714284</ele><time>2026-04-26T16:08:36.866Z</time></trkpt><trkpt lat="44.6888706" lon="12.2296287"><ele>2.571428571428571</ele><time>2026-04-26T16:08:39.867Z</time></trkpt><trkpt lat="44.6889392" lon="12.2296376"><ele>2.7142857142857144</ele><time>2026-04-26T16:08:40.866Z</time></trkpt><trkpt lat="44.6890076" lon="12.2296381"><ele>2.8571428571428568</ele><time>2026-04-26T16:08:41.867Z</time></trkpt><trkpt lat="44.6890728" lon="12.229625"><ele>3.0</ele><time>2026-04-26T16:08:42.867Z</time></trkpt><trkpt lat="44.6891393" lon="12.2296312"><ele>3.0</ele><time>2026-04-26T16:08:43.867Z</time></trkpt><trkpt lat="44.6892078" lon="12.2296419"><ele>3.0</ele><time>2026-04-26T16:08:44.866Z</time></trkpt><trkpt lat="44.689276" lon="12.2296478"><ele>3.0</ele><time>2026-04-26T16:08:45.867Z</time></trkpt><trkpt lat="44.6893559" lon="12.2296549"><ele>3.0</ele><time>2026-04-26T16:08:46.867Z</time></trkpt><trkpt lat="44.6894381" lon="12.22966"><ele>3.0</ele><time>2026-04-26T16:08:47.866Z</time></trkpt><trkpt lat="44.6895295" lon="12.2296603"><ele>3.0</ele><time>2026-04-26T16:08:48.867Z</time></trkpt><trkpt lat="44.6896245" lon="12.2296673"><ele>3.0</ele><time>2026-04-26T16:08:49.867Z</time></trkpt><trkpt lat="44.6897239" lon="12.2296731"><ele>3.0</ele><time>2026-04-26T16:08:50.867Z</time></trkpt><trkpt lat="44.6898251" lon="12.229681"><ele>3.0</ele><time>2026-04-26T16:08:51.866Z</time></trkpt><trkpt lat="44.6899314" lon="12.2296883"><ele>3.0</ele><time>2026-04-26T16:08:52.867Z</time></trkpt><trkpt lat="44.6900383" lon="12.2296939"><ele>3.0</ele><time>2026-04-26T16:08:53.866Z</time></trkpt><trkpt lat="44.6901467" lon="12.2296984"><ele>3.0</ele><time>2026-04-26T16:08:54.867Z</time></trkpt><trkpt lat="44.6902547" lon="12.2297022"><ele>3.0</ele><time>2026-04-26T16:08:55.866Z</time></trkpt><trkpt lat="44.6903651" lon="12.2297082"><ele>3.0</ele><time>2026-04-26T16:08:56.867Z</time></trkpt><trkpt lat="44.6904786" lon="12.2297073"><ele>3.0</ele><time>2026-04-26T16:08:57.866Z</time></trkpt><trkpt lat="44.6905899" lon="12.2297045"><ele>3.0</ele><time>2026-04-26T16:08:58.867Z</time></trkpt><trkpt lat="44.6907044" lon="12.229695"><ele>2.75</ele><time>2026-04-26T16:08:59.867Z</time></trkpt><trkpt lat="44.6908222" lon="12.2297051"><ele>2.5</ele><time>2026-04-26T16:09:00.867Z</time></trkpt><trkpt lat="44.6909371" lon="12.2297194"><ele>2.25</ele><time>2026-04-26T16:09:01.867Z</time></trkpt><trkpt lat="44.6910498" lon="12.2297317"><ele>2.0</ele><time>2026-04-26T16:09:02.867Z</time></trkpt><trkpt lat="44.6911668" lon="12.2297395"><ele>1.75</ele><time>2026-04-26T16:09:03.867Z</time></trkpt><trkpt lat="44.6912814" lon="12.2297458"><ele>1.5</ele><time>2026-04-26T16:09:04.866Z</time></trkpt><trkpt lat="44.6914027" lon="12.2297567"><ele>1.25</ele><time>2026-04-26T16:09:05.867Z</time></trkpt><trkpt lat="44.6915257" lon="12.2297691"><ele>1.0</ele><time>2026-04-26T16:09:06.866Z</time></trkpt><trkpt lat="44.6916429" lon="12.2297747"><ele>1.0</ele><time>2026-04-26T16:09:07.867Z</time></trkpt><trkpt lat="44.6917608" lon="12.2297796"><ele>1.0</ele><time>2026-04-26T16:09:08.867Z</time></trkpt><trkpt lat="44.6918829" lon="12.2297811"><ele>1.0</ele><time>2026-04-26T16:09:09.866Z</time></trkpt><trkpt lat="44.6920039" lon="12.2297877"><ele>1.0</ele><time>2026-04-26T16:09:10.867Z</time></trkpt><trkpt lat="44.6921257" lon="12.2297985"><ele>1.0</ele><time>2026-04-26T16:09:11.866Z</time></trkpt><trkpt lat="44.6922482" lon="12.2298094"><ele>1.0</ele><time>2026-04-26T16:09:12.866Z</time></trkpt><trkpt lat="44.6923706" lon="12.2298165"><ele>1.0</ele><time>2026-04-26T16:09:13.866Z</time></trkpt><trkpt lat="44.6924931" lon="12.2298243"><ele>1.0</ele><time>2026-04-26T16:09:14.867Z</time></trkpt><trkpt lat="44.6926197" lon="12.2298258"><ele>0.6666666666666666</ele><time>2026-04-26T16:09:15.866Z</time></trkpt><trkpt lat="44.692763" lon="12.229833"><ele>0.3333333333333333</ele><time>2026-04-26T16:09:16.867Z</time></trkpt><trkpt lat="44.6929251" lon="12.2298409"><ele>0.0</ele><time>2026-04-26T16:09:17.866Z</time></trkpt><trkpt lat="44.6930957" lon="12.2298497"><ele>0.0</ele><time>2026-04-26T16:09:18.866Z</time></trkpt><trkpt lat="44.6932786" lon="12.2298605"><ele>0.0</ele><time>2026-04-26T16:09:19.867Z</time></trkpt><trkpt lat="44.6934674" lon="12.229871"><ele>0.0</ele><time>2026-04-26T16:09:20.866Z</time></trkpt><trkpt lat="44.6936682" lon="12.2298809"><ele>0.6666666666666666</ele><time>2026-04-26T16:09:21.866Z</time></trkpt><trkpt lat="44.693868" lon="12.2299053"><ele>1.3333333333333333</ele><time>2026-04-26T16:09:22.867Z</time></trkpt><trkpt lat="44.6940707" lon="12.2299307"><ele>2.0</ele><time>2026-04-26T16:09:23.866Z</time></trkpt><trkpt lat="44.694274" lon="12.2299517"><ele>2.0</ele><time>2026-04-26T16:09:24.866Z</time></trkpt><trkpt lat="44.6944681" lon="12.2299722"><ele>2.0</ele><time>2026-04-26T16:09:25.866Z</time></trkpt><trkpt lat="44.6946568" lon="12.2299813"><ele>2.0</ele><time>2026-04-26T16:09:26.866Z</time></trkpt><trkpt lat="44.6948464" lon="12.2299884"><ele>2.0</ele><time>2026-04-26T16:09:27.866Z</time></trkpt><trkpt lat="44.6950381" lon="12.2299905"><ele>2.0</ele><time>2026-04-26T16:09:28.866Z</time></trkpt><trkpt lat="44.695236" lon="12.2299935"><ele>2.0</ele><time>2026-04-26T16:09:29.866Z</time></trkpt><trkpt lat="44.6954371" lon="12.2299902"><ele>2.0</ele><time>2026-04-26T16:09:30.867Z</time></trkpt><trkpt lat="44.6956439" lon="12.2299928"><ele>2.0</ele><time>2026-04-26T16:09:31.867Z</time></trkpt><trkpt lat="44.6958509" lon="12.2299975"><ele>2.0</ele><time>2026-04-26T16:09:32.866Z</time></trkpt><trkpt lat="44.6960618" lon="12.2300088"><ele>2.0</ele><time>2026-04-26T16:09:33.866Z</time></trkpt><trkpt lat="44.6962654" lon="12.2300153"><ele>2.0</ele><time>2026-04-26T16:09:34.867Z</time></trkpt><trkpt lat="44.6964716" lon="12.2300234"><ele>2.0</ele><time>2026-04-26T16:09:35.867Z</time></trkpt><trkpt lat="44.6966714" lon="12.2300358"><ele>2.0</ele><time>2026-04-26T16:09:36.866Z</time></trkpt><trkpt lat="44.6968709" lon="12.2300527"><ele>2.0</ele><time>2026-04-26T16:09:37.867Z</time></trkpt><trkpt lat="44.6970633" lon="12.2300723"><ele>2.0</ele><time>2026-04-26T16:09:38.866Z</time></trkpt><trkpt lat="44.6972517" lon="12.2300893"><ele>2.333333333333333</ele><time>2026-04-26T16:09:39.866Z</time></trkpt><trkpt lat="44.6974378" lon="12.2301091"><ele>2.6666666666666665</ele><time>2026-04-26T16:09:40.867Z</time></trkpt><trkpt lat="44.6976262" lon="12.2301334"><ele>3.0</ele><time>2026-04-26T16:09:41.867Z</time></trkpt><trkpt lat="44.697814" lon="12.2301534"><ele>3.0</ele><time>2026-04-26T16:09:42.866Z</time></trkpt><trkpt lat="44.6980072" lon="12.2301771"><ele>3.0</ele><time>2026-04-26T16:09:43.867Z</time></trkpt><trkpt lat="44.6981987" lon="12.2301957"><ele>3.0</ele><time>2026-04-26T16:09:44.867Z</time></trkpt><trkpt lat="44.6983934" lon="12.2302106"><ele>2.6666666666666665</ele><time>2026-04-26T16:09:45.867Z</time></trkpt><trkpt lat="44.6985922" lon="12.2302288"><ele>2.333333333333333</ele><time>2026-04-26T16:09:46.866Z</time></trkpt><trkpt lat="44.6987902" lon="12.2302446"><ele>2.0</ele><time>2026-04-26T16:09:47.867Z</time></trkpt><trkpt lat="44.6989896" lon="12.2302598"><ele>2.0</ele><time>2026-04-26T16:09:48.867Z</time></trkpt><trkpt lat="44.6991867" lon="12.2302779"><ele>2.0</ele><time>2026-04-26T16:09:49.867Z</time></trkpt><trkpt lat="44.6993861" lon="12.2303009"><ele>2.0</ele><time>2026-04-26T16:09:50.866Z</time></trkpt><trkpt lat="44.6995896" lon="12.2303244"><ele>2.0</ele><time>2026-04-26T16:09:51.867Z</time></trkpt><trkpt lat="44.6997922" lon="12.2303419"><ele>2.0</ele><time>2026-04-26T16:09:52.867Z</time></trkpt><trkpt lat="44.6999926" lon="12.2303602"><ele>2.0</ele><time>2026-04-26T16:09:53.867Z</time></trkpt><trkpt lat="44.7001974" lon="12.2303793"><ele>1.3333333333333333</ele><time>2026-04-26T16:09:54.867Z</time></trkpt><trkpt lat="44.7003975" lon="12.2303992"><ele>0.6666666666666666</ele><time>2026-04-26T16:09:55.866Z</time></trkpt><trkpt lat="44.7006014" lon="12.230421"><ele>0.0</ele><time>2026-04-26T16:09:56.866Z</time></trkpt><trkpt lat="44.7008025" lon="12.230441"><ele>0.0</ele><time>2026-04-26T16:09:57.866Z</time></trkpt><trkpt lat="44.7010057" lon="12.2304598"><ele>0.0</ele><time>2026-04-26T16:09:58.867Z</time></trkpt><trkpt lat="44.7012088" lon="12.2304744"><ele>0.0</ele><time>2026-04-26T16:09:59.866Z</time></trkpt><trkpt lat="44.7014129" lon="12.2304926"><ele>0.0</ele><time>2026-04-26T16:10:00.866Z</time></trkpt><trkpt lat="44.7016141" lon="12.2305111"><ele>0.0</ele><time>2026-04-26T16:10:01.867Z</time></trkpt><trkpt lat="44.7018189" lon="12.2305307"><ele>0.0</ele><time>2026-04-26T16:10:02.867Z</time></trkpt><trkpt lat="44.7020196" lon="12.2305543"><ele>0.3333333333333333</ele><time>2026-04-26T16:10:03.866Z</time></trkpt><trkpt lat="44.7022211" lon="12.2305718"><ele>0.6666666666666666</ele><time>2026-04-26T16:10:04.866Z</time></trkpt><trkpt lat="44.7024225" lon="12.2305929"><ele>1.0</ele><time>2026-04-26T16:10:05.867Z</time></trkpt><trkpt lat="44.7026235" lon="12.2306116"><ele>1.3333333333333333</ele><time>2026-04-26T16:10:06.866Z</time></trkpt><trkpt lat="44.7028215" lon="12.2306251"><ele>1.6666666666666665</ele><time>2026-04-26T16:10:07.867Z</time></trkpt><trkpt lat="44.7030202" lon="12.2306339"><ele>2.0</ele><time>2026-04-26T16:10:08.867Z</time></trkpt><trkpt lat="44.7032189" lon="12.2306435"><ele>2.0</ele><time>2026-04-26T16:10:09.866Z</time></trkpt><trkpt lat="44.7034226" lon="12.2306552"><ele>2.0</ele><time>2026-04-26T16:10:10.867Z</time></trkpt><trkpt lat="44.7036188" lon="12.2306661"><ele>2.0</ele><time>2026-04-26T16:10:11.867Z</time></trkpt><trkpt lat="44.7038149" lon="12.2306828"><ele>3.0</ele><time>2026-04-26T16:10:12.866Z</time></trkpt><trkpt lat="44.7040131" lon="12.2306973"><ele>4.0</ele><time>2026-04-26T16:10:13.867Z</time></trkpt><trkpt lat="44.7042111" lon="12.230719"><ele>5.0</ele><time>2026-04-26T16:10:14.866Z</time></trkpt><trkpt lat="44.7044071" lon="12.2307414"><ele>4.0</ele><time>2026-04-26T16:10:15.866Z</time></trkpt><trkpt lat="44.7046038" lon="12.2307614"><ele>3.0</ele><time>2026-04-26T16:10:16.867Z</time></trkpt><trkpt lat="44.7047949" lon="12.2307856"><ele>2.0</ele><time>2026-04-26T16:10:17.867Z</time></trkpt><trkpt lat="44.7049724" lon="12.2308092"><ele>2.0</ele><time>2026-04-26T16:10:18.866Z</time></trkpt><trkpt lat="44.7051437" lon="12.2308295"><ele>2.0</ele><time>2026-04-26T16:10:19.866Z</time></trkpt><trkpt lat="44.7053028" lon="12.2308495"><ele>2.0</ele><time>2026-04-26T16:10:20.867Z</time></trkpt><trkpt lat="44.7054514" lon="12.2308667"><ele>1.75</ele><time>2026-04-26T16:10:21.866Z</time></trkpt><trkpt lat="44.7055942" lon="12.2308813"><ele>1.5</ele><time>2026-04-26T16:10:22.867Z</time></trkpt><trkpt lat="44.7057414" lon="12.2308911"><ele>1.25</ele><time>2026-04-26T16:10:23.866Z</time></trkpt><trkpt lat="44.7058917" lon="12.2308936"><ele>1.0</ele><time>2026-04-26T16:10:24.867Z</time></trkpt><trkpt lat="44.7060445" lon="12.2308955"><ele>1.0</ele><time>2026-04-26T16:10:25.867Z</time></trkpt><trkpt lat="44.7061899" lon="12.2308931"><ele>1.0</ele><time>2026-04-26T16:10:26.867Z</time></trkpt><trkpt lat="44.7063232" lon="12.2308918"><ele>1.0</ele><time>2026-04-26T16:10:27.867Z</time></trkpt><trkpt lat="44.7064438" lon="12.2308801"><ele>1.0</ele><time>2026-04-26T16:10:28.867Z</time></trkpt><trkpt lat="44.7065683" lon="12.2308677"><ele>1.0</ele><time>2026-04-26T16:10:29.866Z</time></trkpt><trkpt lat="44.7067003" lon="12.230855"><ele>1.0</ele><time>2026-04-26T16:10:30.866Z</time></trkpt><trkpt lat="44.7068344" lon="12.2308429"><ele>1.0</ele><time>2026-04-26T16:10:31.866Z</time></trkpt><trkpt lat="44.706982" lon="12.2308436"><ele>1.0</ele><time>2026-04-26T16:10:32.866Z</time></trkpt><trkpt lat="44.7071319" lon="12.2308377"><ele>1.3333333333333333</ele><time>2026-04-26T16:10:33.867Z</time></trkpt><trkpt lat="44.7072849" lon="12.2308383"><ele>1.6666666666666665</ele><time>2026-04-26T16:10:34.867Z</time></trkpt><trkpt lat="44.7074504" lon="12.2308585"><ele>2.0</ele><time>2026-04-26T16:10:35.867Z</time></trkpt><trkpt lat="44.7076148" lon="12.2309021"><ele>2.0</ele><time>2026-04-26T16:10:36.867Z</time></trkpt><trkpt lat="44.7077814" lon="12.230967"><ele>2.0</ele><time>2026-04-26T16:10:37.866Z</time></trkpt><trkpt lat="44.7079393" lon="12.2310532"><ele>2.0</ele><time>2026-04-26T16:10:38.866Z</time></trkpt><trkpt lat="44.7081016" lon="12.231136"><ele>2.0</ele><time>2026-04-26T16:10:39.866Z</time></trkpt><trkpt lat="44.7082668" lon="12.2312027"><ele>2.0</ele><time>2026-04-26T16:10:40.867Z</time></trkpt><trkpt lat="44.7084408" lon="12.2312537"><ele>2.0</ele><time>2026-04-26T16:10:41.866Z</time></trkpt><trkpt lat="44.7086227" lon="12.2312913"><ele>2.0</ele><time>2026-04-26T16:10:42.866Z</time></trkpt><trkpt lat="44.7088012" lon="12.2313199"><ele>2.0</ele><time>2026-04-26T16:10:43.866Z</time></trkpt><trkpt lat="44.7089797" lon="12.2313442"><ele>2.0</ele><time>2026-04-26T16:10:44.867Z</time></trkpt><trkpt lat="44.7091585" lon="12.231369"><ele>2.0</ele><time>2026-04-26T16:10:45.867Z</time></trkpt><trkpt lat="44.7093392" lon="12.2313943"><ele>2.0</ele><time>2026-04-26T16:10:46.866Z</time></trkpt><trkpt lat="44.7095188" lon="12.2314194"><ele>2.0</ele><time>2026-04-26T16:10:47.866Z</time></trkpt><trkpt lat="44.7096945" lon="12.2314461"><ele>1.6666666666666665</ele><time>2026-04-26T16:10:48.867Z</time></trkpt><trkpt lat="44.7098776" lon="12.2314732"><ele>1.3333333333333333</ele><time>2026-04-26T16:10:49.866Z</time></trkpt><trkpt lat="44.7100558" lon="12.2315036"><ele>1.0</ele><time>2026-04-26T16:10:50.867Z</time></trkpt><trkpt lat="44.7102321" lon="12.2315307"><ele>1.0</ele><time>2026-04-26T16:10:51.866Z</time></trkpt><trkpt lat="44.7104103" lon="12.2315529"><ele>1.0</ele><time>2026-04-26T16:10:52.866Z</time></trkpt><trkpt lat="44.7105862" lon="12.2315794"><ele>1.0</ele><time>2026-04-26T16:10:53.866Z</time></trkpt><trkpt lat="44.7107537" lon="12.2316022"><ele>1.0</ele><time>2026-04-26T16:10:54.866Z</time></trkpt><trkpt lat="44.710902" lon="12.2316254"><ele>1.0</ele><time>2026-04-26T16:10:55.866Z</time></trkpt><trkpt lat="44.7110439" lon="12.2316442"><ele>1.0</ele><time>2026-04-26T16:10:56.867Z</time></trkpt><trkpt lat="44.7111805" lon="12.2316637"><ele>1.0</ele><time>2026-04-26T16:10:57.866Z</time></trkpt><trkpt lat="44.7113055" lon="12.2316823"><ele>1.0</ele><time>2026-04-26T16:10:58.867Z</time></trkpt><trkpt lat="44.7114233" lon="12.2316998"><ele>1.0</ele><time>2026-04-26T16:10:59.867Z</time></trkpt><trkpt lat="44.7115361" lon="12.2317146"><ele>1.0</ele><time>2026-04-26T16:11:00.867Z</time></trkpt><trkpt lat="44.7116399" lon="12.2317279"><ele>1.0</ele><time>2026-04-26T16:11:01.867Z</time></trkpt><trkpt lat="44.7117361" lon="12.2317394"><ele>1.0</ele><time>2026-04-26T16:11:02.866Z</time></trkpt><trkpt lat="44.7118267" lon="12.2317491"><ele>1.0</ele><time>2026-04-26T16:11:03.866Z</time></trkpt><trkpt lat="44.7119226" lon="12.2317599"><ele>1.0</ele><time>2026-04-26T16:11:04.866Z</time></trkpt><trkpt lat="44.7120243" lon="12.2317663"><ele>1.0</ele><time>2026-04-26T16:11:05.866Z</time></trkpt><trkpt lat="44.7121358" lon="12.2317565"><ele>1.0</ele><time>2026-04-26T16:11:06.867Z</time></trkpt><trkpt lat="44.7122538" lon="12.2317342"><ele>1.0</ele><time>2026-04-26T16:11:07.866Z</time></trkpt><trkpt lat="44.7123798" lon="12.2317057"><ele>1.0</ele><time>2026-04-26T16:11:08.866Z</time></trkpt><trkpt lat="44.7125094" lon="12.2316697"><ele>1.0</ele><time>2026-04-26T16:11:09.866Z</time></trkpt><trkpt lat="44.7126436" lon="12.2316278"><ele>1.0</ele><time>2026-04-26T16:11:10.867Z</time></trkpt><trkpt lat="44.7127867" lon="12.2315897"><ele>1.0</ele><time>2026-04-26T16:11:11.866Z</time></trkpt><trkpt lat="44.712938" lon="12.2315649"><ele>2.0</ele><time>2026-04-26T16:11:12.866Z</time></trkpt><trkpt lat="44.7130915" lon="12.2315636"><ele>3.0</ele><time>2026-04-26T16:11:13.867Z</time></trkpt><trkpt lat="44.7132519" lon="12.231582"><ele>4.0</ele><time>2026-04-26T16:11:14.867Z</time></trkpt><trkpt lat="44.713412" lon="12.2316106"><ele>3.6666666666666665</ele><time>2026-04-26T16:11:15.866Z</time></trkpt><trkpt lat="44.7135721" lon="12.231638"><ele>3.333333333333333</ele><time>2026-04-26T16:11:16.866Z</time></trkpt><trkpt lat="44.7137261" lon="12.2316594"><ele>3.0</ele><time>2026-04-26T16:11:17.867Z</time></trkpt><trkpt lat="44.7138744" lon="12.231679"><ele>3.0</ele><time>2026-04-26T16:11:18.866Z</time></trkpt><trkpt lat="44.7140169" lon="12.2317133"><ele>3.0</ele><time>2026-04-26T16:11:19.866Z</time></trkpt><trkpt lat="44.7141575" lon="12.2317605"><ele>3.0</ele><time>2026-04-26T16:11:20.866Z</time></trkpt><trkpt lat="44.7142931" lon="12.2318291"><ele>3.0</ele><time>2026-04-26T16:11:21.867Z</time></trkpt><trkpt lat="44.7144256" lon="12.2319261"><ele>3.0</ele><time>2026-04-26T16:11:22.866Z</time></trkpt><trkpt lat="44.7145511" lon="12.2320462"><ele>3.0</ele><time>2026-04-26T16:11:23.867Z</time></trkpt><trkpt lat="44.7146712" lon="12.2321728"><ele>3.0</ele><time>2026-04-26T16:11:24.866Z</time></trkpt><trkpt lat="44.7147847" lon="12.232314"><ele>3.25</ele><time>2026-04-26T16:11:25.866Z</time></trkpt><trkpt lat="44.7149007" lon="12.2324435"><ele>3.5</ele><time>2026-04-26T16:11:26.866Z</time></trkpt><trkpt lat="44.7150152" lon="12.2325657"><ele>3.75</ele><time>2026-04-26T16:11:27.866Z</time></trkpt><trkpt lat="44.7151455" lon="12.2326688"><ele>4.0</ele><time>2026-04-26T16:11:28.867Z</time></trkpt><trkpt lat="44.7152823" lon="12.2327441"><ele>5.333333333333333</ele><time>2026-04-26T16:11:29.867Z</time></trkpt><trkpt lat="44.7154241" lon="12.2328135"><ele>6.666666666666666</ele><time>2026-04-26T16:11:30.866Z</time></trkpt><trkpt lat="44.7155812" lon="12.2328546"><ele>8.0</ele><time>2026-04-26T16:11:31.866Z</time></trkpt><trkpt lat="44.7157334" lon="12.2328908"><ele>8.0</ele><time>2026-04-26T16:11:32.867Z</time></trkpt><trkpt lat="44.7158833" lon="12.2329225"><ele>8.0</ele><time>2026-04-26T16:11:33.867Z</time></trkpt><trkpt lat="44.7160361" lon="12.2329568"><ele>8.0</ele><time>2026-04-26T16:11:34.867Z</time></trkpt><trkpt lat="44.7161907" lon="12.2329965"><ele>5.333333333333333</ele><time>2026-04-26T16:11:35.866Z</time></trkpt><trkpt lat="44.716353" lon="12.233037"><ele>2.6666666666666665</ele><time>2026-04-26T16:11:36.867Z</time></trkpt><trkpt lat="44.7165214" lon="12.2330762"><ele>0.0</ele><time>2026-04-26T16:11:37.866Z</time></trkpt><trkpt lat="44.7166912" lon="12.2331112"><ele>1.3333333333333333</ele><time>2026-04-26T16:11:38.866Z</time></trkpt><trkpt lat="44.7168614" lon="12.2331469"><ele>2.6666666666666665</ele><time>2026-04-26T16:11:39.867Z</time></trkpt><trkpt lat="44.7170333" lon="12.2331945"><ele>4.0</ele><time>2026-04-26T16:11:40.867Z</time></trkpt><trkpt lat="44.7172074" lon="12.2332371"><ele>4.333333333333333</ele><time>2026-04-26T16:11:41.866Z</time></trkpt><trkpt lat="44.7173742" lon="12.2332758"><ele>4.666666666666667</ele><time>2026-04-26T16:11:42.867Z</time></trkpt><trkpt lat="44.7175339" lon="12.2333114"><ele>5.0</ele><time>2026-04-26T16:11:43.867Z</time></trkpt><trkpt lat="44.7176856" lon="12.2333487"><ele>4.25</ele><time>2026-04-26T16:11:44.867Z</time></trkpt><trkpt lat="44.717824" lon="12.2333827"><ele>3.5</ele><time>2026-04-26T16:11:45.866Z</time></trkpt><trkpt lat="44.7179564" lon="12.2334084"><ele>2.75</ele><time>2026-04-26T16:11:46.867Z</time></trkpt><trkpt lat="44.7180807" lon="12.2334382"><ele>2.0</ele><time>2026-04-26T16:11:47.866Z</time></trkpt><trkpt lat="44.7181948" lon="12.2334652"><ele>2.0</ele><time>2026-04-26T16:11:48.867Z</time></trkpt><trkpt lat="44.7183107" lon="12.2335087"><ele>2.0</ele><time>2026-04-26T16:11:49.866Z</time></trkpt><trkpt lat="44.7184243" lon="12.2335317"><ele>2.0</ele><time>2026-04-26T16:11:50.867Z</time></trkpt><trkpt lat="44.7187459" lon="12.2336113"><ele>2.0</ele><time>2026-04-26T16:11:53.867Z</time></trkpt><trkpt lat="44.7188506" lon="12.2336343"><ele>2.0</ele><time>2026-04-26T16:11:54.866Z</time></trkpt><trkpt lat="44.7189544" lon="12.2336593"><ele>2.0</ele><time>2026-04-26T16:11:55.867Z</time></trkpt><trkpt lat="44.7191501" lon="12.2337075"><ele>2.0</ele><time>2026-04-26T16:11:57.866Z</time></trkpt><trkpt lat="44.7192468" lon="12.2337346"><ele>2.0</ele><time>2026-04-26T16:11:58.867Z</time></trkpt><trkpt lat="44.7193508" lon="12.2337648"><ele>2.0</ele><time>2026-04-26T16:11:59.867Z</time></trkpt><trkpt lat="44.7195667" lon="12.2338333"><ele>2.0</ele><time>2026-04-26T16:12:01.866Z</time></trkpt><trkpt lat="44.7196839" lon="12.2338716"><ele>2.0</ele><time>2026-04-26T16:12:02.867Z</time></trkpt><trkpt lat="44.7198082" lon="12.2339105"><ele>2.0</ele><time>2026-04-26T16:12:03.867Z</time></trkpt><trkpt lat="44.7199378" lon="12.2339475"><ele>2.0</ele><time>2026-04-26T16:12:04.866Z</time></trkpt><trkpt lat="44.7200742" lon="12.2339867"><ele>2.0</ele><time>2026-04-26T16:12:05.867Z</time></trkpt><trkpt lat="44.720215" lon="12.2340288"><ele>2.0</ele><time>2026-04-26T16:12:06.866Z</time></trkpt><trkpt lat="44.7203579" lon="12.2340733"><ele>2.0</ele><time>2026-04-26T16:12:07.867Z</time></trkpt><trkpt lat="44.7205062" lon="12.2341178"><ele>2.0</ele><time>2026-04-26T16:12:08.866Z</time></trkpt><trkpt lat="44.7206599" lon="12.234165"><ele>2.0</ele><time>2026-04-26T16:12:09.866Z</time></trkpt><trkpt lat="44.7208164" lon="12.2342169"><ele>2.0</ele><time>2026-04-26T16:12:10.867Z</time></trkpt><trkpt lat="44.7209743" lon="12.234271"><ele>2.0</ele><time>2026-04-26T16:12:11.866Z</time></trkpt><trkpt lat="44.7211408" lon="12.2343209"><ele>2.0</ele><time>2026-04-26T16:12:12.867Z</time></trkpt><trkpt lat="44.7213037" lon="12.2343675"><ele>1.6666666666666665</ele><time>2026-04-26T16:12:13.866Z</time></trkpt><trkpt lat="44.7214759" lon="12.2344198"><ele>1.3333333333333333</ele><time>2026-04-26T16:12:14.867Z</time></trkpt><trkpt lat="44.7216497" lon="12.2344717"><ele>1.0</ele><time>2026-04-26T16:12:15.867Z</time></trkpt><trkpt lat="44.7218261" lon="12.2345249"><ele>0.6666666666666666</ele><time>2026-04-26T16:12:16.866Z</time></trkpt><trkpt lat="44.7220004" lon="12.23458"><ele>0.3333333333333333</ele><time>2026-04-26T16:12:17.866Z</time></trkpt><trkpt lat="44.7221641" lon="12.2346353"><ele>0.0</ele><time>2026-04-26T16:12:18.866Z</time></trkpt><trkpt lat="44.7223165" lon="12.2346826"><ele>0.0</ele><time>2026-04-26T16:12:19.866Z</time></trkpt><trkpt lat="44.7224686" lon="12.2347312"><ele>0.0</ele><time>2026-04-26T16:12:20.867Z</time></trkpt><trkpt lat="44.7226155" lon="12.2347786"><ele>0.0</ele><time>2026-04-26T16:12:21.867Z</time></trkpt><trkpt lat="44.7227551" lon="12.2348129"><ele>0.0</ele><time>2026-04-26T16:12:22.867Z</time></trkpt><trkpt lat="44.7228971" lon="12.2348222"><ele>0.3333333333333333</ele><time>2026-04-26T16:12:23.866Z</time></trkpt><trkpt lat="44.7230483" lon="12.2348088"><ele>0.6666666666666666</ele><time>2026-04-26T16:12:24.867Z</time></trkpt><trkpt lat="44.7231992" lon="12.2347736"><ele>1.0</ele><time>2026-04-26T16:12:25.866Z</time></trkpt><trkpt lat="44.7233536" lon="12.2347108"><ele>1.0</ele><time>2026-04-26T16:12:26.866Z</time></trkpt><trkpt lat="44.7235048" lon="12.2346165"><ele>1.0</ele><time>2026-04-26T16:12:27.867Z</time></trkpt><trkpt lat="44.7236477" lon="12.2344982"><ele>1.0</ele><time>2026-04-26T16:12:28.866Z</time></trkpt><trkpt lat="44.7237835" lon="12.234352"><ele>2.3333333333333335</ele><time>2026-04-26T16:12:29.867Z</time></trkpt><trkpt lat="44.7239087" lon="12.2341813"><ele>3.666666666666667</ele><time>2026-04-26T16:12:30.867Z</time></trkpt><trkpt lat="44.7240186" lon="12.2339863"><ele>5.0</ele><time>2026-04-26T16:12:31.867Z</time></trkpt><trkpt lat="44.724111" lon="12.233766"><ele>5.0</ele><time>2026-04-26T16:12:32.866Z</time></trkpt><trkpt lat="44.7241817" lon="12.2335251"><ele>5.0</ele><time>2026-04-26T16:12:33.866Z</time></trkpt><trkpt lat="44.7242466" lon="12.2332724"><ele>5.0</ele><time>2026-04-26T16:12:34.866Z</time></trkpt><trkpt lat="44.7242994" lon="12.233011"><ele>4.333333333333334</ele><time>2026-04-26T16:12:35.867Z</time></trkpt><trkpt lat="44.7243456" lon="12.2327246"><ele>3.666666666666667</ele><time>2026-04-26T16:12:36.867Z</time></trkpt><trkpt lat="44.7244027" lon="12.2324068"><ele>3.0</ele><time>2026-04-26T16:12:37.867Z</time></trkpt><trkpt lat="44.7244691" lon="12.2320685"><ele>1.5</ele><time>2026-04-26T16:12:38.867Z</time></trkpt><trkpt lat="44.7245356" lon="12.2317201"><ele>0.0</ele><time>2026-04-26T16:12:39.867Z</time></trkpt><trkpt lat="44.7245987" lon="12.2313663"><ele>0.0</ele><time>2026-04-26T16:12:40.866Z</time></trkpt><trkpt lat="44.7246647" lon="12.2310135"><ele>0.0</ele><time>2026-04-26T16:12:41.866Z</time></trkpt><trkpt lat="44.7247261" lon="12.2306662"><ele>-0.5</ele><time>2026-04-26T16:12:42.867Z</time></trkpt><trkpt lat="44.7247868" lon="12.230338"><ele>-1.0</ele><time>2026-04-26T16:12:43.866Z</time></trkpt><trkpt lat="44.724846" lon="12.2300302"><ele>-1.3333333333333333</ele><time>2026-04-26T16:12:44.866Z</time></trkpt><trkpt lat="44.7249041" lon="12.2297239"><ele>-1.6666666666666665</ele><time>2026-04-26T16:12:45.866Z</time></trkpt><trkpt lat="44.7249588" lon="12.2294218"><ele>-2.0</ele><time>2026-04-26T16:12:46.867Z</time></trkpt><trkpt lat="44.7250111" lon="12.2291193"><ele>-2.0</ele><time>2026-04-26T16:12:47.866Z</time></trkpt><trkpt lat="44.725068" lon="12.2288201"><ele>-2.0</ele><time>2026-04-26T16:12:48.867Z</time></trkpt><trkpt lat="44.7251234" lon="12.2285266"><ele>-2.0</ele><time>2026-04-26T16:12:49.866Z</time></trkpt><trkpt lat="44.7251804" lon="12.2282298"><ele>-2.333333333333333</ele><time>2026-04-26T16:12:50.867Z</time></trkpt><trkpt lat="44.7252327" lon="12.2279362"><ele>-2.6666666666666665</ele><time>2026-04-26T16:12:51.867Z</time></trkpt><trkpt lat="44.7252834" lon="12.2276403"><ele>-3.0</ele><time>2026-04-26T16:12:52.867Z</time></trkpt><trkpt lat="44.7253359" lon="12.2273565"><ele>-2.0</ele><time>2026-04-26T16:12:53.867Z</time></trkpt><trkpt lat="44.725385" lon="12.2270885"><ele>-1.0</ele><time>2026-04-26T16:12:54.866Z</time></trkpt><trkpt lat="44.7254507" lon="12.2268434"><ele>0.0</ele><time>2026-04-26T16:12:55.867Z</time></trkpt><trkpt lat="44.7255349" lon="12.2266218"><ele>0.3333333333333333</ele><time>2026-04-26T16:12:56.867Z</time></trkpt><trkpt lat="44.7256327" lon="12.22642"><ele>0.6666666666666666</ele><time>2026-04-26T16:12:57.866Z</time></trkpt><trkpt lat="44.7257485" lon="12.2262475"><ele>1.0</ele><time>2026-04-26T16:12:58.867Z</time></trkpt><trkpt lat="44.7258824" lon="12.2260951"><ele>1.0</ele><time>2026-04-26T16:12:59.867Z</time></trkpt><trkpt lat="44.7260261" lon="12.2259704"><ele>1.0</ele><time>2026-04-26T16:13:00.866Z</time></trkpt><trkpt lat="44.7261835" lon="12.2258736"><ele>1.0</ele><time>2026-04-26T16:13:01.866Z</time></trkpt><trkpt lat="44.726349" lon="12.2257954"><ele>0.6666666666666666</ele><time>2026-04-26T16:13:02.866Z</time></trkpt><trkpt lat="44.7265194" lon="12.2257507"><ele>0.3333333333333333</ele><time>2026-04-26T16:13:03.866Z</time></trkpt><trkpt lat="44.7266945" lon="12.225741"><ele>0.0</ele><time>2026-04-26T16:13:04.867Z</time></trkpt><trkpt lat="44.7268757" lon="12.225761"><ele>0.0</ele><time>2026-04-26T16:13:05.866Z</time></trkpt><trkpt lat="44.7270596" lon="12.2258011"><ele>0.0</ele><time>2026-04-26T16:13:06.866Z</time></trkpt><trkpt lat="44.727247" lon="12.2258558"><ele>0.0</ele><time>2026-04-26T16:13:07.866Z</time></trkpt><trkpt lat="44.7274455" lon="12.2259094"><ele>0.0</ele><time>2026-04-26T16:13:08.866Z</time></trkpt><trkpt lat="44.7276479" lon="12.2259659"><ele>0.0</ele><time>2026-04-26T16:13:09.867Z</time></trkpt><trkpt lat="44.7278562" lon="12.2260271"><ele>0.0</ele><time>2026-04-26T16:13:10.867Z</time></trkpt><trkpt lat="44.7280683" lon="12.2260905"><ele>-0.5</ele><time>2026-04-26T16:13:11.867Z</time></trkpt><trkpt lat="44.7282875" lon="12.2261517"><ele>-1.0</ele><time>2026-04-26T16:13:12.866Z</time></trkpt><trkpt lat="44.7285096" lon="12.2262137"><ele>-0.5</ele><time>2026-04-26T16:13:13.866Z</time></trkpt><trkpt lat="44.7287368" lon="12.2262736"><ele>0.0</ele><time>2026-04-26T16:13:14.866Z</time></trkpt><trkpt lat="44.7289657" lon="12.2263376"><ele>0.0</ele><time>2026-04-26T16:13:15.866Z</time></trkpt><trkpt lat="44.7291995" lon="12.2263993"><ele>0.0</ele><time>2026-04-26T16:13:16.866Z</time></trkpt><trkpt lat="44.7294341" lon="12.2264557"><ele>0.0</ele><time>2026-04-26T16:13:17.867Z</time></trkpt><trkpt lat="44.7296668" lon="12.2265132"><ele>0.0</ele><time>2026-04-26T16:13:18.867Z</time></trkpt><trkpt lat="44.7298981" lon="12.2265743"><ele>0.0</ele><time>2026-04-26T16:13:19.867Z</time></trkpt><trkpt lat="44.7301276" lon="12.2266414"><ele>0.0</ele><time>2026-04-26T16:13:20.867Z</time></trkpt><trkpt lat="44.7303539" lon="12.2267073"><ele>1.0</ele><time>2026-04-26T16:13:21.867Z</time></trkpt><trkpt lat="44.7305784" lon="12.2267677"><ele>2.0</ele><time>2026-04-26T16:13:22.866Z</time></trkpt><trkpt lat="44.7308014" lon="12.2268272"><ele>2.0</ele><time>2026-04-26T16:13:23.866Z</time></trkpt><trkpt lat="44.7310214" lon="12.2268887"><ele>2.0</ele><time>2026-04-26T16:13:24.867Z</time></trkpt><trkpt lat="44.7312357" lon="12.2269493"><ele>2.0</ele><time>2026-04-26T16:13:25.867Z</time></trkpt><trkpt lat="44.7314523" lon="12.2270089"><ele>1.6666666666666665</ele><time>2026-04-26T16:13:26.866Z</time></trkpt><trkpt lat="44.7316657" lon="12.227077"><ele>1.3333333333333333</ele><time>2026-04-26T16:13:27.866Z</time></trkpt><trkpt lat="44.7318732" lon="12.2271475"><ele>1.0</ele><time>2026-04-26T16:13:28.867Z</time></trkpt><trkpt lat="44.7320806" lon="12.2272255"><ele>1.0</ele><time>2026-04-26T16:13:29.867Z</time></trkpt><trkpt lat="44.7322865" lon="12.2273113"><ele>1.0</ele><time>2026-04-26T16:13:30.866Z</time></trkpt><trkpt lat="44.7324896" lon="12.2273977"><ele>1.0</ele><time>2026-04-26T16:13:31.866Z</time></trkpt><trkpt lat="44.732695" lon="12.2274879"><ele>1.3333333333333333</ele><time>2026-04-26T16:13:32.866Z</time></trkpt><trkpt lat="44.7328968" lon="12.2275753"><ele>1.6666666666666665</ele><time>2026-04-26T16:13:33.867Z</time></trkpt><trkpt lat="44.7330987" lon="12.2276535"><ele>2.0</ele><time>2026-04-26T16:13:34.866Z</time></trkpt><trkpt lat="44.7332978" lon="12.227739"><ele>2.0</ele><time>2026-04-26T16:13:35.867Z</time></trkpt><trkpt lat="44.7334955" lon="12.2278196"><ele>2.0</ele><time>2026-04-26T16:13:36.866Z</time></trkpt><trkpt lat="44.733684" lon="12.2279003"><ele>2.0</ele><time>2026-04-26T16:13:37.867Z</time></trkpt><trkpt lat="44.733857" lon="12.2279818"><ele>1.6666666666666665</ele><time>2026-04-26T16:13:38.866Z</time></trkpt><trkpt lat="44.7340175" lon="12.2280534"><ele>1.3333333333333333</ele><time>2026-04-26T16:13:39.866Z</time></trkpt><trkpt lat="44.7341715" lon="12.2281268"><ele>1.0</ele><time>2026-04-26T16:13:40.867Z</time></trkpt><trkpt lat="44.7343201" lon="12.2281921"><ele>1.0</ele><time>2026-04-26T16:13:41.867Z</time></trkpt><trkpt lat="44.7344574" lon="12.2282508"><ele>1.0</ele><time>2026-04-26T16:13:42.867Z</time></trkpt><trkpt lat="44.7345914" lon="12.2283065"><ele>1.0</ele><time>2026-04-26T16:13:43.866Z</time></trkpt><trkpt lat="44.7347256" lon="12.2283683"><ele>1.0</ele><time>2026-04-26T16:13:44.867Z</time></trkpt><trkpt lat="44.7348608" lon="12.2284266"><ele>1.0</ele><time>2026-04-26T16:13:45.867Z</time></trkpt><trkpt lat="44.7349969" lon="12.2284909"><ele>1.0</ele><time>2026-04-26T16:13:46.867Z</time></trkpt><trkpt lat="44.7351349" lon="12.2285506"><ele>1.0</ele><time>2026-04-26T16:13:47.867Z</time></trkpt><trkpt lat="44.7352729" lon="12.2286096"><ele>1.0</ele><time>2026-04-26T16:13:48.866Z</time></trkpt><trkpt lat="44.7354151" lon="12.2286705"><ele>1.0</ele><time>2026-04-26T16:13:49.867Z</time></trkpt><trkpt lat="44.7355603" lon="12.2287323"><ele>1.0</ele><time>2026-04-26T16:13:50.866Z</time></trkpt><trkpt lat="44.7357067" lon="12.2287922"><ele>1.0</ele><time>2026-04-26T16:13:51.866Z</time></trkpt><trkpt lat="44.7358459" lon="12.2288493"><ele>1.0</ele><time>2026-04-26T16:13:52.867Z</time></trkpt><trkpt lat="44.7359909" lon="12.2289055"><ele>1.0</ele><time>2026-04-26T16:13:53.866Z</time></trkpt><trkpt lat="44.7361189" lon="12.2289713"><ele>1.0</ele><time>2026-04-26T16:13:54.866Z</time></trkpt><trkpt lat="44.7362432" lon="12.2290226"><ele>1.0</ele><time>2026-04-26T16:13:55.866Z</time></trkpt><trkpt lat="44.7363509" lon="12.2290741"><ele>1.0</ele><time>2026-04-26T16:13:56.867Z</time></trkpt><trkpt lat="44.7364528" lon="12.2291177"><ele>0.6000000000000001</ele><time>2026-04-26T16:13:57.866Z</time></trkpt><trkpt lat="44.7365475" lon="12.2291586"><ele>0.20000000000000007</ele><time>2026-04-26T16:13:58.866Z</time></trkpt><trkpt lat="44.7366387" lon="12.2291985"><ele>-0.20000000000000007</ele><time>2026-04-26T16:13:59.866Z</time></trkpt><trkpt lat="44.7367212" lon="12.2292388"><ele>-0.6000000000000001</ele><time>2026-04-26T16:14:00.866Z</time></trkpt><trkpt lat="44.7368031" lon="12.2292729"><ele>-1.0</ele><time>2026-04-26T16:14:01.866Z</time></trkpt><trkpt lat="44.7368876" lon="12.2293093"><ele>-1.0</ele><time>2026-04-26T16:14:02.867Z</time></trkpt><trkpt lat="44.7369758" lon="12.2293508"><ele>-1.0</ele><time>2026-04-26T16:14:03.867Z</time></trkpt><trkpt lat="44.7370644" lon="12.2293927"><ele>-1.0</ele><time>2026-04-26T16:14:04.867Z</time></trkpt><trkpt lat="44.7371617" lon="12.2294334"><ele>-1.0</ele><time>2026-04-26T16:14:05.867Z</time></trkpt><trkpt lat="44.7372649" lon="12.2294693"><ele>-1.0</ele><time>2026-04-26T16:14:06.866Z</time></trkpt><trkpt lat="44.7373689" lon="12.2295161"><ele>-1.0</ele><time>2026-04-26T16:14:07.867Z</time></trkpt><trkpt lat="44.7374748" lon="12.2295582"><ele>-1.0</ele><time>2026-04-26T16:14:08.866Z</time></trkpt><trkpt lat="44.7375848" lon="12.2296015"><ele>-1.0</ele><time>2026-04-26T16:14:09.867Z</time></trkpt><trkpt lat="44.7377004" lon="12.2296549"><ele>-1.0</ele><time>2026-04-26T16:14:10.867Z</time></trkpt><trkpt lat="44.7378269" lon="12.2297045"><ele>-0.6666666666666666</ele><time>2026-04-26T16:14:11.867Z</time></trkpt><trkpt lat="44.7379649" lon="12.2297653"><ele>-0.3333333333333333</ele><time>2026-04-26T16:14:12.867Z</time></trkpt><trkpt lat="44.7381236" lon="12.2298349"><ele>0.0</ele><time>2026-04-26T16:14:13.866Z</time></trkpt><trkpt lat="44.7382904" lon="12.2299062"><ele>0.0</ele><time>2026-04-26T16:14:14.866Z</time></trkpt><trkpt lat="44.7384702" lon="12.2299774"><ele>0.0</ele><time>2026-04-26T16:14:15.867Z</time></trkpt><trkpt lat="44.7386496" lon="12.2300553"><ele>0.0</ele><time>2026-04-26T16:14:16.866Z</time></trkpt><trkpt lat="44.7388332" lon="12.230135"><ele>-0.3333333333333333</ele><time>2026-04-26T16:14:17.866Z</time></trkpt><trkpt lat="44.7390157" lon="12.2302176"><ele>-0.6666666666666666</ele><time>2026-04-26T16:14:18.866Z</time></trkpt><trkpt lat="44.7391955" lon="12.2302958"><ele>-1.0</ele><time>2026-04-26T16:14:19.867Z</time></trkpt><trkpt lat="44.7393704" lon="12.2303745"><ele>-1.0</ele><time>2026-04-26T16:14:20.866Z</time></trkpt><trkpt lat="44.7395453" lon="12.2304444"><ele>-1.0</ele><time>2026-04-26T16:14:21.866Z</time></trkpt><trkpt lat="44.739715" lon="12.2305204"><ele>-1.0</ele><time>2026-04-26T16:14:22.866Z</time></trkpt><trkpt lat="44.7398825" lon="12.2306032"><ele>-1.3333333333333333</ele><time>2026-04-26T16:14:23.867Z</time></trkpt><trkpt lat="44.7400457" lon="12.2306928"><ele>-1.6666666666666665</ele><time>2026-04-26T16:14:24.866Z</time></trkpt><trkpt lat="44.7402087" lon="12.2307873"><ele>-2.0</ele><time>2026-04-26T16:14:25.866Z</time></trkpt><trkpt lat="44.7403684" lon="12.2308907"><ele>-2.0</ele><time>2026-04-26T16:14:26.866Z</time></trkpt><trkpt lat="44.7405301" lon="12.2309988"><ele>-2.0</ele><time>2026-04-26T16:14:27.866Z</time></trkpt><trkpt lat="44.7406905" lon="12.2311139"><ele>-2.0</ele><time>2026-04-26T16:14:28.866Z</time></trkpt><trkpt lat="44.7408521" lon="12.2312223"><ele>-2.0</ele><time>2026-04-26T16:14:29.867Z</time></trkpt><trkpt lat="44.7410123" lon="12.2313331"><ele>-2.0</ele><time>2026-04-26T16:14:30.867Z</time></trkpt><trkpt lat="44.7411705" lon="12.2314399"><ele>-2.0</ele><time>2026-04-26T16:14:31.866Z</time></trkpt><trkpt lat="44.7413332" lon="12.2315504"><ele>-1.3333333333333333</ele><time>2026-04-26T16:14:32.867Z</time></trkpt><trkpt lat="44.7414918" lon="12.231666"><ele>-0.6666666666666666</ele><time>2026-04-26T16:14:33.867Z</time></trkpt><trkpt lat="44.7416525" lon="12.2317795"><ele>0.0</ele><time>2026-04-26T16:14:34.866Z</time></trkpt><trkpt lat="44.7418171" lon="12.2318896"><ele>-0.6666666666666666</ele><time>2026-04-26T16:14:35.866Z</time></trkpt><trkpt lat="44.741975" lon="12.2320055"><ele>-1.3333333333333333</ele><time>2026-04-26T16:14:36.867Z</time></trkpt><trkpt lat="44.7421368" lon="12.2321179"><ele>-2.0</ele><time>2026-04-26T16:14:37.867Z</time></trkpt><trkpt lat="44.7422957" lon="12.2322308"><ele>-2.0</ele><time>2026-04-26T16:14:38.866Z</time></trkpt><trkpt lat="44.7424575" lon="12.2323428"><ele>-2.0</ele><time>2026-04-26T16:14:39.866Z</time></trkpt><trkpt lat="44.7426172" lon="12.2324555"><ele>-2.0</ele><time>2026-04-26T16:14:40.866Z</time></trkpt><trkpt lat="44.7427782" lon="12.2325646"><ele>-2.0</ele><time>2026-04-26T16:14:41.866Z</time></trkpt><trkpt lat="44.7429401" lon="12.232673"><ele>-2.0</ele><time>2026-04-26T16:14:42.866Z</time></trkpt><trkpt lat="44.743095" lon="12.2327744"><ele>-2.0</ele><time>2026-04-26T16:14:43.867Z</time></trkpt><trkpt lat="44.7432549" lon="12.2328803"><ele>-2.0</ele><time>2026-04-26T16:14:44.867Z</time></trkpt><trkpt lat="44.7434147" lon="12.2329908"><ele>-2.0</ele><time>2026-04-26T16:14:45.866Z</time></trkpt><trkpt lat="44.7435804" lon="12.2331105"><ele>-2.0</ele><time>2026-04-26T16:14:46.866Z</time></trkpt><trkpt lat="44.7437401" lon="12.2332261"><ele>-1.6666666666666665</ele><time>2026-04-26T16:14:47.866Z</time></trkpt><trkpt lat="44.7438991" lon="12.2333371"><ele>-1.3333333333333333</ele><time>2026-04-26T16:14:48.867Z</time></trkpt><trkpt lat="44.7440613" lon="12.2334466"><ele>-1.0</ele><time>2026-04-26T16:14:49.867Z</time></trkpt><trkpt lat="44.7442189" lon="12.2335572"><ele>-1.0</ele><time>2026-04-26T16:14:50.866Z</time></trkpt><trkpt lat="44.7443791" lon="12.2336664"><ele>-1.0</ele><time>2026-04-26T16:14:51.866Z</time></trkpt><trkpt lat="44.7445419" lon="12.233777"><ele>-1.0</ele><time>2026-04-26T16:14:52.866Z</time></trkpt><trkpt lat="44.7446999" lon="12.2338855"><ele>-1.3333333333333333</ele><time>2026-04-26T16:14:53.866Z</time></trkpt><trkpt lat="44.7448588" lon="12.233996"><ele>-1.6666666666666665</ele><time>2026-04-26T16:14:54.866Z</time></trkpt><trkpt lat="44.7450184" lon="12.2341017"><ele>-2.0</ele><time>2026-04-26T16:14:55.867Z</time></trkpt><trkpt lat="44.7451787" lon="12.2342115"><ele>-2.0</ele><time>2026-04-26T16:14:56.866Z</time></trkpt><trkpt lat="44.745341" lon="12.2343216"><ele>-2.0</ele><time>2026-04-26T16:14:57.866Z</time></trkpt><trkpt lat="44.7455032" lon="12.2344342"><ele>-2.0</ele><time>2026-04-26T16:14:58.867Z</time></trkpt><trkpt lat="44.7456624" lon="12.2345501"><ele>-2.0</ele><time>2026-04-26T16:14:59.866Z</time></trkpt><trkpt lat="44.7458191" lon="12.2346651"><ele>-2.0</ele><time>2026-04-26T16:15:00.866Z</time></trkpt><trkpt lat="44.7459803" lon="12.2347758"><ele>-2.0</ele><time>2026-04-26T16:15:01.866Z</time></trkpt><trkpt lat="44.7461398" lon="12.2348915"><ele>-2.0</ele><time>2026-04-26T16:15:02.866Z</time></trkpt><trkpt lat="44.7463052" lon="12.2350046"><ele>-2.0</ele><time>2026-04-26T16:15:03.867Z</time></trkpt><trkpt lat="44.7464698" lon="12.2351204"><ele>-2.0</ele><time>2026-04-26T16:15:04.867Z</time></trkpt><trkpt lat="44.7466313" lon="12.2352315"><ele>-2.0</ele><time>2026-04-26T16:15:05.866Z</time></trkpt><trkpt lat="44.7467886" lon="12.2353371"><ele>-2.0</ele><time>2026-04-26T16:15:06.867Z</time></trkpt><trkpt lat="44.7469492" lon="12.2354436"><ele>-2.0</ele><time>2026-04-26T16:15:07.867Z</time></trkpt><trkpt lat="44.7471148" lon="12.2355511"><ele>-1.0</ele><time>2026-04-26T16:15:08.866Z</time></trkpt><trkpt lat="44.7472727" lon="12.2356631"><ele>0.0</ele><time>2026-04-26T16:15:09.866Z</time></trkpt><trkpt lat="44.7474282" lon="12.235772"><ele>1.0</ele><time>2026-04-26T16:15:10.866Z</time></trkpt><trkpt lat="44.7475816" lon="12.2358757"><ele>0.0</ele><time>2026-04-26T16:15:11.867Z</time></trkpt><trkpt lat="44.7477362" lon="12.2359775"><ele>-1.0</ele><time>2026-04-26T16:15:12.866Z</time></trkpt><trkpt lat="44.7478908" lon="12.236082"><ele>-2.0</ele><time>2026-04-26T16:15:13.866Z</time></trkpt><trkpt lat="44.7480406" lon="12.236191"><ele>-2.0</ele><time>2026-04-26T16:15:14.866Z</time></trkpt><trkpt lat="44.748192" lon="12.2362977"><ele>-2.0</ele><time>2026-04-26T16:15:15.867Z</time></trkpt><trkpt lat="44.7483437" lon="12.2364037"><ele>-2.0</ele><time>2026-04-26T16:15:16.866Z</time></trkpt><trkpt lat="44.7484947" lon="12.2365139"><ele>-1.3333333333333333</ele><time>2026-04-26T16:15:17.866Z</time></trkpt><trkpt lat="44.7486466" lon="12.2366185"><ele>-0.6666666666666666</ele><time>2026-04-26T16:15:18.867Z</time></trkpt><trkpt lat="44.7487952" lon="12.2367237"><ele>0.0</ele><time>2026-04-26T16:15:19.866Z</time></trkpt><trkpt lat="44.7489408" lon="12.2368282"><ele>0.0</ele><time>2026-04-26T16:15:20.866Z</time></trkpt><trkpt lat="44.7490882" lon="12.2369294"><ele>0.0</ele><time>2026-04-26T16:15:21.867Z</time></trkpt><trkpt lat="44.7492344" lon="12.2370169"><ele>0.0</ele><time>2026-04-26T16:15:22.866Z</time></trkpt><trkpt lat="44.7493786" lon="12.2370989"><ele>0.0</ele><time>2026-04-26T16:15:23.866Z</time></trkpt><trkpt lat="44.7495259" lon="12.2371592"><ele>0.0</ele><time>2026-04-26T16:15:24.866Z</time></trkpt><trkpt lat="44.7496839" lon="12.237192"><ele>0.0</ele><time>2026-04-26T16:15:25.867Z</time></trkpt><trkpt lat="44.7498404" lon="12.237197"><ele>0.0</ele><time>2026-04-26T16:15:26.866Z</time></trkpt><trkpt lat="44.7499943" lon="12.2371689"><ele>0.0</ele><time>2026-04-26T16:15:27.867Z</time></trkpt><trkpt lat="44.7501448" lon="12.2371324"><ele>0.0</ele><time>2026-04-26T16:15:28.866Z</time></trkpt><trkpt lat="44.7503001" lon="12.2370566"><ele>0.3333333333333333</ele><time>2026-04-26T16:15:29.867Z</time></trkpt><trkpt lat="44.7504468" lon="12.2369491"><ele>0.6666666666666666</ele><time>2026-04-26T16:15:30.866Z</time></trkpt><trkpt lat="44.7505897" lon="12.2368212"><ele>1.0</ele><time>2026-04-26T16:15:31.867Z</time></trkpt><trkpt lat="44.7507208" lon="12.2366686"><ele>1.0</ele><time>2026-04-26T16:15:32.866Z</time></trkpt><trkpt lat="44.7508381" lon="12.2364923"><ele>1.0</ele><time>2026-04-26T16:15:33.866Z</time></trkpt><trkpt lat="44.7509446" lon="12.2362973"><ele>1.0</ele><time>2026-04-26T16:15:34.867Z</time></trkpt><trkpt lat="44.7510459" lon="12.236089"><ele>1.0</ele><time>2026-04-26T16:15:35.867Z</time></trkpt><trkpt lat="44.7511475" lon="12.2358763"><ele>1.0</ele><time>2026-04-26T16:15:36.867Z</time></trkpt><trkpt lat="44.7512493" lon="12.2356621"><ele>1.0</ele><time>2026-04-26T16:15:37.867Z</time></trkpt><trkpt lat="44.7513524" lon="12.235446"><ele>0.3333333333333333</ele><time>2026-04-26T16:15:38.866Z</time></trkpt><trkpt lat="44.7514594" lon="12.2352259"><ele>-0.3333333333333333</ele><time>2026-04-26T16:15:39.867Z</time></trkpt><trkpt lat="44.7515688" lon="12.2350002"><ele>-1.0</ele><time>2026-04-26T16:15:40.866Z</time></trkpt><trkpt lat="44.7516803" lon="12.234764"><ele>-1.0</ele><time>2026-04-26T16:15:41.866Z</time></trkpt><trkpt lat="44.7517902" lon="12.2345201"><ele>-1.0</ele><time>2026-04-26T16:15:42.866Z</time></trkpt><trkpt lat="44.7519033" lon="12.2342758"><ele>-1.0</ele><time>2026-04-26T16:15:43.867Z</time></trkpt><trkpt lat="44.7520193" lon="12.2340296"><ele>-0.6666666666666666</ele><time>2026-04-26T16:15:44.867Z</time></trkpt><trkpt lat="44.7521357" lon="12.2337826"><ele>-0.3333333333333333</ele><time>2026-04-26T16:15:45.867Z</time></trkpt><trkpt lat="44.7522517" lon="12.2335358"><ele>0.0</ele><time>2026-04-26T16:15:46.867Z</time></trkpt><trkpt lat="44.7523666" lon="12.2332838"><ele>-0.3333333333333333</ele><time>2026-04-26T16:15:47.867Z</time></trkpt><trkpt lat="44.7524711" lon="12.2330247"><ele>-0.6666666666666666</ele><time>2026-04-26T16:15:48.866Z</time></trkpt><trkpt lat="44.7525667" lon="12.2327549"><ele>-1.0</ele><time>2026-04-26T16:15:49.867Z</time></trkpt><trkpt lat="44.7526556" lon="12.2324794"><ele>-0.6666666666666666</ele><time>2026-04-26T16:15:50.866Z</time></trkpt><trkpt lat="44.7527445" lon="12.2322055"><ele>-0.3333333333333333</ele><time>2026-04-26T16:15:51.866Z</time></trkpt><trkpt lat="44.752837" lon="12.2319232"><ele>0.0</ele><time>2026-04-26T16:15:52.867Z</time></trkpt><trkpt lat="44.7529291" lon="12.2316437"><ele>-0.3333333333333333</ele><time>2026-04-26T16:15:53.866Z</time></trkpt><trkpt lat="44.7530238" lon="12.2313676"><ele>-0.6666666666666666</ele><time>2026-04-26T16:15:54.866Z</time></trkpt><trkpt lat="44.7531103" lon="12.231086"><ele>-1.0</ele><time>2026-04-26T16:15:55.866Z</time></trkpt><trkpt lat="44.7532027" lon="12.2308072"><ele>-1.3333333333333333</ele><time>2026-04-26T16:15:56.867Z</time></trkpt><trkpt lat="44.753295" lon="12.2305367"><ele>-1.6666666666666665</ele><time>2026-04-26T16:15:57.866Z</time></trkpt><trkpt lat="44.7533814" lon="12.2302671"><ele>-2.0</ele><time>2026-04-26T16:15:58.866Z</time></trkpt><trkpt lat="44.7534663" lon="12.2300088"><ele>-1.0</ele><time>2026-04-26T16:15:59.867Z</time></trkpt><trkpt lat="44.7535512" lon="12.2297682"><ele>0.0</ele><time>2026-04-26T16:16:00.866Z</time></trkpt><trkpt lat="44.753642" lon="12.2295547"><ele>1.0</ele><time>2026-04-26T16:16:01.867Z</time></trkpt><trkpt lat="44.7537528" lon="12.2293636"><ele>1.0</ele><time>2026-04-26T16:16:02.866Z</time></trkpt><trkpt lat="44.7538796" lon="12.2291943"><ele>1.0</ele><time>2026-04-26T16:16:03.866Z</time></trkpt><trkpt lat="44.7540213" lon="12.2290447"><ele>1.0</ele><time>2026-04-26T16:16:04.866Z</time></trkpt><trkpt lat="44.7541783" lon="12.2289213"><ele>1.0</ele><time>2026-04-26T16:16:05.866Z</time></trkpt><trkpt lat="44.7543468" lon="12.2288311"><ele>1.0</ele><time>2026-04-26T16:16:06.866Z</time></trkpt><trkpt lat="44.7545279" lon="12.2287705"><ele>1.0</ele><time>2026-04-26T16:16:07.866Z</time></trkpt><trkpt lat="44.7547106" lon="12.2287466"><ele>1.0</ele><time>2026-04-26T16:16:08.866Z</time></trkpt><trkpt lat="44.7548963" lon="12.2287563"><ele>1.0</ele><time>2026-04-26T16:16:09.866Z</time></trkpt><trkpt lat="44.7550793" lon="12.2288054"><ele>1.0</ele><time>2026-04-26T16:16:10.867Z</time></trkpt><trkpt lat="44.7552595" lon="12.22887"><ele>1.0</ele><time>2026-04-26T16:16:11.867Z</time></trkpt><trkpt lat="44.7554383" lon="12.2289483"><ele>1.0</ele><time>2026-04-26T16:16:12.867Z</time></trkpt><trkpt lat="44.7556214" lon="12.2290252"><ele>1.0</ele><time>2026-04-26T16:16:13.867Z</time></trkpt><trkpt lat="44.7558049" lon="12.2290997"><ele>1.0</ele><time>2026-04-26T16:16:14.866Z</time></trkpt><trkpt lat="44.7559913" lon="12.2291765"><ele>1.0</ele><time>2026-04-26T16:16:15.866Z</time></trkpt><trkpt lat="44.7561744" lon="12.2292621"><ele>1.0</ele><time>2026-04-26T16:16:16.866Z</time></trkpt><trkpt lat="44.7563599" lon="12.2293362"><ele>1.0</ele><time>2026-04-26T16:16:17.866Z</time></trkpt><trkpt lat="44.7565511" lon="12.2294104"><ele>1.0</ele><time>2026-04-26T16:16:18.867Z</time></trkpt><trkpt lat="44.7567393" lon="12.2294879"><ele>1.0</ele><time>2026-04-26T16:16:19.866Z</time></trkpt><trkpt lat="44.7569285" lon="12.229563"><ele>1.0</ele><time>2026-04-26T16:16:20.867Z</time></trkpt><trkpt lat="44.757111" lon="12.2296375"><ele>1.0</ele><time>2026-04-26T16:16:21.867Z</time></trkpt><trkpt lat="44.757286" lon="12.2297144"><ele>1.0</ele><time>2026-04-26T16:16:22.867Z</time></trkpt><trkpt lat="44.7574499" lon="12.2297874"><ele>1.0</ele><time>2026-04-26T16:16:23.866Z</time></trkpt><trkpt lat="44.7576033" lon="12.2298574"><ele>1.0</ele><time>2026-04-26T16:16:24.867Z</time></trkpt><trkpt lat="44.7577456" lon="12.2299155"><ele>1.0</ele><time>2026-04-26T16:16:25.866Z</time></trkpt><trkpt lat="44.7578804" lon="12.2299719"><ele>1.0</ele><time>2026-04-26T16:16:26.866Z</time></trkpt><trkpt lat="44.7580004" lon="12.2300213"><ele>1.0</ele><time>2026-04-26T16:16:27.866Z</time></trkpt><trkpt lat="44.7581094" lon="12.2300704"><ele>1.0</ele><time>2026-04-26T16:16:28.867Z</time></trkpt><trkpt lat="44.7582119" lon="12.230111"><ele>1.0</ele><time>2026-04-26T16:16:29.866Z</time></trkpt><trkpt lat="44.7583099" lon="12.2301571"><ele>1.0</ele><time>2026-04-26T16:16:30.866Z</time></trkpt><trkpt lat="44.7583977" lon="12.2301986"><ele>0.9999999999999999</ele><time>2026-04-26T16:16:31.866Z</time></trkpt><trkpt lat="44.7584848" lon="12.2302349"><ele>1.0</ele><time>2026-04-26T16:16:32.867Z</time></trkpt><trkpt lat="44.7585695" lon="12.2302645"><ele>1.0</ele><time>2026-04-26T16:16:33.866Z</time></trkpt><trkpt lat="44.7586449" lon="12.2302943"><ele>1.0</ele><time>2026-04-26T16:16:34.866Z</time></trkpt><trkpt lat="44.7587265" lon="12.2303294"><ele>0.9999999999999999</ele><time>2026-04-26T16:16:35.867Z</time></trkpt><trkpt lat="44.7588128" lon="12.2303642"><ele>1.0</ele><time>2026-04-26T16:16:36.866Z</time></trkpt><trkpt lat="44.7589052" lon="12.2304018"><ele>1.0</ele><time>2026-04-26T16:16:37.866Z</time></trkpt><trkpt lat="44.7590058" lon="12.2304366"><ele>1.0</ele><time>2026-04-26T16:16:38.866Z</time></trkpt><trkpt lat="44.7591113" lon="12.2304727"><ele>1.0</ele><time>2026-04-26T16:16:39.866Z</time></trkpt><trkpt lat="44.759219" lon="12.2305149"><ele>1.0</ele><time>2026-04-26T16:16:40.866Z</time></trkpt><trkpt lat="44.7593335" lon="12.2305769"><ele>1.0</ele><time>2026-04-26T16:16:41.867Z</time></trkpt><trkpt lat="44.759456" lon="12.2306304"><ele>0.5</ele><time>2026-04-26T16:16:42.866Z</time></trkpt><trkpt lat="44.7595852" lon="12.2306851"><ele>0.0</ele><time>2026-04-26T16:16:43.867Z</time></trkpt><trkpt lat="44.7597161" lon="12.2307408"><ele>-0.5</ele><time>2026-04-26T16:16:44.867Z</time></trkpt><trkpt lat="44.7598454" lon="12.2307949"><ele>-1.0</ele><time>2026-04-26T16:16:45.866Z</time></trkpt><trkpt lat="44.7599753" lon="12.2308406"><ele>-1.0</ele><time>2026-04-26T16:16:46.867Z</time></trkpt><trkpt lat="44.7601092" lon="12.2308802"><ele>-1.0</ele><time>2026-04-26T16:16:47.867Z</time></trkpt><trkpt lat="44.7602393" lon="12.2309132"><ele>-1.0</ele><time>2026-04-26T16:16:48.866Z</time></trkpt><trkpt lat="44.7603732" lon="12.2309241"><ele>-1.0</ele><time>2026-04-26T16:16:49.866Z</time></trkpt><trkpt lat="44.760521" lon="12.2309172"><ele>-0.6666666666666666</ele><time>2026-04-26T16:16:50.866Z</time></trkpt><trkpt lat="44.7606684" lon="12.2308884"><ele>-0.3333333333333333</ele><time>2026-04-26T16:16:51.866Z</time></trkpt><trkpt lat="44.7608164" lon="12.2308302"><ele>0.0</ele><time>2026-04-26T16:16:52.866Z</time></trkpt><trkpt lat="44.7609664" lon="12.2307506"><ele>0.3333333333333333</ele><time>2026-04-26T16:16:53.867Z</time></trkpt><trkpt lat="44.7611188" lon="12.2306547"><ele>0.6666666666666666</ele><time>2026-04-26T16:16:54.866Z</time></trkpt><trkpt lat="44.7612672" lon="12.2305477"><ele>1.0</ele><time>2026-04-26T16:16:55.866Z</time></trkpt><trkpt lat="44.7614092" lon="12.2304042"><ele>0.3333333333333333</ele><time>2026-04-26T16:16:56.866Z</time></trkpt><trkpt lat="44.7615476" lon="12.230255"><ele>-0.3333333333333333</ele><time>2026-04-26T16:16:57.867Z</time></trkpt><trkpt lat="44.7616868" lon="12.2301079"><ele>-1.0</ele><time>2026-04-26T16:16:58.867Z</time></trkpt><trkpt lat="44.7618278" lon="12.2299587"><ele>-1.3333333333333333</ele><time>2026-04-26T16:16:59.867Z</time></trkpt><trkpt lat="44.7619719" lon="12.2298088"><ele>-1.6666666666666665</ele><time>2026-04-26T16:17:00.866Z</time></trkpt><trkpt lat="44.7621161" lon="12.2296509"><ele>-2.0</ele><time>2026-04-26T16:17:01.866Z</time></trkpt><trkpt lat="44.7622608" lon="12.2294941"><ele>-2.0</ele><time>2026-04-26T16:17:02.866Z</time></trkpt><trkpt lat="44.7624072" lon="12.2293374"><ele>-2.0</ele><time>2026-04-26T16:17:03.866Z</time></trkpt><trkpt lat="44.7625577" lon="12.2291751"><ele>-2.0</ele><time>2026-04-26T16:17:04.866Z</time></trkpt><trkpt lat="44.7627199" lon="12.2290323"><ele>-1.3333333333333333</ele><time>2026-04-26T16:17:05.866Z</time></trkpt><trkpt lat="44.7628839" lon="12.2289087"><ele>-0.6666666666666666</ele><time>2026-04-26T16:17:06.867Z</time></trkpt><trkpt lat="44.7630598" lon="12.2288158"><ele>0.0</ele><time>2026-04-26T16:17:07.866Z</time></trkpt><trkpt lat="44.7632444" lon="12.228749"><ele>0.0</ele><time>2026-04-26T16:17:08.867Z</time></trkpt><trkpt lat="44.7634314" lon="12.2287062"><ele>0.0</ele><time>2026-04-26T16:17:09.866Z</time></trkpt><trkpt lat="44.7636218" lon="12.2286832"><ele>0.0</ele><time>2026-04-26T16:17:10.866Z</time></trkpt><trkpt lat="44.7638173" lon="12.2286895"><ele>-0.6666666666666666</ele><time>2026-04-26T16:17:11.866Z</time></trkpt><trkpt lat="44.7640119" lon="12.228715"><ele>-1.3333333333333333</ele><time>2026-04-26T16:17:12.866Z</time></trkpt><trkpt lat="44.764202" lon="12.2287792"><ele>-2.0</ele><time>2026-04-26T16:17:13.866Z</time></trkpt><trkpt lat="44.7643897" lon="12.2288656"><ele>-1.6666666666666665</ele><time>2026-04-26T16:17:14.867Z</time></trkpt><trkpt lat="44.7645742" lon="12.2289769"><ele>-1.3333333333333333</ele><time>2026-04-26T16:17:15.866Z</time></trkpt><trkpt lat="44.7647511" lon="12.2291014"><ele>-1.0</ele><time>2026-04-26T16:17:16.866Z</time></trkpt><trkpt lat="44.7649291" lon="12.229236"><ele>-1.0</ele><time>2026-04-26T16:17:17.866Z</time></trkpt><trkpt lat="44.7651091" lon="12.2293671"><ele>-1.0</ele><time>2026-04-26T16:17:18.866Z</time></trkpt><trkpt lat="44.7652914" lon="12.2294954"><ele>-1.0</ele><time>2026-04-26T16:17:19.867Z</time></trkpt><trkpt lat="44.765475" lon="12.2296233"><ele>-1.3333333333333333</ele><time>2026-04-26T16:17:20.867Z</time></trkpt><trkpt lat="44.7656576" lon="12.2297504"><ele>-1.6666666666666665</ele><time>2026-04-26T16:17:21.866Z</time></trkpt><trkpt lat="44.7658399" lon="12.2298828"><ele>-2.0</ele><time>2026-04-26T16:17:22.867Z</time></trkpt><trkpt lat="44.7660238" lon="12.2300164"><ele>-2.0</ele><time>2026-04-26T16:17:23.866Z</time></trkpt><trkpt lat="44.7662038" lon="12.2301534"><ele>-2.0</ele><time>2026-04-26T16:17:24.866Z</time></trkpt><trkpt lat="44.7663827" lon="12.2302896"><ele>-2.0</ele><time>2026-04-26T16:17:25.867Z</time></trkpt><trkpt lat="44.7665625" lon="12.2304273"><ele>-2.0</ele><time>2026-04-26T16:17:26.866Z</time></trkpt><trkpt lat="44.7667472" lon="12.2305682"><ele>-2.0</ele><time>2026-04-26T16:17:27.866Z</time></trkpt><trkpt lat="44.7669316" lon="12.230712"><ele>-2.0</ele><time>2026-04-26T16:17:28.866Z</time></trkpt><trkpt lat="44.7671165" lon="12.2308555"><ele>-1.6666666666666665</ele><time>2026-04-26T16:17:29.866Z</time></trkpt><trkpt lat="44.7672978" lon="12.2310018"><ele>-1.3333333333333333</ele><time>2026-04-26T16:17:30.866Z</time></trkpt><trkpt lat="44.7674788" lon="12.2311565"><ele>-1.0</ele><time>2026-04-26T16:17:31.867Z</time></trkpt><trkpt lat="44.767661" lon="12.2313128"><ele>-1.3333333333333333</ele><time>2026-04-26T16:17:32.867Z</time></trkpt><trkpt lat="44.7678398" lon="12.2314718"><ele>-1.6666666666666665</ele><time>2026-04-26T16:17:33.866Z</time></trkpt><trkpt lat="44.768017" lon="12.2316369"><ele>-2.0</ele><time>2026-04-26T16:17:34.866Z</time></trkpt><trkpt lat="44.7681908" lon="12.231804"><ele>-2.0</ele><time>2026-04-26T16:17:35.867Z</time></trkpt><trkpt lat="44.768364" lon="12.2319774"><ele>-2.0</ele><time>2026-04-26T16:17:36.867Z</time></trkpt><trkpt lat="44.7685404" lon="12.232148"><ele>-2.0</ele><time>2026-04-26T16:17:37.866Z</time></trkpt><trkpt lat="44.7687151" lon="12.2323259"><ele>-2.333333333333333</ele><time>2026-04-26T16:17:38.867Z</time></trkpt><trkpt lat="44.7688844" lon="12.2325097"><ele>-2.6666666666666665</ele><time>2026-04-26T16:17:39.866Z</time></trkpt><trkpt lat="44.7690572" lon="12.232685"><ele>-3.0</ele><time>2026-04-26T16:17:40.867Z</time></trkpt><trkpt lat="44.7692274" lon="12.2328666"><ele>-3.333333333333333</ele><time>2026-04-26T16:17:41.866Z</time></trkpt><trkpt lat="44.7694009" lon="12.2330473"><ele>-3.6666666666666665</ele><time>2026-04-26T16:17:42.867Z</time></trkpt><trkpt lat="44.7695707" lon="12.2332281"><ele>-4.0</ele><time>2026-04-26T16:17:43.866Z</time></trkpt><trkpt lat="44.769749" lon="12.2334072"><ele>-3.6666666666666665</ele><time>2026-04-26T16:17:44.867Z</time></trkpt><trkpt lat="44.7699324" lon="12.2335805"><ele>-3.333333333333333</ele><time>2026-04-26T16:17:45.867Z</time></trkpt><trkpt lat="44.7701035" lon="12.2337683"><ele>-3.0</ele><time>2026-04-26T16:17:46.866Z</time></trkpt><trkpt lat="44.7702688" lon="12.233958"><ele>-2.6666666666666665</ele><time>2026-04-26T16:17:47.867Z</time></trkpt><trkpt lat="44.7704425" lon="12.2341492"><ele>-2.333333333333333</ele><time>2026-04-26T16:17:48.867Z</time></trkpt><trkpt lat="44.7706187" lon="12.2343331"><ele>-2.0</ele><time>2026-04-26T16:17:49.866Z</time></trkpt><trkpt lat="44.7707944" lon="12.2345132"><ele>-2.0</ele><time>2026-04-26T16:17:50.866Z</time></trkpt><trkpt lat="44.770967" lon="12.2346933"><ele>-2.0</ele><time>2026-04-26T16:17:51.866Z</time></trkpt><trkpt lat="44.771136" lon="12.2348693"><ele>-2.0</ele><time>2026-04-26T16:17:52.866Z</time></trkpt><trkpt lat="44.7712996" lon="12.2350395"><ele>-2.0</ele><time>2026-04-26T16:17:53.867Z</time></trkpt><trkpt lat="44.7714548" lon="12.2352201"><ele>-2.0</ele><time>2026-04-26T16:17:54.867Z</time></trkpt><trkpt lat="44.7716039" lon="12.23541"><ele>-2.0</ele><time>2026-04-26T16:17:55.866Z</time></trkpt><trkpt lat="44.7717496" lon="12.2356045"><ele>-2.0</ele><time>2026-04-26T16:17:56.866Z</time></trkpt><trkpt lat="44.771883" lon="12.2358108"><ele>-2.0</ele><time>2026-04-26T16:17:57.866Z</time></trkpt><trkpt lat="44.7720067" lon="12.2360306"><ele>-2.0</ele><time>2026-04-26T16:17:58.867Z</time></trkpt><trkpt lat="44.7721153" lon="12.2362699"><ele>-2.0</ele><time>2026-04-26T16:17:59.866Z</time></trkpt><trkpt lat="44.7722094" lon="12.236521"><ele>-2.0</ele><time>2026-04-26T16:18:00.867Z</time></trkpt><trkpt lat="44.7723006" lon="12.2367805"><ele>-2.0</ele><time>2026-04-26T16:18:01.867Z</time></trkpt><trkpt lat="44.7723796" lon="12.2370376"><ele>-2.333333333333333</ele><time>2026-04-26T16:18:02.867Z</time></trkpt><trkpt lat="44.7724519" lon="12.2373056"><ele>-2.6666666666666665</ele><time>2026-04-26T16:18:03.866Z</time></trkpt><trkpt lat="44.7725231" lon="12.2375794"><ele>-3.0</ele><time>2026-04-26T16:18:04.866Z</time></trkpt><trkpt lat="44.7725925" lon="12.2378459"><ele>-3.0</ele><time>2026-04-26T16:18:05.866Z</time></trkpt><trkpt lat="44.7726682" lon="12.2381094"><ele>-3.0</ele><time>2026-04-26T16:18:06.866Z</time></trkpt><trkpt lat="44.7727409" lon="12.2383712"><ele>-3.0</ele><time>2026-04-26T16:18:07.867Z</time></trkpt><trkpt lat="44.772829" lon="12.2386223"><ele>-2.6666666666666665</ele><time>2026-04-26T16:18:08.866Z</time></trkpt><trkpt lat="44.7729341" lon="12.2388595"><ele>-2.333333333333333</ele><time>2026-04-26T16:18:09.866Z</time></trkpt><trkpt lat="44.7730565" lon="12.2390691"><ele>-2.0</ele><time>2026-04-26T16:18:10.867Z</time></trkpt><trkpt lat="44.7731967" lon="12.2392625"><ele>-1.6666666666666665</ele><time>2026-04-26T16:18:11.866Z</time></trkpt><trkpt lat="44.7733514" lon="12.239433"><ele>-1.3333333333333333</ele><time>2026-04-26T16:18:12.867Z</time></trkpt><trkpt lat="44.7735189" lon="12.2395883"><ele>-1.0</ele><time>2026-04-26T16:18:13.866Z</time></trkpt><trkpt lat="44.7736867" lon="12.2397421"><ele>-0.6666666666666666</ele><time>2026-04-26T16:18:14.866Z</time></trkpt><trkpt lat="44.7738493" lon="12.2399018"><ele>-0.3333333333333333</ele><time>2026-04-26T16:18:15.867Z</time></trkpt><trkpt lat="44.7740142" lon="12.2400597"><ele>0.0</ele><time>2026-04-26T16:18:16.867Z</time></trkpt><trkpt lat="44.7741832" lon="12.240225"><ele>0.0</ele><time>2026-04-26T16:18:17.867Z</time></trkpt><trkpt lat="44.7743539" lon="12.2403847"><ele>0.0</ele><time>2026-04-26T16:18:18.866Z</time></trkpt><trkpt lat="44.7745227" lon="12.240547"><ele>0.0</ele><time>2026-04-26T16:18:19.866Z</time></trkpt><trkpt lat="44.774693" lon="12.2407093"><ele>-0.6666666666666666</ele><time>2026-04-26T16:18:20.866Z</time></trkpt><trkpt lat="44.7748638" lon="12.2408734"><ele>-1.3333333333333333</ele><time>2026-04-26T16:18:21.866Z</time></trkpt><trkpt lat="44.7750333" lon="12.2410415"><ele>-2.0</ele><time>2026-04-26T16:18:22.867Z</time></trkpt><trkpt lat="44.7752002" lon="12.2412002"><ele>-2.333333333333333</ele><time>2026-04-26T16:18:23.866Z</time></trkpt><trkpt lat="44.775372" lon="12.2413666"><ele>-2.6666666666666665</ele><time>2026-04-26T16:18:24.867Z</time></trkpt><trkpt lat="44.7755443" lon="12.2415306"><ele>-3.0</ele><time>2026-04-26T16:18:25.866Z</time></trkpt><trkpt lat="44.7757162" lon="12.2416916"><ele>-2.6666666666666665</ele><time>2026-04-26T16:18:26.867Z</time></trkpt><trkpt lat="44.7758826" lon="12.241859"><ele>-2.333333333333333</ele><time>2026-04-26T16:18:27.867Z</time></trkpt><trkpt lat="44.7760559" lon="12.242023"><ele>-2.0</ele><time>2026-04-26T16:18:28.866Z</time></trkpt><trkpt lat="44.7762271" lon="12.2421869"><ele>-1.6666666666666665</ele><time>2026-04-26T16:18:29.866Z</time></trkpt><trkpt lat="44.7763954" lon="12.2423552"><ele>-1.3333333333333333</ele><time>2026-04-26T16:18:30.866Z</time></trkpt><trkpt lat="44.7765658" lon="12.2425228"><ele>-1.0</ele><time>2026-04-26T16:18:31.866Z</time></trkpt><trkpt lat="44.7767346" lon="12.242693"><ele>-1.0</ele><time>2026-04-26T16:18:32.866Z</time></trkpt><trkpt lat="44.7769068" lon="12.2428702"><ele>-1.0</ele><time>2026-04-26T16:18:33.867Z</time></trkpt><trkpt lat="44.7770765" lon="12.2430455"><ele>-1.0</ele><time>2026-04-26T16:18:34.867Z</time></trkpt><trkpt lat="44.7772464" lon="12.2432216"><ele>-1.0</ele><time>2026-04-26T16:18:35.866Z</time></trkpt><trkpt lat="44.7774195" lon="12.2434035"><ele>-1.0</ele><time>2026-04-26T16:18:36.866Z</time></trkpt><trkpt lat="44.7775893" lon="12.2435785"><ele>-1.0</ele><time>2026-04-26T16:18:37.866Z</time></trkpt><trkpt lat="44.7777629" lon="12.2437548"><ele>-1.0</ele><time>2026-04-26T16:18:38.867Z</time></trkpt><trkpt lat="44.7779311" lon="12.2439319"><ele>-1.0</ele><time>2026-04-26T16:18:39.866Z</time></trkpt><trkpt lat="44.7781049" lon="12.2441064"><ele>-1.0</ele><time>2026-04-26T16:18:40.867Z</time></trkpt><trkpt lat="44.7782784" lon="12.2442897"><ele>-1.0</ele><time>2026-04-26T16:18:41.866Z</time></trkpt><trkpt lat="44.7784496" lon="12.2444637"><ele>-1.0</ele><time>2026-04-26T16:18:42.866Z</time></trkpt><trkpt lat="44.7786252" lon="12.2446331"><ele>-1.0</ele><time>2026-04-26T16:18:43.866Z</time></trkpt><trkpt lat="44.7787977" lon="12.2448087"><ele>-1.3333333333333333</ele><time>2026-04-26T16:18:44.866Z</time></trkpt><trkpt lat="44.7789712" lon="12.244981"><ele>-1.6666666666666665</ele><time>2026-04-26T16:18:45.866Z</time></trkpt><trkpt lat="44.7791432" lon="12.2451594"><ele>-2.0</ele><time>2026-04-26T16:18:46.867Z</time></trkpt><trkpt lat="44.7793143" lon="12.2453333"><ele>-2.333333333333333</ele><time>2026-04-26T16:18:47.866Z</time></trkpt><trkpt lat="44.7794888" lon="12.2455071"><ele>-2.6666666666666665</ele><time>2026-04-26T16:18:48.866Z</time></trkpt><trkpt lat="44.7796637" lon="12.2456804"><ele>-3.0</ele><time>2026-04-26T16:18:49.866Z</time></trkpt><trkpt lat="44.7798338" lon="12.2458539"><ele>-3.0</ele><time>2026-04-26T16:18:50.867Z</time></trkpt><trkpt lat="44.7800062" lon="12.2460317"><ele>-3.0</ele><time>2026-04-26T16:18:51.866Z</time></trkpt><trkpt lat="44.780177" lon="12.2462061"><ele>-3.0</ele><time>2026-04-26T16:18:52.867Z</time></trkpt><trkpt lat="44.7803474" lon="12.2463799"><ele>-2.3333333333333335</ele><time>2026-04-26T16:18:53.866Z</time></trkpt><trkpt lat="44.78052" lon="12.2465508"><ele>-1.6666666666666665</ele><time>2026-04-26T16:18:54.866Z</time></trkpt><trkpt lat="44.7806875" lon="12.2467218"><ele>-1.0</ele><time>2026-04-26T16:18:55.866Z</time></trkpt><trkpt lat="44.7808584" lon="12.2468944"><ele>-1.3333333333333333</ele><time>2026-04-26T16:18:56.866Z</time></trkpt><trkpt lat="44.7810305" lon="12.2470658"><ele>-1.6666666666666665</ele><time>2026-04-26T16:18:57.866Z</time></trkpt><trkpt lat="44.7812032" lon="12.2472384"><ele>-2.0</ele><time>2026-04-26T16:18:58.866Z</time></trkpt><trkpt lat="44.7813735" lon="12.2474106"><ele>-2.0</ele><time>2026-04-26T16:18:59.866Z</time></trkpt><trkpt lat="44.7815441" lon="12.2475851"><ele>-2.0</ele><time>2026-04-26T16:19:00.867Z</time></trkpt><trkpt lat="44.7817146" lon="12.2477631"><ele>-2.0</ele><time>2026-04-26T16:19:01.866Z</time></trkpt><trkpt lat="44.7818766" lon="12.2479432"><ele>-2.0</ele><time>2026-04-26T16:19:02.866Z</time></trkpt><trkpt lat="44.7820365" lon="12.2481107"><ele>-2.0</ele><time>2026-04-26T16:19:03.867Z</time></trkpt><trkpt lat="44.7821983" lon="12.2482767"><ele>-2.0</ele><time>2026-04-26T16:19:04.866Z</time></trkpt><trkpt lat="44.7823547" lon="12.2484425"><ele>-2.0</ele><time>2026-04-26T16:19:05.867Z</time></trkpt><trkpt lat="44.782509" lon="12.2486112"><ele>-2.0</ele><time>2026-04-26T16:19:06.867Z</time></trkpt><trkpt lat="44.7826673" lon="12.2487841"><ele>-2.0</ele><time>2026-04-26T16:19:07.866Z</time></trkpt><trkpt lat="44.7828211" lon="12.2489519"><ele>-2.0</ele><time>2026-04-26T16:19:08.867Z</time></trkpt><trkpt lat="44.7829741" lon="12.249118"><ele>-2.0</ele><time>2026-04-26T16:19:09.866Z</time></trkpt><trkpt lat="44.7831313" lon="12.2492857"><ele>-2.0</ele><time>2026-04-26T16:19:10.867Z</time></trkpt><trkpt lat="44.783288" lon="12.2494616"><ele>-2.0</ele><time>2026-04-26T16:19:11.867Z</time></trkpt><trkpt lat="44.7834399" lon="12.2496358"><ele>-2.0</ele><time>2026-04-26T16:19:12.867Z</time></trkpt><trkpt lat="44.783586" lon="12.24982"><ele>-2.0</ele><time>2026-04-26T16:19:13.866Z</time></trkpt><trkpt lat="44.7837316" lon="12.250011"><ele>-1.6666666666666665</ele><time>2026-04-26T16:19:14.867Z</time></trkpt><trkpt lat="44.7838817" lon="12.250191"><ele>-1.3333333333333333</ele><time>2026-04-26T16:19:15.866Z</time></trkpt><trkpt lat="44.7840327" lon="12.2503712"><ele>-1.0</ele><time>2026-04-26T16:19:16.866Z</time></trkpt><trkpt lat="44.7841806" lon="12.2505531"><ele>-1.0</ele><time>2026-04-26T16:19:17.867Z</time></trkpt><trkpt lat="44.7843289" lon="12.250737"><ele>-1.0</ele><time>2026-04-26T16:19:18.867Z</time></trkpt><trkpt lat="44.7844766" lon="12.2509229"><ele>-1.0</ele><time>2026-04-26T16:19:19.867Z</time></trkpt><trkpt lat="44.784623" lon="12.2511096"><ele>-1.3333333333333333</ele><time>2026-04-26T16:19:20.866Z</time></trkpt><trkpt lat="44.7847733" lon="12.2512931"><ele>-1.6666666666666665</ele><time>2026-04-26T16:19:21.867Z</time></trkpt><trkpt lat="44.7849251" lon="12.2514782"><ele>-2.0</ele><time>2026-04-26T16:19:22.866Z</time></trkpt><trkpt lat="44.7850751" lon="12.2516579"><ele>-2.333333333333333</ele><time>2026-04-26T16:19:23.867Z</time></trkpt><trkpt lat="44.7852258" lon="12.2518406"><ele>-2.6666666666666665</ele><time>2026-04-26T16:19:24.866Z</time></trkpt><trkpt lat="44.7853769" lon="12.2520233"><ele>-3.0</ele><time>2026-04-26T16:19:25.866Z</time></trkpt><trkpt lat="44.7855315" lon="12.252214"><ele>-2.3333333333333335</ele><time>2026-04-26T16:19:26.866Z</time></trkpt><trkpt lat="44.7856825" lon="12.252398"><ele>-1.6666666666666665</ele><time>2026-04-26T16:19:27.867Z</time></trkpt><trkpt lat="44.7858333" lon="12.2525832"><ele>-1.0</ele><time>2026-04-26T16:19:28.866Z</time></trkpt><trkpt lat="44.7859816" lon="12.2527684"><ele>-1.0</ele><time>2026-04-26T16:19:29.866Z</time></trkpt><trkpt lat="44.7861361" lon="12.2529528"><ele>-1.0</ele><time>2026-04-26T16:19:30.867Z</time></trkpt><trkpt lat="44.7862896" lon="12.2531364"><ele>-1.0</ele><time>2026-04-26T16:19:31.867Z</time></trkpt><trkpt lat="44.7864472" lon="12.2533171"><ele>-1.3333333333333333</ele><time>2026-04-26T16:19:32.866Z</time></trkpt><trkpt lat="44.7866" lon="12.2535021"><ele>-1.6666666666666665</ele><time>2026-04-26T16:19:33.866Z</time></trkpt><trkpt lat="44.7867606" lon="12.253685"><ele>-2.0</ele><time>2026-04-26T16:19:34.866Z</time></trkpt><trkpt lat="44.7869184" lon="12.2538639"><ele>-2.0</ele><time>2026-04-26T16:19:35.866Z</time></trkpt><trkpt lat="44.7870778" lon="12.2540413"><ele>-2.0</ele><time>2026-04-26T16:19:36.866Z</time></trkpt><trkpt lat="44.7872392" lon="12.2542151"><ele>-2.0</ele><time>2026-04-26T16:19:37.866Z</time></trkpt><trkpt lat="44.7874017" lon="12.2543869"><ele>-2.0</ele><time>2026-04-26T16:19:38.866Z</time></trkpt><trkpt lat="44.787564" lon="12.2545482"><ele>-2.0</ele><time>2026-04-26T16:19:39.866Z</time></trkpt><trkpt lat="44.7877245" lon="12.2547093"><ele>-2.0</ele><time>2026-04-26T16:19:40.866Z</time></trkpt><trkpt lat="44.7878846" lon="12.2548693"><ele>-1.6666666666666665</ele><time>2026-04-26T16:19:41.867Z</time></trkpt><trkpt lat="44.7880382" lon="12.2550168"><ele>-1.3333333333333333</ele><time>2026-04-26T16:19:42.866Z</time></trkpt><trkpt lat="44.788187" lon="12.2551574"><ele>-1.0</ele><time>2026-04-26T16:19:43.867Z</time></trkpt><trkpt lat="44.7883347" lon="12.2552868"><ele>-1.0</ele><time>2026-04-26T16:19:44.866Z</time></trkpt><trkpt lat="44.7884822" lon="12.2554212"><ele>-1.0</ele><time>2026-04-26T16:19:45.867Z</time></trkpt><trkpt lat="44.7886282" lon="12.25555"><ele>-1.0</ele><time>2026-04-26T16:19:46.866Z</time></trkpt><trkpt lat="44.7887765" lon="12.2556811"><ele>-0.6666666666666666</ele><time>2026-04-26T16:19:47.866Z</time></trkpt><trkpt lat="44.788933" lon="12.2558117"><ele>-0.3333333333333333</ele><time>2026-04-26T16:19:48.866Z</time></trkpt><trkpt lat="44.7890863" lon="12.2559451"><ele>0.0</ele><time>2026-04-26T16:19:49.867Z</time></trkpt><trkpt lat="44.7892404" lon="12.2560724"><ele>-0.3333333333333333</ele><time>2026-04-26T16:19:50.866Z</time></trkpt><trkpt lat="44.7894016" lon="12.2562001"><ele>-0.6666666666666666</ele><time>2026-04-26T16:19:51.866Z</time></trkpt><trkpt lat="44.7895608" lon="12.2563283"><ele>-1.0</ele><time>2026-04-26T16:19:52.866Z</time></trkpt><trkpt lat="44.7897193" lon="12.2564558"><ele>-1.0</ele><time>2026-04-26T16:19:53.867Z</time></trkpt><trkpt lat="44.789882" lon="12.2565871"><ele>-1.0</ele><time>2026-04-26T16:19:54.866Z</time></trkpt><trkpt lat="44.7900371" lon="12.2567159"><ele>-1.0</ele><time>2026-04-26T16:19:55.867Z</time></trkpt><trkpt lat="44.7902024" lon="12.2568474"><ele>-1.6666666666666665</ele><time>2026-04-26T16:19:56.866Z</time></trkpt><trkpt lat="44.7903581" lon="12.2569723"><ele>-2.3333333333333335</ele><time>2026-04-26T16:19:57.867Z</time></trkpt><trkpt lat="44.7905091" lon="12.2570932"><ele>-3.0</ele><time>2026-04-26T16:19:58.866Z</time></trkpt><trkpt lat="44.7906593" lon="12.2572088"><ele>-2.75</ele><time>2026-04-26T16:19:59.866Z</time></trkpt><trkpt lat="44.7907817" lon="12.2573127"><ele>-2.5</ele><time>2026-04-26T16:20:00.866Z</time></trkpt><trkpt lat="44.7909062" lon="12.2574112"><ele>-2.25</ele><time>2026-04-26T16:20:01.866Z</time></trkpt><trkpt lat="44.7910364" lon="12.2574975"><ele>-2.0</ele><time>2026-04-26T16:20:02.867Z</time></trkpt><trkpt lat="44.7911619" lon="12.2575728"><ele>-2.0</ele><time>2026-04-26T16:20:03.866Z</time></trkpt><trkpt lat="44.7912967" lon="12.2576365"><ele>-2.0</ele><time>2026-04-26T16:20:04.867Z</time></trkpt><trkpt lat="44.7914328" lon="12.2576758"><ele>-2.0</ele><time>2026-04-26T16:20:05.866Z</time></trkpt><trkpt lat="44.7915781" lon="12.2576978"><ele>-2.0</ele><time>2026-04-26T16:20:06.867Z</time></trkpt><trkpt lat="44.7917265" lon="12.2577068"><ele>-1.3333333333333333</ele><time>2026-04-26T16:20:07.866Z</time></trkpt><trkpt lat="44.7918754" lon="12.2576847"><ele>-0.6666666666666666</ele><time>2026-04-26T16:20:08.867Z</time></trkpt><trkpt lat="44.7920268" lon="12.2576563"><ele>0.0</ele><time>2026-04-26T16:20:09.867Z</time></trkpt><trkpt lat="44.7921835" lon="12.2576181"><ele>0.0</ele><time>2026-04-26T16:20:10.867Z</time></trkpt><trkpt lat="44.7923475" lon="12.2575763"><ele>0.0</ele><time>2026-04-26T16:20:11.866Z</time></trkpt><trkpt lat="44.7925106" lon="12.2575351"><ele>0.0</ele><time>2026-04-26T16:20:12.867Z</time></trkpt><trkpt lat="44.7926783" lon="12.2574933"><ele>0.0</ele><time>2026-04-26T16:20:13.866Z</time></trkpt><trkpt lat="44.7928487" lon="12.2574426"><ele>0.0</ele><time>2026-04-26T16:20:14.866Z</time></trkpt><trkpt lat="44.7930207" lon="12.2573995"><ele>0.0</ele><time>2026-04-26T16:20:15.867Z</time></trkpt><trkpt lat="44.793183" lon="12.257356"><ele>0.0</ele><time>2026-04-26T16:20:16.866Z</time></trkpt><trkpt lat="44.7933424" lon="12.2573113"><ele>0.0</ele><time>2026-04-26T16:20:17.866Z</time></trkpt><trkpt lat="44.7934988" lon="12.2572668"><ele>0.0</ele><time>2026-04-26T16:20:18.867Z</time></trkpt><trkpt lat="44.7936534" lon="12.2572231"><ele>-1.0</ele><time>2026-04-26T16:20:19.867Z</time></trkpt><trkpt lat="44.7938057" lon="12.2571842"><ele>-2.0</ele><time>2026-04-26T16:20:20.867Z</time></trkpt><trkpt lat="44.7939575" lon="12.2571507"><ele>-3.0</ele><time>2026-04-26T16:20:21.867Z</time></trkpt><trkpt lat="44.7941147" lon="12.2571278"><ele>-3.0</ele><time>2026-04-26T16:20:22.866Z</time></trkpt><trkpt lat="44.7942727" lon="12.2571232"><ele>-3.0</ele><time>2026-04-26T16:20:23.866Z</time></trkpt><trkpt lat="44.7944303" lon="12.2571454"><ele>-3.0</ele><time>2026-04-26T16:20:24.867Z</time></trkpt><trkpt lat="44.794587" lon="12.2571851"><ele>-3.333333333333333</ele><time>2026-04-26T16:20:25.866Z</time></trkpt><trkpt lat="44.7947361" lon="12.257256"><ele>-3.6666666666666665</ele><time>2026-04-26T16:20:26.867Z</time></trkpt><trkpt lat="44.7948811" lon="12.2573487"><ele>-4.0</ele><time>2026-04-26T16:20:27.867Z</time></trkpt><trkpt lat="44.7950156" lon="12.2574636"><ele>-4.0</ele><time>2026-04-26T16:20:28.866Z</time></trkpt><trkpt lat="44.7951465" lon="12.2575923"><ele>-4.0</ele><time>2026-04-26T16:20:29.866Z</time></trkpt><trkpt lat="44.7952797" lon="12.2577363"><ele>-4.0</ele><time>2026-04-26T16:20:30.866Z</time></trkpt><trkpt lat="44.7954089" lon="12.2578942"><ele>-4.0</ele><time>2026-04-26T16:20:31.867Z</time></trkpt><trkpt lat="44.7955485" lon="12.2580458"><ele>-4.0</ele><time>2026-04-26T16:20:32.866Z</time></trkpt><trkpt lat="44.7956857" lon="12.2581999"><ele>-4.0</ele><time>2026-04-26T16:20:33.866Z</time></trkpt><trkpt lat="44.7958245" lon="12.2583501"><ele>-4.0</ele><time>2026-04-26T16:20:34.867Z</time></trkpt><trkpt lat="44.7959607" lon="12.2585027"><ele>-4.0</ele><time>2026-04-26T16:20:35.866Z</time></trkpt><trkpt lat="44.7960952" lon="12.258645"><ele>-4.0</ele><time>2026-04-26T16:20:36.866Z</time></trkpt><trkpt lat="44.7962233" lon="12.2587782"><ele>-4.0</ele><time>2026-04-26T16:20:37.867Z</time></trkpt><trkpt lat="44.7963493" lon="12.2589009"><ele>-4.0</ele><time>2026-04-26T16:20:38.866Z</time></trkpt><trkpt lat="44.7964743" lon="12.2590137"><ele>-4.0</ele><time>2026-04-26T16:20:39.867Z</time></trkpt><trkpt lat="44.7966052" lon="12.259109"><ele>-4.0</ele><time>2026-04-26T16:20:40.867Z</time></trkpt><trkpt lat="44.7967494" lon="12.2591671"><ele>-3.0</ele><time>2026-04-26T16:20:41.866Z</time></trkpt><trkpt lat="44.7969013" lon="12.2592027"><ele>-2.0</ele><time>2026-04-26T16:20:42.867Z</time></trkpt><trkpt lat="44.7970582" lon="12.2592235"><ele>-1.0</ele><time>2026-04-26T16:20:43.867Z</time></trkpt><trkpt lat="44.7972217" lon="12.2592345"><ele>-1.0</ele><time>2026-04-26T16:20:44.866Z</time></trkpt><trkpt lat="44.7973898" lon="12.2592344"><ele>-1.0</ele><time>2026-04-26T16:20:45.866Z</time></trkpt><trkpt lat="44.7975581" lon="12.2592411"><ele>-1.0</ele><time>2026-04-26T16:20:46.866Z</time></trkpt><trkpt lat="44.797733" lon="12.2592436"><ele>-1.0</ele><time>2026-04-26T16:20:47.866Z</time></trkpt><trkpt lat="44.7979101" lon="12.2592484"><ele>-1.0</ele><time>2026-04-26T16:20:48.866Z</time></trkpt><trkpt lat="44.7980814" lon="12.2592507"><ele>-1.0</ele><time>2026-04-26T16:20:49.866Z</time></trkpt><trkpt lat="44.798252" lon="12.2592515"><ele>-1.0</ele><time>2026-04-26T16:20:50.866Z</time></trkpt><trkpt lat="44.7984262" lon="12.2592545"><ele>-1.0</ele><time>2026-04-26T16:20:51.866Z</time></trkpt><trkpt lat="44.7985999" lon="12.2592516"><ele>-1.0</ele><time>2026-04-26T16:20:52.866Z</time></trkpt><trkpt lat="44.7987695" lon="12.2592525"><ele>-0.3333333333333333</ele><time>2026-04-26T16:20:53.866Z</time></trkpt><trkpt lat="44.7989435" lon="12.259254"><ele>0.3333333333333333</ele><time>2026-04-26T16:20:54.866Z</time></trkpt><trkpt lat="44.7991206" lon="12.2592525"><ele>1.0</ele><time>2026-04-26T16:20:55.867Z</time></trkpt><trkpt lat="44.7992972" lon="12.2592576"><ele>0.6666666666666666</ele><time>2026-04-26T16:20:56.866Z</time></trkpt><trkpt lat="44.7994756" lon="12.2592608"><ele>0.3333333333333333</ele><time>2026-04-26T16:20:57.866Z</time></trkpt><trkpt lat="44.7996554" lon="12.2592646"><ele>0.0</ele><time>2026-04-26T16:20:58.866Z</time></trkpt><trkpt lat="44.7998334" lon="12.2592701"><ele>0.0</ele><time>2026-04-26T16:20:59.866Z</time></trkpt><trkpt lat="44.8000166" lon="12.2592776"><ele>0.0</ele><time>2026-04-26T16:21:00.866Z</time></trkpt><trkpt lat="44.8002008" lon="12.2592809"><ele>0.0</ele><time>2026-04-26T16:21:01.867Z</time></trkpt><trkpt lat="44.8003837" lon="12.2592861"><ele>-0.3333333333333333</ele><time>2026-04-26T16:21:02.866Z</time></trkpt><trkpt lat="44.8005678" lon="12.2592898"><ele>-0.6666666666666666</ele><time>2026-04-26T16:21:03.867Z</time></trkpt><trkpt lat="44.8007515" lon="12.2592973"><ele>-1.0</ele><time>2026-04-26T16:21:04.866Z</time></trkpt><trkpt lat="44.8009383" lon="12.2593032"><ele>-0.6666666666666666</ele><time>2026-04-26T16:21:05.866Z</time></trkpt><trkpt lat="44.8011246" lon="12.2593062"><ele>-0.3333333333333333</ele><time>2026-04-26T16:21:06.867Z</time></trkpt><trkpt lat="44.8013143" lon="12.2593033"><ele>0.0</ele><time>2026-04-26T16:21:07.866Z</time></trkpt><trkpt lat="44.8015028" lon="12.259308"><ele>0.0</ele><time>2026-04-26T16:21:08.866Z</time></trkpt><trkpt lat="44.8016854" lon="12.2593145"><ele>0.0</ele><time>2026-04-26T16:21:09.866Z</time></trkpt><trkpt lat="44.8018524" lon="12.2593225"><ele>0.0</ele><time>2026-04-26T16:21:10.867Z</time></trkpt><trkpt lat="44.8020007" lon="12.2593313"><ele>0.0</ele><time>2026-04-26T16:21:11.867Z</time></trkpt><trkpt lat="44.8021358" lon="12.259336"><ele>0.0</ele><time>2026-04-26T16:21:12.866Z</time></trkpt><trkpt lat="44.8022468" lon="12.2593436"><ele>0.0</ele><time>2026-04-26T16:21:13.867Z</time></trkpt><trkpt lat="44.8023437" lon="12.2593693"><ele>0.0</ele><time>2026-04-26T16:21:14.866Z</time></trkpt><trkpt lat="44.8024269" lon="12.259418"><ele>0.0</ele><time>2026-04-26T16:21:15.866Z</time></trkpt><trkpt lat="44.8024972" lon="12.2594779"><ele>0.0</ele><time>2026-04-26T16:21:16.866Z</time></trkpt><trkpt lat="44.8025549" lon="12.2595526"><ele>0.0</ele><time>2026-04-26T16:21:17.866Z</time></trkpt><trkpt lat="44.8026044" lon="12.2596292"><ele>0.0</ele><time>2026-04-26T16:21:18.867Z</time></trkpt><trkpt lat="44.8026394" lon="12.2597256"><ele>0.0</ele><time>2026-04-26T16:21:19.866Z</time></trkpt><trkpt lat="44.802669" lon="12.2598191"><ele>0.0</ele><time>2026-04-26T16:21:20.866Z</time></trkpt><trkpt lat="44.8026802" lon="12.2599289"><ele>0.0</ele><time>2026-04-26T16:21:21.866Z</time></trkpt><trkpt lat="44.8026796" lon="12.2600597"><ele>0.0</ele><time>2026-04-26T16:21:22.866Z</time></trkpt><trkpt lat="44.8026819" lon="12.260209"><ele>0.0</ele><time>2026-04-26T16:21:23.867Z</time></trkpt><trkpt lat="44.8026915" lon="12.2603703"><ele>0.0</ele><time>2026-04-26T16:21:24.867Z</time></trkpt><trkpt lat="44.8027086" lon="12.2605358"><ele>0.0</ele><time>2026-04-26T16:21:25.867Z</time></trkpt><trkpt lat="44.8027393" lon="12.2607081"><ele>0.0</ele><time>2026-04-26T16:21:26.867Z</time></trkpt><trkpt lat="44.8027686" lon="12.2608808"><ele>0.0</ele><time>2026-04-26T16:21:27.867Z</time></trkpt><trkpt lat="44.8028031" lon="12.2610319"><ele>0.0</ele><time>2026-04-26T16:21:28.866Z</time></trkpt><trkpt lat="44.8028304" lon="12.261164"><ele>0.0</ele><time>2026-04-26T16:21:29.866Z</time></trkpt><trkpt lat="44.8028567" lon="12.2612801"><ele>0.0</ele><time>2026-04-26T16:21:30.867Z</time></trkpt><trkpt lat="44.8028867" lon="12.2614034"><ele>0.0</ele><time>2026-04-26T16:21:31.866Z</time></trkpt><trkpt lat="44.8029084" lon="12.261533"><ele>0.0</ele><time>2026-04-26T16:21:32.866Z</time></trkpt><trkpt lat="44.802932" lon="12.2616651"><ele>0.0</ele><time>2026-04-26T16:21:33.866Z</time></trkpt><trkpt lat="44.8029568" lon="12.2618062"><ele>0.0</ele><time>2026-04-26T16:21:34.866Z</time></trkpt><trkpt lat="44.8029836" lon="12.2619514"><ele>0.0</ele><time>2026-04-26T16:21:35.867Z</time></trkpt><trkpt lat="44.8030138" lon="12.2621056"><ele>0.0</ele><time>2026-04-26T16:21:36.866Z</time></trkpt><trkpt lat="44.8030445" lon="12.2622631"><ele>0.0</ele><time>2026-04-26T16:21:37.867Z</time></trkpt><trkpt lat="44.8030798" lon="12.2624133"><ele>0.0</ele><time>2026-04-26T16:21:38.867Z</time></trkpt><trkpt lat="44.8031109" lon="12.2625549"><ele>0.0</ele><time>2026-04-26T16:21:39.866Z</time></trkpt><trkpt lat="44.8031361" lon="12.2626904"><ele>0.0</ele><time>2026-04-26T16:21:40.866Z</time></trkpt><trkpt lat="44.8031614" lon="12.262825"><ele>0.0</ele><time>2026-04-26T16:21:41.866Z</time></trkpt><trkpt lat="44.8031917" lon="12.2629669"><ele>0.0</ele><time>2026-04-26T16:21:42.867Z</time></trkpt><trkpt lat="44.8032206" lon="12.263112"><ele>0.0</ele><time>2026-04-26T16:21:43.866Z</time></trkpt><trkpt lat="44.8032504" lon="12.2632601"><ele>0.0</ele><time>2026-04-26T16:21:44.867Z</time></trkpt><trkpt lat="44.8032796" lon="12.2634146"><ele>0.0</ele><time>2026-04-26T16:21:45.867Z</time></trkpt><trkpt lat="44.8033148" lon="12.2635686"><ele>0.0</ele><time>2026-04-26T16:21:46.866Z</time></trkpt><trkpt lat="44.803342" lon="12.2637303"><ele>0.0</ele><time>2026-04-26T16:21:47.866Z</time></trkpt><trkpt lat="44.8033766" lon="12.2638916"><ele>0.0</ele><time>2026-04-26T16:21:48.867Z</time></trkpt><trkpt lat="44.8034059" lon="12.2640561"><ele>0.0</ele><time>2026-04-26T16:21:49.867Z</time></trkpt><trkpt lat="44.8034367" lon="12.2642189"><ele>0.0</ele><time>2026-04-26T16:21:50.866Z</time></trkpt><trkpt lat="44.8034607" lon="12.2643901"><ele>0.0</ele><time>2026-04-26T16:21:51.866Z</time></trkpt><trkpt lat="44.803473" lon="12.2645584"><ele>0.0</ele><time>2026-04-26T16:21:52.866Z</time></trkpt><trkpt lat="44.8034706" lon="12.2647328"><ele>0.0</ele><time>2026-04-26T16:21:53.866Z</time></trkpt><trkpt lat="44.8034497" lon="12.2649065"><ele>0.0</ele><time>2026-04-26T16:21:54.866Z</time></trkpt><trkpt lat="44.8034223" lon="12.2650827"><ele>0.0</ele><time>2026-04-26T16:21:55.867Z</time></trkpt><trkpt lat="44.8033945" lon="12.2652611"><ele>0.0</ele><time>2026-04-26T16:21:56.867Z</time></trkpt><trkpt lat="44.8033655" lon="12.2654381"><ele>0.0</ele><time>2026-04-26T16:21:57.866Z</time></trkpt><trkpt lat="44.8033387" lon="12.265617"><ele>0.0</ele><time>2026-04-26T16:21:58.867Z</time></trkpt><trkpt lat="44.803311" lon="12.2657892"><ele>0.0</ele><time>2026-04-26T16:21:59.866Z</time></trkpt><trkpt lat="44.8032871" lon="12.265952"><ele>0.0</ele><time>2026-04-26T16:22:00.866Z</time></trkpt><trkpt lat="44.8032599" lon="12.2661142"><ele>0.0</ele><time>2026-04-26T16:22:01.866Z</time></trkpt><trkpt lat="44.8032312" lon="12.2662523"><ele>0.0</ele><time>2026-04-26T16:22:02.867Z</time></trkpt><trkpt lat="44.8031958" lon="12.2663737"><ele>0.0</ele><time>2026-04-26T16:22:03.866Z</time></trkpt><trkpt lat="44.8031371" lon="12.2664793"><ele>0.0</ele><time>2026-04-26T16:22:04.867Z</time></trkpt><trkpt lat="44.803063" lon="12.2665711"><ele>0.0</ele><time>2026-04-26T16:22:05.866Z</time></trkpt><trkpt lat="44.8029726" lon="12.2666405"><ele>0.0</ele><time>2026-04-26T16:22:06.867Z</time></trkpt><trkpt lat="44.8028723" lon="12.2667154"><ele>0.25</ele><time>2026-04-26T16:22:07.867Z</time></trkpt><trkpt lat="44.802774" lon="12.2667937"><ele>0.5</ele><time>2026-04-26T16:22:08.866Z</time></trkpt><trkpt lat="44.802664" lon="12.2668815"><ele>0.75</ele><time>2026-04-26T16:22:09.866Z</time></trkpt><trkpt lat="44.8025516" lon="12.2669657"><ele>1.0</ele><time>2026-04-26T16:22:10.866Z</time></trkpt><trkpt lat="44.8024316" lon="12.2670512"><ele>1.25</ele><time>2026-04-26T16:22:11.867Z</time></trkpt><trkpt lat="44.802312" lon="12.2671318"><ele>1.5</ele><time>2026-04-26T16:22:12.866Z</time></trkpt><trkpt lat="44.8021893" lon="12.2672274"><ele>1.75</ele><time>2026-04-26T16:22:13.866Z</time></trkpt><trkpt lat="44.802067" lon="12.2673218"><ele>2.0</ele><time>2026-04-26T16:22:14.866Z</time></trkpt><trkpt lat="44.8019553" lon="12.267409"><ele>2.25</ele><time>2026-04-26T16:22:15.866Z</time></trkpt><trkpt lat="44.8018344" lon="12.2674962"><ele>2.5</ele><time>2026-04-26T16:22:16.866Z</time></trkpt><trkpt lat="44.8017153" lon="12.2675808"><ele>2.75</ele><time>2026-04-26T16:22:17.867Z</time></trkpt><trkpt lat="44.8015954" lon="12.2676783"><ele>3.0</ele><time>2026-04-26T16:22:18.867Z</time></trkpt><trkpt lat="44.8014801" lon="12.2677697"><ele>3.0</ele><time>2026-04-26T16:22:19.867Z</time></trkpt><trkpt lat="44.8013682" lon="12.2678605"><ele>3.0</ele><time>2026-04-26T16:22:20.867Z</time></trkpt><trkpt lat="44.8012484" lon="12.2679522"><ele>3.0</ele><time>2026-04-26T16:22:21.866Z</time></trkpt><trkpt lat="44.8011324" lon="12.2680445"><ele>3.0</ele><time>2026-04-26T16:22:22.866Z</time></trkpt><trkpt lat="44.8010152" lon="12.2681269"><ele>3.25</ele><time>2026-04-26T16:22:23.866Z</time></trkpt><trkpt lat="44.800894" lon="12.2682177"><ele>3.5</ele><time>2026-04-26T16:22:24.866Z</time></trkpt><trkpt lat="44.8007807" lon="12.268304"><ele>3.75</ele><time>2026-04-26T16:22:25.867Z</time></trkpt><trkpt lat="44.8006776" lon="12.2683918"><ele>4.0</ele><time>2026-04-26T16:22:26.867Z</time></trkpt><trkpt lat="44.8005832" lon="12.2684688"><ele>4.0</ele><time>2026-04-26T16:22:27.866Z</time></trkpt><trkpt lat="44.8004937" lon="12.268542"><ele>4.0</ele><time>2026-04-26T16:22:28.866Z</time></trkpt><trkpt lat="44.8004094" lon="12.2686017"><ele>4.0</ele><time>2026-04-26T16:22:29.867Z</time></trkpt><trkpt lat="44.8003278" lon="12.2686654"><ele>4.0</ele><time>2026-04-26T16:22:30.866Z</time></trkpt><trkpt lat="44.8002525" lon="12.2687272"><ele>4.0</ele><time>2026-04-26T16:22:31.867Z</time></trkpt><trkpt lat="44.8001852" lon="12.2687822"><ele>3.9999999999999996</ele><time>2026-04-26T16:22:32.866Z</time></trkpt><trkpt lat="44.8001258" lon="12.2688276"><ele>4.0</ele><time>2026-04-26T16:22:33.866Z</time></trkpt><trkpt lat="44.8000676" lon="12.2688665"><ele>4.0</ele><time>2026-04-26T16:22:34.866Z</time></trkpt><trkpt lat="44.7999909" lon="12.2689198"><ele>4.0</ele><time>2026-04-26T16:22:36.866Z</time></trkpt><trkpt lat="44.7999359" lon="12.268964"><ele>3.9999999999999996</ele><time>2026-04-26T16:22:38.867Z</time></trkpt><trkpt lat="44.7998593" lon="12.2690298"><ele>4.0</ele><time>2026-04-26T16:22:41.866Z</time></trkpt><trkpt lat="44.7997685" lon="12.2690608"><ele>3.4000000000000004</ele><time>2026-04-26T16:22:43.866Z</time></trkpt><trkpt lat="44.7996975" lon="12.269061"><ele>2.8000000000000003</ele><time>2026-04-26T16:22:44.867Z</time></trkpt><trkpt lat="44.7995847" lon="12.2690815"><ele>2.2</ele><time>2026-04-26T16:22:46.867Z</time></trkpt><trkpt lat="44.7995095" lon="12.2691698"><ele>1.6</ele><time>2026-04-26T16:22:48.867Z</time></trkpt><trkpt lat="44.7994518" lon="12.2693333"><ele>1.0</ele><time>2026-04-26T16:22:50.867Z</time></trkpt><trkpt lat="44.7994092" lon="12.2694188"><ele>1.0</ele><time>2026-04-26T16:22:51.866Z</time></trkpt><trkpt lat="44.7993575" lon="12.2694955"><ele>0.9999999999999999</ele><time>2026-04-26T16:22:52.866Z</time></trkpt><trkpt lat="44.7993135" lon="12.2695715"><ele>1.0</ele><time>2026-04-26T16:22:53.867Z</time></trkpt><trkpt lat="44.7992378" lon="12.2696801"><ele>1.0</ele><time>2026-04-26T16:22:55.867Z</time></trkpt><trkpt lat="44.7992378" lon="12.2696801"><ele>0.9999999999999999</ele><time>2026-04-26T16:22:55.867Z</time></trkpt><trkpt lat="44.7992309" lon="12.2696117"><ele>1.0</ele><time>2026-04-26T16:32:08.859Z</time></trkpt><trkpt lat="44.7992936" lon="12.269603"><ele>1.0</ele><time>2026-04-26T16:33:50.859Z</time></trkpt><trkpt lat="44.7993437" lon="12.2694849"><ele>0.9999999999999999</ele><time>2026-04-26T16:33:53.859Z</time></trkpt><trkpt lat="44.799385" lon="12.2693904"><ele>1.0</ele><time>2026-04-26T16:33:55.86Z</time></trkpt><trkpt lat="44.7994295" lon="12.269295"><ele>1.0</ele><time>2026-04-26T16:33:57.859Z</time></trkpt><trkpt lat="44.7994736" lon="12.2691982"><ele>1.0</ele><time>2026-04-26T16:33:59.859Z</time></trkpt><trkpt lat="44.7995135" lon="12.2691171"><ele>0.9999999999999999</ele><time>2026-04-26T16:34:01.859Z</time></trkpt><trkpt lat="44.7995635" lon="12.2690439"><ele>1.0</ele><time>2026-04-26T16:34:04.859Z</time></trkpt><trkpt lat="44.7996221" lon="12.2689992"><ele>1.0</ele><time>2026-04-26T16:34:07.859Z</time></trkpt><trkpt lat="44.799703" lon="12.2690225"><ele>1.0</ele><time>2026-04-26T16:34:09.86Z</time></trkpt><trkpt lat="44.7998095" lon="12.2690483"><ele>1.0</ele><time>2026-04-26T16:34:11.86Z</time></trkpt><trkpt lat="44.7999247" lon="12.269008"><ele>1.0</ele><time>2026-04-26T16:34:13.859Z</time></trkpt><trkpt lat="44.8000433" lon="12.2689119"><ele>1.0</ele><time>2026-04-26T16:34:15.859Z</time></trkpt><trkpt lat="44.8001116" lon="12.2688482"><ele>1.6</ele><time>2026-04-26T16:34:16.86Z</time></trkpt><trkpt lat="44.8001863" lon="12.2687699"><ele>2.2</ele><time>2026-04-26T16:34:17.859Z</time></trkpt><trkpt lat="44.8002733" lon="12.2686847"><ele>2.8000000000000003</ele><time>2026-04-26T16:34:18.86Z</time></trkpt><trkpt lat="44.8003738" lon="12.2686039"><ele>3.4000000000000004</ele><time>2026-04-26T16:34:19.86Z</time></trkpt><trkpt lat="44.8004831" lon="12.2685221"><ele>4.0</ele><time>2026-04-26T16:34:20.859Z</time></trkpt><trkpt lat="44.8005935" lon="12.2684376"><ele>4.0</ele><time>2026-04-26T16:34:21.859Z</time></trkpt><trkpt lat="44.8007118" lon="12.2683581"><ele>4.0</ele><time>2026-04-26T16:34:22.86Z</time></trkpt><trkpt lat="44.8008367" lon="12.2682771"><ele>4.0</ele><time>2026-04-26T16:34:23.859Z</time></trkpt><trkpt lat="44.800956" lon="12.2681988"><ele>4.0</ele><time>2026-04-26T16:34:24.859Z</time></trkpt><trkpt lat="44.8010755" lon="12.2681136"><ele>3.75</ele><time>2026-04-26T16:34:25.859Z</time></trkpt><trkpt lat="44.8011932" lon="12.2680255"><ele>3.5</ele><time>2026-04-26T16:34:26.859Z</time></trkpt><trkpt lat="44.8013116" lon="12.2679329"><ele>3.25</ele><time>2026-04-26T16:34:27.86Z</time></trkpt><trkpt lat="44.8014287" lon="12.2678434"><ele>3.0</ele><time>2026-04-26T16:34:28.86Z</time></trkpt><trkpt lat="44.8015488" lon="12.2677605"><ele>3.0</ele><time>2026-04-26T16:34:29.859Z</time></trkpt><trkpt lat="44.8016603" lon="12.2676697"><ele>3.0</ele><time>2026-04-26T16:34:30.86Z</time></trkpt><trkpt lat="44.8017746" lon="12.2675827"><ele>3.0</ele><time>2026-04-26T16:34:31.86Z</time></trkpt><trkpt lat="44.8018893" lon="12.2674902"><ele>3.0</ele><time>2026-04-26T16:34:32.86Z</time></trkpt><trkpt lat="44.8020036" lon="12.2673981"><ele>3.25</ele><time>2026-04-26T16:34:33.859Z</time></trkpt><trkpt lat="44.802116" lon="12.2673082"><ele>3.5</ele><time>2026-04-26T16:34:34.859Z</time></trkpt><trkpt lat="44.8022327" lon="12.2672226"><ele>3.75</ele><time>2026-04-26T16:34:35.859Z</time></trkpt><trkpt lat="44.8023403" lon="12.2671382"><ele>4.0</ele><time>2026-04-26T16:34:36.86Z</time></trkpt><trkpt lat="44.8024481" lon="12.2670561"><ele>3.6</ele><time>2026-04-26T16:34:37.859Z</time></trkpt><trkpt lat="44.802553" lon="12.2669808"><ele>3.2</ele><time>2026-04-26T16:34:38.859Z</time></trkpt><trkpt lat="44.8026515" lon="12.2669045"><ele>2.8000000000000003</ele><time>2026-04-26T16:34:39.86Z</time></trkpt><trkpt lat="44.8027471" lon="12.2668295"><ele>2.4000000000000004</ele><time>2026-04-26T16:34:40.859Z</time></trkpt><trkpt lat="44.8028306" lon="12.2667619"><ele>2.0</ele><time>2026-04-26T16:34:41.86Z</time></trkpt><trkpt lat="44.8029162" lon="12.2667059"><ele>1.8</ele><time>2026-04-26T16:34:42.86Z</time></trkpt><trkpt lat="44.8029965" lon="12.2666468"><ele>1.6</ele><time>2026-04-26T16:34:43.86Z</time></trkpt><trkpt lat="44.8030768" lon="12.2665736"><ele>1.4000000000000001</ele><time>2026-04-26T16:34:44.859Z</time></trkpt><trkpt lat="44.8031455" lon="12.2664816"><ele>1.2000000000000002</ele><time>2026-04-26T16:34:45.859Z</time></trkpt><trkpt lat="44.8032" lon="12.2663668"><ele>1.0</ele><time>2026-04-26T16:34:46.86Z</time></trkpt><trkpt lat="44.8032422" lon="12.2662344"><ele>0.75</ele><time>2026-04-26T16:34:47.859Z</time></trkpt><trkpt lat="44.8032722" lon="12.2660767"><ele>0.5</ele><time>2026-04-26T16:34:48.859Z</time></trkpt><trkpt lat="44.8032998" lon="12.2659118"><ele>0.25</ele><time>2026-04-26T16:34:49.86Z</time></trkpt><trkpt lat="44.8033298" lon="12.2657356"><ele>0.0</ele><time>2026-04-26T16:34:50.859Z</time></trkpt><trkpt lat="44.8033636" lon="12.2655478"><ele>0.0</ele><time>2026-04-26T16:34:51.86Z</time></trkpt><trkpt lat="44.8033971" lon="12.2653646"><ele>0.0</ele><time>2026-04-26T16:34:52.859Z</time></trkpt><trkpt lat="44.8034274" lon="12.2651825"><ele>0.0</ele><time>2026-04-26T16:34:53.86Z</time></trkpt><trkpt lat="44.8034543" lon="12.2650076"><ele>0.0</ele><time>2026-04-26T16:34:54.859Z</time></trkpt><trkpt lat="44.8034789" lon="12.2648451"><ele>0.0</ele><time>2026-04-26T16:34:55.859Z</time></trkpt><trkpt lat="44.8034978" lon="12.2646884"><ele>0.0</ele><time>2026-04-26T16:34:56.86Z</time></trkpt><trkpt lat="44.8035004" lon="12.2645357"><ele>0.0</ele><time>2026-04-26T16:34:57.859Z</time></trkpt><trkpt lat="44.803487" lon="12.2643796"><ele>0.0</ele><time>2026-04-26T16:34:58.86Z</time></trkpt><trkpt lat="44.8034641" lon="12.2642107"><ele>0.0</ele><time>2026-04-26T16:34:59.859Z</time></trkpt><trkpt lat="44.8034306" lon="12.2640406"><ele>0.0</ele><time>2026-04-26T16:35:00.859Z</time></trkpt><trkpt lat="44.8033897" lon="12.2638589"><ele>0.0</ele><time>2026-04-26T16:35:01.859Z</time></trkpt><trkpt lat="44.8033474" lon="12.2636688"><ele>0.0</ele><time>2026-04-26T16:35:02.859Z</time></trkpt><trkpt lat="44.8033036" lon="12.2634662"><ele>0.0</ele><time>2026-04-26T16:35:03.859Z</time></trkpt><trkpt lat="44.80326" lon="12.2632481"><ele>0.0</ele><time>2026-04-26T16:35:04.859Z</time></trkpt><trkpt lat="44.8032177" lon="12.263025"><ele>0.0</ele><time>2026-04-26T16:35:05.86Z</time></trkpt><trkpt lat="44.8031769" lon="12.2628091"><ele>0.0</ele><time>2026-04-26T16:35:06.86Z</time></trkpt><trkpt lat="44.8031339" lon="12.2626118"><ele>0.0</ele><time>2026-04-26T16:35:07.859Z</time></trkpt><trkpt lat="44.8030978" lon="12.2624439"><ele>0.0</ele><time>2026-04-26T16:35:08.86Z</time></trkpt><trkpt lat="44.803065" lon="12.2622852"><ele>0.0</ele><time>2026-04-26T16:35:09.86Z</time></trkpt><trkpt lat="44.8030363" lon="12.2621398"><ele>0.0</ele><time>2026-04-26T16:35:10.859Z</time></trkpt><trkpt lat="44.8030147" lon="12.2620016"><ele>0.0</ele><time>2026-04-26T16:35:11.859Z</time></trkpt><trkpt lat="44.8029958" lon="12.2618633"><ele>0.0</ele><time>2026-04-26T16:35:12.859Z</time></trkpt><trkpt lat="44.802987" lon="12.2617234"><ele>0.0</ele><time>2026-04-26T16:35:13.859Z</time></trkpt><trkpt lat="44.8029706" lon="12.2615888"><ele>0.0</ele><time>2026-04-26T16:35:14.86Z</time></trkpt><trkpt lat="44.8029414" lon="12.2614525"><ele>0.0</ele><time>2026-04-26T16:35:15.859Z</time></trkpt><trkpt lat="44.8029022" lon="12.261314"><ele>0.0</ele><time>2026-04-26T16:35:16.859Z</time></trkpt><trkpt lat="44.8028572" lon="12.2611742"><ele>0.0</ele><time>2026-04-26T16:35:17.859Z</time></trkpt><trkpt lat="44.8028142" lon="12.2610143"><ele>0.0</ele><time>2026-04-26T16:35:18.859Z</time></trkpt><trkpt lat="44.8027725" lon="12.2608443"><ele>0.0</ele><time>2026-04-26T16:35:19.86Z</time></trkpt><trkpt lat="44.8027397" lon="12.2606713"><ele>0.0</ele><time>2026-04-26T16:35:20.86Z</time></trkpt><trkpt lat="44.8027125" lon="12.2604984"><ele>0.0</ele><time>2026-04-26T16:35:21.86Z</time></trkpt><trkpt lat="44.8026938" lon="12.2603376"><ele>0.0</ele><time>2026-04-26T16:35:22.859Z</time></trkpt><trkpt lat="44.8026863" lon="12.260181"><ele>0.0</ele><time>2026-04-26T16:35:23.859Z</time></trkpt><trkpt lat="44.8026854" lon="12.2600323"><ele>0.0</ele><time>2026-04-26T16:35:24.859Z</time></trkpt><trkpt lat="44.8026828" lon="12.2599022"><ele>0.0</ele><time>2026-04-26T16:35:25.86Z</time></trkpt><trkpt lat="44.8026659" lon="12.2597768"><ele>0.0</ele><time>2026-04-26T16:35:26.859Z</time></trkpt><trkpt lat="44.8026283" lon="12.2596571"><ele>0.0</ele><time>2026-04-26T16:35:27.859Z</time></trkpt><trkpt lat="44.8025701" lon="12.2595484"><ele>0.0</ele><time>2026-04-26T16:35:28.86Z</time></trkpt><trkpt lat="44.8024931" lon="12.2594504"><ele>0.0</ele><time>2026-04-26T16:35:29.859Z</time></trkpt><trkpt lat="44.8024053" lon="12.2593702"><ele>0.0</ele><time>2026-04-26T16:35:30.86Z</time></trkpt><trkpt lat="44.8022973" lon="12.2593208"><ele>0.0</ele><time>2026-04-26T16:35:31.86Z</time></trkpt><trkpt lat="44.80218" lon="12.2593032"><ele>0.0</ele><time>2026-04-26T16:35:32.859Z</time></trkpt><trkpt lat="44.8020566" lon="12.2592985"><ele>0.0</ele><time>2026-04-26T16:35:33.86Z</time></trkpt><trkpt lat="44.8019241" lon="12.2592957"><ele>0.0</ele><time>2026-04-26T16:35:34.86Z</time></trkpt><trkpt lat="44.8017925" lon="12.2592935"><ele>0.0</ele><time>2026-04-26T16:35:35.86Z</time></trkpt><trkpt lat="44.8016539" lon="12.2592877"><ele>0.0</ele><time>2026-04-26T16:35:36.859Z</time></trkpt><trkpt lat="44.8015066" lon="12.2592786"><ele>0.0</ele><time>2026-04-26T16:35:37.86Z</time></trkpt><trkpt lat="44.801367" lon="12.2592721"><ele>0.0</ele><time>2026-04-26T16:35:38.859Z</time></trkpt><trkpt lat="44.8012226" lon="12.2592657"><ele>0.0</ele><time>2026-04-26T16:35:39.86Z</time></trkpt><trkpt lat="44.8010773" lon="12.2592658"><ele>0.0</ele><time>2026-04-26T16:35:40.86Z</time></trkpt><trkpt lat="44.8009317" lon="12.2592635"><ele>-0.25</ele><time>2026-04-26T16:35:41.859Z</time></trkpt><trkpt lat="44.8007917" lon="12.2592584"><ele>-0.5</ele><time>2026-04-26T16:35:42.86Z</time></trkpt><trkpt lat="44.8006453" lon="12.2592542"><ele>-0.75</ele><time>2026-04-26T16:35:43.859Z</time></trkpt><trkpt lat="44.8004984" lon="12.2592462"><ele>-1.0</ele><time>2026-04-26T16:35:44.859Z</time></trkpt><trkpt lat="44.8003552" lon="12.2592512"><ele>0.0</ele><time>2026-04-26T16:35:45.859Z</time></trkpt><trkpt lat="44.7997555" lon="12.259248"><ele>0.0</ele><time>2026-04-26T16:35:49.859Z</time></trkpt><trkpt lat="44.7996022" lon="12.2592415"><ele>0.0</ele><time>2026-04-26T16:35:50.86Z</time></trkpt><trkpt lat="44.7991197" lon="12.2592256"><ele>0.3333333333333333</ele><time>2026-04-26T16:35:53.859Z</time></trkpt><trkpt lat="44.7989543" lon="12.2592245"><ele>0.6666666666666666</ele><time>2026-04-26T16:35:54.86Z</time></trkpt><trkpt lat="44.7987884" lon="12.2592237"><ele>1.0</ele><time>2026-04-26T16:35:55.859Z</time></trkpt><trkpt lat="44.7986226" lon="12.2592208"><ele>-1.0</ele><time>2026-04-26T16:35:56.86Z</time></trkpt><trkpt lat="44.7980852" lon="12.2591983"><ele>-1.0</ele><time>2026-04-26T16:35:59.859Z</time></trkpt><trkpt lat="44.7978926" lon="12.2591958"><ele>-1.0</ele><time>2026-04-26T16:36:00.859Z</time></trkpt><trkpt lat="44.797703" lon="12.2591914"><ele>-1.0</ele><time>2026-04-26T16:36:01.86Z</time></trkpt><trkpt lat="44.7975123" lon="12.2591886"><ele>-1.0</ele><time>2026-04-26T16:36:02.86Z</time></trkpt><trkpt lat="44.7973285" lon="12.2591832"><ele>-1.0</ele><time>2026-04-26T16:36:03.859Z</time></trkpt><trkpt lat="44.7971483" lon="12.2591786"><ele>-1.0</ele><time>2026-04-26T16:36:04.859Z</time></trkpt><trkpt lat="44.7969763" lon="12.2591644"><ele>-1.0</ele><time>2026-04-26T16:36:05.86Z</time></trkpt><trkpt lat="44.796807" lon="12.2591275"><ele>-1.0</ele><time>2026-04-26T16:36:06.86Z</time></trkpt><trkpt lat="44.7964864" lon="12.2589624"><ele>-2.0</ele><time>2026-04-26T16:36:08.86Z</time></trkpt><trkpt lat="44.796336" lon="12.2588396"><ele>-3.0</ele><time>2026-04-26T16:36:09.859Z</time></trkpt><trkpt lat="44.7961933" lon="12.2586997"><ele>-4.0</ele><time>2026-04-26T16:36:10.859Z</time></trkpt><trkpt lat="44.7960553" lon="12.2585523"><ele>-4.0</ele><time>2026-04-26T16:36:11.859Z</time></trkpt><trkpt lat="44.795917" lon="12.2583989"><ele>-4.0</ele><time>2026-04-26T16:36:12.859Z</time></trkpt><trkpt lat="44.7957813" lon="12.2582499"><ele>-4.0</ele><time>2026-04-26T16:36:13.859Z</time></trkpt><trkpt lat="44.7955215" lon="12.2579558"><ele>-3.0</ele><time>2026-04-26T16:36:15.859Z</time></trkpt><trkpt lat="44.7941104" lon="12.2571013"><ele>-3.0</ele><time>2026-04-26T16:36:25.86Z</time></trkpt><trkpt lat="44.7936351" lon="12.2572176"><ele>-3.0</ele><time>2026-04-26T16:36:28.86Z</time></trkpt><trkpt lat="44.7934809" lon="12.2572585"><ele>-3.0</ele><time>2026-04-26T16:36:29.859Z</time></trkpt><trkpt lat="44.7933291" lon="12.2572993"><ele>-3.0</ele><time>2026-04-26T16:36:30.859Z</time></trkpt><trkpt lat="44.7931831" lon="12.2573339"><ele>-2.25</ele><time>2026-04-26T16:36:31.859Z</time></trkpt><trkpt lat="44.7930379" lon="12.2573738"><ele>-1.5</ele><time>2026-04-26T16:36:32.86Z</time></trkpt><trkpt lat="44.7928933" lon="12.2574099"><ele>-0.75</ele><time>2026-04-26T16:36:33.859Z</time></trkpt><trkpt lat="44.7927437" lon="12.2574544"><ele>0.0</ele><time>2026-04-26T16:36:34.86Z</time></trkpt><trkpt lat="44.7925943" lon="12.2574928"><ele>0.0</ele><time>2026-04-26T16:36:35.86Z</time></trkpt><trkpt lat="44.792453" lon="12.2575296"><ele>0.0</ele><time>2026-04-26T16:36:36.859Z</time></trkpt><trkpt lat="44.7923106" lon="12.2575681"><ele>0.0</ele><time>2026-04-26T16:36:37.86Z</time></trkpt><trkpt lat="44.7921739" lon="12.2576021"><ele>0.0</ele><time>2026-04-26T16:36:38.859Z</time></trkpt><trkpt lat="44.7920379" lon="12.2576351"><ele>0.0</ele><time>2026-04-26T16:36:39.859Z</time></trkpt><trkpt lat="44.7918995" lon="12.2576675"><ele>0.0</ele><time>2026-04-26T16:36:40.859Z</time></trkpt><trkpt lat="44.7917607" lon="12.2576887"><ele>0.0</ele><time>2026-04-26T16:36:41.859Z</time></trkpt><trkpt lat="44.7916241" lon="12.2576966"><ele>0.0</ele><time>2026-04-26T16:36:42.86Z</time></trkpt><trkpt lat="44.7914796" lon="12.2576745"><ele>0.0</ele><time>2026-04-26T16:36:43.859Z</time></trkpt><trkpt lat="44.7913365" lon="12.2576424"><ele>0.0</ele><time>2026-04-26T16:36:44.86Z</time></trkpt><trkpt lat="44.7911988" lon="12.2575823"><ele>0.0</ele><time>2026-04-26T16:36:45.859Z</time></trkpt><trkpt lat="44.7910616" lon="12.2575017"><ele>0.0</ele><time>2026-04-26T16:36:46.86Z</time></trkpt><trkpt lat="44.7909292" lon="12.2574034"><ele>0.0</ele><time>2026-04-26T16:36:47.859Z</time></trkpt><trkpt lat="44.7907947" lon="12.2573029"><ele>0.0</ele><time>2026-04-26T16:36:48.859Z</time></trkpt><trkpt lat="44.7906613" lon="12.2571907"><ele>0.0</ele><time>2026-04-26T16:36:49.859Z</time></trkpt><trkpt lat="44.7905241" lon="12.2570762"><ele>-0.3333333333333333</ele><time>2026-04-26T16:36:50.859Z</time></trkpt><trkpt lat="44.7903844" lon="12.2569653"><ele>-0.6666666666666666</ele><time>2026-04-26T16:36:51.86Z</time></trkpt><trkpt lat="44.7902382" lon="12.2568482"><ele>-1.0</ele><time>2026-04-26T16:36:52.859Z</time></trkpt><trkpt lat="44.7900833" lon="12.2567209"><ele>-1.0</ele><time>2026-04-26T16:36:53.86Z</time></trkpt><trkpt lat="44.789923" lon="12.256588"><ele>-1.0</ele><time>2026-04-26T16:36:54.859Z</time></trkpt><trkpt lat="44.7897596" lon="12.2564568"><ele>-1.0</ele><time>2026-04-26T16:36:55.86Z</time></trkpt><trkpt lat="44.7895953" lon="12.2563203"><ele>-1.3333333333333333</ele><time>2026-04-26T16:36:56.86Z</time></trkpt><trkpt lat="44.7894261" lon="12.2561805"><ele>-1.6666666666666665</ele><time>2026-04-26T16:36:57.86Z</time></trkpt><trkpt lat="44.7892569" lon="12.25604"><ele>-2.0</ele><time>2026-04-26T16:36:58.859Z</time></trkpt><trkpt lat="44.7890886" lon="12.255895"><ele>-1.6666666666666665</ele><time>2026-04-26T16:36:59.859Z</time></trkpt><trkpt lat="44.7889209" lon="12.2557473"><ele>-1.3333333333333333</ele><time>2026-04-26T16:37:00.859Z</time></trkpt><trkpt lat="44.7887538" lon="12.2556062"><ele>-1.0</ele><time>2026-04-26T16:37:01.86Z</time></trkpt><trkpt lat="44.7885892" lon="12.2554601"><ele>-1.0</ele><time>2026-04-26T16:37:02.859Z</time></trkpt><trkpt lat="44.7884302" lon="12.2553145"><ele>-1.0</ele><time>2026-04-26T16:37:03.859Z</time></trkpt><trkpt lat="44.78827" lon="12.255172"><ele>-1.0</ele><time>2026-04-26T16:37:04.859Z</time></trkpt><trkpt lat="44.7881144" lon="12.2550309"><ele>-1.0</ele><time>2026-04-26T16:37:05.859Z</time></trkpt><trkpt lat="44.7879663" lon="12.2548852"><ele>-1.0</ele><time>2026-04-26T16:37:06.859Z</time></trkpt><trkpt lat="44.7878172" lon="12.2547442"><ele>-1.0</ele><time>2026-04-26T16:37:07.86Z</time></trkpt><trkpt lat="44.787674" lon="12.2545942"><ele>-1.3333333333333333</ele><time>2026-04-26T16:37:08.859Z</time></trkpt><trkpt lat="44.7875294" lon="12.2544499"><ele>-1.6666666666666665</ele><time>2026-04-26T16:37:09.859Z</time></trkpt><trkpt lat="44.7873902" lon="12.2543055"><ele>-2.0</ele><time>2026-04-26T16:37:10.859Z</time></trkpt><trkpt lat="44.7872513" lon="12.2541546"><ele>-2.0</ele><time>2026-04-26T16:37:11.86Z</time></trkpt><trkpt lat="44.7871108" lon="12.2540103"><ele>-2.0</ele><time>2026-04-26T16:37:12.86Z</time></trkpt><trkpt lat="44.7869699" lon="12.2538629"><ele>-2.0</ele><time>2026-04-26T16:37:13.86Z</time></trkpt><trkpt lat="44.7868338" lon="12.2537077"><ele>-2.0</ele><time>2026-04-26T16:37:14.859Z</time></trkpt><trkpt lat="44.7866996" lon="12.2535503"><ele>-2.0</ele><time>2026-04-26T16:37:15.859Z</time></trkpt><trkpt lat="44.7865648" lon="12.2533912"><ele>-2.0</ele><time>2026-04-26T16:37:16.859Z</time></trkpt><trkpt lat="44.7864264" lon="12.2532331"><ele>-1.6666666666666665</ele><time>2026-04-26T16:37:17.859Z</time></trkpt><trkpt lat="44.7862825" lon="12.2530683"><ele>-1.3333333333333333</ele><time>2026-04-26T16:37:18.86Z</time></trkpt><trkpt lat="44.7861352" lon="12.2529048"><ele>-1.0</ele><time>2026-04-26T16:37:19.859Z</time></trkpt><trkpt lat="44.7859979" lon="12.2527351"><ele>-1.0</ele><time>2026-04-26T16:37:20.859Z</time></trkpt><trkpt lat="44.7858721" lon="12.2525692"><ele>-1.0</ele><time>2026-04-26T16:37:21.859Z</time></trkpt><trkpt lat="44.7857504" lon="12.2524164"><ele>-1.0</ele><time>2026-04-26T16:37:22.86Z</time></trkpt><trkpt lat="44.7856322" lon="12.2522744"><ele>-1.6666666666666665</ele><time>2026-04-26T16:37:23.859Z</time></trkpt><trkpt lat="44.7855104" lon="12.2521311"><ele>-2.3333333333333335</ele><time>2026-04-26T16:37:24.859Z</time></trkpt><trkpt lat="44.7853916" lon="12.2519893"><ele>-3.0</ele><time>2026-04-26T16:37:25.859Z</time></trkpt><trkpt lat="44.7852721" lon="12.2518427"><ele>-3.0</ele><time>2026-04-26T16:37:26.859Z</time></trkpt><trkpt lat="44.7851535" lon="12.2517013"><ele>-3.0</ele><time>2026-04-26T16:37:27.859Z</time></trkpt><trkpt lat="44.7850383" lon="12.2515589"><ele>-3.0</ele><time>2026-04-26T16:37:28.859Z</time></trkpt><trkpt lat="44.784928" lon="12.2514204"><ele>-3.0</ele><time>2026-04-26T16:37:29.86Z</time></trkpt><trkpt lat="44.7848175" lon="12.2512909"><ele>-3.0</ele><time>2026-04-26T16:37:30.859Z</time></trkpt><trkpt lat="44.7847113" lon="12.2511585"><ele>-3.0</ele><time>2026-04-26T16:37:31.859Z</time></trkpt><trkpt lat="44.7845987" lon="12.2510241"><ele>-3.0</ele><time>2026-04-26T16:37:32.86Z</time></trkpt><trkpt lat="44.7844824" lon="12.2508896"><ele>-3.0</ele><time>2026-04-26T16:37:33.86Z</time></trkpt><trkpt lat="44.7843641" lon="12.2507473"><ele>-3.0</ele><time>2026-04-26T16:37:34.859Z</time></trkpt><trkpt lat="44.7842439" lon="12.2506041"><ele>-3.0</ele><time>2026-04-26T16:37:35.859Z</time></trkpt><trkpt lat="44.78412" lon="12.2504535"><ele>-2.3333333333333335</ele><time>2026-04-26T16:37:36.86Z</time></trkpt><trkpt lat="44.7839955" lon="12.2503036"><ele>-1.6666666666666665</ele><time>2026-04-26T16:37:37.859Z</time></trkpt><trkpt lat="44.7838782" lon="12.250153"><ele>-1.0</ele><time>2026-04-26T16:37:38.859Z</time></trkpt><trkpt lat="44.7837606" lon="12.2500043"><ele>-1.0</ele><time>2026-04-26T16:37:39.86Z</time></trkpt><trkpt lat="44.7836401" lon="12.2498563"><ele>-1.0</ele><time>2026-04-26T16:37:40.86Z</time></trkpt><trkpt lat="44.7835183" lon="12.2497094"><ele>-1.0</ele><time>2026-04-26T16:37:41.859Z</time></trkpt><trkpt lat="44.783392" lon="12.2495595"><ele>-1.3333333333333333</ele><time>2026-04-26T16:37:42.859Z</time></trkpt><trkpt lat="44.7832609" lon="12.2494016"><ele>-1.6666666666666665</ele><time>2026-04-26T16:37:43.859Z</time></trkpt><trkpt lat="44.7831223" lon="12.2492348"><ele>-2.0</ele><time>2026-04-26T16:37:44.86Z</time></trkpt><trkpt lat="44.7829736" lon="12.2490644"><ele>-2.0</ele><time>2026-04-26T16:37:45.859Z</time></trkpt><trkpt lat="44.7828086" lon="12.248889"><ele>-2.0</ele><time>2026-04-26T16:37:46.859Z</time></trkpt><trkpt lat="44.7826354" lon="12.2487084"><ele>-2.0</ele><time>2026-04-26T16:37:47.86Z</time></trkpt><trkpt lat="44.782455" lon="12.2485255"><ele>-1.0</ele><time>2026-04-26T16:37:48.859Z</time></trkpt><trkpt lat="44.7822723" lon="12.2483375"><ele>0.0</ele><time>2026-04-26T16:37:49.859Z</time></trkpt><trkpt lat="44.7820858" lon="12.2481415"><ele>-1.0</ele><time>2026-04-26T16:37:50.859Z</time></trkpt><trkpt lat="44.7819022" lon="12.2479407"><ele>-2.0</ele><time>2026-04-26T16:37:51.86Z</time></trkpt><trkpt lat="44.7817178" lon="12.2477386"><ele>-2.0</ele><time>2026-04-26T16:37:52.86Z</time></trkpt><trkpt lat="44.781527" lon="12.2475358"><ele>-2.0</ele><time>2026-04-26T16:37:53.859Z</time></trkpt><trkpt lat="44.7813373" lon="12.2473346"><ele>-2.0</ele><time>2026-04-26T16:37:54.859Z</time></trkpt><trkpt lat="44.7811429" lon="12.2471369"><ele>-2.0</ele><time>2026-04-26T16:37:55.859Z</time></trkpt><trkpt lat="44.7809567" lon="12.2469439"><ele>-1.6666666666666665</ele><time>2026-04-26T16:37:56.86Z</time></trkpt><trkpt lat="44.7807754" lon="12.2467535"><ele>-1.3333333333333333</ele><time>2026-04-26T16:37:57.859Z</time></trkpt><trkpt lat="44.7805972" lon="12.2465728"><ele>-1.0</ele><time>2026-04-26T16:37:58.859Z</time></trkpt><trkpt lat="44.7804207" lon="12.2463924"><ele>-1.0</ele><time>2026-04-26T16:37:59.859Z</time></trkpt><trkpt lat="44.7802471" lon="12.2462126"><ele>-1.0</ele><time>2026-04-26T16:38:00.859Z</time></trkpt><trkpt lat="44.7800753" lon="12.2460304"><ele>-1.0</ele><time>2026-04-26T16:38:01.86Z</time></trkpt><trkpt lat="44.7799028" lon="12.245847"><ele>-1.0</ele><time>2026-04-26T16:38:02.86Z</time></trkpt><trkpt lat="44.7797337" lon="12.2456778"><ele>-1.0</ele><time>2026-04-26T16:38:03.859Z</time></trkpt><trkpt lat="44.7795649" lon="12.245505"><ele>-1.0</ele><time>2026-04-26T16:38:04.86Z</time></trkpt><trkpt lat="44.7793979" lon="12.2453396"><ele>-1.3333333333333333</ele><time>2026-04-26T16:38:05.86Z</time></trkpt><trkpt lat="44.7792342" lon="12.2451751"><ele>-1.6666666666666665</ele><time>2026-04-26T16:38:06.859Z</time></trkpt><trkpt lat="44.7790732" lon="12.2450093"><ele>-2.0</ele><time>2026-04-26T16:38:07.859Z</time></trkpt><trkpt lat="44.7789168" lon="12.2448449"><ele>-2.0</ele><time>2026-04-26T16:38:08.86Z</time></trkpt><trkpt lat="44.7787607" lon="12.2446884"><ele>-2.0</ele><time>2026-04-26T16:38:09.859Z</time></trkpt><trkpt lat="44.7786075" lon="12.244529"><ele>-2.0</ele><time>2026-04-26T16:38:10.859Z</time></trkpt><trkpt lat="44.7784542" lon="12.2443769"><ele>-2.0</ele><time>2026-04-26T16:38:11.859Z</time></trkpt><trkpt lat="44.7782994" lon="12.2442237"><ele>-2.0</ele><time>2026-04-26T16:38:12.859Z</time></trkpt><trkpt lat="44.778148" lon="12.2440689"><ele>-2.0</ele><time>2026-04-26T16:38:13.86Z</time></trkpt><trkpt lat="44.777999" lon="12.2439155"><ele>-2.0</ele><time>2026-04-26T16:38:14.859Z</time></trkpt><trkpt lat="44.7778487" lon="12.2437592"><ele>-2.0</ele><time>2026-04-26T16:38:15.86Z</time></trkpt><trkpt lat="44.777702" lon="12.243608"><ele>-2.0</ele><time>2026-04-26T16:38:16.86Z</time></trkpt><trkpt lat="44.7775546" lon="12.2434592"><ele>-1.6666666666666665</ele><time>2026-04-26T16:38:17.86Z</time></trkpt><trkpt lat="44.7774039" lon="12.2433046"><ele>-1.3333333333333333</ele><time>2026-04-26T16:38:18.859Z</time></trkpt><trkpt lat="44.7772441" lon="12.2431468"><ele>-1.0</ele><time>2026-04-26T16:38:19.859Z</time></trkpt><trkpt lat="44.7770726" lon="12.2429788"><ele>-1.0</ele><time>2026-04-26T16:38:20.86Z</time></trkpt><trkpt lat="44.7768918" lon="12.2428035"><ele>-1.0</ele><time>2026-04-26T16:38:21.859Z</time></trkpt><trkpt lat="44.7766989" lon="12.2426134"><ele>-1.0</ele><time>2026-04-26T16:38:22.859Z</time></trkpt><trkpt lat="44.7764913" lon="12.2424201"><ele>-1.0</ele><time>2026-04-26T16:38:23.859Z</time></trkpt><trkpt lat="44.7762873" lon="12.2422272"><ele>-1.3333333333333333</ele><time>2026-04-26T16:38:24.859Z</time></trkpt><trkpt lat="44.7761022" lon="12.2420493"><ele>-1.6666666666666665</ele><time>2026-04-26T16:38:25.86Z</time></trkpt><trkpt lat="44.7759229" lon="12.2418763"><ele>-2.0</ele><time>2026-04-26T16:38:26.859Z</time></trkpt><trkpt lat="44.7757492" lon="12.2417085"><ele>-2.333333333333333</ele><time>2026-04-26T16:38:27.859Z</time></trkpt><trkpt lat="44.7755777" lon="12.2415365"><ele>-2.6666666666666665</ele><time>2026-04-26T16:38:28.86Z</time></trkpt><trkpt lat="44.7754055" lon="12.2413675"><ele>-3.0</ele><time>2026-04-26T16:38:29.86Z</time></trkpt><trkpt lat="44.7752358" lon="12.2411916"><ele>-2.6666666666666665</ele><time>2026-04-26T16:38:30.859Z</time></trkpt><trkpt lat="44.7750653" lon="12.2410107"><ele>-2.333333333333333</ele><time>2026-04-26T16:38:31.86Z</time></trkpt><trkpt lat="44.7748926" lon="12.2408348"><ele>-2.0</ele><time>2026-04-26T16:38:32.86Z</time></trkpt><trkpt lat="44.7747139" lon="12.2406624"><ele>-2.0</ele><time>2026-04-26T16:38:33.859Z</time></trkpt><trkpt lat="44.7745363" lon="12.2404936"><ele>-2.0</ele><time>2026-04-26T16:38:34.86Z</time></trkpt><trkpt lat="44.7743573" lon="12.240326"><ele>-2.0</ele><time>2026-04-26T16:38:35.859Z</time></trkpt><trkpt lat="44.7741782" lon="12.2401566"><ele>-1.6666666666666665</ele><time>2026-04-26T16:38:36.86Z</time></trkpt><trkpt lat="44.7740018" lon="12.2399873"><ele>-1.3333333333333333</ele><time>2026-04-26T16:38:37.86Z</time></trkpt><trkpt lat="44.7738259" lon="12.2398196"><ele>-1.0</ele><time>2026-04-26T16:38:38.86Z</time></trkpt><trkpt lat="44.7736502" lon="12.2396523"><ele>-1.0</ele><time>2026-04-26T16:38:39.859Z</time></trkpt><trkpt lat="44.7734737" lon="12.2394833"><ele>-1.0</ele><time>2026-04-26T16:38:40.859Z</time></trkpt><trkpt lat="44.7733028" lon="12.2393196"><ele>-1.0</ele><time>2026-04-26T16:38:41.86Z</time></trkpt><trkpt lat="44.7731505" lon="12.2391479"><ele>-1.3333333333333333</ele><time>2026-04-26T16:38:42.859Z</time></trkpt><trkpt lat="44.7730197" lon="12.2389436"><ele>-1.6666666666666665</ele><time>2026-04-26T16:38:43.859Z</time></trkpt><trkpt lat="44.7728943" lon="12.2387337"><ele>-2.0</ele><time>2026-04-26T16:38:44.859Z</time></trkpt><trkpt lat="44.772812" lon="12.2384934"><ele>-2.0</ele><time>2026-04-26T16:38:45.86Z</time></trkpt><trkpt lat="44.772736" lon="12.2382402"><ele>-2.0</ele><time>2026-04-26T16:38:46.859Z</time></trkpt><trkpt lat="44.7726664" lon="12.2379786"><ele>-2.0</ele><time>2026-04-26T16:38:47.86Z</time></trkpt><trkpt lat="44.772594" lon="12.2377159"><ele>-2.0</ele><time>2026-04-26T16:38:48.859Z</time></trkpt><trkpt lat="44.7725185" lon="12.2374475"><ele>-2.0</ele><time>2026-04-26T16:38:49.86Z</time></trkpt><trkpt lat="44.7724422" lon="12.2371778"><ele>-2.0</ele><time>2026-04-26T16:38:50.86Z</time></trkpt><trkpt lat="44.772365" lon="12.2369046"><ele>-2.0</ele><time>2026-04-26T16:38:51.859Z</time></trkpt><trkpt lat="44.7722798" lon="12.2366272"><ele>-2.0</ele><time>2026-04-26T16:38:52.859Z</time></trkpt><trkpt lat="44.7721781" lon="12.2363605"><ele>-2.0</ele><time>2026-04-26T16:38:53.859Z</time></trkpt><trkpt lat="44.7720658" lon="12.2361004"><ele>-2.0</ele><time>2026-04-26T16:38:54.86Z</time></trkpt><trkpt lat="44.7719375" lon="12.2358546"><ele>-2.0</ele><time>2026-04-26T16:38:55.859Z</time></trkpt><trkpt lat="44.7717954" lon="12.2356262"><ele>-2.0</ele><time>2026-04-26T16:38:56.86Z</time></trkpt><trkpt lat="44.7716432" lon="12.2354157"><ele>-2.0</ele><time>2026-04-26T16:38:57.859Z</time></trkpt><trkpt lat="44.7714784" lon="12.2352132"><ele>-2.0</ele><time>2026-04-26T16:38:58.859Z</time></trkpt><trkpt lat="44.771311" lon="12.2350183"><ele>-2.0</ele><time>2026-04-26T16:38:59.86Z</time></trkpt><trkpt lat="44.7711413" lon="12.2348261"><ele>-2.0</ele><time>2026-04-26T16:39:00.86Z</time></trkpt><trkpt lat="44.7709704" lon="12.2346364"><ele>-2.0</ele><time>2026-04-26T16:39:01.86Z</time></trkpt><trkpt lat="44.7707993" lon="12.2344517"><ele>-2.0</ele><time>2026-04-26T16:39:02.859Z</time></trkpt><trkpt lat="44.770627" lon="12.2342659"><ele>-2.0</ele><time>2026-04-26T16:39:03.86Z</time></trkpt><trkpt lat="44.7704514" lon="12.2340816"><ele>-2.0</ele><time>2026-04-26T16:39:04.859Z</time></trkpt><trkpt lat="44.7702767" lon="12.2339012"><ele>-2.0</ele><time>2026-04-26T16:39:05.86Z</time></trkpt><trkpt lat="44.7701048" lon="12.233718"><ele>-2.0</ele><time>2026-04-26T16:39:06.86Z</time></trkpt><trkpt lat="44.7699332" lon="12.2335365"><ele>-2.0</ele><time>2026-04-26T16:39:07.86Z</time></trkpt><trkpt lat="44.7697597" lon="12.233355"><ele>-2.0</ele><time>2026-04-26T16:39:08.86Z</time></trkpt><trkpt lat="44.7695853" lon="12.2331796"><ele>-2.333333333333333</ele><time>2026-04-26T16:39:09.859Z</time></trkpt><trkpt lat="44.7694125" lon="12.2329973"><ele>-2.6666666666666665</ele><time>2026-04-26T16:39:10.859Z</time></trkpt><trkpt lat="44.7692396" lon="12.2328167"><ele>-3.0</ele><time>2026-04-26T16:39:11.859Z</time></trkpt><trkpt lat="44.7690667" lon="12.2326303"><ele>-3.0</ele><time>2026-04-26T16:39:12.86Z</time></trkpt><trkpt lat="44.7688939" lon="12.2324485"><ele>-3.0</ele><time>2026-04-26T16:39:13.86Z</time></trkpt><trkpt lat="44.7687205" lon="12.2322682"><ele>-3.0</ele><time>2026-04-26T16:39:14.859Z</time></trkpt><trkpt lat="44.7685456" lon="12.2320868"><ele>-2.5</ele><time>2026-04-26T16:39:15.86Z</time></trkpt><trkpt lat="44.7683647" lon="12.2319028"><ele>-2.0</ele><time>2026-04-26T16:39:16.859Z</time></trkpt><trkpt lat="44.7681779" lon="12.2317109"><ele>-2.0</ele><time>2026-04-26T16:39:17.859Z</time></trkpt><trkpt lat="44.7679846" lon="12.231529"><ele>-2.0</ele><time>2026-04-26T16:39:18.859Z</time></trkpt><trkpt lat="44.7677877" lon="12.2313537"><ele>-1.5</ele><time>2026-04-26T16:39:19.86Z</time></trkpt><trkpt lat="44.7675918" lon="12.2311798"><ele>-1.0</ele><time>2026-04-26T16:39:20.859Z</time></trkpt><trkpt lat="44.7673939" lon="12.2310074"><ele>-1.0</ele><time>2026-04-26T16:39:21.859Z</time></trkpt><trkpt lat="44.7671954" lon="12.2308439"><ele>-1.0</ele><time>2026-04-26T16:39:22.859Z</time></trkpt><trkpt lat="44.7669965" lon="12.2306887"><ele>-1.3333333333333333</ele><time>2026-04-26T16:39:23.859Z</time></trkpt><trkpt lat="44.7668002" lon="12.2305338"><ele>-1.6666666666666665</ele><time>2026-04-26T16:39:24.859Z</time></trkpt><trkpt lat="44.7666025" lon="12.2303843"><ele>-2.0</ele><time>2026-04-26T16:39:25.859Z</time></trkpt><trkpt lat="44.7664044" lon="12.2302444"><ele>-2.0</ele><time>2026-04-26T16:39:26.859Z</time></trkpt><trkpt lat="44.7662103" lon="12.2301025"><ele>-2.0</ele><time>2026-04-26T16:39:27.859Z</time></trkpt><trkpt lat="44.766017" lon="12.2299633"><ele>-2.0</ele><time>2026-04-26T16:39:28.859Z</time></trkpt><trkpt lat="44.7658244" lon="12.2298261"><ele>-2.0</ele><time>2026-04-26T16:39:29.859Z</time></trkpt><trkpt lat="44.7656352" lon="12.2296875"><ele>-2.0</ele><time>2026-04-26T16:39:30.859Z</time></trkpt><trkpt lat="44.7654485" lon="12.2295527"><ele>-2.0</ele><time>2026-04-26T16:39:31.86Z</time></trkpt><trkpt lat="44.7652625" lon="12.2294185"><ele>-1.6666666666666665</ele><time>2026-04-26T16:39:32.859Z</time></trkpt><trkpt lat="44.7650799" lon="12.2292848"><ele>-1.3333333333333333</ele><time>2026-04-26T16:39:33.859Z</time></trkpt><trkpt lat="44.7648998" lon="12.2291506"><ele>-1.0</ele><time>2026-04-26T16:39:34.859Z</time></trkpt><trkpt lat="44.7647239" lon="12.2290196"><ele>-1.3333333333333333</ele><time>2026-04-26T16:39:35.86Z</time></trkpt><trkpt lat="44.7645484" lon="12.2288989"><ele>-1.6666666666666665</ele><time>2026-04-26T16:39:36.859Z</time></trkpt><trkpt lat="44.764371" lon="12.2288029"><ele>-2.0</ele><time>2026-04-26T16:39:37.859Z</time></trkpt><trkpt lat="44.7641874" lon="12.2287294"><ele>-2.0</ele><time>2026-04-26T16:39:38.859Z</time></trkpt><trkpt lat="44.7640013" lon="12.2286757"><ele>-2.0</ele><time>2026-04-26T16:39:39.859Z</time></trkpt><trkpt lat="44.7638087" lon="12.2286454"><ele>-2.0</ele><time>2026-04-26T16:39:40.859Z</time></trkpt><trkpt lat="44.763616" lon="12.2286424"><ele>-1.3333333333333333</ele><time>2026-04-26T16:39:41.86Z</time></trkpt><trkpt lat="44.7634249" lon="12.2286578"><ele>-0.6666666666666666</ele><time>2026-04-26T16:39:42.86Z</time></trkpt><trkpt lat="44.7632322" lon="12.2287132"><ele>0.0</ele><time>2026-04-26T16:39:43.86Z</time></trkpt><trkpt lat="44.7630436" lon="12.2287776"><ele>0.0</ele><time>2026-04-26T16:39:44.86Z</time></trkpt><trkpt lat="44.7628601" lon="12.2288923"><ele>0.0</ele><time>2026-04-26T16:39:45.859Z</time></trkpt><trkpt lat="44.762682" lon="12.2290318"><ele>0.0</ele><time>2026-04-26T16:39:46.859Z</time></trkpt><trkpt lat="44.7625105" lon="12.2291918"><ele>-0.6666666666666666</ele><time>2026-04-26T16:39:47.859Z</time></trkpt><trkpt lat="44.7623422" lon="12.229364"><ele>-1.3333333333333333</ele><time>2026-04-26T16:39:48.859Z</time></trkpt><trkpt lat="44.762175" lon="12.2295453"><ele>-2.0</ele><time>2026-04-26T16:39:49.859Z</time></trkpt><trkpt lat="44.7620103" lon="12.2297282"><ele>-1.6666666666666665</ele><time>2026-04-26T16:39:50.86Z</time></trkpt><trkpt lat="44.7618404" lon="12.2299087"><ele>-1.3333333333333333</ele><time>2026-04-26T16:39:51.859Z</time></trkpt><trkpt lat="44.7616736" lon="12.2300875"><ele>-1.0</ele><time>2026-04-26T16:39:52.859Z</time></trkpt><trkpt lat="44.761516" lon="12.2302556"><ele>-1.0</ele><time>2026-04-26T16:39:53.86Z</time></trkpt><trkpt lat="44.7613656" lon="12.2304132"><ele>-1.0</ele><time>2026-04-26T16:39:54.859Z</time></trkpt><trkpt lat="44.7612219" lon="12.2305615"><ele>-1.0</ele><time>2026-04-26T16:39:55.859Z</time></trkpt><trkpt lat="44.7610734" lon="12.2306847"><ele>-0.6666666666666666</ele><time>2026-04-26T16:39:56.86Z</time></trkpt><trkpt lat="44.7609124" lon="12.2307855"><ele>-0.3333333333333333</ele><time>2026-04-26T16:39:57.86Z</time></trkpt><trkpt lat="44.7607543" lon="12.2308654"><ele>0.0</ele><time>2026-04-26T16:39:58.859Z</time></trkpt><trkpt lat="44.7605794" lon="12.2309054"><ele>0.0</ele><time>2026-04-26T16:39:59.859Z</time></trkpt><trkpt lat="44.7604012" lon="12.2309159"><ele>0.0</ele><time>2026-04-26T16:40:00.86Z</time></trkpt><trkpt lat="44.7602232" lon="12.230902"><ele>0.0</ele><time>2026-04-26T16:40:01.86Z</time></trkpt><trkpt lat="44.7600451" lon="12.2308656"><ele>-0.3333333333333333</ele><time>2026-04-26T16:40:02.859Z</time></trkpt><trkpt lat="44.7598682" lon="12.2307997"><ele>-0.6666666666666666</ele><time>2026-04-26T16:40:03.86Z</time></trkpt><trkpt lat="44.7596995" lon="12.2307226"><ele>-1.0</ele><time>2026-04-26T16:40:04.859Z</time></trkpt><trkpt lat="44.7595399" lon="12.2306445"><ele>-0.5</ele><time>2026-04-26T16:40:05.86Z</time></trkpt><trkpt lat="44.7593914" lon="12.2305823"><ele>0.0</ele><time>2026-04-26T16:40:06.859Z</time></trkpt><trkpt lat="44.7592562" lon="12.2305312"><ele>0.5</ele><time>2026-04-26T16:40:07.86Z</time></trkpt><trkpt lat="44.7591362" lon="12.2304839"><ele>1.0</ele><time>2026-04-26T16:40:08.859Z</time></trkpt><trkpt lat="44.759028" lon="12.2304335"><ele>0.9999999999999999</ele><time>2026-04-26T16:40:09.86Z</time></trkpt><trkpt lat="44.7589338" lon="12.2303888"><ele>1.0</ele><time>2026-04-26T16:40:10.859Z</time></trkpt><trkpt lat="44.7588457" lon="12.2303481"><ele>1.0</ele><time>2026-04-26T16:40:11.859Z</time></trkpt><trkpt lat="44.7587686" lon="12.2302953"><ele>1.0</ele><time>2026-04-26T16:40:12.86Z</time></trkpt><trkpt lat="44.7587122" lon="12.2302246"><ele>0.9999999999999999</ele><time>2026-04-26T16:40:13.859Z</time></trkpt><trkpt lat="44.7586774" lon="12.2301357"><ele>1.0</ele><time>2026-04-26T16:40:14.859Z</time></trkpt><trkpt lat="44.7586526" lon="12.2299725"><ele>1.0</ele><time>2026-04-26T16:40:16.859Z</time></trkpt><trkpt lat="44.7586901" lon="12.2298115"><ele>1.0</ele><time>2026-04-26T16:40:18.86Z</time></trkpt><trkpt lat="44.7587237" lon="12.2297036"><ele>1.0</ele><time>2026-04-26T16:40:19.86Z</time></trkpt><trkpt lat="44.7587648" lon="12.2295673"><ele>1.0</ele><time>2026-04-26T16:40:20.859Z</time></trkpt><trkpt lat="44.7588196" lon="12.2294061"><ele>1.0</ele><time>2026-04-26T16:40:21.859Z</time></trkpt><trkpt lat="44.7588763" lon="12.2292218"><ele>1.0</ele><time>2026-04-26T16:40:22.86Z</time></trkpt><trkpt lat="44.758931" lon="12.2290281"><ele>1.0</ele><time>2026-04-26T16:40:23.859Z</time></trkpt><trkpt lat="44.7589955" lon="12.2288237"><ele>1.0</ele><time>2026-04-26T16:40:24.859Z</time></trkpt><trkpt lat="44.7590587" lon="12.2286168"><ele>1.0</ele><time>2026-04-26T16:40:25.86Z</time></trkpt><trkpt lat="44.7591263" lon="12.2284113"><ele>1.0</ele><time>2026-04-26T16:40:26.859Z</time></trkpt><trkpt lat="44.7591897" lon="12.228204"><ele>1.0</ele><time>2026-04-26T16:40:27.859Z</time></trkpt><trkpt lat="44.7592566" lon="12.2279896"><ele>-0.33333333333333337</ele><time>2026-04-26T16:40:28.86Z</time></trkpt><trkpt lat="44.7593265" lon="12.2277738"><ele>-1.6666666666666667</ele><time>2026-04-26T16:40:29.859Z</time></trkpt><trkpt lat="44.7593975" lon="12.2275586"><ele>-3.0</ele><time>2026-04-26T16:40:30.859Z</time></trkpt><trkpt lat="44.7594658" lon="12.2273421"><ele>-3.666666666666667</ele><time>2026-04-26T16:40:31.859Z</time></trkpt><trkpt lat="44.7595321" lon="12.2271299"><ele>-4.333333333333334</ele><time>2026-04-26T16:40:32.859Z</time></trkpt><trkpt lat="44.7595939" lon="12.2269221"><ele>-5.0</ele><time>2026-04-26T16:40:33.859Z</time></trkpt><trkpt lat="44.7596513" lon="12.226725"><ele>-5.0</ele><time>2026-04-26T16:40:34.859Z</time></trkpt><trkpt lat="44.7597155" lon="12.2265358"><ele>-5.0</ele><time>2026-04-26T16:40:35.86Z</time></trkpt><trkpt lat="44.7597714" lon="12.2263478"><ele>-5.0</ele><time>2026-04-26T16:40:36.86Z</time></trkpt><trkpt lat="44.7598104" lon="12.2261367"><ele>-5.0</ele><time>2026-04-26T16:40:37.86Z</time></trkpt><trkpt lat="44.7598318" lon="12.2259076"><ele>-5.0</ele><time>2026-04-26T16:40:38.859Z</time></trkpt><trkpt lat="44.7598445" lon="12.2256583"><ele>-5.0</ele><time>2026-04-26T16:40:39.86Z</time></trkpt><trkpt lat="44.7598591" lon="12.2254015"><ele>-5.0</ele><time>2026-04-26T16:40:40.86Z</time></trkpt><trkpt lat="44.7598738" lon="12.2251286"><ele>-4.333333333333334</ele><time>2026-04-26T16:40:41.86Z</time></trkpt><trkpt lat="44.7598916" lon="12.2248513"><ele>-3.666666666666667</ele><time>2026-04-26T16:40:42.86Z</time></trkpt><trkpt lat="44.759913" lon="12.2245632"><ele>-3.0</ele><time>2026-04-26T16:40:43.86Z</time></trkpt><trkpt lat="44.7599319" lon="12.2242606"><ele>-2.6666666666666665</ele><time>2026-04-26T16:40:44.859Z</time></trkpt><trkpt lat="44.7599504" lon="12.223952"><ele>-2.333333333333333</ele><time>2026-04-26T16:40:45.86Z</time></trkpt><trkpt lat="44.759968" lon="12.2236472"><ele>-2.0</ele><time>2026-04-26T16:40:46.86Z</time></trkpt><trkpt lat="44.7599898" lon="12.2233436"><ele>-2.333333333333333</ele><time>2026-04-26T16:40:47.859Z</time></trkpt><trkpt lat="44.7600102" lon="12.2230396"><ele>-2.6666666666666665</ele><time>2026-04-26T16:40:48.86Z</time></trkpt><trkpt lat="44.7600285" lon="12.2227328"><ele>-3.0</ele><time>2026-04-26T16:40:49.86Z</time></trkpt><trkpt lat="44.7600468" lon="12.2224274"><ele>-2.6666666666666665</ele><time>2026-04-26T16:40:50.859Z</time></trkpt><trkpt lat="44.7600671" lon="12.2221244"><ele>-2.333333333333333</ele><time>2026-04-26T16:40:51.86Z</time></trkpt><trkpt lat="44.7600884" lon="12.2218229"><ele>-2.0</ele><time>2026-04-26T16:40:52.86Z</time></trkpt><trkpt lat="44.7601075" lon="12.2215193"><ele>-2.0</ele><time>2026-04-26T16:40:53.86Z</time></trkpt><trkpt lat="44.7601243" lon="12.2212138"><ele>-2.0</ele><time>2026-04-26T16:40:54.859Z</time></trkpt><trkpt lat="44.7601447" lon="12.2209051"><ele>-2.0</ele><time>2026-04-26T16:40:55.859Z</time></trkpt><trkpt lat="44.7601646" lon="12.2205938"><ele>-2.0</ele><time>2026-04-26T16:40:56.859Z</time></trkpt><trkpt lat="44.7601875" lon="12.2202829"><ele>-2.0</ele><time>2026-04-26T16:40:57.859Z</time></trkpt><trkpt lat="44.7602079" lon="12.2199671"><ele>-2.0</ele><time>2026-04-26T16:40:58.859Z</time></trkpt><trkpt lat="44.760227" lon="12.2196525"><ele>-3.0</ele><time>2026-04-26T16:40:59.86Z</time></trkpt><trkpt lat="44.7602449" lon="12.2193374"><ele>-4.0</ele><time>2026-04-26T16:41:00.86Z</time></trkpt><trkpt lat="44.7602642" lon="12.2190202"><ele>-4.0</ele><time>2026-04-26T16:41:01.859Z</time></trkpt><trkpt lat="44.7602847" lon="12.2186995"><ele>-4.0</ele><time>2026-04-26T16:41:02.859Z</time></trkpt><trkpt lat="44.7603037" lon="12.2183848"><ele>-4.0</ele><time>2026-04-26T16:41:03.86Z</time></trkpt><trkpt lat="44.7603228" lon="12.2180671"><ele>-4.0</ele><time>2026-04-26T16:41:04.859Z</time></trkpt><trkpt lat="44.7603429" lon="12.2177543"><ele>-4.0</ele><time>2026-04-26T16:41:05.859Z</time></trkpt><trkpt lat="44.7603657" lon="12.217443"><ele>-3.6666666666666665</ele><time>2026-04-26T16:41:06.859Z</time></trkpt><trkpt lat="44.7603855" lon="12.2171299"><ele>-3.333333333333333</ele><time>2026-04-26T16:41:07.859Z</time></trkpt><trkpt lat="44.7604042" lon="12.2168181"><ele>-3.0</ele><time>2026-04-26T16:41:08.859Z</time></trkpt><trkpt lat="44.7604234" lon="12.216508"><ele>-3.0</ele><time>2026-04-26T16:41:09.86Z</time></trkpt><trkpt lat="44.7604431" lon="12.2161947"><ele>-3.0</ele><time>2026-04-26T16:41:10.86Z</time></trkpt><trkpt lat="44.7604628" lon="12.2158787"><ele>-3.0</ele><time>2026-04-26T16:41:11.86Z</time></trkpt><trkpt lat="44.7604837" lon="12.2155668"><ele>-3.5</ele><time>2026-04-26T16:41:12.86Z</time></trkpt><trkpt lat="44.7605047" lon="12.21525"><ele>-4.0</ele><time>2026-04-26T16:41:13.859Z</time></trkpt><trkpt lat="44.7605231" lon="12.2149287"><ele>-4.0</ele><time>2026-04-26T16:41:14.859Z</time></trkpt><trkpt lat="44.7605437" lon="12.2146034"><ele>-4.0</ele><time>2026-04-26T16:41:15.859Z</time></trkpt><trkpt lat="44.7605646" lon="12.2142773"><ele>-3.5</ele><time>2026-04-26T16:41:16.859Z</time></trkpt><trkpt lat="44.7605851" lon="12.2139492"><ele>-3.0</ele><time>2026-04-26T16:41:17.86Z</time></trkpt><trkpt lat="44.7606056" lon="12.2136184"><ele>-3.0</ele><time>2026-04-26T16:41:18.859Z</time></trkpt><trkpt lat="44.7606257" lon="12.2132901"><ele>-3.0</ele><time>2026-04-26T16:41:19.859Z</time></trkpt><trkpt lat="44.7606479" lon="12.2129669"><ele>-2.5</ele><time>2026-04-26T16:41:20.86Z</time></trkpt><trkpt lat="44.7606694" lon="12.2126412"><ele>-2.0</ele><time>2026-04-26T16:41:21.86Z</time></trkpt><trkpt lat="44.7606896" lon="12.21232"><ele>-2.0</ele><time>2026-04-26T16:41:22.86Z</time></trkpt><trkpt lat="44.7607091" lon="12.2119984"><ele>-2.0</ele><time>2026-04-26T16:41:23.86Z</time></trkpt><trkpt lat="44.7607289" lon="12.2116816"><ele>-1.5</ele><time>2026-04-26T16:41:24.86Z</time></trkpt><trkpt lat="44.7607487" lon="12.211365"><ele>-1.0</ele><time>2026-04-26T16:41:25.86Z</time></trkpt><trkpt lat="44.7607651" lon="12.2110475"><ele>-1.0</ele><time>2026-04-26T16:41:26.86Z</time></trkpt><trkpt lat="44.7607843" lon="12.2107297"><ele>-1.0</ele><time>2026-04-26T16:41:27.86Z</time></trkpt><trkpt lat="44.7608057" lon="12.2104147"><ele>-1.0</ele><time>2026-04-26T16:41:28.859Z</time></trkpt><trkpt lat="44.7608271" lon="12.2100974"><ele>-1.0</ele><time>2026-04-26T16:41:29.86Z</time></trkpt><trkpt lat="44.7608464" lon="12.2097764"><ele>-1.5</ele><time>2026-04-26T16:41:30.859Z</time></trkpt><trkpt lat="44.7608645" lon="12.2094552"><ele>-2.0</ele><time>2026-04-26T16:41:31.859Z</time></trkpt><trkpt lat="44.7608843" lon="12.2091371"><ele>-2.5</ele><time>2026-04-26T16:41:32.859Z</time></trkpt><trkpt lat="44.7609021" lon="12.208817"><ele>-3.0</ele><time>2026-04-26T16:41:33.859Z</time></trkpt><trkpt lat="44.7609221" lon="12.2085005"><ele>-3.0</ele><time>2026-04-26T16:41:34.859Z</time></trkpt><trkpt lat="44.7609396" lon="12.208183"><ele>-3.0</ele><time>2026-04-26T16:41:35.859Z</time></trkpt><trkpt lat="44.7609631" lon="12.2078719"><ele>-3.0</ele><time>2026-04-26T16:41:36.859Z</time></trkpt><trkpt lat="44.7609813" lon="12.2075647"><ele>-3.0</ele><time>2026-04-26T16:41:37.859Z</time></trkpt><trkpt lat="44.7609994" lon="12.2072614"><ele>-3.0</ele><time>2026-04-26T16:41:38.86Z</time></trkpt><trkpt lat="44.7610204" lon="12.2069584"><ele>-3.0</ele><time>2026-04-26T16:41:39.86Z</time></trkpt><trkpt lat="44.7610379" lon="12.2066597"><ele>-3.0</ele><time>2026-04-26T16:41:40.859Z</time></trkpt><trkpt lat="44.7610578" lon="12.2063606"><ele>-3.0</ele><time>2026-04-26T16:41:41.859Z</time></trkpt><trkpt lat="44.7610775" lon="12.20606"><ele>-3.0</ele><time>2026-04-26T16:41:42.859Z</time></trkpt><trkpt lat="44.7610959" lon="12.2057565"><ele>-3.0</ele><time>2026-04-26T16:41:43.859Z</time></trkpt><trkpt lat="44.7611161" lon="12.2054522"><ele>-3.0</ele><time>2026-04-26T16:41:44.86Z</time></trkpt><trkpt lat="44.7611346" lon="12.2051451"><ele>-3.0</ele><time>2026-04-26T16:41:45.86Z</time></trkpt><trkpt lat="44.7611523" lon="12.2048414"><ele>-3.0</ele><time>2026-04-26T16:41:46.859Z</time></trkpt><trkpt lat="44.7611713" lon="12.204531"><ele>-3.0</ele><time>2026-04-26T16:41:47.859Z</time></trkpt><trkpt lat="44.7611903" lon="12.2042195"><ele>-3.0</ele><time>2026-04-26T16:41:48.859Z</time></trkpt><trkpt lat="44.7612081" lon="12.2039112"><ele>-3.0</ele><time>2026-04-26T16:41:49.86Z</time></trkpt><trkpt lat="44.7612264" lon="12.2035985"><ele>-3.0</ele><time>2026-04-26T16:41:50.86Z</time></trkpt><trkpt lat="44.7612473" lon="12.2032904"><ele>-3.0</ele><time>2026-04-26T16:41:51.859Z</time></trkpt><trkpt lat="44.7612643" lon="12.2029777"><ele>-3.0</ele><time>2026-04-26T16:41:52.86Z</time></trkpt><trkpt lat="44.7612849" lon="12.2026662"><ele>-3.0</ele><time>2026-04-26T16:41:53.859Z</time></trkpt><trkpt lat="44.7613056" lon="12.2023536"><ele>-3.0</ele><time>2026-04-26T16:41:54.86Z</time></trkpt><trkpt lat="44.7613273" lon="12.2020372"><ele>-3.0</ele><time>2026-04-26T16:41:55.86Z</time></trkpt><trkpt lat="44.7613465" lon="12.2017241"><ele>-3.0</ele><time>2026-04-26T16:41:56.859Z</time></trkpt><trkpt lat="44.7613684" lon="12.2014092"><ele>-3.0</ele><time>2026-04-26T16:41:57.86Z</time></trkpt><trkpt lat="44.7613865" lon="12.2010912"><ele>-3.0</ele><time>2026-04-26T16:41:58.859Z</time></trkpt><trkpt lat="44.7614042" lon="12.200775"><ele>-3.0</ele><time>2026-04-26T16:41:59.859Z</time></trkpt><trkpt lat="44.7614235" lon="12.2004542"><ele>-2.5</ele><time>2026-04-26T16:42:00.859Z</time></trkpt><trkpt lat="44.7614431" lon="12.200136"><ele>-2.0</ele><time>2026-04-26T16:42:01.859Z</time></trkpt><trkpt lat="44.7614638" lon="12.1998189"><ele>-2.0</ele><time>2026-04-26T16:42:02.859Z</time></trkpt><trkpt lat="44.7614809" lon="12.1995035"><ele>-2.0</ele><time>2026-04-26T16:42:03.86Z</time></trkpt><trkpt lat="44.7615014" lon="12.1991933"><ele>-2.0</ele><time>2026-04-26T16:42:04.86Z</time></trkpt><trkpt lat="44.7615188" lon="12.1988885"><ele>-2.0</ele><time>2026-04-26T16:42:05.859Z</time></trkpt><trkpt lat="44.761537" lon="12.1985979"><ele>-2.0</ele><time>2026-04-26T16:42:06.859Z</time></trkpt><trkpt lat="44.7615551" lon="12.1983241"><ele>-2.0</ele><time>2026-04-26T16:42:07.86Z</time></trkpt><trkpt lat="44.7615742" lon="12.1980727"><ele>-2.0</ele><time>2026-04-26T16:42:08.859Z</time></trkpt><trkpt lat="44.7615874" lon="12.197842"><ele>-2.0</ele><time>2026-04-26T16:42:09.859Z</time></trkpt><trkpt lat="44.7615997" lon="12.1976205"><ele>-2.0</ele><time>2026-04-26T16:42:10.86Z</time></trkpt><trkpt lat="44.7616091" lon="12.1974043"><ele>-1.75</ele><time>2026-04-26T16:42:11.859Z</time></trkpt><trkpt lat="44.7616218" lon="12.1971952"><ele>-1.5</ele><time>2026-04-26T16:42:12.859Z</time></trkpt><trkpt lat="44.7616356" lon="12.1969886"><ele>-1.25</ele><time>2026-04-26T16:42:13.859Z</time></trkpt><trkpt lat="44.7616489" lon="12.1967831"><ele>-1.0</ele><time>2026-04-26T16:42:14.859Z</time></trkpt><trkpt lat="44.7616597" lon="12.1965719"><ele>-1.3333333333333333</ele><time>2026-04-26T16:42:15.859Z</time></trkpt><trkpt lat="44.7616735" lon="12.1963602"><ele>-1.6666666666666665</ele><time>2026-04-26T16:42:16.859Z</time></trkpt><trkpt lat="44.7616887" lon="12.1961516"><ele>-2.0</ele><time>2026-04-26T16:42:17.86Z</time></trkpt><trkpt lat="44.7617019" lon="12.1959401"><ele>-2.0</ele><time>2026-04-26T16:42:18.86Z</time></trkpt><trkpt lat="44.7617156" lon="12.1957289"><ele>-2.0</ele><time>2026-04-26T16:42:19.859Z</time></trkpt><trkpt lat="44.7617277" lon="12.1955296"><ele>-2.0</ele><time>2026-04-26T16:42:20.859Z</time></trkpt><trkpt lat="44.7617409" lon="12.1953355"><ele>-2.0</ele><time>2026-04-26T16:42:21.86Z</time></trkpt><trkpt lat="44.7617525" lon="12.1951508"><ele>-2.0</ele><time>2026-04-26T16:42:22.859Z</time></trkpt><trkpt lat="44.7617608" lon="12.19498"><ele>-2.0</ele><time>2026-04-26T16:42:23.859Z</time></trkpt><trkpt lat="44.7617719" lon="12.1948177"><ele>-2.0</ele><time>2026-04-26T16:42:24.86Z</time></trkpt><trkpt lat="44.7617791" lon="12.1946569"><ele>-2.0</ele><time>2026-04-26T16:42:25.86Z</time></trkpt><trkpt lat="44.7617918" lon="12.1945052"><ele>-2.0</ele><time>2026-04-26T16:42:26.859Z</time></trkpt><trkpt lat="44.7618" lon="12.194352"><ele>-2.0</ele><time>2026-04-26T16:42:27.859Z</time></trkpt><trkpt lat="44.7618085" lon="12.1942045"><ele>-2.0</ele><time>2026-04-26T16:42:28.86Z</time></trkpt><trkpt lat="44.7618168" lon="12.1940648"><ele>-2.0</ele><time>2026-04-26T16:42:29.86Z</time></trkpt><trkpt lat="44.7618246" lon="12.1939263"><ele>-2.0</ele><time>2026-04-26T16:42:30.859Z</time></trkpt><trkpt lat="44.7618356" lon="12.1937963"><ele>-1.9999999999999998</ele><time>2026-04-26T16:42:31.859Z</time></trkpt><trkpt lat="44.7618441" lon="12.1936736"><ele>-2.0</ele><time>2026-04-26T16:42:32.86Z</time></trkpt><trkpt lat="44.7618526" lon="12.1935544"><ele>-2.0</ele><time>2026-04-26T16:42:33.859Z</time></trkpt><trkpt lat="44.7618589" lon="12.1934491"><ele>-2.0</ele><time>2026-04-26T16:42:34.86Z</time></trkpt><trkpt lat="44.7618623" lon="12.1933557"><ele>-1.9999999999999998</ele><time>2026-04-26T16:42:35.859Z</time></trkpt><trkpt lat="44.7618768" lon="12.1931908"><ele>-2.0</ele><time>2026-04-26T16:42:37.859Z</time></trkpt><trkpt lat="44.7618873" lon="12.1930396"><ele>-1.857142857142857</ele><time>2026-04-26T16:42:39.859Z</time></trkpt><trkpt lat="44.7618946" lon="12.1929123"><ele>-1.714285714285714</ele><time>2026-04-26T16:42:41.86Z</time></trkpt><trkpt lat="44.7618991" lon="12.1928051"><ele>-1.5714285714285714</ele><time>2026-04-26T16:42:43.86Z</time></trkpt><trkpt lat="44.761901" lon="12.1927124"><ele>-1.4285714285714284</ele><time>2026-04-26T16:42:45.859Z</time></trkpt><trkpt lat="44.7619133" lon="12.1926199"><ele>-1.2857142857142856</ele><time>2026-04-26T16:43:13.86Z</time></trkpt><trkpt lat="44.7619114" lon="12.1925303"><ele>-1.1428571428571428</ele><time>2026-04-26T16:43:17.86Z</time></trkpt><trkpt lat="44.7619155" lon="12.1924282"><ele>-1.0</ele><time>2026-04-26T16:43:38.86Z</time></trkpt><trkpt lat="44.7619347" lon="12.1923188"><ele>-0.6000000000000001</ele><time>2026-04-26T16:43:48.86Z</time></trkpt><trkpt lat="44.7619902" lon="12.1922075"><ele>-0.20000000000000007</ele><time>2026-04-26T16:43:55.859Z</time></trkpt><trkpt lat="44.762062" lon="12.1921686"><ele>0.20000000000000007</ele><time>2026-04-26T16:43:56.859Z</time></trkpt><trkpt lat="44.7621534" lon="12.1921256"><ele>0.6000000000000001</ele><time>2026-04-26T16:43:57.86Z</time></trkpt><trkpt lat="44.762252" lon="12.1920813"><ele>1.0</ele><time>2026-04-26T16:43:58.86Z</time></trkpt><trkpt lat="44.7623635" lon="12.1920263"><ele>1.0</ele><time>2026-04-26T16:43:59.859Z</time></trkpt><trkpt lat="44.7624833" lon="12.1919651"><ele>1.0</ele><time>2026-04-26T16:44:00.859Z</time></trkpt><trkpt lat="44.7626115" lon="12.1919037"><ele>1.0</ele><time>2026-04-26T16:44:01.859Z</time></trkpt><trkpt lat="44.7627476" lon="12.1918392"><ele>1.0</ele><time>2026-04-26T16:44:02.859Z</time></trkpt><trkpt lat="44.7628882" lon="12.1917721"><ele>0.3333333333333333</ele><time>2026-04-26T16:44:03.86Z</time></trkpt><trkpt lat="44.7630302" lon="12.1917021"><ele>-0.3333333333333333</ele><time>2026-04-26T16:44:04.86Z</time></trkpt><trkpt lat="44.7631747" lon="12.1916317"><ele>-1.0</ele><time>2026-04-26T16:44:05.86Z</time></trkpt><trkpt lat="44.7633192" lon="12.1915644"><ele>-1.0</ele><time>2026-04-26T16:44:06.86Z</time></trkpt><trkpt lat="44.7634586" lon="12.1914989"><ele>-1.0</ele><time>2026-04-26T16:44:07.86Z</time></trkpt><trkpt lat="44.7636034" lon="12.1914289"><ele>-1.0</ele><time>2026-04-26T16:44:08.859Z</time></trkpt><trkpt lat="44.7637494" lon="12.1913586"><ele>-1.0</ele><time>2026-04-26T16:44:09.86Z</time></trkpt><trkpt lat="44.7638959" lon="12.1912826"><ele>-1.0</ele><time>2026-04-26T16:44:10.859Z</time></trkpt><trkpt lat="44.7640465" lon="12.1912088"><ele>-1.0</ele><time>2026-04-26T16:44:11.86Z</time></trkpt><trkpt lat="44.7641989" lon="12.1911381"><ele>-1.0</ele><time>2026-04-26T16:44:12.859Z</time></trkpt><trkpt lat="44.7643551" lon="12.1910603"><ele>-1.0</ele><time>2026-04-26T16:44:13.859Z</time></trkpt><trkpt lat="44.7645138" lon="12.1909823"><ele>-1.0</ele><time>2026-04-26T16:44:14.86Z</time></trkpt><trkpt lat="44.7646729" lon="12.1909031"><ele>-1.3333333333333333</ele><time>2026-04-26T16:44:15.86Z</time></trkpt><trkpt lat="44.7648373" lon="12.1908252"><ele>-1.6666666666666665</ele><time>2026-04-26T16:44:16.86Z</time></trkpt><trkpt lat="44.7650042" lon="12.1907456"><ele>-2.0</ele><time>2026-04-26T16:44:17.859Z</time></trkpt><trkpt lat="44.7651747" lon="12.1906631"><ele>-2.0</ele><time>2026-04-26T16:44:18.859Z</time></trkpt><trkpt lat="44.7653432" lon="12.1905836"><ele>-2.0</ele><time>2026-04-26T16:44:19.86Z</time></trkpt><trkpt lat="44.7655124" lon="12.190501"><ele>-2.0</ele><time>2026-04-26T16:44:20.859Z</time></trkpt><trkpt lat="44.7656836" lon="12.1904176"><ele>-2.0</ele><time>2026-04-26T16:44:21.86Z</time></trkpt><trkpt lat="44.7658556" lon="12.1903367"><ele>-2.0</ele><time>2026-04-26T16:44:22.86Z</time></trkpt><trkpt lat="44.7660311" lon="12.1902526"><ele>-2.0</ele><time>2026-04-26T16:44:23.859Z</time></trkpt><trkpt lat="44.7662089" lon="12.1901695"><ele>-1.6666666666666665</ele><time>2026-04-26T16:44:24.859Z</time></trkpt><trkpt lat="44.7663835" lon="12.1900814"><ele>-1.3333333333333333</ele><time>2026-04-26T16:44:25.86Z</time></trkpt><trkpt lat="44.7665618" lon="12.1899941"><ele>-1.0</ele><time>2026-04-26T16:44:26.86Z</time></trkpt><trkpt lat="44.7667425" lon="12.1899079"><ele>-1.0</ele><time>2026-04-26T16:44:27.859Z</time></trkpt><trkpt lat="44.7669228" lon="12.1898231"><ele>-1.0</ele><time>2026-04-26T16:44:28.859Z</time></trkpt><trkpt lat="44.7671064" lon="12.189739"><ele>-1.0</ele><time>2026-04-26T16:44:29.86Z</time></trkpt><trkpt lat="44.7672906" lon="12.1896535"><ele>-1.0</ele><time>2026-04-26T16:44:30.859Z</time></trkpt><trkpt lat="44.7674751" lon="12.1895614"><ele>-1.0</ele><time>2026-04-26T16:44:31.859Z</time></trkpt><trkpt lat="44.7676572" lon="12.1894717"><ele>-1.0</ele><time>2026-04-26T16:44:32.859Z</time></trkpt><trkpt lat="44.7678388" lon="12.1893799"><ele>-0.6666666666666666</ele><time>2026-04-26T16:44:33.859Z</time></trkpt><trkpt lat="44.7680237" lon="12.1892916"><ele>-0.3333333333333333</ele><time>2026-04-26T16:44:34.859Z</time></trkpt><trkpt lat="44.7682072" lon="12.1892028"><ele>0.0</ele><time>2026-04-26T16:44:35.86Z</time></trkpt><trkpt lat="44.7683885" lon="12.1891165"><ele>-0.6666666666666666</ele><time>2026-04-26T16:44:36.86Z</time></trkpt><trkpt lat="44.7685619" lon="12.1890372"><ele>-1.3333333333333333</ele><time>2026-04-26T16:44:37.859Z</time></trkpt><trkpt lat="44.7687327" lon="12.1889535"><ele>-2.0</ele><time>2026-04-26T16:44:38.86Z</time></trkpt><trkpt lat="44.7689075" lon="12.1888712"><ele>-1.3333333333333333</ele><time>2026-04-26T16:44:39.859Z</time></trkpt><trkpt lat="44.7690791" lon="12.1887905"><ele>-0.6666666666666666</ele><time>2026-04-26T16:44:40.86Z</time></trkpt><trkpt lat="44.7692522" lon="12.1887055"><ele>0.0</ele><time>2026-04-26T16:44:41.86Z</time></trkpt><trkpt lat="44.7694229" lon="12.1886229"><ele>0.0</ele><time>2026-04-26T16:44:42.86Z</time></trkpt><trkpt lat="44.7695935" lon="12.1885404"><ele>0.0</ele><time>2026-04-26T16:44:43.86Z</time></trkpt><trkpt lat="44.769762" lon="12.1884606"><ele>0.0</ele><time>2026-04-26T16:44:44.86Z</time></trkpt><trkpt lat="44.7699311" lon="12.1883837"><ele>0.0</ele><time>2026-04-26T16:44:45.86Z</time></trkpt><trkpt lat="44.7700981" lon="12.1883079"><ele>0.0</ele><time>2026-04-26T16:44:46.859Z</time></trkpt><trkpt lat="44.7702667" lon="12.1882354"><ele>0.0</ele><time>2026-04-26T16:44:47.859Z</time></trkpt><trkpt lat="44.7704353" lon="12.1881564"><ele>0.6666666666666666</ele><time>2026-04-26T16:44:48.859Z</time></trkpt><trkpt lat="44.7706013" lon="12.1880855"><ele>1.3333333333333333</ele><time>2026-04-26T16:44:49.859Z</time></trkpt><trkpt lat="44.7707712" lon="12.1880154"><ele>2.0</ele><time>2026-04-26T16:44:50.859Z</time></trkpt><trkpt lat="44.7709406" lon="12.1879431"><ele>1.0</ele><time>2026-04-26T16:44:51.859Z</time></trkpt><trkpt lat="44.7711136" lon="12.1878736"><ele>0.0</ele><time>2026-04-26T16:44:52.859Z</time></trkpt><trkpt lat="44.771284" lon="12.1877962"><ele>-1.0</ele><time>2026-04-26T16:44:53.859Z</time></trkpt><trkpt lat="44.7714554" lon="12.1877217"><ele>-1.0</ele><time>2026-04-26T16:44:54.859Z</time></trkpt><trkpt lat="44.7716264" lon="12.1876458"><ele>-1.0</ele><time>2026-04-26T16:44:55.86Z</time></trkpt><trkpt lat="44.7717972" lon="12.1875705"><ele>-1.0</ele><time>2026-04-26T16:44:56.86Z</time></trkpt><trkpt lat="44.7719696" lon="12.1874942"><ele>-1.3333333333333333</ele><time>2026-04-26T16:44:57.859Z</time></trkpt><trkpt lat="44.7721425" lon="12.1874227"><ele>-1.6666666666666665</ele><time>2026-04-26T16:44:58.859Z</time></trkpt><trkpt lat="44.7723151" lon="12.1873552"><ele>-2.0</ele><time>2026-04-26T16:44:59.859Z</time></trkpt><trkpt lat="44.7724905" lon="12.1872834"><ele>-2.0</ele><time>2026-04-26T16:45:00.859Z</time></trkpt><trkpt lat="44.7726639" lon="12.1872124"><ele>-2.0</ele><time>2026-04-26T16:45:01.86Z</time></trkpt><trkpt lat="44.772837" lon="12.1871427"><ele>-2.0</ele><time>2026-04-26T16:45:02.86Z</time></trkpt><trkpt lat="44.7730139" lon="12.187076"><ele>-1.6666666666666665</ele><time>2026-04-26T16:45:03.86Z</time></trkpt><trkpt lat="44.7731882" lon="12.1870109"><ele>-1.3333333333333333</ele><time>2026-04-26T16:45:04.859Z</time></trkpt><trkpt lat="44.7733672" lon="12.1869481"><ele>-1.0</ele><time>2026-04-26T16:45:05.859Z</time></trkpt><trkpt lat="44.773547" lon="12.1868888"><ele>-0.3333333333333333</ele><time>2026-04-26T16:45:06.86Z</time></trkpt><trkpt lat="44.7737318" lon="12.1868187"><ele>0.3333333333333333</ele><time>2026-04-26T16:45:07.859Z</time></trkpt><trkpt lat="44.7739112" lon="12.1867577"><ele>1.0</ele><time>2026-04-26T16:45:08.86Z</time></trkpt><trkpt lat="44.7740902" lon="12.1866979"><ele>1.0</ele><time>2026-04-26T16:45:09.859Z</time></trkpt><trkpt lat="44.7742744" lon="12.1866352"><ele>1.0</ele><time>2026-04-26T16:45:10.859Z</time></trkpt><trkpt lat="44.7744597" lon="12.18657"><ele>1.0</ele><time>2026-04-26T16:45:11.859Z</time></trkpt><trkpt lat="44.7746471" lon="12.1865044"><ele>0.6666666666666666</ele><time>2026-04-26T16:45:12.859Z</time></trkpt><trkpt lat="44.7748318" lon="12.1864396"><ele>0.3333333333333333</ele><time>2026-04-26T16:45:13.859Z</time></trkpt><trkpt lat="44.77502" lon="12.1863736"><ele>0.0</ele><time>2026-04-26T16:45:14.859Z</time></trkpt><trkpt lat="44.7752073" lon="12.1863002"><ele>0.0</ele><time>2026-04-26T16:45:15.86Z</time></trkpt><trkpt lat="44.7753998" lon="12.1862351"><ele>0.0</ele><time>2026-04-26T16:45:16.86Z</time></trkpt><trkpt lat="44.7755918" lon="12.1861688"><ele>0.0</ele><time>2026-04-26T16:45:17.859Z</time></trkpt><trkpt lat="44.7757834" lon="12.1860985"><ele>0.0</ele><time>2026-04-26T16:45:18.86Z</time></trkpt><trkpt lat="44.7759767" lon="12.1860292"><ele>0.0</ele><time>2026-04-26T16:45:19.86Z</time></trkpt><trkpt lat="44.7761667" lon="12.1859657"><ele>0.0</ele><time>2026-04-26T16:45:20.86Z</time></trkpt><trkpt lat="44.776358" lon="12.1858949"><ele>0.0</ele><time>2026-04-26T16:45:21.86Z</time></trkpt><trkpt lat="44.7765478" lon="12.185831"><ele>0.0</ele><time>2026-04-26T16:45:22.859Z</time></trkpt><trkpt lat="44.7767364" lon="12.1857633"><ele>0.0</ele><time>2026-04-26T16:45:23.859Z</time></trkpt><trkpt lat="44.7769252" lon="12.1856957"><ele>-0.3333333333333333</ele><time>2026-04-26T16:45:24.859Z</time></trkpt><trkpt lat="44.7771119" lon="12.1856309"><ele>-0.6666666666666666</ele><time>2026-04-26T16:45:25.859Z</time></trkpt><trkpt lat="44.7773009" lon="12.1855659"><ele>-1.0</ele><time>2026-04-26T16:45:26.859Z</time></trkpt><trkpt lat="44.7774887" lon="12.185502"><ele>-1.0</ele><time>2026-04-26T16:45:27.859Z</time></trkpt><trkpt lat="44.7776775" lon="12.1854325"><ele>-1.0</ele><time>2026-04-26T16:45:28.86Z</time></trkpt><trkpt lat="44.7778653" lon="12.185361"><ele>-1.0</ele><time>2026-04-26T16:45:29.859Z</time></trkpt><trkpt lat="44.7780574" lon="12.1852923"><ele>-1.0</ele><time>2026-04-26T16:45:30.86Z</time></trkpt><trkpt lat="44.7782485" lon="12.1852296"><ele>-1.0</ele><time>2026-04-26T16:45:31.86Z</time></trkpt><trkpt lat="44.7784421" lon="12.1851673"><ele>-1.0</ele><time>2026-04-26T16:45:32.859Z</time></trkpt><trkpt lat="44.7786318" lon="12.1851031"><ele>-1.0</ele><time>2026-04-26T16:45:33.86Z</time></trkpt><trkpt lat="44.7788221" lon="12.1850357"><ele>-1.0</ele><time>2026-04-26T16:45:34.859Z</time></trkpt><trkpt lat="44.7790078" lon="12.1849721"><ele>-1.0</ele><time>2026-04-26T16:45:35.86Z</time></trkpt><trkpt lat="44.7791904" lon="12.1849068"><ele>-1.6666666666666665</ele><time>2026-04-26T16:45:36.859Z</time></trkpt><trkpt lat="44.7793736" lon="12.184848"><ele>-2.3333333333333335</ele><time>2026-04-26T16:45:37.859Z</time></trkpt><trkpt lat="44.7795516" lon="12.1847813"><ele>-3.0</ele><time>2026-04-26T16:45:38.86Z</time></trkpt><trkpt lat="44.779729" lon="12.1847171"><ele>-3.0</ele><time>2026-04-26T16:45:39.859Z</time></trkpt><trkpt lat="44.7799077" lon="12.1846461"><ele>-3.0</ele><time>2026-04-26T16:45:40.859Z</time></trkpt><trkpt lat="44.7800877" lon="12.1845793"><ele>-3.0</ele><time>2026-04-26T16:45:41.859Z</time></trkpt><trkpt lat="44.7802705" lon="12.184511"><ele>-2.6666666666666665</ele><time>2026-04-26T16:45:42.859Z</time></trkpt><trkpt lat="44.7804534" lon="12.1844484"><ele>-2.333333333333333</ele><time>2026-04-26T16:45:43.86Z</time></trkpt><trkpt lat="44.7806386" lon="12.1843831"><ele>-2.0</ele><time>2026-04-26T16:45:44.86Z</time></trkpt><trkpt lat="44.780824" lon="12.1843114"><ele>-2.0</ele><time>2026-04-26T16:45:45.859Z</time></trkpt><trkpt lat="44.7810076" lon="12.1842413"><ele>-2.0</ele><time>2026-04-26T16:45:46.859Z</time></trkpt><trkpt lat="44.7811937" lon="12.1841663"><ele>-2.0</ele><time>2026-04-26T16:45:47.86Z</time></trkpt><trkpt lat="44.7813784" lon="12.1840887"><ele>-1.6666666666666665</ele><time>2026-04-26T16:45:48.859Z</time></trkpt><trkpt lat="44.7815607" lon="12.1840062"><ele>-1.3333333333333333</ele><time>2026-04-26T16:45:49.859Z</time></trkpt><trkpt lat="44.781745" lon="12.183921"><ele>-1.0</ele><time>2026-04-26T16:45:50.86Z</time></trkpt><trkpt lat="44.781929" lon="12.1838309"><ele>-1.0</ele><time>2026-04-26T16:45:51.86Z</time></trkpt><trkpt lat="44.7821139" lon="12.1837435"><ele>-1.0</ele><time>2026-04-26T16:45:52.86Z</time></trkpt><trkpt lat="44.7822979" lon="12.1836482"><ele>-1.0</ele><time>2026-04-26T16:45:53.86Z</time></trkpt><trkpt lat="44.7824803" lon="12.1835496"><ele>-1.0</ele><time>2026-04-26T16:45:54.86Z</time></trkpt><trkpt lat="44.7826604" lon="12.1834573"><ele>-1.0</ele><time>2026-04-26T16:45:55.859Z</time></trkpt><trkpt lat="44.7828428" lon="12.1833619"><ele>-1.0</ele><time>2026-04-26T16:45:56.859Z</time></trkpt><trkpt lat="44.7830234" lon="12.1832685"><ele>-1.0</ele><time>2026-04-26T16:45:57.859Z</time></trkpt><trkpt lat="44.7832035" lon="12.1831765"><ele>-1.0</ele><time>2026-04-26T16:45:58.86Z</time></trkpt><trkpt lat="44.7833829" lon="12.183086"><ele>-1.0</ele><time>2026-04-26T16:45:59.859Z</time></trkpt><trkpt lat="44.7835611" lon="12.1829996"><ele>-1.0</ele><time>2026-04-26T16:46:00.86Z</time></trkpt><trkpt lat="44.7837398" lon="12.1829162"><ele>-1.0</ele><time>2026-04-26T16:46:01.859Z</time></trkpt><trkpt lat="44.7839181" lon="12.1828348"><ele>-1.0</ele><time>2026-04-26T16:46:02.86Z</time></trkpt><trkpt lat="44.7840989" lon="12.182759"><ele>-1.0</ele><time>2026-04-26T16:46:03.859Z</time></trkpt><trkpt lat="44.7842807" lon="12.1826816"><ele>-1.0</ele><time>2026-04-26T16:46:04.86Z</time></trkpt><trkpt lat="44.7844656" lon="12.1826067"><ele>-1.0</ele><time>2026-04-26T16:46:05.86Z</time></trkpt><trkpt lat="44.7846488" lon="12.1825408"><ele>-0.6666666666666666</ele><time>2026-04-26T16:46:06.86Z</time></trkpt><trkpt lat="44.7848362" lon="12.1824796"><ele>-0.3333333333333333</ele><time>2026-04-26T16:46:07.86Z</time></trkpt><trkpt lat="44.7850281" lon="12.1824287"><ele>0.0</ele><time>2026-04-26T16:46:08.859Z</time></trkpt><trkpt lat="44.7852192" lon="12.1823757"><ele>0.3333333333333333</ele><time>2026-04-26T16:46:09.859Z</time></trkpt><trkpt lat="44.785411" lon="12.1823258"><ele>0.6666666666666666</ele><time>2026-04-26T16:46:10.859Z</time></trkpt><trkpt lat="44.7856042" lon="12.1822741"><ele>1.0</ele><time>2026-04-26T16:46:11.86Z</time></trkpt><trkpt lat="44.7857956" lon="12.1822222"><ele>1.0</ele><time>2026-04-26T16:46:12.859Z</time></trkpt><trkpt lat="44.7859842" lon="12.1821752"><ele>1.0</ele><time>2026-04-26T16:46:13.859Z</time></trkpt><trkpt lat="44.7861729" lon="12.182131"><ele>1.0</ele><time>2026-04-26T16:46:14.86Z</time></trkpt><trkpt lat="44.7863568" lon="12.1820792"><ele>1.0</ele><time>2026-04-26T16:46:15.859Z</time></trkpt><trkpt lat="44.7865378" lon="12.1820273"><ele>1.0</ele><time>2026-04-26T16:46:16.86Z</time></trkpt><trkpt lat="44.7867148" lon="12.1819764"><ele>1.0</ele><time>2026-04-26T16:46:17.86Z</time></trkpt><trkpt lat="44.7868916" lon="12.1819293"><ele>1.0</ele><time>2026-04-26T16:46:18.86Z</time></trkpt><trkpt lat="44.7870697" lon="12.1818828"><ele>1.0</ele><time>2026-04-26T16:46:19.86Z</time></trkpt><trkpt lat="44.7872481" lon="12.1818375"><ele>1.0</ele><time>2026-04-26T16:46:20.86Z</time></trkpt><trkpt lat="44.7874296" lon="12.1817881"><ele>1.0</ele><time>2026-04-26T16:46:21.86Z</time></trkpt><trkpt lat="44.7876097" lon="12.1817448"><ele>1.0</ele><time>2026-04-26T16:46:22.86Z</time></trkpt><trkpt lat="44.7877937" lon="12.1816958"><ele>1.0</ele><time>2026-04-26T16:46:23.859Z</time></trkpt><trkpt lat="44.787977" lon="12.1816473"><ele>0.6666666666666666</ele><time>2026-04-26T16:46:24.86Z</time></trkpt><trkpt lat="44.7881604" lon="12.1815945"><ele>0.3333333333333333</ele><time>2026-04-26T16:46:25.86Z</time></trkpt><trkpt lat="44.7883466" lon="12.1815426"><ele>0.0</ele><time>2026-04-26T16:46:26.86Z</time></trkpt><trkpt lat="44.7885357" lon="12.1814944"><ele>0.0</ele><time>2026-04-26T16:46:27.86Z</time></trkpt><trkpt lat="44.7887215" lon="12.1814437"><ele>0.0</ele><time>2026-04-26T16:46:28.86Z</time></trkpt><trkpt lat="44.7889096" lon="12.1813972"><ele>0.0</ele><time>2026-04-26T16:46:29.86Z</time></trkpt><trkpt lat="44.7890996" lon="12.1813422"><ele>0.0</ele><time>2026-04-26T16:46:30.859Z</time></trkpt><trkpt lat="44.7892883" lon="12.1812813"><ele>0.0</ele><time>2026-04-26T16:46:31.86Z</time></trkpt><trkpt lat="44.7894762" lon="12.181213"><ele>0.0</ele><time>2026-04-26T16:46:32.86Z</time></trkpt><trkpt lat="44.7896588" lon="12.181142"><ele>0.0</ele><time>2026-04-26T16:46:33.86Z</time></trkpt><trkpt lat="44.7898378" lon="12.1810726"><ele>0.0</ele><time>2026-04-26T16:46:34.859Z</time></trkpt><trkpt lat="44.7900107" lon="12.181002"><ele>0.0</ele><time>2026-04-26T16:46:35.86Z</time></trkpt><trkpt lat="44.7901755" lon="12.18093"><ele>0.0</ele><time>2026-04-26T16:46:36.86Z</time></trkpt><trkpt lat="44.7903373" lon="12.1808639"><ele>0.0</ele><time>2026-04-26T16:46:37.859Z</time></trkpt><trkpt lat="44.7905016" lon="12.1807967"><ele>0.0</ele><time>2026-04-26T16:46:38.86Z</time></trkpt><trkpt lat="44.790668" lon="12.1807329"><ele>0.0</ele><time>2026-04-26T16:46:39.86Z</time></trkpt><trkpt lat="44.7908404" lon="12.1806659"><ele>0.0</ele><time>2026-04-26T16:46:40.859Z</time></trkpt><trkpt lat="44.7910115" lon="12.1806025"><ele>0.0</ele><time>2026-04-26T16:46:41.859Z</time></trkpt><trkpt lat="44.7911889" lon="12.1805379"><ele>0.0</ele><time>2026-04-26T16:46:42.859Z</time></trkpt><trkpt lat="44.791371" lon="12.1804775"><ele>0.0</ele><time>2026-04-26T16:46:43.86Z</time></trkpt><trkpt lat="44.7915569" lon="12.1804209"><ele>0.0</ele><time>2026-04-26T16:46:44.859Z</time></trkpt><trkpt lat="44.7917478" lon="12.1803711"><ele>0.3333333333333333</ele><time>2026-04-26T16:46:45.859Z</time></trkpt><trkpt lat="44.7919386" lon="12.1803242"><ele>0.6666666666666666</ele><time>2026-04-26T16:46:46.859Z</time></trkpt><trkpt lat="44.7921301" lon="12.1802766"><ele>1.0</ele><time>2026-04-26T16:46:47.86Z</time></trkpt><trkpt lat="44.7923246" lon="12.1802365"><ele>1.0</ele><time>2026-04-26T16:46:48.859Z</time></trkpt><trkpt lat="44.7925177" lon="12.1802012"><ele>1.0</ele><time>2026-04-26T16:46:49.859Z</time></trkpt><trkpt lat="44.7927058" lon="12.1801619"><ele>1.0</ele><time>2026-04-26T16:46:50.859Z</time></trkpt><trkpt lat="44.7928934" lon="12.1801233"><ele>0.3333333333333333</ele><time>2026-04-26T16:46:51.859Z</time></trkpt><trkpt lat="44.7930832" lon="12.1800806"><ele>-0.3333333333333333</ele><time>2026-04-26T16:46:52.86Z</time></trkpt><trkpt lat="44.7932718" lon="12.1800469"><ele>-1.0</ele><time>2026-04-26T16:46:53.859Z</time></trkpt><trkpt lat="44.7934586" lon="12.1800136"><ele>-1.3333333333333333</ele><time>2026-04-26T16:46:54.86Z</time></trkpt><trkpt lat="44.7936429" lon="12.1799806"><ele>-1.6666666666666665</ele><time>2026-04-26T16:46:55.859Z</time></trkpt><trkpt lat="44.7938277" lon="12.1799465"><ele>-2.0</ele><time>2026-04-26T16:46:56.86Z</time></trkpt><trkpt lat="44.7940111" lon="12.1799061"><ele>-2.0</ele><time>2026-04-26T16:46:57.86Z</time></trkpt><trkpt lat="44.7941934" lon="12.1798701"><ele>-2.0</ele><time>2026-04-26T16:46:58.86Z</time></trkpt><trkpt lat="44.7943765" lon="12.1798362"><ele>-2.0</ele><time>2026-04-26T16:46:59.86Z</time></trkpt><trkpt lat="44.7945586" lon="12.1797997"><ele>-2.0</ele><time>2026-04-26T16:47:00.86Z</time></trkpt><trkpt lat="44.79474" lon="12.1797664"><ele>-2.0</ele><time>2026-04-26T16:47:01.86Z</time></trkpt><trkpt lat="44.7949201" lon="12.1797304"><ele>-2.0</ele><time>2026-04-26T16:47:02.86Z</time></trkpt><trkpt lat="44.7951026" lon="12.1796908"><ele>-2.333333333333333</ele><time>2026-04-26T16:47:03.859Z</time></trkpt><trkpt lat="44.7952842" lon="12.1796567"><ele>-2.6666666666666665</ele><time>2026-04-26T16:47:04.86Z</time></trkpt><trkpt lat="44.7954629" lon="12.1796259"><ele>-3.0</ele><time>2026-04-26T16:47:05.859Z</time></trkpt><trkpt lat="44.7956458" lon="12.1795944"><ele>-3.0</ele><time>2026-04-26T16:47:06.859Z</time></trkpt><trkpt lat="44.795823" lon="12.1795604"><ele>-3.0</ele><time>2026-04-26T16:47:07.859Z</time></trkpt><trkpt lat="44.7960039" lon="12.1795277"><ele>-3.0</ele><time>2026-04-26T16:47:08.859Z</time></trkpt><trkpt lat="44.7961836" lon="12.1794932"><ele>-3.0</ele><time>2026-04-26T16:47:09.859Z</time></trkpt><trkpt lat="44.7963624" lon="12.1794559"><ele>-3.0</ele><time>2026-04-26T16:47:10.859Z</time></trkpt><trkpt lat="44.7965438" lon="12.1794194"><ele>-3.0</ele><time>2026-04-26T16:47:11.859Z</time></trkpt><trkpt lat="44.7967228" lon="12.1793796"><ele>-2.6666666666666665</ele><time>2026-04-26T16:47:12.859Z</time></trkpt><trkpt lat="44.796904" lon="12.1793434"><ele>-2.333333333333333</ele><time>2026-04-26T16:47:13.859Z</time></trkpt><trkpt lat="44.7970837" lon="12.1793075"><ele>-2.0</ele><time>2026-04-26T16:47:14.86Z</time></trkpt><trkpt lat="44.797264" lon="12.1792689"><ele>-2.0</ele><time>2026-04-26T16:47:15.859Z</time></trkpt><trkpt lat="44.7974429" lon="12.17923"><ele>-2.0</ele><time>2026-04-26T16:47:16.86Z</time></trkpt><trkpt lat="44.7976209" lon="12.1791938"><ele>-2.0</ele><time>2026-04-26T16:47:17.859Z</time></trkpt><trkpt lat="44.7977966" lon="12.1791554"><ele>-1.3333333333333333</ele><time>2026-04-26T16:47:18.86Z</time></trkpt><trkpt lat="44.7979753" lon="12.1791239"><ele>-0.6666666666666666</ele><time>2026-04-26T16:47:19.86Z</time></trkpt><trkpt lat="44.7981429" lon="12.1790899"><ele>0.0</ele><time>2026-04-26T16:47:20.859Z</time></trkpt><trkpt lat="44.7983027" lon="12.1790593"><ele>0.0</ele><time>2026-04-26T16:47:21.859Z</time></trkpt><trkpt lat="44.7984569" lon="12.1790273"><ele>0.0</ele><time>2026-04-26T16:47:22.86Z</time></trkpt><trkpt lat="44.7986149" lon="12.1789999"><ele>0.0</ele><time>2026-04-26T16:47:23.859Z</time></trkpt><trkpt lat="44.7987707" lon="12.1789719"><ele>0.3333333333333333</ele><time>2026-04-26T16:47:24.86Z</time></trkpt><trkpt lat="44.7989309" lon="12.1789534"><ele>0.6666666666666666</ele><time>2026-04-26T16:47:25.86Z</time></trkpt><trkpt lat="44.7990894" lon="12.1789312"><ele>1.0</ele><time>2026-04-26T16:47:26.86Z</time></trkpt><trkpt lat="44.7992497" lon="12.1789093"><ele>0.6666666666666666</ele><time>2026-04-26T16:47:27.86Z</time></trkpt><trkpt lat="44.7994089" lon="12.1788954"><ele>0.3333333333333333</ele><time>2026-04-26T16:47:28.859Z</time></trkpt><trkpt lat="44.7995724" lon="12.1788889"><ele>0.0</ele><time>2026-04-26T16:47:29.86Z</time></trkpt><trkpt lat="44.7997362" lon="12.1788817"><ele>0.0</ele><time>2026-04-26T16:47:30.859Z</time></trkpt><trkpt lat="44.7998986" lon="12.1788739"><ele>0.0</ele><time>2026-04-26T16:47:31.86Z</time></trkpt><trkpt lat="44.8000622" lon="12.1788672"><ele>0.0</ele><time>2026-04-26T16:47:32.859Z</time></trkpt><trkpt lat="44.800227" lon="12.1788585"><ele>0.0</ele><time>2026-04-26T16:47:33.859Z</time></trkpt><trkpt lat="44.8003917" lon="12.1788465"><ele>0.0</ele><time>2026-04-26T16:47:34.859Z</time></trkpt><trkpt lat="44.8005573" lon="12.1788304"><ele>0.0</ele><time>2026-04-26T16:47:35.86Z</time></trkpt><trkpt lat="44.8007229" lon="12.1788047"><ele>0.0</ele><time>2026-04-26T16:47:36.859Z</time></trkpt><trkpt lat="44.8008911" lon="12.1787795"><ele>0.0</ele><time>2026-04-26T16:47:37.859Z</time></trkpt><trkpt lat="44.8010599" lon="12.1787533"><ele>0.0</ele><time>2026-04-26T16:47:38.859Z</time></trkpt><trkpt lat="44.8012258" lon="12.1787284"><ele>-0.3333333333333333</ele><time>2026-04-26T16:47:39.859Z</time></trkpt><trkpt lat="44.8013884" lon="12.178701"><ele>-0.6666666666666666</ele><time>2026-04-26T16:47:40.86Z</time></trkpt><trkpt lat="44.8015487" lon="12.1786658"><ele>-1.0</ele><time>2026-04-26T16:47:41.859Z</time></trkpt><trkpt lat="44.8017051" lon="12.1786298"><ele>-1.0</ele><time>2026-04-26T16:47:42.859Z</time></trkpt><trkpt lat="44.8018633" lon="12.1785938"><ele>-1.0</ele><time>2026-04-26T16:47:43.86Z</time></trkpt><trkpt lat="44.8020101" lon="12.1785589"><ele>-1.0</ele><time>2026-04-26T16:47:44.86Z</time></trkpt><trkpt lat="44.8021426" lon="12.1785273"><ele>-1.0</ele><time>2026-04-26T16:47:45.859Z</time></trkpt><trkpt lat="44.8022724" lon="12.178498"><ele>-1.0</ele><time>2026-04-26T16:47:46.859Z</time></trkpt><trkpt lat="44.8024105" lon="12.1784745"><ele>-1.0</ele><time>2026-04-26T16:47:47.86Z</time></trkpt><trkpt lat="44.8025499" lon="12.1784518"><ele>-1.0</ele><time>2026-04-26T16:47:48.859Z</time></trkpt><trkpt lat="44.8026896" lon="12.1784264"><ele>-1.0</ele><time>2026-04-26T16:47:49.86Z</time></trkpt><trkpt lat="44.8028283" lon="12.1784009"><ele>-0.5</ele><time>2026-04-26T16:47:50.86Z</time></trkpt><trkpt lat="44.802966" lon="12.1783738"><ele>0.0</ele><time>2026-04-26T16:47:51.859Z</time></trkpt><trkpt lat="44.8031073" lon="12.1783534"><ele>0.5</ele><time>2026-04-26T16:47:52.859Z</time></trkpt><trkpt lat="44.8032517" lon="12.1783351"><ele>1.0</ele><time>2026-04-26T16:47:53.86Z</time></trkpt><trkpt lat="44.8034041" lon="12.1783225"><ele>0.3333333333333333</ele><time>2026-04-26T16:47:54.859Z</time></trkpt><trkpt lat="44.8035606" lon="12.1783115"><ele>-0.3333333333333333</ele><time>2026-04-26T16:47:55.86Z</time></trkpt><trkpt lat="44.8037224" lon="12.178303"><ele>-1.0</ele><time>2026-04-26T16:47:56.86Z</time></trkpt><trkpt lat="44.8038864" lon="12.1782973"><ele>-1.0</ele><time>2026-04-26T16:47:57.86Z</time></trkpt><trkpt lat="44.804053" lon="12.1782921"><ele>-1.0</ele><time>2026-04-26T16:47:58.859Z</time></trkpt><trkpt lat="44.8042248" lon="12.1782779"><ele>-1.0</ele><time>2026-04-26T16:47:59.86Z</time></trkpt><trkpt lat="44.8044014" lon="12.1782769"><ele>-0.6666666666666666</ele><time>2026-04-26T16:48:00.86Z</time></trkpt><trkpt lat="44.8045836" lon="12.1782708"><ele>-0.3333333333333333</ele><time>2026-04-26T16:48:01.86Z</time></trkpt><trkpt lat="44.8047672" lon="12.1782627"><ele>0.0</ele><time>2026-04-26T16:48:02.86Z</time></trkpt><trkpt lat="44.8049502" lon="12.1782557"><ele>0.0</ele><time>2026-04-26T16:48:03.86Z</time></trkpt><trkpt lat="44.8051307" lon="12.1782522"><ele>0.0</ele><time>2026-04-26T16:48:04.859Z</time></trkpt><trkpt lat="44.8053141" lon="12.1782429"><ele>0.0</ele><time>2026-04-26T16:48:05.859Z</time></trkpt><trkpt lat="44.805493" lon="12.1782342"><ele>0.3333333333333333</ele><time>2026-04-26T16:48:06.859Z</time></trkpt><trkpt lat="44.8056774" lon="12.1782247"><ele>0.6666666666666666</ele><time>2026-04-26T16:48:07.859Z</time></trkpt><trkpt lat="44.8058558" lon="12.1782023"><ele>1.0</ele><time>2026-04-26T16:48:08.859Z</time></trkpt><trkpt lat="44.8060296" lon="12.1781807"><ele>0.0</ele><time>2026-04-26T16:48:09.859Z</time></trkpt><trkpt lat="44.8061979" lon="12.1781533"><ele>-1.0</ele><time>2026-04-26T16:48:10.859Z</time></trkpt><trkpt lat="44.8063679" lon="12.1781335"><ele>-2.0</ele><time>2026-04-26T16:48:11.86Z</time></trkpt><trkpt lat="44.8065382" lon="12.1781112"><ele>-2.0</ele><time>2026-04-26T16:48:12.859Z</time></trkpt><trkpt lat="44.8067023" lon="12.1780896"><ele>-2.0</ele><time>2026-04-26T16:48:13.859Z</time></trkpt><trkpt lat="44.806869" lon="12.1780639"><ele>-2.0</ele><time>2026-04-26T16:48:14.859Z</time></trkpt><trkpt lat="44.8070359" lon="12.1780379"><ele>-1.6666666666666665</ele><time>2026-04-26T16:48:15.859Z</time></trkpt><trkpt lat="44.8072035" lon="12.1780196"><ele>-1.3333333333333333</ele><time>2026-04-26T16:48:16.859Z</time></trkpt><trkpt lat="44.8073691" lon="12.1779943"><ele>-1.0</ele><time>2026-04-26T16:48:17.859Z</time></trkpt><trkpt lat="44.8075358" lon="12.1779752"><ele>-0.6666666666666666</ele><time>2026-04-26T16:48:18.86Z</time></trkpt><trkpt lat="44.8076999" lon="12.177948"><ele>-0.3333333333333333</ele><time>2026-04-26T16:48:19.859Z</time></trkpt><trkpt lat="44.8078674" lon="12.1779226"><ele>0.0</ele><time>2026-04-26T16:48:20.86Z</time></trkpt><trkpt lat="44.808028" lon="12.1778912"><ele>0.0</ele><time>2026-04-26T16:48:21.859Z</time></trkpt><trkpt lat="44.8081918" lon="12.1778534"><ele>0.0</ele><time>2026-04-26T16:48:22.859Z</time></trkpt><trkpt lat="44.8083528" lon="12.1778184"><ele>0.0</ele><time>2026-04-26T16:48:23.859Z</time></trkpt><trkpt lat="44.8085145" lon="12.1777849"><ele>0.3333333333333333</ele><time>2026-04-26T16:48:24.86Z</time></trkpt><trkpt lat="44.8086831" lon="12.1777595"><ele>0.6666666666666666</ele><time>2026-04-26T16:48:25.859Z</time></trkpt><trkpt lat="44.8088522" lon="12.1777532"><ele>1.0</ele><time>2026-04-26T16:48:26.859Z</time></trkpt><trkpt lat="44.8090183" lon="12.1777402"><ele>1.0</ele><time>2026-04-26T16:48:27.86Z</time></trkpt><trkpt lat="44.8091783" lon="12.1777239"><ele>1.0</ele><time>2026-04-26T16:48:28.859Z</time></trkpt><trkpt lat="44.8093361" lon="12.1777116"><ele>1.0</ele><time>2026-04-26T16:48:29.86Z</time></trkpt><trkpt lat="44.8094939" lon="12.1776993"><ele>1.0</ele><time>2026-04-26T16:48:30.859Z</time></trkpt><trkpt lat="44.8096528" lon="12.1776908"><ele>1.0</ele><time>2026-04-26T16:48:31.859Z</time></trkpt><trkpt lat="44.8098148" lon="12.1776831"><ele>1.0</ele><time>2026-04-26T16:48:32.86Z</time></trkpt><trkpt lat="44.8099733" lon="12.1776693"><ele>1.0</ele><time>2026-04-26T16:48:33.86Z</time></trkpt><trkpt lat="44.8101328" lon="12.1776689"><ele>1.0</ele><time>2026-04-26T16:48:34.86Z</time></trkpt><trkpt lat="44.810293" lon="12.1776726"><ele>1.0</ele><time>2026-04-26T16:48:35.859Z</time></trkpt><trkpt lat="44.810454" lon="12.1776759"><ele>0.0</ele><time>2026-04-26T16:48:36.859Z</time></trkpt><trkpt lat="44.8106118" lon="12.1776769"><ele>-1.0</ele><time>2026-04-26T16:48:37.86Z</time></trkpt><trkpt lat="44.8107722" lon="12.1776748"><ele>-2.0</ele><time>2026-04-26T16:48:38.86Z</time></trkpt><trkpt lat="44.8109342" lon="12.1776769"><ele>-2.0</ele><time>2026-04-26T16:48:39.859Z</time></trkpt><trkpt lat="44.8110952" lon="12.1776747"><ele>-2.0</ele><time>2026-04-26T16:48:40.86Z</time></trkpt><trkpt lat="44.8112534" lon="12.1776742"><ele>-2.0</ele><time>2026-04-26T16:48:41.859Z</time></trkpt><trkpt lat="44.8114048" lon="12.1776779"><ele>-2.0</ele><time>2026-04-26T16:48:42.859Z</time></trkpt><trkpt lat="44.8115479" lon="12.1776839"><ele>-2.0</ele><time>2026-04-26T16:48:43.859Z</time></trkpt><trkpt lat="44.8116891" lon="12.1776827"><ele>-2.0</ele><time>2026-04-26T16:48:44.859Z</time></trkpt><trkpt lat="44.811832" lon="12.1776812"><ele>-2.0</ele><time>2026-04-26T16:48:45.86Z</time></trkpt><trkpt lat="44.8119758" lon="12.1776795"><ele>-2.0</ele><time>2026-04-26T16:48:46.86Z</time></trkpt><trkpt lat="44.8121228" lon="12.177679"><ele>-2.0</ele><time>2026-04-26T16:48:47.86Z</time></trkpt><trkpt lat="44.8122713" lon="12.1776761"><ele>-2.0</ele><time>2026-04-26T16:48:48.86Z</time></trkpt><trkpt lat="44.8124262" lon="12.1776755"><ele>-2.0</ele><time>2026-04-26T16:48:49.86Z</time></trkpt><trkpt lat="44.8125844" lon="12.1776704"><ele>-2.0</ele><time>2026-04-26T16:48:50.859Z</time></trkpt><trkpt lat="44.8127461" lon="12.1776733"><ele>-2.0</ele><time>2026-04-26T16:48:51.86Z</time></trkpt><trkpt lat="44.8129078" lon="12.1776742"><ele>-2.333333333333333</ele><time>2026-04-26T16:48:52.86Z</time></trkpt><trkpt lat="44.8130733" lon="12.1776745"><ele>-2.6666666666666665</ele><time>2026-04-26T16:48:53.86Z</time></trkpt><trkpt lat="44.8132393" lon="12.1776747"><ele>-3.0</ele><time>2026-04-26T16:48:54.86Z</time></trkpt><trkpt lat="44.8134088" lon="12.1776714"><ele>-3.666666666666667</ele><time>2026-04-26T16:48:55.859Z</time></trkpt><trkpt lat="44.8135774" lon="12.1776675"><ele>-4.333333333333334</ele><time>2026-04-26T16:48:56.859Z</time></trkpt><trkpt lat="44.8137482" lon="12.1776639"><ele>-5.0</ele><time>2026-04-26T16:48:57.859Z</time></trkpt><trkpt lat="44.8139235" lon="12.177667"><ele>-5.0</ele><time>2026-04-26T16:48:58.86Z</time></trkpt><trkpt lat="44.8140998" lon="12.1776708"><ele>-5.0</ele><time>2026-04-26T16:48:59.859Z</time></trkpt><trkpt lat="44.8142736" lon="12.17767"><ele>-5.0</ele><time>2026-04-26T16:49:00.86Z</time></trkpt><trkpt lat="44.8144497" lon="12.1776706"><ele>-4.666666666666667</ele><time>2026-04-26T16:49:01.86Z</time></trkpt><trkpt lat="44.8146313" lon="12.1776772"><ele>-4.333333333333333</ele><time>2026-04-26T16:49:02.859Z</time></trkpt><trkpt lat="44.8148068" lon="12.1776806"><ele>-4.0</ele><time>2026-04-26T16:49:03.859Z</time></trkpt><trkpt lat="44.814981" lon="12.1776917"><ele>-3.333333333333333</ele><time>2026-04-26T16:49:04.859Z</time></trkpt><trkpt lat="44.8151559" lon="12.1777189"><ele>-2.6666666666666665</ele><time>2026-04-26T16:49:05.859Z</time></trkpt><trkpt lat="44.8153301" lon="12.1777405"><ele>-2.0</ele><time>2026-04-26T16:49:06.859Z</time></trkpt><trkpt lat="44.815503" lon="12.1777823"><ele>-2.0</ele><time>2026-04-26T16:49:07.859Z</time></trkpt><trkpt lat="44.8156757" lon="12.1778459"><ele>-2.0</ele><time>2026-04-26T16:49:08.86Z</time></trkpt><trkpt lat="44.8158482" lon="12.1779215"><ele>-2.0</ele><time>2026-04-26T16:49:09.86Z</time></trkpt><trkpt lat="44.8160188" lon="12.1780004"><ele>-1.6666666666666665</ele><time>2026-04-26T16:49:10.859Z</time></trkpt><trkpt lat="44.8161891" lon="12.1780953"><ele>-1.3333333333333333</ele><time>2026-04-26T16:49:11.859Z</time></trkpt><trkpt lat="44.8163589" lon="12.1781914"><ele>-1.0</ele><time>2026-04-26T16:49:12.859Z</time></trkpt><trkpt lat="44.8165306" lon="12.1782832"><ele>-1.0</ele><time>2026-04-26T16:49:13.859Z</time></trkpt><trkpt lat="44.8167057" lon="12.1783752"><ele>-1.0</ele><time>2026-04-26T16:49:14.86Z</time></trkpt><trkpt lat="44.8168775" lon="12.1784759"><ele>-1.0</ele><time>2026-04-26T16:49:15.859Z</time></trkpt><trkpt lat="44.8170506" lon="12.1785733"><ele>-1.3333333333333333</ele><time>2026-04-26T16:49:16.859Z</time></trkpt><trkpt lat="44.8172243" lon="12.1786754"><ele>-1.6666666666666665</ele><time>2026-04-26T16:49:17.859Z</time></trkpt><trkpt lat="44.8173954" lon="12.1787702"><ele>-2.0</ele><time>2026-04-26T16:49:18.859Z</time></trkpt><trkpt lat="44.8175639" lon="12.1788724"><ele>-2.0</ele><time>2026-04-26T16:49:19.86Z</time></trkpt><trkpt lat="44.81773" lon="12.1789656"><ele>-2.0</ele><time>2026-04-26T16:49:20.859Z</time></trkpt><trkpt lat="44.8178958" lon="12.1790605"><ele>-2.0</ele><time>2026-04-26T16:49:21.86Z</time></trkpt><trkpt lat="44.8180555" lon="12.1791511"><ele>-2.0</ele><time>2026-04-26T16:49:22.859Z</time></trkpt><trkpt lat="44.8182077" lon="12.1792413"><ele>-2.0</ele><time>2026-04-26T16:49:23.859Z</time></trkpt><trkpt lat="44.8183558" lon="12.1793256"><ele>-2.0</ele><time>2026-04-26T16:49:24.86Z</time></trkpt><trkpt lat="44.8185063" lon="12.1794038"><ele>-2.0</ele><time>2026-04-26T16:49:25.859Z</time></trkpt><trkpt lat="44.8186569" lon="12.1794665"><ele>-2.0</ele><time>2026-04-26T16:49:26.859Z</time></trkpt><trkpt lat="44.8188131" lon="12.1795092"><ele>-2.0</ele><time>2026-04-26T16:49:27.86Z</time></trkpt><trkpt lat="44.8189702" lon="12.1795383"><ele>-2.0</ele><time>2026-04-26T16:49:28.86Z</time></trkpt><trkpt lat="44.8191314" lon="12.1795473"><ele>-2.0</ele><time>2026-04-26T16:49:29.86Z</time></trkpt><trkpt lat="44.8192977" lon="12.1795408"><ele>-2.0</ele><time>2026-04-26T16:49:30.86Z</time></trkpt><trkpt lat="44.81947" lon="12.1795086"><ele>-1.6666666666666665</ele><time>2026-04-26T16:49:31.859Z</time></trkpt><trkpt lat="44.8196421" lon="12.1794664"><ele>-1.3333333333333333</ele><time>2026-04-26T16:49:32.86Z</time></trkpt><trkpt lat="44.8198109" lon="12.1793974"><ele>-1.0</ele><time>2026-04-26T16:49:33.859Z</time></trkpt><trkpt lat="44.8199791" lon="12.1793242"><ele>-1.0</ele><time>2026-04-26T16:49:34.859Z</time></trkpt><trkpt lat="44.8201416" lon="12.1792498"><ele>-1.0</ele><time>2026-04-26T16:49:35.86Z</time></trkpt><trkpt lat="44.8203" lon="12.1791749"><ele>-1.0</ele><time>2026-04-26T16:49:36.86Z</time></trkpt><trkpt lat="44.8204553" lon="12.1791043"><ele>-1.0</ele><time>2026-04-26T16:49:37.86Z</time></trkpt><trkpt lat="44.8206162" lon="12.1790316"><ele>-1.0</ele><time>2026-04-26T16:49:38.86Z</time></trkpt><trkpt lat="44.8207786" lon="12.1789552"><ele>-1.0</ele><time>2026-04-26T16:49:39.859Z</time></trkpt><trkpt lat="44.8209448" lon="12.1788833"><ele>-1.3333333333333333</ele><time>2026-04-26T16:49:40.86Z</time></trkpt><trkpt lat="44.821107" lon="12.1788119"><ele>-1.6666666666666665</ele><time>2026-04-26T16:49:41.86Z</time></trkpt><trkpt lat="44.8212674" lon="12.1787397"><ele>-2.0</ele><time>2026-04-26T16:49:42.859Z</time></trkpt><trkpt lat="44.8214282" lon="12.1786669"><ele>-2.0</ele><time>2026-04-26T16:49:43.859Z</time></trkpt><trkpt lat="44.8215886" lon="12.1785931"><ele>-2.0</ele><time>2026-04-26T16:49:44.86Z</time></trkpt><trkpt lat="44.8217467" lon="12.1785234"><ele>-2.0</ele><time>2026-04-26T16:49:45.86Z</time></trkpt><trkpt lat="44.8219066" lon="12.1784537"><ele>-2.333333333333333</ele><time>2026-04-26T16:49:46.859Z</time></trkpt><trkpt lat="44.8220587" lon="12.1783816"><ele>-2.6666666666666665</ele><time>2026-04-26T16:49:47.859Z</time></trkpt><trkpt lat="44.8222073" lon="12.1783148"><ele>-3.0</ele><time>2026-04-26T16:49:48.86Z</time></trkpt><trkpt lat="44.8223526" lon="12.1782421"><ele>-3.0</ele><time>2026-04-26T16:49:49.86Z</time></trkpt><trkpt lat="44.8224956" lon="12.1781774"><ele>-3.0</ele><time>2026-04-26T16:49:50.86Z</time></trkpt><trkpt lat="44.822639" lon="12.1781102"><ele>-3.0</ele><time>2026-04-26T16:49:51.859Z</time></trkpt><trkpt lat="44.8227794" lon="12.1780452"><ele>-3.0</ele><time>2026-04-26T16:49:52.859Z</time></trkpt><trkpt lat="44.8229268" lon="12.1779813"><ele>-2.6666666666666665</ele><time>2026-04-26T16:49:53.859Z</time></trkpt><trkpt lat="44.8230729" lon="12.1779122"><ele>-2.333333333333333</ele><time>2026-04-26T16:49:54.859Z</time></trkpt><trkpt lat="44.8232329" lon="12.1778445"><ele>-2.0</ele><time>2026-04-26T16:49:55.859Z</time></trkpt><trkpt lat="44.823389" lon="12.1777823"><ele>-2.333333333333333</ele><time>2026-04-26T16:49:56.86Z</time></trkpt><trkpt lat="44.8235473" lon="12.1777154"><ele>-2.6666666666666665</ele><time>2026-04-26T16:49:57.859Z</time></trkpt><trkpt lat="44.8237023" lon="12.177653"><ele>-3.0</ele><time>2026-04-26T16:49:58.859Z</time></trkpt><trkpt lat="44.823862" lon="12.1775827"><ele>-3.0</ele><time>2026-04-26T16:49:59.859Z</time></trkpt><trkpt lat="44.8240172" lon="12.1775092"><ele>-3.0</ele><time>2026-04-26T16:50:00.859Z</time></trkpt><trkpt lat="44.8241756" lon="12.1774387"><ele>-3.0</ele><time>2026-04-26T16:50:01.859Z</time></trkpt><trkpt lat="44.8243339" lon="12.1773688"><ele>-2.6666666666666665</ele><time>2026-04-26T16:50:02.86Z</time></trkpt><trkpt lat="44.8244982" lon="12.177301"><ele>-2.333333333333333</ele><time>2026-04-26T16:50:03.859Z</time></trkpt><trkpt lat="44.8246612" lon="12.1772265"><ele>-2.0</ele><time>2026-04-26T16:50:04.859Z</time></trkpt><trkpt lat="44.8248258" lon="12.17715"><ele>-2.0</ele><time>2026-04-26T16:50:05.86Z</time></trkpt><trkpt lat="44.8249922" lon="12.1770737"><ele>-2.0</ele><time>2026-04-26T16:50:06.859Z</time></trkpt><trkpt lat="44.8251575" lon="12.1770017"><ele>-2.0</ele><time>2026-04-26T16:50:07.859Z</time></trkpt><trkpt lat="44.8253214" lon="12.1769276"><ele>-2.0</ele><time>2026-04-26T16:50:08.859Z</time></trkpt><trkpt lat="44.8254861" lon="12.1768496"><ele>-2.0</ele><time>2026-04-26T16:50:09.859Z</time></trkpt><trkpt lat="44.8256522" lon="12.1767755"><ele>-2.0</ele><time>2026-04-26T16:50:10.86Z</time></trkpt><trkpt lat="44.825818" lon="12.1767005"><ele>-2.0</ele><time>2026-04-26T16:50:11.86Z</time></trkpt><trkpt lat="44.8259845" lon="12.1766283"><ele>-2.0</ele><time>2026-04-26T16:50:12.86Z</time></trkpt><trkpt lat="44.826148" lon="12.1765541"><ele>-2.0</ele><time>2026-04-26T16:50:13.86Z</time></trkpt><trkpt lat="44.8263136" lon="12.1764781"><ele>-2.333333333333333</ele><time>2026-04-26T16:50:14.86Z</time></trkpt><trkpt lat="44.8264793" lon="12.176395"><ele>-2.6666666666666665</ele><time>2026-04-26T16:50:15.859Z</time></trkpt><trkpt lat="44.8266514" lon="12.1763189"><ele>-3.0</ele><time>2026-04-26T16:50:16.86Z</time></trkpt><trkpt lat="44.8268261" lon="12.1762415"><ele>-3.0</ele><time>2026-04-26T16:50:17.859Z</time></trkpt><trkpt lat="44.8270049" lon="12.1761613"><ele>-3.0</ele><time>2026-04-26T16:50:18.86Z</time></trkpt><trkpt lat="44.8271862" lon="12.1760801"><ele>-3.0</ele><time>2026-04-26T16:50:19.859Z</time></trkpt><trkpt lat="44.8273714" lon="12.1759974"><ele>-3.0</ele><time>2026-04-26T16:50:20.859Z</time></trkpt><trkpt lat="44.8275555" lon="12.1759133"><ele>-3.0</ele><time>2026-04-26T16:50:21.859Z</time></trkpt><trkpt lat="44.827737" lon="12.1758315"><ele>-3.0</ele><time>2026-04-26T16:50:22.86Z</time></trkpt><trkpt lat="44.8279214" lon="12.1757496"><ele>-3.333333333333333</ele><time>2026-04-26T16:50:23.859Z</time></trkpt><trkpt lat="44.8281051" lon="12.1756619"><ele>-3.6666666666666665</ele><time>2026-04-26T16:50:24.86Z</time></trkpt><trkpt lat="44.8282864" lon="12.1755787"><ele>-4.0</ele><time>2026-04-26T16:50:25.859Z</time></trkpt><trkpt lat="44.8284671" lon="12.1755032"><ele>-3.0</ele><time>2026-04-26T16:50:26.859Z</time></trkpt><trkpt lat="44.8286468" lon="12.1754223"><ele>-2.0</ele><time>2026-04-26T16:50:27.859Z</time></trkpt><trkpt lat="44.8288239" lon="12.1753446"><ele>-1.0</ele><time>2026-04-26T16:50:28.859Z</time></trkpt><trkpt lat="44.8289985" lon="12.175265"><ele>-1.0</ele><time>2026-04-26T16:50:29.859Z</time></trkpt><trkpt lat="44.8291751" lon="12.1751879"><ele>-1.0</ele><time>2026-04-26T16:50:30.859Z</time></trkpt><trkpt lat="44.8293494" lon="12.1751084"><ele>-1.0</ele><time>2026-04-26T16:50:31.86Z</time></trkpt><trkpt lat="44.8295308" lon="12.1750273"><ele>-1.0</ele><time>2026-04-26T16:50:32.86Z</time></trkpt><trkpt lat="44.8297091" lon="12.1749455"><ele>-1.0</ele><time>2026-04-26T16:50:33.86Z</time></trkpt><trkpt lat="44.8298836" lon="12.1748665"><ele>-1.0</ele><time>2026-04-26T16:50:34.859Z</time></trkpt><trkpt lat="44.8300666" lon="12.1747875"><ele>-2.0</ele><time>2026-04-26T16:50:35.859Z</time></trkpt><trkpt lat="44.8302451" lon="12.1747083"><ele>-3.0</ele><time>2026-04-26T16:50:36.86Z</time></trkpt><trkpt lat="44.8304245" lon="12.1746243"><ele>-4.0</ele><time>2026-04-26T16:50:37.86Z</time></trkpt><trkpt lat="44.8306001" lon="12.1745397"><ele>-4.0</ele><time>2026-04-26T16:50:38.859Z</time></trkpt><trkpt lat="44.8307791" lon="12.1744542"><ele>-4.0</ele><time>2026-04-26T16:50:39.859Z</time></trkpt><trkpt lat="44.8309605" lon="12.1743693"><ele>-4.0</ele><time>2026-04-26T16:50:40.859Z</time></trkpt><trkpt lat="44.8311363" lon="12.1742898"><ele>-3.333333333333333</ele><time>2026-04-26T16:50:41.859Z</time></trkpt><trkpt lat="44.8313047" lon="12.1742141"><ele>-2.6666666666666665</ele><time>2026-04-26T16:50:42.86Z</time></trkpt><trkpt lat="44.8314677" lon="12.1741418"><ele>-2.0</ele><time>2026-04-26T16:50:43.859Z</time></trkpt><trkpt lat="44.8316218" lon="12.1740727"><ele>-2.333333333333333</ele><time>2026-04-26T16:50:44.859Z</time></trkpt><trkpt lat="44.8317752" lon="12.1740039"><ele>-2.6666666666666665</ele><time>2026-04-26T16:50:45.859Z</time></trkpt><trkpt lat="44.8319237" lon="12.1739302"><ele>-3.0</ele><time>2026-04-26T16:50:46.86Z</time></trkpt><trkpt lat="44.8320787" lon="12.173868"><ele>-3.0</ele><time>2026-04-26T16:50:47.86Z</time></trkpt><trkpt lat="44.8322302" lon="12.1738071"><ele>-3.0</ele><time>2026-04-26T16:50:48.859Z</time></trkpt><trkpt lat="44.8323927" lon="12.1737527"><ele>-3.0</ele><time>2026-04-26T16:50:49.86Z</time></trkpt><trkpt lat="44.8325611" lon="12.1737243"><ele>-2.6666666666666665</ele><time>2026-04-26T16:50:50.86Z</time></trkpt><trkpt lat="44.8327324" lon="12.1737242"><ele>-2.333333333333333</ele><time>2026-04-26T16:50:51.859Z</time></trkpt><trkpt lat="44.8329037" lon="12.1737442"><ele>-2.0</ele><time>2026-04-26T16:50:52.86Z</time></trkpt><trkpt lat="44.833077" lon="12.1737881"><ele>-2.0</ele><time>2026-04-26T16:50:53.859Z</time></trkpt><trkpt lat="44.8332543" lon="12.1738519"><ele>-2.0</ele><time>2026-04-26T16:50:54.859Z</time></trkpt><trkpt lat="44.8334216" lon="12.1739535"><ele>-2.0</ele><time>2026-04-26T16:50:55.86Z</time></trkpt><trkpt lat="44.83358" lon="12.1740642"><ele>-2.0</ele><time>2026-04-26T16:50:56.86Z</time></trkpt><trkpt lat="44.8337356" lon="12.1741622"><ele>-2.0</ele><time>2026-04-26T16:50:57.859Z</time></trkpt><trkpt lat="44.8338808" lon="12.1742594"><ele>-2.0</ele><time>2026-04-26T16:50:58.86Z</time></trkpt><trkpt lat="44.8340299" lon="12.1743634"><ele>-2.0</ele><time>2026-04-26T16:50:59.859Z</time></trkpt><trkpt lat="44.8341782" lon="12.1744687"><ele>-2.0</ele><time>2026-04-26T16:51:00.859Z</time></trkpt><trkpt lat="44.8343273" lon="12.1745723"><ele>-2.0</ele><time>2026-04-26T16:51:01.859Z</time></trkpt><trkpt lat="44.8344806" lon="12.1746737"><ele>-2.333333333333333</ele><time>2026-04-26T16:51:02.859Z</time></trkpt><trkpt lat="44.8346325" lon="12.1747698"><ele>-2.6666666666666665</ele><time>2026-04-26T16:51:03.859Z</time></trkpt><trkpt lat="44.8347834" lon="12.1748581"><ele>-3.0</ele><time>2026-04-26T16:51:04.86Z</time></trkpt><trkpt lat="44.8349391" lon="12.1749364"><ele>-2.6666666666666665</ele><time>2026-04-26T16:51:05.86Z</time></trkpt><trkpt lat="44.835098" lon="12.1750102"><ele>-2.333333333333333</ele><time>2026-04-26T16:51:06.86Z</time></trkpt><trkpt lat="44.8352609" lon="12.1750696"><ele>-2.0</ele><time>2026-04-26T16:51:07.86Z</time></trkpt><trkpt lat="44.8354236" lon="12.17512"><ele>-2.0</ele><time>2026-04-26T16:51:08.859Z</time></trkpt><trkpt lat="44.8355864" lon="12.1751666"><ele>-2.0</ele><time>2026-04-26T16:51:09.86Z</time></trkpt><trkpt lat="44.8357454" lon="12.1752035"><ele>-2.0</ele><time>2026-04-26T16:51:10.859Z</time></trkpt><trkpt lat="44.8358935" lon="12.1752386"><ele>-2.25</ele><time>2026-04-26T16:51:11.859Z</time></trkpt><trkpt lat="44.8360348" lon="12.1752644"><ele>-2.5</ele><time>2026-04-26T16:51:12.859Z</time></trkpt><trkpt lat="44.8361724" lon="12.1752816"><ele>-2.75</ele><time>2026-04-26T16:51:13.859Z</time></trkpt><trkpt lat="44.8363125" lon="12.175287"><ele>-3.0</ele><time>2026-04-26T16:51:14.859Z</time></trkpt><trkpt lat="44.8364541" lon="12.17529"><ele>-3.0</ele><time>2026-04-26T16:51:15.859Z</time></trkpt><trkpt lat="44.8365863" lon="12.1752931"><ele>-3.0</ele><time>2026-04-26T16:51:16.86Z</time></trkpt><trkpt lat="44.8367126" lon="12.1752879"><ele>-3.0</ele><time>2026-04-26T16:51:17.86Z</time></trkpt><trkpt lat="44.8368265" lon="12.1752869"><ele>-3.0</ele><time>2026-04-26T16:51:18.859Z</time></trkpt><trkpt lat="44.8369294" lon="12.1752891"><ele>-3.0</ele><time>2026-04-26T16:51:19.859Z</time></trkpt><trkpt lat="44.8370273" lon="12.1752927"><ele>-3.0</ele><time>2026-04-26T16:51:20.86Z</time></trkpt><trkpt lat="44.8371131" lon="12.1753219"><ele>-3.0</ele><time>2026-04-26T16:51:21.86Z</time></trkpt><trkpt lat="44.8371937" lon="12.1753755"><ele>-3.0</ele><time>2026-04-26T16:51:22.86Z</time></trkpt><trkpt lat="44.8372682" lon="12.1754514"><ele>-3.0</ele><time>2026-04-26T16:51:23.859Z</time></trkpt><trkpt lat="44.837328" lon="12.1755586"><ele>-2.75</ele><time>2026-04-26T16:51:24.86Z</time></trkpt><trkpt lat="44.8373662" lon="12.1756923"><ele>-2.5</ele><time>2026-04-26T16:51:25.86Z</time></trkpt><trkpt lat="44.8373853" lon="12.1758458"><ele>-2.25</ele><time>2026-04-26T16:51:26.859Z</time></trkpt><trkpt lat="44.837384" lon="12.1760184"><ele>-2.0</ele><time>2026-04-26T16:51:27.859Z</time></trkpt><trkpt lat="44.8373809" lon="12.1762021"><ele>-2.0</ele><time>2026-04-26T16:51:28.86Z</time></trkpt><trkpt lat="44.8373638" lon="12.1763714"><ele>-2.0</ele><time>2026-04-26T16:51:29.859Z</time></trkpt><trkpt lat="44.8373132" lon="12.1765056"><ele>-2.0</ele><time>2026-04-26T16:51:30.86Z</time></trkpt><trkpt lat="44.8372449" lon="12.1766152"><ele>-2.0</ele><time>2026-04-26T16:51:31.859Z</time></trkpt><trkpt lat="44.8371671" lon="12.1766907"><ele>-2.0</ele><time>2026-04-26T16:51:32.86Z</time></trkpt><trkpt lat="44.8370929" lon="12.1767232"><ele>-1.9999999999999998</ele><time>2026-04-26T16:51:33.86Z</time></trkpt><trkpt lat="44.8370291" lon="12.1767257"><ele>-2.0</ele><time>2026-04-26T16:51:34.859Z</time></trkpt><trkpt lat="44.8369548" lon="12.1767001"><ele>-2.0</ele><time>2026-04-26T16:51:36.859Z</time></trkpt><trkpt lat="44.8368932" lon="12.1766645"><ele>-2.0</ele><time>2026-04-26T16:51:39.86Z</time></trkpt><trkpt lat="44.836842" lon="12.1765769"><ele>-1.9999999999999998</ele><time>2026-04-26T16:51:41.859Z</time></trkpt><trkpt lat="44.8368258" lon="12.1764484"><ele>-2.0</ele><time>2026-04-26T16:51:42.86Z</time></trkpt><trkpt lat="44.8368177" lon="12.17631"><ele>-2.0</ele><time>2026-04-26T16:51:43.86Z</time></trkpt><trkpt lat="44.8368165" lon="12.1761707"><ele>-2.0</ele><time>2026-04-26T16:51:44.859Z</time></trkpt><trkpt lat="44.836815" lon="12.1760299"><ele>-2.0</ele><time>2026-04-26T16:51:45.859Z</time></trkpt><trkpt lat="44.8368211" lon="12.1758746"><ele>-2.0</ele><time>2026-04-26T16:51:46.859Z</time></trkpt><trkpt lat="44.8368246" lon="12.1756782"><ele>-2.0</ele><time>2026-04-26T16:51:47.86Z</time></trkpt><trkpt lat="44.8368272" lon="12.1754659"><ele>-2.25</ele><time>2026-04-26T16:51:48.859Z</time></trkpt><trkpt lat="44.8368289" lon="12.175255"><ele>-2.5</ele><time>2026-04-26T16:51:49.859Z</time></trkpt><trkpt lat="44.8368297" lon="12.1750502"><ele>-2.75</ele><time>2026-04-26T16:51:50.859Z</time></trkpt><trkpt lat="44.8368343" lon="12.1748508"><ele>-3.0</ele><time>2026-04-26T16:51:51.86Z</time></trkpt><trkpt lat="44.8368386" lon="12.1746422"><ele>-3.0</ele><time>2026-04-26T16:51:52.859Z</time></trkpt><trkpt lat="44.8368383" lon="12.1744376"><ele>-3.0</ele><time>2026-04-26T16:51:53.86Z</time></trkpt><trkpt lat="44.8368422" lon="12.1742301"><ele>-3.0</ele><time>2026-04-26T16:51:54.859Z</time></trkpt><trkpt lat="44.8368457" lon="12.1740217"><ele>-3.0</ele><time>2026-04-26T16:51:55.859Z</time></trkpt><trkpt lat="44.8368493" lon="12.1738153"><ele>-3.0</ele><time>2026-04-26T16:51:56.86Z</time></trkpt><trkpt lat="44.8368532" lon="12.1736015"><ele>-3.0</ele><time>2026-04-26T16:51:57.859Z</time></trkpt><trkpt lat="44.836852" lon="12.1733815"><ele>-3.0</ele><time>2026-04-26T16:51:58.86Z</time></trkpt><trkpt lat="44.8368443" lon="12.1731679"><ele>-3.0</ele><time>2026-04-26T16:51:59.859Z</time></trkpt><trkpt lat="44.8368292" lon="12.1729474"><ele>-3.0</ele><time>2026-04-26T16:52:00.859Z</time></trkpt><trkpt lat="44.8368016" lon="12.1727232"><ele>-3.0</ele><time>2026-04-26T16:52:01.859Z</time></trkpt><trkpt lat="44.8367632" lon="12.1724961"><ele>-2.6666666666666665</ele><time>2026-04-26T16:52:02.86Z</time></trkpt><trkpt lat="44.8367128" lon="12.1722641"><ele>-2.333333333333333</ele><time>2026-04-26T16:52:03.859Z</time></trkpt><trkpt lat="44.8366485" lon="12.1720334"><ele>-2.0</ele><time>2026-04-26T16:52:04.86Z</time></trkpt><trkpt lat="44.8365748" lon="12.1718011"><ele>-2.0</ele><time>2026-04-26T16:52:05.86Z</time></trkpt><trkpt lat="44.8364866" lon="12.1715774"><ele>-2.0</ele><time>2026-04-26T16:52:06.859Z</time></trkpt><trkpt lat="44.8363846" lon="12.1713608"><ele>-2.0</ele><time>2026-04-26T16:52:07.859Z</time></trkpt><trkpt lat="44.8362712" lon="12.1711535"><ele>-2.0</ele><time>2026-04-26T16:52:08.86Z</time></trkpt><trkpt lat="44.8361476" lon="12.1709558"><ele>-2.0</ele><time>2026-04-26T16:52:09.859Z</time></trkpt><trkpt lat="44.8360192" lon="12.1707619"><ele>-2.0</ele><time>2026-04-26T16:52:10.86Z</time></trkpt><trkpt lat="44.8358882" lon="12.1705711"><ele>-2.0</ele><time>2026-04-26T16:52:11.86Z</time></trkpt><trkpt lat="44.8357604" lon="12.1703895"><ele>-2.0</ele><time>2026-04-26T16:52:12.859Z</time></trkpt><trkpt lat="44.8356372" lon="12.1702113"><ele>-2.0</ele><time>2026-04-26T16:52:13.86Z</time></trkpt><trkpt lat="44.8355164" lon="12.1700358"><ele>-2.0</ele><time>2026-04-26T16:52:14.859Z</time></trkpt><trkpt lat="44.8354048" lon="12.1698723"><ele>-2.0</ele><time>2026-04-26T16:52:15.86Z</time></trkpt><trkpt lat="44.8352965" lon="12.1697109"><ele>-2.0</ele><time>2026-04-26T16:52:16.86Z</time></trkpt><trkpt lat="44.8351901" lon="12.1695506"><ele>-1.0</ele><time>2026-04-26T16:52:17.86Z</time></trkpt><trkpt lat="44.8350801" lon="12.1693814"><ele>0.0</ele><time>2026-04-26T16:52:18.859Z</time></trkpt><trkpt lat="44.8349701" lon="12.1692052"><ele>1.0</ele><time>2026-04-26T16:52:19.859Z</time></trkpt><trkpt lat="44.8348666" lon="12.1690138"><ele>1.0</ele><time>2026-04-26T16:52:20.859Z</time></trkpt><trkpt lat="44.8347696" lon="12.1688068"><ele>1.0</ele><time>2026-04-26T16:52:21.86Z</time></trkpt><trkpt lat="44.8346806" lon="12.1685863"><ele>1.0</ele><time>2026-04-26T16:52:22.859Z</time></trkpt><trkpt lat="44.8346002" lon="12.1683537"><ele>0.6666666666666666</ele><time>2026-04-26T16:52:23.859Z</time></trkpt><trkpt lat="44.8345311" lon="12.1681153"><ele>0.3333333333333333</ele><time>2026-04-26T16:52:24.859Z</time></trkpt><trkpt lat="44.8344805" lon="12.1678784"><ele>0.0</ele><time>2026-04-26T16:52:25.859Z</time></trkpt><trkpt lat="44.8344385" lon="12.1676399"><ele>0.0</ele><time>2026-04-26T16:52:26.859Z</time></trkpt><trkpt lat="44.8344123" lon="12.1674005"><ele>0.0</ele><time>2026-04-26T16:52:27.86Z</time></trkpt><trkpt lat="44.8343882" lon="12.1671627"><ele>0.0</ele><time>2026-04-26T16:52:28.859Z</time></trkpt><trkpt lat="44.8343797" lon="12.1669224"><ele>-0.3333333333333333</ele><time>2026-04-26T16:52:29.859Z</time></trkpt><trkpt lat="44.8343823" lon="12.1666692"><ele>-0.6666666666666666</ele><time>2026-04-26T16:52:30.86Z</time></trkpt><trkpt lat="44.8343904" lon="12.1664023"><ele>-1.0</ele><time>2026-04-26T16:52:31.859Z</time></trkpt><trkpt lat="44.8344022" lon="12.1661203"><ele>-1.3333333333333333</ele><time>2026-04-26T16:52:32.86Z</time></trkpt><trkpt lat="44.8344118" lon="12.1658183"><ele>-1.6666666666666665</ele><time>2026-04-26T16:52:33.859Z</time></trkpt><trkpt lat="44.8344232" lon="12.1655124"><ele>-2.0</ele><time>2026-04-26T16:52:34.86Z</time></trkpt><trkpt lat="44.8344407" lon="12.1652015"><ele>-2.333333333333333</ele><time>2026-04-26T16:52:35.86Z</time></trkpt><trkpt lat="44.8344592" lon="12.1648901"><ele>-2.6666666666666665</ele><time>2026-04-26T16:52:36.86Z</time></trkpt><trkpt lat="44.8344749" lon="12.1645811"><ele>-3.0</ele><time>2026-04-26T16:52:37.86Z</time></trkpt><trkpt lat="44.8344892" lon="12.1642741"><ele>-2.6666666666666665</ele><time>2026-04-26T16:52:38.86Z</time></trkpt><trkpt lat="44.8345069" lon="12.1639699"><ele>-2.333333333333333</ele><time>2026-04-26T16:52:39.86Z</time></trkpt><trkpt lat="44.8345226" lon="12.163668"><ele>-2.0</ele><time>2026-04-26T16:52:40.859Z</time></trkpt><trkpt lat="44.8345414" lon="12.1633621"><ele>-2.6666666666666665</ele><time>2026-04-26T16:52:41.859Z</time></trkpt><trkpt lat="44.8345602" lon="12.163058"><ele>-3.333333333333333</ele><time>2026-04-26T16:52:42.859Z</time></trkpt><trkpt lat="44.8345751" lon="12.1627626"><ele>-4.0</ele><time>2026-04-26T16:52:43.859Z</time></trkpt><trkpt lat="44.8345894" lon="12.1624699"><ele>-4.0</ele><time>2026-04-26T16:52:44.859Z</time></trkpt><trkpt lat="44.8346012" lon="12.1621799"><ele>-4.0</ele><time>2026-04-26T16:52:45.86Z</time></trkpt><trkpt lat="44.8346143" lon="12.1618944"><ele>-4.0</ele><time>2026-04-26T16:52:46.859Z</time></trkpt><trkpt lat="44.8346287" lon="12.1616045"><ele>-3.6666666666666665</ele><time>2026-04-26T16:52:47.86Z</time></trkpt><trkpt lat="44.8346437" lon="12.1613212"><ele>-3.333333333333333</ele><time>2026-04-26T16:52:48.86Z</time></trkpt><trkpt lat="44.8346533" lon="12.1610353"><ele>-3.0</ele><time>2026-04-26T16:52:49.859Z</time></trkpt><trkpt lat="44.8346651" lon="12.1607476"><ele>-3.0</ele><time>2026-04-26T16:52:50.859Z</time></trkpt><trkpt lat="44.834676" lon="12.1604545"><ele>-3.0</ele><time>2026-04-26T16:52:51.86Z</time></trkpt><trkpt lat="44.8346846" lon="12.1601611"><ele>-3.0</ele><time>2026-04-26T16:52:52.86Z</time></trkpt><trkpt lat="44.8346982" lon="12.1598637"><ele>-3.333333333333333</ele><time>2026-04-26T16:52:53.859Z</time></trkpt><trkpt lat="44.8347091" lon="12.1595663"><ele>-3.6666666666666665</ele><time>2026-04-26T16:52:54.859Z</time></trkpt><trkpt lat="44.8347221" lon="12.1592651"><ele>-4.0</ele><time>2026-04-26T16:52:55.86Z</time></trkpt><trkpt lat="44.8347333" lon="12.1589659"><ele>-4.333333333333333</ele><time>2026-04-26T16:52:56.86Z</time></trkpt><trkpt lat="44.8347467" lon="12.1586676"><ele>-4.666666666666667</ele><time>2026-04-26T16:52:57.86Z</time></trkpt><trkpt lat="44.8347608" lon="12.1583678"><ele>-5.0</ele><time>2026-04-26T16:52:58.859Z</time></trkpt><trkpt lat="44.8347779" lon="12.158065"><ele>-4.333333333333334</ele><time>2026-04-26T16:52:59.86Z</time></trkpt><trkpt lat="44.8347912" lon="12.1577626"><ele>-3.666666666666667</ele><time>2026-04-26T16:53:00.859Z</time></trkpt><trkpt lat="44.8348051" lon="12.1574584"><ele>-3.0</ele><time>2026-04-26T16:53:01.859Z</time></trkpt><trkpt lat="44.8348187" lon="12.157155"><ele>-3.0</ele><time>2026-04-26T16:53:02.859Z</time></trkpt><trkpt lat="44.8348315" lon="12.1568534"><ele>-3.0</ele><time>2026-04-26T16:53:03.86Z</time></trkpt><trkpt lat="44.8348455" lon="12.156552"><ele>-3.0</ele><time>2026-04-26T16:53:04.86Z</time></trkpt><trkpt lat="44.8348596" lon="12.1562486"><ele>-3.0</ele><time>2026-04-26T16:53:05.86Z</time></trkpt><trkpt lat="44.8348735" lon="12.1559454"><ele>-3.0</ele><time>2026-04-26T16:53:06.859Z</time></trkpt><trkpt lat="44.8348885" lon="12.1556428"><ele>-3.0</ele><time>2026-04-26T16:53:07.859Z</time></trkpt><trkpt lat="44.8349042" lon="12.1553496"><ele>-3.0</ele><time>2026-04-26T16:53:08.859Z</time></trkpt><trkpt lat="44.8349179" lon="12.1550687"><ele>-3.0</ele><time>2026-04-26T16:53:09.86Z</time></trkpt><trkpt lat="44.8349286" lon="12.1547864"><ele>-3.0</ele><time>2026-04-26T16:53:10.86Z</time></trkpt><trkpt lat="44.8349385" lon="12.1545053"><ele>-3.0</ele><time>2026-04-26T16:53:11.859Z</time></trkpt><trkpt lat="44.8349509" lon="12.1542236"><ele>-3.0</ele><time>2026-04-26T16:53:12.86Z</time></trkpt><trkpt lat="44.8349598" lon="12.1539477"><ele>-3.0</ele><time>2026-04-26T16:53:13.86Z</time></trkpt><trkpt lat="44.8349655" lon="12.1536746"><ele>-2.6666666666666665</ele><time>2026-04-26T16:53:14.859Z</time></trkpt><trkpt lat="44.8349715" lon="12.153407"><ele>-2.333333333333333</ele><time>2026-04-26T16:53:15.859Z</time></trkpt><trkpt lat="44.8349772" lon="12.1531424"><ele>-2.0</ele><time>2026-04-26T16:53:16.859Z</time></trkpt><trkpt lat="44.8349794" lon="12.1528783"><ele>-2.0</ele><time>2026-04-26T16:53:17.859Z</time></trkpt><trkpt lat="44.8349825" lon="12.1526106"><ele>-2.0</ele><time>2026-04-26T16:53:18.86Z</time></trkpt><trkpt lat="44.8349854" lon="12.1523405"><ele>-2.0</ele><time>2026-04-26T16:53:19.859Z</time></trkpt><trkpt lat="44.834988" lon="12.1520678"><ele>-2.0</ele><time>2026-04-26T16:53:20.859Z</time></trkpt><trkpt lat="44.8349868" lon="12.1517922"><ele>-2.0</ele><time>2026-04-26T16:53:21.859Z</time></trkpt><trkpt lat="44.8349851" lon="12.1515145"><ele>-2.0</ele><time>2026-04-26T16:53:22.86Z</time></trkpt><trkpt lat="44.8349868" lon="12.1512303"><ele>-2.0</ele><time>2026-04-26T16:53:23.859Z</time></trkpt><trkpt lat="44.8349937" lon="12.1509477"><ele>-2.0</ele><time>2026-04-26T16:53:24.859Z</time></trkpt><trkpt lat="44.8350004" lon="12.1506617"><ele>-2.0</ele><time>2026-04-26T16:53:25.86Z</time></trkpt><trkpt lat="44.8350134" lon="12.1503751"><ele>-2.0</ele><time>2026-04-26T16:53:26.86Z</time></trkpt><trkpt lat="44.8350261" lon="12.1500881"><ele>-2.0</ele><time>2026-04-26T16:53:27.859Z</time></trkpt><trkpt lat="44.835041" lon="12.1498026"><ele>-2.0</ele><time>2026-04-26T16:53:28.859Z</time></trkpt><trkpt lat="44.8350568" lon="12.1495089"><ele>-2.0</ele><time>2026-04-26T16:53:29.859Z</time></trkpt><trkpt lat="44.8350789" lon="12.1492271"><ele>-2.0</ele><time>2026-04-26T16:53:30.859Z</time></trkpt><trkpt lat="44.8351021" lon="12.1489554"><ele>-2.0</ele><time>2026-04-26T16:53:31.86Z</time></trkpt><trkpt lat="44.8351253" lon="12.1486781"><ele>-2.0</ele><time>2026-04-26T16:53:32.859Z</time></trkpt><trkpt lat="44.8351482" lon="12.1484039"><ele>-2.0</ele><time>2026-04-26T16:53:33.859Z</time></trkpt><trkpt lat="44.8351734" lon="12.1481256"><ele>-2.0</ele><time>2026-04-26T16:53:34.859Z</time></trkpt><trkpt lat="44.8351967" lon="12.1478521"><ele>-1.6666666666666665</ele><time>2026-04-26T16:53:35.859Z</time></trkpt><trkpt lat="44.8352185" lon="12.1475878"><ele>-1.3333333333333333</ele><time>2026-04-26T16:53:36.86Z</time></trkpt><trkpt lat="44.8352431" lon="12.1473366"><ele>-1.0</ele><time>2026-04-26T16:53:37.86Z</time></trkpt><trkpt lat="44.8352653" lon="12.1470884"><ele>-1.6666666666666665</ele><time>2026-04-26T16:53:38.859Z</time></trkpt><trkpt lat="44.835287" lon="12.146841"><ele>-2.3333333333333335</ele><time>2026-04-26T16:53:39.859Z</time></trkpt><trkpt lat="44.8353043" lon="12.1465966"><ele>-3.0</ele><time>2026-04-26T16:53:40.859Z</time></trkpt><trkpt lat="44.8353171" lon="12.1463509"><ele>-3.0</ele><time>2026-04-26T16:53:41.859Z</time></trkpt><trkpt lat="44.8353344" lon="12.1461094"><ele>-3.0</ele><time>2026-04-26T16:53:42.859Z</time></trkpt><trkpt lat="44.8353467" lon="12.1458804"><ele>-3.0</ele><time>2026-04-26T16:53:43.86Z</time></trkpt><trkpt lat="44.8353596" lon="12.145658"><ele>-3.0</ele><time>2026-04-26T16:53:44.859Z</time></trkpt><trkpt lat="44.8353691" lon="12.1454425"><ele>-3.0</ele><time>2026-04-26T16:53:45.859Z</time></trkpt><trkpt lat="44.8353782" lon="12.145232"><ele>-3.0</ele><time>2026-04-26T16:53:46.86Z</time></trkpt><trkpt lat="44.8353851" lon="12.1450295"><ele>-3.0</ele><time>2026-04-26T16:53:47.86Z</time></trkpt><trkpt lat="44.8353937" lon="12.1448394"><ele>-2.75</ele><time>2026-04-26T16:53:48.86Z</time></trkpt><trkpt lat="44.8354002" lon="12.1446611"><ele>-2.5</ele><time>2026-04-26T16:53:49.86Z</time></trkpt><trkpt lat="44.8354054" lon="12.1444956"><ele>-2.25</ele><time>2026-04-26T16:53:50.86Z</time></trkpt><trkpt lat="44.8354078" lon="12.1443366"><ele>-2.0</ele><time>2026-04-26T16:53:51.86Z</time></trkpt><trkpt lat="44.835416" lon="12.1441722"><ele>-2.0</ele><time>2026-04-26T16:53:52.86Z</time></trkpt><trkpt lat="44.8354271" lon="12.1440076"><ele>-2.0</ele><time>2026-04-26T16:53:53.86Z</time></trkpt><trkpt lat="44.8354377" lon="12.1438231"><ele>-2.0</ele><time>2026-04-26T16:53:54.859Z</time></trkpt><trkpt lat="44.8354435" lon="12.1436243"><ele>-2.0</ele><time>2026-04-26T16:53:55.859Z</time></trkpt><trkpt lat="44.8354503" lon="12.1434181"><ele>-1.75</ele><time>2026-04-26T16:53:56.86Z</time></trkpt><trkpt lat="44.8354581" lon="12.1432097"><ele>-1.5</ele><time>2026-04-26T16:53:57.86Z</time></trkpt><trkpt lat="44.8354656" lon="12.1430158"><ele>-1.25</ele><time>2026-04-26T16:53:58.86Z</time></trkpt><trkpt lat="44.8354706" lon="12.1428315"><ele>-1.0</ele><time>2026-04-26T16:53:59.86Z</time></trkpt><trkpt lat="44.8354794" lon="12.1426425"><ele>-1.0</ele><time>2026-04-26T16:54:00.86Z</time></trkpt><trkpt lat="44.8354878" lon="12.1424453"><ele>-1.0</ele><time>2026-04-26T16:54:01.86Z</time></trkpt><trkpt lat="44.8354953" lon="12.1422348"><ele>-1.0</ele><time>2026-04-26T16:54:02.859Z</time></trkpt><trkpt lat="44.8355015" lon="12.1420174"><ele>-1.0</ele><time>2026-04-26T16:54:03.859Z</time></trkpt><trkpt lat="44.8355118" lon="12.1417911"><ele>-1.0</ele><time>2026-04-26T16:54:04.86Z</time></trkpt><trkpt lat="44.835525" lon="12.1415523"><ele>-1.0</ele><time>2026-04-26T16:54:05.86Z</time></trkpt><trkpt lat="44.835541" lon="12.1413163"><ele>-1.0</ele><time>2026-04-26T16:54:06.86Z</time></trkpt><trkpt lat="44.8355571" lon="12.1410779"><ele>-1.3333333333333333</ele><time>2026-04-26T16:54:07.86Z</time></trkpt><trkpt lat="44.8355713" lon="12.140831"><ele>-1.6666666666666665</ele><time>2026-04-26T16:54:08.859Z</time></trkpt><trkpt lat="44.8355896" lon="12.14058"><ele>-2.0</ele><time>2026-04-26T16:54:09.86Z</time></trkpt><trkpt lat="44.8356126" lon="12.1403378"><ele>-2.0</ele><time>2026-04-26T16:54:10.859Z</time></trkpt><trkpt lat="44.8356289" lon="12.1400815"><ele>-2.0</ele><time>2026-04-26T16:54:11.859Z</time></trkpt><trkpt lat="44.8356425" lon="12.1398253"><ele>-2.0</ele><time>2026-04-26T16:54:12.86Z</time></trkpt><trkpt lat="44.8356556" lon="12.139567"><ele>-2.333333333333333</ele><time>2026-04-26T16:54:13.86Z</time></trkpt><trkpt lat="44.8356691" lon="12.1393163"><ele>-2.6666666666666665</ele><time>2026-04-26T16:54:14.86Z</time></trkpt><trkpt lat="44.8356827" lon="12.1390652"><ele>-3.0</ele><time>2026-04-26T16:54:15.86Z</time></trkpt><trkpt lat="44.8356978" lon="12.1388076"><ele>-3.333333333333333</ele><time>2026-04-26T16:54:16.86Z</time></trkpt><trkpt lat="44.8357112" lon="12.1385418"><ele>-3.6666666666666665</ele><time>2026-04-26T16:54:17.859Z</time></trkpt><trkpt lat="44.8357279" lon="12.1382766"><ele>-4.0</ele><time>2026-04-26T16:54:18.859Z</time></trkpt><trkpt lat="44.8357413" lon="12.1379995"><ele>-4.0</ele><time>2026-04-26T16:54:19.86Z</time></trkpt><trkpt lat="44.8357568" lon="12.1377211"><ele>-4.0</ele><time>2026-04-26T16:54:20.86Z</time></trkpt><trkpt lat="44.8357731" lon="12.1374387"><ele>-4.0</ele><time>2026-04-26T16:54:21.86Z</time></trkpt><trkpt lat="44.83579" lon="12.1371531"><ele>-4.333333333333333</ele><time>2026-04-26T16:54:22.86Z</time></trkpt><trkpt lat="44.8358037" lon="12.1368653"><ele>-4.666666666666667</ele><time>2026-04-26T16:54:23.859Z</time></trkpt><trkpt lat="44.8358211" lon="12.1365741"><ele>-5.0</ele><time>2026-04-26T16:54:24.859Z</time></trkpt><trkpt lat="44.8358358" lon="12.1362861"><ele>-5.0</ele><time>2026-04-26T16:54:25.859Z</time></trkpt><trkpt lat="44.8358486" lon="12.1359957"><ele>-5.0</ele><time>2026-04-26T16:54:26.859Z</time></trkpt><trkpt lat="44.8358611" lon="12.135706"><ele>-5.0</ele><time>2026-04-26T16:54:27.86Z</time></trkpt><trkpt lat="44.835875" lon="12.1354142"><ele>-5.0</ele><time>2026-04-26T16:54:28.86Z</time></trkpt><trkpt lat="44.8358941" lon="12.1351206"><ele>-5.0</ele><time>2026-04-26T16:54:29.859Z</time></trkpt><trkpt lat="44.8359106" lon="12.1348245"><ele>-5.0</ele><time>2026-04-26T16:54:30.86Z</time></trkpt><trkpt lat="44.8359236" lon="12.1345245"><ele>-4.666666666666667</ele><time>2026-04-26T16:54:31.859Z</time></trkpt><trkpt lat="44.8359375" lon="12.1342215"><ele>-4.333333333333333</ele><time>2026-04-26T16:54:32.859Z</time></trkpt><trkpt lat="44.8359566" lon="12.1339195"><ele>-4.0</ele><time>2026-04-26T16:54:33.86Z</time></trkpt><trkpt lat="44.8359714" lon="12.133618"><ele>-5.0</ele><time>2026-04-26T16:54:34.859Z</time></trkpt><trkpt lat="44.8359834" lon="12.1333148"><ele>-6.0</ele><time>2026-04-26T16:54:35.86Z</time></trkpt><trkpt lat="44.8359953" lon="12.1330101"><ele>-7.0</ele><time>2026-04-26T16:54:36.859Z</time></trkpt><trkpt lat="44.8360086" lon="12.1327053"><ele>-7.0</ele><time>2026-04-26T16:54:37.859Z</time></trkpt><trkpt lat="44.8360217" lon="12.1323968"><ele>-7.0</ele><time>2026-04-26T16:54:38.859Z</time></trkpt><trkpt lat="44.8360384" lon="12.1320877"><ele>-7.0</ele><time>2026-04-26T16:54:39.859Z</time></trkpt><trkpt lat="44.8360551" lon="12.1317818"><ele>-7.0</ele><time>2026-04-26T16:54:40.859Z</time></trkpt><trkpt lat="44.8360698" lon="12.1314687"><ele>-7.0</ele><time>2026-04-26T16:54:41.86Z</time></trkpt><trkpt lat="44.836088" lon="12.131159"><ele>-7.0</ele><time>2026-04-26T16:54:42.859Z</time></trkpt><trkpt lat="44.8361035" lon="12.1308525"><ele>-6.0</ele><time>2026-04-26T16:54:43.859Z</time></trkpt><trkpt lat="44.83612" lon="12.1305549"><ele>-5.0</ele><time>2026-04-26T16:54:44.859Z</time></trkpt><trkpt lat="44.8361356" lon="12.130259"><ele>-4.0</ele><time>2026-04-26T16:54:45.859Z</time></trkpt><trkpt lat="44.8361515" lon="12.1299662"><ele>-3.6666666666666665</ele><time>2026-04-26T16:54:46.859Z</time></trkpt><trkpt lat="44.8361682" lon="12.1296742"><ele>-3.333333333333333</ele><time>2026-04-26T16:54:47.86Z</time></trkpt><trkpt lat="44.8361831" lon="12.1293846"><ele>-3.0</ele><time>2026-04-26T16:54:48.86Z</time></trkpt><trkpt lat="44.8361961" lon="12.1290959"><ele>-3.333333333333333</ele><time>2026-04-26T16:54:49.86Z</time></trkpt><trkpt lat="44.8362128" lon="12.1288106"><ele>-3.6666666666666665</ele><time>2026-04-26T16:54:50.86Z</time></trkpt><trkpt lat="44.8362288" lon="12.1285196"><ele>-4.0</ele><time>2026-04-26T16:54:51.86Z</time></trkpt><trkpt lat="44.8362435" lon="12.128234"><ele>-4.0</ele><time>2026-04-26T16:54:52.859Z</time></trkpt><trkpt lat="44.836259" lon="12.1279513"><ele>-4.0</ele><time>2026-04-26T16:54:53.859Z</time></trkpt><trkpt lat="44.8362727" lon="12.1276712"><ele>-4.0</ele><time>2026-04-26T16:54:54.86Z</time></trkpt><trkpt lat="44.8362839" lon="12.1274006"><ele>-4.0</ele><time>2026-04-26T16:54:55.859Z</time></trkpt><trkpt lat="44.8362859" lon="12.1271392"><ele>-4.0</ele><time>2026-04-26T16:54:56.859Z</time></trkpt><trkpt lat="44.8362792" lon="12.1268861"><ele>-4.0</ele><time>2026-04-26T16:54:57.859Z</time></trkpt><trkpt lat="44.8362589" lon="12.1266391"><ele>-3.333333333333333</ele><time>2026-04-26T16:54:58.859Z</time></trkpt><trkpt lat="44.8362267" lon="12.1263964"><ele>-2.6666666666666665</ele><time>2026-04-26T16:54:59.859Z</time></trkpt><trkpt lat="44.8361802" lon="12.1261582"><ele>-2.0</ele><time>2026-04-26T16:55:00.859Z</time></trkpt><trkpt lat="44.8361245" lon="12.1259286"><ele>-2.0</ele><time>2026-04-26T16:55:01.86Z</time></trkpt><trkpt lat="44.8360601" lon="12.1257144"><ele>-2.0</ele><time>2026-04-26T16:55:02.859Z</time></trkpt><trkpt lat="44.8359877" lon="12.1255137"><ele>-2.0</ele><time>2026-04-26T16:55:03.859Z</time></trkpt><trkpt lat="44.8359076" lon="12.1253195"><ele>-2.0</ele><time>2026-04-26T16:55:04.86Z</time></trkpt><trkpt lat="44.8358189" lon="12.125129"><ele>-2.0</ele><time>2026-04-26T16:55:05.86Z</time></trkpt><trkpt lat="44.8357207" lon="12.1249449"><ele>-2.0</ele><time>2026-04-26T16:55:06.859Z</time></trkpt><trkpt lat="44.8356188" lon="12.1247638"><ele>-2.0</ele><time>2026-04-26T16:55:07.86Z</time></trkpt><trkpt lat="44.835505" lon="12.1245957"><ele>-2.0</ele><time>2026-04-26T16:55:08.859Z</time></trkpt><trkpt lat="44.8353824" lon="12.1244433"><ele>-2.0</ele><time>2026-04-26T16:55:09.859Z</time></trkpt><trkpt lat="44.8352545" lon="12.124293"><ele>-2.0</ele><time>2026-04-26T16:55:10.859Z</time></trkpt><trkpt lat="44.8351255" lon="12.1241446"><ele>-2.0</ele><time>2026-04-26T16:55:11.859Z</time></trkpt><trkpt lat="44.8349961" lon="12.1239934"><ele>-2.0</ele><time>2026-04-26T16:55:12.86Z</time></trkpt><trkpt lat="44.834859" lon="12.1238406"><ele>-2.333333333333333</ele><time>2026-04-26T16:55:13.859Z</time></trkpt><trkpt lat="44.8347258" lon="12.123685"><ele>-2.6666666666666665</ele><time>2026-04-26T16:55:14.86Z</time></trkpt><trkpt lat="44.8345895" lon="12.1235298"><ele>-3.0</ele><time>2026-04-26T16:55:15.859Z</time></trkpt><trkpt lat="44.8344556" lon="12.1233759"><ele>-3.0</ele><time>2026-04-26T16:55:16.859Z</time></trkpt><trkpt lat="44.8343207" lon="12.1232207"><ele>-3.0</ele><time>2026-04-26T16:55:17.859Z</time></trkpt><trkpt lat="44.834192" lon="12.1230651"><ele>-3.0</ele><time>2026-04-26T16:55:18.859Z</time></trkpt><trkpt lat="44.8340673" lon="12.1229168"><ele>-3.0</ele><time>2026-04-26T16:55:19.859Z</time></trkpt><trkpt lat="44.8339538" lon="12.1227738"><ele>-3.0</ele><time>2026-04-26T16:55:20.859Z</time></trkpt><trkpt lat="44.8338513" lon="12.1226203"><ele>-3.0</ele><time>2026-04-26T16:55:21.859Z</time></trkpt><trkpt lat="44.8337614" lon="12.1224676"><ele>-3.0</ele><time>2026-04-26T16:55:22.859Z</time></trkpt><trkpt lat="44.8336864" lon="12.1223086"><ele>-3.0</ele><time>2026-04-26T16:55:23.859Z</time></trkpt><trkpt lat="44.8336266" lon="12.1221393"><ele>-3.0</ele><time>2026-04-26T16:55:24.859Z</time></trkpt><trkpt lat="44.8335781" lon="12.1219626"><ele>-3.0</ele><time>2026-04-26T16:55:25.859Z</time></trkpt><trkpt lat="44.8335453" lon="12.12179"><ele>-3.0</ele><time>2026-04-26T16:55:26.859Z</time></trkpt><trkpt lat="44.83352" lon="12.1216225"><ele>-2.75</ele><time>2026-04-26T16:55:27.859Z</time></trkpt><trkpt lat="44.8334961" lon="12.1214457"><ele>-2.5</ele><time>2026-04-26T16:55:28.859Z</time></trkpt><trkpt lat="44.8334693" lon="12.1212658"><ele>-2.25</ele><time>2026-04-26T16:55:29.86Z</time></trkpt><trkpt lat="44.8334438" lon="12.1210844"><ele>-2.0</ele><time>2026-04-26T16:55:30.859Z</time></trkpt><trkpt lat="44.833419" lon="12.1208955"><ele>-1.75</ele><time>2026-04-26T16:55:31.859Z</time></trkpt><trkpt lat="44.8333921" lon="12.1207059"><ele>-1.5</ele><time>2026-04-26T16:55:32.859Z</time></trkpt><trkpt lat="44.8333655" lon="12.1205194"><ele>-1.25</ele><time>2026-04-26T16:55:33.86Z</time></trkpt><trkpt lat="44.8333362" lon="12.120332"><ele>-1.0</ele><time>2026-04-26T16:55:34.86Z</time></trkpt><trkpt lat="44.8333076" lon="12.1201404"><ele>-1.0</ele><time>2026-04-26T16:55:35.859Z</time></trkpt><trkpt lat="44.8332789" lon="12.1199431"><ele>-1.0</ele><time>2026-04-26T16:55:36.859Z</time></trkpt><trkpt lat="44.8332495" lon="12.1197445"><ele>-1.0</ele><time>2026-04-26T16:55:37.86Z</time></trkpt><trkpt lat="44.8332199" lon="12.1195482"><ele>-1.0</ele><time>2026-04-26T16:55:38.86Z</time></trkpt><trkpt lat="44.8331919" lon="12.1193364"><ele>-1.3333333333333333</ele><time>2026-04-26T16:55:39.86Z</time></trkpt><trkpt lat="44.8331636" lon="12.1191211"><ele>-1.6666666666666665</ele><time>2026-04-26T16:55:40.859Z</time></trkpt><trkpt lat="44.8331341" lon="12.1189103"><ele>-2.0</ele><time>2026-04-26T16:55:41.86Z</time></trkpt><trkpt lat="44.833103" lon="12.1187053"><ele>-2.0</ele><time>2026-04-26T16:55:42.859Z</time></trkpt><trkpt lat="44.8330729" lon="12.1185106"><ele>-2.0</ele><time>2026-04-26T16:55:43.859Z</time></trkpt><trkpt lat="44.8330408" lon="12.118324"><ele>-2.0</ele><time>2026-04-26T16:55:44.86Z</time></trkpt><trkpt lat="44.8330097" lon="12.1181378"><ele>-2.0</ele><time>2026-04-26T16:55:45.86Z</time></trkpt><trkpt lat="44.8329806" lon="12.1179611"><ele>-2.0</ele><time>2026-04-26T16:55:46.86Z</time></trkpt><trkpt lat="44.8329494" lon="12.1177848"><ele>-2.0</ele><time>2026-04-26T16:55:47.86Z</time></trkpt><trkpt lat="44.8329225" lon="12.1176089"><ele>-2.0</ele><time>2026-04-26T16:55:48.86Z</time></trkpt><trkpt lat="44.832898" lon="12.1174303"><ele>-2.0</ele><time>2026-04-26T16:55:49.859Z</time></trkpt><trkpt lat="44.8328725" lon="12.1172464"><ele>-2.0</ele><time>2026-04-26T16:55:50.859Z</time></trkpt><trkpt lat="44.8328497" lon="12.1170693"><ele>-2.0</ele><time>2026-04-26T16:55:51.86Z</time></trkpt><trkpt lat="44.8328248" lon="12.1168907"><ele>-2.0</ele><time>2026-04-26T16:55:52.859Z</time></trkpt><trkpt lat="44.8328039" lon="12.1167264"><ele>-2.0</ele><time>2026-04-26T16:55:53.859Z</time></trkpt><trkpt lat="44.8327796" lon="12.1165707"><ele>-2.0</ele><time>2026-04-26T16:55:54.859Z</time></trkpt><trkpt lat="44.8327556" lon="12.1164161"><ele>-2.0</ele><time>2026-04-26T16:55:55.859Z</time></trkpt><trkpt lat="44.8327269" lon="12.1162508"><ele>-2.0</ele><time>2026-04-26T16:55:56.859Z</time></trkpt><trkpt lat="44.8327023" lon="12.1160862"><ele>-2.0</ele><time>2026-04-26T16:55:57.86Z</time></trkpt><trkpt lat="44.832675" lon="12.1159087"><ele>-2.0</ele><time>2026-04-26T16:55:58.859Z</time></trkpt><trkpt lat="44.8326629" lon="12.1157196"><ele>-2.0</ele><time>2026-04-26T16:55:59.859Z</time></trkpt><trkpt lat="44.8326613" lon="12.1155305"><ele>-2.0</ele><time>2026-04-26T16:56:00.859Z</time></trkpt><trkpt lat="44.8326764" lon="12.1153312"><ele>-2.0</ele><time>2026-04-26T16:56:01.859Z</time></trkpt><trkpt lat="44.8327048" lon="12.1151289"><ele>-2.0</ele><time>2026-04-26T16:56:02.859Z</time></trkpt><trkpt lat="44.8327394" lon="12.1149269"><ele>-2.0</ele><time>2026-04-26T16:56:03.86Z</time></trkpt><trkpt lat="44.8327781" lon="12.114727"><ele>-2.0</ele><time>2026-04-26T16:56:04.859Z</time></trkpt><trkpt lat="44.8328138" lon="12.1145325"><ele>-2.0</ele><time>2026-04-26T16:56:05.86Z</time></trkpt><trkpt lat="44.8328411" lon="12.1143492"><ele>-2.0</ele><time>2026-04-26T16:56:06.859Z</time></trkpt><trkpt lat="44.8328687" lon="12.1141771"><ele>-2.0</ele><time>2026-04-26T16:56:07.859Z</time></trkpt><trkpt lat="44.8328848" lon="12.114005"><ele>-2.0</ele><time>2026-04-26T16:56:08.859Z</time></trkpt><trkpt lat="44.8328929" lon="12.1138302"><ele>-2.0</ele><time>2026-04-26T16:56:09.86Z</time></trkpt><trkpt lat="44.8328903" lon="12.1136513"><ele>-2.0</ele><time>2026-04-26T16:56:10.859Z</time></trkpt><trkpt lat="44.8328895" lon="12.1134666"><ele>-2.0</ele><time>2026-04-26T16:56:11.86Z</time></trkpt><trkpt lat="44.8328838" lon="12.113283"><ele>-2.0</ele><time>2026-04-26T16:56:12.859Z</time></trkpt><trkpt lat="44.8328786" lon="12.1131046"><ele>-2.0</ele><time>2026-04-26T16:56:13.86Z</time></trkpt><trkpt lat="44.8328682" lon="12.1129454"><ele>-1.8</ele><time>2026-04-26T16:56:14.86Z</time></trkpt><trkpt lat="44.832859" lon="12.1127977"><ele>-1.6</ele><time>2026-04-26T16:56:15.86Z</time></trkpt><trkpt lat="44.8328507" lon="12.1126612"><ele>-1.4000000000000001</ele><time>2026-04-26T16:56:16.86Z</time></trkpt><trkpt lat="44.8328432" lon="12.1125321"><ele>-1.2000000000000002</ele><time>2026-04-26T16:56:17.859Z</time></trkpt><trkpt lat="44.8328372" lon="12.1124074"><ele>-1.0</ele><time>2026-04-26T16:56:18.86Z</time></trkpt><trkpt lat="44.8328277" lon="12.1122857"><ele>-0.9999999999999999</ele><time>2026-04-26T16:56:19.86Z</time></trkpt><trkpt lat="44.8328235" lon="12.1121635"><ele>-1.0</ele><time>2026-04-26T16:56:20.859Z</time></trkpt><trkpt lat="44.8328133" lon="12.1120479"><ele>-1.0</ele><time>2026-04-26T16:56:21.86Z</time></trkpt><trkpt lat="44.8328028" lon="12.1119263"><ele>-1.0</ele><time>2026-04-26T16:56:22.86Z</time></trkpt><trkpt lat="44.8327849" lon="12.1117961"><ele>-0.9999999999999999</ele><time>2026-04-26T16:56:23.859Z</time></trkpt><trkpt lat="44.8327747" lon="12.111661"><ele>-1.0</ele><time>2026-04-26T16:56:24.86Z</time></trkpt><trkpt lat="44.8327813" lon="12.1115176"><ele>-1.2000000000000002</ele><time>2026-04-26T16:56:25.859Z</time></trkpt><trkpt lat="44.8328015" lon="12.1113693"><ele>-1.4000000000000001</ele><time>2026-04-26T16:56:26.859Z</time></trkpt><trkpt lat="44.8328281" lon="12.111213"><ele>-1.6</ele><time>2026-04-26T16:56:27.86Z</time></trkpt><trkpt lat="44.8328585" lon="12.1110609"><ele>-1.8</ele><time>2026-04-26T16:56:28.859Z</time></trkpt><trkpt lat="44.832891" lon="12.1109226"><ele>-2.0</ele><time>2026-04-26T16:56:29.859Z</time></trkpt><trkpt lat="44.8329294" lon="12.1108065"><ele>-1.9999999999999998</ele><time>2026-04-26T16:56:30.859Z</time></trkpt><trkpt lat="44.8329818" lon="12.1107178"><ele>-2.0</ele><time>2026-04-26T16:56:31.859Z</time></trkpt><trkpt lat="44.8330483" lon="12.1106579"><ele>-2.0</ele><time>2026-04-26T16:56:32.86Z</time></trkpt><trkpt lat="44.8331264" lon="12.1106246"><ele>-2.0</ele><time>2026-04-26T16:56:33.86Z</time></trkpt><trkpt lat="44.8332127" lon="12.1106175"><ele>-1.9999999999999998</ele><time>2026-04-26T16:56:34.86Z</time></trkpt><trkpt lat="44.8332989" lon="12.1106401"><ele>-2.0</ele><time>2026-04-26T16:56:35.86Z</time></trkpt><trkpt lat="44.8333863" lon="12.1106733"><ele>-2.0</ele><time>2026-04-26T16:56:36.86Z</time></trkpt><trkpt lat="44.8334784" lon="12.1107093"><ele>-2.0</ele><time>2026-04-26T16:56:37.86Z</time></trkpt><trkpt lat="44.8335768" lon="12.1107527"><ele>-2.0</ele><time>2026-04-26T16:56:38.859Z</time></trkpt><trkpt lat="44.8336851" lon="12.1107935"><ele>-2.0</ele><time>2026-04-26T16:56:39.86Z</time></trkpt><trkpt lat="44.8337855" lon="12.1108273"><ele>-2.0</ele><time>2026-04-26T16:56:40.859Z</time></trkpt><trkpt lat="44.833884" lon="12.1108663"><ele>-2.0</ele><time>2026-04-26T16:56:41.86Z</time></trkpt><trkpt lat="44.83399" lon="12.1108997"><ele>-2.0</ele><time>2026-04-26T16:56:42.859Z</time></trkpt><trkpt lat="44.8340982" lon="12.110943"><ele>-2.0</ele><time>2026-04-26T16:56:43.86Z</time></trkpt><trkpt lat="44.8342123" lon="12.1109779"><ele>-2.0</ele><time>2026-04-26T16:56:44.859Z</time></trkpt><trkpt lat="44.8343286" lon="12.1110053"><ele>-1.75</ele><time>2026-04-26T16:56:45.86Z</time></trkpt><trkpt lat="44.8344484" lon="12.1110371"><ele>-1.5</ele><time>2026-04-26T16:56:46.859Z</time></trkpt><trkpt lat="44.8345748" lon="12.111057"><ele>-1.25</ele><time>2026-04-26T16:56:47.86Z</time></trkpt><trkpt lat="44.8346996" lon="12.11107"><ele>-1.0</ele><time>2026-04-26T16:56:48.859Z</time></trkpt><trkpt lat="44.83483" lon="12.1110723"><ele>-1.0</ele><time>2026-04-26T16:56:49.86Z</time></trkpt><trkpt lat="44.8349646" lon="12.1110526"><ele>-1.0</ele><time>2026-04-26T16:56:50.86Z</time></trkpt><trkpt lat="44.8350957" lon="12.1110278"><ele>-1.0</ele><time>2026-04-26T16:56:51.859Z</time></trkpt><trkpt lat="44.8352295" lon="12.1109887"><ele>-1.0</ele><time>2026-04-26T16:56:52.86Z</time></trkpt><trkpt lat="44.835359" lon="12.1109446"><ele>-1.0</ele><time>2026-04-26T16:56:53.859Z</time></trkpt><trkpt lat="44.8354883" lon="12.1109037"><ele>-1.0</ele><time>2026-04-26T16:56:54.859Z</time></trkpt><trkpt lat="44.8355996" lon="12.1108612"><ele>-1.0</ele><time>2026-04-26T16:56:55.859Z</time></trkpt><trkpt lat="44.8357126" lon="12.110813"><ele>-1.0</ele><time>2026-04-26T16:56:56.859Z</time></trkpt><trkpt lat="44.8358242" lon="12.1107627"><ele>-1.0</ele><time>2026-04-26T16:56:57.859Z</time></trkpt><trkpt lat="44.8359364" lon="12.1107054"><ele>-1.0</ele><time>2026-04-26T16:56:58.859Z</time></trkpt><trkpt lat="44.836052" lon="12.1106475"><ele>-1.0</ele><time>2026-04-26T16:56:59.859Z</time></trkpt><trkpt lat="44.8361691" lon="12.1105968"><ele>-1.0</ele><time>2026-04-26T16:57:00.86Z</time></trkpt><trkpt lat="44.8362785" lon="12.1105458"><ele>-1.0</ele><time>2026-04-26T16:57:01.86Z</time></trkpt><trkpt lat="44.8363785" lon="12.1105093"><ele>-1.0</ele><time>2026-04-26T16:57:02.859Z</time></trkpt><trkpt lat="44.8364794" lon="12.1104797"><ele>-1.0</ele><time>2026-04-26T16:57:03.859Z</time></trkpt><trkpt lat="44.8365824" lon="12.1104692"><ele>-1.0</ele><time>2026-04-26T16:57:04.859Z</time></trkpt><trkpt lat="44.8366888" lon="12.1104576"><ele>-1.0</ele><time>2026-04-26T16:57:05.859Z</time></trkpt><trkpt lat="44.836795" lon="12.1104516"><ele>-0.8</ele><time>2026-04-26T16:57:06.859Z</time></trkpt><trkpt lat="44.8368978" lon="12.1104505"><ele>-0.6000000000000001</ele><time>2026-04-26T16:57:07.86Z</time></trkpt><trkpt lat="44.8370014" lon="12.1104459"><ele>-0.4</ele><time>2026-04-26T16:57:08.86Z</time></trkpt><trkpt lat="44.8370975" lon="12.1104399"><ele>-0.2</ele><time>2026-04-26T16:57:09.86Z</time></trkpt><trkpt lat="44.837195" lon="12.1104233"><ele>0.0</ele><time>2026-04-26T16:57:10.86Z</time></trkpt><trkpt lat="44.837301" lon="12.1104137"><ele>0.0</ele><time>2026-04-26T16:57:11.86Z</time></trkpt><trkpt lat="44.8374113" lon="12.1104217"><ele>0.0</ele><time>2026-04-26T16:57:12.86Z</time></trkpt><trkpt lat="44.8375292" lon="12.1104264"><ele>0.0</ele><time>2026-04-26T16:57:13.859Z</time></trkpt><trkpt lat="44.8376477" lon="12.1104492"><ele>0.0</ele><time>2026-04-26T16:57:14.86Z</time></trkpt><trkpt lat="44.8377687" lon="12.1104718"><ele>-0.2</ele><time>2026-04-26T16:57:15.859Z</time></trkpt><trkpt lat="44.8378826" lon="12.1104939"><ele>-0.4</ele><time>2026-04-26T16:57:16.86Z</time></trkpt><trkpt lat="44.8379951" lon="12.1105122"><ele>-0.6000000000000001</ele><time>2026-04-26T16:57:17.859Z</time></trkpt><trkpt lat="44.8381018" lon="12.1105264"><ele>-0.8</ele><time>2026-04-26T16:57:18.86Z</time></trkpt><trkpt lat="44.838206" lon="12.1105429"><ele>-1.0</ele><time>2026-04-26T16:57:19.86Z</time></trkpt><trkpt lat="44.8383108" lon="12.1105553"><ele>-1.0</ele><time>2026-04-26T16:57:20.859Z</time></trkpt><trkpt lat="44.8384096" lon="12.1105634"><ele>-1.0</ele><time>2026-04-26T16:57:21.86Z</time></trkpt><trkpt lat="44.8385135" lon="12.1105622"><ele>-1.0</ele><time>2026-04-26T16:57:22.86Z</time></trkpt><trkpt lat="44.8386284" lon="12.1105426"><ele>-1.0</ele><time>2026-04-26T16:57:23.859Z</time></trkpt><trkpt lat="44.8387438" lon="12.110511"><ele>-1.0</ele><time>2026-04-26T16:57:24.86Z</time></trkpt><trkpt lat="44.8388669" lon="12.1104714"><ele>-1.5</ele><time>2026-04-26T16:57:25.859Z</time></trkpt><trkpt lat="44.8389946" lon="12.1104396"><ele>-2.0</ele><time>2026-04-26T16:57:26.86Z</time></trkpt><trkpt lat="44.8391233" lon="12.1104062"><ele>-2.5</ele><time>2026-04-26T16:57:27.859Z</time></trkpt><trkpt lat="44.8392524" lon="12.1103731"><ele>-3.0</ele><time>2026-04-26T16:57:28.859Z</time></trkpt><trkpt lat="44.8393803" lon="12.1103436"><ele>-3.0</ele><time>2026-04-26T16:57:29.86Z</time></trkpt><trkpt lat="44.8394958" lon="12.1103089"><ele>-3.0</ele><time>2026-04-26T16:57:30.859Z</time></trkpt><trkpt lat="44.839603" lon="12.1102767"><ele>-3.0</ele><time>2026-04-26T16:57:31.859Z</time></trkpt><trkpt lat="44.8397032" lon="12.110248"><ele>-3.0</ele><time>2026-04-26T16:57:32.859Z</time></trkpt><trkpt lat="44.8398" lon="12.110219"><ele>-3.0</ele><time>2026-04-26T16:57:33.86Z</time></trkpt><trkpt lat="44.83989" lon="12.1101682"><ele>-3.0</ele><time>2026-04-26T16:57:34.859Z</time></trkpt><trkpt lat="44.8399746" lon="12.1100902"><ele>-3.0</ele><time>2026-04-26T16:57:35.86Z</time></trkpt><trkpt lat="44.8400453" lon="12.1099893"><ele>-3.0</ele><time>2026-04-26T16:57:36.859Z</time></trkpt><trkpt lat="44.8400975" lon="12.1098674"><ele>-3.0</ele><time>2026-04-26T16:57:37.859Z</time></trkpt><trkpt lat="44.8401321" lon="12.1097263"><ele>-3.0</ele><time>2026-04-26T16:57:38.86Z</time></trkpt><trkpt lat="44.8401529" lon="12.1095752"><ele>-2.75</ele><time>2026-04-26T16:57:39.86Z</time></trkpt><trkpt lat="44.8401653" lon="12.1094165"><ele>-2.5</ele><time>2026-04-26T16:57:40.859Z</time></trkpt><trkpt lat="44.8401734" lon="12.1092495"><ele>-2.25</ele><time>2026-04-26T16:57:41.859Z</time></trkpt><trkpt lat="44.8401845" lon="12.1090793"><ele>-2.0</ele><time>2026-04-26T16:57:42.859Z</time></trkpt><trkpt lat="44.8401948" lon="12.1089153"><ele>-1.6</ele><time>2026-04-26T16:57:43.859Z</time></trkpt><trkpt lat="44.8402099" lon="12.1087556"><ele>-1.2000000000000002</ele><time>2026-04-26T16:57:44.86Z</time></trkpt><trkpt lat="44.8402162" lon="12.1086071"><ele>-0.8</ele><time>2026-04-26T16:57:45.86Z</time></trkpt><trkpt lat="44.8402191" lon="12.1084676"><ele>-0.4</ele><time>2026-04-26T16:57:46.859Z</time></trkpt><trkpt lat="44.8402265" lon="12.1083427"><ele>0.0</ele><time>2026-04-26T16:57:47.86Z</time></trkpt><trkpt lat="44.8402395" lon="12.1082309"><ele>0.0</ele><time>2026-04-26T16:57:48.859Z</time></trkpt><trkpt lat="44.8402659" lon="12.108127"><ele>0.0</ele><time>2026-04-26T16:57:49.859Z</time></trkpt><trkpt lat="44.8402958" lon="12.1080404"><ele>0.0</ele><time>2026-04-26T16:57:50.859Z</time></trkpt><trkpt lat="44.8403228" lon="12.107959"><ele>0.0</ele><time>2026-04-26T16:57:51.859Z</time></trkpt><trkpt lat="44.8403656" lon="12.1078304"><ele>0.0</ele><time>2026-04-26T16:57:53.86Z</time></trkpt><trkpt lat="44.8403979" lon="12.1077461"><ele>0.0</ele><time>2026-04-26T16:57:55.86Z</time></trkpt><trkpt lat="44.8404631" lon="12.1076421"><ele>0.0</ele><time>2026-04-26T16:57:58.86Z</time></trkpt><trkpt lat="44.8406066" lon="12.1076144"><ele>0.0</ele><time>2026-04-26T16:58:00.859Z</time></trkpt><trkpt lat="44.8407158" lon="12.1076175"><ele>0.0</ele><time>2026-04-26T16:58:01.86Z</time></trkpt><trkpt lat="44.8408394" lon="12.1076093"><ele>0.0</ele><time>2026-04-26T16:58:02.86Z</time></trkpt><trkpt lat="44.8409717" lon="12.1076138"><ele>0.0</ele><time>2026-04-26T16:58:03.86Z</time></trkpt><trkpt lat="44.8411059" lon="12.1076251"><ele>0.0</ele><time>2026-04-26T16:58:04.859Z</time></trkpt><trkpt lat="44.8412288" lon="12.1076372"><ele>0.0</ele><time>2026-04-26T16:58:05.86Z</time></trkpt><trkpt lat="44.8413393" lon="12.1076477"><ele>0.0</ele><time>2026-04-26T16:58:06.859Z</time></trkpt><trkpt lat="44.8414437" lon="12.1076638"><ele>0.0</ele><time>2026-04-26T16:58:07.86Z</time></trkpt><trkpt lat="44.8415461" lon="12.1076777"><ele>0.0</ele><time>2026-04-26T16:58:08.859Z</time></trkpt><trkpt lat="44.841656" lon="12.1076942"><ele>0.0</ele><time>2026-04-26T16:58:09.859Z</time></trkpt><trkpt lat="44.8417696" lon="12.1077107"><ele>0.0</ele><time>2026-04-26T16:58:10.859Z</time></trkpt><trkpt lat="44.8418922" lon="12.107729"><ele>0.25</ele><time>2026-04-26T16:58:11.859Z</time></trkpt><trkpt lat="44.8420207" lon="12.107751"><ele>0.5</ele><time>2026-04-26T16:58:12.86Z</time></trkpt><trkpt lat="44.8421547" lon="12.1077831"><ele>0.75</ele><time>2026-04-26T16:58:13.86Z</time></trkpt><trkpt lat="44.8422938" lon="12.1078182"><ele>1.0</ele><time>2026-04-26T16:58:14.86Z</time></trkpt><trkpt lat="44.8424311" lon="12.1078491"><ele>1.0</ele><time>2026-04-26T16:58:15.86Z</time></trkpt><trkpt lat="44.8425671" lon="12.107881"><ele>1.0</ele><time>2026-04-26T16:58:16.86Z</time></trkpt><trkpt lat="44.8426981" lon="12.1079145"><ele>1.0</ele><time>2026-04-26T16:58:17.859Z</time></trkpt><trkpt lat="44.8428252" lon="12.1079494"><ele>1.0</ele><time>2026-04-26T16:58:18.859Z</time></trkpt><trkpt lat="44.8429432" lon="12.107986"><ele>0.8</ele><time>2026-04-26T16:58:19.86Z</time></trkpt><trkpt lat="44.8430519" lon="12.1080234"><ele>0.6000000000000001</ele><time>2026-04-26T16:58:20.859Z</time></trkpt><trkpt lat="44.8431474" lon="12.1080548"><ele>0.4</ele><time>2026-04-26T16:58:21.859Z</time></trkpt><trkpt lat="44.8432267" lon="12.1080838"><ele>0.2</ele><time>2026-04-26T16:58:22.86Z</time></trkpt><trkpt lat="44.8432895" lon="12.1081151"><ele>0.0</ele><time>2026-04-26T16:58:23.859Z</time></trkpt><trkpt lat="44.8433974" lon="12.1081646"><ele>0.0</ele><time>2026-04-26T16:58:25.859Z</time></trkpt><trkpt lat="44.8434693" lon="12.1081863"><ele>0.0</ele><time>2026-04-26T16:58:26.859Z</time></trkpt><trkpt lat="44.8435573" lon="12.1082321"><ele>0.0</ele><time>2026-04-26T16:58:27.86Z</time></trkpt><trkpt lat="44.8436679" lon="12.1082878"><ele>0.0</ele><time>2026-04-26T16:58:28.86Z</time></trkpt><trkpt lat="44.8438005" lon="12.108346"><ele>0.0</ele><time>2026-04-26T16:58:29.86Z</time></trkpt><trkpt lat="44.8439555" lon="12.108418"><ele>-0.3333333333333333</ele><time>2026-04-26T16:58:30.859Z</time></trkpt><trkpt lat="44.8441135" lon="12.1084876"><ele>-0.6666666666666666</ele><time>2026-04-26T16:58:31.859Z</time></trkpt><trkpt lat="44.8442739" lon="12.1085554"><ele>-1.0</ele><time>2026-04-26T16:58:32.86Z</time></trkpt><trkpt lat="44.8444361" lon="12.1086189"><ele>-1.0</ele><time>2026-04-26T16:58:33.859Z</time></trkpt><trkpt lat="44.8446001" lon="12.1086841"><ele>-1.0</ele><time>2026-04-26T16:58:34.859Z</time></trkpt><trkpt lat="44.8447689" lon="12.1087524"><ele>-1.0</ele><time>2026-04-26T16:58:35.859Z</time></trkpt><trkpt lat="44.8449496" lon="12.1088242"><ele>-1.0</ele><time>2026-04-26T16:58:36.86Z</time></trkpt><trkpt lat="44.8451293" lon="12.1088796"><ele>-1.0</ele><time>2026-04-26T16:58:37.859Z</time></trkpt><trkpt lat="44.8452994" lon="12.1089328"><ele>-1.0</ele><time>2026-04-26T16:58:38.86Z</time></trkpt><trkpt lat="44.8454764" lon="12.1089772"><ele>-1.0</ele><time>2026-04-26T16:58:39.859Z</time></trkpt><trkpt lat="44.8456455" lon="12.1090092"><ele>-1.0</ele><time>2026-04-26T16:58:40.859Z</time></trkpt><trkpt lat="44.8458051" lon="12.1090168"><ele>-1.0</ele><time>2026-04-26T16:58:41.859Z</time></trkpt><trkpt lat="44.8459487" lon="12.1090185"><ele>-0.5</ele><time>2026-04-26T16:58:42.86Z</time></trkpt><trkpt lat="44.8460819" lon="12.1090112"><ele>0.0</ele><time>2026-04-26T16:58:43.86Z</time></trkpt><trkpt lat="44.8462158" lon="12.1090008"><ele>0.5</ele><time>2026-04-26T16:58:44.86Z</time></trkpt><trkpt lat="44.8463464" lon="12.1089763"><ele>1.0</ele><time>2026-04-26T16:58:45.86Z</time></trkpt><trkpt lat="44.8464644" lon="12.1089479"><ele>1.0</ele><time>2026-04-26T16:58:46.859Z</time></trkpt><trkpt lat="44.8465921" lon="12.1089133"><ele>1.0</ele><time>2026-04-26T16:58:47.859Z</time></trkpt><trkpt lat="44.8467236" lon="12.1088689"><ele>1.0</ele><time>2026-04-26T16:58:48.86Z</time></trkpt><trkpt lat="44.8468676" lon="12.108805"><ele>1.0</ele><time>2026-04-26T16:58:49.859Z</time></trkpt><trkpt lat="44.8470176" lon="12.1087224"><ele>0.6666666666666666</ele><time>2026-04-26T16:58:50.859Z</time></trkpt><trkpt lat="44.8471731" lon="12.1086247"><ele>0.3333333333333333</ele><time>2026-04-26T16:58:51.859Z</time></trkpt><trkpt lat="44.8473266" lon="12.1085099"><ele>0.0</ele><time>2026-04-26T16:58:52.859Z</time></trkpt><trkpt lat="44.8474787" lon="12.1083772"><ele>0.0</ele><time>2026-04-26T16:58:53.86Z</time></trkpt><trkpt lat="44.8476336" lon="12.1082338"><ele>0.0</ele><time>2026-04-26T16:58:54.86Z</time></trkpt><trkpt lat="44.8477854" lon="12.1080751"><ele>0.0</ele><time>2026-04-26T16:58:55.859Z</time></trkpt><trkpt lat="44.8479269" lon="12.1079075"><ele>0.0</ele><time>2026-04-26T16:58:56.859Z</time></trkpt><trkpt lat="44.8480582" lon="12.1077393"><ele>0.0</ele><time>2026-04-26T16:58:57.86Z</time></trkpt><trkpt lat="44.8481783" lon="12.1075862"><ele>0.0</ele><time>2026-04-26T16:58:58.86Z</time></trkpt><trkpt lat="44.848285" lon="12.107437"><ele>-0.3333333333333333</ele><time>2026-04-26T16:58:59.859Z</time></trkpt><trkpt lat="44.8483666" lon="12.1072837"><ele>-0.6666666666666666</ele><time>2026-04-26T16:59:00.859Z</time></trkpt><trkpt lat="44.8484265" lon="12.1070906"><ele>-1.0</ele><time>2026-04-26T16:59:01.859Z</time></trkpt><trkpt lat="44.8484614" lon="12.1068515"><ele>-1.6666666666666665</ele><time>2026-04-26T16:59:02.859Z</time></trkpt><trkpt lat="44.8484749" lon="12.1065643"><ele>-2.3333333333333335</ele><time>2026-04-26T16:59:03.859Z</time></trkpt><trkpt lat="44.848484" lon="12.1062543"><ele>-3.0</ele><time>2026-04-26T16:59:04.86Z</time></trkpt><trkpt lat="44.8484856" lon="12.1059562"><ele>-2.6666666666666665</ele><time>2026-04-26T16:59:05.86Z</time></trkpt><trkpt lat="44.8484833" lon="12.1056707"><ele>-2.333333333333333</ele><time>2026-04-26T16:59:06.859Z</time></trkpt><trkpt lat="44.8484467" lon="12.105399"><ele>-2.0</ele><time>2026-04-26T16:59:07.859Z</time></trkpt><trkpt lat="44.8483928" lon="12.1051289"><ele>-2.333333333333333</ele><time>2026-04-26T16:59:08.86Z</time></trkpt><trkpt lat="44.8483373" lon="12.1048755"><ele>-2.6666666666666665</ele><time>2026-04-26T16:59:09.859Z</time></trkpt><trkpt lat="44.8482741" lon="12.1046167"><ele>-3.0</ele><time>2026-04-26T16:59:10.86Z</time></trkpt><trkpt lat="44.8482059" lon="12.1043631"><ele>-3.0</ele><time>2026-04-26T16:59:11.86Z</time></trkpt><trkpt lat="44.8481231" lon="12.1041"><ele>-3.0</ele><time>2026-04-26T16:59:12.86Z</time></trkpt><trkpt lat="44.8480276" lon="12.1038482"><ele>-3.0</ele><time>2026-04-26T16:59:13.86Z</time></trkpt><trkpt lat="44.8479255" lon="12.1035969"><ele>-2.6666666666666665</ele><time>2026-04-26T16:59:14.859Z</time></trkpt><trkpt lat="44.8478292" lon="12.1033391"><ele>-2.333333333333333</ele><time>2026-04-26T16:59:15.859Z</time></trkpt><trkpt lat="44.8477349" lon="12.1030744"><ele>-2.0</ele><time>2026-04-26T16:59:16.859Z</time></trkpt><trkpt lat="44.8476418" lon="12.1028007"><ele>-2.0</ele><time>2026-04-26T16:59:17.86Z</time></trkpt><trkpt lat="44.8475572" lon="12.1025344"><ele>-2.0</ele><time>2026-04-26T16:59:18.86Z</time></trkpt><trkpt lat="44.847471" lon="12.1022651"><ele>-2.0</ele><time>2026-04-26T16:59:19.86Z</time></trkpt><trkpt lat="44.8473971" lon="12.1020145"><ele>-2.0</ele><time>2026-04-26T16:59:20.86Z</time></trkpt><trkpt lat="44.8473293" lon="12.1017662"><ele>-2.0</ele><time>2026-04-26T16:59:21.859Z</time></trkpt><trkpt lat="44.8472845" lon="12.1015089"><ele>-2.0</ele><time>2026-04-26T16:59:22.859Z</time></trkpt><trkpt lat="44.8472583" lon="12.101256"><ele>-2.0</ele><time>2026-04-26T16:59:23.859Z</time></trkpt><trkpt lat="44.8472495" lon="12.1010127"><ele>-2.0</ele><time>2026-04-26T16:59:24.86Z</time></trkpt><trkpt lat="44.8472661" lon="12.1007684"><ele>-2.0</ele><time>2026-04-26T16:59:25.859Z</time></trkpt><trkpt lat="44.8473081" lon="12.1005224"><ele>-2.0</ele><time>2026-04-26T16:59:26.86Z</time></trkpt><trkpt lat="44.847373" lon="12.1002735"><ele>-2.0</ele><time>2026-04-26T16:59:27.86Z</time></trkpt><trkpt lat="44.8474624" lon="12.1000312"><ele>-2.0</ele><time>2026-04-26T16:59:28.86Z</time></trkpt><trkpt lat="44.8475626" lon="12.0997941"><ele>-1.6666666666666665</ele><time>2026-04-26T16:59:29.86Z</time></trkpt><trkpt lat="44.847677" lon="12.0995571"><ele>-1.3333333333333333</ele><time>2026-04-26T16:59:30.859Z</time></trkpt><trkpt lat="44.8478096" lon="12.0993233"><ele>-1.0</ele><time>2026-04-26T16:59:31.859Z</time></trkpt><trkpt lat="44.847961" lon="12.0990953"><ele>-1.0</ele><time>2026-04-26T16:59:32.859Z</time></trkpt><trkpt lat="44.848117" lon="12.0988704"><ele>-1.0</ele><time>2026-04-26T16:59:33.859Z</time></trkpt><trkpt lat="44.8482811" lon="12.098642"><ele>-1.0</ele><time>2026-04-26T16:59:34.859Z</time></trkpt><trkpt lat="44.8484565" lon="12.0984209"><ele>-1.0</ele><time>2026-04-26T16:59:35.86Z</time></trkpt><trkpt lat="44.8486457" lon="12.0982107"><ele>-1.0</ele><time>2026-04-26T16:59:36.86Z</time></trkpt><trkpt lat="44.8488381" lon="12.0980132"><ele>-1.0</ele><time>2026-04-26T16:59:37.859Z</time></trkpt><trkpt lat="44.849034" lon="12.0978391"><ele>-1.0</ele><time>2026-04-26T16:59:38.859Z</time></trkpt><trkpt lat="44.849229" lon="12.0976824"><ele>-1.0</ele><time>2026-04-26T16:59:39.86Z</time></trkpt><trkpt lat="44.8494159" lon="12.0975398"><ele>-1.0</ele><time>2026-04-26T16:59:40.859Z</time></trkpt><trkpt lat="44.8495942" lon="12.097405"><ele>-0.6666666666666666</ele><time>2026-04-26T16:59:41.86Z</time></trkpt><trkpt lat="44.8497667" lon="12.0972705"><ele>-0.3333333333333333</ele><time>2026-04-26T16:59:42.86Z</time></trkpt><trkpt lat="44.8499387" lon="12.0971364"><ele>0.0</ele><time>2026-04-26T16:59:43.86Z</time></trkpt><trkpt lat="44.8501113" lon="12.0969974"><ele>0.0</ele><time>2026-04-26T16:59:44.859Z</time></trkpt><trkpt lat="44.8502856" lon="12.0968677"><ele>0.0</ele><time>2026-04-26T16:59:45.859Z</time></trkpt><trkpt lat="44.8504618" lon="12.0967332"><ele>0.0</ele><time>2026-04-26T16:59:46.86Z</time></trkpt><trkpt lat="44.8506363" lon="12.096599"><ele>0.0</ele><time>2026-04-26T16:59:47.86Z</time></trkpt><trkpt lat="44.8508095" lon="12.0964556"><ele>0.0</ele><time>2026-04-26T16:59:48.86Z</time></trkpt><trkpt lat="44.8509799" lon="12.0962972"><ele>0.0</ele><time>2026-04-26T16:59:49.86Z</time></trkpt><trkpt lat="44.8511401" lon="12.0961154"><ele>-0.3333333333333333</ele><time>2026-04-26T16:59:50.859Z</time></trkpt><trkpt lat="44.8512909" lon="12.0959195"><ele>-0.6666666666666666</ele><time>2026-04-26T16:59:51.859Z</time></trkpt><trkpt lat="44.8514361" lon="12.0957162"><ele>-1.0</ele><time>2026-04-26T16:59:52.86Z</time></trkpt><trkpt lat="44.8515757" lon="12.0955124"><ele>-1.0</ele><time>2026-04-26T16:59:53.859Z</time></trkpt><trkpt lat="44.8517154" lon="12.0953107"><ele>-1.0</ele><time>2026-04-26T16:59:54.859Z</time></trkpt><trkpt lat="44.8518572" lon="12.0951096"><ele>-1.0</ele><time>2026-04-26T16:59:55.859Z</time></trkpt><trkpt lat="44.8519981" lon="12.0949042"><ele>-1.0</ele><time>2026-04-26T16:59:56.859Z</time></trkpt><trkpt lat="44.8521397" lon="12.0946952"><ele>-1.0</ele><time>2026-04-26T16:59:57.86Z</time></trkpt><trkpt lat="44.8522788" lon="12.0944862"><ele>-1.0</ele><time>2026-04-26T16:59:58.859Z</time></trkpt><trkpt lat="44.852419" lon="12.0942835"><ele>-1.0</ele><time>2026-04-26T16:59:59.859Z</time></trkpt><trkpt lat="44.8525553" lon="12.094086"><ele>-1.0</ele><time>2026-04-26T17:00:00.859Z</time></trkpt><trkpt lat="44.8526878" lon="12.0938938"><ele>-1.0</ele><time>2026-04-26T17:00:01.859Z</time></trkpt><trkpt lat="44.8528163" lon="12.0936999"><ele>-1.3333333333333333</ele><time>2026-04-26T17:00:02.86Z</time></trkpt><trkpt lat="44.8529429" lon="12.0935126"><ele>-1.6666666666666665</ele><time>2026-04-26T17:00:03.86Z</time></trkpt><trkpt lat="44.853074" lon="12.0933176"><ele>-2.0</ele><time>2026-04-26T17:00:04.86Z</time></trkpt><trkpt lat="44.8532059" lon="12.0931205"><ele>-2.0</ele><time>2026-04-26T17:00:05.86Z</time></trkpt><trkpt lat="44.8533357" lon="12.0929118"><ele>-2.0</ele><time>2026-04-26T17:00:06.86Z</time></trkpt><trkpt lat="44.8534575" lon="12.0926935"><ele>-2.0</ele><time>2026-04-26T17:00:07.859Z</time></trkpt><trkpt lat="44.8535769" lon="12.0924623"><ele>-2.333333333333333</ele><time>2026-04-26T17:00:08.859Z</time></trkpt><trkpt lat="44.8536902" lon="12.092221"><ele>-2.6666666666666665</ele><time>2026-04-26T17:00:09.86Z</time></trkpt><trkpt lat="44.8537957" lon="12.0919702"><ele>-3.0</ele><time>2026-04-26T17:00:10.859Z</time></trkpt><trkpt lat="44.8539031" lon="12.0917077"><ele>-2.3333333333333335</ele><time>2026-04-26T17:00:11.859Z</time></trkpt><trkpt lat="44.8540062" lon="12.09144"><ele>-1.6666666666666665</ele><time>2026-04-26T17:00:12.86Z</time></trkpt><trkpt lat="44.8541097" lon="12.0911697"><ele>-1.0</ele><time>2026-04-26T17:00:13.86Z</time></trkpt><trkpt lat="44.8542117" lon="12.0908966"><ele>-0.6666666666666666</ele><time>2026-04-26T17:00:14.859Z</time></trkpt><trkpt lat="44.8543104" lon="12.0906173"><ele>-0.3333333333333333</ele><time>2026-04-26T17:00:15.859Z</time></trkpt><trkpt lat="44.854401" lon="12.0903288"><ele>0.0</ele><time>2026-04-26T17:00:16.859Z</time></trkpt><trkpt lat="44.8544893" lon="12.0900375"><ele>-1.0</ele><time>2026-04-26T17:00:17.86Z</time></trkpt><trkpt lat="44.8545752" lon="12.0897398"><ele>-2.0</ele><time>2026-04-26T17:00:18.86Z</time></trkpt><trkpt lat="44.8546643" lon="12.0894398"><ele>-2.0</ele><time>2026-04-26T17:00:19.86Z</time></trkpt><trkpt lat="44.8547559" lon="12.0891403"><ele>-2.0</ele><time>2026-04-26T17:00:20.86Z</time></trkpt><trkpt lat="44.854859" lon="12.0888494"><ele>-1.5</ele><time>2026-04-26T17:00:21.86Z</time></trkpt><trkpt lat="44.8549818" lon="12.0885633"><ele>-1.0</ele><time>2026-04-26T17:00:22.86Z</time></trkpt><trkpt lat="44.8551177" lon="12.0882864"><ele>-1.0</ele><time>2026-04-26T17:00:23.859Z</time></trkpt><trkpt lat="44.8552698" lon="12.0880242"><ele>-1.0</ele><time>2026-04-26T17:00:24.86Z</time></trkpt><trkpt lat="44.8554327" lon="12.0877755"><ele>-1.0</ele><time>2026-04-26T17:00:25.86Z</time></trkpt><trkpt lat="44.8556022" lon="12.0875402"><ele>-1.0</ele><time>2026-04-26T17:00:26.859Z</time></trkpt><trkpt lat="44.8557741" lon="12.0873175"><ele>-1.0</ele><time>2026-04-26T17:00:27.859Z</time></trkpt><trkpt lat="44.8559484" lon="12.087106"><ele>-1.0</ele><time>2026-04-26T17:00:28.859Z</time></trkpt><trkpt lat="44.8561176" lon="12.0868938"><ele>-1.0</ele><time>2026-04-26T17:00:29.86Z</time></trkpt><trkpt lat="44.8562818" lon="12.0866991"><ele>-1.0</ele><time>2026-04-26T17:00:30.859Z</time></trkpt><trkpt lat="44.8564553" lon="12.0865167"><ele>-1.0</ele><time>2026-04-26T17:00:31.859Z</time></trkpt><trkpt lat="44.8566366" lon="12.0863597"><ele>-1.0</ele><time>2026-04-26T17:00:32.859Z</time></trkpt><trkpt lat="44.8568287" lon="12.0862148"><ele>-1.0</ele><time>2026-04-26T17:00:33.859Z</time></trkpt><trkpt lat="44.8570375" lon="12.0861015"><ele>-1.0</ele><time>2026-04-26T17:00:34.86Z</time></trkpt><trkpt lat="44.8572413" lon="12.0860011"><ele>-1.0</ele><time>2026-04-26T17:00:35.859Z</time></trkpt><trkpt lat="44.8574343" lon="12.0859145"><ele>-1.0</ele><time>2026-04-26T17:00:36.86Z</time></trkpt><trkpt lat="44.8576135" lon="12.085825"><ele>-1.0</ele><time>2026-04-26T17:00:37.86Z</time></trkpt><trkpt lat="44.8577848" lon="12.0857375"><ele>-1.6666666666666665</ele><time>2026-04-26T17:00:38.859Z</time></trkpt><trkpt lat="44.8579524" lon="12.0856613"><ele>-2.3333333333333335</ele><time>2026-04-26T17:00:39.86Z</time></trkpt><trkpt lat="44.8581144" lon="12.0855967"><ele>-3.0</ele><time>2026-04-26T17:00:40.859Z</time></trkpt><trkpt lat="44.8582768" lon="12.085553"><ele>-3.0</ele><time>2026-04-26T17:00:41.86Z</time></trkpt><trkpt lat="44.8584417" lon="12.0855075"><ele>-3.0</ele><time>2026-04-26T17:00:42.86Z</time></trkpt><trkpt lat="44.8586117" lon="12.0854549"><ele>-3.0</ele><time>2026-04-26T17:00:43.86Z</time></trkpt><trkpt lat="44.8587855" lon="12.0853985"><ele>-2.6666666666666665</ele><time>2026-04-26T17:00:44.859Z</time></trkpt><trkpt lat="44.8589696" lon="12.0853467"><ele>-2.333333333333333</ele><time>2026-04-26T17:00:45.86Z</time></trkpt><trkpt lat="44.859154" lon="12.085294"><ele>-2.0</ele><time>2026-04-26T17:00:46.859Z</time></trkpt><trkpt lat="44.8593461" lon="12.0852412"><ele>-1.6666666666666665</ele><time>2026-04-26T17:00:47.86Z</time></trkpt><trkpt lat="44.859541" lon="12.0851895"><ele>-1.3333333333333333</ele><time>2026-04-26T17:00:48.86Z</time></trkpt><trkpt lat="44.8597416" lon="12.0851354"><ele>-1.0</ele><time>2026-04-26T17:00:49.859Z</time></trkpt><trkpt lat="44.8599457" lon="12.0850774"><ele>-1.3333333333333333</ele><time>2026-04-26T17:00:50.859Z</time></trkpt><trkpt lat="44.8601564" lon="12.0850128"><ele>-1.6666666666666665</ele><time>2026-04-26T17:00:51.859Z</time></trkpt><trkpt lat="44.8603713" lon="12.0849476"><ele>-2.0</ele><time>2026-04-26T17:00:52.86Z</time></trkpt><trkpt lat="44.8605854" lon="12.0848729"><ele>-2.0</ele><time>2026-04-26T17:00:53.859Z</time></trkpt><trkpt lat="44.8607976" lon="12.084787"><ele>-2.0</ele><time>2026-04-26T17:00:54.859Z</time></trkpt><trkpt lat="44.8610132" lon="12.0846837"><ele>-2.0</ele><time>2026-04-26T17:00:55.859Z</time></trkpt><trkpt lat="44.8612282" lon="12.0845626"><ele>-1.0</ele><time>2026-04-26T17:00:56.86Z</time></trkpt><trkpt lat="44.8614477" lon="12.084443"><ele>0.0</ele><time>2026-04-26T17:00:57.86Z</time></trkpt><trkpt lat="44.8616673" lon="12.0843296"><ele>-0.5</ele><time>2026-04-26T17:00:58.859Z</time></trkpt><trkpt lat="44.8618865" lon="12.0842157"><ele>-1.0</ele><time>2026-04-26T17:00:59.859Z</time></trkpt><trkpt lat="44.862111" lon="12.0840994"><ele>-0.5</ele><time>2026-04-26T17:01:00.859Z</time></trkpt><trkpt lat="44.86233" lon="12.0839845"><ele>0.0</ele><time>2026-04-26T17:01:01.859Z</time></trkpt><trkpt lat="44.8625484" lon="12.0838707"><ele>-0.5</ele><time>2026-04-26T17:01:02.86Z</time></trkpt><trkpt lat="44.8627653" lon="12.083754"><ele>-1.0</ele><time>2026-04-26T17:01:03.86Z</time></trkpt><trkpt lat="44.862984" lon="12.0836409"><ele>-1.0</ele><time>2026-04-26T17:01:04.86Z</time></trkpt><trkpt lat="44.8631994" lon="12.0835279"><ele>-1.0</ele><time>2026-04-26T17:01:05.859Z</time></trkpt><trkpt lat="44.8634009" lon="12.0834166"><ele>-1.0</ele><time>2026-04-26T17:01:06.86Z</time></trkpt><trkpt lat="44.8635897" lon="12.0833099"><ele>-1.3333333333333333</ele><time>2026-04-26T17:01:07.859Z</time></trkpt><trkpt lat="44.8637681" lon="12.0832117"><ele>-1.6666666666666665</ele><time>2026-04-26T17:01:08.86Z</time></trkpt><trkpt lat="44.8639385" lon="12.0831237"><ele>-2.0</ele><time>2026-04-26T17:01:09.859Z</time></trkpt><trkpt lat="44.8641223" lon="12.0830656"><ele>-1.3333333333333333</ele><time>2026-04-26T17:01:10.859Z</time></trkpt><trkpt lat="44.8643148" lon="12.0830355"><ele>-0.6666666666666666</ele><time>2026-04-26T17:01:11.86Z</time></trkpt><trkpt lat="44.8645123" lon="12.08303"><ele>0.0</ele><time>2026-04-26T17:01:12.859Z</time></trkpt><trkpt lat="44.8647135" lon="12.0830497"><ele>0.0</ele><time>2026-04-26T17:01:13.859Z</time></trkpt><trkpt lat="44.8649202" lon="12.0830836"><ele>0.0</ele><time>2026-04-26T17:01:14.86Z</time></trkpt><trkpt lat="44.8651266" lon="12.0831137"><ele>0.0</ele><time>2026-04-26T17:01:15.859Z</time></trkpt><trkpt lat="44.865341" lon="12.0831547"><ele>-0.3333333333333333</ele><time>2026-04-26T17:01:16.859Z</time></trkpt><trkpt lat="44.8655555" lon="12.0831974"><ele>-0.6666666666666666</ele><time>2026-04-26T17:01:17.859Z</time></trkpt><trkpt lat="44.8657739" lon="12.0832399"><ele>-1.0</ele><time>2026-04-26T17:01:18.859Z</time></trkpt><trkpt lat="44.8659946" lon="12.0832797"><ele>-1.0</ele><time>2026-04-26T17:01:19.86Z</time></trkpt><trkpt lat="44.8662164" lon="12.0833158"><ele>-1.0</ele><time>2026-04-26T17:01:20.86Z</time></trkpt><trkpt lat="44.8664394" lon="12.0833559"><ele>-1.0</ele><time>2026-04-26T17:01:21.86Z</time></trkpt><trkpt lat="44.8666604" lon="12.0833991"><ele>-1.6666666666666665</ele><time>2026-04-26T17:01:22.859Z</time></trkpt><trkpt lat="44.8668751" lon="12.0834471"><ele>-2.3333333333333335</ele><time>2026-04-26T17:01:23.86Z</time></trkpt><trkpt lat="44.8670863" lon="12.0835156"><ele>-3.0</ele><time>2026-04-26T17:01:24.86Z</time></trkpt><trkpt lat="44.8672923" lon="12.0836021"><ele>-3.0</ele><time>2026-04-26T17:01:25.859Z</time></trkpt><trkpt lat="44.8674937" lon="12.0837058"><ele>-3.0</ele><time>2026-04-26T17:01:26.859Z</time></trkpt><trkpt lat="44.8676938" lon="12.0838155"><ele>-3.0</ele><time>2026-04-26T17:01:27.859Z</time></trkpt><trkpt lat="44.8678937" lon="12.0839311"><ele>-3.333333333333333</ele><time>2026-04-26T17:01:28.86Z</time></trkpt><trkpt lat="44.8680954" lon="12.0840382"><ele>-3.6666666666666665</ele><time>2026-04-26T17:01:29.86Z</time></trkpt><trkpt lat="44.8682962" lon="12.0841493"><ele>-4.0</ele><time>2026-04-26T17:01:30.859Z</time></trkpt><trkpt lat="44.8684944" lon="12.0842602"><ele>-3.0</ele><time>2026-04-26T17:01:31.859Z</time></trkpt><trkpt lat="44.8686915" lon="12.084364"><ele>-2.0</ele><time>2026-04-26T17:01:32.86Z</time></trkpt><trkpt lat="44.8688888" lon="12.0844664"><ele>-1.0</ele><time>2026-04-26T17:01:33.859Z</time></trkpt><trkpt lat="44.8690755" lon="12.0845688"><ele>-1.0</ele><time>2026-04-26T17:01:34.859Z</time></trkpt><trkpt lat="44.8692499" lon="12.0846663"><ele>-1.0</ele><time>2026-04-26T17:01:35.859Z</time></trkpt><trkpt lat="44.8694181" lon="12.0847574"><ele>-1.0</ele><time>2026-04-26T17:01:36.859Z</time></trkpt><trkpt lat="44.8695818" lon="12.0848437"><ele>-0.6666666666666666</ele><time>2026-04-26T17:01:37.859Z</time></trkpt><trkpt lat="44.8697449" lon="12.0849311"><ele>-0.3333333333333333</ele><time>2026-04-26T17:01:38.86Z</time></trkpt><trkpt lat="44.8699128" lon="12.0850249"><ele>0.0</ele><time>2026-04-26T17:01:39.86Z</time></trkpt><trkpt lat="44.8700858" lon="12.0851204"><ele>-0.3333333333333333</ele><time>2026-04-26T17:01:40.859Z</time></trkpt><trkpt lat="44.8702572" lon="12.085216"><ele>-0.6666666666666666</ele><time>2026-04-26T17:01:41.859Z</time></trkpt><trkpt lat="44.8704353" lon="12.0853152"><ele>-1.0</ele><time>2026-04-26T17:01:42.86Z</time></trkpt><trkpt lat="44.87062" lon="12.0854088"><ele>-1.0</ele><time>2026-04-26T17:01:43.86Z</time></trkpt><trkpt lat="44.8708128" lon="12.0854917"><ele>-1.0</ele><time>2026-04-26T17:01:44.86Z</time></trkpt><trkpt lat="44.8710122" lon="12.0855603"><ele>-1.0</ele><time>2026-04-26T17:01:45.859Z</time></trkpt><trkpt lat="44.8712232" lon="12.0856122"><ele>-1.3333333333333333</ele><time>2026-04-26T17:01:46.859Z</time></trkpt><trkpt lat="44.8714375" lon="12.0856475"><ele>-1.6666666666666665</ele><time>2026-04-26T17:01:47.86Z</time></trkpt><trkpt lat="44.8716557" lon="12.0856716"><ele>-2.0</ele><time>2026-04-26T17:01:48.859Z</time></trkpt><trkpt lat="44.8718796" lon="12.0856825"><ele>-2.5</ele><time>2026-04-26T17:01:49.859Z</time></trkpt><trkpt lat="44.8721051" lon="12.0856804"><ele>-3.0</ele><time>2026-04-26T17:01:50.859Z</time></trkpt><trkpt lat="44.8723315" lon="12.085663"><ele>-3.0</ele><time>2026-04-26T17:01:51.86Z</time></trkpt><trkpt lat="44.8725574" lon="12.0856331"><ele>-3.0</ele><time>2026-04-26T17:01:52.86Z</time></trkpt><trkpt lat="44.8727858" lon="12.0855838"><ele>-2.5</ele><time>2026-04-26T17:01:53.86Z</time></trkpt><trkpt lat="44.8730175" lon="12.0855231"><ele>-2.0</ele><time>2026-04-26T17:01:54.859Z</time></trkpt><trkpt lat="44.8732487" lon="12.0854467"><ele>-2.0</ele><time>2026-04-26T17:01:55.86Z</time></trkpt><trkpt lat="44.8734775" lon="12.0853578"><ele>-2.0</ele><time>2026-04-26T17:01:56.86Z</time></trkpt><trkpt lat="44.8737082" lon="12.0852628"><ele>-2.0</ele><time>2026-04-26T17:01:57.86Z</time></trkpt><trkpt lat="44.8739355" lon="12.0851755"><ele>-2.0</ele><time>2026-04-26T17:01:58.86Z</time></trkpt><trkpt lat="44.8741567" lon="12.0850887"><ele>-2.0</ele><time>2026-04-26T17:01:59.86Z</time></trkpt><trkpt lat="44.8743766" lon="12.0850046"><ele>-2.0</ele><time>2026-04-26T17:02:00.859Z</time></trkpt><trkpt lat="44.874589" lon="12.0849213"><ele>-2.0</ele><time>2026-04-26T17:02:01.859Z</time></trkpt><trkpt lat="44.8747945" lon="12.0848468"><ele>-2.0</ele><time>2026-04-26T17:02:02.86Z</time></trkpt><trkpt lat="44.8749896" lon="12.0847694"><ele>-2.0</ele><time>2026-04-26T17:02:03.859Z</time></trkpt><trkpt lat="44.8751789" lon="12.0846916"><ele>-2.0</ele><time>2026-04-26T17:02:04.86Z</time></trkpt><trkpt lat="44.8753622" lon="12.084616"><ele>-2.0</ele><time>2026-04-26T17:02:05.86Z</time></trkpt><trkpt lat="44.8755481" lon="12.0845478"><ele>-2.0</ele><time>2026-04-26T17:02:06.86Z</time></trkpt><trkpt lat="44.87573" lon="12.0844868"><ele>-2.0</ele><time>2026-04-26T17:02:07.859Z</time></trkpt><trkpt lat="44.8759122" lon="12.0844293"><ele>-2.0</ele><time>2026-04-26T17:02:08.86Z</time></trkpt><trkpt lat="44.8760938" lon="12.0843819"><ele>-2.0</ele><time>2026-04-26T17:02:09.859Z</time></trkpt><trkpt lat="44.8762736" lon="12.0843408"><ele>-2.0</ele><time>2026-04-26T17:02:10.86Z</time></trkpt><trkpt lat="44.8764565" lon="12.0843115"><ele>-2.0</ele><time>2026-04-26T17:02:11.86Z</time></trkpt><trkpt lat="44.8766471" lon="12.0842884"><ele>-2.0</ele><time>2026-04-26T17:02:12.86Z</time></trkpt><trkpt lat="44.87684" lon="12.0842786"><ele>-2.0</ele><time>2026-04-26T17:02:13.859Z</time></trkpt><trkpt lat="44.8770443" lon="12.0842797"><ele>-2.0</ele><time>2026-04-26T17:02:14.859Z</time></trkpt><trkpt lat="44.8772527" lon="12.0842905"><ele>-2.0</ele><time>2026-04-26T17:02:15.86Z</time></trkpt><trkpt lat="44.8774659" lon="12.0843107"><ele>-2.0</ele><time>2026-04-26T17:02:16.859Z</time></trkpt><trkpt lat="44.8776825" lon="12.0843324"><ele>-2.0</ele><time>2026-04-26T17:02:17.86Z</time></trkpt><trkpt lat="44.8779014" lon="12.0843613"><ele>-2.0</ele><time>2026-04-26T17:02:18.859Z</time></trkpt><trkpt lat="44.8781217" lon="12.0844137"><ele>-2.0</ele><time>2026-04-26T17:02:19.859Z</time></trkpt><trkpt lat="44.8783402" lon="12.0844881"><ele>-2.0</ele><time>2026-04-26T17:02:20.86Z</time></trkpt><trkpt lat="44.8785612" lon="12.0845908"><ele>-2.0</ele><time>2026-04-26T17:02:21.86Z</time></trkpt><trkpt lat="44.8787777" lon="12.0847086"><ele>-2.0</ele><time>2026-04-26T17:02:22.859Z</time></trkpt><trkpt lat="44.8789879" lon="12.0848338"><ele>-2.0</ele><time>2026-04-26T17:02:23.86Z</time></trkpt><trkpt lat="44.8791817" lon="12.0849633"><ele>-2.0</ele><time>2026-04-26T17:02:24.859Z</time></trkpt><trkpt lat="44.8793631" lon="12.0851014"><ele>-2.6666666666666665</ele><time>2026-04-26T17:02:25.859Z</time></trkpt><trkpt lat="44.879537" lon="12.0852633"><ele>-3.333333333333333</ele><time>2026-04-26T17:02:26.86Z</time></trkpt><trkpt lat="44.8796992" lon="12.0854483"><ele>-4.0</ele><time>2026-04-26T17:02:27.859Z</time></trkpt><trkpt lat="44.8798559" lon="12.0856505"><ele>-4.0</ele><time>2026-04-26T17:02:28.859Z</time></trkpt><trkpt lat="44.8800179" lon="12.0858702"><ele>-4.0</ele><time>2026-04-26T17:02:29.86Z</time></trkpt><trkpt lat="44.8801814" lon="12.086112"><ele>-4.0</ele><time>2026-04-26T17:02:30.859Z</time></trkpt><trkpt lat="44.8803342" lon="12.0863726"><ele>-4.0</ele><time>2026-04-26T17:02:31.86Z</time></trkpt><trkpt lat="44.8804724" lon="12.0866477"><ele>-4.0</ele><time>2026-04-26T17:02:32.859Z</time></trkpt><trkpt lat="44.880589" lon="12.0869169"><ele>-4.0</ele><time>2026-04-26T17:02:33.86Z</time></trkpt><trkpt lat="44.880681" lon="12.0871953"><ele>-4.0</ele><time>2026-04-26T17:02:34.859Z</time></trkpt><trkpt lat="44.8807562" lon="12.0875066"><ele>-3.5</ele><time>2026-04-26T17:02:35.859Z</time></trkpt><trkpt lat="44.8808164" lon="12.0878398"><ele>-3.0</ele><time>2026-04-26T17:02:36.86Z</time></trkpt><trkpt lat="44.8808664" lon="12.0881929"><ele>-3.5</ele><time>2026-04-26T17:02:37.86Z</time></trkpt><trkpt lat="44.8809171" lon="12.0885421"><ele>-4.0</ele><time>2026-04-26T17:02:38.859Z</time></trkpt><trkpt lat="44.8809662" lon="12.0888698"><ele>-4.333333333333333</ele><time>2026-04-26T17:02:39.86Z</time></trkpt><trkpt lat="44.8810103" lon="12.0891764"><ele>-4.666666666666667</ele><time>2026-04-26T17:02:40.86Z</time></trkpt><trkpt lat="44.8810538" lon="12.0894672"><ele>-5.0</ele><time>2026-04-26T17:02:41.86Z</time></trkpt><trkpt lat="44.8810982" lon="12.0897507"><ele>-4.666666666666667</ele><time>2026-04-26T17:02:42.859Z</time></trkpt><trkpt lat="44.8811378" lon="12.0900309"><ele>-4.333333333333333</ele><time>2026-04-26T17:02:43.86Z</time></trkpt><trkpt lat="44.8811764" lon="12.0903043"><ele>-4.0</ele><time>2026-04-26T17:02:44.86Z</time></trkpt><trkpt lat="44.8812158" lon="12.0905809"><ele>-3.6666666666666665</ele><time>2026-04-26T17:02:45.859Z</time></trkpt><trkpt lat="44.8812526" lon="12.0908507"><ele>-3.333333333333333</ele><time>2026-04-26T17:02:46.86Z</time></trkpt><trkpt lat="44.8812893" lon="12.0911134"><ele>-3.0</ele><time>2026-04-26T17:02:47.859Z</time></trkpt><trkpt lat="44.8813219" lon="12.0913771"><ele>-3.0</ele><time>2026-04-26T17:02:48.86Z</time></trkpt><trkpt lat="44.8813562" lon="12.0916429"><ele>-3.0</ele><time>2026-04-26T17:02:49.86Z</time></trkpt><trkpt lat="44.8813943" lon="12.0919054"><ele>-3.0</ele><time>2026-04-26T17:02:50.86Z</time></trkpt><trkpt lat="44.8814492" lon="12.0921599"><ele>-3.0</ele><time>2026-04-26T17:02:51.859Z</time></trkpt><trkpt lat="44.8815156" lon="12.0924126"><ele>-3.0</ele><time>2026-04-26T17:02:52.86Z</time></trkpt><trkpt lat="44.8815912" lon="12.0926567"><ele>-3.0</ele><time>2026-04-26T17:02:53.86Z</time></trkpt><trkpt lat="44.8816789" lon="12.092892"><ele>-3.333333333333333</ele><time>2026-04-26T17:02:54.859Z</time></trkpt><trkpt lat="44.8817821" lon="12.0931196"><ele>-3.6666666666666665</ele><time>2026-04-26T17:02:55.86Z</time></trkpt><trkpt lat="44.8818971" lon="12.0933388"><ele>-4.0</ele><time>2026-04-26T17:02:56.859Z</time></trkpt><trkpt lat="44.8820321" lon="12.093555"><ele>-4.333333333333333</ele><time>2026-04-26T17:02:57.86Z</time></trkpt><trkpt lat="44.8821872" lon="12.0937678"><ele>-4.666666666666667</ele><time>2026-04-26T17:02:58.86Z</time></trkpt><trkpt lat="44.8823572" lon="12.0939738"><ele>-5.0</ele><time>2026-04-26T17:02:59.86Z</time></trkpt><trkpt lat="44.8825371" lon="12.0941628"><ele>-4.0</ele><time>2026-04-26T17:03:00.86Z</time></trkpt><trkpt lat="44.8827259" lon="12.0943213"><ele>-3.0</ele><time>2026-04-26T17:03:01.86Z</time></trkpt><trkpt lat="44.8829248" lon="12.0944385"><ele>-2.0</ele><time>2026-04-26T17:03:02.86Z</time></trkpt><trkpt lat="44.8831346" lon="12.0945284"><ele>-2.0</ele><time>2026-04-26T17:03:03.86Z</time></trkpt><trkpt lat="44.8833483" lon="12.0945895"><ele>-2.0</ele><time>2026-04-26T17:03:04.86Z</time></trkpt><trkpt lat="44.8835667" lon="12.0946134"><ele>-2.0</ele><time>2026-04-26T17:03:05.86Z</time></trkpt><trkpt lat="44.8837882" lon="12.0945988"><ele>-2.0</ele><time>2026-04-26T17:03:06.859Z</time></trkpt><trkpt lat="44.8840085" lon="12.0945335"><ele>-2.0</ele><time>2026-04-26T17:03:07.86Z</time></trkpt><trkpt lat="44.8842262" lon="12.0944194"><ele>-1.5</ele><time>2026-04-26T17:03:08.86Z</time></trkpt><trkpt lat="44.8844417" lon="12.0942681"><ele>-1.0</ele><time>2026-04-26T17:03:09.859Z</time></trkpt><trkpt lat="44.8846564" lon="12.0940931"><ele>-1.5</ele><time>2026-04-26T17:03:10.86Z</time></trkpt><trkpt lat="44.8848714" lon="12.0938967"><ele>-2.0</ele><time>2026-04-26T17:03:11.859Z</time></trkpt><trkpt lat="44.8850798" lon="12.0936909"><ele>-2.5</ele><time>2026-04-26T17:03:12.859Z</time></trkpt><trkpt lat="44.8852817" lon="12.0935059"><ele>-3.0</ele><time>2026-04-26T17:03:13.86Z</time></trkpt><trkpt lat="44.8854839" lon="12.0933438"><ele>-3.0</ele><time>2026-04-26T17:03:14.86Z</time></trkpt><trkpt lat="44.8856829" lon="12.0931927"><ele>-3.0</ele><time>2026-04-26T17:03:15.859Z</time></trkpt><trkpt lat="44.8858686" lon="12.0930542"><ele>-3.0</ele><time>2026-04-26T17:03:16.86Z</time></trkpt><trkpt lat="44.8860426" lon="12.0929322"><ele>-2.3333333333333335</ele><time>2026-04-26T17:03:17.86Z</time></trkpt><trkpt lat="44.8862135" lon="12.0928104"><ele>-1.6666666666666665</ele><time>2026-04-26T17:03:18.86Z</time></trkpt><trkpt lat="44.8863853" lon="12.0926955"><ele>-1.0</ele><time>2026-04-26T17:03:19.859Z</time></trkpt><trkpt lat="44.8865481" lon="12.0925867"><ele>-1.0</ele><time>2026-04-26T17:03:20.86Z</time></trkpt><trkpt lat="44.8867159" lon="12.0924941"><ele>-1.0</ele><time>2026-04-26T17:03:21.86Z</time></trkpt><trkpt lat="44.8868914" lon="12.0924174"><ele>-1.0</ele><time>2026-04-26T17:03:22.859Z</time></trkpt><trkpt lat="44.8870682" lon="12.0923553"><ele>-0.6666666666666666</ele><time>2026-04-26T17:03:23.86Z</time></trkpt><trkpt lat="44.8872469" lon="12.0923033"><ele>-0.3333333333333333</ele><time>2026-04-26T17:03:24.859Z</time></trkpt><trkpt lat="44.8874188" lon="12.0922712"><ele>0.0</ele><time>2026-04-26T17:03:25.859Z</time></trkpt><trkpt lat="44.8875815" lon="12.0922656"><ele>-0.5</ele><time>2026-04-26T17:03:26.86Z</time></trkpt><trkpt lat="44.8877347" lon="12.0922799"><ele>-1.0</ele><time>2026-04-26T17:03:27.859Z</time></trkpt><trkpt lat="44.8878809" lon="12.0923009"><ele>-1.5</ele><time>2026-04-26T17:03:28.86Z</time></trkpt><trkpt lat="44.888014" lon="12.0923099"><ele>-2.0</ele><time>2026-04-26T17:03:29.86Z</time></trkpt><trkpt lat="44.888127" lon="12.0923149"><ele>-2.0</ele><time>2026-04-26T17:03:30.859Z</time></trkpt><trkpt lat="44.888233" lon="12.0923314"><ele>-2.0</ele><time>2026-04-26T17:03:31.86Z</time></trkpt><trkpt lat="44.8883246" lon="12.0923775"><ele>-2.0</ele><time>2026-04-26T17:03:32.859Z</time></trkpt><trkpt lat="44.8883961" lon="12.0924409"><ele>-2.0</ele><time>2026-04-26T17:03:33.859Z</time></trkpt><trkpt lat="44.888462" lon="12.0925016"><ele>-2.0</ele><time>2026-04-26T17:03:34.859Z</time></trkpt><trkpt lat="44.8885443" lon="12.0925408"><ele>-1.75</ele><time>2026-04-26T17:03:35.859Z</time></trkpt><trkpt lat="44.8886429" lon="12.0925635"><ele>-1.5</ele><time>2026-04-26T17:03:36.86Z</time></trkpt><trkpt lat="44.8887527" lon="12.092606"><ele>-1.25</ele><time>2026-04-26T17:03:37.86Z</time></trkpt><trkpt lat="44.8888644" lon="12.0926729"><ele>-1.0</ele><time>2026-04-26T17:03:38.86Z</time></trkpt><trkpt lat="44.8889655" lon="12.0927588"><ele>-1.0</ele><time>2026-04-26T17:03:39.859Z</time></trkpt><trkpt lat="44.8890685" lon="12.0928481"><ele>-1.0</ele><time>2026-04-26T17:03:40.86Z</time></trkpt><trkpt lat="44.8891756" lon="12.0929514"><ele>-1.0</ele><time>2026-04-26T17:03:41.859Z</time></trkpt><trkpt lat="44.8892827" lon="12.0930627"><ele>-1.0</ele><time>2026-04-26T17:03:42.859Z</time></trkpt><trkpt lat="44.8893835" lon="12.0931871"><ele>-1.0</ele><time>2026-04-26T17:03:43.859Z</time></trkpt><trkpt lat="44.8894863" lon="12.0933189"><ele>-1.0</ele><time>2026-04-26T17:03:44.859Z</time></trkpt><trkpt lat="44.8895899" lon="12.0934586"><ele>-1.0</ele><time>2026-04-26T17:03:45.859Z</time></trkpt><trkpt lat="44.8896902" lon="12.0936045"><ele>-1.0</ele><time>2026-04-26T17:03:46.859Z</time></trkpt><trkpt lat="44.8897902" lon="12.0937581"><ele>-1.0</ele><time>2026-04-26T17:03:47.859Z</time></trkpt><trkpt lat="44.8898887" lon="12.0939175"><ele>-1.0</ele><time>2026-04-26T17:03:48.859Z</time></trkpt><trkpt lat="44.8899938" lon="12.0940862"><ele>-1.0</ele><time>2026-04-26T17:03:49.859Z</time></trkpt><trkpt lat="44.8900974" lon="12.0942526"><ele>-1.3333333333333333</ele><time>2026-04-26T17:03:50.86Z</time></trkpt><trkpt lat="44.8902069" lon="12.0944237"><ele>-1.6666666666666665</ele><time>2026-04-26T17:03:51.859Z</time></trkpt><trkpt lat="44.8903152" lon="12.0946041"><ele>-2.0</ele><time>2026-04-26T17:03:52.86Z</time></trkpt><trkpt lat="44.8904307" lon="12.0947896"><ele>-1.6666666666666665</ele><time>2026-04-26T17:03:53.86Z</time></trkpt><trkpt lat="44.8905501" lon="12.0949819"><ele>-1.3333333333333333</ele><time>2026-04-26T17:03:54.86Z</time></trkpt><trkpt lat="44.8906662" lon="12.0951694"><ele>-1.0</ele><time>2026-04-26T17:03:55.859Z</time></trkpt><trkpt lat="44.8907843" lon="12.0953622"><ele>-1.0</ele><time>2026-04-26T17:03:56.859Z</time></trkpt><trkpt lat="44.8909054" lon="12.0955526"><ele>-1.0</ele><time>2026-04-26T17:03:57.859Z</time></trkpt><trkpt lat="44.8910324" lon="12.0957497"><ele>-1.0</ele><time>2026-04-26T17:03:58.859Z</time></trkpt><trkpt lat="44.8911589" lon="12.095944"><ele>-1.3333333333333333</ele><time>2026-04-26T17:03:59.859Z</time></trkpt><trkpt lat="44.8912875" lon="12.0961334"><ele>-1.6666666666666665</ele><time>2026-04-26T17:04:00.86Z</time></trkpt><trkpt lat="44.8914209" lon="12.0963226"><ele>-2.0</ele><time>2026-04-26T17:04:01.859Z</time></trkpt><trkpt lat="44.8915541" lon="12.0965088"><ele>-1.6666666666666665</ele><time>2026-04-26T17:04:02.86Z</time></trkpt><trkpt lat="44.8916958" lon="12.0966848"><ele>-1.3333333333333333</ele><time>2026-04-26T17:04:03.859Z</time></trkpt><trkpt lat="44.8918374" lon="12.0968662"><ele>-1.0</ele><time>2026-04-26T17:04:04.859Z</time></trkpt><trkpt lat="44.8919893" lon="12.0970412"><ele>-1.0</ele><time>2026-04-26T17:04:05.859Z</time></trkpt><trkpt lat="44.892142" lon="12.0972069"><ele>-1.0</ele><time>2026-04-26T17:04:06.859Z</time></trkpt><trkpt lat="44.8922975" lon="12.0973578"><ele>-1.0</ele><time>2026-04-26T17:04:07.859Z</time></trkpt><trkpt lat="44.8924551" lon="12.0975038"><ele>-1.0</ele><time>2026-04-26T17:04:08.859Z</time></trkpt><trkpt lat="44.8926128" lon="12.0976427"><ele>-1.0</ele><time>2026-04-26T17:04:09.859Z</time></trkpt><trkpt lat="44.8927724" lon="12.0977723"><ele>-1.0</ele><time>2026-04-26T17:04:10.859Z</time></trkpt><trkpt lat="44.8929331" lon="12.0978906"><ele>-1.0</ele><time>2026-04-26T17:04:11.859Z</time></trkpt><trkpt lat="44.8930933" lon="12.0979985"><ele>-1.0</ele><time>2026-04-26T17:04:12.86Z</time></trkpt><trkpt lat="44.8932526" lon="12.0980989"><ele>-1.0</ele><time>2026-04-26T17:04:13.859Z</time></trkpt><trkpt lat="44.8934038" lon="12.0981875"><ele>-1.0</ele><time>2026-04-26T17:04:14.859Z</time></trkpt><trkpt lat="44.8935491" lon="12.0982685"><ele>-1.0</ele><time>2026-04-26T17:04:15.859Z</time></trkpt><trkpt lat="44.8936947" lon="12.0983432"><ele>-1.0</ele><time>2026-04-26T17:04:16.859Z</time></trkpt><trkpt lat="44.8938481" lon="12.0984118"><ele>-1.0</ele><time>2026-04-26T17:04:17.86Z</time></trkpt><trkpt lat="44.8939965" lon="12.0984754"><ele>-1.0</ele><time>2026-04-26T17:04:18.86Z</time></trkpt><trkpt lat="44.8941458" lon="12.0985341"><ele>-1.0</ele><time>2026-04-26T17:04:19.859Z</time></trkpt><trkpt lat="44.8942957" lon="12.098588"><ele>-0.6666666666666666</ele><time>2026-04-26T17:04:20.86Z</time></trkpt><trkpt lat="44.8944418" lon="12.0986422"><ele>-0.3333333333333333</ele><time>2026-04-26T17:04:21.86Z</time></trkpt><trkpt lat="44.8945879" lon="12.0986879"><ele>0.0</ele><time>2026-04-26T17:04:22.86Z</time></trkpt><trkpt lat="44.8947383" lon="12.0987308"><ele>0.0</ele><time>2026-04-26T17:04:23.86Z</time></trkpt><trkpt lat="44.8948928" lon="12.0987754"><ele>0.0</ele><time>2026-04-26T17:04:24.86Z</time></trkpt><trkpt lat="44.8950424" lon="12.0988103"><ele>0.0</ele><time>2026-04-26T17:04:25.859Z</time></trkpt><trkpt lat="44.8951961" lon="12.0988441"><ele>0.0</ele><time>2026-04-26T17:04:26.859Z</time></trkpt><trkpt lat="44.8953459" lon="12.0988707"><ele>0.0</ele><time>2026-04-26T17:04:27.86Z</time></trkpt><trkpt lat="44.8954898" lon="12.0988918"><ele>0.0</ele><time>2026-04-26T17:04:28.859Z</time></trkpt><trkpt lat="44.8956285" lon="12.0989159"><ele>0.0</ele><time>2026-04-26T17:04:29.859Z</time></trkpt><trkpt lat="44.8957557" lon="12.0989428"><ele>0.0</ele><time>2026-04-26T17:04:30.86Z</time></trkpt><trkpt lat="44.8958741" lon="12.0989726"><ele>0.0</ele><time>2026-04-26T17:04:31.86Z</time></trkpt><trkpt lat="44.8959789" lon="12.0990148"><ele>0.0</ele><time>2026-04-26T17:04:32.859Z</time></trkpt><trkpt lat="44.8960588" lon="12.0990814"><ele>0.0</ele><time>2026-04-26T17:04:33.86Z</time></trkpt><trkpt lat="44.8961188" lon="12.0991774"><ele>0.0</ele><time>2026-04-26T17:04:34.86Z</time></trkpt><trkpt lat="44.8961476" lon="12.0993019"><ele>-0.5</ele><time>2026-04-26T17:04:35.859Z</time></trkpt><trkpt lat="44.8961485" lon="12.0994576"><ele>-1.0</ele><time>2026-04-26T17:04:36.86Z</time></trkpt><trkpt lat="44.8961296" lon="12.0996543"><ele>-1.5</ele><time>2026-04-26T17:04:37.86Z</time></trkpt><trkpt lat="44.8961134" lon="12.0998919"><ele>-2.0</ele><time>2026-04-26T17:04:38.86Z</time></trkpt><trkpt lat="44.8961036" lon="12.1001532"><ele>-2.0</ele><time>2026-04-26T17:04:39.859Z</time></trkpt><trkpt lat="44.8960888" lon="12.100401"><ele>-2.0</ele><time>2026-04-26T17:04:40.859Z</time></trkpt><trkpt lat="44.8960754" lon="12.1006486"><ele>-2.0</ele><time>2026-04-26T17:04:41.859Z</time></trkpt><trkpt lat="44.8960588" lon="12.1008539"><ele>-2.0</ele><time>2026-04-26T17:04:42.859Z</time></trkpt><trkpt lat="44.896046" lon="12.1010531"><ele>-2.0</ele><time>2026-04-26T17:04:43.859Z</time></trkpt><trkpt lat="44.8960422" lon="12.1012423"><ele>-2.0</ele><time>2026-04-26T17:04:44.86Z</time></trkpt><trkpt lat="44.8960565" lon="12.1014216"><ele>-2.0</ele><time>2026-04-26T17:04:45.859Z</time></trkpt><trkpt lat="44.8961015" lon="12.101593"><ele>-2.0</ele><time>2026-04-26T17:04:46.859Z</time></trkpt><trkpt lat="44.8961712" lon="12.1017331"><ele>-2.0</ele><time>2026-04-26T17:04:47.859Z</time></trkpt><trkpt lat="44.8962738" lon="12.1018592"><ele>-2.0</ele><time>2026-04-26T17:04:48.86Z</time></trkpt><trkpt lat="44.8964027" lon="12.101955"><ele>-2.0</ele><time>2026-04-26T17:04:49.859Z</time></trkpt><trkpt lat="44.8965563" lon="12.1020225"><ele>-2.0</ele><time>2026-04-26T17:04:50.859Z</time></trkpt><trkpt lat="44.8967245" lon="12.1020789"><ele>-2.0</ele><time>2026-04-26T17:04:51.859Z</time></trkpt><trkpt lat="44.8969072" lon="12.1021404"><ele>-2.0</ele><time>2026-04-26T17:04:52.859Z</time></trkpt><trkpt lat="44.8970955" lon="12.1022147"><ele>-2.0</ele><time>2026-04-26T17:04:53.86Z</time></trkpt><trkpt lat="44.8972745" lon="12.1022825"><ele>-2.0</ele><time>2026-04-26T17:04:54.859Z</time></trkpt><trkpt lat="44.8974429" lon="12.1023505"><ele>-2.0</ele><time>2026-04-26T17:04:55.86Z</time></trkpt><trkpt lat="44.8976094" lon="12.1024084"><ele>-2.0</ele><time>2026-04-26T17:04:56.859Z</time></trkpt><trkpt lat="44.8977673" lon="12.1024628"><ele>-2.0</ele><time>2026-04-26T17:04:57.86Z</time></trkpt><trkpt lat="44.8979227" lon="12.1025187"><ele>-2.0</ele><time>2026-04-26T17:04:58.86Z</time></trkpt><trkpt lat="44.8980792" lon="12.1025725"><ele>-2.0</ele><time>2026-04-26T17:04:59.86Z</time></trkpt><trkpt lat="44.8982329" lon="12.102628"><ele>-2.0</ele><time>2026-04-26T17:05:00.86Z</time></trkpt><trkpt lat="44.8983838" lon="12.1026868"><ele>-2.0</ele><time>2026-04-26T17:05:01.859Z</time></trkpt><trkpt lat="44.8985317" lon="12.1027368"><ele>-2.333333333333333</ele><time>2026-04-26T17:05:02.859Z</time></trkpt><trkpt lat="44.8986839" lon="12.1027882"><ele>-2.6666666666666665</ele><time>2026-04-26T17:05:03.859Z</time></trkpt><trkpt lat="44.8988361" lon="12.1028399"><ele>-3.0</ele><time>2026-04-26T17:05:04.859Z</time></trkpt><trkpt lat="44.8989903" lon="12.1028937"><ele>-3.0</ele><time>2026-04-26T17:05:05.859Z</time></trkpt><trkpt lat="44.8991467" lon="12.1029508"><ele>-3.0</ele><time>2026-04-26T17:05:06.859Z</time></trkpt><trkpt lat="44.8993057" lon="12.1030098"><ele>-3.0</ele><time>2026-04-26T17:05:07.859Z</time></trkpt><trkpt lat="44.8994625" lon="12.1030659"><ele>-3.0</ele><time>2026-04-26T17:05:08.86Z</time></trkpt><trkpt lat="44.8996211" lon="12.1031211"><ele>-3.0</ele><time>2026-04-26T17:05:09.859Z</time></trkpt><trkpt lat="44.8997832" lon="12.1031804"><ele>-3.0</ele><time>2026-04-26T17:05:10.86Z</time></trkpt><trkpt lat="44.8999393" lon="12.1032353"><ele>-3.333333333333333</ele><time>2026-04-26T17:05:11.859Z</time></trkpt><trkpt lat="44.9000965" lon="12.1032859"><ele>-3.6666666666666665</ele><time>2026-04-26T17:05:12.859Z</time></trkpt><trkpt lat="44.9002641" lon="12.1033135"><ele>-4.0</ele><time>2026-04-26T17:05:13.859Z</time></trkpt><trkpt lat="44.9004378" lon="12.1033058"><ele>-4.0</ele><time>2026-04-26T17:05:14.86Z</time></trkpt><trkpt lat="44.9006117" lon="12.1032777"><ele>-4.0</ele><time>2026-04-26T17:05:15.859Z</time></trkpt><trkpt lat="44.9007928" lon="12.1032325"><ele>-4.0</ele><time>2026-04-26T17:05:16.859Z</time></trkpt><trkpt lat="44.900976" lon="12.1031929"><ele>-3.6666666666666665</ele><time>2026-04-26T17:05:17.86Z</time></trkpt><trkpt lat="44.9011612" lon="12.103151"><ele>-3.333333333333333</ele><time>2026-04-26T17:05:18.86Z</time></trkpt><trkpt lat="44.9013467" lon="12.1031021"><ele>-3.0</ele><time>2026-04-26T17:05:19.859Z</time></trkpt><trkpt lat="44.9015296" lon="12.1030622"><ele>-3.0</ele><time>2026-04-26T17:05:20.859Z</time></trkpt><trkpt lat="44.9017039" lon="12.1030241"><ele>-3.0</ele><time>2026-04-26T17:05:21.859Z</time></trkpt><trkpt lat="44.9018746" lon="12.1029911"><ele>-3.0</ele><time>2026-04-26T17:05:22.86Z</time></trkpt><trkpt lat="44.9020416" lon="12.1029659"><ele>-3.0</ele><time>2026-04-26T17:05:23.859Z</time></trkpt><trkpt lat="44.9022153" lon="12.1029503"><ele>-3.0</ele><time>2026-04-26T17:05:24.859Z</time></trkpt><trkpt lat="44.9023904" lon="12.102944"><ele>-3.0</ele><time>2026-04-26T17:05:25.859Z</time></trkpt><trkpt lat="44.9025651" lon="12.1029393"><ele>-3.0</ele><time>2026-04-26T17:05:26.86Z</time></trkpt><trkpt lat="44.9027387" lon="12.1029308"><ele>-3.0</ele><time>2026-04-26T17:05:27.859Z</time></trkpt><trkpt lat="44.9029122" lon="12.1029169"><ele>-3.0</ele><time>2026-04-26T17:05:28.859Z</time></trkpt><trkpt lat="44.9030857" lon="12.1029059"><ele>-3.0</ele><time>2026-04-26T17:05:29.86Z</time></trkpt><trkpt lat="44.90326" lon="12.1029007"><ele>-3.0</ele><time>2026-04-26T17:05:30.859Z</time></trkpt><trkpt lat="44.9034305" lon="12.1028925"><ele>-3.0</ele><time>2026-04-26T17:05:31.86Z</time></trkpt><trkpt lat="44.9036027" lon="12.1028829"><ele>-2.6666666666666665</ele><time>2026-04-26T17:05:32.86Z</time></trkpt><trkpt lat="44.903776" lon="12.1028743"><ele>-2.333333333333333</ele><time>2026-04-26T17:05:33.859Z</time></trkpt><trkpt lat="44.9039499" lon="12.1028607"><ele>-2.0</ele><time>2026-04-26T17:05:34.859Z</time></trkpt><trkpt lat="44.9041227" lon="12.10285"><ele>-2.0</ele><time>2026-04-26T17:05:35.859Z</time></trkpt><trkpt lat="44.9042931" lon="12.102832"><ele>-2.0</ele><time>2026-04-26T17:05:36.86Z</time></trkpt><trkpt lat="44.9044645" lon="12.1028164"><ele>-2.0</ele><time>2026-04-26T17:05:37.859Z</time></trkpt><trkpt lat="44.9046354" lon="12.1027877"><ele>-2.0</ele><time>2026-04-26T17:05:38.86Z</time></trkpt><trkpt lat="44.9048027" lon="12.1027478"><ele>-2.0</ele><time>2026-04-26T17:05:39.859Z</time></trkpt><trkpt lat="44.9049737" lon="12.1026896"><ele>-2.0</ele><time>2026-04-26T17:05:40.86Z</time></trkpt><trkpt lat="44.9051416" lon="12.1026167"><ele>-2.333333333333333</ele><time>2026-04-26T17:05:41.859Z</time></trkpt><trkpt lat="44.9053067" lon="12.1025153"><ele>-2.6666666666666665</ele><time>2026-04-26T17:05:42.859Z</time></trkpt><trkpt lat="44.9054761" lon="12.1024096"><ele>-3.0</ele><time>2026-04-26T17:05:43.859Z</time></trkpt><trkpt lat="44.9056499" lon="12.1023006"><ele>-3.0</ele><time>2026-04-26T17:05:44.86Z</time></trkpt><trkpt lat="44.9058218" lon="12.1021866"><ele>-3.0</ele><time>2026-04-26T17:05:45.859Z</time></trkpt><trkpt lat="44.905998" lon="12.1020694"><ele>-3.0</ele><time>2026-04-26T17:05:46.859Z</time></trkpt><trkpt lat="44.9061772" lon="12.10195"><ele>-3.0</ele><time>2026-04-26T17:05:47.86Z</time></trkpt><trkpt lat="44.9063626" lon="12.1018311"><ele>-3.0</ele><time>2026-04-26T17:05:48.859Z</time></trkpt><trkpt lat="44.9065494" lon="12.1017086"><ele>-3.0</ele><time>2026-04-26T17:05:49.86Z</time></trkpt><trkpt lat="44.9067422" lon="12.1015851"><ele>-3.0</ele><time>2026-04-26T17:05:50.859Z</time></trkpt><trkpt lat="44.9069338" lon="12.1014643"><ele>-3.0</ele><time>2026-04-26T17:05:51.859Z</time></trkpt><trkpt lat="44.9071312" lon="12.1013373"><ele>-3.0</ele><time>2026-04-26T17:05:52.859Z</time></trkpt><trkpt lat="44.9073298" lon="12.1012107"><ele>-3.0</ele><time>2026-04-26T17:05:53.86Z</time></trkpt><trkpt lat="44.9075293" lon="12.1010829"><ele>-3.0</ele><time>2026-04-26T17:05:54.859Z</time></trkpt><trkpt lat="44.9077312" lon="12.1009531"><ele>-3.0</ele><time>2026-04-26T17:05:55.859Z</time></trkpt><trkpt lat="44.9079366" lon="12.1008273"><ele>-3.5</ele><time>2026-04-26T17:05:56.86Z</time></trkpt><trkpt lat="44.9081436" lon="12.1006986"><ele>-4.0</ele><time>2026-04-26T17:05:57.86Z</time></trkpt><trkpt lat="44.9083491" lon="12.1005629"><ele>-4.0</ele><time>2026-04-26T17:05:58.86Z</time></trkpt><trkpt lat="44.9085574" lon="12.1004216"><ele>-4.0</ele><time>2026-04-26T17:05:59.859Z</time></trkpt><trkpt lat="44.9087674" lon="12.1002803"><ele>-4.0</ele><time>2026-04-26T17:06:00.859Z</time></trkpt><trkpt lat="44.9089788" lon="12.1001447"><ele>-4.0</ele><time>2026-04-26T17:06:01.859Z</time></trkpt><trkpt lat="44.9091919" lon="12.1000111"><ele>-3.6666666666666665</ele><time>2026-04-26T17:06:02.859Z</time></trkpt><trkpt lat="44.9093984" lon="12.0998728"><ele>-3.333333333333333</ele><time>2026-04-26T17:06:03.859Z</time></trkpt><trkpt lat="44.9095936" lon="12.0997439"><ele>-3.0</ele><time>2026-04-26T17:06:04.86Z</time></trkpt><trkpt lat="44.9097812" lon="12.0996244"><ele>-3.0</ele><time>2026-04-26T17:06:05.859Z</time></trkpt><trkpt lat="44.9099581" lon="12.099518"><ele>-3.0</ele><time>2026-04-26T17:06:06.86Z</time></trkpt><trkpt lat="44.9101273" lon="12.0994105"><ele>-3.0</ele><time>2026-04-26T17:06:07.86Z</time></trkpt><trkpt lat="44.9102839" lon="12.099303"><ele>-3.0</ele><time>2026-04-26T17:06:08.859Z</time></trkpt><trkpt lat="44.9104356" lon="12.099194"><ele>-3.0</ele><time>2026-04-26T17:06:09.86Z</time></trkpt><trkpt lat="44.9105939" lon="12.0990863"><ele>-3.0</ele><time>2026-04-26T17:06:10.859Z</time></trkpt><trkpt lat="44.9107513" lon="12.0989841"><ele>-3.0</ele><time>2026-04-26T17:06:11.86Z</time></trkpt><trkpt lat="44.9109133" lon="12.0988796"><ele>-3.0</ele><time>2026-04-26T17:06:12.859Z</time></trkpt><trkpt lat="44.9110777" lon="12.0987767"><ele>-3.0</ele><time>2026-04-26T17:06:13.86Z</time></trkpt><trkpt lat="44.9112387" lon="12.0986698"><ele>-3.0</ele><time>2026-04-26T17:06:14.859Z</time></trkpt><trkpt lat="44.9113998" lon="12.0985582"><ele>-3.0</ele><time>2026-04-26T17:06:15.859Z</time></trkpt><trkpt lat="44.9115501" lon="12.0984524"><ele>-3.0</ele><time>2026-04-26T17:06:16.86Z</time></trkpt><trkpt lat="44.9116885" lon="12.0983503"><ele>-3.0</ele><time>2026-04-26T17:06:17.86Z</time></trkpt><trkpt lat="44.9118185" lon="12.0982844"><ele>-3.0</ele><time>2026-04-26T17:06:18.859Z</time></trkpt><trkpt lat="44.9119416" lon="12.0982612"><ele>-3.0</ele><time>2026-04-26T17:06:19.86Z</time></trkpt><trkpt lat="44.9120629" lon="12.0982888"><ele>-3.0</ele><time>2026-04-26T17:06:20.859Z</time></trkpt><trkpt lat="44.9121877" lon="12.0983666"><ele>-3.0</ele><time>2026-04-26T17:06:21.86Z</time></trkpt><trkpt lat="44.9123105" lon="12.0984857"><ele>-3.0</ele><time>2026-04-26T17:06:22.859Z</time></trkpt><trkpt lat="44.9124464" lon="12.0986301"><ele>-3.0</ele><time>2026-04-26T17:06:23.859Z</time></trkpt><trkpt lat="44.9126028" lon="12.09878"><ele>-3.0</ele><time>2026-04-26T17:06:24.859Z</time></trkpt><trkpt lat="44.9127774" lon="12.0989418"><ele>-3.0</ele><time>2026-04-26T17:06:25.86Z</time></trkpt><trkpt lat="44.9129644" lon="12.0991088"><ele>-3.0</ele><time>2026-04-26T17:06:26.86Z</time></trkpt><trkpt lat="44.9131771" lon="12.0992997"><ele>-2.5</ele><time>2026-04-26T17:06:27.859Z</time></trkpt><trkpt lat="44.9134151" lon="12.0994886"><ele>-2.0</ele><time>2026-04-26T17:06:28.859Z</time></trkpt><trkpt lat="44.9136717" lon="12.0996853"><ele>-2.0</ele><time>2026-04-26T17:06:29.859Z</time></trkpt><trkpt lat="44.9139313" lon="12.0998809"><ele>-2.0</ele><time>2026-04-26T17:06:30.859Z</time></trkpt><trkpt lat="44.9141728" lon="12.1000544"><ele>-2.0</ele><time>2026-04-26T17:06:31.859Z</time></trkpt><trkpt lat="44.9144002" lon="12.1002115"><ele>-2.0</ele><time>2026-04-26T17:06:32.86Z</time></trkpt><trkpt lat="44.9146091" lon="12.1003471"><ele>-2.0</ele><time>2026-04-26T17:06:33.859Z</time></trkpt><trkpt lat="44.9148012" lon="12.1004707"><ele>-2.0</ele><time>2026-04-26T17:06:34.86Z</time></trkpt><trkpt lat="44.9149821" lon="12.1005849"><ele>-2.0</ele><time>2026-04-26T17:06:35.859Z</time></trkpt><trkpt lat="44.9151561" lon="12.1006799"><ele>-2.6666666666666665</ele><time>2026-04-26T17:06:36.859Z</time></trkpt><trkpt lat="44.9153239" lon="12.1007672"><ele>-3.333333333333333</ele><time>2026-04-26T17:06:37.859Z</time></trkpt><trkpt lat="44.9154912" lon="12.1008542"><ele>-4.0</ele><time>2026-04-26T17:06:38.859Z</time></trkpt><trkpt lat="44.9156565" lon="12.1009443"><ele>-4.0</ele><time>2026-04-26T17:06:39.86Z</time></trkpt><trkpt lat="44.9158251" lon="12.1010214"><ele>-4.0</ele><time>2026-04-26T17:06:40.859Z</time></trkpt><trkpt lat="44.915994" lon="12.1010983"><ele>-4.0</ele><time>2026-04-26T17:06:41.86Z</time></trkpt><trkpt lat="44.9161643" lon="12.1011606"><ele>-3.6666666666666665</ele><time>2026-04-26T17:06:42.859Z</time></trkpt><trkpt lat="44.9163395" lon="12.1012174"><ele>-3.333333333333333</ele><time>2026-04-26T17:06:43.859Z</time></trkpt><trkpt lat="44.9165157" lon="12.101274"><ele>-3.0</ele><time>2026-04-26T17:06:44.859Z</time></trkpt><trkpt lat="44.9166922" lon="12.1013277"><ele>-2.3333333333333335</ele><time>2026-04-26T17:06:45.86Z</time></trkpt><trkpt lat="44.9168704" lon="12.1013827"><ele>-1.6666666666666665</ele><time>2026-04-26T17:06:46.859Z</time></trkpt><trkpt lat="44.9170482" lon="12.1014304"><ele>-1.0</ele><time>2026-04-26T17:06:47.86Z</time></trkpt><trkpt lat="44.9172318" lon="12.1014749"><ele>-1.0</ele><time>2026-04-26T17:06:48.86Z</time></trkpt><trkpt lat="44.9174159" lon="12.1015165"><ele>-1.0</ele><time>2026-04-26T17:06:49.86Z</time></trkpt><trkpt lat="44.9176006" lon="12.1015469"><ele>-1.0</ele><time>2026-04-26T17:06:50.859Z</time></trkpt><trkpt lat="44.9177866" lon="12.1015734"><ele>-2.3333333333333335</ele><time>2026-04-26T17:06:51.859Z</time></trkpt><trkpt lat="44.9179742" lon="12.1015845"><ele>-3.666666666666667</ele><time>2026-04-26T17:06:52.86Z</time></trkpt><trkpt lat="44.9181625" lon="12.1015886"><ele>-5.0</ele><time>2026-04-26T17:06:53.86Z</time></trkpt><trkpt lat="44.9183529" lon="12.1015889"><ele>-4.666666666666667</ele><time>2026-04-26T17:06:54.859Z</time></trkpt><trkpt lat="44.9185452" lon="12.1015831"><ele>-4.333333333333333</ele><time>2026-04-26T17:06:55.859Z</time></trkpt><trkpt lat="44.9187347" lon="12.1015778"><ele>-4.0</ele><time>2026-04-26T17:06:56.86Z</time></trkpt><trkpt lat="44.9189251" lon="12.1015648"><ele>-3.333333333333333</ele><time>2026-04-26T17:06:57.859Z</time></trkpt><trkpt lat="44.9191158" lon="12.1015396"><ele>-2.6666666666666665</ele><time>2026-04-26T17:06:58.86Z</time></trkpt><trkpt lat="44.9193079" lon="12.1015048"><ele>-2.0</ele><time>2026-04-26T17:06:59.859Z</time></trkpt><trkpt lat="44.9194985" lon="12.1014672"><ele>-2.0</ele><time>2026-04-26T17:07:00.859Z</time></trkpt><trkpt lat="44.9196825" lon="12.1014363"><ele>-2.0</ele><time>2026-04-26T17:07:01.86Z</time></trkpt><trkpt lat="44.9198592" lon="12.1014198"><ele>-2.0</ele><time>2026-04-26T17:07:02.86Z</time></trkpt><trkpt lat="44.9200341" lon="12.1014255"><ele>-1.6666666666666665</ele><time>2026-04-26T17:07:03.86Z</time></trkpt><trkpt lat="44.9202022" lon="12.101471"><ele>-1.3333333333333333</ele><time>2026-04-26T17:07:04.859Z</time></trkpt><trkpt lat="44.9203634" lon="12.1015467"><ele>-1.0</ele><time>2026-04-26T17:07:05.859Z</time></trkpt><trkpt lat="44.9205185" lon="12.101668"><ele>-1.3333333333333333</ele><time>2026-04-26T17:07:06.859Z</time></trkpt><trkpt lat="44.9206692" lon="12.1018359"><ele>-1.6666666666666665</ele><time>2026-04-26T17:07:07.86Z</time></trkpt><trkpt lat="44.9208114" lon="12.1020419"><ele>-2.0</ele><time>2026-04-26T17:07:08.859Z</time></trkpt><trkpt lat="44.92096" lon="12.1022717"><ele>-2.0</ele><time>2026-04-26T17:07:09.859Z</time></trkpt><trkpt lat="44.9211119" lon="12.1025018"><ele>-2.0</ele><time>2026-04-26T17:07:10.859Z</time></trkpt><trkpt lat="44.9212615" lon="12.1027274"><ele>-2.0</ele><time>2026-04-26T17:07:11.859Z</time></trkpt><trkpt lat="44.9214085" lon="12.1029543"><ele>-2.0</ele><time>2026-04-26T17:07:12.86Z</time></trkpt><trkpt lat="44.9215512" lon="12.1031838"><ele>-2.0</ele><time>2026-04-26T17:07:13.86Z</time></trkpt><trkpt lat="44.9216987" lon="12.1034082"><ele>-2.0</ele><time>2026-04-26T17:07:14.859Z</time></trkpt><trkpt lat="44.9218478" lon="12.1036263"><ele>-1.6666666666666665</ele><time>2026-04-26T17:07:15.859Z</time></trkpt><trkpt lat="44.9219938" lon="12.1038467"><ele>-1.3333333333333333</ele><time>2026-04-26T17:07:16.859Z</time></trkpt><trkpt lat="44.9221364" lon="12.1040687"><ele>-1.0</ele><time>2026-04-26T17:07:17.859Z</time></trkpt><trkpt lat="44.9222806" lon="12.1042912"><ele>-1.0</ele><time>2026-04-26T17:07:18.86Z</time></trkpt><trkpt lat="44.9224263" lon="12.1045097"><ele>-1.0</ele><time>2026-04-26T17:07:19.859Z</time></trkpt><trkpt lat="44.9225711" lon="12.1047309"><ele>-1.0</ele><time>2026-04-26T17:07:20.86Z</time></trkpt><trkpt lat="44.9227173" lon="12.1049538"><ele>-1.3333333333333333</ele><time>2026-04-26T17:07:21.859Z</time></trkpt><trkpt lat="44.9228623" lon="12.1051742"><ele>-1.6666666666666665</ele><time>2026-04-26T17:07:22.86Z</time></trkpt><trkpt lat="44.9230075" lon="12.1053971"><ele>-2.0</ele><time>2026-04-26T17:07:23.859Z</time></trkpt><trkpt lat="44.9231532" lon="12.1056196"><ele>-2.333333333333333</ele><time>2026-04-26T17:07:24.86Z</time></trkpt><trkpt lat="44.9232972" lon="12.1058429"><ele>-2.6666666666666665</ele><time>2026-04-26T17:07:25.859Z</time></trkpt><trkpt lat="44.9234395" lon="12.1060643"><ele>-3.0</ele><time>2026-04-26T17:07:26.859Z</time></trkpt><trkpt lat="44.9235855" lon="12.1062864"><ele>-3.0</ele><time>2026-04-26T17:07:27.859Z</time></trkpt><trkpt lat="44.9237285" lon="12.1065065"><ele>-3.0</ele><time>2026-04-26T17:07:28.859Z</time></trkpt><trkpt lat="44.9238758" lon="12.1067293"><ele>-3.0</ele><time>2026-04-26T17:07:29.86Z</time></trkpt><trkpt lat="44.9240207" lon="12.1069481"><ele>-3.0</ele><time>2026-04-26T17:07:30.859Z</time></trkpt><trkpt lat="44.9241641" lon="12.1071717"><ele>-3.0</ele><time>2026-04-26T17:07:31.859Z</time></trkpt><trkpt lat="44.9243111" lon="12.1073894"><ele>-3.0</ele><time>2026-04-26T17:07:32.86Z</time></trkpt><trkpt lat="44.9244521" lon="12.1076019"><ele>-2.0</ele><time>2026-04-26T17:07:33.86Z</time></trkpt><trkpt lat="44.9245903" lon="12.1078123"><ele>-1.0</ele><time>2026-04-26T17:07:34.859Z</time></trkpt><trkpt lat="44.9247239" lon="12.1080148"><ele>0.0</ele><time>2026-04-26T17:07:35.86Z</time></trkpt><trkpt lat="44.9248547" lon="12.1082177"><ele>-0.6666666666666666</ele><time>2026-04-26T17:07:36.859Z</time></trkpt><trkpt lat="44.9249783" lon="12.1084148"><ele>-1.3333333333333333</ele><time>2026-04-26T17:07:37.859Z</time></trkpt><trkpt lat="44.9251095" lon="12.1086173"><ele>-2.0</ele><time>2026-04-26T17:07:38.86Z</time></trkpt><trkpt lat="44.9252376" lon="12.1088189"><ele>-2.0</ele><time>2026-04-26T17:07:39.859Z</time></trkpt><trkpt lat="44.9253651" lon="12.1090219"><ele>-2.0</ele><time>2026-04-26T17:07:40.859Z</time></trkpt><trkpt lat="44.9254878" lon="12.1092159"><ele>-2.0</ele><time>2026-04-26T17:07:41.859Z</time></trkpt><trkpt lat="44.925621" lon="12.1094211"><ele>-2.0</ele><time>2026-04-26T17:07:42.859Z</time></trkpt><trkpt lat="44.9257528" lon="12.109626"><ele>-2.0</ele><time>2026-04-26T17:07:43.859Z</time></trkpt><trkpt lat="44.9258856" lon="12.1098295"><ele>-2.0</ele><time>2026-04-26T17:07:44.86Z</time></trkpt><trkpt lat="44.9260161" lon="12.110032"><ele>-2.333333333333333</ele><time>2026-04-26T17:07:45.86Z</time></trkpt><trkpt lat="44.9261532" lon="12.1102392"><ele>-2.6666666666666665</ele><time>2026-04-26T17:07:46.86Z</time></trkpt><trkpt lat="44.9262873" lon="12.1104428"><ele>-3.0</ele><time>2026-04-26T17:07:47.859Z</time></trkpt><trkpt lat="44.9264228" lon="12.1106533"><ele>-3.333333333333333</ele><time>2026-04-26T17:07:48.86Z</time></trkpt><trkpt lat="44.9265592" lon="12.1108596"><ele>-3.6666666666666665</ele><time>2026-04-26T17:07:49.859Z</time></trkpt><trkpt lat="44.9266952" lon="12.1110664"><ele>-4.0</ele><time>2026-04-26T17:07:50.859Z</time></trkpt><trkpt lat="44.9268281" lon="12.1112689"><ele>-3.0</ele><time>2026-04-26T17:07:51.859Z</time></trkpt><trkpt lat="44.9269621" lon="12.1114769"><ele>-2.0</ele><time>2026-04-26T17:07:52.859Z</time></trkpt><trkpt lat="44.9270961" lon="12.1116844"><ele>-1.0</ele><time>2026-04-26T17:07:53.859Z</time></trkpt><trkpt lat="44.9272316" lon="12.1118897"><ele>-1.0</ele><time>2026-04-26T17:07:54.859Z</time></trkpt><trkpt lat="44.9273641" lon="12.1120962"><ele>-1.0</ele><time>2026-04-26T17:07:55.859Z</time></trkpt><trkpt lat="44.9274967" lon="12.1122996"><ele>-1.0</ele><time>2026-04-26T17:07:56.859Z</time></trkpt><trkpt lat="44.9276307" lon="12.1124939"><ele>-1.0</ele><time>2026-04-26T17:07:57.859Z</time></trkpt><trkpt lat="44.9277655" lon="12.1126889"><ele>-1.0</ele><time>2026-04-26T17:07:58.859Z</time></trkpt><trkpt lat="44.9279072" lon="12.1128727"><ele>-1.0</ele><time>2026-04-26T17:07:59.859Z</time></trkpt><trkpt lat="44.9280551" lon="12.1130523"><ele>-1.0</ele><time>2026-04-26T17:08:00.86Z</time></trkpt><trkpt lat="44.928209" lon="12.1132234"><ele>-1.0</ele><time>2026-04-26T17:08:01.859Z</time></trkpt><trkpt lat="44.9283686" lon="12.1133857"><ele>-1.0</ele><time>2026-04-26T17:08:02.859Z</time></trkpt><trkpt lat="44.9285362" lon="12.1135363"><ele>-1.0</ele><time>2026-04-26T17:08:03.859Z</time></trkpt><trkpt lat="44.9287106" lon="12.1136772"><ele>-1.0</ele><time>2026-04-26T17:08:04.859Z</time></trkpt><trkpt lat="44.9288892" lon="12.1138082"><ele>-1.0</ele><time>2026-04-26T17:08:05.86Z</time></trkpt><trkpt lat="44.9290691" lon="12.1139382"><ele>-1.3333333333333333</ele><time>2026-04-26T17:08:06.86Z</time></trkpt><trkpt lat="44.9292507" lon="12.1140677"><ele>-1.6666666666666665</ele><time>2026-04-26T17:08:07.859Z</time></trkpt><trkpt lat="44.9294362" lon="12.1141966"><ele>-2.0</ele><time>2026-04-26T17:08:08.859Z</time></trkpt><trkpt lat="44.9296204" lon="12.1143319"><ele>-2.6666666666666665</ele><time>2026-04-26T17:08:09.859Z</time></trkpt><trkpt lat="44.9297999" lon="12.1144632"><ele>-3.333333333333333</ele><time>2026-04-26T17:08:10.859Z</time></trkpt><trkpt lat="44.9299771" lon="12.1145863"><ele>-4.0</ele><time>2026-04-26T17:08:11.86Z</time></trkpt><trkpt lat="44.9301545" lon="12.1147091"><ele>-4.0</ele><time>2026-04-26T17:08:12.859Z</time></trkpt><trkpt lat="44.9303287" lon="12.1148342"><ele>-4.0</ele><time>2026-04-26T17:08:13.859Z</time></trkpt><trkpt lat="44.9305058" lon="12.1149616"><ele>-4.0</ele><time>2026-04-26T17:08:14.859Z</time></trkpt><trkpt lat="44.9306832" lon="12.1150921"><ele>-4.0</ele><time>2026-04-26T17:08:15.859Z</time></trkpt><trkpt lat="44.9308606" lon="12.1152229"><ele>-4.0</ele><time>2026-04-26T17:08:16.86Z</time></trkpt><trkpt lat="44.9310392" lon="12.1153494"><ele>-4.0</ele><time>2026-04-26T17:08:17.86Z</time></trkpt><trkpt lat="44.9312134" lon="12.1154814"><ele>-4.0</ele><time>2026-04-26T17:08:18.859Z</time></trkpt><trkpt lat="44.9313906" lon="12.1156122"><ele>-4.0</ele><time>2026-04-26T17:08:19.86Z</time></trkpt><trkpt lat="44.9315675" lon="12.1157365"><ele>-4.0</ele><time>2026-04-26T17:08:20.86Z</time></trkpt><trkpt lat="44.9317456" lon="12.1158612"><ele>-3.6666666666666665</ele><time>2026-04-26T17:08:21.859Z</time></trkpt><trkpt lat="44.9319192" lon="12.1159944"><ele>-3.333333333333333</ele><time>2026-04-26T17:08:22.859Z</time></trkpt><trkpt lat="44.9320971" lon="12.116122"><ele>-3.0</ele><time>2026-04-26T17:08:23.859Z</time></trkpt><trkpt lat="44.9322705" lon="12.1162442"><ele>-3.0</ele><time>2026-04-26T17:08:24.86Z</time></trkpt><trkpt lat="44.9324477" lon="12.1163641"><ele>-3.0</ele><time>2026-04-26T17:08:25.859Z</time></trkpt><trkpt lat="44.932625" lon="12.1164902"><ele>-3.0</ele><time>2026-04-26T17:08:26.859Z</time></trkpt><trkpt lat="44.9328015" lon="12.1166118"><ele>-3.333333333333333</ele><time>2026-04-26T17:08:27.86Z</time></trkpt><trkpt lat="44.9329761" lon="12.1167362"><ele>-3.6666666666666665</ele><time>2026-04-26T17:08:28.86Z</time></trkpt><trkpt lat="44.9331529" lon="12.1168624"><ele>-4.0</ele><time>2026-04-26T17:08:29.86Z</time></trkpt><trkpt lat="44.9333228" lon="12.116985"><ele>-3.333333333333333</ele><time>2026-04-26T17:08:30.859Z</time></trkpt><trkpt lat="44.9335032" lon="12.1171126"><ele>-2.6666666666666665</ele><time>2026-04-26T17:08:31.86Z</time></trkpt><trkpt lat="44.9336832" lon="12.1172402"><ele>-2.0</ele><time>2026-04-26T17:08:32.859Z</time></trkpt><trkpt lat="44.9338606" lon="12.1173645"><ele>-2.333333333333333</ele><time>2026-04-26T17:08:33.86Z</time></trkpt><trkpt lat="44.9340429" lon="12.1174927"><ele>-2.6666666666666665</ele><time>2026-04-26T17:08:34.86Z</time></trkpt><trkpt lat="44.9342247" lon="12.1176222"><ele>-3.0</ele><time>2026-04-26T17:08:35.86Z</time></trkpt><trkpt lat="44.9344017" lon="12.1177516"><ele>-3.333333333333333</ele><time>2026-04-26T17:08:36.859Z</time></trkpt><trkpt lat="44.9345802" lon="12.1178778"><ele>-3.6666666666666665</ele><time>2026-04-26T17:08:37.86Z</time></trkpt><trkpt lat="44.9347572" lon="12.1180026"><ele>-4.0</ele><time>2026-04-26T17:08:38.859Z</time></trkpt><trkpt lat="44.9349339" lon="12.1181287"><ele>-4.333333333333333</ele><time>2026-04-26T17:08:39.859Z</time></trkpt><trkpt lat="44.9351124" lon="12.1182543"><ele>-4.666666666666667</ele><time>2026-04-26T17:08:40.86Z</time></trkpt><trkpt lat="44.935291" lon="12.1183764"><ele>-5.0</ele><time>2026-04-26T17:08:41.86Z</time></trkpt><trkpt lat="44.9354655" lon="12.1184996"><ele>-5.0</ele><time>2026-04-26T17:08:42.859Z</time></trkpt><trkpt lat="44.9356412" lon="12.1186213"><ele>-5.0</ele><time>2026-04-26T17:08:43.86Z</time></trkpt><trkpt lat="44.9358144" lon="12.1187465"><ele>-5.0</ele><time>2026-04-26T17:08:44.86Z</time></trkpt><trkpt lat="44.9359782" lon="12.118867"><ele>-4.666666666666667</ele><time>2026-04-26T17:08:45.86Z</time></trkpt><trkpt lat="44.9361281" lon="12.1189914"><ele>-4.333333333333333</ele><time>2026-04-26T17:08:46.859Z</time></trkpt><trkpt lat="44.9362717" lon="12.1191046"><ele>-4.0</ele><time>2026-04-26T17:08:47.86Z</time></trkpt><trkpt lat="44.9364068" lon="12.1192082"><ele>-3.75</ele><time>2026-04-26T17:08:48.859Z</time></trkpt><trkpt lat="44.9365345" lon="12.119301"><ele>-3.5</ele><time>2026-04-26T17:08:49.859Z</time></trkpt><trkpt lat="44.9366448" lon="12.1193781"><ele>-3.25</ele><time>2026-04-26T17:08:50.86Z</time></trkpt><trkpt lat="44.9367453" lon="12.1194478"><ele>-3.0</ele><time>2026-04-26T17:08:51.86Z</time></trkpt><trkpt lat="44.9368262" lon="12.1195283"><ele>-3.0</ele><time>2026-04-26T17:08:52.859Z</time></trkpt><trkpt lat="44.9368889" lon="12.1196222"><ele>-3.0</ele><time>2026-04-26T17:08:53.859Z</time></trkpt><trkpt lat="44.9369389" lon="12.1197356"><ele>-3.0</ele><time>2026-04-26T17:08:54.86Z</time></trkpt><trkpt lat="44.9369746" lon="12.1198597"><ele>-3.0</ele><time>2026-04-26T17:08:55.859Z</time></trkpt><trkpt lat="44.9369847" lon="12.1200026"><ele>-3.0</ele><time>2026-04-26T17:08:56.859Z</time></trkpt><trkpt lat="44.9369792" lon="12.1201507"><ele>-3.0</ele><time>2026-04-26T17:08:57.859Z</time></trkpt><trkpt lat="44.9369792" lon="12.1203028"><ele>-3.0</ele><time>2026-04-26T17:08:58.859Z</time></trkpt><trkpt lat="44.9369968" lon="12.1204552"><ele>-3.0</ele><time>2026-04-26T17:08:59.86Z</time></trkpt><trkpt lat="44.9370415" lon="12.1205926"><ele>-3.0</ele><time>2026-04-26T17:09:00.859Z</time></trkpt><trkpt lat="44.9371091" lon="12.1207156"><ele>-3.0</ele><time>2026-04-26T17:09:01.859Z</time></trkpt><trkpt lat="44.9371979" lon="12.1208112"><ele>-3.0</ele><time>2026-04-26T17:09:02.859Z</time></trkpt><trkpt lat="44.9373157" lon="12.1208777"><ele>-3.0</ele><time>2026-04-26T17:09:03.86Z</time></trkpt><trkpt lat="44.9374635" lon="12.1209276"><ele>-3.0</ele><time>2026-04-26T17:09:04.86Z</time></trkpt><trkpt lat="44.9376275" lon="12.1209613"><ele>-3.0</ele><time>2026-04-26T17:09:05.86Z</time></trkpt><trkpt lat="44.9377925" lon="12.1209889"><ele>-3.0</ele><time>2026-04-26T17:09:06.86Z</time></trkpt><trkpt lat="44.9379665" lon="12.1210199"><ele>-3.0</ele><time>2026-04-26T17:09:07.86Z</time></trkpt><trkpt lat="44.9381371" lon="12.1210567"><ele>-3.0</ele><time>2026-04-26T17:09:08.859Z</time></trkpt><trkpt lat="44.9383019" lon="12.1211125"><ele>-2.6666666666666665</ele><time>2026-04-26T17:09:09.859Z</time></trkpt><trkpt lat="44.9384566" lon="12.1211915"><ele>-2.333333333333333</ele><time>2026-04-26T17:09:10.859Z</time></trkpt><trkpt lat="44.9385979" lon="12.1212838"><ele>-2.0</ele><time>2026-04-26T17:09:11.859Z</time></trkpt><trkpt lat="44.9387336" lon="12.1213925"><ele>-2.0</ele><time>2026-04-26T17:09:12.859Z</time></trkpt><trkpt lat="44.9388624" lon="12.1215199"><ele>-2.0</ele><time>2026-04-26T17:09:13.859Z</time></trkpt><trkpt lat="44.9389865" lon="12.1216654"><ele>-2.0</ele><time>2026-04-26T17:09:14.859Z</time></trkpt><trkpt lat="44.9390868" lon="12.121817"><ele>-2.0</ele><time>2026-04-26T17:09:15.86Z</time></trkpt><trkpt lat="44.9391751" lon="12.1219716"><ele>-2.0</ele><time>2026-04-26T17:09:16.859Z</time></trkpt><trkpt lat="44.9392638" lon="12.1221391"><ele>-2.0</ele><time>2026-04-26T17:09:17.859Z</time></trkpt><trkpt lat="44.939352" lon="12.1223059"><ele>-2.0</ele><time>2026-04-26T17:09:18.86Z</time></trkpt><trkpt lat="44.9394337" lon="12.1224655"><ele>-1.25</ele><time>2026-04-26T17:09:19.859Z</time></trkpt><trkpt lat="44.9395089" lon="12.1226095"><ele>-0.5</ele><time>2026-04-26T17:09:20.86Z</time></trkpt><trkpt lat="44.9395747" lon="12.1227407"><ele>0.25</ele><time>2026-04-26T17:09:21.86Z</time></trkpt><trkpt lat="44.9396349" lon="12.122858"><ele>1.0</ele><time>2026-04-26T17:09:22.859Z</time></trkpt><trkpt lat="44.939697" lon="12.1229817"><ele>1.0</ele><time>2026-04-26T17:09:23.86Z</time></trkpt><trkpt lat="44.9397615" lon="12.1231131"><ele>1.0</ele><time>2026-04-26T17:09:24.859Z</time></trkpt><trkpt lat="44.9398281" lon="12.1232474"><ele>1.0</ele><time>2026-04-26T17:09:25.859Z</time></trkpt><trkpt lat="44.9398991" lon="12.1233862"><ele>1.0</ele><time>2026-04-26T17:09:26.859Z</time></trkpt><trkpt lat="44.9399653" lon="12.1235178"><ele>0.9999999999999999</ele><time>2026-04-26T17:09:27.859Z</time></trkpt><trkpt lat="44.9400192" lon="12.1236417"><ele>1.0</ele><time>2026-04-26T17:09:28.86Z</time></trkpt><trkpt lat="44.9400528" lon="12.1237567"><ele>1.0</ele><time>2026-04-26T17:09:29.859Z</time></trkpt><trkpt lat="44.9400726" lon="12.1238521"><ele>1.0</ele><time>2026-04-26T17:09:30.86Z</time></trkpt><trkpt lat="44.9401098" lon="12.1239501"><ele>0.9999999999999999</ele><time>2026-04-26T17:09:32.859Z</time></trkpt><trkpt lat="44.9401649" lon="12.1240122"><ele>1.0</ele><time>2026-04-26T17:09:44.86Z</time></trkpt><trkpt lat="44.94029" lon="12.1239917"><ele>1.0</ele><time>2026-04-26T17:09:46.86Z</time></trkpt><trkpt lat="44.9403787" lon="12.1239221"><ele>1.0</ele><time>2026-04-26T17:09:47.859Z</time></trkpt><trkpt lat="44.9404834" lon="12.1238308"><ele>1.0</ele><time>2026-04-26T17:09:48.86Z</time></trkpt><trkpt lat="44.9405942" lon="12.1237297"><ele>1.0</ele><time>2026-04-26T17:09:49.86Z</time></trkpt><trkpt lat="44.9407828" lon="12.1235651"><ele>1.3333333333333333</ele><time>2026-04-26T17:09:50.86Z</time></trkpt><trkpt lat="44.9409576" lon="12.1234226"><ele>1.6666666666666665</ele><time>2026-04-26T17:09:51.859Z</time></trkpt><trkpt lat="44.94116" lon="12.1232561"><ele>2.0</ele><time>2026-04-26T17:09:52.859Z</time></trkpt><trkpt lat="44.9413545" lon="12.1230964"><ele>1.6666666666666665</ele><time>2026-04-26T17:09:53.859Z</time></trkpt><trkpt lat="44.9415351" lon="12.1229452"><ele>1.3333333333333333</ele><time>2026-04-26T17:09:54.86Z</time></trkpt><trkpt lat="44.941705" lon="12.12281"><ele>1.0</ele><time>2026-04-26T17:09:55.859Z</time></trkpt><trkpt lat="44.9418558" lon="12.1226887"><ele>1.0</ele><time>2026-04-26T17:09:56.859Z</time></trkpt><trkpt lat="44.9419938" lon="12.1225724"><ele>1.0</ele><time>2026-04-26T17:09:57.859Z</time></trkpt><trkpt lat="44.9421182" lon="12.1224593"><ele>1.0</ele><time>2026-04-26T17:09:58.86Z</time></trkpt><trkpt lat="44.9422274" lon="12.1223423"><ele>1.0</ele><time>2026-04-26T17:09:59.859Z</time></trkpt><trkpt lat="44.942318" lon="12.1222343"><ele>1.1666666666666665</ele><time>2026-04-26T17:10:00.859Z</time></trkpt><trkpt lat="44.942391" lon="12.1221276"><ele>1.3333333333333333</ele><time>2026-04-26T17:10:01.859Z</time></trkpt><trkpt lat="44.9424521" lon="12.1220314"><ele>1.5</ele><time>2026-04-26T17:10:02.859Z</time></trkpt><trkpt lat="44.9425004" lon="12.1219636"><ele>1.6666666666666665</ele><time>2026-04-26T17:10:03.859Z</time></trkpt><trkpt lat="44.9425616" lon="12.1218939"><ele>1.8333333333333333</ele><time>2026-04-26T17:10:05.859Z</time></trkpt><trkpt lat="44.9426228" lon="12.1218182"><ele>2.0</ele><time>2026-04-26T17:10:09.859Z</time></trkpt><trkpt lat="44.9426686" lon="12.1216751"><ele>2.2</ele><time>2026-04-26T17:10:11.859Z</time></trkpt><trkpt lat="44.9426944" lon="12.1215615"><ele>2.4000000000000004</ele><time>2026-04-26T17:10:12.859Z</time></trkpt><trkpt lat="44.9427412" lon="12.1214093"><ele>2.5999999999999996</ele><time>2026-04-26T17:10:13.86Z</time></trkpt><trkpt lat="44.942797" lon="12.1212641"><ele>2.8</ele><time>2026-04-26T17:10:14.859Z</time></trkpt><trkpt lat="44.9428597" lon="12.1211184"><ele>3.0</ele><time>2026-04-26T17:10:15.86Z</time></trkpt><trkpt lat="44.9429235" lon="12.1209638"><ele>3.0</ele><time>2026-04-26T17:10:16.859Z</time></trkpt><trkpt lat="44.9429795" lon="12.120818"><ele>3.0</ele><time>2026-04-26T17:10:17.86Z</time></trkpt><trkpt lat="44.9430326" lon="12.120681"><ele>3.0</ele><time>2026-04-26T17:10:18.86Z</time></trkpt><trkpt lat="44.9430779" lon="12.1205458"><ele>3.0</ele><time>2026-04-26T17:10:19.86Z</time></trkpt><trkpt lat="44.9431222" lon="12.1204206"><ele>3.0</ele><time>2026-04-26T17:10:20.859Z</time></trkpt><trkpt lat="44.9431589" lon="12.1202908"><ele>2.4</ele><time>2026-04-26T17:10:21.86Z</time></trkpt><trkpt lat="44.9431869" lon="12.1201599"><ele>1.7999999999999998</ele><time>2026-04-26T17:10:22.859Z</time></trkpt><trkpt lat="44.9432022" lon="12.1200294"><ele>1.2</ele><time>2026-04-26T17:10:23.86Z</time></trkpt><trkpt lat="44.9432009" lon="12.1198906"><ele>0.6</ele><time>2026-04-26T17:10:24.859Z</time></trkpt><trkpt lat="44.9431871" lon="12.1197572"><ele>0.0</ele><time>2026-04-26T17:10:25.859Z</time></trkpt><trkpt lat="44.9431624" lon="12.1196212"><ele>0.0</ele><time>2026-04-26T17:10:26.86Z</time></trkpt><trkpt lat="44.9431299" lon="12.1194953"><ele>0.0</ele><time>2026-04-26T17:10:27.86Z</time></trkpt><trkpt lat="44.9430913" lon="12.1193852"><ele>0.0</ele><time>2026-04-26T17:10:28.859Z</time></trkpt><trkpt lat="44.9430555" lon="12.1192882"><ele>0.0</ele><time>2026-04-26T17:10:29.86Z</time></trkpt><trkpt lat="44.9430265" lon="12.119205"><ele>0.0</ele><time>2026-04-26T17:10:30.859Z</time></trkpt><trkpt lat="44.9429719" lon="12.1190551"><ele>0.0</ele><time>2026-04-26T17:10:32.859Z</time></trkpt><trkpt lat="44.9429129" lon="12.1189271"><ele>0.16666666666666666</ele><time>2026-04-26T17:10:34.86Z</time></trkpt><trkpt lat="44.942866" lon="12.118862"><ele>0.3333333333333333</ele><time>2026-04-26T17:10:35.859Z</time></trkpt><trkpt lat="44.9428194" lon="12.1187936"><ele>0.5</ele><time>2026-04-26T17:10:36.859Z</time></trkpt><trkpt lat="44.9427693" lon="12.1187338"><ele>0.6666666666666666</ele><time>2026-04-26T17:10:37.859Z</time></trkpt><trkpt lat="44.9427086" lon="12.1186051"><ele>0.8333333333333333</ele><time>2026-04-26T17:10:39.86Z</time></trkpt><trkpt lat="44.9427436" lon="12.118482"><ele>1.0</ele><time>2026-04-26T17:10:41.859Z</time></trkpt><trkpt lat="44.9427971" lon="12.1183971"><ele>1.0</ele><time>2026-04-26T17:10:42.859Z</time></trkpt><trkpt lat="44.9428622" lon="12.118281"><ele>1.0</ele><time>2026-04-26T17:10:43.86Z</time></trkpt><trkpt lat="44.9429405" lon="12.1181397"><ele>1.0</ele><time>2026-04-26T17:10:44.86Z</time></trkpt><trkpt lat="44.9430451" lon="12.1179667"><ele>1.0</ele><time>2026-04-26T17:10:45.859Z</time></trkpt><trkpt lat="44.9431497" lon="12.1177926"><ele>0.3333333333333333</ele><time>2026-04-26T17:10:46.859Z</time></trkpt><trkpt lat="44.9432729" lon="12.1176091"><ele>-0.3333333333333333</ele><time>2026-04-26T17:10:47.86Z</time></trkpt><trkpt lat="44.9434131" lon="12.1174216"><ele>-1.0</ele><time>2026-04-26T17:10:48.86Z</time></trkpt><trkpt lat="44.9435444" lon="12.117226"><ele>-2.0</ele><time>2026-04-26T17:10:49.86Z</time></trkpt><trkpt lat="44.9436488" lon="12.1170242"><ele>-3.0</ele><time>2026-04-26T17:10:50.859Z</time></trkpt><trkpt lat="44.9437449" lon="12.1168422"><ele>-4.0</ele><time>2026-04-26T17:10:51.859Z</time></trkpt><trkpt lat="44.9438308" lon="12.116687"><ele>-4.0</ele><time>2026-04-26T17:10:52.86Z</time></trkpt><trkpt lat="44.9439103" lon="12.1165466"><ele>-4.0</ele><time>2026-04-26T17:10:53.859Z</time></trkpt><trkpt lat="44.9439936" lon="12.1164122"><ele>-4.0</ele><time>2026-04-26T17:10:54.859Z</time></trkpt><trkpt lat="44.9440748" lon="12.1162878"><ele>-4.0</ele><time>2026-04-26T17:10:55.859Z</time></trkpt><trkpt lat="44.9442152" lon="12.1161584"><ele>-3.6666666666666665</ele><time>2026-04-26T17:10:56.859Z</time></trkpt><trkpt lat="44.9443705" lon="12.1160538"><ele>-3.333333333333333</ele><time>2026-04-26T17:10:57.859Z</time></trkpt><trkpt lat="44.9445565" lon="12.1159574"><ele>-3.0</ele><time>2026-04-26T17:10:58.859Z</time></trkpt><trkpt lat="44.9447704" lon="12.1158593"><ele>-3.0</ele><time>2026-04-26T17:10:59.86Z</time></trkpt><trkpt lat="44.9450052" lon="12.1157463"><ele>-3.0</ele><time>2026-04-26T17:11:00.86Z</time></trkpt><trkpt lat="44.9452448" lon="12.1156304"><ele>-3.0</ele><time>2026-04-26T17:11:01.859Z</time></trkpt><trkpt lat="44.9454686" lon="12.1155191"><ele>-3.0</ele><time>2026-04-26T17:11:02.859Z</time></trkpt><trkpt lat="44.9456795" lon="12.1154155"><ele>-3.0</ele><time>2026-04-26T17:11:03.86Z</time></trkpt><trkpt lat="44.9458737" lon="12.1153115"><ele>-3.0</ele><time>2026-04-26T17:11:04.859Z</time></trkpt><trkpt lat="44.9460578" lon="12.1151911"><ele>-3.0</ele><time>2026-04-26T17:11:05.859Z</time></trkpt><trkpt lat="44.9462403" lon="12.1150509"><ele>-3.333333333333333</ele><time>2026-04-26T17:11:06.859Z</time></trkpt><trkpt lat="44.9464173" lon="12.1148988"><ele>-3.6666666666666665</ele><time>2026-04-26T17:11:07.86Z</time></trkpt><trkpt lat="44.9465949" lon="12.1147419"><ele>-4.0</ele><time>2026-04-26T17:11:08.859Z</time></trkpt><trkpt lat="44.9467702" lon="12.1145916"><ele>-3.333333333333333</ele><time>2026-04-26T17:11:09.86Z</time></trkpt><trkpt lat="44.9469366" lon="12.1144508"><ele>-2.6666666666666665</ele><time>2026-04-26T17:11:10.859Z</time></trkpt><trkpt lat="44.9470979" lon="12.1143132"><ele>-2.0</ele><time>2026-04-26T17:11:11.86Z</time></trkpt><trkpt lat="44.9472537" lon="12.1141775"><ele>-2.333333333333333</ele><time>2026-04-26T17:11:12.859Z</time></trkpt><trkpt lat="44.947404" lon="12.1140461"><ele>-2.6666666666666665</ele><time>2026-04-26T17:11:13.859Z</time></trkpt><trkpt lat="44.9475525" lon="12.1139154"><ele>-3.0</ele><time>2026-04-26T17:11:14.859Z</time></trkpt><trkpt lat="44.9477085" lon="12.1137923"><ele>-3.0</ele><time>2026-04-26T17:11:15.859Z</time></trkpt><trkpt lat="44.9478728" lon="12.1136884"><ele>-3.0</ele><time>2026-04-26T17:11:16.859Z</time></trkpt><trkpt lat="44.9480523" lon="12.1136113"><ele>-3.0</ele><time>2026-04-26T17:11:17.859Z</time></trkpt><trkpt lat="44.9482419" lon="12.1135538"><ele>-2.6666666666666665</ele><time>2026-04-26T17:11:18.859Z</time></trkpt><trkpt lat="44.9484334" lon="12.1135018"><ele>-2.333333333333333</ele><time>2026-04-26T17:11:19.86Z</time></trkpt><trkpt lat="44.9486319" lon="12.1134517"><ele>-2.0</ele><time>2026-04-26T17:11:20.86Z</time></trkpt><trkpt lat="44.948835" lon="12.1134134"><ele>-2.0</ele><time>2026-04-26T17:11:21.859Z</time></trkpt><trkpt lat="44.9490426" lon="12.1133853"><ele>-2.0</ele><time>2026-04-26T17:11:22.86Z</time></trkpt><trkpt lat="44.9492543" lon="12.113354"><ele>-2.0</ele><time>2026-04-26T17:11:23.86Z</time></trkpt><trkpt lat="44.9494675" lon="12.1133137"><ele>-1.6666666666666665</ele><time>2026-04-26T17:11:24.859Z</time></trkpt><trkpt lat="44.9496817" lon="12.1132674"><ele>-1.3333333333333333</ele><time>2026-04-26T17:11:25.859Z</time></trkpt><trkpt lat="44.9498942" lon="12.1132048"><ele>-1.0</ele><time>2026-04-26T17:11:26.86Z</time></trkpt><trkpt lat="44.9501057" lon="12.1131249"><ele>-2.3333333333333335</ele><time>2026-04-26T17:11:27.86Z</time></trkpt><trkpt lat="44.9503149" lon="12.1130274"><ele>-3.666666666666667</ele><time>2026-04-26T17:11:28.86Z</time></trkpt><trkpt lat="44.9505224" lon="12.112921"><ele>-5.0</ele><time>2026-04-26T17:11:29.859Z</time></trkpt><trkpt lat="44.9507282" lon="12.1127991"><ele>-5.0</ele><time>2026-04-26T17:11:30.86Z</time></trkpt><trkpt lat="44.9509284" lon="12.1126721"><ele>-5.0</ele><time>2026-04-26T17:11:31.86Z</time></trkpt><trkpt lat="44.9511271" lon="12.1125332"><ele>-5.0</ele><time>2026-04-26T17:11:32.859Z</time></trkpt><trkpt lat="44.951323" lon="12.1123858"><ele>-5.0</ele><time>2026-04-26T17:11:33.86Z</time></trkpt><trkpt lat="44.9515118" lon="12.1122221"><ele>-5.0</ele><time>2026-04-26T17:11:34.86Z</time></trkpt><trkpt lat="44.9516942" lon="12.1120486"><ele>-5.0</ele><time>2026-04-26T17:11:35.86Z</time></trkpt><trkpt lat="44.9518753" lon="12.1118685"><ele>-4.666666666666667</ele><time>2026-04-26T17:11:36.859Z</time></trkpt><trkpt lat="44.9520587" lon="12.111691"><ele>-4.333333333333333</ele><time>2026-04-26T17:11:37.859Z</time></trkpt><trkpt lat="44.9522409" lon="12.1115053"><ele>-4.0</ele><time>2026-04-26T17:11:38.859Z</time></trkpt><trkpt lat="44.9524284" lon="12.1113241"><ele>-3.5</ele><time>2026-04-26T17:11:39.86Z</time></trkpt><trkpt lat="44.9526182" lon="12.1111411"><ele>-3.0</ele><time>2026-04-26T17:11:40.859Z</time></trkpt><trkpt lat="44.9528041" lon="12.1109524"><ele>-3.0</ele><time>2026-04-26T17:11:41.859Z</time></trkpt><trkpt lat="44.9529818" lon="12.1107433"><ele>-3.0</ele><time>2026-04-26T17:11:42.859Z</time></trkpt><trkpt lat="44.9531557" lon="12.1104999"><ele>-4.0</ele><time>2026-04-26T17:11:43.859Z</time></trkpt><trkpt lat="44.9533288" lon="12.1102305"><ele>-5.0</ele><time>2026-04-26T17:11:44.86Z</time></trkpt><trkpt lat="44.9534987" lon="12.1099452"><ele>-5.5</ele><time>2026-04-26T17:11:45.859Z</time></trkpt><trkpt lat="44.9536689" lon="12.1096579"><ele>-6.0</ele><time>2026-04-26T17:11:46.86Z</time></trkpt><trkpt lat="44.9538361" lon="12.1093662"><ele>-6.0</ele><time>2026-04-26T17:11:47.86Z</time></trkpt><trkpt lat="44.9539981" lon="12.1090785"><ele>-6.0</ele><time>2026-04-26T17:11:48.859Z</time></trkpt><trkpt lat="44.9541599" lon="12.108794"><ele>-4.5</ele><time>2026-04-26T17:11:49.86Z</time></trkpt><trkpt lat="44.9543177" lon="12.108509"><ele>-3.0</ele><time>2026-04-26T17:11:50.86Z</time></trkpt><trkpt lat="44.9544779" lon="12.108223"><ele>-3.0</ele><time>2026-04-26T17:11:51.86Z</time></trkpt><trkpt lat="44.954635" lon="12.1079318"><ele>-3.0</ele><time>2026-04-26T17:11:52.86Z</time></trkpt><trkpt lat="44.9547819" lon="12.1076354"><ele>-2.5</ele><time>2026-04-26T17:11:53.859Z</time></trkpt><trkpt lat="44.9549135" lon="12.1073381"><ele>-2.0</ele><time>2026-04-26T17:11:54.859Z</time></trkpt><trkpt lat="44.9550366" lon="12.1070372"><ele>-2.5</ele><time>2026-04-26T17:11:55.859Z</time></trkpt><trkpt lat="44.9551543" lon="12.1067352"><ele>-3.0</ele><time>2026-04-26T17:11:56.859Z</time></trkpt><trkpt lat="44.9552768" lon="12.1064375"><ele>-3.0</ele><time>2026-04-26T17:11:57.859Z</time></trkpt><trkpt lat="44.9554132" lon="12.1061531"><ele>-3.0</ele><time>2026-04-26T17:11:58.86Z</time></trkpt><trkpt lat="44.9555575" lon="12.1058747"><ele>-2.5</ele><time>2026-04-26T17:11:59.859Z</time></trkpt><trkpt lat="44.9557042" lon="12.1055969"><ele>-2.0</ele><time>2026-04-26T17:12:00.859Z</time></trkpt><trkpt lat="44.9558488" lon="12.1053202"><ele>-2.0</ele><time>2026-04-26T17:12:01.86Z</time></trkpt><trkpt lat="44.9559828" lon="12.105038"><ele>-2.0</ele><time>2026-04-26T17:12:02.859Z</time></trkpt><trkpt lat="44.9561157" lon="12.1047604"><ele>-2.0</ele><time>2026-04-26T17:12:03.859Z</time></trkpt><trkpt lat="44.9562371" lon="12.1044721"><ele>-2.0</ele><time>2026-04-26T17:12:04.859Z</time></trkpt><trkpt lat="44.9563577" lon="12.1041808"><ele>-2.5</ele><time>2026-04-26T17:12:05.859Z</time></trkpt><trkpt lat="44.9564796" lon="12.1038855"><ele>-3.0</ele><time>2026-04-26T17:12:06.859Z</time></trkpt><trkpt lat="44.9566044" lon="12.1035943"><ele>-1.5</ele><time>2026-04-26T17:12:07.859Z</time></trkpt><trkpt lat="44.9567388" lon="12.1033071"><ele>0.0</ele><time>2026-04-26T17:12:08.86Z</time></trkpt><trkpt lat="44.9568767" lon="12.1030189"><ele>0.0</ele><time>2026-04-26T17:12:09.86Z</time></trkpt><trkpt lat="44.9570236" lon="12.1027378"><ele>0.0</ele><time>2026-04-26T17:12:10.859Z</time></trkpt><trkpt lat="44.9571678" lon="12.1024555"><ele>-1.5</ele><time>2026-04-26T17:12:11.859Z</time></trkpt><trkpt lat="44.9573076" lon="12.1021699"><ele>-3.0</ele><time>2026-04-26T17:12:12.859Z</time></trkpt><trkpt lat="44.957444" lon="12.1018838"><ele>-2.5</ele><time>2026-04-26T17:12:13.859Z</time></trkpt><trkpt lat="44.9575775" lon="12.1016063"><ele>-2.0</ele><time>2026-04-26T17:12:14.859Z</time></trkpt><trkpt lat="44.9577037" lon="12.1013314"><ele>-3.0</ele><time>2026-04-26T17:12:15.859Z</time></trkpt><trkpt lat="44.9578329" lon="12.1010599"><ele>-4.0</ele><time>2026-04-26T17:12:16.859Z</time></trkpt><trkpt lat="44.9579515" lon="12.1007816"><ele>-3.5</ele><time>2026-04-26T17:12:17.859Z</time></trkpt><trkpt lat="44.9580596" lon="12.1004925"><ele>-3.0</ele><time>2026-04-26T17:12:18.859Z</time></trkpt><trkpt lat="44.9581678" lon="12.1002012"><ele>-2.5</ele><time>2026-04-26T17:12:19.859Z</time></trkpt><trkpt lat="44.9582733" lon="12.0999118"><ele>-2.0</ele><time>2026-04-26T17:12:20.859Z</time></trkpt><trkpt lat="44.9583804" lon="12.0996203"><ele>-2.5</ele><time>2026-04-26T17:12:21.86Z</time></trkpt><trkpt lat="44.9584894" lon="12.0993307"><ele>-3.0</ele><time>2026-04-26T17:12:22.859Z</time></trkpt><trkpt lat="44.9585957" lon="12.0990403"><ele>-3.0</ele><time>2026-04-26T17:12:23.859Z</time></trkpt><trkpt lat="44.9587062" lon="12.0987503"><ele>-3.0</ele><time>2026-04-26T17:12:24.859Z</time></trkpt><trkpt lat="44.9588178" lon="12.098454"><ele>-3.0</ele><time>2026-04-26T17:12:25.859Z</time></trkpt><trkpt lat="44.9589289" lon="12.0981612"><ele>-3.0</ele><time>2026-04-26T17:12:26.859Z</time></trkpt><trkpt lat="44.9590474" lon="12.0978715"><ele>-3.0</ele><time>2026-04-26T17:12:27.86Z</time></trkpt><trkpt lat="44.9591816" lon="12.0975958"><ele>-3.0</ele><time>2026-04-26T17:12:28.859Z</time></trkpt><trkpt lat="44.9593262" lon="12.0973294"><ele>-3.5</ele><time>2026-04-26T17:12:29.859Z</time></trkpt><trkpt lat="44.9594768" lon="12.0970619"><ele>-4.0</ele><time>2026-04-26T17:12:30.86Z</time></trkpt><trkpt lat="44.9596302" lon="12.0967947"><ele>-4.0</ele><time>2026-04-26T17:12:31.859Z</time></trkpt><trkpt lat="44.9597815" lon="12.0965187"><ele>-4.0</ele><time>2026-04-26T17:12:32.86Z</time></trkpt><trkpt lat="44.9599271" lon="12.0962233"><ele>-4.0</ele><time>2026-04-26T17:12:33.859Z</time></trkpt><trkpt lat="44.9600643" lon="12.0959217"><ele>-4.0</ele><time>2026-04-26T17:12:34.86Z</time></trkpt><trkpt lat="44.9601975" lon="12.0956253"><ele>-3.5</ele><time>2026-04-26T17:12:35.86Z</time></trkpt><trkpt lat="44.9603317" lon="12.0953318"><ele>-3.0</ele><time>2026-04-26T17:12:36.859Z</time></trkpt><trkpt lat="44.9604695" lon="12.0950358"><ele>-3.5</ele><time>2026-04-26T17:12:37.859Z</time></trkpt><trkpt lat="44.9606054" lon="12.0947392"><ele>-4.0</ele><time>2026-04-26T17:12:38.859Z</time></trkpt><trkpt lat="44.9607408" lon="12.0944397"><ele>-4.0</ele><time>2026-04-26T17:12:39.859Z</time></trkpt><trkpt lat="44.9608728" lon="12.094147"><ele>-4.0</ele><time>2026-04-26T17:12:40.859Z</time></trkpt><trkpt lat="44.9610052" lon="12.0938568"><ele>-4.0</ele><time>2026-04-26T17:12:41.86Z</time></trkpt><trkpt lat="44.9611423" lon="12.0935674"><ele>-4.0</ele><time>2026-04-26T17:12:42.859Z</time></trkpt><trkpt lat="44.9612797" lon="12.0932853"><ele>-3.5</ele><time>2026-04-26T17:12:43.859Z</time></trkpt><trkpt lat="44.9614261" lon="12.0930142"><ele>-3.0</ele><time>2026-04-26T17:12:44.859Z</time></trkpt><trkpt lat="44.9615761" lon="12.0927467"><ele>-3.0</ele><time>2026-04-26T17:12:45.86Z</time></trkpt><trkpt lat="44.9617277" lon="12.0924832"><ele>-3.0</ele><time>2026-04-26T17:12:46.86Z</time></trkpt><trkpt lat="44.9618832" lon="12.0922272"><ele>-3.5</ele><time>2026-04-26T17:12:47.86Z</time></trkpt><trkpt lat="44.9620379" lon="12.0919802"><ele>-4.0</ele><time>2026-04-26T17:12:48.859Z</time></trkpt><trkpt lat="44.962195" lon="12.0917437"><ele>-4.0</ele><time>2026-04-26T17:12:49.859Z</time></trkpt><trkpt lat="44.9623554" lon="12.0915226"><ele>-4.0</ele><time>2026-04-26T17:12:50.859Z</time></trkpt><trkpt lat="44.9625134" lon="12.0913132"><ele>-4.0</ele><time>2026-04-26T17:12:51.859Z</time></trkpt><trkpt lat="44.9626744" lon="12.0911021"><ele>-3.6666666666666665</ele><time>2026-04-26T17:12:52.859Z</time></trkpt><trkpt lat="44.9628294" lon="12.0908932"><ele>-3.333333333333333</ele><time>2026-04-26T17:12:53.86Z</time></trkpt><trkpt lat="44.9629847" lon="12.0906886"><ele>-3.0</ele><time>2026-04-26T17:12:54.86Z</time></trkpt><trkpt lat="44.9631416" lon="12.0904774"><ele>-2.6666666666666665</ele><time>2026-04-26T17:12:55.86Z</time></trkpt><trkpt lat="44.9632972" lon="12.0902712"><ele>-2.333333333333333</ele><time>2026-04-26T17:12:56.859Z</time></trkpt><trkpt lat="44.9634548" lon="12.0900698"><ele>-2.0</ele><time>2026-04-26T17:12:57.859Z</time></trkpt><trkpt lat="44.9635996" lon="12.0898736"><ele>-2.6666666666666665</ele><time>2026-04-26T17:12:58.86Z</time></trkpt><trkpt lat="44.9637346" lon="12.0896882"><ele>-3.333333333333333</ele><time>2026-04-26T17:12:59.86Z</time></trkpt><trkpt lat="44.9638499" lon="12.0894936"><ele>-4.0</ele><time>2026-04-26T17:13:00.86Z</time></trkpt><trkpt lat="44.9639453" lon="12.0892662"><ele>-3.6666666666666665</ele><time>2026-04-26T17:13:01.859Z</time></trkpt><trkpt lat="44.9640185" lon="12.088999"><ele>-3.333333333333333</ele><time>2026-04-26T17:13:02.859Z</time></trkpt><trkpt lat="44.9640644" lon="12.0886894"><ele>-3.0</ele><time>2026-04-26T17:13:03.859Z</time></trkpt><trkpt lat="44.9640909" lon="12.0883518"><ele>-3.0</ele><time>2026-04-26T17:13:04.859Z</time></trkpt><trkpt lat="44.9641061" lon="12.0879942"><ele>-3.0</ele><time>2026-04-26T17:13:05.859Z</time></trkpt><trkpt lat="44.9641143" lon="12.0876136"><ele>-2.5</ele><time>2026-04-26T17:13:06.86Z</time></trkpt><trkpt lat="44.9641226" lon="12.0872225"><ele>-2.0</ele><time>2026-04-26T17:13:07.86Z</time></trkpt><trkpt lat="44.9641286" lon="12.0868116"><ele>-2.5</ele><time>2026-04-26T17:13:08.86Z</time></trkpt><trkpt lat="44.9641395" lon="12.0864133"><ele>-3.0</ele><time>2026-04-26T17:13:09.859Z</time></trkpt><trkpt lat="44.9641446" lon="12.0860337"><ele>-2.5</ele><time>2026-04-26T17:13:10.86Z</time></trkpt><trkpt lat="44.9641501" lon="12.0856806"><ele>-2.0</ele><time>2026-04-26T17:13:11.86Z</time></trkpt><trkpt lat="44.9641591" lon="12.0853384"><ele>-2.0</ele><time>2026-04-26T17:13:12.86Z</time></trkpt><trkpt lat="44.9641655" lon="12.0850172"><ele>-2.0</ele><time>2026-04-26T17:13:13.86Z</time></trkpt><trkpt lat="44.9641715" lon="12.0847127"><ele>-2.0</ele><time>2026-04-26T17:13:14.859Z</time></trkpt><trkpt lat="44.9641714" lon="12.0844117"><ele>-1.6666666666666665</ele><time>2026-04-26T17:13:15.859Z</time></trkpt><trkpt lat="44.9641756" lon="12.0841024"><ele>-1.3333333333333333</ele><time>2026-04-26T17:13:16.859Z</time></trkpt><trkpt lat="44.9641809" lon="12.0837883"><ele>-1.0</ele><time>2026-04-26T17:13:17.86Z</time></trkpt><trkpt lat="44.9641881" lon="12.0834661"><ele>-1.5</ele><time>2026-04-26T17:13:18.86Z</time></trkpt><trkpt lat="44.9641901" lon="12.0831403"><ele>-2.0</ele><time>2026-04-26T17:13:19.859Z</time></trkpt><trkpt lat="44.9641976" lon="12.0828178"><ele>1.5</ele><time>2026-04-26T17:13:20.859Z</time></trkpt><trkpt lat="44.9642" lon="12.0824999"><ele>5.0</ele><time>2026-04-26T17:13:21.86Z</time></trkpt><trkpt lat="44.9641983" lon="12.0821817"><ele>5.0</ele><time>2026-04-26T17:13:22.859Z</time></trkpt><trkpt lat="44.9641995" lon="12.0818705"><ele>5.0</ele><time>2026-04-26T17:13:23.86Z</time></trkpt><trkpt lat="44.9642043" lon="12.0815503"><ele>5.0</ele><time>2026-04-26T17:13:24.859Z</time></trkpt><trkpt lat="44.964206" lon="12.081237"><ele>4.666666666666667</ele><time>2026-04-26T17:13:25.859Z</time></trkpt><trkpt lat="44.9642077" lon="12.0809257"><ele>4.333333333333333</ele><time>2026-04-26T17:13:26.859Z</time></trkpt><trkpt lat="44.9642061" lon="12.0806091"><ele>4.0</ele><time>2026-04-26T17:13:27.86Z</time></trkpt><trkpt lat="44.9642033" lon="12.0802966"><ele>3.6666666666666665</ele><time>2026-04-26T17:13:28.859Z</time></trkpt><trkpt lat="44.9642019" lon="12.0799812"><ele>3.333333333333333</ele><time>2026-04-26T17:13:29.86Z</time></trkpt><trkpt lat="44.9641977" lon="12.0796725"><ele>3.0</ele><time>2026-04-26T17:13:30.859Z</time></trkpt><trkpt lat="44.9641908" lon="12.0793622"><ele>2.0</ele><time>2026-04-26T17:13:31.86Z</time></trkpt><trkpt lat="44.9641878" lon="12.0790504"><ele>1.0</ele><time>2026-04-26T17:13:32.859Z</time></trkpt><trkpt lat="44.9641875" lon="12.0787361"><ele>0.0</ele><time>2026-04-26T17:13:33.859Z</time></trkpt><trkpt lat="44.964183" lon="12.0784284"><ele>-0.6666666666666666</ele><time>2026-04-26T17:13:34.86Z</time></trkpt><trkpt lat="44.9641774" lon="12.0781215"><ele>-1.3333333333333333</ele><time>2026-04-26T17:13:35.86Z</time></trkpt><trkpt lat="44.964175" lon="12.0778134"><ele>-2.0</ele><time>2026-04-26T17:13:36.86Z</time></trkpt><trkpt lat="44.9641709" lon="12.0775083"><ele>-2.333333333333333</ele><time>2026-04-26T17:13:37.86Z</time></trkpt><trkpt lat="44.9641668" lon="12.0772109"><ele>-2.6666666666666665</ele><time>2026-04-26T17:13:38.86Z</time></trkpt><trkpt lat="44.9641602" lon="12.0769114"><ele>-3.0</ele><time>2026-04-26T17:13:39.86Z</time></trkpt><trkpt lat="44.9641539" lon="12.0766129"><ele>-3.0</ele><time>2026-04-26T17:13:40.859Z</time></trkpt><trkpt lat="44.964146" lon="12.0763179"><ele>-3.0</ele><time>2026-04-26T17:13:41.86Z</time></trkpt><trkpt lat="44.9641433" lon="12.0760225"><ele>-3.0</ele><time>2026-04-26T17:13:42.859Z</time></trkpt><trkpt lat="44.9641379" lon="12.0757334"><ele>-3.333333333333333</ele><time>2026-04-26T17:13:43.859Z</time></trkpt><trkpt lat="44.9641344" lon="12.0754421"><ele>-3.6666666666666665</ele><time>2026-04-26T17:13:44.859Z</time></trkpt><trkpt lat="44.9641324" lon="12.0751489"><ele>-4.0</ele><time>2026-04-26T17:13:45.859Z</time></trkpt><trkpt lat="44.9641293" lon="12.0748567"><ele>-3.0</ele><time>2026-04-26T17:13:46.859Z</time></trkpt><trkpt lat="44.9641225" lon="12.0745624"><ele>-2.0</ele><time>2026-04-26T17:13:47.859Z</time></trkpt><trkpt lat="44.964114" lon="12.0742685"><ele>-1.0</ele><time>2026-04-26T17:13:48.859Z</time></trkpt><trkpt lat="44.9641098" lon="12.073973"><ele>-1.0</ele><time>2026-04-26T17:13:49.86Z</time></trkpt><trkpt lat="44.9641083" lon="12.0736745"><ele>-1.0</ele><time>2026-04-26T17:13:50.859Z</time></trkpt><trkpt lat="44.9641111" lon="12.0733724"><ele>-1.0</ele><time>2026-04-26T17:13:51.859Z</time></trkpt><trkpt lat="44.9641156" lon="12.0730637"><ele>-0.6666666666666666</ele><time>2026-04-26T17:13:52.859Z</time></trkpt><trkpt lat="44.9641263" lon="12.0727544"><ele>-0.3333333333333333</ele><time>2026-04-26T17:13:53.859Z</time></trkpt><trkpt lat="44.9641456" lon="12.0724347"><ele>0.0</ele><time>2026-04-26T17:13:54.859Z</time></trkpt><trkpt lat="44.964163" lon="12.0721134"><ele>0.0</ele><time>2026-04-26T17:13:55.859Z</time></trkpt><trkpt lat="44.9641631" lon="12.0717852"><ele>0.0</ele><time>2026-04-26T17:13:56.859Z</time></trkpt><trkpt lat="44.964142" lon="12.0714672"><ele>0.0</ele><time>2026-04-26T17:13:57.86Z</time></trkpt><trkpt lat="44.964104" lon="12.0711519"><ele>0.0</ele><time>2026-04-26T17:13:58.86Z</time></trkpt><trkpt lat="44.9640545" lon="12.0708404"><ele>0.0</ele><time>2026-04-26T17:13:59.859Z</time></trkpt><trkpt lat="44.9639987" lon="12.0705371"><ele>0.0</ele><time>2026-04-26T17:14:00.86Z</time></trkpt><trkpt lat="44.9639478" lon="12.0702491"><ele>0.0</ele><time>2026-04-26T17:14:01.86Z</time></trkpt><trkpt lat="44.9638973" lon="12.069981"><ele>-0.6666666666666666</ele><time>2026-04-26T17:14:02.86Z</time></trkpt><trkpt lat="44.9638343" lon="12.0697208"><ele>-1.3333333333333333</ele><time>2026-04-26T17:14:03.86Z</time></trkpt><trkpt lat="44.9637657" lon="12.0694616"><ele>-2.0</ele><time>2026-04-26T17:14:04.859Z</time></trkpt><trkpt lat="44.9636925" lon="12.0692011"><ele>-2.333333333333333</ele><time>2026-04-26T17:14:05.859Z</time></trkpt><trkpt lat="44.9636232" lon="12.068939"><ele>-2.6666666666666665</ele><time>2026-04-26T17:14:06.859Z</time></trkpt><trkpt lat="44.9635572" lon="12.0686696"><ele>-3.0</ele><time>2026-04-26T17:14:07.86Z</time></trkpt><trkpt lat="44.9634959" lon="12.0683905"><ele>-3.333333333333333</ele><time>2026-04-26T17:14:08.859Z</time></trkpt><trkpt lat="44.963439" lon="12.0681085"><ele>-3.6666666666666665</ele><time>2026-04-26T17:14:09.86Z</time></trkpt><trkpt lat="44.9633888" lon="12.0678214"><ele>-4.0</ele><time>2026-04-26T17:14:10.86Z</time></trkpt><trkpt lat="44.9633524" lon="12.0675269"><ele>-4.0</ele><time>2026-04-26T17:14:11.859Z</time></trkpt><trkpt lat="44.963329" lon="12.067227"><ele>-4.0</ele><time>2026-04-26T17:14:12.859Z</time></trkpt><trkpt lat="44.963309" lon="12.0669225"><ele>-4.0</ele><time>2026-04-26T17:14:13.86Z</time></trkpt><trkpt lat="44.9632891" lon="12.0666189"><ele>-4.0</ele><time>2026-04-26T17:14:14.86Z</time></trkpt><trkpt lat="44.9632679" lon="12.0663187"><ele>-4.0</ele><time>2026-04-26T17:14:15.859Z</time></trkpt><trkpt lat="44.9632458" lon="12.0660154"><ele>-4.0</ele><time>2026-04-26T17:14:16.86Z</time></trkpt><trkpt lat="44.963224" lon="12.0657144"><ele>-3.6666666666666665</ele><time>2026-04-26T17:14:17.859Z</time></trkpt><trkpt lat="44.963203" lon="12.0654158"><ele>-3.333333333333333</ele><time>2026-04-26T17:14:18.859Z</time></trkpt><trkpt lat="44.963182" lon="12.0651173"><ele>-3.0</ele><time>2026-04-26T17:14:19.859Z</time></trkpt><trkpt lat="44.9631621" lon="12.0648259"><ele>-3.0</ele><time>2026-04-26T17:14:20.859Z</time></trkpt><trkpt lat="44.9631402" lon="12.0645354"><ele>-3.0</ele><time>2026-04-26T17:14:21.859Z</time></trkpt><trkpt lat="44.9631236" lon="12.0642403"><ele>-3.0</ele><time>2026-04-26T17:14:22.86Z</time></trkpt><trkpt lat="44.9630989" lon="12.063945"><ele>-3.0</ele><time>2026-04-26T17:14:23.859Z</time></trkpt><trkpt lat="44.9630736" lon="12.0636447"><ele>-3.0</ele><time>2026-04-26T17:14:24.859Z</time></trkpt><trkpt lat="44.9630512" lon="12.0633386"><ele>-3.0</ele><time>2026-04-26T17:14:25.859Z</time></trkpt><trkpt lat="44.9630281" lon="12.0630268"><ele>-3.0</ele><time>2026-04-26T17:14:26.86Z</time></trkpt><trkpt lat="44.9630083" lon="12.0627109"><ele>-3.0</ele><time>2026-04-26T17:14:27.86Z</time></trkpt><trkpt lat="44.9629879" lon="12.0624144"><ele>-3.0</ele><time>2026-04-26T17:14:28.86Z</time></trkpt><trkpt lat="44.9629684" lon="12.0621365"><ele>-3.0</ele><time>2026-04-26T17:14:29.859Z</time></trkpt><trkpt lat="44.9629624" lon="12.0618783"><ele>-3.0</ele><time>2026-04-26T17:14:30.86Z</time></trkpt><trkpt lat="44.9629748" lon="12.0616283"><ele>-3.0</ele><time>2026-04-26T17:14:31.859Z</time></trkpt><trkpt lat="44.9630423" lon="12.0613508"><ele>-2.5</ele><time>2026-04-26T17:14:32.86Z</time></trkpt><trkpt lat="44.9631253" lon="12.0610622"><ele>-2.0</ele><time>2026-04-26T17:14:33.86Z</time></trkpt><trkpt lat="44.9632147" lon="12.0607628"><ele>-2.0</ele><time>2026-04-26T17:14:34.859Z</time></trkpt><trkpt lat="44.9633132" lon="12.0604031"><ele>-2.0</ele><time>2026-04-26T17:14:35.86Z</time></trkpt><trkpt lat="44.9634145" lon="12.0600419"><ele>-2.0</ele><time>2026-04-26T17:14:36.859Z</time></trkpt><trkpt lat="44.9635184" lon="12.0596688"><ele>-2.0</ele><time>2026-04-26T17:14:37.86Z</time></trkpt><trkpt lat="44.9636172" lon="12.0593048"><ele>-2.5</ele><time>2026-04-26T17:14:38.859Z</time></trkpt><trkpt lat="44.9637162" lon="12.05896"><ele>-3.0</ele><time>2026-04-26T17:14:39.86Z</time></trkpt><trkpt lat="44.9638082" lon="12.0586356"><ele>-3.0</ele><time>2026-04-26T17:14:40.859Z</time></trkpt><trkpt lat="44.9639056" lon="12.0583046"><ele>-3.0</ele><time>2026-04-26T17:14:41.859Z</time></trkpt><trkpt lat="44.9639743" lon="12.0580227"><ele>-2.6666666666666665</ele><time>2026-04-26T17:14:42.86Z</time></trkpt><trkpt lat="44.9640344" lon="12.0577387"><ele>-2.333333333333333</ele><time>2026-04-26T17:14:43.86Z</time></trkpt><trkpt lat="44.9640704" lon="12.0574552"><ele>-2.0</ele><time>2026-04-26T17:14:44.859Z</time></trkpt><trkpt lat="44.9640926" lon="12.0571841"><ele>-2.0</ele><time>2026-04-26T17:14:45.859Z</time></trkpt><trkpt lat="44.9640966" lon="12.0569183"><ele>-2.0</ele><time>2026-04-26T17:14:46.86Z</time></trkpt><trkpt lat="44.9640896" lon="12.0566629"><ele>-2.0</ele><time>2026-04-26T17:14:47.86Z</time></trkpt><trkpt lat="44.9640683" lon="12.0564071"><ele>-2.333333333333333</ele><time>2026-04-26T17:14:48.859Z</time></trkpt><trkpt lat="44.964032" lon="12.056152"><ele>-2.6666666666666665</ele><time>2026-04-26T17:14:49.86Z</time></trkpt><trkpt lat="44.9639889" lon="12.0558885"><ele>-3.0</ele><time>2026-04-26T17:14:50.86Z</time></trkpt><trkpt lat="44.9639431" lon="12.0556248"><ele>-3.0</ele><time>2026-04-26T17:14:51.859Z</time></trkpt><trkpt lat="44.9638977" lon="12.0553549"><ele>-3.0</ele><time>2026-04-26T17:14:52.86Z</time></trkpt><trkpt lat="44.963848" lon="12.0550864"><ele>-3.0</ele><time>2026-04-26T17:14:53.859Z</time></trkpt><trkpt lat="44.9637952" lon="12.0548206"><ele>-3.0</ele><time>2026-04-26T17:14:54.86Z</time></trkpt><trkpt lat="44.9637428" lon="12.0545579"><ele>-3.0</ele><time>2026-04-26T17:14:55.86Z</time></trkpt><trkpt lat="44.9636918" lon="12.054295"><ele>-3.0</ele><time>2026-04-26T17:14:56.859Z</time></trkpt><trkpt lat="44.9636389" lon="12.0540447"><ele>-2.6666666666666665</ele><time>2026-04-26T17:14:57.859Z</time></trkpt><trkpt lat="44.9635904" lon="12.0538097"><ele>-2.333333333333333</ele><time>2026-04-26T17:14:58.859Z</time></trkpt><trkpt lat="44.963548" lon="12.0535856"><ele>-2.0</ele><time>2026-04-26T17:14:59.86Z</time></trkpt><trkpt lat="44.9635125" lon="12.0533735"><ele>-2.0</ele><time>2026-04-26T17:15:00.859Z</time></trkpt><trkpt lat="44.963477" lon="12.0531669"><ele>-2.0</ele><time>2026-04-26T17:15:01.859Z</time></trkpt><trkpt lat="44.9634394" lon="12.052981"><ele>-2.0</ele><time>2026-04-26T17:15:02.859Z</time></trkpt><trkpt lat="44.9634057" lon="12.0527958"><ele>-2.0</ele><time>2026-04-26T17:15:03.86Z</time></trkpt><trkpt lat="44.9633754" lon="12.0526278"><ele>-2.5</ele><time>2026-04-26T17:15:04.859Z</time></trkpt><trkpt lat="44.9633438" lon="12.0524617"><ele>-3.0</ele><time>2026-04-26T17:15:05.859Z</time></trkpt><trkpt lat="44.9633169" lon="12.0523029"><ele>-3.5</ele><time>2026-04-26T17:15:06.859Z</time></trkpt><trkpt lat="44.9632904" lon="12.0521471"><ele>-4.0</ele><time>2026-04-26T17:15:07.859Z</time></trkpt><trkpt lat="44.9632599" lon="12.0519999"><ele>-4.0</ele><time>2026-04-26T17:15:08.859Z</time></trkpt><trkpt lat="44.963233" lon="12.0518563"><ele>-4.0</ele><time>2026-04-26T17:15:09.859Z</time></trkpt><trkpt lat="44.9632076" lon="12.0517202"><ele>-4.0</ele><time>2026-04-26T17:15:10.86Z</time></trkpt><trkpt lat="44.963184" lon="12.0515891"><ele>-4.0</ele><time>2026-04-26T17:15:11.859Z</time></trkpt><trkpt lat="44.963159" lon="12.0514643"><ele>-4.0</ele><time>2026-04-26T17:15:12.859Z</time></trkpt><trkpt lat="44.9631365" lon="12.0513427"><ele>-3.833333333333333</ele><time>2026-04-26T17:15:13.859Z</time></trkpt><trkpt lat="44.9631169" lon="12.0512273"><ele>-3.6666666666666665</ele><time>2026-04-26T17:15:14.859Z</time></trkpt><trkpt lat="44.9630968" lon="12.0511127"><ele>-3.5</ele><time>2026-04-26T17:15:15.86Z</time></trkpt><trkpt lat="44.9630745" lon="12.0509941"><ele>-3.333333333333333</ele><time>2026-04-26T17:15:16.86Z</time></trkpt><trkpt lat="44.9630467" lon="12.0508712"><ele>-3.1666666666666665</ele><time>2026-04-26T17:15:17.859Z</time></trkpt><trkpt lat="44.9630218" lon="12.0507422"><ele>-3.0</ele><time>2026-04-26T17:15:18.86Z</time></trkpt><trkpt lat="44.9629975" lon="12.0506105"><ele>-2.8</ele><time>2026-04-26T17:15:19.859Z</time></trkpt><trkpt lat="44.9629705" lon="12.050477"><ele>-2.5999999999999996</ele><time>2026-04-26T17:15:20.86Z</time></trkpt><trkpt lat="44.9629471" lon="12.0503381"><ele>-2.4000000000000004</ele><time>2026-04-26T17:15:21.86Z</time></trkpt><trkpt lat="44.9629231" lon="12.0501984"><ele>-2.2</ele><time>2026-04-26T17:15:22.859Z</time></trkpt><trkpt lat="44.9628983" lon="12.0500626"><ele>-2.0</ele><time>2026-04-26T17:15:23.859Z</time></trkpt><trkpt lat="44.9628714" lon="12.0499228"><ele>-1.6</ele><time>2026-04-26T17:15:24.86Z</time></trkpt><trkpt lat="44.9628454" lon="12.0497843"><ele>-1.2000000000000002</ele><time>2026-04-26T17:15:25.859Z</time></trkpt><trkpt lat="44.9628159" lon="12.0496334"><ele>-0.8</ele><time>2026-04-26T17:15:26.859Z</time></trkpt><trkpt lat="44.9627878" lon="12.0494881"><ele>-0.4</ele><time>2026-04-26T17:15:27.86Z</time></trkpt><trkpt lat="44.9627596" lon="12.0493396"><ele>0.0</ele><time>2026-04-26T17:15:28.859Z</time></trkpt><trkpt lat="44.9627324" lon="12.0491906"><ele>-0.25</ele><time>2026-04-26T17:15:29.859Z</time></trkpt><trkpt lat="44.9627049" lon="12.0490395"><ele>-0.5</ele><time>2026-04-26T17:15:30.859Z</time></trkpt><trkpt lat="44.9626744" lon="12.048883"><ele>-0.75</ele><time>2026-04-26T17:15:31.86Z</time></trkpt><trkpt lat="44.9626459" lon="12.0487244"><ele>-1.0</ele><time>2026-04-26T17:15:32.859Z</time></trkpt><trkpt lat="44.9626223" lon="12.0485668"><ele>-1.0</ele><time>2026-04-26T17:15:33.86Z</time></trkpt><trkpt lat="44.9625889" lon="12.0484069"><ele>-1.0</ele><time>2026-04-26T17:15:34.859Z</time></trkpt><trkpt lat="44.9625604" lon="12.0482495"><ele>-1.0</ele><time>2026-04-26T17:15:35.86Z</time></trkpt><trkpt lat="44.96253" lon="12.0480892"><ele>-1.0</ele><time>2026-04-26T17:15:36.859Z</time></trkpt><trkpt lat="44.9624991" lon="12.0479292"><ele>-1.0</ele><time>2026-04-26T17:15:37.86Z</time></trkpt><trkpt lat="44.9624685" lon="12.0477684"><ele>-1.0</ele><time>2026-04-26T17:15:38.859Z</time></trkpt><trkpt lat="44.9624351" lon="12.047609"><ele>-1.0</ele><time>2026-04-26T17:15:39.859Z</time></trkpt><trkpt lat="44.962404" lon="12.0474483"><ele>-1.0</ele><time>2026-04-26T17:15:40.86Z</time></trkpt><trkpt lat="44.9623708" lon="12.0472856"><ele>-0.75</ele><time>2026-04-26T17:15:41.859Z</time></trkpt><trkpt lat="44.9623376" lon="12.047126"><ele>-0.5</ele><time>2026-04-26T17:15:42.86Z</time></trkpt><trkpt lat="44.9623076" lon="12.0469619"><ele>-0.25</ele><time>2026-04-26T17:15:43.859Z</time></trkpt><trkpt lat="44.9622775" lon="12.0467984"><ele>0.0</ele><time>2026-04-26T17:15:44.86Z</time></trkpt><trkpt lat="44.9622476" lon="12.0466331"><ele>-0.25</ele><time>2026-04-26T17:15:45.86Z</time></trkpt><trkpt lat="44.9622163" lon="12.046459"><ele>-0.5</ele><time>2026-04-26T17:15:46.859Z</time></trkpt><trkpt lat="44.9621802" lon="12.0463028"><ele>-0.75</ele><time>2026-04-26T17:15:47.859Z</time></trkpt><trkpt lat="44.9621422" lon="12.0461428"><ele>-1.0</ele><time>2026-04-26T17:15:48.859Z</time></trkpt><trkpt lat="44.9620908" lon="12.0459905"><ele>-1.0</ele><time>2026-04-26T17:15:49.86Z</time></trkpt><trkpt lat="44.96203" lon="12.0458391"><ele>-1.0</ele><time>2026-04-26T17:15:50.859Z</time></trkpt><trkpt lat="44.9619674" lon="12.0456989"><ele>-1.0</ele><time>2026-04-26T17:15:51.86Z</time></trkpt><trkpt lat="44.96191" lon="12.0455788"><ele>-1.0</ele><time>2026-04-26T17:15:52.86Z</time></trkpt><trkpt lat="44.9618637" lon="12.0454644"><ele>-1.0</ele><time>2026-04-26T17:15:53.859Z</time></trkpt><trkpt lat="44.9618294" lon="12.0453491"><ele>-1.1428571428571428</ele><time>2026-04-26T17:15:54.86Z</time></trkpt><trkpt lat="44.9618428" lon="12.0452431"><ele>-1.2857142857142856</ele><time>2026-04-26T17:15:55.86Z</time></trkpt><trkpt lat="44.9618754" lon="12.0451487"><ele>-1.4285714285714284</ele><time>2026-04-26T17:15:56.86Z</time></trkpt><trkpt lat="44.9619312" lon="12.0450823"><ele>-1.5714285714285714</ele><time>2026-04-26T17:15:57.86Z</time></trkpt><trkpt lat="44.9619978" lon="12.0450425"><ele>-1.714285714285714</ele><time>2026-04-26T17:15:58.859Z</time></trkpt><trkpt lat="44.9620674" lon="12.0450191"><ele>-1.857142857142857</ele><time>2026-04-26T17:15:59.86Z</time></trkpt><trkpt lat="44.9621388" lon="12.0450017"><ele>-2.0</ele><time>2026-04-26T17:16:00.859Z</time></trkpt><trkpt lat="44.9622058" lon="12.044976"><ele>-1.9999999999999998</ele><time>2026-04-26T17:16:01.859Z</time></trkpt><trkpt lat="44.9622761" lon="12.0449543"><ele>-2.0</ele><time>2026-04-26T17:16:02.86Z</time></trkpt><trkpt lat="44.9623567" lon="12.0449331"><ele>-2.0</ele><time>2026-04-26T17:16:03.859Z</time></trkpt><trkpt lat="44.9624495" lon="12.0449197"><ele>-2.0</ele><time>2026-04-26T17:16:04.86Z</time></trkpt><trkpt lat="44.9625405" lon="12.0449066"><ele>-1.9999999999999998</ele><time>2026-04-26T17:16:05.86Z</time></trkpt><trkpt lat="44.962622" lon="12.0449004"><ele>-2.0</ele><time>2026-04-26T17:16:06.859Z</time></trkpt><trkpt lat="44.9627025" lon="12.0448941"><ele>-1.9999999999999998</ele><time>2026-04-26T17:16:07.859Z</time></trkpt><trkpt lat="44.9627695" lon="12.0448834"><ele>-2.0</ele><time>2026-04-26T17:16:08.859Z</time></trkpt><trkpt lat="44.9628786" lon="12.0448332"><ele>-2.0</ele><time>2026-04-26T17:16:10.86Z</time></trkpt><trkpt lat="44.9629312" lon="12.044747"><ele>-2.0</ele><time>2026-04-26T17:16:12.859Z</time></trkpt><trkpt lat="44.962968" lon="12.0446536"><ele>-1.9999999999999998</ele><time>2026-04-26T17:16:14.86Z</time></trkpt><trkpt lat="44.9629925" lon="12.0445371"><ele>-2.0</ele><time>2026-04-26T17:16:16.859Z</time></trkpt><trkpt lat="44.9630043" lon="12.0444148"><ele>-2.0</ele><time>2026-04-26T17:16:18.859Z</time></trkpt><trkpt lat="44.9630228" lon="12.0442524"><ele>-2.0</ele><time>2026-04-26T17:16:20.859Z</time></trkpt><trkpt lat="44.9630388" lon="12.0441542"><ele>-2.0</ele><time>2026-04-26T17:16:21.86Z</time></trkpt><trkpt lat="44.9630501" lon="12.0440374"><ele>-2.0</ele><time>2026-04-26T17:16:22.86Z</time></trkpt><trkpt lat="44.9630684" lon="12.0439061"><ele>-2.0</ele><time>2026-04-26T17:16:23.86Z</time></trkpt><trkpt lat="44.963089" lon="12.0437599"><ele>-2.0</ele><time>2026-04-26T17:16:24.859Z</time></trkpt><trkpt lat="44.9631111" lon="12.0435859"><ele>-2.0</ele><time>2026-04-26T17:16:25.859Z</time></trkpt><trkpt lat="44.963139" lon="12.043375"><ele>-2.0</ele><time>2026-04-26T17:16:26.859Z</time></trkpt><trkpt lat="44.9631797" lon="12.0431261"><ele>-2.0</ele><time>2026-04-26T17:16:27.859Z</time></trkpt><trkpt lat="44.9632181" lon="12.0428544"><ele>-2.0</ele><time>2026-04-26T17:16:28.859Z</time></trkpt><trkpt lat="44.9632515" lon="12.042601"><ele>-2.0</ele><time>2026-04-26T17:16:29.859Z</time></trkpt><trkpt lat="44.963286" lon="12.0423627"><ele>-2.0</ele><time>2026-04-26T17:16:30.859Z</time></trkpt><trkpt lat="44.9633259" lon="12.042115"><ele>-2.0</ele><time>2026-04-26T17:16:31.86Z</time></trkpt><trkpt lat="44.9633664" lon="12.0418614"><ele>-2.0</ele><time>2026-04-26T17:16:32.86Z</time></trkpt><trkpt lat="44.9634032" lon="12.0416077"><ele>-2.6666666666666665</ele><time>2026-04-26T17:16:33.859Z</time></trkpt><trkpt lat="44.9634397" lon="12.0413607"><ele>-3.333333333333333</ele><time>2026-04-26T17:16:34.859Z</time></trkpt><trkpt lat="44.9634766" lon="12.0411157"><ele>-4.0</ele><time>2026-04-26T17:16:35.859Z</time></trkpt><trkpt lat="44.9635162" lon="12.0408707"><ele>-3.6666666666666665</ele><time>2026-04-26T17:16:36.86Z</time></trkpt><trkpt lat="44.9635534" lon="12.0406329"><ele>-3.333333333333333</ele><time>2026-04-26T17:16:37.859Z</time></trkpt><trkpt lat="44.9635872" lon="12.0403977"><ele>-3.0</ele><time>2026-04-26T17:16:38.86Z</time></trkpt><trkpt lat="44.9636219" lon="12.0401598"><ele>-2.6666666666666665</ele><time>2026-04-26T17:16:39.859Z</time></trkpt><trkpt lat="44.9636599" lon="12.0399205"><ele>-2.333333333333333</ele><time>2026-04-26T17:16:40.86Z</time></trkpt><trkpt lat="44.9636952" lon="12.0396782"><ele>-2.0</ele><time>2026-04-26T17:16:41.859Z</time></trkpt><trkpt lat="44.9637297" lon="12.0394398"><ele>-2.0</ele><time>2026-04-26T17:16:42.86Z</time></trkpt><trkpt lat="44.9637625" lon="12.0392036"><ele>-2.0</ele><time>2026-04-26T17:16:43.859Z</time></trkpt><trkpt lat="44.9637972" lon="12.038962"><ele>-2.0</ele><time>2026-04-26T17:16:44.859Z</time></trkpt><trkpt lat="44.9638352" lon="12.0387144"><ele>-2.0</ele><time>2026-04-26T17:16:45.86Z</time></trkpt><trkpt lat="44.9638701" lon="12.0384645"><ele>-2.0</ele><time>2026-04-26T17:16:46.859Z</time></trkpt><trkpt lat="44.9639056" lon="12.0382085"><ele>-2.0</ele><time>2026-04-26T17:16:47.86Z</time></trkpt><trkpt lat="44.9639474" lon="12.0379476"><ele>-2.0</ele><time>2026-04-26T17:16:48.859Z</time></trkpt><trkpt lat="44.9639874" lon="12.0376802"><ele>-2.0</ele><time>2026-04-26T17:16:49.859Z</time></trkpt><trkpt lat="44.9640242" lon="12.037406"><ele>-2.0</ele><time>2026-04-26T17:16:50.859Z</time></trkpt><trkpt lat="44.9640665" lon="12.0371199"><ele>-2.0</ele><time>2026-04-26T17:16:51.859Z</time></trkpt><trkpt lat="44.9641102" lon="12.036831"><ele>-2.0</ele><time>2026-04-26T17:16:52.859Z</time></trkpt><trkpt lat="44.9641559" lon="12.0365312"><ele>-2.0</ele><time>2026-04-26T17:16:53.86Z</time></trkpt><trkpt lat="44.9641997" lon="12.0362281"><ele>-2.0</ele><time>2026-04-26T17:16:54.86Z</time></trkpt><trkpt lat="44.9642458" lon="12.0359272"><ele>-2.0</ele><time>2026-04-26T17:16:55.859Z</time></trkpt><trkpt lat="44.9642905" lon="12.0356204"><ele>-2.0</ele><time>2026-04-26T17:16:56.859Z</time></trkpt><trkpt lat="44.9643324" lon="12.0353182"><ele>-2.0</ele><time>2026-04-26T17:16:57.86Z</time></trkpt><trkpt lat="44.9643766" lon="12.0350154"><ele>-2.0</ele><time>2026-04-26T17:16:58.859Z</time></trkpt><trkpt lat="44.964423" lon="12.0347111"><ele>-2.0</ele><time>2026-04-26T17:16:59.859Z</time></trkpt><trkpt lat="44.9644673" lon="12.034408"><ele>-2.0</ele><time>2026-04-26T17:17:00.859Z</time></trkpt><trkpt lat="44.9645136" lon="12.034111"><ele>-2.0</ele><time>2026-04-26T17:17:01.859Z</time></trkpt><trkpt lat="44.9645597" lon="12.0338138"><ele>-2.0</ele><time>2026-04-26T17:17:02.86Z</time></trkpt><trkpt lat="44.9646034" lon="12.0335138"><ele>-1.6666666666666665</ele><time>2026-04-26T17:17:03.86Z</time></trkpt><trkpt lat="44.9646483" lon="12.0332159"><ele>-1.3333333333333333</ele><time>2026-04-26T17:17:04.86Z</time></trkpt><trkpt lat="44.9646964" lon="12.0329153"><ele>-1.0</ele><time>2026-04-26T17:17:05.859Z</time></trkpt><trkpt lat="44.964742" lon="12.0326131"><ele>-1.3333333333333333</ele><time>2026-04-26T17:17:06.86Z</time></trkpt><trkpt lat="44.9647861" lon="12.0323089"><ele>-1.6666666666666665</ele><time>2026-04-26T17:17:07.859Z</time></trkpt><trkpt lat="44.9648296" lon="12.0320026"><ele>-2.0</ele><time>2026-04-26T17:17:08.859Z</time></trkpt><trkpt lat="44.9648763" lon="12.0316961"><ele>-1.6666666666666665</ele><time>2026-04-26T17:17:09.86Z</time></trkpt><trkpt lat="44.964924" lon="12.0313872"><ele>-1.3333333333333333</ele><time>2026-04-26T17:17:10.86Z</time></trkpt><trkpt lat="44.96497" lon="12.0310811"><ele>-1.0</ele><time>2026-04-26T17:17:11.859Z</time></trkpt><trkpt lat="44.9650159" lon="12.0307689"><ele>-1.3333333333333333</ele><time>2026-04-26T17:17:12.86Z</time></trkpt><trkpt lat="44.9650599" lon="12.0304596"><ele>-1.6666666666666665</ele><time>2026-04-26T17:17:13.86Z</time></trkpt><trkpt lat="44.9651063" lon="12.0301524"><ele>-2.0</ele><time>2026-04-26T17:17:14.859Z</time></trkpt><trkpt lat="44.9651491" lon="12.0298425"><ele>-2.6666666666666665</ele><time>2026-04-26T17:17:15.859Z</time></trkpt><trkpt lat="44.9651956" lon="12.0295338"><ele>-3.333333333333333</ele><time>2026-04-26T17:17:16.859Z</time></trkpt><trkpt lat="44.9652418" lon="12.0292265"><ele>-4.0</ele><time>2026-04-26T17:17:17.86Z</time></trkpt><trkpt lat="44.9652873" lon="12.0289143"><ele>-4.0</ele><time>2026-04-26T17:17:18.859Z</time></trkpt><trkpt lat="44.9653324" lon="12.0286047"><ele>-4.0</ele><time>2026-04-26T17:17:19.859Z</time></trkpt><trkpt lat="44.9653769" lon="12.0282932"><ele>-4.0</ele><time>2026-04-26T17:17:20.859Z</time></trkpt><trkpt lat="44.9654233" lon="12.0279856"><ele>-4.0</ele><time>2026-04-26T17:17:21.86Z</time></trkpt><trkpt lat="44.96547" lon="12.0276761"><ele>-4.0</ele><time>2026-04-26T17:17:22.859Z</time></trkpt><trkpt lat="44.9655214" lon="12.0273675"><ele>-4.0</ele><time>2026-04-26T17:17:23.859Z</time></trkpt><trkpt lat="44.9655817" lon="12.0270645"><ele>-4.0</ele><time>2026-04-26T17:17:24.86Z</time></trkpt><trkpt lat="44.9656505" lon="12.0267707"><ele>-4.0</ele><time>2026-04-26T17:17:25.86Z</time></trkpt><trkpt lat="44.9657165" lon="12.0264692"><ele>-4.0</ele><time>2026-04-26T17:17:26.86Z</time></trkpt><trkpt lat="44.9657828" lon="12.026168"><ele>-4.0</ele><time>2026-04-26T17:17:27.859Z</time></trkpt><trkpt lat="44.9658481" lon="12.0258638"><ele>-4.0</ele><time>2026-04-26T17:17:28.859Z</time></trkpt><trkpt lat="44.9659149" lon="12.0255657"><ele>-4.0</ele><time>2026-04-26T17:17:29.86Z</time></trkpt><trkpt lat="44.9659814" lon="12.0252683"><ele>-4.0</ele><time>2026-04-26T17:17:30.86Z</time></trkpt><trkpt lat="44.9660473" lon="12.0249679"><ele>-4.0</ele><time>2026-04-26T17:17:31.86Z</time></trkpt><trkpt lat="44.9661148" lon="12.0246681"><ele>-4.0</ele><time>2026-04-26T17:17:32.859Z</time></trkpt><trkpt lat="44.9661855" lon="12.0243644"><ele>-3.6666666666666665</ele><time>2026-04-26T17:17:33.86Z</time></trkpt><trkpt lat="44.9662534" lon="12.0240611"><ele>-3.333333333333333</ele><time>2026-04-26T17:17:34.86Z</time></trkpt><trkpt lat="44.9663187" lon="12.0237648"><ele>-3.0</ele><time>2026-04-26T17:17:35.859Z</time></trkpt><trkpt lat="44.966384" lon="12.0234669"><ele>-2.6666666666666665</ele><time>2026-04-26T17:17:36.86Z</time></trkpt><trkpt lat="44.9664505" lon="12.0231712"><ele>-2.333333333333333</ele><time>2026-04-26T17:17:37.859Z</time></trkpt><trkpt lat="44.9665162" lon="12.0228725"><ele>-2.0</ele><time>2026-04-26T17:17:38.859Z</time></trkpt><trkpt lat="44.9665807" lon="12.0225744"><ele>-2.333333333333333</ele><time>2026-04-26T17:17:39.859Z</time></trkpt><trkpt lat="44.9666443" lon="12.022277"><ele>-2.6666666666666665</ele><time>2026-04-26T17:17:40.86Z</time></trkpt><trkpt lat="44.966707" lon="12.0219809"><ele>-3.0</ele><time>2026-04-26T17:17:41.859Z</time></trkpt><trkpt lat="44.9667688" lon="12.0216929"><ele>-3.333333333333333</ele><time>2026-04-26T17:17:42.859Z</time></trkpt><trkpt lat="44.9668278" lon="12.0214215"><ele>-3.6666666666666665</ele><time>2026-04-26T17:17:43.859Z</time></trkpt><trkpt lat="44.966889" lon="12.0211566"><ele>-4.0</ele><time>2026-04-26T17:17:44.86Z</time></trkpt><trkpt lat="44.9669484" lon="12.0208991"><ele>-3.6666666666666665</ele><time>2026-04-26T17:17:45.859Z</time></trkpt><trkpt lat="44.9670014" lon="12.0206489"><ele>-3.333333333333333</ele><time>2026-04-26T17:17:46.859Z</time></trkpt><trkpt lat="44.9670485" lon="12.0203965"><ele>-3.0</ele><time>2026-04-26T17:17:47.859Z</time></trkpt><trkpt lat="44.9670828" lon="12.0201322"><ele>-2.6666666666666665</ele><time>2026-04-26T17:17:48.86Z</time></trkpt><trkpt lat="44.9670995" lon="12.0198681"><ele>-2.333333333333333</ele><time>2026-04-26T17:17:49.859Z</time></trkpt><trkpt lat="44.9671033" lon="12.0195981"><ele>-2.0</ele><time>2026-04-26T17:17:50.86Z</time></trkpt><trkpt lat="44.9670983" lon="12.0193292"><ele>-2.0</ele><time>2026-04-26T17:17:51.86Z</time></trkpt><trkpt lat="44.9670797" lon="12.0190462"><ele>-2.0</ele><time>2026-04-26T17:17:52.859Z</time></trkpt><trkpt lat="44.9670491" lon="12.0187666"><ele>-2.0</ele><time>2026-04-26T17:17:53.859Z</time></trkpt><trkpt lat="44.9670219" lon="12.0184848"><ele>-1.0</ele><time>2026-04-26T17:17:54.859Z</time></trkpt><trkpt lat="44.9669967" lon="12.0181914"><ele>0.0</ele><time>2026-04-26T17:17:55.859Z</time></trkpt><trkpt lat="44.9669679" lon="12.0178948"><ele>1.0</ele><time>2026-04-26T17:17:56.859Z</time></trkpt><trkpt lat="44.9669383" lon="12.0175967"><ele>2.0</ele><time>2026-04-26T17:17:57.86Z</time></trkpt><trkpt lat="44.9669086" lon="12.0172983"><ele>3.0</ele><time>2026-04-26T17:17:58.859Z</time></trkpt><trkpt lat="44.9668764" lon="12.016998"><ele>4.0</ele><time>2026-04-26T17:17:59.86Z</time></trkpt><trkpt lat="44.9668465" lon="12.0166918"><ele>3.333333333333333</ele><time>2026-04-26T17:18:00.859Z</time></trkpt><trkpt lat="44.9668181" lon="12.0163812"><ele>2.6666666666666665</ele><time>2026-04-26T17:18:01.859Z</time></trkpt><trkpt lat="44.9667907" lon="12.016082"><ele>2.0</ele><time>2026-04-26T17:18:02.86Z</time></trkpt><trkpt lat="44.9667612" lon="12.0157973"><ele>0.6666666666666666</ele><time>2026-04-26T17:18:03.86Z</time></trkpt><trkpt lat="44.9667325" lon="12.0155242"><ele>-0.6666666666666666</ele><time>2026-04-26T17:18:04.859Z</time></trkpt><trkpt lat="44.9667097" lon="12.0152663"><ele>-2.0</ele><time>2026-04-26T17:18:05.859Z</time></trkpt><trkpt lat="44.9667031" lon="12.0150238"><ele>-2.6666666666666665</ele><time>2026-04-26T17:18:06.86Z</time></trkpt><trkpt lat="44.9667074" lon="12.0147829"><ele>-3.333333333333333</ele><time>2026-04-26T17:18:07.859Z</time></trkpt><trkpt lat="44.9667477" lon="12.01454"><ele>-4.0</ele><time>2026-04-26T17:18:08.859Z</time></trkpt><trkpt lat="44.9667832" lon="12.0142921"><ele>-3.6666666666666665</ele><time>2026-04-26T17:18:09.859Z</time></trkpt><trkpt lat="44.9668196" lon="12.0140423"><ele>-3.333333333333333</ele><time>2026-04-26T17:18:10.86Z</time></trkpt><trkpt lat="44.9668536" lon="12.0137879"><ele>-3.0</ele><time>2026-04-26T17:18:11.859Z</time></trkpt><trkpt lat="44.9668872" lon="12.0135295"><ele>-3.0</ele><time>2026-04-26T17:18:12.86Z</time></trkpt><trkpt lat="44.9669238" lon="12.0132616"><ele>-3.0</ele><time>2026-04-26T17:18:13.859Z</time></trkpt><trkpt lat="44.9669695" lon="12.0129886"><ele>-3.0</ele><time>2026-04-26T17:18:14.859Z</time></trkpt><trkpt lat="44.9670131" lon="12.0127092"><ele>-2.6666666666666665</ele><time>2026-04-26T17:18:15.86Z</time></trkpt><trkpt lat="44.9670547" lon="12.0124234"><ele>-2.333333333333333</ele><time>2026-04-26T17:18:16.86Z</time></trkpt><trkpt lat="44.9670974" lon="12.0121339"><ele>-2.0</ele><time>2026-04-26T17:18:17.859Z</time></trkpt><trkpt lat="44.9671439" lon="12.0118404"><ele>-2.333333333333333</ele><time>2026-04-26T17:18:18.859Z</time></trkpt><trkpt lat="44.967188" lon="12.0115443"><ele>-2.6666666666666665</ele><time>2026-04-26T17:18:19.86Z</time></trkpt><trkpt lat="44.9672361" lon="12.0112476"><ele>-3.0</ele><time>2026-04-26T17:18:20.859Z</time></trkpt><trkpt lat="44.9672862" lon="12.010946"><ele>-3.0</ele><time>2026-04-26T17:18:21.86Z</time></trkpt><trkpt lat="44.9673328" lon="12.0106433"><ele>-3.0</ele><time>2026-04-26T17:18:22.86Z</time></trkpt><trkpt lat="44.9673801" lon="12.0103363"><ele>-3.0</ele><time>2026-04-26T17:18:23.859Z</time></trkpt><trkpt lat="44.9674227" lon="12.010032"><ele>-3.333333333333333</ele><time>2026-04-26T17:18:24.859Z</time></trkpt><trkpt lat="44.9674653" lon="12.0097213"><ele>-3.6666666666666665</ele><time>2026-04-26T17:18:25.86Z</time></trkpt><trkpt lat="44.9675114" lon="12.0094131"><ele>-4.0</ele><time>2026-04-26T17:18:26.86Z</time></trkpt><trkpt lat="44.9675578" lon="12.0091042"><ele>-3.333333333333333</ele><time>2026-04-26T17:18:27.86Z</time></trkpt><trkpt lat="44.9676057" lon="12.008794"><ele>-2.6666666666666665</ele><time>2026-04-26T17:18:28.86Z</time></trkpt><trkpt lat="44.9676486" lon="12.0084892"><ele>-2.0</ele><time>2026-04-26T17:18:29.859Z</time></trkpt><trkpt lat="44.9676943" lon="12.0081837"><ele>-2.0</ele><time>2026-04-26T17:18:30.859Z</time></trkpt><trkpt lat="44.9677394" lon="12.0078828"><ele>-2.0</ele><time>2026-04-26T17:18:31.859Z</time></trkpt><trkpt lat="44.9677821" lon="12.0075848"><ele>-2.0</ele><time>2026-04-26T17:18:32.859Z</time></trkpt><trkpt lat="44.9678273" lon="12.007287"><ele>-2.0</ele><time>2026-04-26T17:18:33.859Z</time></trkpt><trkpt lat="44.9678761" lon="12.0069849"><ele>-2.0</ele><time>2026-04-26T17:18:34.86Z</time></trkpt><trkpt lat="44.9679199" lon="12.0066852"><ele>-2.0</ele><time>2026-04-26T17:18:35.859Z</time></trkpt><trkpt lat="44.9679644" lon="12.0063835"><ele>-2.0</ele><time>2026-04-26T17:18:36.859Z</time></trkpt><trkpt lat="44.9680065" lon="12.0060799"><ele>-2.0</ele><time>2026-04-26T17:18:37.859Z</time></trkpt><trkpt lat="44.9680521" lon="12.0057784"><ele>-2.0</ele><time>2026-04-26T17:18:38.859Z</time></trkpt><trkpt lat="44.9680998" lon="12.0054755"><ele>-1.3333333333333333</ele><time>2026-04-26T17:18:39.86Z</time></trkpt><trkpt lat="44.9681451" lon="12.0051767"><ele>-0.6666666666666666</ele><time>2026-04-26T17:18:40.86Z</time></trkpt><trkpt lat="44.9681939" lon="12.0048799"><ele>0.0</ele><time>2026-04-26T17:18:41.859Z</time></trkpt><trkpt lat="44.9682362" lon="12.0045814"><ele>0.0</ele><time>2026-04-26T17:18:42.859Z</time></trkpt><trkpt lat="44.9682826" lon="12.0042865"><ele>0.0</ele><time>2026-04-26T17:18:43.859Z</time></trkpt><trkpt lat="44.9683258" lon="12.0039909"><ele>0.0</ele><time>2026-04-26T17:18:44.86Z</time></trkpt><trkpt lat="44.9683713" lon="12.0036969"><ele>0.0</ele><time>2026-04-26T17:18:45.859Z</time></trkpt><trkpt lat="44.9684162" lon="12.003402"><ele>0.0</ele><time>2026-04-26T17:18:46.86Z</time></trkpt><trkpt lat="44.9684587" lon="12.0031025"><ele>0.0</ele><time>2026-04-26T17:18:47.859Z</time></trkpt><trkpt lat="44.9685024" lon="12.0028103"><ele>0.0</ele><time>2026-04-26T17:18:48.86Z</time></trkpt><trkpt lat="44.9685427" lon="12.0025244"><ele>0.0</ele><time>2026-04-26T17:18:49.86Z</time></trkpt><trkpt lat="44.9685844" lon="12.0022501"><ele>0.0</ele><time>2026-04-26T17:18:50.86Z</time></trkpt><trkpt lat="44.9686469" lon="12.0019802"><ele>-0.3333333333333333</ele><time>2026-04-26T17:18:51.859Z</time></trkpt><trkpt lat="44.968721" lon="12.0017051"><ele>-0.6666666666666666</ele><time>2026-04-26T17:18:52.86Z</time></trkpt><trkpt lat="44.9688014" lon="12.0014802"><ele>-1.0</ele><time>2026-04-26T17:18:53.86Z</time></trkpt><trkpt lat="44.968891" lon="12.0012637"><ele>-1.0</ele><time>2026-04-26T17:18:54.859Z</time></trkpt><trkpt lat="44.9690077" lon="12.0010709"><ele>-1.0</ele><time>2026-04-26T17:18:55.86Z</time></trkpt><trkpt lat="44.9691417" lon="12.0008927"><ele>-1.0</ele><time>2026-04-26T17:18:56.859Z</time></trkpt><trkpt lat="44.9692927" lon="12.0007282"><ele>-0.6666666666666666</ele><time>2026-04-26T17:18:57.86Z</time></trkpt><trkpt lat="44.9694484" lon="12.00058"><ele>-0.3333333333333333</ele><time>2026-04-26T17:18:58.86Z</time></trkpt><trkpt lat="44.9696158" lon="12.0004675"><ele>0.0</ele><time>2026-04-26T17:18:59.859Z</time></trkpt><trkpt lat="44.9698026" lon="12.0003685"><ele>0.0</ele><time>2026-04-26T17:19:00.859Z</time></trkpt><trkpt lat="44.9699988" lon="12.0002664"><ele>0.0</ele><time>2026-04-26T17:19:01.86Z</time></trkpt><trkpt lat="44.9701846" lon="12.0001666"><ele>0.0</ele><time>2026-04-26T17:19:02.86Z</time></trkpt><trkpt lat="44.9703542" lon="12.0000542"><ele>-0.3333333333333333</ele><time>2026-04-26T17:19:03.86Z</time></trkpt><trkpt lat="44.9705056" lon="11.9999125"><ele>-0.6666666666666666</ele><time>2026-04-26T17:19:04.859Z</time></trkpt><trkpt lat="44.9706388" lon="11.9997225"><ele>-1.0</ele><time>2026-04-26T17:19:05.859Z</time></trkpt><trkpt lat="44.9707613" lon="11.999493"><ele>-0.5</ele><time>2026-04-26T17:19:06.859Z</time></trkpt><trkpt lat="44.970903" lon="11.9992356"><ele>0.0</ele><time>2026-04-26T17:19:07.859Z</time></trkpt><trkpt lat="44.9710546" lon="11.998957"><ele>0.5</ele><time>2026-04-26T17:19:08.86Z</time></trkpt><trkpt lat="44.971217" lon="11.9986491"><ele>1.0</ele><time>2026-04-26T17:19:09.859Z</time></trkpt><trkpt lat="44.9713841" lon="11.9983249"><ele>0.0</ele><time>2026-04-26T17:19:10.86Z</time></trkpt><trkpt lat="44.9715556" lon="11.9979834"><ele>-1.0</ele><time>2026-04-26T17:19:11.859Z</time></trkpt><trkpt lat="44.971726" lon="11.9976262"><ele>-0.5</ele><time>2026-04-26T17:19:12.859Z</time></trkpt><trkpt lat="44.971891" lon="11.9972535"><ele>0.0</ele><time>2026-04-26T17:19:13.859Z</time></trkpt><trkpt lat="44.9720558" lon="11.9969026"><ele>0.0</ele><time>2026-04-26T17:19:14.859Z</time></trkpt><trkpt lat="44.9722246" lon="11.9965767"><ele>0.0</ele><time>2026-04-26T17:19:15.859Z</time></trkpt><trkpt lat="44.97239" lon="11.9962767"><ele>0.0</ele><time>2026-04-26T17:19:16.86Z</time></trkpt><trkpt lat="44.9725518" lon="11.9959994"><ele>0.0</ele><time>2026-04-26T17:19:17.86Z</time></trkpt><trkpt lat="44.9727059" lon="11.9957378"><ele>0.0</ele><time>2026-04-26T17:19:18.859Z</time></trkpt><trkpt lat="44.9728533" lon="11.9954905"><ele>0.0</ele><time>2026-04-26T17:19:19.859Z</time></trkpt><trkpt lat="44.9729928" lon="11.9952482"><ele>0.0</ele><time>2026-04-26T17:19:20.86Z</time></trkpt><trkpt lat="44.9731286" lon="11.9950143"><ele>0.0</ele><time>2026-04-26T17:19:21.86Z</time></trkpt><trkpt lat="44.9732603" lon="11.9947805"><ele>0.0</ele><time>2026-04-26T17:19:22.859Z</time></trkpt><trkpt lat="44.9733887" lon="11.9945491"><ele>-0.3333333333333333</ele><time>2026-04-26T17:19:23.86Z</time></trkpt><trkpt lat="44.9735195" lon="11.9943202"><ele>-0.6666666666666666</ele><time>2026-04-26T17:19:24.86Z</time></trkpt><trkpt lat="44.9736508" lon="11.9940993"><ele>-1.0</ele><time>2026-04-26T17:19:25.859Z</time></trkpt><trkpt lat="44.9737799" lon="11.9938697"><ele>-1.0</ele><time>2026-04-26T17:19:26.859Z</time></trkpt><trkpt lat="44.9739083" lon="11.9936436"><ele>-1.0</ele><time>2026-04-26T17:19:27.86Z</time></trkpt><trkpt lat="44.974037" lon="11.9934118"><ele>-1.0</ele><time>2026-04-26T17:19:28.86Z</time></trkpt><trkpt lat="44.9741671" lon="11.9931823"><ele>-0.6666666666666666</ele><time>2026-04-26T17:19:29.859Z</time></trkpt><trkpt lat="44.9742976" lon="11.9929536"><ele>-0.3333333333333333</ele><time>2026-04-26T17:19:30.859Z</time></trkpt><trkpt lat="44.9744275" lon="11.9927298"><ele>0.0</ele><time>2026-04-26T17:19:31.859Z</time></trkpt><trkpt lat="44.9745561" lon="11.9925111"><ele>0.0</ele><time>2026-04-26T17:19:32.859Z</time></trkpt><trkpt lat="44.9746844" lon="11.9922937"><ele>0.0</ele><time>2026-04-26T17:19:33.859Z</time></trkpt><trkpt lat="44.9748101" lon="11.9920786"><ele>0.0</ele><time>2026-04-26T17:19:34.86Z</time></trkpt><trkpt lat="44.9749325" lon="11.9918639"><ele>0.0</ele><time>2026-04-26T17:19:35.86Z</time></trkpt><trkpt lat="44.975057" lon="11.9916514"><ele>0.0</ele><time>2026-04-26T17:19:36.86Z</time></trkpt><trkpt lat="44.97518" lon="11.9914399"><ele>0.0</ele><time>2026-04-26T17:19:37.86Z</time></trkpt><trkpt lat="44.9752999" lon="11.9912299"><ele>0.0</ele><time>2026-04-26T17:19:38.859Z</time></trkpt><trkpt lat="44.9754219" lon="11.9910173"><ele>0.0</ele><time>2026-04-26T17:19:39.86Z</time></trkpt><trkpt lat="44.9755429" lon="11.9908019"><ele>0.0</ele><time>2026-04-26T17:19:40.86Z</time></trkpt><trkpt lat="44.9756643" lon="11.9905882"><ele>0.3333333333333333</ele><time>2026-04-26T17:19:41.86Z</time></trkpt><trkpt lat="44.9757884" lon="11.9903839"><ele>0.6666666666666666</ele><time>2026-04-26T17:19:42.86Z</time></trkpt><trkpt lat="44.9759099" lon="11.9901743"><ele>1.0</ele><time>2026-04-26T17:19:43.859Z</time></trkpt><trkpt lat="44.9760279" lon="11.9899579"><ele>1.3333333333333333</ele><time>2026-04-26T17:19:44.859Z</time></trkpt><trkpt lat="44.9761462" lon="11.9897465"><ele>1.6666666666666665</ele><time>2026-04-26T17:19:45.859Z</time></trkpt><trkpt lat="44.9762641" lon="11.9895308"><ele>2.0</ele><time>2026-04-26T17:19:46.859Z</time></trkpt><trkpt lat="44.9763778" lon="11.9893243"><ele>1.6666666666666665</ele><time>2026-04-26T17:19:47.86Z</time></trkpt><trkpt lat="44.9764821" lon="11.9891215"><ele>1.3333333333333333</ele><time>2026-04-26T17:19:48.859Z</time></trkpt><trkpt lat="44.976569" lon="11.988919"><ele>1.0</ele><time>2026-04-26T17:19:49.859Z</time></trkpt><trkpt lat="44.9766458" lon="11.9887074"><ele>0.6666666666666666</ele><time>2026-04-26T17:19:50.859Z</time></trkpt><trkpt lat="44.9767074" lon="11.9884825"><ele>0.3333333333333333</ele><time>2026-04-26T17:19:51.86Z</time></trkpt><trkpt lat="44.9767572" lon="11.9882482"><ele>0.0</ele><time>2026-04-26T17:19:52.86Z</time></trkpt><trkpt lat="44.9768027" lon="11.9880055"><ele>0.0</ele><time>2026-04-26T17:19:53.859Z</time></trkpt><trkpt lat="44.9768483" lon="11.9877601"><ele>0.0</ele><time>2026-04-26T17:19:54.86Z</time></trkpt><trkpt lat="44.9768928" lon="11.9875132"><ele>0.0</ele><time>2026-04-26T17:19:55.859Z</time></trkpt><trkpt lat="44.9769372" lon="11.9872744"><ele>0.0</ele><time>2026-04-26T17:19:56.86Z</time></trkpt><trkpt lat="44.9769756" lon="11.9870526"><ele>0.0</ele><time>2026-04-26T17:19:57.859Z</time></trkpt><trkpt lat="44.9770118" lon="11.9868391"><ele>0.0</ele><time>2026-04-26T17:19:58.86Z</time></trkpt><trkpt lat="44.9770449" lon="11.9866329"><ele>0.0</ele><time>2026-04-26T17:19:59.859Z</time></trkpt><trkpt lat="44.9770731" lon="11.986431"><ele>0.0</ele><time>2026-04-26T17:20:00.859Z</time></trkpt><trkpt lat="44.9770995" lon="11.9862241"><ele>0.0</ele><time>2026-04-26T17:20:01.86Z</time></trkpt><trkpt lat="44.9771328" lon="11.9860248"><ele>0.0</ele><time>2026-04-26T17:20:02.859Z</time></trkpt><trkpt lat="44.9771675" lon="11.9858183"><ele>0.3333333333333333</ele><time>2026-04-26T17:20:03.86Z</time></trkpt><trkpt lat="44.9771992" lon="11.9856088"><ele>0.6666666666666666</ele><time>2026-04-26T17:20:04.86Z</time></trkpt><trkpt lat="44.977236" lon="11.9853974"><ele>1.0</ele><time>2026-04-26T17:20:05.86Z</time></trkpt><trkpt lat="44.9772705" lon="11.9851764"><ele>1.0</ele><time>2026-04-26T17:20:06.859Z</time></trkpt><trkpt lat="44.9773068" lon="11.9849621"><ele>1.0</ele><time>2026-04-26T17:20:07.859Z</time></trkpt><trkpt lat="44.9773435" lon="11.9847507"><ele>1.0</ele><time>2026-04-26T17:20:08.86Z</time></trkpt><trkpt lat="44.9773781" lon="11.9845489"><ele>1.0</ele><time>2026-04-26T17:20:09.859Z</time></trkpt><trkpt lat="44.9774099" lon="11.9843473"><ele>1.0</ele><time>2026-04-26T17:20:10.859Z</time></trkpt><trkpt lat="44.9774393" lon="11.9841499"><ele>1.0</ele><time>2026-04-26T17:20:11.859Z</time></trkpt><trkpt lat="44.9774703" lon="11.9839533"><ele>1.0</ele><time>2026-04-26T17:20:12.859Z</time></trkpt><trkpt lat="44.9775024" lon="11.9837629"><ele>1.0</ele><time>2026-04-26T17:20:13.86Z</time></trkpt><trkpt lat="44.9775312" lon="11.9835854"><ele>1.0</ele><time>2026-04-26T17:20:14.86Z</time></trkpt><trkpt lat="44.9775537" lon="11.983412"><ele>1.0</ele><time>2026-04-26T17:20:15.859Z</time></trkpt><trkpt lat="44.977565" lon="11.9832448"><ele>1.0</ele><time>2026-04-26T17:20:16.859Z</time></trkpt><trkpt lat="44.9775611" lon="11.983067"><ele>1.0</ele><time>2026-04-26T17:20:17.86Z</time></trkpt><trkpt lat="44.9775405" lon="11.9828856"><ele>1.0</ele><time>2026-04-26T17:20:18.86Z</time></trkpt><trkpt lat="44.9775038" lon="11.9827067"><ele>1.0</ele><time>2026-04-26T17:20:19.86Z</time></trkpt><trkpt lat="44.9774529" lon="11.9825319"><ele>1.0</ele><time>2026-04-26T17:20:20.86Z</time></trkpt><trkpt lat="44.9773886" lon="11.9823459"><ele>1.0</ele><time>2026-04-26T17:20:21.86Z</time></trkpt><trkpt lat="44.9773143" lon="11.9821584"><ele>1.0</ele><time>2026-04-26T17:20:22.86Z</time></trkpt><trkpt lat="44.9772414" lon="11.9819635"><ele>1.0</ele><time>2026-04-26T17:20:23.86Z</time></trkpt><trkpt lat="44.9771677" lon="11.9817625"><ele>0.6666666666666666</ele><time>2026-04-26T17:20:24.859Z</time></trkpt><trkpt lat="44.9770931" lon="11.9815567"><ele>0.3333333333333333</ele><time>2026-04-26T17:20:25.859Z</time></trkpt><trkpt lat="44.9770215" lon="11.9813563"><ele>0.0</ele><time>2026-04-26T17:20:26.86Z</time></trkpt><trkpt lat="44.9769511" lon="11.9811605"><ele>0.0</ele><time>2026-04-26T17:20:27.86Z</time></trkpt><trkpt lat="44.9768805" lon="11.9809653"><ele>0.0</ele><time>2026-04-26T17:20:28.86Z</time></trkpt><trkpt lat="44.9768076" lon="11.9807686"><ele>0.0</ele><time>2026-04-26T17:20:29.86Z</time></trkpt><trkpt lat="44.9767379" lon="11.9805746"><ele>0.3333333333333333</ele><time>2026-04-26T17:20:30.859Z</time></trkpt><trkpt lat="44.9766627" lon="11.9803894"><ele>0.6666666666666666</ele><time>2026-04-26T17:20:31.859Z</time></trkpt><trkpt lat="44.9765769" lon="11.9802114"><ele>1.0</ele><time>2026-04-26T17:20:32.86Z</time></trkpt><trkpt lat="44.976481" lon="11.9800384"><ele>0.6666666666666666</ele><time>2026-04-26T17:20:33.859Z</time></trkpt><trkpt lat="44.9763706" lon="11.9798714"><ele>0.3333333333333333</ele><time>2026-04-26T17:20:34.859Z</time></trkpt><trkpt lat="44.9762486" lon="11.9797119"><ele>0.0</ele><time>2026-04-26T17:20:35.86Z</time></trkpt><trkpt lat="44.9761193" lon="11.9795545"><ele>0.0</ele><time>2026-04-26T17:20:36.86Z</time></trkpt><trkpt lat="44.9759849" lon="11.9793982"><ele>0.0</ele><time>2026-04-26T17:20:37.859Z</time></trkpt><trkpt lat="44.9758525" lon="11.9792321"><ele>0.0</ele><time>2026-04-26T17:20:38.859Z</time></trkpt><trkpt lat="44.9757216" lon="11.9790648"><ele>0.3333333333333333</ele><time>2026-04-26T17:20:39.859Z</time></trkpt><trkpt lat="44.9755883" lon="11.9788975"><ele>0.6666666666666666</ele><time>2026-04-26T17:20:40.86Z</time></trkpt><trkpt lat="44.975452" lon="11.9787326"><ele>1.0</ele><time>2026-04-26T17:20:41.859Z</time></trkpt><trkpt lat="44.9753116" lon="11.9785675"><ele>1.0</ele><time>2026-04-26T17:20:42.86Z</time></trkpt><trkpt lat="44.9751686" lon="11.9784036"><ele>1.0</ele><time>2026-04-26T17:20:43.86Z</time></trkpt><trkpt lat="44.97503" lon="11.9782383"><ele>1.0</ele><time>2026-04-26T17:20:44.859Z</time></trkpt><trkpt lat="44.974894" lon="11.9780767"><ele>0.3333333333333333</ele><time>2026-04-26T17:20:45.86Z</time></trkpt><trkpt lat="44.9747677" lon="11.9779193"><ele>-0.3333333333333333</ele><time>2026-04-26T17:20:46.859Z</time></trkpt><trkpt lat="44.9746451" lon="11.9777697"><ele>-1.0</ele><time>2026-04-26T17:20:47.859Z</time></trkpt><trkpt lat="44.9745219" lon="11.9776231"><ele>-1.0</ele><time>2026-04-26T17:20:48.86Z</time></trkpt><trkpt lat="44.9744011" lon="11.9774764"><ele>-1.0</ele><time>2026-04-26T17:20:49.86Z</time></trkpt><trkpt lat="44.9742773" lon="11.9773297"><ele>-1.0</ele><time>2026-04-26T17:20:50.859Z</time></trkpt><trkpt lat="44.9741559" lon="11.9771848"><ele>-1.0</ele><time>2026-04-26T17:20:51.859Z</time></trkpt><trkpt lat="44.9740321" lon="11.977033"><ele>-1.0</ele><time>2026-04-26T17:20:52.859Z</time></trkpt><trkpt lat="44.9739118" lon="11.9768773"><ele>-1.0</ele><time>2026-04-26T17:20:53.859Z</time></trkpt><trkpt lat="44.9737922" lon="11.9767188"><ele>-1.0</ele><time>2026-04-26T17:20:54.86Z</time></trkpt><trkpt lat="44.9736752" lon="11.9765553"><ele>-1.0</ele><time>2026-04-26T17:20:55.859Z</time></trkpt><trkpt lat="44.9735669" lon="11.9763752"><ele>-1.0</ele><time>2026-04-26T17:20:56.859Z</time></trkpt><trkpt lat="44.9734654" lon="11.9761816"><ele>-1.0</ele><time>2026-04-26T17:20:57.86Z</time></trkpt><trkpt lat="44.9733717" lon="11.9759841"><ele>-1.0</ele><time>2026-04-26T17:20:58.859Z</time></trkpt><trkpt lat="44.9732708" lon="11.9758031"><ele>-1.0</ele><time>2026-04-26T17:20:59.86Z</time></trkpt><trkpt lat="44.9731894" lon="11.9755887"><ele>-1.0</ele><time>2026-04-26T17:21:00.859Z</time></trkpt><trkpt lat="44.9731076" lon="11.975393"><ele>-1.0</ele><time>2026-04-26T17:21:01.859Z</time></trkpt><trkpt lat="44.9730274" lon="11.9751985"><ele>-1.0</ele><time>2026-04-26T17:21:02.859Z</time></trkpt><trkpt lat="44.9729503" lon="11.9750102"><ele>-0.3333333333333333</ele><time>2026-04-26T17:21:03.859Z</time></trkpt><trkpt lat="44.9728737" lon="11.9748288"><ele>0.3333333333333333</ele><time>2026-04-26T17:21:04.86Z</time></trkpt><trkpt lat="44.9728003" lon="11.9746378"><ele>1.0</ele><time>2026-04-26T17:21:05.86Z</time></trkpt><trkpt lat="44.9727282" lon="11.9744469"><ele>1.0</ele><time>2026-04-26T17:21:06.86Z</time></trkpt><trkpt lat="44.9726578" lon="11.9742441"><ele>1.0</ele><time>2026-04-26T17:21:07.86Z</time></trkpt><trkpt lat="44.9725906" lon="11.9740436"><ele>1.0</ele><time>2026-04-26T17:21:08.859Z</time></trkpt><trkpt lat="44.9725236" lon="11.9738357"><ele>1.0</ele><time>2026-04-26T17:21:09.859Z</time></trkpt><trkpt lat="44.9724602" lon="11.9736209"><ele>1.0</ele><time>2026-04-26T17:21:10.86Z</time></trkpt><trkpt lat="44.9724006" lon="11.9734002"><ele>1.0</ele><time>2026-04-26T17:21:11.86Z</time></trkpt><trkpt lat="44.9723435" lon="11.973172"><ele>1.0</ele><time>2026-04-26T17:21:12.86Z</time></trkpt><trkpt lat="44.9722867" lon="11.9729492"><ele>1.0</ele><time>2026-04-26T17:21:13.86Z</time></trkpt><trkpt lat="44.9722314" lon="11.972721"><ele>1.0</ele><time>2026-04-26T17:21:14.859Z</time></trkpt><trkpt lat="44.972183" lon="11.9724935"><ele>1.0</ele><time>2026-04-26T17:21:15.859Z</time></trkpt><trkpt lat="44.9721339" lon="11.9722642"><ele>1.0</ele><time>2026-04-26T17:21:16.86Z</time></trkpt><trkpt lat="44.9720839" lon="11.9720351"><ele>1.0</ele><time>2026-04-26T17:21:17.859Z</time></trkpt><trkpt lat="44.9720313" lon="11.9718077"><ele>1.0</ele><time>2026-04-26T17:21:18.86Z</time></trkpt><trkpt lat="44.9719787" lon="11.9715827"><ele>1.0</ele><time>2026-04-26T17:21:19.86Z</time></trkpt><trkpt lat="44.9719294" lon="11.9713617"><ele>1.0</ele><time>2026-04-26T17:21:20.86Z</time></trkpt><trkpt lat="44.9718772" lon="11.9711423"><ele>1.0</ele><time>2026-04-26T17:21:21.859Z</time></trkpt><trkpt lat="44.9718256" lon="11.9709238"><ele>1.0</ele><time>2026-04-26T17:21:22.859Z</time></trkpt><trkpt lat="44.9717723" lon="11.970706"><ele>1.0</ele><time>2026-04-26T17:21:23.859Z</time></trkpt><trkpt lat="44.9717191" lon="11.9704895"><ele>1.0</ele><time>2026-04-26T17:21:24.86Z</time></trkpt><trkpt lat="44.9716659" lon="11.9702747"><ele>1.0</ele><time>2026-04-26T17:21:25.86Z</time></trkpt><trkpt lat="44.9716137" lon="11.9700536"><ele>1.0</ele><time>2026-04-26T17:21:26.86Z</time></trkpt><trkpt lat="44.9715655" lon="11.9698426"><ele>1.0</ele><time>2026-04-26T17:21:27.859Z</time></trkpt><trkpt lat="44.9715163" lon="11.9696305"><ele>1.0</ele><time>2026-04-26T17:21:28.86Z</time></trkpt><trkpt lat="44.9714677" lon="11.9694203"><ele>1.0</ele><time>2026-04-26T17:21:29.86Z</time></trkpt><trkpt lat="44.9714212" lon="11.9692059"><ele>0.6666666666666666</ele><time>2026-04-26T17:21:30.86Z</time></trkpt><trkpt lat="44.9713851" lon="11.9689836"><ele>0.3333333333333333</ele><time>2026-04-26T17:21:31.859Z</time></trkpt><trkpt lat="44.9713562" lon="11.9687563"><ele>0.0</ele><time>2026-04-26T17:21:32.86Z</time></trkpt><trkpt lat="44.9713371" lon="11.9685204"><ele>0.0</ele><time>2026-04-26T17:21:33.859Z</time></trkpt><trkpt lat="44.9713255" lon="11.9682805"><ele>0.0</ele><time>2026-04-26T17:21:34.86Z</time></trkpt><trkpt lat="44.9713153" lon="11.9680392"><ele>0.0</ele><time>2026-04-26T17:21:35.859Z</time></trkpt><trkpt lat="44.9712991" lon="11.9677929"><ele>0.0</ele><time>2026-04-26T17:21:36.86Z</time></trkpt><trkpt lat="44.9712775" lon="11.9675444"><ele>0.0</ele><time>2026-04-26T17:21:37.859Z</time></trkpt><trkpt lat="44.9712473" lon="11.9672964"><ele>0.0</ele><time>2026-04-26T17:21:38.859Z</time></trkpt><trkpt lat="44.9712026" lon="11.9670433"><ele>0.3333333333333333</ele><time>2026-04-26T17:21:39.859Z</time></trkpt><trkpt lat="44.9711505" lon="11.9667916"><ele>0.6666666666666666</ele><time>2026-04-26T17:21:40.859Z</time></trkpt><trkpt lat="44.971086" lon="11.9665446"><ele>1.0</ele><time>2026-04-26T17:21:41.859Z</time></trkpt><trkpt lat="44.9710148" lon="11.9663009"><ele>1.0</ele><time>2026-04-26T17:21:42.86Z</time></trkpt><trkpt lat="44.9709346" lon="11.9660561"><ele>1.0</ele><time>2026-04-26T17:21:43.859Z</time></trkpt><trkpt lat="44.9708297" lon="11.9658171"><ele>1.0</ele><time>2026-04-26T17:21:44.859Z</time></trkpt><trkpt lat="44.970704" lon="11.9655844"><ele>1.0</ele><time>2026-04-26T17:21:45.86Z</time></trkpt><trkpt lat="44.9705586" lon="11.9653599"><ele>1.0</ele><time>2026-04-26T17:21:46.859Z</time></trkpt><trkpt lat="44.9704031" lon="11.9651548"><ele>1.0</ele><time>2026-04-26T17:21:47.859Z</time></trkpt><trkpt lat="44.9702552" lon="11.9649656"><ele>1.0</ele><time>2026-04-26T17:21:48.86Z</time></trkpt><trkpt lat="44.9701303" lon="11.9647616"><ele>1.0</ele><time>2026-04-26T17:21:49.86Z</time></trkpt><trkpt lat="44.9700343" lon="11.964534"><ele>1.0</ele><time>2026-04-26T17:21:50.859Z</time></trkpt><trkpt lat="44.9699646" lon="11.9642648"><ele>1.0</ele><time>2026-04-26T17:21:51.859Z</time></trkpt><trkpt lat="44.9699123" lon="11.9639605"><ele>1.0</ele><time>2026-04-26T17:21:52.86Z</time></trkpt><trkpt lat="44.9698565" lon="11.9636382"><ele>1.0</ele><time>2026-04-26T17:21:53.86Z</time></trkpt><trkpt lat="44.969767" lon="11.9633028"><ele>1.0</ele><time>2026-04-26T17:21:54.859Z</time></trkpt><trkpt lat="44.9696522" lon="11.9629654"><ele>1.0</ele><time>2026-04-26T17:21:55.859Z</time></trkpt><trkpt lat="44.9695132" lon="11.9626308"><ele>1.0</ele><time>2026-04-26T17:21:56.859Z</time></trkpt><trkpt lat="44.9693801" lon="11.9623118"><ele>0.5</ele><time>2026-04-26T17:21:57.859Z</time></trkpt><trkpt lat="44.9692485" lon="11.9620127"><ele>0.0</ele><time>2026-04-26T17:21:58.859Z</time></trkpt><trkpt lat="44.9691283" lon="11.9617299"><ele>0.0</ele><time>2026-04-26T17:21:59.859Z</time></trkpt><trkpt lat="44.9690065" lon="11.9614495"><ele>0.0</ele><time>2026-04-26T17:22:00.859Z</time></trkpt><trkpt lat="44.968887" lon="11.9611704"><ele>0.0</ele><time>2026-04-26T17:22:01.86Z</time></trkpt><trkpt lat="44.968767" lon="11.9608958"><ele>0.0</ele><time>2026-04-26T17:22:02.859Z</time></trkpt><trkpt lat="44.968645" lon="11.9606269"><ele>-0.5</ele><time>2026-04-26T17:22:03.86Z</time></trkpt><trkpt lat="44.9685222" lon="11.9603588"><ele>-1.0</ele><time>2026-04-26T17:22:04.859Z</time></trkpt><trkpt lat="44.9684018" lon="11.9600891"><ele>-1.0</ele><time>2026-04-26T17:22:05.859Z</time></trkpt><trkpt lat="44.9682804" lon="11.9598216"><ele>-1.0</ele><time>2026-04-26T17:22:06.859Z</time></trkpt><trkpt lat="44.968159" lon="11.9595503"><ele>-1.0</ele><time>2026-04-26T17:22:07.86Z</time></trkpt><trkpt lat="44.9680364" lon="11.9592791"><ele>-1.0</ele><time>2026-04-26T17:22:08.859Z</time></trkpt><trkpt lat="44.9679194" lon="11.9590045"><ele>-1.0</ele><time>2026-04-26T17:22:09.86Z</time></trkpt><trkpt lat="44.9677951" lon="11.9587317"><ele>-1.0</ele><time>2026-04-26T17:22:10.859Z</time></trkpt><trkpt lat="44.9676739" lon="11.9584563"><ele>-1.0</ele><time>2026-04-26T17:22:11.859Z</time></trkpt><trkpt lat="44.9675531" lon="11.9581791"><ele>-1.0</ele><time>2026-04-26T17:22:12.86Z</time></trkpt><trkpt lat="44.9674284" lon="11.9579052"><ele>-1.0</ele><time>2026-04-26T17:22:13.86Z</time></trkpt><trkpt lat="44.9673033" lon="11.9576348"><ele>-1.0</ele><time>2026-04-26T17:22:14.86Z</time></trkpt><trkpt lat="44.9671791" lon="11.957359"><ele>0.0</ele><time>2026-04-26T17:22:15.86Z</time></trkpt><trkpt lat="44.9670552" lon="11.9570785"><ele>1.0</ele><time>2026-04-26T17:22:16.86Z</time></trkpt><trkpt lat="44.9669343" lon="11.9567965"><ele>1.0</ele><time>2026-04-26T17:22:17.859Z</time></trkpt><trkpt lat="44.9668142" lon="11.95651"><ele>1.0</ele><time>2026-04-26T17:22:18.859Z</time></trkpt><trkpt lat="44.9666966" lon="11.9562179"><ele>1.0</ele><time>2026-04-26T17:22:19.859Z</time></trkpt><trkpt lat="44.9665779" lon="11.9559249"><ele>1.0</ele><time>2026-04-26T17:22:20.859Z</time></trkpt><trkpt lat="44.966455" lon="11.9556272"><ele>1.0</ele><time>2026-04-26T17:22:21.86Z</time></trkpt><trkpt lat="44.9663373" lon="11.9553382"><ele>1.0</ele><time>2026-04-26T17:22:22.86Z</time></trkpt><trkpt lat="44.9662304" lon="11.9550672"><ele>0.6666666666666666</ele><time>2026-04-26T17:22:23.86Z</time></trkpt><trkpt lat="44.966132" lon="11.9548029"><ele>0.3333333333333333</ele><time>2026-04-26T17:22:24.859Z</time></trkpt><trkpt lat="44.9660517" lon="11.9545334"><ele>0.0</ele><time>2026-04-26T17:22:25.859Z</time></trkpt><trkpt lat="44.9659825" lon="11.9542511"><ele>-0.3333333333333333</ele><time>2026-04-26T17:22:26.859Z</time></trkpt><trkpt lat="44.9659155" lon="11.9539615"><ele>-0.6666666666666666</ele><time>2026-04-26T17:22:27.859Z</time></trkpt><trkpt lat="44.9658491" lon="11.9536663"><ele>-1.0</ele><time>2026-04-26T17:22:28.859Z</time></trkpt><trkpt lat="44.9657895" lon="11.9533657"><ele>-1.5</ele><time>2026-04-26T17:22:29.859Z</time></trkpt><trkpt lat="44.9657439" lon="11.9530507"><ele>-2.0</ele><time>2026-04-26T17:22:30.859Z</time></trkpt><trkpt lat="44.9657142" lon="11.952724"><ele>-1.5</ele><time>2026-04-26T17:22:31.859Z</time></trkpt><trkpt lat="44.9656943" lon="11.9523919"><ele>-1.0</ele><time>2026-04-26T17:22:32.859Z</time></trkpt><trkpt lat="44.9656752" lon="11.9520575"><ele>-1.0</ele><time>2026-04-26T17:22:33.859Z</time></trkpt><trkpt lat="44.9656591" lon="11.9517188"><ele>-1.0</ele><time>2026-04-26T17:22:34.86Z</time></trkpt><trkpt lat="44.9656527" lon="11.9513745"><ele>0.0</ele><time>2026-04-26T17:22:35.86Z</time></trkpt><trkpt lat="44.9656623" lon="11.9510275"><ele>1.0</ele><time>2026-04-26T17:22:36.86Z</time></trkpt><trkpt lat="44.9656751" lon="11.9506905"><ele>1.6666666666666665</ele><time>2026-04-26T17:22:37.859Z</time></trkpt><trkpt lat="44.9656883" lon="11.9503683"><ele>2.3333333333333335</ele><time>2026-04-26T17:22:38.86Z</time></trkpt><trkpt lat="44.9656931" lon="11.9500628"><ele>3.0</ele><time>2026-04-26T17:22:39.859Z</time></trkpt><trkpt lat="44.9656663" lon="11.9497655"><ele>3.0</ele><time>2026-04-26T17:22:40.859Z</time></trkpt><trkpt lat="44.9656138" lon="11.9494637"><ele>3.0</ele><time>2026-04-26T17:22:41.859Z</time></trkpt><trkpt lat="44.9655384" lon="11.9491523"><ele>2.0</ele><time>2026-04-26T17:22:42.859Z</time></trkpt><trkpt lat="44.9654484" lon="11.948845"><ele>1.0</ele><time>2026-04-26T17:22:43.86Z</time></trkpt><trkpt lat="44.9653644" lon="11.9485251"><ele>0.0</ele><time>2026-04-26T17:22:44.86Z</time></trkpt><trkpt lat="44.9652901" lon="11.9482037"><ele>-1.0</ele><time>2026-04-26T17:22:45.859Z</time></trkpt><trkpt lat="44.9652231" lon="11.9478873"><ele>-1.0</ele><time>2026-04-26T17:22:46.859Z</time></trkpt><trkpt lat="44.9651577" lon="11.9475855"><ele>-1.0</ele><time>2026-04-26T17:22:47.86Z</time></trkpt><trkpt lat="44.9650929" lon="11.9473001"><ele>-1.0</ele><time>2026-04-26T17:22:48.86Z</time></trkpt><trkpt lat="44.9650462" lon="11.9470215"><ele>-1.0</ele><time>2026-04-26T17:22:49.86Z</time></trkpt><trkpt lat="44.9650202" lon="11.9467262"><ele>-1.0</ele><time>2026-04-26T17:22:50.86Z</time></trkpt><trkpt lat="44.9650161" lon="11.946412"><ele>-1.0</ele><time>2026-04-26T17:22:51.859Z</time></trkpt><trkpt lat="44.9650346" lon="11.9460871"><ele>-0.5</ele><time>2026-04-26T17:22:52.86Z</time></trkpt><trkpt lat="44.9650731" lon="11.9457573"><ele>0.0</ele><time>2026-04-26T17:22:53.86Z</time></trkpt><trkpt lat="44.9651235" lon="11.9454241"><ele>0.0</ele><time>2026-04-26T17:22:54.86Z</time></trkpt><trkpt lat="44.9651793" lon="11.9450906"><ele>0.0</ele><time>2026-04-26T17:22:55.859Z</time></trkpt><trkpt lat="44.9652329" lon="11.9447607"><ele>0.0</ele><time>2026-04-26T17:22:56.86Z</time></trkpt><trkpt lat="44.9652859" lon="11.9444311"><ele>0.0</ele><time>2026-04-26T17:22:57.859Z</time></trkpt><trkpt lat="44.9653382" lon="11.9441137"><ele>0.0</ele><time>2026-04-26T17:22:58.86Z</time></trkpt><trkpt lat="44.9653864" lon="11.9437999"><ele>0.0</ele><time>2026-04-26T17:22:59.86Z</time></trkpt><trkpt lat="44.9654203" lon="11.9435219"><ele>0.0</ele><time>2026-04-26T17:23:00.86Z</time></trkpt><trkpt lat="44.9654548" lon="11.9432441"><ele>0.3333333333333333</ele><time>2026-04-26T17:23:01.859Z</time></trkpt><trkpt lat="44.9654703" lon="11.9429698"><ele>0.6666666666666666</ele><time>2026-04-26T17:23:02.86Z</time></trkpt><trkpt lat="44.9654733" lon="11.9426929"><ele>1.0</ele><time>2026-04-26T17:23:03.86Z</time></trkpt><trkpt lat="44.9654696" lon="11.9424127"><ele>1.0</ele><time>2026-04-26T17:23:04.859Z</time></trkpt><trkpt lat="44.9654599" lon="11.9421267"><ele>1.0</ele><time>2026-04-26T17:23:05.859Z</time></trkpt><trkpt lat="44.9654486" lon="11.9418354"><ele>1.0</ele><time>2026-04-26T17:23:06.86Z</time></trkpt><trkpt lat="44.9654303" lon="11.9415439"><ele>0.6666666666666666</ele><time>2026-04-26T17:23:07.859Z</time></trkpt><trkpt lat="44.9654093" lon="11.9412508"><ele>0.3333333333333333</ele><time>2026-04-26T17:23:08.859Z</time></trkpt><trkpt lat="44.9653926" lon="11.9409521"><ele>0.0</ele><time>2026-04-26T17:23:09.86Z</time></trkpt><trkpt lat="44.9653722" lon="11.9406536"><ele>0.0</ele><time>2026-04-26T17:23:10.859Z</time></trkpt><trkpt lat="44.9653513" lon="11.9403483"><ele>0.0</ele><time>2026-04-26T17:23:11.86Z</time></trkpt><trkpt lat="44.965328" lon="11.9400468"><ele>0.0</ele><time>2026-04-26T17:23:12.86Z</time></trkpt><trkpt lat="44.9653031" lon="11.9397425"><ele>0.0</ele><time>2026-04-26T17:23:13.86Z</time></trkpt><trkpt lat="44.9652759" lon="11.9394394"><ele>0.0</ele><time>2026-04-26T17:23:14.86Z</time></trkpt><trkpt lat="44.9652381" lon="11.9391426"><ele>0.0</ele><time>2026-04-26T17:23:15.86Z</time></trkpt><trkpt lat="44.9651904" lon="11.9388463"><ele>0.0</ele><time>2026-04-26T17:23:16.859Z</time></trkpt><trkpt lat="44.9651317" lon="11.9385565"><ele>0.0</ele><time>2026-04-26T17:23:17.859Z</time></trkpt><trkpt lat="44.9650705" lon="11.938266"><ele>0.0</ele><time>2026-04-26T17:23:18.859Z</time></trkpt><trkpt lat="44.9650092" lon="11.9379758"><ele>0.0</ele><time>2026-04-26T17:23:19.859Z</time></trkpt><trkpt lat="44.9649515" lon="11.9376818"><ele>0.0</ele><time>2026-04-26T17:23:20.86Z</time></trkpt><trkpt lat="44.9648938" lon="11.9373864"><ele>0.0</ele><time>2026-04-26T17:23:21.859Z</time></trkpt><trkpt lat="44.9648363" lon="11.937096"><ele>0.0</ele><time>2026-04-26T17:23:22.86Z</time></trkpt><trkpt lat="44.9647778" lon="11.9368052"><ele>0.0</ele><time>2026-04-26T17:23:23.86Z</time></trkpt><trkpt lat="44.9647179" lon="11.9365119"><ele>0.0</ele><time>2026-04-26T17:23:24.86Z</time></trkpt><trkpt lat="44.9646604" lon="11.936221"><ele>0.0</ele><time>2026-04-26T17:23:25.859Z</time></trkpt><trkpt lat="44.9646024" lon="11.9359293"><ele>0.0</ele><time>2026-04-26T17:23:26.86Z</time></trkpt><trkpt lat="44.964544" lon="11.9356371"><ele>0.0</ele><time>2026-04-26T17:23:27.859Z</time></trkpt><trkpt lat="44.9644871" lon="11.9353453"><ele>0.5</ele><time>2026-04-26T17:23:28.859Z</time></trkpt><trkpt lat="44.964437" lon="11.9350384"><ele>1.0</ele><time>2026-04-26T17:23:29.859Z</time></trkpt><trkpt lat="44.9644056" lon="11.9347113"><ele>1.0</ele><time>2026-04-26T17:23:30.859Z</time></trkpt><trkpt lat="44.9643848" lon="11.93437"><ele>1.0</ele><time>2026-04-26T17:23:31.859Z</time></trkpt><trkpt lat="44.9643652" lon="11.9340422"><ele>1.0</ele><time>2026-04-26T17:23:32.859Z</time></trkpt><trkpt lat="44.9643441" lon="11.9337247"><ele>1.0</ele><time>2026-04-26T17:23:33.859Z</time></trkpt><trkpt lat="44.9643386" lon="11.9334203"><ele>1.0</ele><time>2026-04-26T17:23:34.859Z</time></trkpt><trkpt lat="44.9643463" lon="11.933127"><ele>1.0</ele><time>2026-04-26T17:23:35.86Z</time></trkpt><trkpt lat="44.9643776" lon="11.9328278"><ele>1.0</ele><time>2026-04-26T17:23:36.859Z</time></trkpt><trkpt lat="44.9644272" lon="11.9325312"><ele>1.0</ele><time>2026-04-26T17:23:37.859Z</time></trkpt><trkpt lat="44.9645047" lon="11.9322321"><ele>1.0</ele><time>2026-04-26T17:23:38.86Z</time></trkpt><trkpt lat="44.9646006" lon="11.9319386"><ele>1.0</ele><time>2026-04-26T17:23:39.859Z</time></trkpt><trkpt lat="44.9647039" lon="11.9316465"><ele>1.0</ele><time>2026-04-26T17:23:40.86Z</time></trkpt><trkpt lat="44.9648204" lon="11.9313525"><ele>1.0</ele><time>2026-04-26T17:23:41.859Z</time></trkpt><trkpt lat="44.9649466" lon="11.9310667"><ele>0.0</ele><time>2026-04-26T17:23:42.86Z</time></trkpt><trkpt lat="44.965084" lon="11.9307894"><ele>-1.0</ele><time>2026-04-26T17:23:43.859Z</time></trkpt><trkpt lat="44.9652298" lon="11.9305224"><ele>-1.0</ele><time>2026-04-26T17:23:44.859Z</time></trkpt><trkpt lat="44.9653766" lon="11.9302647"><ele>-1.0</ele><time>2026-04-26T17:23:45.859Z</time></trkpt><trkpt lat="44.9655079" lon="11.9299966"><ele>-0.5</ele><time>2026-04-26T17:23:46.86Z</time></trkpt><trkpt lat="44.9656222" lon="11.9297138"><ele>0.0</ele><time>2026-04-26T17:23:47.859Z</time></trkpt><trkpt lat="44.9657299" lon="11.9294258"><ele>0.0</ele><time>2026-04-26T17:23:48.86Z</time></trkpt><trkpt lat="44.9658283" lon="11.9291359"><ele>0.0</ele><time>2026-04-26T17:23:49.86Z</time></trkpt><trkpt lat="44.9659189" lon="11.9288394"><ele>0.5</ele><time>2026-04-26T17:23:50.86Z</time></trkpt><trkpt lat="44.9660092" lon="11.9285378"><ele>1.0</ele><time>2026-04-26T17:23:51.86Z</time></trkpt><trkpt lat="44.966097" lon="11.9282374"><ele>1.0</ele><time>2026-04-26T17:23:52.86Z</time></trkpt><trkpt lat="44.9661736" lon="11.9279452"><ele>1.0</ele><time>2026-04-26T17:23:53.859Z</time></trkpt><trkpt lat="44.9662362" lon="11.9276572"><ele>1.0</ele><time>2026-04-26T17:23:54.859Z</time></trkpt><trkpt lat="44.9662805" lon="11.9273593"><ele>0.6666666666666666</ele><time>2026-04-26T17:23:55.859Z</time></trkpt><trkpt lat="44.9663099" lon="11.927054"><ele>0.3333333333333333</ele><time>2026-04-26T17:23:56.859Z</time></trkpt><trkpt lat="44.9663361" lon="11.9267441"><ele>0.0</ele><time>2026-04-26T17:23:57.86Z</time></trkpt><trkpt lat="44.9663598" lon="11.9264313"><ele>0.0</ele><time>2026-04-26T17:23:58.859Z</time></trkpt><trkpt lat="44.9663801" lon="11.9261181"><ele>0.0</ele><time>2026-04-26T17:23:59.86Z</time></trkpt><trkpt lat="44.9663945" lon="11.9257955"><ele>0.5</ele><time>2026-04-26T17:24:00.86Z</time></trkpt><trkpt lat="44.9663969" lon="11.9254722"><ele>1.0</ele><time>2026-04-26T17:24:01.86Z</time></trkpt><trkpt lat="44.9663787" lon="11.9251442"><ele>0.0</ele><time>2026-04-26T17:24:02.86Z</time></trkpt><trkpt lat="44.9663413" lon="11.92482"><ele>-1.0</ele><time>2026-04-26T17:24:03.859Z</time></trkpt><trkpt lat="44.9662877" lon="11.9245045"><ele>-1.5</ele><time>2026-04-26T17:24:04.859Z</time></trkpt><trkpt lat="44.9662191" lon="11.9241878"><ele>-2.0</ele><time>2026-04-26T17:24:05.859Z</time></trkpt><trkpt lat="44.9661454" lon="11.9238661"><ele>-2.0</ele><time>2026-04-26T17:24:06.859Z</time></trkpt><trkpt lat="44.9660732" lon="11.9235483"><ele>-2.0</ele><time>2026-04-26T17:24:07.86Z</time></trkpt><trkpt lat="44.9659997" lon="11.9232303"><ele>-2.0</ele><time>2026-04-26T17:24:08.859Z</time></trkpt><trkpt lat="44.9659247" lon="11.9229124"><ele>-2.0</ele><time>2026-04-26T17:24:09.86Z</time></trkpt><trkpt lat="44.9658479" lon="11.9225954"><ele>-1.0</ele><time>2026-04-26T17:24:10.86Z</time></trkpt><trkpt lat="44.965774" lon="11.9222799"><ele>0.0</ele><time>2026-04-26T17:24:11.859Z</time></trkpt><trkpt lat="44.9656992" lon="11.921963"><ele>-0.5</ele><time>2026-04-26T17:24:12.86Z</time></trkpt><trkpt lat="44.9656232" lon="11.9216455"><ele>-1.0</ele><time>2026-04-26T17:24:13.859Z</time></trkpt><trkpt lat="44.9655493" lon="11.9213325"><ele>-1.0</ele><time>2026-04-26T17:24:14.86Z</time></trkpt><trkpt lat="44.9654791" lon="11.9210227"><ele>-1.0</ele><time>2026-04-26T17:24:15.859Z</time></trkpt><trkpt lat="44.9654091" lon="11.9207132"><ele>-0.5</ele><time>2026-04-26T17:24:16.859Z</time></trkpt><trkpt lat="44.9653381" lon="11.9204104"><ele>0.0</ele><time>2026-04-26T17:24:17.86Z</time></trkpt><trkpt lat="44.9652687" lon="11.9201078"><ele>0.0</ele><time>2026-04-26T17:24:18.86Z</time></trkpt><trkpt lat="44.9652" lon="11.9198062"><ele>0.0</ele><time>2026-04-26T17:24:19.86Z</time></trkpt><trkpt lat="44.9651296" lon="11.9195076"><ele>0.0</ele><time>2026-04-26T17:24:20.859Z</time></trkpt><trkpt lat="44.965063" lon="11.9192076"><ele>0.3333333333333333</ele><time>2026-04-26T17:24:21.859Z</time></trkpt><trkpt lat="44.9649967" lon="11.9189099"><ele>0.6666666666666666</ele><time>2026-04-26T17:24:22.86Z</time></trkpt><trkpt lat="44.9649295" lon="11.9186113"><ele>1.0</ele><time>2026-04-26T17:24:23.86Z</time></trkpt><trkpt lat="44.9648596" lon="11.9183086"><ele>1.0</ele><time>2026-04-26T17:24:24.859Z</time></trkpt><trkpt lat="44.9647905" lon="11.9180178"><ele>1.0</ele><time>2026-04-26T17:24:25.86Z</time></trkpt><trkpt lat="44.9647254" lon="11.9177337"><ele>1.0</ele><time>2026-04-26T17:24:26.86Z</time></trkpt><trkpt lat="44.964662" lon="11.9174584"><ele>0.6666666666666666</ele><time>2026-04-26T17:24:27.86Z</time></trkpt><trkpt lat="44.9645974" lon="11.917187"><ele>0.3333333333333333</ele><time>2026-04-26T17:24:28.859Z</time></trkpt><trkpt lat="44.9645386" lon="11.9169188"><ele>0.0</ele><time>2026-04-26T17:24:29.86Z</time></trkpt><trkpt lat="44.9644793" lon="11.9166577"><ele>-0.3333333333333333</ele><time>2026-04-26T17:24:30.859Z</time></trkpt><trkpt lat="44.9644213" lon="11.9164026"><ele>-0.6666666666666666</ele><time>2026-04-26T17:24:31.86Z</time></trkpt><trkpt lat="44.964359" lon="11.9161467"><ele>-1.0</ele><time>2026-04-26T17:24:32.86Z</time></trkpt><trkpt lat="44.9642963" lon="11.915889"><ele>-1.0</ele><time>2026-04-26T17:24:33.859Z</time></trkpt><trkpt lat="44.9642343" lon="11.9156344"><ele>-1.0</ele><time>2026-04-26T17:24:34.86Z</time></trkpt><trkpt lat="44.9641773" lon="11.9153737"><ele>-1.0</ele><time>2026-04-26T17:24:35.859Z</time></trkpt><trkpt lat="44.9641197" lon="11.9151147"><ele>-1.0</ele><time>2026-04-26T17:24:36.86Z</time></trkpt><trkpt lat="44.9640627" lon="11.9148527"><ele>-1.0</ele><time>2026-04-26T17:24:37.859Z</time></trkpt><trkpt lat="44.9640054" lon="11.9145887"><ele>-1.0</ele><time>2026-04-26T17:24:38.859Z</time></trkpt><trkpt lat="44.9639443" lon="11.9143228"><ele>-1.0</ele><time>2026-04-26T17:24:39.859Z</time></trkpt><trkpt lat="44.9638841" lon="11.9140536"><ele>-1.0</ele><time>2026-04-26T17:24:40.859Z</time></trkpt><trkpt lat="44.9638221" lon="11.9137901"><ele>-1.0</ele><time>2026-04-26T17:24:41.86Z</time></trkpt><trkpt lat="44.963761" lon="11.9135197"><ele>-1.0</ele><time>2026-04-26T17:24:42.859Z</time></trkpt><trkpt lat="44.9636988" lon="11.9132529"><ele>-1.0</ele><time>2026-04-26T17:24:43.859Z</time></trkpt><trkpt lat="44.9636385" lon="11.91299"><ele>-1.0</ele><time>2026-04-26T17:24:44.859Z</time></trkpt><trkpt lat="44.9635811" lon="11.9127482"><ele>-1.0</ele><time>2026-04-26T17:24:45.86Z</time></trkpt><trkpt lat="44.9635278" lon="11.9125208"><ele>-1.0</ele><time>2026-04-26T17:24:46.86Z</time></trkpt><trkpt lat="44.9634796" lon="11.9123148"><ele>-1.0</ele><time>2026-04-26T17:24:47.859Z</time></trkpt><trkpt lat="44.9634384" lon="11.912127"><ele>-1.0</ele><time>2026-04-26T17:24:48.86Z</time></trkpt><trkpt lat="44.9634037" lon="11.9119604"><ele>-1.0</ele><time>2026-04-26T17:24:49.859Z</time></trkpt><trkpt lat="44.9633756" lon="11.9118199"><ele>-1.0</ele><time>2026-04-26T17:24:50.859Z</time></trkpt><trkpt lat="44.9633545" lon="11.911698"><ele>-1.0</ele><time>2026-04-26T17:24:51.86Z</time></trkpt><trkpt lat="44.9633425" lon="11.9116007"><ele>-1.0</ele><time>2026-04-26T17:24:52.86Z</time></trkpt><trkpt lat="44.9633296" lon="11.9114545"><ele>-0.6000000000000001</ele><time>2026-04-26T17:24:54.859Z</time></trkpt><trkpt lat="44.9632922" lon="11.9113445"><ele>-0.20000000000000007</ele><time>2026-04-26T17:25:06.859Z</time></trkpt><trkpt lat="44.9632414" lon="11.9111817"><ele>0.20000000000000007</ele><time>2026-04-26T17:25:08.86Z</time></trkpt><trkpt lat="44.9632112" lon="11.9110508"><ele>0.6000000000000001</ele><time>2026-04-26T17:25:09.86Z</time></trkpt><trkpt lat="44.9631716" lon="11.9108991"><ele>1.0</ele><time>2026-04-26T17:25:10.859Z</time></trkpt><trkpt lat="44.9631323" lon="11.9107372"><ele>1.0</ele><time>2026-04-26T17:25:11.859Z</time></trkpt><trkpt lat="44.9630891" lon="11.9105799"><ele>1.0</ele><time>2026-04-26T17:25:12.86Z</time></trkpt><trkpt lat="44.9630479" lon="11.9104422"><ele>1.0</ele><time>2026-04-26T17:25:13.859Z</time></trkpt><trkpt lat="44.9630142" lon="11.9103202"><ele>1.0</ele><time>2026-04-26T17:25:14.859Z</time></trkpt><trkpt lat="44.9629844" lon="11.9102156"><ele>1.0</ele><time>2026-04-26T17:25:15.859Z</time></trkpt><trkpt lat="44.9629516" lon="11.9101244"><ele>0.9999999999999999</ele><time>2026-04-26T17:25:16.859Z</time></trkpt><trkpt lat="44.9629196" lon="11.9100369"><ele>1.0</ele><time>2026-04-26T17:25:17.859Z</time></trkpt><trkpt lat="44.962893" lon="11.9099556"><ele>1.0</ele><time>2026-04-26T17:25:18.859Z</time></trkpt><trkpt lat="44.9628946" lon="11.9097954"><ele>1.0</ele><time>2026-04-26T17:25:20.859Z</time></trkpt><trkpt lat="44.9629284" lon="11.90972"><ele>0.9999999999999999</ele><time>2026-04-26T17:25:21.86Z</time></trkpt><trkpt lat="44.9629934" lon="11.9096639"><ele>1.0</ele><time>2026-04-26T17:25:22.86Z</time></trkpt><trkpt lat="44.9630803" lon="11.9096238"><ele>1.0</ele><time>2026-04-26T17:25:23.859Z</time></trkpt><trkpt lat="44.9631948" lon="11.9095911"><ele>1.0</ele><time>2026-04-26T17:25:24.859Z</time></trkpt><trkpt lat="44.9633153" lon="11.9095589"><ele>1.0</ele><time>2026-04-26T17:25:25.86Z</time></trkpt><trkpt lat="44.9634458" lon="11.9095209"><ele>1.0</ele><time>2026-04-26T17:25:26.859Z</time></trkpt><trkpt lat="44.9635948" lon="11.9094798"><ele>0.6666666666666666</ele><time>2026-04-26T17:25:27.86Z</time></trkpt><trkpt lat="44.9637557" lon="11.9094331"><ele>0.3333333333333333</ele><time>2026-04-26T17:25:28.86Z</time></trkpt><trkpt lat="44.9639208" lon="11.9093897"><ele>0.0</ele><time>2026-04-26T17:25:29.859Z</time></trkpt><trkpt lat="44.9640968" lon="11.9093455"><ele>0.0</ele><time>2026-04-26T17:25:30.859Z</time></trkpt><trkpt lat="44.9642858" lon="11.9092991"><ele>0.0</ele><time>2026-04-26T17:25:31.86Z</time></trkpt><trkpt lat="44.9644796" lon="11.9092424"><ele>0.0</ele><time>2026-04-26T17:25:32.86Z</time></trkpt><trkpt lat="44.964675" lon="11.9091818"><ele>0.0</ele><time>2026-04-26T17:25:33.86Z</time></trkpt><trkpt lat="44.9648732" lon="11.909121"><ele>0.0</ele><time>2026-04-26T17:25:34.86Z</time></trkpt><trkpt lat="44.9650736" lon="11.9090644"><ele>0.0</ele><time>2026-04-26T17:25:35.859Z</time></trkpt><trkpt lat="44.9652739" lon="11.9090048"><ele>0.0</ele><time>2026-04-26T17:25:36.86Z</time></trkpt><trkpt lat="44.9654747" lon="11.9089479"><ele>0.0</ele><time>2026-04-26T17:25:37.859Z</time></trkpt><trkpt lat="44.9656617" lon="11.9088935"><ele>0.0</ele><time>2026-04-26T17:25:38.86Z</time></trkpt><trkpt lat="44.9658327" lon="11.9088478"><ele>0.0</ele><time>2026-04-26T17:25:39.859Z</time></trkpt><trkpt lat="44.9659864" lon="11.9088061"><ele>0.0</ele><time>2026-04-26T17:25:40.86Z</time></trkpt><trkpt lat="44.9661219" lon="11.9087618"><ele>0.0</ele><time>2026-04-26T17:25:41.859Z</time></trkpt><trkpt lat="44.9662409" lon="11.908727"><ele>0.0</ele><time>2026-04-26T17:25:42.859Z</time></trkpt><trkpt lat="44.9663434" lon="11.908694"><ele>0.0</ele><time>2026-04-26T17:25:43.86Z</time></trkpt><trkpt lat="44.9664292" lon="11.9086491"><ele>0.0</ele><time>2026-04-26T17:25:44.86Z</time></trkpt><trkpt lat="44.966498" lon="11.9085818"><ele>0.0</ele><time>2026-04-26T17:25:45.86Z</time></trkpt><trkpt lat="44.9665491" lon="11.9084804"><ele>0.0</ele><time>2026-04-26T17:25:46.86Z</time></trkpt><trkpt lat="44.9665789" lon="11.9083541"><ele>0.0</ele><time>2026-04-26T17:25:47.859Z</time></trkpt><trkpt lat="44.9665842" lon="11.9082011"><ele>0.25</ele><time>2026-04-26T17:25:48.859Z</time></trkpt><trkpt lat="44.9665672" lon="11.9080373"><ele>0.5</ele><time>2026-04-26T17:25:49.86Z</time></trkpt><trkpt lat="44.9665348" lon="11.9078589"><ele>0.75</ele><time>2026-04-26T17:25:50.859Z</time></trkpt><trkpt lat="44.9665042" lon="11.9076491"><ele>1.0</ele><time>2026-04-26T17:25:51.859Z</time></trkpt><trkpt lat="44.9664707" lon="11.9074143"><ele>1.0</ele><time>2026-04-26T17:25:52.859Z</time></trkpt><trkpt lat="44.9664219" lon="11.9071686"><ele>1.0</ele><time>2026-04-26T17:25:53.859Z</time></trkpt><trkpt lat="44.9663894" lon="11.9069354"><ele>1.0</ele><time>2026-04-26T17:25:54.86Z</time></trkpt><trkpt lat="44.9663755" lon="11.9067138"><ele>0.6666666666666666</ele><time>2026-04-26T17:25:55.859Z</time></trkpt><trkpt lat="44.9663806" lon="11.9065076"><ele>0.3333333333333333</ele><time>2026-04-26T17:25:56.859Z</time></trkpt><trkpt lat="44.9664111" lon="11.9062943"><ele>0.0</ele><time>2026-04-26T17:25:57.859Z</time></trkpt><trkpt lat="44.966469" lon="11.9060799"><ele>0.0</ele><time>2026-04-26T17:25:58.859Z</time></trkpt><trkpt lat="44.9665405" lon="11.9058568"><ele>0.0</ele><time>2026-04-26T17:25:59.86Z</time></trkpt><trkpt lat="44.9666173" lon="11.9056261"><ele>0.0</ele><time>2026-04-26T17:26:00.86Z</time></trkpt><trkpt lat="44.9666824" lon="11.9053754"><ele>0.0</ele><time>2026-04-26T17:26:01.859Z</time></trkpt><trkpt lat="44.9667352" lon="11.9051064"><ele>0.0</ele><time>2026-04-26T17:26:02.859Z</time></trkpt><trkpt lat="44.9667721" lon="11.9048233"><ele>0.0</ele><time>2026-04-26T17:26:03.86Z</time></trkpt><trkpt lat="44.9667927" lon="11.9045289"><ele>0.6666666666666666</ele><time>2026-04-26T17:26:04.86Z</time></trkpt><trkpt lat="44.966806" lon="11.9042305"><ele>1.3333333333333333</ele><time>2026-04-26T17:26:05.859Z</time></trkpt><trkpt lat="44.9668237" lon="11.9039402"><ele>2.0</ele><time>2026-04-26T17:26:06.859Z</time></trkpt><trkpt lat="44.9668413" lon="11.9036621"><ele>2.0</ele><time>2026-04-26T17:26:07.86Z</time></trkpt><trkpt lat="44.9668525" lon="11.9034008"><ele>2.0</ele><time>2026-04-26T17:26:08.859Z</time></trkpt><trkpt lat="44.9668464" lon="11.9031494"><ele>2.0</ele><time>2026-04-26T17:26:09.86Z</time></trkpt><trkpt lat="44.9668331" lon="11.9029028"><ele>2.0</ele><time>2026-04-26T17:26:10.86Z</time></trkpt><trkpt lat="44.9668205" lon="11.902668"><ele>2.0</ele><time>2026-04-26T17:26:11.86Z</time></trkpt><trkpt lat="44.9668061" lon="11.9024458"><ele>2.0</ele><time>2026-04-26T17:26:12.86Z</time></trkpt><trkpt lat="44.9667914" lon="11.9022331"><ele>1.75</ele><time>2026-04-26T17:26:13.86Z</time></trkpt><trkpt lat="44.9667781" lon="11.9020345"><ele>1.5</ele><time>2026-04-26T17:26:14.859Z</time></trkpt><trkpt lat="44.9667667" lon="11.9018455"><ele>1.25</ele><time>2026-04-26T17:26:15.859Z</time></trkpt><trkpt lat="44.9667598" lon="11.9016601"><ele>1.0</ele><time>2026-04-26T17:26:16.86Z</time></trkpt><trkpt lat="44.9667515" lon="11.9014808"><ele>1.0</ele><time>2026-04-26T17:26:17.86Z</time></trkpt><trkpt lat="44.9667514" lon="11.9013056"><ele>1.0</ele><time>2026-04-26T17:26:18.859Z</time></trkpt><trkpt lat="44.9667713" lon="11.9011288"><ele>1.0</ele><time>2026-04-26T17:26:19.86Z</time></trkpt><trkpt lat="44.9668062" lon="11.9009536"><ele>1.0</ele><time>2026-04-26T17:26:20.859Z</time></trkpt><trkpt lat="44.9668537" lon="11.9007792"><ele>1.0</ele><time>2026-04-26T17:26:21.859Z</time></trkpt><trkpt lat="44.966907" lon="11.9005977"><ele>1.0</ele><time>2026-04-26T17:26:22.859Z</time></trkpt><trkpt lat="44.9669568" lon="11.900412"><ele>1.0</ele><time>2026-04-26T17:26:23.859Z</time></trkpt><trkpt lat="44.9670078" lon="11.9002242"><ele>1.0</ele><time>2026-04-26T17:26:24.86Z</time></trkpt><trkpt lat="44.9670569" lon="11.9000329"><ele>1.0</ele><time>2026-04-26T17:26:25.86Z</time></trkpt><trkpt lat="44.9671012" lon="11.8998497"><ele>1.0</ele><time>2026-04-26T17:26:26.86Z</time></trkpt><trkpt lat="44.9671367" lon="11.8996785"><ele>1.0</ele><time>2026-04-26T17:26:27.86Z</time></trkpt><trkpt lat="44.9671648" lon="11.8995167"><ele>1.0</ele><time>2026-04-26T17:26:28.86Z</time></trkpt><trkpt lat="44.9671995" lon="11.899357"><ele>1.5</ele><time>2026-04-26T17:26:29.859Z</time></trkpt><trkpt lat="44.9672384" lon="11.8991976"><ele>2.0</ele><time>2026-04-26T17:26:30.86Z</time></trkpt><trkpt lat="44.9672771" lon="11.8990337"><ele>2.5</ele><time>2026-04-26T17:26:31.86Z</time></trkpt><trkpt lat="44.9673144" lon="11.8988668"><ele>3.0</ele><time>2026-04-26T17:26:32.859Z</time></trkpt><trkpt lat="44.9673466" lon="11.8987004"><ele>3.0</ele><time>2026-04-26T17:26:33.859Z</time></trkpt><trkpt lat="44.9673651" lon="11.8985259"><ele>3.0</ele><time>2026-04-26T17:26:34.859Z</time></trkpt><trkpt lat="44.9673736" lon="11.8983473"><ele>3.0</ele><time>2026-04-26T17:26:35.859Z</time></trkpt><trkpt lat="44.9673768" lon="11.8981655"><ele>3.0</ele><time>2026-04-26T17:26:36.86Z</time></trkpt><trkpt lat="44.9673726" lon="11.8979791"><ele>2.75</ele><time>2026-04-26T17:26:37.859Z</time></trkpt><trkpt lat="44.9673673" lon="11.8977899"><ele>2.5</ele><time>2026-04-26T17:26:38.859Z</time></trkpt><trkpt lat="44.9673592" lon="11.8976002"><ele>2.25</ele><time>2026-04-26T17:26:39.86Z</time></trkpt><trkpt lat="44.9673534" lon="11.8974136"><ele>2.0</ele><time>2026-04-26T17:26:40.86Z</time></trkpt><trkpt lat="44.9673418" lon="11.8972194"><ele>2.0</ele><time>2026-04-26T17:26:41.86Z</time></trkpt><trkpt lat="44.9673211" lon="11.8970283"><ele>2.0</ele><time>2026-04-26T17:26:42.86Z</time></trkpt><trkpt lat="44.9672909" lon="11.8968371"><ele>2.0</ele><time>2026-04-26T17:26:43.86Z</time></trkpt><trkpt lat="44.9672543" lon="11.8966524"><ele>2.0</ele><time>2026-04-26T17:26:44.86Z</time></trkpt><trkpt lat="44.9672328" lon="11.8964666"><ele>2.25</ele><time>2026-04-26T17:26:45.859Z</time></trkpt><trkpt lat="44.9672212" lon="11.8962805"><ele>2.5</ele><time>2026-04-26T17:26:46.859Z</time></trkpt><trkpt lat="44.9672313" lon="11.8960745"><ele>2.75</ele><time>2026-04-26T17:26:47.859Z</time></trkpt><trkpt lat="44.9672452" lon="11.8958759"><ele>3.0</ele><time>2026-04-26T17:26:48.859Z</time></trkpt><trkpt lat="44.9672631" lon="11.8956747"><ele>3.0</ele><time>2026-04-26T17:26:49.86Z</time></trkpt><trkpt lat="44.9672847" lon="11.8954798"><ele>3.0</ele><time>2026-04-26T17:26:50.859Z</time></trkpt><trkpt lat="44.9673117" lon="11.8952904"><ele>3.0</ele><time>2026-04-26T17:26:51.859Z</time></trkpt><trkpt lat="44.9673523" lon="11.8951"><ele>3.0</ele><time>2026-04-26T17:26:52.859Z</time></trkpt><trkpt lat="44.9674119" lon="11.8949168"><ele>2.75</ele><time>2026-04-26T17:26:53.859Z</time></trkpt><trkpt lat="44.9674867" lon="11.8947436"><ele>2.5</ele><time>2026-04-26T17:26:54.859Z</time></trkpt><trkpt lat="44.9675749" lon="11.8945686"><ele>2.25</ele><time>2026-04-26T17:26:55.86Z</time></trkpt><trkpt lat="44.9676601" lon="11.8943881"><ele>2.0</ele><time>2026-04-26T17:26:56.859Z</time></trkpt><trkpt lat="44.9677412" lon="11.8942081"><ele>2.0</ele><time>2026-04-26T17:26:57.86Z</time></trkpt><trkpt lat="44.9678279" lon="11.8940289"><ele>2.0</ele><time>2026-04-26T17:26:58.859Z</time></trkpt><trkpt lat="44.9679135" lon="11.8938484"><ele>2.0</ele><time>2026-04-26T17:26:59.859Z</time></trkpt><trkpt lat="44.9679905" lon="11.8936649"><ele>2.0</ele><time>2026-04-26T17:27:00.859Z</time></trkpt><trkpt lat="44.968066" lon="11.8934765"><ele>2.0</ele><time>2026-04-26T17:27:01.859Z</time></trkpt><trkpt lat="44.968128" lon="11.8932823"><ele>2.0</ele><time>2026-04-26T17:27:02.86Z</time></trkpt><trkpt lat="44.9681824" lon="11.8930773"><ele>2.0</ele><time>2026-04-26T17:27:03.859Z</time></trkpt><trkpt lat="44.9682334" lon="11.8928688"><ele>2.0</ele><time>2026-04-26T17:27:04.86Z</time></trkpt><trkpt lat="44.9682823" lon="11.892664"><ele>2.0</ele><time>2026-04-26T17:27:05.86Z</time></trkpt><trkpt lat="44.9683267" lon="11.892471"><ele>2.0</ele><time>2026-04-26T17:27:06.859Z</time></trkpt><trkpt lat="44.9683718" lon="11.8922766"><ele>2.0</ele><time>2026-04-26T17:27:07.86Z</time></trkpt><trkpt lat="44.9684152" lon="11.8920785"><ele>2.0</ele><time>2026-04-26T17:27:08.86Z</time></trkpt><trkpt lat="44.9684627" lon="11.8918752"><ele>2.0</ele><time>2026-04-26T17:27:09.859Z</time></trkpt><trkpt lat="44.9685109" lon="11.8916615"><ele>2.0</ele><time>2026-04-26T17:27:10.86Z</time></trkpt><trkpt lat="44.9685578" lon="11.8914435"><ele>2.0</ele><time>2026-04-26T17:27:11.859Z</time></trkpt><trkpt lat="44.968599" lon="11.8912173"><ele>2.0</ele><time>2026-04-26T17:27:12.86Z</time></trkpt><trkpt lat="44.9686414" lon="11.8909903"><ele>1.6666666666666665</ele><time>2026-04-26T17:27:13.859Z</time></trkpt><trkpt lat="44.9686662" lon="11.89076"><ele>1.3333333333333333</ele><time>2026-04-26T17:27:14.859Z</time></trkpt><trkpt lat="44.9686649" lon="11.8905211"><ele>1.0</ele><time>2026-04-26T17:27:15.859Z</time></trkpt><trkpt lat="44.9686369" lon="11.8902847"><ele>1.0</ele><time>2026-04-26T17:27:16.86Z</time></trkpt><trkpt lat="44.9685937" lon="11.8900623"><ele>1.0</ele><time>2026-04-26T17:27:17.86Z</time></trkpt><trkpt lat="44.968526" lon="11.8898406"><ele>1.0</ele><time>2026-04-26T17:27:18.86Z</time></trkpt><trkpt lat="44.9684429" lon="11.8896306"><ele>1.3333333333333333</ele><time>2026-04-26T17:27:19.86Z</time></trkpt><trkpt lat="44.9683489" lon="11.8894408"><ele>1.6666666666666665</ele><time>2026-04-26T17:27:20.86Z</time></trkpt><trkpt lat="44.9682427" lon="11.8892663"><ele>2.0</ele><time>2026-04-26T17:27:21.859Z</time></trkpt><trkpt lat="44.9681341" lon="11.8891269"><ele>2.0</ele><time>2026-04-26T17:27:22.859Z</time></trkpt><trkpt lat="44.9680237" lon="11.8890053"><ele>2.0</ele><time>2026-04-26T17:27:23.859Z</time></trkpt><trkpt lat="44.9679213" lon="11.8889056"><ele>2.0</ele><time>2026-04-26T17:27:24.86Z</time></trkpt><trkpt lat="44.9678315" lon="11.8887884"><ele>2.0</ele><time>2026-04-26T17:27:25.859Z</time></trkpt><trkpt lat="44.9677632" lon="11.8886584"><ele>2.0</ele><time>2026-04-26T17:27:26.86Z</time></trkpt><trkpt lat="44.9676978" lon="11.8885167"><ele>2.0</ele><time>2026-04-26T17:27:27.86Z</time></trkpt><trkpt lat="44.9676206" lon="11.8883675"><ele>2.0</ele><time>2026-04-26T17:27:28.859Z</time></trkpt><trkpt lat="44.9675395" lon="11.8882019"><ele>2.0</ele><time>2026-04-26T17:27:29.859Z</time></trkpt><trkpt lat="44.9674504" lon="11.8880255"><ele>2.0</ele><time>2026-04-26T17:27:30.86Z</time></trkpt><trkpt lat="44.9673594" lon="11.887831"><ele>2.0</ele><time>2026-04-26T17:27:31.859Z</time></trkpt><trkpt lat="44.9672795" lon="11.887603"><ele>2.0</ele><time>2026-04-26T17:27:32.86Z</time></trkpt><trkpt lat="44.9672141" lon="11.8873552"><ele>2.0</ele><time>2026-04-26T17:27:33.86Z</time></trkpt><trkpt lat="44.9671544" lon="11.8870861"><ele>2.0</ele><time>2026-04-26T17:27:34.859Z</time></trkpt><trkpt lat="44.9671024" lon="11.8868084"><ele>2.0</ele><time>2026-04-26T17:27:35.86Z</time></trkpt><trkpt lat="44.9670606" lon="11.8865154"><ele>1.3333333333333333</ele><time>2026-04-26T17:27:36.859Z</time></trkpt><trkpt lat="44.9670205" lon="11.8862161"><ele>0.6666666666666666</ele><time>2026-04-26T17:27:37.86Z</time></trkpt><trkpt lat="44.9669861" lon="11.8859272"><ele>0.0</ele><time>2026-04-26T17:27:38.86Z</time></trkpt><trkpt lat="44.966961" lon="11.8856575"><ele>-0.6666666666666666</ele><time>2026-04-26T17:27:39.86Z</time></trkpt><trkpt lat="44.9669463" lon="11.8854072"><ele>-1.3333333333333333</ele><time>2026-04-26T17:27:40.86Z</time></trkpt><trkpt lat="44.9669443" lon="11.8851858"><ele>-2.0</ele><time>2026-04-26T17:27:41.86Z</time></trkpt><trkpt lat="44.9669539" lon="11.8849888"><ele>-2.0</ele><time>2026-04-26T17:27:42.859Z</time></trkpt><trkpt lat="44.9669688" lon="11.8848149"><ele>-2.0</ele><time>2026-04-26T17:27:43.859Z</time></trkpt><trkpt lat="44.9669813" lon="11.8846493"><ele>-2.0</ele><time>2026-04-26T17:27:44.86Z</time></trkpt><trkpt lat="44.9669988" lon="11.8844783"><ele>-2.0</ele><time>2026-04-26T17:27:45.86Z</time></trkpt><trkpt lat="44.967025" lon="11.8842986"><ele>-2.0</ele><time>2026-04-26T17:27:46.86Z</time></trkpt><trkpt lat="44.9670715" lon="11.8841017"><ele>-2.0</ele><time>2026-04-26T17:27:47.859Z</time></trkpt><trkpt lat="44.9671255" lon="11.8838992"><ele>-2.0</ele><time>2026-04-26T17:27:48.859Z</time></trkpt><trkpt lat="44.9671885" lon="11.8836863"><ele>-2.0</ele><time>2026-04-26T17:27:49.86Z</time></trkpt><trkpt lat="44.9672564" lon="11.8834756"><ele>-2.0</ele><time>2026-04-26T17:27:50.86Z</time></trkpt><trkpt lat="44.9673264" lon="11.8832617"><ele>-2.0</ele><time>2026-04-26T17:27:51.859Z</time></trkpt><trkpt lat="44.9674045" lon="11.8830371"><ele>-2.0</ele><time>2026-04-26T17:27:52.859Z</time></trkpt><trkpt lat="44.9674967" lon="11.8828165"><ele>-2.0</ele><time>2026-04-26T17:27:53.86Z</time></trkpt><trkpt lat="44.9675992" lon="11.8826061"><ele>-2.0</ele><time>2026-04-26T17:27:54.86Z</time></trkpt><trkpt lat="44.9677021" lon="11.8823871"><ele>-2.0</ele><time>2026-04-26T17:27:55.86Z</time></trkpt><trkpt lat="44.9678047" lon="11.8821623"><ele>-2.0</ele><time>2026-04-26T17:27:56.86Z</time></trkpt><trkpt lat="44.9679123" lon="11.8819392"><ele>-2.0</ele><time>2026-04-26T17:27:57.859Z</time></trkpt><trkpt lat="44.9680274" lon="11.8817199"><ele>-1.3333333333333333</ele><time>2026-04-26T17:27:58.859Z</time></trkpt><trkpt lat="44.9681495" lon="11.8815055"><ele>-0.6666666666666666</ele><time>2026-04-26T17:27:59.86Z</time></trkpt><trkpt lat="44.9682694" lon="11.8813084"><ele>0.0</ele><time>2026-04-26T17:28:00.86Z</time></trkpt><trkpt lat="44.9683859" lon="11.8811197"><ele>0.0</ele><time>2026-04-26T17:28:01.86Z</time></trkpt><trkpt lat="44.9684968" lon="11.8809345"><ele>0.0</ele><time>2026-04-26T17:28:02.86Z</time></trkpt><trkpt lat="44.9686089" lon="11.8807487"><ele>0.0</ele><time>2026-04-26T17:28:03.86Z</time></trkpt><trkpt lat="44.9687114" lon="11.8805537"><ele>0.3333333333333333</ele><time>2026-04-26T17:28:04.859Z</time></trkpt><trkpt lat="44.968805" lon="11.8803581"><ele>0.6666666666666666</ele><time>2026-04-26T17:28:05.859Z</time></trkpt><trkpt lat="44.9688974" lon="11.8801606"><ele>1.0</ele><time>2026-04-26T17:28:06.86Z</time></trkpt><trkpt lat="44.9689921" lon="11.879968"><ele>1.0</ele><time>2026-04-26T17:28:07.859Z</time></trkpt><trkpt lat="44.9690883" lon="11.8797719"><ele>1.0</ele><time>2026-04-26T17:28:08.859Z</time></trkpt><trkpt lat="44.9691857" lon="11.8795789"><ele>1.0</ele><time>2026-04-26T17:28:09.86Z</time></trkpt><trkpt lat="44.9692829" lon="11.8793774"><ele>1.3333333333333333</ele><time>2026-04-26T17:28:10.859Z</time></trkpt><trkpt lat="44.9693834" lon="11.8791796"><ele>1.6666666666666665</ele><time>2026-04-26T17:28:11.859Z</time></trkpt><trkpt lat="44.9694753" lon="11.8789678"><ele>2.0</ele><time>2026-04-26T17:28:12.86Z</time></trkpt><trkpt lat="44.9695541" lon="11.8787441"><ele>2.0</ele><time>2026-04-26T17:28:13.859Z</time></trkpt><trkpt lat="44.9696207" lon="11.8785046"><ele>2.0</ele><time>2026-04-26T17:28:14.859Z</time></trkpt><trkpt lat="44.9696512" lon="11.8782509"><ele>2.0</ele><time>2026-04-26T17:28:15.859Z</time></trkpt><trkpt lat="44.9696698" lon="11.8779911"><ele>2.6666666666666665</ele><time>2026-04-26T17:28:16.86Z</time></trkpt><trkpt lat="44.9696762" lon="11.8777216"><ele>3.333333333333333</ele><time>2026-04-26T17:28:17.859Z</time></trkpt><trkpt lat="44.9696807" lon="11.877446"><ele>4.0</ele><time>2026-04-26T17:28:18.859Z</time></trkpt><trkpt lat="44.9696875" lon="11.8771695"><ele>4.0</ele><time>2026-04-26T17:28:19.859Z</time></trkpt><trkpt lat="44.9696942" lon="11.876892"><ele>4.0</ele><time>2026-04-26T17:28:20.859Z</time></trkpt><trkpt lat="44.9697017" lon="11.876611"><ele>4.0</ele><time>2026-04-26T17:28:21.859Z</time></trkpt><trkpt lat="44.9697145" lon="11.8763235"><ele>4.0</ele><time>2026-04-26T17:28:22.86Z</time></trkpt><trkpt lat="44.969728" lon="11.8760385"><ele>4.0</ele><time>2026-04-26T17:28:23.859Z</time></trkpt><trkpt lat="44.969747" lon="11.8757503"><ele>4.0</ele><time>2026-04-26T17:28:24.859Z</time></trkpt><trkpt lat="44.9697624" lon="11.8754597"><ele>3.0</ele><time>2026-04-26T17:28:25.859Z</time></trkpt><trkpt lat="44.9697781" lon="11.8751611"><ele>2.0</ele><time>2026-04-26T17:28:26.859Z</time></trkpt><trkpt lat="44.969793" lon="11.8748589"><ele>1.0</ele><time>2026-04-26T17:28:27.859Z</time></trkpt><trkpt lat="44.9698077" lon="11.8745666"><ele>0.6666666666666666</ele><time>2026-04-26T17:28:28.86Z</time></trkpt><trkpt lat="44.9698193" lon="11.8742666"><ele>0.3333333333333333</ele><time>2026-04-26T17:28:29.86Z</time></trkpt><trkpt lat="44.9698327" lon="11.8739644"><ele>0.0</ele><time>2026-04-26T17:28:30.86Z</time></trkpt><trkpt lat="44.9698398" lon="11.8736557"><ele>0.3333333333333333</ele><time>2026-04-26T17:28:31.86Z</time></trkpt><trkpt lat="44.9698583" lon="11.8733505"><ele>0.6666666666666666</ele><time>2026-04-26T17:28:32.86Z</time></trkpt><trkpt lat="44.9698873" lon="11.8730456"><ele>1.0</ele><time>2026-04-26T17:28:33.859Z</time></trkpt><trkpt lat="44.9699306" lon="11.8727451"><ele>1.3333333333333333</ele><time>2026-04-26T17:28:34.859Z</time></trkpt><trkpt lat="44.9699955" lon="11.8724455"><ele>1.6666666666666665</ele><time>2026-04-26T17:28:35.859Z</time></trkpt><trkpt lat="44.9700699" lon="11.8721454"><ele>2.0</ele><time>2026-04-26T17:28:36.859Z</time></trkpt><trkpt lat="44.9701502" lon="11.8718516"><ele>2.0</ele><time>2026-04-26T17:28:37.859Z</time></trkpt><trkpt lat="44.97023" lon="11.8715545"><ele>2.0</ele><time>2026-04-26T17:28:38.859Z</time></trkpt><trkpt lat="44.9703088" lon="11.8712536"><ele>2.0</ele><time>2026-04-26T17:28:39.859Z</time></trkpt><trkpt lat="44.9703858" lon="11.8709544"><ele>2.0</ele><time>2026-04-26T17:28:40.859Z</time></trkpt><trkpt lat="44.9704639" lon="11.8706493"><ele>1.5</ele><time>2026-04-26T17:28:41.86Z</time></trkpt><trkpt lat="44.9705442" lon="11.8703433"><ele>1.0</ele><time>2026-04-26T17:28:42.86Z</time></trkpt><trkpt lat="44.9706238" lon="11.8700414"><ele>1.0</ele><time>2026-04-26T17:28:43.86Z</time></trkpt><trkpt lat="44.9706938" lon="11.8697585"><ele>1.0</ele><time>2026-04-26T17:28:44.859Z</time></trkpt><trkpt lat="44.9707493" lon="11.8694879"><ele>1.0</ele><time>2026-04-26T17:28:45.859Z</time></trkpt><trkpt lat="44.9707878" lon="11.869225"><ele>1.3333333333333333</ele><time>2026-04-26T17:28:46.859Z</time></trkpt><trkpt lat="44.9707992" lon="11.8689683"><ele>1.6666666666666665</ele><time>2026-04-26T17:28:47.86Z</time></trkpt><trkpt lat="44.9707845" lon="11.8687075"><ele>2.0</ele><time>2026-04-26T17:28:48.86Z</time></trkpt><trkpt lat="44.9707407" lon="11.8684443"><ele>2.0</ele><time>2026-04-26T17:28:49.859Z</time></trkpt><trkpt lat="44.9706747" lon="11.8681805"><ele>2.0</ele><time>2026-04-26T17:28:50.859Z</time></trkpt><trkpt lat="44.970582" lon="11.8679099"><ele>2.0</ele><time>2026-04-26T17:28:51.859Z</time></trkpt><trkpt lat="44.9704951" lon="11.8676227"><ele>3.0</ele><time>2026-04-26T17:28:52.859Z</time></trkpt><trkpt lat="44.9704223" lon="11.8673217"><ele>4.0</ele><time>2026-04-26T17:28:53.86Z</time></trkpt><trkpt lat="44.9703709" lon="11.8669918"><ele>4.0</ele><time>2026-04-26T17:28:54.86Z</time></trkpt><trkpt lat="44.9703418" lon="11.8666414"><ele>4.0</ele><time>2026-04-26T17:28:55.859Z</time></trkpt><trkpt lat="44.9703145" lon="11.8662876"><ele>4.5</ele><time>2026-04-26T17:28:56.859Z</time></trkpt><trkpt lat="44.9702632" lon="11.8659329"><ele>5.0</ele><time>2026-04-26T17:28:57.859Z</time></trkpt><trkpt lat="44.9701858" lon="11.8655685"><ele>5.0</ele><time>2026-04-26T17:28:58.859Z</time></trkpt><trkpt lat="44.9700845" lon="11.8651969"><ele>5.0</ele><time>2026-04-26T17:28:59.86Z</time></trkpt><trkpt lat="44.9699629" lon="11.8648131"><ele>3.0</ele><time>2026-04-26T17:29:00.859Z</time></trkpt><trkpt lat="44.9698355" lon="11.8644085"><ele>1.0</ele><time>2026-04-26T17:29:01.859Z</time></trkpt><trkpt lat="44.9697099" lon="11.8639857"><ele>1.0</ele><time>2026-04-26T17:29:02.859Z</time></trkpt><trkpt lat="44.9695767" lon="11.8635526"><ele>1.0</ele><time>2026-04-26T17:29:03.86Z</time></trkpt><trkpt lat="44.969438" lon="11.863103"><ele>1.0</ele><time>2026-04-26T17:29:04.859Z</time></trkpt><trkpt lat="44.9692917" lon="11.8626381"><ele>1.0</ele><time>2026-04-26T17:29:05.86Z</time></trkpt><trkpt lat="44.9691443" lon="11.8621584"><ele>0.0</ele><time>2026-04-26T17:29:06.859Z</time></trkpt><trkpt lat="44.9690051" lon="11.8616997"><ele>-1.0</ele><time>2026-04-26T17:29:07.859Z</time></trkpt><trkpt lat="44.9688756" lon="11.8612809"><ele>-1.0</ele><time>2026-04-26T17:29:08.859Z</time></trkpt><trkpt lat="44.9687557" lon="11.8608988"><ele>-1.0</ele><time>2026-04-26T17:29:09.86Z</time></trkpt><trkpt lat="44.968645" lon="11.8605455"><ele>-1.0</ele><time>2026-04-26T17:29:10.859Z</time></trkpt><trkpt lat="44.9685524" lon="11.8602369"><ele>-1.0</ele><time>2026-04-26T17:29:11.859Z</time></trkpt><trkpt lat="44.9684709" lon="11.8599437"><ele>-0.6666666666666666</ele><time>2026-04-26T17:29:12.86Z</time></trkpt><trkpt lat="44.9684079" lon="11.8596668"><ele>-0.3333333333333333</ele><time>2026-04-26T17:29:13.86Z</time></trkpt><trkpt lat="44.9683553" lon="11.8593905"><ele>0.0</ele><time>2026-04-26T17:29:14.859Z</time></trkpt><trkpt lat="44.968309" lon="11.8591213"><ele>0.6666666666666666</ele><time>2026-04-26T17:29:15.859Z</time></trkpt><trkpt lat="44.9682647" lon="11.8588554"><ele>1.3333333333333333</ele><time>2026-04-26T17:29:16.859Z</time></trkpt><trkpt lat="44.9682236" lon="11.8585915"><ele>2.0</ele><time>2026-04-26T17:29:17.859Z</time></trkpt><trkpt lat="44.9681847" lon="11.8583279"><ele>2.0</ele><time>2026-04-26T17:29:18.859Z</time></trkpt><trkpt lat="44.968144" lon="11.8580678"><ele>2.0</ele><time>2026-04-26T17:29:19.859Z</time></trkpt><trkpt lat="44.9681048" lon="11.8578096"><ele>2.0</ele><time>2026-04-26T17:29:20.859Z</time></trkpt><trkpt lat="44.9680651" lon="11.8575542"><ele>1.6666666666666665</ele><time>2026-04-26T17:29:21.859Z</time></trkpt><trkpt lat="44.9680188" lon="11.8572978"><ele>1.3333333333333333</ele><time>2026-04-26T17:29:22.859Z</time></trkpt><trkpt lat="44.9679566" lon="11.8570369"><ele>1.0</ele><time>2026-04-26T17:29:23.86Z</time></trkpt><trkpt lat="44.9678875" lon="11.8567487"><ele>0.5</ele><time>2026-04-26T17:29:24.859Z</time></trkpt><trkpt lat="44.9678137" lon="11.8564421"><ele>0.0</ele><time>2026-04-26T17:29:25.859Z</time></trkpt><trkpt lat="44.9677428" lon="11.8561188"><ele>0.5</ele><time>2026-04-26T17:29:26.859Z</time></trkpt><trkpt lat="44.9676782" lon="11.8557948"><ele>1.0</ele><time>2026-04-26T17:29:27.86Z</time></trkpt><trkpt lat="44.9676144" lon="11.85549"><ele>1.0</ele><time>2026-04-26T17:29:28.859Z</time></trkpt><trkpt lat="44.9675419" lon="11.8552075"><ele>1.0</ele><time>2026-04-26T17:29:29.859Z</time></trkpt><trkpt lat="44.9674704" lon="11.8549447"><ele>1.0</ele><time>2026-04-26T17:29:30.86Z</time></trkpt><trkpt lat="44.9674053" lon="11.8546824"><ele>1.0</ele><time>2026-04-26T17:29:31.86Z</time></trkpt><trkpt lat="44.9673487" lon="11.8544105"><ele>1.0</ele><time>2026-04-26T17:29:32.859Z</time></trkpt><trkpt lat="44.9673026" lon="11.8541321"><ele>1.0</ele><time>2026-04-26T17:29:33.859Z</time></trkpt><trkpt lat="44.9672691" lon="11.8538544"><ele>1.3333333333333333</ele><time>2026-04-26T17:29:34.86Z</time></trkpt><trkpt lat="44.9672462" lon="11.8535697"><ele>1.6666666666666665</ele><time>2026-04-26T17:29:35.86Z</time></trkpt><trkpt lat="44.9672324" lon="11.8532827"><ele>2.0</ele><time>2026-04-26T17:29:36.859Z</time></trkpt><trkpt lat="44.9672297" lon="11.8529928"><ele>2.0</ele><time>2026-04-26T17:29:37.86Z</time></trkpt><trkpt lat="44.9672404" lon="11.8527022"><ele>2.0</ele><time>2026-04-26T17:29:38.859Z</time></trkpt><trkpt lat="44.9672526" lon="11.8524069"><ele>2.0</ele><time>2026-04-26T17:29:39.86Z</time></trkpt><trkpt lat="44.9672717" lon="11.8521049"><ele>1.6666666666666665</ele><time>2026-04-26T17:29:40.86Z</time></trkpt><trkpt lat="44.9672897" lon="11.8518087"><ele>1.3333333333333333</ele><time>2026-04-26T17:29:41.859Z</time></trkpt><trkpt lat="44.967306" lon="11.8515127"><ele>1.0</ele><time>2026-04-26T17:29:42.859Z</time></trkpt><trkpt lat="44.9673225" lon="11.8512153"><ele>0.6666666666666666</ele><time>2026-04-26T17:29:43.859Z</time></trkpt><trkpt lat="44.9673397" lon="11.850916"><ele>0.3333333333333333</ele><time>2026-04-26T17:29:44.859Z</time></trkpt><trkpt lat="44.9673583" lon="11.8506135"><ele>0.0</ele><time>2026-04-26T17:29:45.859Z</time></trkpt><trkpt lat="44.9673726" lon="11.8503179"><ele>0.0</ele><time>2026-04-26T17:29:46.86Z</time></trkpt><trkpt lat="44.9673845" lon="11.8500142"><ele>0.0</ele><time>2026-04-26T17:29:47.859Z</time></trkpt><trkpt lat="44.9673877" lon="11.8497149"><ele>0.0</ele><time>2026-04-26T17:29:48.859Z</time></trkpt><trkpt lat="44.9673888" lon="11.8494163"><ele>0.0</ele><time>2026-04-26T17:29:49.86Z</time></trkpt><trkpt lat="44.9673911" lon="11.8491182"><ele>0.0</ele><time>2026-04-26T17:29:50.859Z</time></trkpt><trkpt lat="44.9673955" lon="11.8488226"><ele>0.0</ele><time>2026-04-26T17:29:51.859Z</time></trkpt><trkpt lat="44.9674037" lon="11.8485277"><ele>0.3333333333333333</ele><time>2026-04-26T17:29:52.859Z</time></trkpt><trkpt lat="44.967417" lon="11.848239"><ele>0.6666666666666666</ele><time>2026-04-26T17:29:53.859Z</time></trkpt><trkpt lat="44.9674293" lon="11.8479481"><ele>1.0</ele><time>2026-04-26T17:29:54.859Z</time></trkpt><trkpt lat="44.9674427" lon="11.8476574"><ele>1.0</ele><time>2026-04-26T17:29:55.859Z</time></trkpt><trkpt lat="44.9674588" lon="11.8473742"><ele>1.0</ele><time>2026-04-26T17:29:56.86Z</time></trkpt><trkpt lat="44.9674723" lon="11.8471004"><ele>1.0</ele><time>2026-04-26T17:29:57.859Z</time></trkpt><trkpt lat="44.9674799" lon="11.84683"><ele>1.0</ele><time>2026-04-26T17:29:58.86Z</time></trkpt><trkpt lat="44.9674775" lon="11.8465688"><ele>1.0</ele><time>2026-04-26T17:29:59.859Z</time></trkpt><trkpt lat="44.9674582" lon="11.8463129"><ele>1.0</ele><time>2026-04-26T17:30:00.859Z</time></trkpt><trkpt lat="44.9674254" lon="11.8460576"><ele>0.6666666666666666</ele><time>2026-04-26T17:30:01.859Z</time></trkpt><trkpt lat="44.9673847" lon="11.8458112"><ele>0.3333333333333333</ele><time>2026-04-26T17:30:02.86Z</time></trkpt><trkpt lat="44.9673215" lon="11.8455626"><ele>0.0</ele><time>2026-04-26T17:30:03.86Z</time></trkpt><trkpt lat="44.9672468" lon="11.8453282"><ele>0.3333333333333333</ele><time>2026-04-26T17:30:04.86Z</time></trkpt><trkpt lat="44.9671553" lon="11.8451004"><ele>0.6666666666666666</ele><time>2026-04-26T17:30:05.859Z</time></trkpt><trkpt lat="44.9670484" lon="11.8448842"><ele>1.0</ele><time>2026-04-26T17:30:06.86Z</time></trkpt><trkpt lat="44.9669339" lon="11.8446761"><ele>1.0</ele><time>2026-04-26T17:30:07.859Z</time></trkpt><trkpt lat="44.9668061" lon="11.8444872"><ele>1.0</ele><time>2026-04-26T17:30:08.86Z</time></trkpt><trkpt lat="44.9666733" lon="11.8443186"><ele>1.0</ele><time>2026-04-26T17:30:09.86Z</time></trkpt><trkpt lat="44.9665332" lon="11.8441654"><ele>1.0</ele><time>2026-04-26T17:30:10.859Z</time></trkpt><trkpt lat="44.9663862" lon="11.8440232"><ele>1.0</ele><time>2026-04-26T17:30:11.859Z</time></trkpt><trkpt lat="44.9662348" lon="11.8439034"><ele>1.0</ele><time>2026-04-26T17:30:12.859Z</time></trkpt><trkpt lat="44.966086" lon="11.8437858"><ele>1.0</ele><time>2026-04-26T17:30:13.859Z</time></trkpt><trkpt lat="44.9659387" lon="11.8436684"><ele>1.0</ele><time>2026-04-26T17:30:14.86Z</time></trkpt><trkpt lat="44.9657972" lon="11.8435547"><ele>1.0</ele><time>2026-04-26T17:30:15.859Z</time></trkpt><trkpt lat="44.9656624" lon="11.8434618"><ele>1.0</ele><time>2026-04-26T17:30:16.86Z</time></trkpt><trkpt lat="44.9655336" lon="11.8433696"><ele>1.0</ele><time>2026-04-26T17:30:17.86Z</time></trkpt><trkpt lat="44.9654129" lon="11.8432745"><ele>1.0</ele><time>2026-04-26T17:30:18.86Z</time></trkpt><trkpt lat="44.9652929" lon="11.8431769"><ele>1.0</ele><time>2026-04-26T17:30:19.859Z</time></trkpt><trkpt lat="44.9651725" lon="11.8430807"><ele>1.0</ele><time>2026-04-26T17:30:20.859Z</time></trkpt><trkpt lat="44.9650499" lon="11.8429837"><ele>1.0</ele><time>2026-04-26T17:30:21.859Z</time></trkpt><trkpt lat="44.9649328" lon="11.842891"><ele>1.0</ele><time>2026-04-26T17:30:22.86Z</time></trkpt><trkpt lat="44.9648049" lon="11.8427964"><ele>1.0</ele><time>2026-04-26T17:30:23.86Z</time></trkpt><trkpt lat="44.9646706" lon="11.8426934"><ele>1.0</ele><time>2026-04-26T17:30:24.86Z</time></trkpt><trkpt lat="44.9645319" lon="11.8425879"><ele>1.0</ele><time>2026-04-26T17:30:25.859Z</time></trkpt><trkpt lat="44.9643793" lon="11.842497"><ele>1.0</ele><time>2026-04-26T17:30:26.86Z</time></trkpt><trkpt lat="44.9642219" lon="11.8424148"><ele>0.75</ele><time>2026-04-26T17:30:27.86Z</time></trkpt><trkpt lat="44.9640645" lon="11.8423484"><ele>0.5</ele><time>2026-04-26T17:30:28.859Z</time></trkpt><trkpt lat="44.9639225" lon="11.8422872"><ele>0.25</ele><time>2026-04-26T17:30:29.859Z</time></trkpt><trkpt lat="44.9638064" lon="11.8422106"><ele>0.0</ele><time>2026-04-26T17:30:30.86Z</time></trkpt><trkpt lat="44.9637154" lon="11.8421149"><ele>0.0</ele><time>2026-04-26T17:30:31.86Z</time></trkpt><trkpt lat="44.9636518" lon="11.8419953"><ele>0.0</ele><time>2026-04-26T17:30:32.859Z</time></trkpt><trkpt lat="44.9636093" lon="11.8418543"><ele>0.0</ele><time>2026-04-26T17:30:33.86Z</time></trkpt><trkpt lat="44.9635982" lon="11.8416941"><ele>0.0</ele><time>2026-04-26T17:30:34.859Z</time></trkpt><trkpt lat="44.9636075" lon="11.8415244"><ele>0.0</ele><time>2026-04-26T17:30:35.859Z</time></trkpt><trkpt lat="44.9636142" lon="11.8413399"><ele>0.25</ele><time>2026-04-26T17:30:36.86Z</time></trkpt><trkpt lat="44.9636334" lon="11.8411365"><ele>0.5</ele><time>2026-04-26T17:30:37.859Z</time></trkpt><trkpt lat="44.963656" lon="11.8409256"><ele>0.75</ele><time>2026-04-26T17:30:38.859Z</time></trkpt><trkpt lat="44.9636737" lon="11.8407136"><ele>1.0</ele><time>2026-04-26T17:30:39.86Z</time></trkpt><trkpt lat="44.9636939" lon="11.8404898"><ele>1.0</ele><time>2026-04-26T17:30:40.859Z</time></trkpt><trkpt lat="44.9637109" lon="11.8402579"><ele>1.0</ele><time>2026-04-26T17:30:41.86Z</time></trkpt><trkpt lat="44.9637268" lon="11.8400266"><ele>1.0</ele><time>2026-04-26T17:30:42.86Z</time></trkpt><trkpt lat="44.9637422" lon="11.8397901"><ele>1.3333333333333333</ele><time>2026-04-26T17:30:43.86Z</time></trkpt><trkpt lat="44.9637562" lon="11.8395511"><ele>1.6666666666666665</ele><time>2026-04-26T17:30:44.86Z</time></trkpt><trkpt lat="44.9637658" lon="11.8393227"><ele>2.0</ele><time>2026-04-26T17:30:45.86Z</time></trkpt><trkpt lat="44.9637693" lon="11.8390953"><ele>2.0</ele><time>2026-04-26T17:30:46.86Z</time></trkpt><trkpt lat="44.9637702" lon="11.8388843"><ele>2.0</ele><time>2026-04-26T17:30:47.86Z</time></trkpt><trkpt lat="44.9637705" lon="11.8386838"><ele>2.0</ele><time>2026-04-26T17:30:48.859Z</time></trkpt><trkpt lat="44.9637744" lon="11.8384937"><ele>2.0</ele><time>2026-04-26T17:30:49.859Z</time></trkpt><trkpt lat="44.9637822" lon="11.8383163"><ele>2.0</ele><time>2026-04-26T17:30:50.86Z</time></trkpt><trkpt lat="44.9637882" lon="11.8381412"><ele>2.0</ele><time>2026-04-26T17:30:51.86Z</time></trkpt><trkpt lat="44.9637913" lon="11.8379684"><ele>2.0</ele><time>2026-04-26T17:30:52.859Z</time></trkpt><trkpt lat="44.963794" lon="11.8377985"><ele>2.0</ele><time>2026-04-26T17:30:53.859Z</time></trkpt><trkpt lat="44.9638007" lon="11.8376302"><ele>1.75</ele><time>2026-04-26T17:30:54.86Z</time></trkpt><trkpt lat="44.9638101" lon="11.8374643"><ele>1.5</ele><time>2026-04-26T17:30:55.859Z</time></trkpt><trkpt lat="44.9638204" lon="11.8373006"><ele>1.25</ele><time>2026-04-26T17:30:56.86Z</time></trkpt><trkpt lat="44.9638244" lon="11.8371311"><ele>1.0</ele><time>2026-04-26T17:30:57.859Z</time></trkpt><trkpt lat="44.9638347" lon="11.836971"><ele>0.9999999999999999</ele><time>2026-04-26T17:30:58.859Z</time></trkpt><trkpt lat="44.9638507" lon="11.836821"><ele>1.0</ele><time>2026-04-26T17:30:59.859Z</time></trkpt><trkpt lat="44.9638631" lon="11.8366855"><ele>1.0</ele><time>2026-04-26T17:31:00.86Z</time></trkpt><trkpt lat="44.9638738" lon="11.8365615"><ele>1.0</ele><time>2026-04-26T17:31:01.859Z</time></trkpt><trkpt lat="44.9638794" lon="11.8364447"><ele>0.9999999999999999</ele><time>2026-04-26T17:31:02.859Z</time></trkpt><trkpt lat="44.9638908" lon="11.8363492"><ele>1.0</ele><time>2026-04-26T17:31:03.86Z</time></trkpt><trkpt lat="44.9638977" lon="11.8362593"><ele>0.9999999999999999</ele><time>2026-04-26T17:31:04.86Z</time></trkpt><trkpt lat="44.9639055" lon="11.8361269"><ele>1.0</ele><time>2026-04-26T17:31:06.859Z</time></trkpt><trkpt lat="44.9639076" lon="11.8360065"><ele>1.0</ele><time>2026-04-26T17:31:09.859Z</time></trkpt><trkpt lat="44.9639217" lon="11.8358951"><ele>1.0</ele><time>2026-04-26T17:31:13.86Z</time></trkpt><trkpt lat="44.9639302" lon="11.835795"><ele>0.9999999999999999</ele><time>2026-04-26T17:31:17.859Z</time></trkpt><trkpt lat="44.9639407" lon="11.8356946"><ele>1.0</ele><time>2026-04-26T17:31:22.859Z</time></trkpt><trkpt lat="44.9639472" lon="11.8355885"><ele>1.0</ele><time>2026-04-26T17:31:39.859Z</time></trkpt><trkpt lat="44.9639483" lon="11.8354703"><ele>1.0</ele><time>2026-04-26T17:31:41.86Z</time></trkpt><trkpt lat="44.9639554" lon="11.8353667"><ele>1.0</ele><time>2026-04-26T17:31:42.859Z</time></trkpt><trkpt lat="44.9639571" lon="11.8352405"><ele>1.0</ele><time>2026-04-26T17:31:43.859Z</time></trkpt><trkpt lat="44.9639568" lon="11.8351012"><ele>1.0</ele><time>2026-04-26T17:31:44.86Z</time></trkpt><trkpt lat="44.9639577" lon="11.8349532"><ele>1.0</ele><time>2026-04-26T17:31:45.86Z</time></trkpt><trkpt lat="44.9639599" lon="11.8347927"><ele>1.0</ele><time>2026-04-26T17:31:46.86Z</time></trkpt><trkpt lat="44.9639581" lon="11.8346195"><ele>1.0</ele><time>2026-04-26T17:31:47.859Z</time></trkpt><trkpt lat="44.9639607" lon="11.8344503"><ele>1.0</ele><time>2026-04-26T17:31:48.86Z</time></trkpt><trkpt lat="44.963962" lon="11.8342837"><ele>1.0</ele><time>2026-04-26T17:31:49.859Z</time></trkpt><trkpt lat="44.9639612" lon="11.8341073"><ele>1.0</ele><time>2026-04-26T17:31:50.86Z</time></trkpt><trkpt lat="44.9639616" lon="11.8339348"><ele>1.0</ele><time>2026-04-26T17:31:51.86Z</time></trkpt><trkpt lat="44.9639609" lon="11.833756"><ele>1.0</ele><time>2026-04-26T17:31:52.859Z</time></trkpt><trkpt lat="44.9639651" lon="11.8335751"><ele>1.0</ele><time>2026-04-26T17:31:53.86Z</time></trkpt><trkpt lat="44.963964" lon="11.8334037"><ele>1.0</ele><time>2026-04-26T17:31:54.86Z</time></trkpt><trkpt lat="44.9639643" lon="11.8332277"><ele>1.0</ele><time>2026-04-26T17:31:55.859Z</time></trkpt><trkpt lat="44.9639608" lon="11.8330524"><ele>1.0</ele><time>2026-04-26T17:31:56.859Z</time></trkpt><trkpt lat="44.9639527" lon="11.832877"><ele>1.0</ele><time>2026-04-26T17:31:57.859Z</time></trkpt><trkpt lat="44.9639373" lon="11.8326949"><ele>1.0</ele><time>2026-04-26T17:31:58.859Z</time></trkpt><trkpt lat="44.9639203" lon="11.8325217"><ele>1.0</ele><time>2026-04-26T17:31:59.859Z</time></trkpt><trkpt lat="44.9638962" lon="11.8323338"><ele>1.0</ele><time>2026-04-26T17:32:00.86Z</time></trkpt><trkpt lat="44.9638697" lon="11.8321501"><ele>1.0</ele><time>2026-04-26T17:32:01.86Z</time></trkpt><trkpt lat="44.963844" lon="11.8319604"><ele>1.0</ele><time>2026-04-26T17:32:02.86Z</time></trkpt><trkpt lat="44.9638165" lon="11.8317712"><ele>1.0</ele><time>2026-04-26T17:32:03.859Z</time></trkpt><trkpt lat="44.9637885" lon="11.8315806"><ele>1.0</ele><time>2026-04-26T17:32:04.859Z</time></trkpt><trkpt lat="44.9637657" lon="11.8313874"><ele>1.0</ele><time>2026-04-26T17:32:05.859Z</time></trkpt><trkpt lat="44.963744" lon="11.831191"><ele>1.0</ele><time>2026-04-26T17:32:06.86Z</time></trkpt><trkpt lat="44.9637152" lon="11.830986"><ele>1.0</ele><time>2026-04-26T17:32:07.86Z</time></trkpt><trkpt lat="44.9636867" lon="11.83078"><ele>1.0</ele><time>2026-04-26T17:32:08.859Z</time></trkpt><trkpt lat="44.9636618" lon="11.830571"><ele>0.6666666666666666</ele><time>2026-04-26T17:32:09.859Z</time></trkpt><trkpt lat="44.9636356" lon="11.8303594"><ele>0.3333333333333333</ele><time>2026-04-26T17:32:10.86Z</time></trkpt><trkpt lat="44.9636051" lon="11.8301426"><ele>0.0</ele><time>2026-04-26T17:32:11.859Z</time></trkpt><trkpt lat="44.9635674" lon="11.8299322"><ele>0.0</ele><time>2026-04-26T17:32:12.859Z</time></trkpt><trkpt lat="44.9635111" lon="11.8297403"><ele>0.0</ele><time>2026-04-26T17:32:13.859Z</time></trkpt><trkpt lat="44.9634326" lon="11.8295656"><ele>0.0</ele><time>2026-04-26T17:32:14.86Z</time></trkpt><trkpt lat="44.9633328" lon="11.8293983"><ele>0.0</ele><time>2026-04-26T17:32:15.859Z</time></trkpt><trkpt lat="44.9632272" lon="11.8292208"><ele>0.6666666666666666</ele><time>2026-04-26T17:32:16.86Z</time></trkpt><trkpt lat="44.9631172" lon="11.8290398"><ele>1.3333333333333333</ele><time>2026-04-26T17:32:17.859Z</time></trkpt><trkpt lat="44.9630032" lon="11.8288536"><ele>2.0</ele><time>2026-04-26T17:32:18.859Z</time></trkpt><trkpt lat="44.9628933" lon="11.8286707"><ele>2.0</ele><time>2026-04-26T17:32:19.86Z</time></trkpt><trkpt lat="44.9627946" lon="11.8284941"><ele>2.0</ele><time>2026-04-26T17:32:20.86Z</time></trkpt><trkpt lat="44.962691" lon="11.8283225"><ele>2.0</ele><time>2026-04-26T17:32:21.859Z</time></trkpt><trkpt lat="44.9625897" lon="11.8281516"><ele>2.333333333333333</ele><time>2026-04-26T17:32:22.859Z</time></trkpt><trkpt lat="44.9624881" lon="11.8279777"><ele>2.6666666666666665</ele><time>2026-04-26T17:32:23.86Z</time></trkpt><trkpt lat="44.9623839" lon="11.8278013"><ele>3.0</ele><time>2026-04-26T17:32:24.859Z</time></trkpt><trkpt lat="44.9622804" lon="11.8276258"><ele>4.333333333333334</ele><time>2026-04-26T17:32:25.86Z</time></trkpt><trkpt lat="44.9621755" lon="11.8274452"><ele>5.666666666666667</ele><time>2026-04-26T17:32:26.86Z</time></trkpt><trkpt lat="44.9620693" lon="11.8272686"><ele>7.0</ele><time>2026-04-26T17:32:27.859Z</time></trkpt><trkpt lat="44.9619624" lon="11.8270893"><ele>7.0</ele><time>2026-04-26T17:32:28.859Z</time></trkpt><trkpt lat="44.9618542" lon="11.8269132"><ele>7.0</ele><time>2026-04-26T17:32:29.859Z</time></trkpt><trkpt lat="44.9617478" lon="11.8267293"><ele>7.0</ele><time>2026-04-26T17:32:30.86Z</time></trkpt><trkpt lat="44.9616431" lon="11.8265464"><ele>5.0</ele><time>2026-04-26T17:32:31.86Z</time></trkpt><trkpt lat="44.9615374" lon="11.8263621"><ele>3.0</ele><time>2026-04-26T17:32:32.859Z</time></trkpt><trkpt lat="44.9614288" lon="11.8261796"><ele>1.0</ele><time>2026-04-26T17:32:33.86Z</time></trkpt><trkpt lat="44.9613213" lon="11.8259993"><ele>0.6666666666666666</ele><time>2026-04-26T17:32:34.86Z</time></trkpt><trkpt lat="44.9612098" lon="11.8258124"><ele>0.3333333333333333</ele><time>2026-04-26T17:32:35.859Z</time></trkpt><trkpt lat="44.9611012" lon="11.8256293"><ele>0.0</ele><time>2026-04-26T17:32:36.86Z</time></trkpt><trkpt lat="44.9609908" lon="11.8254483"><ele>0.0</ele><time>2026-04-26T17:32:37.859Z</time></trkpt><trkpt lat="44.960879" lon="11.8252696"><ele>0.0</ele><time>2026-04-26T17:32:38.859Z</time></trkpt><trkpt lat="44.9607641" lon="11.8250846"><ele>0.0</ele><time>2026-04-26T17:32:39.859Z</time></trkpt><trkpt lat="44.9606506" lon="11.8248981"><ele>0.0</ele><time>2026-04-26T17:32:40.86Z</time></trkpt><trkpt lat="44.9605391" lon="11.8247134"><ele>0.0</ele><time>2026-04-26T17:32:41.86Z</time></trkpt><trkpt lat="44.9604251" lon="11.8245274"><ele>0.0</ele><time>2026-04-26T17:32:42.86Z</time></trkpt><trkpt lat="44.9603165" lon="11.8243386"><ele>0.0</ele><time>2026-04-26T17:32:43.859Z</time></trkpt><trkpt lat="44.9602056" lon="11.824147"><ele>0.0</ele><time>2026-04-26T17:32:44.86Z</time></trkpt><trkpt lat="44.9600945" lon="11.8239612"><ele>0.0</ele><time>2026-04-26T17:32:45.859Z</time></trkpt><trkpt lat="44.9599855" lon="11.8237807"><ele>0.0</ele><time>2026-04-26T17:32:46.86Z</time></trkpt><trkpt lat="44.9598748" lon="11.8235973"><ele>0.0</ele><time>2026-04-26T17:32:47.859Z</time></trkpt><trkpt lat="44.9597671" lon="11.823417"><ele>0.0</ele><time>2026-04-26T17:32:48.86Z</time></trkpt><trkpt lat="44.9596657" lon="11.8232451"><ele>0.0</ele><time>2026-04-26T17:32:49.859Z</time></trkpt><trkpt lat="44.9595685" lon="11.8230867"><ele>0.0</ele><time>2026-04-26T17:32:50.859Z</time></trkpt><trkpt lat="44.959479" lon="11.8229326"><ele>0.0</ele><time>2026-04-26T17:32:51.859Z</time></trkpt><trkpt lat="44.9593964" lon="11.8227959"><ele>0.0</ele><time>2026-04-26T17:32:52.86Z</time></trkpt><trkpt lat="44.9593229" lon="11.8226705"><ele>0.2</ele><time>2026-04-26T17:32:53.86Z</time></trkpt><trkpt lat="44.9592561" lon="11.8225517"><ele>0.4</ele><time>2026-04-26T17:32:54.859Z</time></trkpt><trkpt lat="44.9592165" lon="11.822425"><ele>0.6000000000000001</ele><time>2026-04-26T17:32:55.859Z</time></trkpt><trkpt lat="44.9591957" lon="11.822303"><ele>0.8</ele><time>2026-04-26T17:32:56.86Z</time></trkpt><trkpt lat="44.9591973" lon="11.8221949"><ele>1.0</ele><time>2026-04-26T17:32:57.859Z</time></trkpt><trkpt lat="44.9592236" lon="11.8220836"><ele>1.0</ele><time>2026-04-26T17:32:58.86Z</time></trkpt><trkpt lat="44.9592693" lon="11.8219806"><ele>1.0</ele><time>2026-04-26T17:32:59.859Z</time></trkpt><trkpt lat="44.9593436" lon="11.8218886"><ele>1.0</ele><time>2026-04-26T17:33:00.859Z</time></trkpt><trkpt lat="44.9594378" lon="11.821807"><ele>1.0</ele><time>2026-04-26T17:33:01.859Z</time></trkpt><trkpt lat="44.959547" lon="11.8217304"><ele>1.0</ele><time>2026-04-26T17:33:02.859Z</time></trkpt><trkpt lat="44.9596679" lon="11.8216477"><ele>1.0</ele><time>2026-04-26T17:33:03.859Z</time></trkpt><trkpt lat="44.9597915" lon="11.821554"><ele>1.0</ele><time>2026-04-26T17:33:04.86Z</time></trkpt><trkpt lat="44.9599278" lon="11.8214586"><ele>1.0</ele><time>2026-04-26T17:33:05.859Z</time></trkpt><trkpt lat="44.9600692" lon="11.821358"><ele>0.6666666666666666</ele><time>2026-04-26T17:33:06.859Z</time></trkpt><trkpt lat="44.9602199" lon="11.8212505"><ele>0.3333333333333333</ele><time>2026-04-26T17:33:07.859Z</time></trkpt><trkpt lat="44.9603766" lon="11.8211408"><ele>0.0</ele><time>2026-04-26T17:33:08.86Z</time></trkpt><trkpt lat="44.9605386" lon="11.8210289"><ele>0.0</ele><time>2026-04-26T17:33:09.86Z</time></trkpt><trkpt lat="44.9607006" lon="11.82091"><ele>0.0</ele><time>2026-04-26T17:33:10.86Z</time></trkpt><trkpt lat="44.960865" lon="11.8207931"><ele>0.0</ele><time>2026-04-26T17:33:11.86Z</time></trkpt><trkpt lat="44.961025" lon="11.8206848"><ele>0.0</ele><time>2026-04-26T17:33:12.86Z</time></trkpt><trkpt lat="44.9611791" lon="11.8205804"><ele>0.0</ele><time>2026-04-26T17:33:13.859Z</time></trkpt><trkpt lat="44.9613248" lon="11.8204788"><ele>0.0</ele><time>2026-04-26T17:33:14.86Z</time></trkpt><trkpt lat="44.9614651" lon="11.8203768"><ele>0.0</ele><time>2026-04-26T17:33:15.859Z</time></trkpt><trkpt lat="44.9616075" lon="11.8202776"><ele>0.0</ele><time>2026-04-26T17:33:16.859Z</time></trkpt><trkpt lat="44.9617458" lon="11.8201758"><ele>0.0</ele><time>2026-04-26T17:33:17.859Z</time></trkpt><trkpt lat="44.9618889" lon="11.8200718"><ele>0.0</ele><time>2026-04-26T17:33:18.86Z</time></trkpt><trkpt lat="44.9620326" lon="11.8199672"><ele>0.0</ele><time>2026-04-26T17:33:19.859Z</time></trkpt><trkpt lat="44.9621798" lon="11.8198597"><ele>0.0</ele><time>2026-04-26T17:33:20.859Z</time></trkpt><trkpt lat="44.9623299" lon="11.8197546"><ele>0.0</ele><time>2026-04-26T17:33:21.859Z</time></trkpt><trkpt lat="44.9624861" lon="11.8196475"><ele>0.0</ele><time>2026-04-26T17:33:22.859Z</time></trkpt><trkpt lat="44.9626443" lon="11.8195391"><ele>0.0</ele><time>2026-04-26T17:33:23.86Z</time></trkpt><trkpt lat="44.9628019" lon="11.8194227"><ele>0.0</ele><time>2026-04-26T17:33:24.859Z</time></trkpt><trkpt lat="44.9629651" lon="11.8193025"><ele>0.0</ele><time>2026-04-26T17:33:25.86Z</time></trkpt><trkpt lat="44.9631329" lon="11.8191659"><ele>0.0</ele><time>2026-04-26T17:33:26.86Z</time></trkpt><trkpt lat="44.963315" lon="11.8190172"><ele>0.0</ele><time>2026-04-26T17:33:27.859Z</time></trkpt><trkpt lat="44.9635067" lon="11.8188629"><ele>0.0</ele><time>2026-04-26T17:33:28.86Z</time></trkpt><trkpt lat="44.9637074" lon="11.818714"><ele>0.0</ele><time>2026-04-26T17:33:29.86Z</time></trkpt><trkpt lat="44.9639074" lon="11.8185737"><ele>0.0</ele><time>2026-04-26T17:33:30.859Z</time></trkpt><trkpt lat="44.964101" lon="11.818436"><ele>0.0</ele><time>2026-04-26T17:33:31.86Z</time></trkpt><trkpt lat="44.964287" lon="11.8183087"><ele>0.0</ele><time>2026-04-26T17:33:32.859Z</time></trkpt><trkpt lat="44.9644739" lon="11.8181891"><ele>0.0</ele><time>2026-04-26T17:33:33.859Z</time></trkpt><trkpt lat="44.9646515" lon="11.8180692"><ele>0.0</ele><time>2026-04-26T17:33:34.86Z</time></trkpt><trkpt lat="44.9648171" lon="11.8179537"><ele>0.0</ele><time>2026-04-26T17:33:35.859Z</time></trkpt><trkpt lat="44.9649744" lon="11.8178458"><ele>0.0</ele><time>2026-04-26T17:33:36.859Z</time></trkpt><trkpt lat="44.9651244" lon="11.8177442"><ele>0.0</ele><time>2026-04-26T17:33:37.859Z</time></trkpt><trkpt lat="44.9652728" lon="11.8176456"><ele>0.0</ele><time>2026-04-26T17:33:38.859Z</time></trkpt><trkpt lat="44.9654246" lon="11.8175409"><ele>0.0</ele><time>2026-04-26T17:33:39.86Z</time></trkpt><trkpt lat="44.9655796" lon="11.8174307"><ele>0.0</ele><time>2026-04-26T17:33:40.86Z</time></trkpt><trkpt lat="44.9657364" lon="11.8173204"><ele>0.0</ele><time>2026-04-26T17:33:41.859Z</time></trkpt><trkpt lat="44.9658992" lon="11.8172055"><ele>0.0</ele><time>2026-04-26T17:33:42.859Z</time></trkpt><trkpt lat="44.9660607" lon="11.8170871"><ele>0.0</ele><time>2026-04-26T17:33:43.859Z</time></trkpt><trkpt lat="44.966216" lon="11.8169867"><ele>0.0</ele><time>2026-04-26T17:33:44.859Z</time></trkpt><trkpt lat="44.9663645" lon="11.8168773"><ele>0.3333333333333333</ele><time>2026-04-26T17:33:45.859Z</time></trkpt><trkpt lat="44.966508" lon="11.816746"><ele>0.6666666666666666</ele><time>2026-04-26T17:33:46.859Z</time></trkpt><trkpt lat="44.9666489" lon="11.816594"><ele>1.0</ele><time>2026-04-26T17:33:47.859Z</time></trkpt><trkpt lat="44.9667871" lon="11.816411"><ele>1.0</ele><time>2026-04-26T17:33:48.86Z</time></trkpt><trkpt lat="44.9669153" lon="11.816214"><ele>1.0</ele><time>2026-04-26T17:33:49.859Z</time></trkpt><trkpt lat="44.9670389" lon="11.815997"><ele>1.0</ele><time>2026-04-26T17:33:50.859Z</time></trkpt><trkpt lat="44.9671608" lon="11.8157692"><ele>1.0</ele><time>2026-04-26T17:33:51.859Z</time></trkpt><trkpt lat="44.9672811" lon="11.8155307"><ele>1.0</ele><time>2026-04-26T17:33:52.859Z</time></trkpt><trkpt lat="44.9674071" lon="11.8152957"><ele>1.0</ele><time>2026-04-26T17:33:53.86Z</time></trkpt><trkpt lat="44.9675351" lon="11.8150554"><ele>1.0</ele><time>2026-04-26T17:33:54.859Z</time></trkpt><trkpt lat="44.9676496" lon="11.8148034"><ele>1.0</ele><time>2026-04-26T17:33:55.86Z</time></trkpt><trkpt lat="44.9677678" lon="11.8145567"><ele>1.0</ele><time>2026-04-26T17:33:56.859Z</time></trkpt><trkpt lat="44.9678961" lon="11.8143229"><ele>1.3333333333333333</ele><time>2026-04-26T17:33:57.859Z</time></trkpt><trkpt lat="44.9680239" lon="11.8140875"><ele>1.6666666666666665</ele><time>2026-04-26T17:33:58.859Z</time></trkpt><trkpt lat="44.968146" lon="11.813846"><ele>2.0</ele><time>2026-04-26T17:33:59.86Z</time></trkpt><trkpt lat="44.9682667" lon="11.8136116"><ele>2.0</ele><time>2026-04-26T17:34:00.86Z</time></trkpt><trkpt lat="44.9683898" lon="11.8133819"><ele>2.0</ele><time>2026-04-26T17:34:01.859Z</time></trkpt><trkpt lat="44.9685104" lon="11.8131501"><ele>2.0</ele><time>2026-04-26T17:34:02.86Z</time></trkpt><trkpt lat="44.9686291" lon="11.8129177"><ele>2.0</ele><time>2026-04-26T17:34:03.86Z</time></trkpt><trkpt lat="44.9687507" lon="11.8126838"><ele>2.0</ele><time>2026-04-26T17:34:04.86Z</time></trkpt><trkpt lat="44.9688712" lon="11.8124566"><ele>2.0</ele><time>2026-04-26T17:34:05.86Z</time></trkpt><trkpt lat="44.9689914" lon="11.8122285"><ele>1.6666666666666665</ele><time>2026-04-26T17:34:06.859Z</time></trkpt><trkpt lat="44.9691106" lon="11.8120114"><ele>1.3333333333333333</ele><time>2026-04-26T17:34:07.859Z</time></trkpt><trkpt lat="44.9692212" lon="11.8117902"><ele>1.0</ele><time>2026-04-26T17:34:08.86Z</time></trkpt><trkpt lat="44.9693317" lon="11.8115736"><ele>1.0</ele><time>2026-04-26T17:34:09.86Z</time></trkpt><trkpt lat="44.9694394" lon="11.8113607"><ele>1.0</ele><time>2026-04-26T17:34:10.86Z</time></trkpt><trkpt lat="44.9695468" lon="11.8111562"><ele>1.0</ele><time>2026-04-26T17:34:11.86Z</time></trkpt><trkpt lat="44.9696601" lon="11.8109552"><ele>1.0</ele><time>2026-04-26T17:34:12.86Z</time></trkpt><trkpt lat="44.969783" lon="11.8107658"><ele>1.0</ele><time>2026-04-26T17:34:13.86Z</time></trkpt><trkpt lat="44.9699149" lon="11.8105965"><ele>1.0</ele><time>2026-04-26T17:34:14.859Z</time></trkpt><trkpt lat="44.9700647" lon="11.8104403"><ele>1.3333333333333333</ele><time>2026-04-26T17:34:15.86Z</time></trkpt><trkpt lat="44.9702264" lon="11.8103023"><ele>1.6666666666666665</ele><time>2026-04-26T17:34:16.86Z</time></trkpt><trkpt lat="44.9703928" lon="11.8101803"><ele>2.0</ele><time>2026-04-26T17:34:17.86Z</time></trkpt><trkpt lat="44.9705668" lon="11.8100753"><ele>2.333333333333333</ele><time>2026-04-26T17:34:18.859Z</time></trkpt><trkpt lat="44.9707477" lon="11.8099896"><ele>2.6666666666666665</ele><time>2026-04-26T17:34:19.86Z</time></trkpt><trkpt lat="44.9709283" lon="11.8099132"><ele>3.0</ele><time>2026-04-26T17:34:20.86Z</time></trkpt><trkpt lat="44.9711099" lon="11.8098498"><ele>3.333333333333333</ele><time>2026-04-26T17:34:21.86Z</time></trkpt><trkpt lat="44.9712816" lon="11.8097977"><ele>3.6666666666666665</ele><time>2026-04-26T17:34:22.86Z</time></trkpt><trkpt lat="44.9714447" lon="11.8097512"><ele>4.0</ele><time>2026-04-26T17:34:23.859Z</time></trkpt><trkpt lat="44.9715966" lon="11.8097031"><ele>3.25</ele><time>2026-04-26T17:34:24.859Z</time></trkpt><trkpt lat="44.971746" lon="11.8096589"><ele>2.5</ele><time>2026-04-26T17:34:25.86Z</time></trkpt><trkpt lat="44.9718883" lon="11.8096161"><ele>1.75</ele><time>2026-04-26T17:34:26.86Z</time></trkpt><trkpt lat="44.9720183" lon="11.8095628"><ele>1.0</ele><time>2026-04-26T17:34:27.859Z</time></trkpt><trkpt lat="44.9721456" lon="11.8095167"><ele>1.0</ele><time>2026-04-26T17:34:28.859Z</time></trkpt><trkpt lat="44.9722573" lon="11.8094611"><ele>1.0</ele><time>2026-04-26T17:34:29.859Z</time></trkpt><trkpt lat="44.9723604" lon="11.8094059"><ele>1.0</ele><time>2026-04-26T17:34:30.86Z</time></trkpt><trkpt lat="44.9724571" lon="11.8093529"><ele>1.0</ele><time>2026-04-26T17:34:31.859Z</time></trkpt><trkpt lat="44.9725435" lon="11.8092895"><ele>1.0</ele><time>2026-04-26T17:34:32.86Z</time></trkpt><trkpt lat="44.9726235" lon="11.8092238"><ele>1.2000000000000002</ele><time>2026-04-26T17:34:33.86Z</time></trkpt><trkpt lat="44.9726945" lon="11.8091361"><ele>1.4000000000000001</ele><time>2026-04-26T17:34:34.86Z</time></trkpt><trkpt lat="44.9727611" lon="11.8090337"><ele>1.6</ele><time>2026-04-26T17:34:35.86Z</time></trkpt><trkpt lat="44.9728187" lon="11.8089123"><ele>1.8</ele><time>2026-04-26T17:34:36.859Z</time></trkpt><trkpt lat="44.9728622" lon="11.8087736"><ele>2.0</ele><time>2026-04-26T17:34:37.859Z</time></trkpt><trkpt lat="44.9728951" lon="11.8086265"><ele>2.2</ele><time>2026-04-26T17:34:38.86Z</time></trkpt><trkpt lat="44.9729149" lon="11.8084702"><ele>2.4000000000000004</ele><time>2026-04-26T17:34:39.86Z</time></trkpt><trkpt lat="44.9729279" lon="11.8083138"><ele>2.5999999999999996</ele><time>2026-04-26T17:34:40.859Z</time></trkpt><trkpt lat="44.9729359" lon="11.8081533"><ele>2.8</ele><time>2026-04-26T17:34:41.859Z</time></trkpt><trkpt lat="44.9729394" lon="11.8079955"><ele>3.0</ele><time>2026-04-26T17:34:42.859Z</time></trkpt><trkpt lat="44.9729436" lon="11.8078385"><ele>3.0</ele><time>2026-04-26T17:34:43.859Z</time></trkpt><trkpt lat="44.9729447" lon="11.8076831"><ele>3.0</ele><time>2026-04-26T17:34:44.859Z</time></trkpt><trkpt lat="44.9729469" lon="11.8075248"><ele>3.0</ele><time>2026-04-26T17:34:45.859Z</time></trkpt><trkpt lat="44.9729492" lon="11.8073597"><ele>3.0</ele><time>2026-04-26T17:34:46.86Z</time></trkpt><trkpt lat="44.9729481" lon="11.8071975"><ele>3.25</ele><time>2026-04-26T17:34:47.859Z</time></trkpt><trkpt lat="44.9729448" lon="11.8070386"><ele>3.5</ele><time>2026-04-26T17:34:48.86Z</time></trkpt><trkpt lat="44.9729384" lon="11.8068697"><ele>3.75</ele><time>2026-04-26T17:34:49.859Z</time></trkpt><trkpt lat="44.9729257" lon="11.806699"><ele>4.0</ele><time>2026-04-26T17:34:50.859Z</time></trkpt><trkpt lat="44.9729161" lon="11.8065325"><ele>4.0</ele><time>2026-04-26T17:34:51.86Z</time></trkpt><trkpt lat="44.972905" lon="11.806363"><ele>4.0</ele><time>2026-04-26T17:34:52.859Z</time></trkpt><trkpt lat="44.9728948" lon="11.8061951"><ele>4.0</ele><time>2026-04-26T17:34:53.86Z</time></trkpt><trkpt lat="44.9728891" lon="11.8060283"><ele>4.0</ele><time>2026-04-26T17:34:54.859Z</time></trkpt><trkpt lat="44.9728809" lon="11.8058597"><ele>4.0</ele><time>2026-04-26T17:34:55.859Z</time></trkpt><trkpt lat="44.9728621" lon="11.8056885"><ele>4.0</ele><time>2026-04-26T17:34:56.859Z</time></trkpt><trkpt lat="44.9728298" lon="11.8055193"><ele>4.0</ele><time>2026-04-26T17:34:57.86Z</time></trkpt><trkpt lat="44.9727882" lon="11.8053549"><ele>4.0</ele><time>2026-04-26T17:34:58.859Z</time></trkpt><trkpt lat="44.9727355" lon="11.8051993"><ele>4.0</ele><time>2026-04-26T17:34:59.859Z</time></trkpt><trkpt lat="44.9726664" lon="11.8050549"><ele>4.0</ele><time>2026-04-26T17:35:00.859Z</time></trkpt><trkpt lat="44.9725835" lon="11.8049246"><ele>4.0</ele><time>2026-04-26T17:35:01.86Z</time></trkpt><trkpt lat="44.9724806" lon="11.80481"><ele>4.0</ele><time>2026-04-26T17:35:02.859Z</time></trkpt><trkpt lat="44.9723694" lon="11.8047046"><ele>4.0</ele><time>2026-04-26T17:35:03.86Z</time></trkpt><trkpt lat="44.9722531" lon="11.8046062"><ele>4.0</ele><time>2026-04-26T17:35:04.86Z</time></trkpt><trkpt lat="44.9721368" lon="11.8045041"><ele>4.0</ele><time>2026-04-26T17:35:05.859Z</time></trkpt><trkpt lat="44.9720146" lon="11.8044035"><ele>4.0</ele><time>2026-04-26T17:35:06.859Z</time></trkpt><trkpt lat="44.9718914" lon="11.8042986"><ele>3.75</ele><time>2026-04-26T17:35:07.86Z</time></trkpt><trkpt lat="44.9717689" lon="11.8041857"><ele>3.5</ele><time>2026-04-26T17:35:08.86Z</time></trkpt><trkpt lat="44.9716462" lon="11.8040679"><ele>3.25</ele><time>2026-04-26T17:35:09.86Z</time></trkpt><trkpt lat="44.9715351" lon="11.8039347"><ele>3.0</ele><time>2026-04-26T17:35:10.859Z</time></trkpt><trkpt lat="44.9714306" lon="11.8038085"><ele>2.5</ele><time>2026-04-26T17:35:11.86Z</time></trkpt><trkpt lat="44.9713193" lon="11.8036795"><ele>2.0</ele><time>2026-04-26T17:35:12.859Z</time></trkpt><trkpt lat="44.9712186" lon="11.8035441"><ele>1.5</ele><time>2026-04-26T17:35:13.859Z</time></trkpt><trkpt lat="44.9711188" lon="11.8034068"><ele>1.0</ele><time>2026-04-26T17:35:14.86Z</time></trkpt><trkpt lat="44.971029" lon="11.8032637"><ele>1.0</ele><time>2026-04-26T17:35:15.859Z</time></trkpt><trkpt lat="44.9709383" lon="11.8031186"><ele>1.0</ele><time>2026-04-26T17:35:16.86Z</time></trkpt><trkpt lat="44.9708454" lon="11.8029787"><ele>1.0</ele><time>2026-04-26T17:35:17.859Z</time></trkpt><trkpt lat="44.9707595" lon="11.802834"><ele>1.0</ele><time>2026-04-26T17:35:18.859Z</time></trkpt><trkpt lat="44.9706732" lon="11.8026865"><ele>1.25</ele><time>2026-04-26T17:35:19.859Z</time></trkpt><trkpt lat="44.9705865" lon="11.8025383"><ele>1.5</ele><time>2026-04-26T17:35:20.859Z</time></trkpt><trkpt lat="44.9704982" lon="11.8023981"><ele>1.75</ele><time>2026-04-26T17:35:21.86Z</time></trkpt><trkpt lat="44.9704124" lon="11.8022596"><ele>2.0</ele><time>2026-04-26T17:35:22.859Z</time></trkpt><trkpt lat="44.9703297" lon="11.8021248"><ele>2.0</ele><time>2026-04-26T17:35:23.859Z</time></trkpt><trkpt lat="44.9702462" lon="11.8019857"><ele>2.0</ele><time>2026-04-26T17:35:24.86Z</time></trkpt><trkpt lat="44.970162" lon="11.8018423"><ele>2.0</ele><time>2026-04-26T17:35:25.859Z</time></trkpt><trkpt lat="44.9700792" lon="11.8017021"><ele>2.0</ele><time>2026-04-26T17:35:26.859Z</time></trkpt><trkpt lat="44.9699928" lon="11.8015618"><ele>2.0</ele><time>2026-04-26T17:35:27.859Z</time></trkpt><trkpt lat="44.9699063" lon="11.8014213"><ele>2.0</ele><time>2026-04-26T17:35:28.859Z</time></trkpt><trkpt lat="44.9698187" lon="11.8012835"><ele>2.0</ele><time>2026-04-26T17:35:29.859Z</time></trkpt><trkpt lat="44.9697295" lon="11.8011411"><ele>2.0</ele><time>2026-04-26T17:35:30.859Z</time></trkpt><trkpt lat="44.9696397" lon="11.8009938"><ele>2.0</ele><time>2026-04-26T17:35:31.86Z</time></trkpt><trkpt lat="44.9695514" lon="11.8008463"><ele>2.0</ele><time>2026-04-26T17:35:32.86Z</time></trkpt><trkpt lat="44.9694656" lon="11.8006983"><ele>2.0</ele><time>2026-04-26T17:35:33.86Z</time></trkpt><trkpt lat="44.9693828" lon="11.800553"><ele>2.0</ele><time>2026-04-26T17:35:34.859Z</time></trkpt><trkpt lat="44.9692984" lon="11.8004102"><ele>2.0</ele><time>2026-04-26T17:35:35.859Z</time></trkpt><trkpt lat="44.9692189" lon="11.8002688"><ele>2.0</ele><time>2026-04-26T17:35:36.859Z</time></trkpt><trkpt lat="44.9691412" lon="11.8001195"><ele>2.0</ele><time>2026-04-26T17:35:37.859Z</time></trkpt><trkpt lat="44.9690617" lon="11.7999564"><ele>2.0</ele><time>2026-04-26T17:35:38.86Z</time></trkpt><trkpt lat="44.9689857" lon="11.7997827"><ele>2.0</ele><time>2026-04-26T17:35:39.86Z</time></trkpt><trkpt lat="44.968911" lon="11.7996039"><ele>2.0</ele><time>2026-04-26T17:35:40.859Z</time></trkpt><trkpt lat="44.9688333" lon="11.7994135"><ele>2.0</ele><time>2026-04-26T17:35:41.86Z</time></trkpt><trkpt lat="44.9687596" lon="11.7992197"><ele>2.0</ele><time>2026-04-26T17:35:42.859Z</time></trkpt><trkpt lat="44.9686866" lon="11.7990261"><ele>2.0</ele><time>2026-04-26T17:35:43.86Z</time></trkpt><trkpt lat="44.9686167" lon="11.7988343"><ele>2.0</ele><time>2026-04-26T17:35:44.86Z</time></trkpt><trkpt lat="44.9685474" lon="11.7986637"><ele>2.0</ele><time>2026-04-26T17:35:45.859Z</time></trkpt><trkpt lat="44.9684823" lon="11.7985073"><ele>2.2</ele><time>2026-04-26T17:35:46.859Z</time></trkpt><trkpt lat="44.9684273" lon="11.798361"><ele>2.4000000000000004</ele><time>2026-04-26T17:35:47.86Z</time></trkpt><trkpt lat="44.9683817" lon="11.7982315"><ele>2.5999999999999996</ele><time>2026-04-26T17:35:48.859Z</time></trkpt><trkpt lat="44.968339" lon="11.79812"><ele>2.8</ele><time>2026-04-26T17:35:49.859Z</time></trkpt><trkpt lat="44.9682943" lon="11.7980195"><ele>3.0</ele><time>2026-04-26T17:35:50.859Z</time></trkpt><trkpt lat="44.9682598" lon="11.7979291"><ele>3.0</ele><time>2026-04-26T17:35:51.859Z</time></trkpt><trkpt lat="44.9682273" lon="11.797848"><ele>3.0</ele><time>2026-04-26T17:35:52.859Z</time></trkpt><trkpt lat="44.9681647" lon="11.7976939"><ele>3.0</ele><time>2026-04-26T17:35:54.86Z</time></trkpt><trkpt lat="44.9681089" lon="11.7975413"><ele>3.0</ele><time>2026-04-26T17:35:56.86Z</time></trkpt><trkpt lat="44.9680514" lon="11.7974"><ele>3.0</ele><time>2026-04-26T17:35:58.86Z</time></trkpt><trkpt lat="44.9679903" lon="11.7972501"><ele>3.0</ele><time>2026-04-26T17:36:00.86Z</time></trkpt><trkpt lat="44.9679443" lon="11.7971104"><ele>3.0</ele><time>2026-04-26T17:36:02.859Z</time></trkpt><trkpt lat="44.9679059" lon="11.7970089"><ele>3.0</ele><time>2026-04-26T17:36:04.859Z</time></trkpt><trkpt lat="44.9678658" lon="11.7969079"><ele>3.0</ele><time>2026-04-26T17:36:07.859Z</time></trkpt><trkpt lat="44.9678016" lon="11.796815"><ele>3.0</ele><time>2026-04-26T17:36:35.86Z</time></trkpt><trkpt lat="44.9677648" lon="11.7967197"><ele>3.0</ele><time>2026-04-26T17:36:36.86Z</time></trkpt><trkpt lat="44.9677118" lon="11.7966004"><ele>3.0</ele><time>2026-04-26T17:36:37.859Z</time></trkpt><trkpt lat="44.9676534" lon="11.7964747"><ele>3.0</ele><time>2026-04-26T17:36:38.86Z</time></trkpt><trkpt lat="44.9675998" lon="11.7963239"><ele>3.0</ele><time>2026-04-26T17:36:39.859Z</time></trkpt><trkpt lat="44.9675423" lon="11.796163"><ele>3.0</ele><time>2026-04-26T17:36:40.86Z</time></trkpt><trkpt lat="44.9674691" lon="11.7960035"><ele>2.75</ele><time>2026-04-26T17:36:41.86Z</time></trkpt><trkpt lat="44.9673825" lon="11.795837"><ele>2.5</ele><time>2026-04-26T17:36:42.86Z</time></trkpt><trkpt lat="44.9672925" lon="11.7956688"><ele>2.25</ele><time>2026-04-26T17:36:43.86Z</time></trkpt><trkpt lat="44.9671928" lon="11.7955028"><ele>2.0</ele><time>2026-04-26T17:36:44.86Z</time></trkpt><trkpt lat="44.9670807" lon="11.7953364"><ele>2.333333333333333</ele><time>2026-04-26T17:36:45.86Z</time></trkpt><trkpt lat="44.9669501" lon="11.7951517"><ele>2.6666666666666665</ele><time>2026-04-26T17:36:46.859Z</time></trkpt><trkpt lat="44.9667809" lon="11.7949435"><ele>3.0</ele><time>2026-04-26T17:36:47.859Z</time></trkpt><trkpt lat="44.9665915" lon="11.7947351"><ele>2.5</ele><time>2026-04-26T17:36:48.859Z</time></trkpt><trkpt lat="44.9663932" lon="11.7945143"><ele>2.0</ele><time>2026-04-26T17:36:49.86Z</time></trkpt><trkpt lat="44.9661959" lon="11.7942969"><ele>2.0</ele><time>2026-04-26T17:36:50.86Z</time></trkpt><trkpt lat="44.9660048" lon="11.7940813"><ele>2.0</ele><time>2026-04-26T17:36:51.859Z</time></trkpt><trkpt lat="44.9658229" lon="11.7938677"><ele>2.0</ele><time>2026-04-26T17:36:52.86Z</time></trkpt><trkpt lat="44.9656475" lon="11.7936636"><ele>2.0</ele><time>2026-04-26T17:36:53.859Z</time></trkpt><trkpt lat="44.9654782" lon="11.7934596"><ele>2.0</ele><time>2026-04-26T17:36:54.86Z</time></trkpt><trkpt lat="44.9653152" lon="11.7932664"><ele>2.0</ele><time>2026-04-26T17:36:55.86Z</time></trkpt><trkpt lat="44.9651536" lon="11.7930787"><ele>2.0</ele><time>2026-04-26T17:36:56.859Z</time></trkpt><trkpt lat="44.9650053" lon="11.7928949"><ele>2.0</ele><time>2026-04-26T17:36:57.859Z</time></trkpt><trkpt lat="44.9648537" lon="11.7927233"><ele>2.0</ele><time>2026-04-26T17:36:58.859Z</time></trkpt><trkpt lat="44.9647032" lon="11.7925496"><ele>2.0</ele><time>2026-04-26T17:36:59.859Z</time></trkpt><trkpt lat="44.964553" lon="11.7923677"><ele>2.333333333333333</ele><time>2026-04-26T17:37:00.859Z</time></trkpt><trkpt lat="44.9643991" lon="11.7921916"><ele>2.6666666666666665</ele><time>2026-04-26T17:37:01.86Z</time></trkpt><trkpt lat="44.9642418" lon="11.792004"><ele>3.0</ele><time>2026-04-26T17:37:02.859Z</time></trkpt><trkpt lat="44.9640759" lon="11.7918081"><ele>3.0</ele><time>2026-04-26T17:37:03.86Z</time></trkpt><trkpt lat="44.9639038" lon="11.7916049"><ele>3.0</ele><time>2026-04-26T17:37:04.859Z</time></trkpt><trkpt lat="44.9637204" lon="11.7913887"><ele>3.0</ele><time>2026-04-26T17:37:05.86Z</time></trkpt><trkpt lat="44.9635337" lon="11.7911738"><ele>3.0</ele><time>2026-04-26T17:37:06.86Z</time></trkpt><trkpt lat="44.963359" lon="11.7909674"><ele>2.6666666666666665</ele><time>2026-04-26T17:37:07.86Z</time></trkpt><trkpt lat="44.9631916" lon="11.790771"><ele>2.333333333333333</ele><time>2026-04-26T17:37:08.859Z</time></trkpt><trkpt lat="44.9630353" lon="11.7905883"><ele>2.0</ele><time>2026-04-26T17:37:09.859Z</time></trkpt><trkpt lat="44.9628858" lon="11.7904105"><ele>2.0</ele><time>2026-04-26T17:37:10.859Z</time></trkpt><trkpt lat="44.9627398" lon="11.7902446"><ele>2.0</ele><time>2026-04-26T17:37:11.86Z</time></trkpt><trkpt lat="44.9625969" lon="11.7900826"><ele>2.0</ele><time>2026-04-26T17:37:12.86Z</time></trkpt><trkpt lat="44.9624583" lon="11.7899158"><ele>1.6666666666666665</ele><time>2026-04-26T17:37:13.859Z</time></trkpt><trkpt lat="44.9623181" lon="11.789745"><ele>1.3333333333333333</ele><time>2026-04-26T17:37:14.859Z</time></trkpt><trkpt lat="44.962176" lon="11.7895705"><ele>1.0</ele><time>2026-04-26T17:37:15.859Z</time></trkpt><trkpt lat="44.9620316" lon="11.7893913"><ele>1.3333333333333333</ele><time>2026-04-26T17:37:16.859Z</time></trkpt><trkpt lat="44.9618948" lon="11.7891978"><ele>1.6666666666666665</ele><time>2026-04-26T17:37:17.859Z</time></trkpt><trkpt lat="44.9617628" lon="11.7889909"><ele>2.0</ele><time>2026-04-26T17:37:18.859Z</time></trkpt><trkpt lat="44.9616332" lon="11.7887713"><ele>2.0</ele><time>2026-04-26T17:37:19.859Z</time></trkpt><trkpt lat="44.9615034" lon="11.7885407"><ele>2.0</ele><time>2026-04-26T17:37:20.859Z</time></trkpt><trkpt lat="44.9613788" lon="11.7883007"><ele>2.0</ele><time>2026-04-26T17:37:21.86Z</time></trkpt><trkpt lat="44.9612559" lon="11.7880475"><ele>3.0</ele><time>2026-04-26T17:37:22.86Z</time></trkpt><trkpt lat="44.9611353" lon="11.7877976"><ele>4.0</ele><time>2026-04-26T17:37:23.86Z</time></trkpt><trkpt lat="44.9610122" lon="11.7875377"><ele>5.0</ele><time>2026-04-26T17:37:24.859Z</time></trkpt><trkpt lat="44.9608875" lon="11.7872761"><ele>4.0</ele><time>2026-04-26T17:37:25.859Z</time></trkpt><trkpt lat="44.9607591" lon="11.7870111"><ele>3.0</ele><time>2026-04-26T17:37:26.859Z</time></trkpt><trkpt lat="44.960626" lon="11.786745"><ele>3.0</ele><time>2026-04-26T17:37:27.86Z</time></trkpt><trkpt lat="44.9604976" lon="11.7864794"><ele>3.0</ele><time>2026-04-26T17:37:28.86Z</time></trkpt><trkpt lat="44.9603699" lon="11.7862205"><ele>3.0</ele><time>2026-04-26T17:37:29.86Z</time></trkpt><trkpt lat="44.9602469" lon="11.7859666"><ele>3.0</ele><time>2026-04-26T17:37:30.859Z</time></trkpt><trkpt lat="44.9601316" lon="11.7857198"><ele>3.0</ele><time>2026-04-26T17:37:31.859Z</time></trkpt><trkpt lat="44.960018" lon="11.7854672"><ele>3.0</ele><time>2026-04-26T17:37:32.859Z</time></trkpt><trkpt lat="44.9599154" lon="11.7852042"><ele>3.0</ele><time>2026-04-26T17:37:33.859Z</time></trkpt><trkpt lat="44.9598272" lon="11.7849398"><ele>3.0</ele><time>2026-04-26T17:37:34.86Z</time></trkpt><trkpt lat="44.9597465" lon="11.784662"><ele>3.666666666666667</ele><time>2026-04-26T17:37:35.859Z</time></trkpt><trkpt lat="44.9596703" lon="11.784382"><ele>4.333333333333334</ele><time>2026-04-26T17:37:36.86Z</time></trkpt><trkpt lat="44.9596027" lon="11.7840983"><ele>5.0</ele><time>2026-04-26T17:37:37.859Z</time></trkpt><trkpt lat="44.9595386" lon="11.7838208"><ele>5.666666666666667</ele><time>2026-04-26T17:37:38.86Z</time></trkpt><trkpt lat="44.9594741" lon="11.7835417"><ele>6.333333333333334</ele><time>2026-04-26T17:37:39.859Z</time></trkpt><trkpt lat="44.959407" lon="11.7832609"><ele>7.0</ele><time>2026-04-26T17:37:40.859Z</time></trkpt><trkpt lat="44.9593434" lon="11.7829866"><ele>7.0</ele><time>2026-04-26T17:37:41.859Z</time></trkpt><trkpt lat="44.9592792" lon="11.7827132"><ele>7.0</ele><time>2026-04-26T17:37:42.86Z</time></trkpt><trkpt lat="44.959217" lon="11.7824474"><ele>7.0</ele><time>2026-04-26T17:37:43.859Z</time></trkpt><trkpt lat="44.9591523" lon="11.7821814"><ele>5.666666666666667</ele><time>2026-04-26T17:37:44.86Z</time></trkpt><trkpt lat="44.9590825" lon="11.7819253"><ele>4.333333333333334</ele><time>2026-04-26T17:37:45.86Z</time></trkpt><trkpt lat="44.9590056" lon="11.7816712"><ele>3.0</ele><time>2026-04-26T17:37:46.859Z</time></trkpt><trkpt lat="44.9589185" lon="11.7814256"><ele>3.0</ele><time>2026-04-26T17:37:47.86Z</time></trkpt><trkpt lat="44.958824" lon="11.781182"><ele>3.0</ele><time>2026-04-26T17:37:48.859Z</time></trkpt><trkpt lat="44.9587202" lon="11.7809395"><ele>3.0</ele><time>2026-04-26T17:37:49.859Z</time></trkpt><trkpt lat="44.958611" lon="11.7807047"><ele>3.333333333333333</ele><time>2026-04-26T17:37:50.86Z</time></trkpt><trkpt lat="44.9584934" lon="11.7804686"><ele>3.6666666666666665</ele><time>2026-04-26T17:37:51.859Z</time></trkpt><trkpt lat="44.9583714" lon="11.7802385"><ele>4.0</ele><time>2026-04-26T17:37:52.859Z</time></trkpt><trkpt lat="44.9582452" lon="11.7800096"><ele>3.0</ele><time>2026-04-26T17:37:53.86Z</time></trkpt><trkpt lat="44.9581185" lon="11.7797794"><ele>2.0</ele><time>2026-04-26T17:37:54.86Z</time></trkpt><trkpt lat="44.9579947" lon="11.7795456"><ele>1.0</ele><time>2026-04-26T17:37:55.86Z</time></trkpt><trkpt lat="44.9578694" lon="11.7793112"><ele>1.0</ele><time>2026-04-26T17:37:56.86Z</time></trkpt><trkpt lat="44.9577437" lon="11.7790767"><ele>1.0</ele><time>2026-04-26T17:37:57.859Z</time></trkpt><trkpt lat="44.9576206" lon="11.7788383"><ele>1.0</ele><time>2026-04-26T17:37:58.86Z</time></trkpt><trkpt lat="44.9574942" lon="11.778594"><ele>0.6666666666666666</ele><time>2026-04-26T17:37:59.86Z</time></trkpt><trkpt lat="44.9573657" lon="11.7783571"><ele>0.3333333333333333</ele><time>2026-04-26T17:38:00.859Z</time></trkpt><trkpt lat="44.9572342" lon="11.7781208"><ele>0.0</ele><time>2026-04-26T17:38:01.86Z</time></trkpt><trkpt lat="44.957102" lon="11.7778816"><ele>0.3333333333333333</ele><time>2026-04-26T17:38:02.86Z</time></trkpt><trkpt lat="44.9569693" lon="11.7776489"><ele>0.6666666666666666</ele><time>2026-04-26T17:38:03.859Z</time></trkpt><trkpt lat="44.9568386" lon="11.7774149"><ele>1.0</ele><time>2026-04-26T17:38:04.86Z</time></trkpt><trkpt lat="44.9567137" lon="11.7771814"><ele>1.0</ele><time>2026-04-26T17:38:05.859Z</time></trkpt><trkpt lat="44.9565862" lon="11.7769494"><ele>1.0</ele><time>2026-04-26T17:38:06.859Z</time></trkpt><trkpt lat="44.9564631" lon="11.7767165"><ele>1.0</ele><time>2026-04-26T17:38:07.859Z</time></trkpt><trkpt lat="44.9563463" lon="11.77648"><ele>1.0</ele><time>2026-04-26T17:38:08.86Z</time></trkpt><trkpt lat="44.9562278" lon="11.7762423"><ele>1.0</ele><time>2026-04-26T17:38:09.86Z</time></trkpt><trkpt lat="44.9561067" lon="11.7760106"><ele>1.0</ele><time>2026-04-26T17:38:10.859Z</time></trkpt><trkpt lat="44.9559827" lon="11.7757771"><ele>1.3333333333333333</ele><time>2026-04-26T17:38:11.86Z</time></trkpt><trkpt lat="44.9558578" lon="11.7755435"><ele>1.6666666666666665</ele><time>2026-04-26T17:38:12.859Z</time></trkpt><trkpt lat="44.9557349" lon="11.7753043"><ele>2.0</ele><time>2026-04-26T17:38:13.86Z</time></trkpt><trkpt lat="44.9556131" lon="11.7750624"><ele>2.0</ele><time>2026-04-26T17:38:14.859Z</time></trkpt><trkpt lat="44.9554911" lon="11.7748136"><ele>2.0</ele><time>2026-04-26T17:38:15.859Z</time></trkpt><trkpt lat="44.9553708" lon="11.7745683"><ele>2.0</ele><time>2026-04-26T17:38:16.86Z</time></trkpt><trkpt lat="44.9552514" lon="11.7743193"><ele>2.0</ele><time>2026-04-26T17:38:17.859Z</time></trkpt><trkpt lat="44.9551289" lon="11.7740749"><ele>2.0</ele><time>2026-04-26T17:38:18.859Z</time></trkpt><trkpt lat="44.9550069" lon="11.7738285"><ele>2.0</ele><time>2026-04-26T17:38:19.859Z</time></trkpt><trkpt lat="44.9548896" lon="11.7735871"><ele>2.333333333333333</ele><time>2026-04-26T17:38:20.86Z</time></trkpt><trkpt lat="44.9547722" lon="11.7733397"><ele>2.6666666666666665</ele><time>2026-04-26T17:38:21.859Z</time></trkpt><trkpt lat="44.9546541" lon="11.7730953"><ele>3.0</ele><time>2026-04-26T17:38:22.859Z</time></trkpt><trkpt lat="44.9545367" lon="11.7728506"><ele>3.0</ele><time>2026-04-26T17:38:23.86Z</time></trkpt><trkpt lat="44.9544177" lon="11.7726014"><ele>3.0</ele><time>2026-04-26T17:38:24.86Z</time></trkpt><trkpt lat="44.9542963" lon="11.7723534"><ele>3.0</ele><time>2026-04-26T17:38:25.859Z</time></trkpt><trkpt lat="44.9541777" lon="11.7721045"><ele>2.6666666666666665</ele><time>2026-04-26T17:38:26.859Z</time></trkpt><trkpt lat="44.9540549" lon="11.7718552"><ele>2.333333333333333</ele><time>2026-04-26T17:38:27.86Z</time></trkpt><trkpt lat="44.9539353" lon="11.771608"><ele>2.0</ele><time>2026-04-26T17:38:28.859Z</time></trkpt><trkpt lat="44.9538172" lon="11.7713695"><ele>2.0</ele><time>2026-04-26T17:38:29.859Z</time></trkpt><trkpt lat="44.9537018" lon="11.7711326"><ele>2.0</ele><time>2026-04-26T17:38:30.859Z</time></trkpt><trkpt lat="44.9535944" lon="11.7709032"><ele>2.0</ele><time>2026-04-26T17:38:31.86Z</time></trkpt><trkpt lat="44.9535035" lon="11.7706773"><ele>2.0</ele><time>2026-04-26T17:38:32.859Z</time></trkpt><trkpt lat="44.9534305" lon="11.7704452"><ele>2.0</ele><time>2026-04-26T17:38:33.859Z</time></trkpt><trkpt lat="44.9533661" lon="11.7702084"><ele>2.0</ele><time>2026-04-26T17:38:34.859Z</time></trkpt><trkpt lat="44.9533092" lon="11.769967"><ele>2.0</ele><time>2026-04-26T17:38:35.859Z</time></trkpt><trkpt lat="44.9532518" lon="11.7697248"><ele>2.0</ele><time>2026-04-26T17:38:36.86Z</time></trkpt><trkpt lat="44.9531952" lon="11.7694835"><ele>2.0</ele><time>2026-04-26T17:38:37.86Z</time></trkpt><trkpt lat="44.9531383" lon="11.7692394"><ele>2.0</ele><time>2026-04-26T17:38:38.86Z</time></trkpt><trkpt lat="44.9530796" lon="11.768997"><ele>2.0</ele><time>2026-04-26T17:38:39.86Z</time></trkpt><trkpt lat="44.9530233" lon="11.7687538"><ele>2.0</ele><time>2026-04-26T17:38:40.86Z</time></trkpt><trkpt lat="44.9529654" lon="11.7685108"><ele>2.333333333333333</ele><time>2026-04-26T17:38:41.86Z</time></trkpt><trkpt lat="44.9529077" lon="11.7682697"><ele>2.6666666666666665</ele><time>2026-04-26T17:38:42.86Z</time></trkpt><trkpt lat="44.9528494" lon="11.7680286"><ele>3.0</ele><time>2026-04-26T17:38:43.86Z</time></trkpt><trkpt lat="44.9527892" lon="11.7677896"><ele>2.6666666666666665</ele><time>2026-04-26T17:38:44.86Z</time></trkpt><trkpt lat="44.9527214" lon="11.7675547"><ele>2.333333333333333</ele><time>2026-04-26T17:38:45.859Z</time></trkpt><trkpt lat="44.9526435" lon="11.7673332"><ele>2.0</ele><time>2026-04-26T17:38:46.859Z</time></trkpt><trkpt lat="44.9525539" lon="11.7671151"><ele>2.333333333333333</ele><time>2026-04-26T17:38:47.86Z</time></trkpt><trkpt lat="44.9524543" lon="11.7669127"><ele>2.6666666666666665</ele><time>2026-04-26T17:38:48.859Z</time></trkpt><trkpt lat="44.9523371" lon="11.7667206"><ele>3.0</ele><time>2026-04-26T17:38:49.86Z</time></trkpt><trkpt lat="44.9522017" lon="11.7665404"><ele>3.0</ele><time>2026-04-26T17:38:50.859Z</time></trkpt><trkpt lat="44.952053" lon="11.7663701"><ele>3.0</ele><time>2026-04-26T17:38:51.86Z</time></trkpt><trkpt lat="44.9518939" lon="11.766206"><ele>3.0</ele><time>2026-04-26T17:38:52.86Z</time></trkpt><trkpt lat="44.9517368" lon="11.7660423"><ele>3.0</ele><time>2026-04-26T17:38:53.86Z</time></trkpt><trkpt lat="44.9515727" lon="11.7658724"><ele>3.0</ele><time>2026-04-26T17:38:54.86Z</time></trkpt><trkpt lat="44.9514095" lon="11.7657057"><ele>3.0</ele><time>2026-04-26T17:38:55.86Z</time></trkpt><trkpt lat="44.9512501" lon="11.7655159"><ele>3.0</ele><time>2026-04-26T17:38:56.859Z</time></trkpt><trkpt lat="44.9511011" lon="11.7653114"><ele>3.0</ele><time>2026-04-26T17:38:57.86Z</time></trkpt><trkpt lat="44.9509585" lon="11.7651017"><ele>3.0</ele><time>2026-04-26T17:38:58.859Z</time></trkpt><trkpt lat="44.9508352" lon="11.7648914"><ele>3.0</ele><time>2026-04-26T17:38:59.859Z</time></trkpt><trkpt lat="44.9507186" lon="11.7646865"><ele>3.0</ele><time>2026-04-26T17:39:00.859Z</time></trkpt><trkpt lat="44.9506143" lon="11.7644861"><ele>3.0</ele><time>2026-04-26T17:39:01.859Z</time></trkpt><trkpt lat="44.9505164" lon="11.7642927"><ele>2.6666666666666665</ele><time>2026-04-26T17:39:02.86Z</time></trkpt><trkpt lat="44.9504278" lon="11.7640965"><ele>2.333333333333333</ele><time>2026-04-26T17:39:03.859Z</time></trkpt><trkpt lat="44.9503442" lon="11.7639088"><ele>2.0</ele><time>2026-04-26T17:39:04.86Z</time></trkpt><trkpt lat="44.9502669" lon="11.7637213"><ele>2.0</ele><time>2026-04-26T17:39:05.859Z</time></trkpt><trkpt lat="44.9501984" lon="11.7635239"><ele>2.0</ele><time>2026-04-26T17:39:06.86Z</time></trkpt><trkpt lat="44.9501463" lon="11.7633207"><ele>2.0</ele><time>2026-04-26T17:39:07.859Z</time></trkpt><trkpt lat="44.9501049" lon="11.7631128"><ele>2.0</ele><time>2026-04-26T17:39:08.86Z</time></trkpt><trkpt lat="44.9500753" lon="11.7628974"><ele>2.0</ele><time>2026-04-26T17:39:09.86Z</time></trkpt><trkpt lat="44.9500535" lon="11.7626838"><ele>2.0</ele><time>2026-04-26T17:39:10.86Z</time></trkpt><trkpt lat="44.9500426" lon="11.7624607"><ele>2.25</ele><time>2026-04-26T17:39:11.86Z</time></trkpt><trkpt lat="44.9500376" lon="11.7622815"><ele>2.5</ele><time>2026-04-26T17:39:12.859Z</time></trkpt><trkpt lat="44.9500345" lon="11.7620977"><ele>2.75</ele><time>2026-04-26T17:39:13.86Z</time></trkpt><trkpt lat="44.9500297" lon="11.761926"><ele>3.0</ele><time>2026-04-26T17:39:14.859Z</time></trkpt><trkpt lat="44.9500294" lon="11.7617697"><ele>3.2</ele><time>2026-04-26T17:39:15.859Z</time></trkpt><trkpt lat="44.9500332" lon="11.7616203"><ele>3.4</ele><time>2026-04-26T17:39:16.859Z</time></trkpt><trkpt lat="44.9500364" lon="11.7614911"><ele>3.6000000000000005</ele><time>2026-04-26T17:39:17.859Z</time></trkpt><trkpt lat="44.9500444" lon="11.7613944"><ele>3.8000000000000003</ele><time>2026-04-26T17:39:18.86Z</time></trkpt><trkpt lat="44.9500853" lon="11.7612674"><ele>4.0</ele><time>2026-04-26T17:39:20.859Z</time></trkpt><trkpt lat="44.9501809" lon="11.7612439"><ele>4.0</ele><time>2026-04-26T17:39:22.859Z</time></trkpt><trkpt lat="44.9502571" lon="11.7612576"><ele>4.0</ele><time>2026-04-26T17:39:23.859Z</time></trkpt><trkpt lat="44.9503593" lon="11.7612616"><ele>4.0</ele><time>2026-04-26T17:39:24.859Z</time></trkpt><trkpt lat="44.9504757" lon="11.7612539"><ele>4.0</ele><time>2026-04-26T17:39:25.859Z</time></trkpt><trkpt lat="44.950597" lon="11.7612069"><ele>4.0</ele><time>2026-04-26T17:39:26.859Z</time></trkpt><trkpt lat="44.950716" lon="11.7611407"><ele>4.0</ele><time>2026-04-26T17:39:27.859Z</time></trkpt><trkpt lat="44.9508387" lon="11.7610099"><ele>4.0</ele><time>2026-04-26T17:39:28.86Z</time></trkpt><trkpt lat="44.9509491" lon="11.7608598"><ele>4.0</ele><time>2026-04-26T17:39:29.86Z</time></trkpt><trkpt lat="44.9510716" lon="11.7607088"><ele>3.6666666666666665</ele><time>2026-04-26T17:39:30.86Z</time></trkpt><trkpt lat="44.951196" lon="11.760556"><ele>3.333333333333333</ele><time>2026-04-26T17:39:31.859Z</time></trkpt><trkpt lat="44.951319" lon="11.7603954"><ele>3.0</ele><time>2026-04-26T17:39:32.859Z</time></trkpt><trkpt lat="44.9514445" lon="11.760227"><ele>3.0</ele><time>2026-04-26T17:39:33.859Z</time></trkpt><trkpt lat="44.9515851" lon="11.7600655"><ele>3.0</ele><time>2026-04-26T17:39:34.859Z</time></trkpt><trkpt lat="44.9517443" lon="11.7599117"><ele>3.0</ele><time>2026-04-26T17:39:35.859Z</time></trkpt><trkpt lat="44.9519073" lon="11.7597781"><ele>3.333333333333333</ele><time>2026-04-26T17:39:36.86Z</time></trkpt><trkpt lat="44.9520637" lon="11.7596529"><ele>3.6666666666666665</ele><time>2026-04-26T17:39:37.86Z</time></trkpt><trkpt lat="44.9522063" lon="11.7595326"><ele>4.0</ele><time>2026-04-26T17:39:38.859Z</time></trkpt><trkpt lat="44.9523297" lon="11.7594027"><ele>3.6666666666666665</ele><time>2026-04-26T17:39:39.859Z</time></trkpt><trkpt lat="44.9524406" lon="11.7592605"><ele>3.333333333333333</ele><time>2026-04-26T17:39:40.86Z</time></trkpt><trkpt lat="44.9525475" lon="11.7591085"><ele>3.0</ele><time>2026-04-26T17:39:41.86Z</time></trkpt><trkpt lat="44.9526526" lon="11.758947"><ele>3.0</ele><time>2026-04-26T17:39:42.859Z</time></trkpt><trkpt lat="44.9527574" lon="11.7587778"><ele>3.0</ele><time>2026-04-26T17:39:43.86Z</time></trkpt><trkpt lat="44.9528539" lon="11.7586062"><ele>3.0</ele><time>2026-04-26T17:39:44.86Z</time></trkpt><trkpt lat="44.9529396" lon="11.7584042"><ele>3.666666666666667</ele><time>2026-04-26T17:39:45.859Z</time></trkpt><trkpt lat="44.9530167" lon="11.7581946"><ele>4.333333333333334</ele><time>2026-04-26T17:39:46.859Z</time></trkpt><trkpt lat="44.9530899" lon="11.7579808"><ele>5.0</ele><time>2026-04-26T17:39:47.86Z</time></trkpt><trkpt lat="44.9531497" lon="11.7577424"><ele>5.0</ele><time>2026-04-26T17:39:48.86Z</time></trkpt><trkpt lat="44.9532134" lon="11.7575172"><ele>5.0</ele><time>2026-04-26T17:39:49.86Z</time></trkpt><trkpt lat="44.9532789" lon="11.7572906"><ele>5.0</ele><time>2026-04-26T17:39:50.859Z</time></trkpt><trkpt lat="44.9533395" lon="11.7570907"><ele>5.0</ele><time>2026-04-26T17:39:51.86Z</time></trkpt><trkpt lat="44.9533863" lon="11.7569231"><ele>5.0</ele><time>2026-04-26T17:39:52.859Z</time></trkpt><trkpt lat="44.9534177" lon="11.7567981"><ele>5.0</ele><time>2026-04-26T17:39:53.859Z</time></trkpt><trkpt lat="44.9534426" lon="11.7567066"><ele>5.0</ele><time>2026-04-26T17:39:54.86Z</time></trkpt><trkpt lat="44.953486" lon="11.7565941"><ele>5.0</ele><time>2026-04-26T17:39:56.859Z</time></trkpt><trkpt lat="44.9535378" lon="11.7565162"><ele>5.0</ele><time>2026-04-26T17:39:59.859Z</time></trkpt><trkpt lat="44.9536076" lon="11.7564654"><ele>5.0</ele><time>2026-04-26T17:40:01.86Z</time></trkpt><trkpt lat="44.9536856" lon="11.7564592"><ele>5.0</ele><time>2026-04-26T17:40:02.86Z</time></trkpt><trkpt lat="44.9537827" lon="11.7564561"><ele>5.0</ele><time>2026-04-26T17:40:03.859Z</time></trkpt><trkpt lat="44.9539502" lon="11.7564556"><ele>5.0</ele><time>2026-04-26T17:40:04.859Z</time></trkpt><trkpt lat="44.9541158" lon="11.7564365"><ele>4.333333333333334</ele><time>2026-04-26T17:40:05.859Z</time></trkpt><trkpt lat="44.9542954" lon="11.7564168"><ele>3.666666666666667</ele><time>2026-04-26T17:40:06.86Z</time></trkpt><trkpt lat="44.954515" lon="11.7564237"><ele>3.0</ele><time>2026-04-26T17:40:07.86Z</time></trkpt><trkpt lat="44.9547441" lon="11.7564194"><ele>3.0</ele><time>2026-04-26T17:40:08.86Z</time></trkpt><trkpt lat="44.9549628" lon="11.7564123"><ele>3.0</ele><time>2026-04-26T17:40:09.859Z</time></trkpt><trkpt lat="44.9551826" lon="11.7564054"><ele>3.0</ele><time>2026-04-26T17:40:10.86Z</time></trkpt><trkpt lat="44.9553902" lon="11.7563988"><ele>4.0</ele><time>2026-04-26T17:40:11.859Z</time></trkpt><trkpt lat="44.9555959" lon="11.7563934"><ele>5.0</ele><time>2026-04-26T17:40:12.859Z</time></trkpt><trkpt lat="44.9557958" lon="11.7563864"><ele>6.0</ele><time>2026-04-26T17:40:13.859Z</time></trkpt><trkpt lat="44.9559919" lon="11.7563813"><ele>7.0</ele><time>2026-04-26T17:40:14.859Z</time></trkpt><trkpt lat="44.95619" lon="11.756371"><ele>8.0</ele><time>2026-04-26T17:40:15.859Z</time></trkpt><trkpt lat="44.9563865" lon="11.7563589"><ele>9.0</ele><time>2026-04-26T17:40:16.86Z</time></trkpt><trkpt lat="44.9565792" lon="11.7563516"><ele>9.0</ele><time>2026-04-26T17:40:17.86Z</time></trkpt><trkpt lat="44.9567697" lon="11.7563414"><ele>9.0</ele><time>2026-04-26T17:40:18.859Z</time></trkpt><trkpt lat="44.9569563" lon="11.7563364"><ele>9.0</ele><time>2026-04-26T17:40:19.86Z</time></trkpt><trkpt lat="44.9571388" lon="11.7563296"><ele>9.0</ele><time>2026-04-26T17:40:20.859Z</time></trkpt><trkpt lat="44.9573205" lon="11.7563201"><ele>9.0</ele><time>2026-04-26T17:40:21.859Z</time></trkpt><trkpt lat="44.9574982" lon="11.7563101"><ele>9.0</ele><time>2026-04-26T17:40:22.86Z</time></trkpt><trkpt lat="44.9576761" lon="11.7562978"><ele>7.0</ele><time>2026-04-26T17:40:23.86Z</time></trkpt><trkpt lat="44.957853" lon="11.7562928"><ele>5.0</ele><time>2026-04-26T17:40:24.859Z</time></trkpt><trkpt lat="44.9580277" lon="11.7562855"><ele>3.0</ele><time>2026-04-26T17:40:25.86Z</time></trkpt><trkpt lat="44.958204" lon="11.7562783"><ele>2.3333333333333335</ele><time>2026-04-26T17:40:26.859Z</time></trkpt><trkpt lat="44.9583777" lon="11.7562727"><ele>1.6666666666666665</ele><time>2026-04-26T17:40:27.86Z</time></trkpt><trkpt lat="44.9585479" lon="11.7562681"><ele>1.0</ele><time>2026-04-26T17:40:28.86Z</time></trkpt><trkpt lat="44.9587188" lon="11.7562637"><ele>1.0</ele><time>2026-04-26T17:40:29.86Z</time></trkpt><trkpt lat="44.958891" lon="11.7562543"><ele>1.0</ele><time>2026-04-26T17:40:30.86Z</time></trkpt><trkpt lat="44.9590597" lon="11.7562508"><ele>1.0</ele><time>2026-04-26T17:40:31.859Z</time></trkpt><trkpt lat="44.9592287" lon="11.756241"><ele>1.0</ele><time>2026-04-26T17:40:32.859Z</time></trkpt><trkpt lat="44.9594005" lon="11.7562354"><ele>1.0</ele><time>2026-04-26T17:40:33.859Z</time></trkpt><trkpt lat="44.9595733" lon="11.7562258"><ele>1.0</ele><time>2026-04-26T17:40:34.859Z</time></trkpt><trkpt lat="44.9597498" lon="11.7562223"><ele>1.0</ele><time>2026-04-26T17:40:35.859Z</time></trkpt><trkpt lat="44.9599259" lon="11.7562161"><ele>1.0</ele><time>2026-04-26T17:40:36.86Z</time></trkpt><trkpt lat="44.9600981" lon="11.756208"><ele>1.0</ele><time>2026-04-26T17:40:37.86Z</time></trkpt><trkpt lat="44.9602743" lon="11.7562012"><ele>2.0</ele><time>2026-04-26T17:40:38.86Z</time></trkpt><trkpt lat="44.9604497" lon="11.7561944"><ele>3.0</ele><time>2026-04-26T17:40:39.86Z</time></trkpt><trkpt lat="44.9606211" lon="11.7561832"><ele>4.0</ele><time>2026-04-26T17:40:40.859Z</time></trkpt><trkpt lat="44.9607956" lon="11.7561739"><ele>5.333333333333333</ele><time>2026-04-26T17:40:41.859Z</time></trkpt><trkpt lat="44.9609744" lon="11.7561693"><ele>6.666666666666666</ele><time>2026-04-26T17:40:42.86Z</time></trkpt><trkpt lat="44.9611494" lon="11.7561633"><ele>8.0</ele><time>2026-04-26T17:40:43.859Z</time></trkpt><trkpt lat="44.9613274" lon="11.7561569"><ele>8.0</ele><time>2026-04-26T17:40:44.859Z</time></trkpt><trkpt lat="44.9614997" lon="11.7561506"><ele>8.0</ele><time>2026-04-26T17:40:45.859Z</time></trkpt><trkpt lat="44.9616722" lon="11.7561395"><ele>8.0</ele><time>2026-04-26T17:40:46.859Z</time></trkpt><trkpt lat="44.9618471" lon="11.7561252"><ele>7.666666666666666</ele><time>2026-04-26T17:40:47.86Z</time></trkpt><trkpt lat="44.962015" lon="11.7561216"><ele>7.333333333333334</ele><time>2026-04-26T17:40:48.86Z</time></trkpt><trkpt lat="44.9621768" lon="11.7561183"><ele>7.0</ele><time>2026-04-26T17:40:49.859Z</time></trkpt><trkpt lat="44.9623349" lon="11.7561137"><ele>7.0</ele><time>2026-04-26T17:40:50.859Z</time></trkpt><trkpt lat="44.962487" lon="11.7561049"><ele>7.0</ele><time>2026-04-26T17:40:51.859Z</time></trkpt><trkpt lat="44.9626378" lon="11.7560942"><ele>7.0</ele><time>2026-04-26T17:40:52.859Z</time></trkpt><trkpt lat="44.9627916" lon="11.7560783"><ele>6.666666666666667</ele><time>2026-04-26T17:40:53.86Z</time></trkpt><trkpt lat="44.9629494" lon="11.7560649"><ele>6.333333333333334</ele><time>2026-04-26T17:40:54.859Z</time></trkpt><trkpt lat="44.9631099" lon="11.7560578"><ele>6.0</ele><time>2026-04-26T17:40:55.859Z</time></trkpt><trkpt lat="44.9632723" lon="11.7560522"><ele>5.0</ele><time>2026-04-26T17:40:56.86Z</time></trkpt><trkpt lat="44.9634392" lon="11.7560511"><ele>4.0</ele><time>2026-04-26T17:40:57.86Z</time></trkpt><trkpt lat="44.9636081" lon="11.7560499"><ele>3.0</ele><time>2026-04-26T17:40:58.86Z</time></trkpt><trkpt lat="44.9637812" lon="11.7560502"><ele>3.0</ele><time>2026-04-26T17:40:59.859Z</time></trkpt><trkpt lat="44.963958" lon="11.7560467"><ele>3.0</ele><time>2026-04-26T17:41:00.86Z</time></trkpt><trkpt lat="44.9641364" lon="11.7560456"><ele>3.0</ele><time>2026-04-26T17:41:01.859Z</time></trkpt><trkpt lat="44.9643203" lon="11.756033"><ele>2.6666666666666665</ele><time>2026-04-26T17:41:02.859Z</time></trkpt><trkpt lat="44.9645062" lon="11.756026"><ele>2.333333333333333</ele><time>2026-04-26T17:41:03.86Z</time></trkpt><trkpt lat="44.9646945" lon="11.7560209"><ele>2.0</ele><time>2026-04-26T17:41:04.86Z</time></trkpt><trkpt lat="44.9648857" lon="11.756016"><ele>2.333333333333333</ele><time>2026-04-26T17:41:05.859Z</time></trkpt><trkpt lat="44.9650811" lon="11.7560082"><ele>2.6666666666666665</ele><time>2026-04-26T17:41:06.859Z</time></trkpt><trkpt lat="44.9652765" lon="11.7559971"><ele>3.0</ele><time>2026-04-26T17:41:07.859Z</time></trkpt><trkpt lat="44.9654715" lon="11.7559888"><ele>3.0</ele><time>2026-04-26T17:41:08.859Z</time></trkpt><trkpt lat="44.965664" lon="11.7559783"><ele>3.0</ele><time>2026-04-26T17:41:09.859Z</time></trkpt><trkpt lat="44.9658595" lon="11.7559713"><ele>3.0</ele><time>2026-04-26T17:41:10.859Z</time></trkpt><trkpt lat="44.9660527" lon="11.7559666"><ele>3.333333333333333</ele><time>2026-04-26T17:41:11.86Z</time></trkpt><trkpt lat="44.966242" lon="11.7559676"><ele>3.6666666666666665</ele><time>2026-04-26T17:41:12.859Z</time></trkpt><trkpt lat="44.9664272" lon="11.7559615"><ele>4.0</ele><time>2026-04-26T17:41:13.86Z</time></trkpt><trkpt lat="44.9666055" lon="11.7559436"><ele>3.6666666666666665</ele><time>2026-04-26T17:41:14.86Z</time></trkpt><trkpt lat="44.9667812" lon="11.7559099"><ele>3.333333333333333</ele><time>2026-04-26T17:41:15.86Z</time></trkpt><trkpt lat="44.9669512" lon="11.7558572"><ele>3.0</ele><time>2026-04-26T17:41:16.859Z</time></trkpt><trkpt lat="44.96712" lon="11.755791"><ele>3.0</ele><time>2026-04-26T17:41:17.859Z</time></trkpt><trkpt lat="44.9672809" lon="11.7556987"><ele>3.0</ele><time>2026-04-26T17:41:18.859Z</time></trkpt><trkpt lat="44.9674451" lon="11.7555926"><ele>3.0</ele><time>2026-04-26T17:41:19.86Z</time></trkpt><trkpt lat="44.9676142" lon="11.7554806"><ele>3.0</ele><time>2026-04-26T17:41:20.859Z</time></trkpt><trkpt lat="44.9677798" lon="11.7553696"><ele>3.0</ele><time>2026-04-26T17:41:21.859Z</time></trkpt><trkpt lat="44.9679488" lon="11.755263"><ele>3.0</ele><time>2026-04-26T17:41:22.859Z</time></trkpt><trkpt lat="44.9681209" lon="11.7551565"><ele>2.6666666666666665</ele><time>2026-04-26T17:41:23.859Z</time></trkpt><trkpt lat="44.9682962" lon="11.7550502"><ele>2.333333333333333</ele><time>2026-04-26T17:41:24.859Z</time></trkpt><trkpt lat="44.9684703" lon="11.7549389"><ele>2.0</ele><time>2026-04-26T17:41:25.859Z</time></trkpt><trkpt lat="44.9686461" lon="11.7548219"><ele>2.6666666666666665</ele><time>2026-04-26T17:41:26.859Z</time></trkpt><trkpt lat="44.9688127" lon="11.7547078"><ele>3.333333333333333</ele><time>2026-04-26T17:41:27.86Z</time></trkpt><trkpt lat="44.9689671" lon="11.754593"><ele>4.0</ele><time>2026-04-26T17:41:28.86Z</time></trkpt><trkpt lat="44.9691164" lon="11.7544874"><ele>3.75</ele><time>2026-04-26T17:41:29.859Z</time></trkpt><trkpt lat="44.969254" lon="11.7543971"><ele>3.5</ele><time>2026-04-26T17:41:30.86Z</time></trkpt><trkpt lat="44.9693873" lon="11.7543123"><ele>3.25</ele><time>2026-04-26T17:41:31.86Z</time></trkpt><trkpt lat="44.9695175" lon="11.7542337"><ele>3.0</ele><time>2026-04-26T17:41:32.86Z</time></trkpt><trkpt lat="44.969633" lon="11.7541602"><ele>3.0</ele><time>2026-04-26T17:41:33.859Z</time></trkpt><trkpt lat="44.9697458" lon="11.7540986"><ele>3.0</ele><time>2026-04-26T17:41:34.859Z</time></trkpt><trkpt lat="44.9698506" lon="11.7540303"><ele>3.0</ele><time>2026-04-26T17:41:35.86Z</time></trkpt><trkpt lat="44.9699518" lon="11.7539647"><ele>3.0</ele><time>2026-04-26T17:41:36.859Z</time></trkpt><trkpt lat="44.97006" lon="11.7539078"><ele>3.0</ele><time>2026-04-26T17:41:37.86Z</time></trkpt><trkpt lat="44.9701596" lon="11.7538641"><ele>3.0</ele><time>2026-04-26T17:41:38.86Z</time></trkpt><trkpt lat="44.9702571" lon="11.7538292"><ele>3.0</ele><time>2026-04-26T17:41:39.859Z</time></trkpt><trkpt lat="44.9703463" lon="11.7538095"><ele>3.0</ele><time>2026-04-26T17:41:40.86Z</time></trkpt><trkpt lat="44.9704293" lon="11.7537909"><ele>3.0</ele><time>2026-04-26T17:41:41.86Z</time></trkpt><trkpt lat="44.9704951" lon="11.7537812"><ele>3.0</ele><time>2026-04-26T17:41:42.859Z</time></trkpt><trkpt lat="44.9705852" lon="11.7537824"><ele>3.0</ele><time>2026-04-26T17:41:44.86Z</time></trkpt><trkpt lat="44.9706527" lon="11.7537815"><ele>3.0</ele><time>2026-04-26T17:41:48.859Z</time></trkpt><trkpt lat="44.9707643" lon="11.7538129"><ele>3.0</ele><time>2026-04-26T17:41:53.86Z</time></trkpt><trkpt lat="44.9708327" lon="11.75384"><ele>3.0</ele><time>2026-04-26T17:41:54.86Z</time></trkpt><trkpt lat="44.9709075" lon="11.7538732"><ele>3.0</ele><time>2026-04-26T17:41:55.86Z</time></trkpt><trkpt lat="44.9709907" lon="11.7539074"><ele>3.0</ele><time>2026-04-26T17:41:56.86Z</time></trkpt><trkpt lat="44.9710729" lon="11.7539497"><ele>3.2</ele><time>2026-04-26T17:41:57.86Z</time></trkpt><trkpt lat="44.9711678" lon="11.7539972"><ele>3.4</ele><time>2026-04-26T17:41:58.86Z</time></trkpt><trkpt lat="44.9712694" lon="11.7540472"><ele>3.6000000000000005</ele><time>2026-04-26T17:41:59.859Z</time></trkpt><trkpt lat="44.9713732" lon="11.7541045"><ele>3.8000000000000003</ele><time>2026-04-26T17:42:00.86Z</time></trkpt><trkpt lat="44.9714848" lon="11.7541637"><ele>4.0</ele><time>2026-04-26T17:42:01.86Z</time></trkpt><trkpt lat="44.9716006" lon="11.7542212"><ele>3.75</ele><time>2026-04-26T17:42:02.859Z</time></trkpt><trkpt lat="44.9717165" lon="11.7542859"><ele>3.5</ele><time>2026-04-26T17:42:03.859Z</time></trkpt><trkpt lat="44.9718368" lon="11.7543514"><ele>3.25</ele><time>2026-04-26T17:42:04.859Z</time></trkpt><trkpt lat="44.9719589" lon="11.7544156"><ele>3.0</ele><time>2026-04-26T17:42:05.86Z</time></trkpt><trkpt lat="44.9720879" lon="11.7544835"><ele>3.0</ele><time>2026-04-26T17:42:06.86Z</time></trkpt><trkpt lat="44.9722224" lon="11.7545548"><ele>3.0</ele><time>2026-04-26T17:42:07.86Z</time></trkpt><trkpt lat="44.9723555" lon="11.7546332"><ele>3.0</ele><time>2026-04-26T17:42:08.859Z</time></trkpt><trkpt lat="44.9724895" lon="11.7547141"><ele>3.0</ele><time>2026-04-26T17:42:09.859Z</time></trkpt><trkpt lat="44.9726122" lon="11.7547842"><ele>3.0</ele><time>2026-04-26T17:42:10.86Z</time></trkpt><trkpt lat="44.9727146" lon="11.7548475"><ele>3.0</ele><time>2026-04-26T17:42:11.86Z</time></trkpt><trkpt lat="44.972796" lon="11.7549128"><ele>3.0</ele><time>2026-04-26T17:42:12.859Z</time></trkpt><trkpt lat="44.9728635" lon="11.7549843"><ele>3.0</ele><time>2026-04-26T17:42:13.86Z</time></trkpt><trkpt lat="44.9729102" lon="11.7550586"><ele>3.0</ele><time>2026-04-26T17:42:14.859Z</time></trkpt><trkpt lat="44.9729885" lon="11.7551572"><ele>3.0</ele><time>2026-04-26T17:42:16.86Z</time></trkpt><trkpt lat="44.9730528" lon="11.7551883"><ele>3.0</ele><time>2026-04-26T17:42:18.859Z</time></trkpt><trkpt lat="44.9731131" lon="11.7552283"><ele>3.0</ele><time>2026-04-26T17:45:47.86Z</time></trkpt><trkpt lat="44.9731764" lon="11.755264"><ele>3.0</ele><time>2026-04-26T17:45:49.86Z</time></trkpt><trkpt lat="44.9732505" lon="11.7552457"><ele>3.0</ele><time>2026-04-26T17:45:52.859Z</time></trkpt><trkpt lat="44.9733713" lon="11.7552865"><ele>3.0</ele><time>2026-04-26T17:45:55.859Z</time></trkpt><trkpt lat="44.9734418" lon="11.755356"><ele>3.5999999999999996</ele><time>2026-04-26T17:45:56.86Z</time></trkpt><trkpt lat="44.9735344" lon="11.7554304"><ele>4.199999999999999</ele><time>2026-04-26T17:45:57.859Z</time></trkpt><trkpt lat="44.9736345" lon="11.7554952"><ele>4.8</ele><time>2026-04-26T17:45:58.86Z</time></trkpt><trkpt lat="44.9737326" lon="11.7555624"><ele>5.3999999999999995</ele><time>2026-04-26T17:45:59.86Z</time></trkpt><trkpt lat="44.9738351" lon="11.7556336"><ele>6.0</ele><time>2026-04-26T17:46:00.86Z</time></trkpt><trkpt lat="44.9739383" lon="11.7557133"><ele>6.0</ele><time>2026-04-26T17:46:01.86Z</time></trkpt><trkpt lat="44.9740461" lon="11.7557963"><ele>6.0</ele><time>2026-04-26T17:46:02.86Z</time></trkpt><trkpt lat="44.9741601" lon="11.7558768"><ele>6.0</ele><time>2026-04-26T17:46:03.86Z</time></trkpt><trkpt lat="44.9742757" lon="11.7559572"><ele>6.0</ele><time>2026-04-26T17:46:04.859Z</time></trkpt><trkpt lat="44.9743928" lon="11.7560417"><ele>6.0</ele><time>2026-04-26T17:46:05.86Z</time></trkpt><trkpt lat="44.9745144" lon="11.7561256"><ele>6.0</ele><time>2026-04-26T17:46:06.86Z</time></trkpt><trkpt lat="44.9746381" lon="11.7562158"><ele>6.0</ele><time>2026-04-26T17:46:07.86Z</time></trkpt><trkpt lat="44.9747661" lon="11.7563119"><ele>6.0</ele><time>2026-04-26T17:46:08.859Z</time></trkpt><trkpt lat="44.9748943" lon="11.7564104"><ele>5.5</ele><time>2026-04-26T17:46:09.86Z</time></trkpt><trkpt lat="44.9750257" lon="11.7565093"><ele>5.0</ele><time>2026-04-26T17:46:10.859Z</time></trkpt><trkpt lat="44.9751579" lon="11.756606"><ele>4.5</ele><time>2026-04-26T17:46:11.86Z</time></trkpt><trkpt lat="44.9752921" lon="11.7566959"><ele>4.0</ele><time>2026-04-26T17:46:12.859Z</time></trkpt><trkpt lat="44.9754266" lon="11.7567934"><ele>4.333333333333333</ele><time>2026-04-26T17:46:13.859Z</time></trkpt><trkpt lat="44.9755617" lon="11.7568898"><ele>4.666666666666667</ele><time>2026-04-26T17:46:14.859Z</time></trkpt><trkpt lat="44.9756948" lon="11.7569916"><ele>5.0</ele><time>2026-04-26T17:46:15.859Z</time></trkpt><trkpt lat="44.9758277" lon="11.7570958"><ele>4.333333333333334</ele><time>2026-04-26T17:46:16.859Z</time></trkpt><trkpt lat="44.975963" lon="11.7571899"><ele>3.666666666666667</ele><time>2026-04-26T17:46:17.859Z</time></trkpt><trkpt lat="44.9760991" lon="11.7572967"><ele>3.0</ele><time>2026-04-26T17:46:18.859Z</time></trkpt><trkpt lat="44.9762346" lon="11.7573978"><ele>3.0</ele><time>2026-04-26T17:46:19.859Z</time></trkpt><trkpt lat="44.9763667" lon="11.7575016"><ele>3.0</ele><time>2026-04-26T17:46:20.86Z</time></trkpt><trkpt lat="44.9765027" lon="11.7576006"><ele>3.0</ele><time>2026-04-26T17:46:21.86Z</time></trkpt><trkpt lat="44.9766368" lon="11.7576955"><ele>3.0</ele><time>2026-04-26T17:46:22.86Z</time></trkpt><trkpt lat="44.9767686" lon="11.757786"><ele>3.0</ele><time>2026-04-26T17:46:23.86Z</time></trkpt><trkpt lat="44.9769005" lon="11.7578842"><ele>3.0</ele><time>2026-04-26T17:46:24.859Z</time></trkpt><trkpt lat="44.9770302" lon="11.7579817"><ele>3.0</ele><time>2026-04-26T17:46:25.859Z</time></trkpt><trkpt lat="44.977162" lon="11.7580742"><ele>3.0</ele><time>2026-04-26T17:46:26.86Z</time></trkpt><trkpt lat="44.9772935" lon="11.7581716"><ele>3.0</ele><time>2026-04-26T17:46:27.859Z</time></trkpt><trkpt lat="44.9774279" lon="11.7582661"><ele>3.0</ele><time>2026-04-26T17:46:28.86Z</time></trkpt><trkpt lat="44.9775641" lon="11.7583596"><ele>3.0</ele><time>2026-04-26T17:46:29.86Z</time></trkpt><trkpt lat="44.9777017" lon="11.7584422"><ele>3.0</ele><time>2026-04-26T17:46:30.86Z</time></trkpt><trkpt lat="44.9778475" lon="11.7585104"><ele>3.0</ele><time>2026-04-26T17:46:31.859Z</time></trkpt><trkpt lat="44.9779977" lon="11.7585654"><ele>2.6666666666666665</ele><time>2026-04-26T17:46:32.859Z</time></trkpt><trkpt lat="44.9781514" lon="11.7586049"><ele>2.333333333333333</ele><time>2026-04-26T17:46:33.86Z</time></trkpt><trkpt lat="44.9783089" lon="11.7586404"><ele>2.0</ele><time>2026-04-26T17:46:34.86Z</time></trkpt><trkpt lat="44.9784624" lon="11.7586772"><ele>1.6666666666666665</ele><time>2026-04-26T17:46:35.859Z</time></trkpt><trkpt lat="44.9786178" lon="11.7587109"><ele>1.3333333333333333</ele><time>2026-04-26T17:46:36.859Z</time></trkpt><trkpt lat="44.978769" lon="11.7587419"><ele>1.0</ele><time>2026-04-26T17:46:37.859Z</time></trkpt><trkpt lat="44.9789185" lon="11.7587764"><ele>1.0</ele><time>2026-04-26T17:46:38.86Z</time></trkpt><trkpt lat="44.9790683" lon="11.7588131"><ele>1.0</ele><time>2026-04-26T17:46:39.859Z</time></trkpt><trkpt lat="44.9792152" lon="11.7588469"><ele>1.0</ele><time>2026-04-26T17:46:40.859Z</time></trkpt><trkpt lat="44.9793596" lon="11.7588809"><ele>1.0</ele><time>2026-04-26T17:46:41.86Z</time></trkpt><trkpt lat="44.9795051" lon="11.7589109"><ele>1.0</ele><time>2026-04-26T17:46:42.859Z</time></trkpt><trkpt lat="44.9796497" lon="11.7589386"><ele>1.0</ele><time>2026-04-26T17:46:43.859Z</time></trkpt><trkpt lat="44.9797949" lon="11.7589632"><ele>1.0</ele><time>2026-04-26T17:46:44.86Z</time></trkpt><trkpt lat="44.9799372" lon="11.7589919"><ele>1.0</ele><time>2026-04-26T17:46:45.859Z</time></trkpt><trkpt lat="44.9800784" lon="11.7590243"><ele>1.25</ele><time>2026-04-26T17:46:46.859Z</time></trkpt><trkpt lat="44.9802215" lon="11.7590515"><ele>1.5</ele><time>2026-04-26T17:46:47.86Z</time></trkpt><trkpt lat="44.9803646" lon="11.7590837"><ele>1.75</ele><time>2026-04-26T17:46:48.859Z</time></trkpt><trkpt lat="44.980508" lon="11.7591141"><ele>2.0</ele><time>2026-04-26T17:46:49.859Z</time></trkpt><trkpt lat="44.9806501" lon="11.7591422"><ele>2.0</ele><time>2026-04-26T17:46:50.86Z</time></trkpt><trkpt lat="44.9807943" lon="11.7591728"><ele>2.0</ele><time>2026-04-26T17:46:51.859Z</time></trkpt><trkpt lat="44.9809385" lon="11.7592055"><ele>2.0</ele><time>2026-04-26T17:46:52.859Z</time></trkpt><trkpt lat="44.9810826" lon="11.7592432"><ele>2.0</ele><time>2026-04-26T17:46:53.859Z</time></trkpt><trkpt lat="44.9812253" lon="11.7592827"><ele>2.0</ele><time>2026-04-26T17:46:54.86Z</time></trkpt><trkpt lat="44.9813695" lon="11.7593192"><ele>2.0</ele><time>2026-04-26T17:46:55.86Z</time></trkpt><trkpt lat="44.9815141" lon="11.7593569"><ele>2.0</ele><time>2026-04-26T17:46:56.859Z</time></trkpt><trkpt lat="44.9816659" lon="11.7593917"><ele>2.0</ele><time>2026-04-26T17:46:57.86Z</time></trkpt><trkpt lat="44.981822" lon="11.7594278"><ele>1.3333333333333333</ele><time>2026-04-26T17:46:58.859Z</time></trkpt><trkpt lat="44.981979" lon="11.7594551"><ele>0.6666666666666666</ele><time>2026-04-26T17:46:59.86Z</time></trkpt><trkpt lat="44.9821467" lon="11.7594917"><ele>0.0</ele><time>2026-04-26T17:47:00.86Z</time></trkpt><trkpt lat="44.9823083" lon="11.7595228"><ele>0.0</ele><time>2026-04-26T17:47:01.859Z</time></trkpt><trkpt lat="44.9824795" lon="11.7595585"><ele>0.0</ele><time>2026-04-26T17:47:02.86Z</time></trkpt><trkpt lat="44.9826475" lon="11.759594"><ele>0.0</ele><time>2026-04-26T17:47:03.86Z</time></trkpt><trkpt lat="44.9828196" lon="11.7596279"><ele>0.0</ele><time>2026-04-26T17:47:04.859Z</time></trkpt><trkpt lat="44.9829963" lon="11.7596621"><ele>0.0</ele><time>2026-04-26T17:47:05.86Z</time></trkpt><trkpt lat="44.9831703" lon="11.7596974"><ele>0.0</ele><time>2026-04-26T17:47:06.86Z</time></trkpt><trkpt lat="44.9833447" lon="11.7597229"><ele>0.3333333333333333</ele><time>2026-04-26T17:47:07.86Z</time></trkpt><trkpt lat="44.9835194" lon="11.7597495"><ele>0.6666666666666666</ele><time>2026-04-26T17:47:08.859Z</time></trkpt><trkpt lat="44.9836957" lon="11.7597816"><ele>1.0</ele><time>2026-04-26T17:47:09.859Z</time></trkpt><trkpt lat="44.9838665" lon="11.7598213"><ele>1.0</ele><time>2026-04-26T17:47:10.859Z</time></trkpt><trkpt lat="44.9840384" lon="11.7598583"><ele>1.0</ele><time>2026-04-26T17:47:11.86Z</time></trkpt><trkpt lat="44.9842092" lon="11.7598964"><ele>1.0</ele><time>2026-04-26T17:47:12.859Z</time></trkpt><trkpt lat="44.9843782" lon="11.759931"><ele>0.6666666666666666</ele><time>2026-04-26T17:47:13.86Z</time></trkpt><trkpt lat="44.9845455" lon="11.7599652"><ele>0.3333333333333333</ele><time>2026-04-26T17:47:14.859Z</time></trkpt><trkpt lat="44.9847103" lon="11.7599959"><ele>0.0</ele><time>2026-04-26T17:47:15.86Z</time></trkpt><trkpt lat="44.9848774" lon="11.7600302"><ele>0.0</ele><time>2026-04-26T17:47:16.86Z</time></trkpt><trkpt lat="44.9850462" lon="11.7600645"><ele>0.0</ele><time>2026-04-26T17:47:17.86Z</time></trkpt><trkpt lat="44.9852131" lon="11.7601003"><ele>0.0</ele><time>2026-04-26T17:47:18.86Z</time></trkpt><trkpt lat="44.9853748" lon="11.7601373"><ele>0.0</ele><time>2026-04-26T17:47:19.859Z</time></trkpt><trkpt lat="44.9855375" lon="11.760172"><ele>0.0</ele><time>2026-04-26T17:47:20.859Z</time></trkpt><trkpt lat="44.9857024" lon="11.7601992"><ele>0.0</ele><time>2026-04-26T17:47:21.859Z</time></trkpt><trkpt lat="44.9858656" lon="11.7602372"><ele>0.0</ele><time>2026-04-26T17:47:22.86Z</time></trkpt><trkpt lat="44.9860315" lon="11.7602681"><ele>0.0</ele><time>2026-04-26T17:47:23.86Z</time></trkpt><trkpt lat="44.9861981" lon="11.7603048"><ele>0.0</ele><time>2026-04-26T17:47:24.86Z</time></trkpt><trkpt lat="44.9863642" lon="11.7603386"><ele>0.0</ele><time>2026-04-26T17:47:25.86Z</time></trkpt><trkpt lat="44.9865319" lon="11.7603757"><ele>0.0</ele><time>2026-04-26T17:47:26.859Z</time></trkpt><trkpt lat="44.9866999" lon="11.7604113"><ele>0.0</ele><time>2026-04-26T17:47:27.859Z</time></trkpt><trkpt lat="44.9868723" lon="11.7604513"><ele>0.0</ele><time>2026-04-26T17:47:28.859Z</time></trkpt><trkpt lat="44.987043" lon="11.7604908"><ele>0.0</ele><time>2026-04-26T17:47:29.859Z</time></trkpt><trkpt lat="44.9872084" lon="11.7605257"><ele>0.0</ele><time>2026-04-26T17:47:30.859Z</time></trkpt><trkpt lat="44.9873768" lon="11.7605656"><ele>-0.3333333333333333</ele><time>2026-04-26T17:47:31.86Z</time></trkpt><trkpt lat="44.9875361" lon="11.7606015"><ele>-0.6666666666666666</ele><time>2026-04-26T17:47:32.859Z</time></trkpt><trkpt lat="44.9877008" lon="11.7606362"><ele>-1.0</ele><time>2026-04-26T17:47:33.86Z</time></trkpt><trkpt lat="44.9878592" lon="11.7606693"><ele>-1.0</ele><time>2026-04-26T17:47:34.86Z</time></trkpt><trkpt lat="44.9880237" lon="11.7607011"><ele>-1.0</ele><time>2026-04-26T17:47:35.86Z</time></trkpt><trkpt lat="44.9881871" lon="11.7607331"><ele>-1.0</ele><time>2026-04-26T17:47:36.86Z</time></trkpt><trkpt lat="44.9883488" lon="11.7607652"><ele>-0.6666666666666666</ele><time>2026-04-26T17:47:37.859Z</time></trkpt><trkpt lat="44.9885122" lon="11.7608033"><ele>-0.3333333333333333</ele><time>2026-04-26T17:47:38.859Z</time></trkpt><trkpt lat="44.9886742" lon="11.7608347"><ele>0.0</ele><time>2026-04-26T17:47:39.859Z</time></trkpt><trkpt lat="44.9888366" lon="11.760873"><ele>0.0</ele><time>2026-04-26T17:47:40.86Z</time></trkpt><trkpt lat="44.9890011" lon="11.7609108"><ele>0.0</ele><time>2026-04-26T17:47:41.859Z</time></trkpt><trkpt lat="44.9891621" lon="11.760946"><ele>0.0</ele><time>2026-04-26T17:47:42.859Z</time></trkpt><trkpt lat="44.9893286" lon="11.7609808"><ele>0.0</ele><time>2026-04-26T17:47:43.859Z</time></trkpt><trkpt lat="44.9894914" lon="11.7610118"><ele>0.0</ele><time>2026-04-26T17:47:44.859Z</time></trkpt><trkpt lat="44.9896487" lon="11.7610456"><ele>0.0</ele><time>2026-04-26T17:47:45.86Z</time></trkpt><trkpt lat="44.9898057" lon="11.7610774"><ele>0.3333333333333333</ele><time>2026-04-26T17:47:46.86Z</time></trkpt><trkpt lat="44.989957" lon="11.7611082"><ele>0.6666666666666666</ele><time>2026-04-26T17:47:47.86Z</time></trkpt><trkpt lat="44.9901074" lon="11.7611378"><ele>1.0</ele><time>2026-04-26T17:47:48.859Z</time></trkpt><trkpt lat="44.9902577" lon="11.7611714"><ele>1.5</ele><time>2026-04-26T17:47:49.86Z</time></trkpt><trkpt lat="44.9904018" lon="11.7612001"><ele>2.0</ele><time>2026-04-26T17:47:50.859Z</time></trkpt><trkpt lat="44.9905463" lon="11.7612272"><ele>2.5</ele><time>2026-04-26T17:47:51.86Z</time></trkpt><trkpt lat="44.9906909" lon="11.7612574"><ele>3.0</ele><time>2026-04-26T17:47:52.859Z</time></trkpt><trkpt lat="44.9908343" lon="11.7612918"><ele>3.0</ele><time>2026-04-26T17:47:53.859Z</time></trkpt><trkpt lat="44.9909768" lon="11.7613209"><ele>3.0</ele><time>2026-04-26T17:47:54.859Z</time></trkpt><trkpt lat="44.9911196" lon="11.7613481"><ele>3.0</ele><time>2026-04-26T17:47:55.86Z</time></trkpt><trkpt lat="44.9912606" lon="11.7613795"><ele>3.0</ele><time>2026-04-26T17:47:56.859Z</time></trkpt><trkpt lat="44.9914023" lon="11.7614072"><ele>3.0</ele><time>2026-04-26T17:47:57.859Z</time></trkpt><trkpt lat="44.9915426" lon="11.7614374"><ele>3.0</ele><time>2026-04-26T17:47:58.86Z</time></trkpt><trkpt lat="44.9916855" lon="11.7614687"><ele>3.0</ele><time>2026-04-26T17:47:59.859Z</time></trkpt><trkpt lat="44.9918223" lon="11.7614982"><ele>3.0</ele><time>2026-04-26T17:48:00.859Z</time></trkpt><trkpt lat="44.9919494" lon="11.7615224"><ele>3.0</ele><time>2026-04-26T17:48:01.86Z</time></trkpt><trkpt lat="44.9920621" lon="11.7615445"><ele>3.0</ele><time>2026-04-26T17:48:02.86Z</time></trkpt><trkpt lat="44.9921792" lon="11.7615691"><ele>3.0</ele><time>2026-04-26T17:48:03.859Z</time></trkpt><trkpt lat="44.9922998" lon="11.7615944"><ele>3.0</ele><time>2026-04-26T17:48:04.86Z</time></trkpt><trkpt lat="44.9924205" lon="11.7616189"><ele>3.0</ele><time>2026-04-26T17:48:05.86Z</time></trkpt><trkpt lat="44.9925481" lon="11.7616462"><ele>3.0</ele><time>2026-04-26T17:48:06.859Z</time></trkpt><trkpt lat="44.9926771" lon="11.7616743"><ele>3.0</ele><time>2026-04-26T17:48:07.859Z</time></trkpt><trkpt lat="44.9928076" lon="11.761698"><ele>3.0</ele><time>2026-04-26T17:48:08.859Z</time></trkpt><trkpt lat="44.9929358" lon="11.7617233"><ele>3.0</ele><time>2026-04-26T17:48:09.859Z</time></trkpt><trkpt lat="44.9930603" lon="11.7617473"><ele>3.0</ele><time>2026-04-26T17:48:10.859Z</time></trkpt><trkpt lat="44.9931783" lon="11.7617716"><ele>3.0</ele><time>2026-04-26T17:48:11.859Z</time></trkpt><trkpt lat="44.9932867" lon="11.7618007"><ele>3.0</ele><time>2026-04-26T17:48:12.86Z</time></trkpt><trkpt lat="44.993394" lon="11.7618203"><ele>2.8</ele><time>2026-04-26T17:48:13.86Z</time></trkpt><trkpt lat="44.9935018" lon="11.7618415"><ele>2.5999999999999996</ele><time>2026-04-26T17:48:14.86Z</time></trkpt><trkpt lat="44.9936124" lon="11.7618665"><ele>2.4000000000000004</ele><time>2026-04-26T17:48:15.859Z</time></trkpt><trkpt lat="44.9937218" lon="11.761885"><ele>2.2</ele><time>2026-04-26T17:48:16.859Z</time></trkpt><trkpt lat="44.9938341" lon="11.7619062"><ele>2.0</ele><time>2026-04-26T17:48:17.859Z</time></trkpt><trkpt lat="44.9939487" lon="11.761931"><ele>2.0</ele><time>2026-04-26T17:48:18.859Z</time></trkpt><trkpt lat="44.9940628" lon="11.7619549"><ele>2.0</ele><time>2026-04-26T17:48:19.859Z</time></trkpt><trkpt lat="44.9941804" lon="11.7619859"><ele>2.0</ele><time>2026-04-26T17:48:20.86Z</time></trkpt><trkpt lat="44.9942985" lon="11.7620129"><ele>2.0</ele><time>2026-04-26T17:48:21.86Z</time></trkpt><trkpt lat="44.9944196" lon="11.7620345"><ele>2.25</ele><time>2026-04-26T17:48:22.859Z</time></trkpt><trkpt lat="44.9945416" lon="11.7620585"><ele>2.5</ele><time>2026-04-26T17:48:23.859Z</time></trkpt><trkpt lat="44.9946666" lon="11.7620863"><ele>2.75</ele><time>2026-04-26T17:48:24.86Z</time></trkpt><trkpt lat="44.9947947" lon="11.7621174"><ele>3.0</ele><time>2026-04-26T17:48:25.86Z</time></trkpt><trkpt lat="44.9949256" lon="11.7621459"><ele>3.0</ele><time>2026-04-26T17:48:26.859Z</time></trkpt><trkpt lat="44.9950565" lon="11.7621721"><ele>3.0</ele><time>2026-04-26T17:48:27.859Z</time></trkpt><trkpt lat="44.9951914" lon="11.7622004"><ele>3.0</ele><time>2026-04-26T17:48:28.86Z</time></trkpt><trkpt lat="44.9953269" lon="11.7622279"><ele>3.0</ele><time>2026-04-26T17:48:29.86Z</time></trkpt><trkpt lat="44.99546" lon="11.7622519"><ele>3.0</ele><time>2026-04-26T17:48:30.86Z</time></trkpt><trkpt lat="44.9955847" lon="11.7622794"><ele>3.0</ele><time>2026-04-26T17:48:31.86Z</time></trkpt><trkpt lat="44.9957033" lon="11.7623048"><ele>3.0</ele><time>2026-04-26T17:48:32.86Z</time></trkpt><trkpt lat="44.9958127" lon="11.7623278"><ele>3.0</ele><time>2026-04-26T17:48:33.859Z</time></trkpt><trkpt lat="44.9959265" lon="11.7623527"><ele>2.75</ele><time>2026-04-26T17:48:34.86Z</time></trkpt><trkpt lat="44.9960464" lon="11.7623811"><ele>2.5</ele><time>2026-04-26T17:48:35.859Z</time></trkpt><trkpt lat="44.9961654" lon="11.7624076"><ele>2.25</ele><time>2026-04-26T17:48:36.859Z</time></trkpt><trkpt lat="44.9962852" lon="11.7624335"><ele>2.0</ele><time>2026-04-26T17:48:37.86Z</time></trkpt><trkpt lat="44.9964066" lon="11.762456"><ele>2.0</ele><time>2026-04-26T17:48:38.86Z</time></trkpt><trkpt lat="44.9965234" lon="11.7624833"><ele>2.0</ele><time>2026-04-26T17:48:39.859Z</time></trkpt><trkpt lat="44.9966396" lon="11.7625108"><ele>2.0</ele><time>2026-04-26T17:48:40.859Z</time></trkpt><trkpt lat="44.9967571" lon="11.7625326"><ele>2.0</ele><time>2026-04-26T17:48:41.859Z</time></trkpt><trkpt lat="44.9968784" lon="11.7625527"><ele>2.25</ele><time>2026-04-26T17:48:42.86Z</time></trkpt><trkpt lat="44.9969981" lon="11.7625774"><ele>2.5</ele><time>2026-04-26T17:48:43.86Z</time></trkpt><trkpt lat="44.9971188" lon="11.7626035"><ele>2.75</ele><time>2026-04-26T17:48:44.859Z</time></trkpt><trkpt lat="44.9972428" lon="11.7626295"><ele>3.0</ele><time>2026-04-26T17:48:45.859Z</time></trkpt><trkpt lat="44.997369" lon="11.7626563"><ele>3.0</ele><time>2026-04-26T17:48:46.86Z</time></trkpt><trkpt lat="44.9974945" lon="11.7626815"><ele>3.0</ele><time>2026-04-26T17:48:47.86Z</time></trkpt><trkpt lat="44.9976199" lon="11.7627127"><ele>3.0</ele><time>2026-04-26T17:48:48.86Z</time></trkpt><trkpt lat="44.9977483" lon="11.7627423"><ele>3.0</ele><time>2026-04-26T17:48:49.859Z</time></trkpt><trkpt lat="44.9978776" lon="11.7627714"><ele>3.0</ele><time>2026-04-26T17:48:50.86Z</time></trkpt><trkpt lat="44.9980061" lon="11.7627905"><ele>3.0</ele><time>2026-04-26T17:48:51.86Z</time></trkpt><trkpt lat="44.9981362" lon="11.7628192"><ele>3.0</ele><time>2026-04-26T17:48:52.86Z</time></trkpt><trkpt lat="44.9982634" lon="11.7628386"><ele>3.0</ele><time>2026-04-26T17:48:53.859Z</time></trkpt><trkpt lat="44.9983859" lon="11.7628594"><ele>3.0</ele><time>2026-04-26T17:48:54.859Z</time></trkpt><trkpt lat="44.9985074" lon="11.7628819"><ele>3.0</ele><time>2026-04-26T17:48:55.859Z</time></trkpt><trkpt lat="44.9986285" lon="11.7629081"><ele>3.0</ele><time>2026-04-26T17:48:56.859Z</time></trkpt><trkpt lat="44.9987486" lon="11.762932"><ele>3.0</ele><time>2026-04-26T17:48:57.86Z</time></trkpt><trkpt lat="44.9988705" lon="11.7629574"><ele>3.0</ele><time>2026-04-26T17:48:58.86Z</time></trkpt><trkpt lat="44.9989904" lon="11.7629869"><ele>3.0</ele><time>2026-04-26T17:48:59.859Z</time></trkpt><trkpt lat="44.9991059" lon="11.7630149"><ele>3.0</ele><time>2026-04-26T17:49:00.859Z</time></trkpt><trkpt lat="44.9992163" lon="11.7630368"><ele>3.0</ele><time>2026-04-26T17:49:01.86Z</time></trkpt><trkpt lat="44.9993207" lon="11.7630588"><ele>3.2</ele><time>2026-04-26T17:49:02.859Z</time></trkpt><trkpt lat="44.9994221" lon="11.7630772"><ele>3.4</ele><time>2026-04-26T17:49:03.86Z</time></trkpt><trkpt lat="44.9995161" lon="11.7630959"><ele>3.6000000000000005</ele><time>2026-04-26T17:49:04.859Z</time></trkpt><trkpt lat="44.9996072" lon="11.7631165"><ele>3.8000000000000003</ele><time>2026-04-26T17:49:05.86Z</time></trkpt><trkpt lat="44.9996956" lon="11.7631341"><ele>4.0</ele><time>2026-04-26T17:49:06.86Z</time></trkpt><trkpt lat="44.999777" lon="11.7631475"><ele>3.9999999999999996</ele><time>2026-04-26T17:49:07.86Z</time></trkpt><trkpt lat="44.9998476" lon="11.7631655"><ele>4.0</ele><time>2026-04-26T17:49:08.86Z</time></trkpt><trkpt lat="44.9999108" lon="11.7631764"><ele>4.0</ele><time>2026-04-26T17:49:09.859Z</time></trkpt><trkpt lat="45.0000008" lon="11.7631865"><ele>4.0</ele><time>2026-04-26T17:49:11.859Z</time></trkpt><trkpt lat="45.0000819" lon="11.7631959"><ele>3.9999999999999996</ele><time>2026-04-26T17:49:13.859Z</time></trkpt><trkpt lat="45.0001977" lon="11.7632168"><ele>4.0</ele><time>2026-04-26T17:49:15.859Z</time></trkpt><trkpt lat="45.0002765" lon="11.7632285"><ele>4.0</ele><time>2026-04-26T17:49:16.859Z</time></trkpt><trkpt lat="45.0003728" lon="11.7632413"><ele>4.0</ele><time>2026-04-26T17:49:17.86Z</time></trkpt><trkpt lat="45.0004693" lon="11.7632597"><ele>4.0</ele><time>2026-04-26T17:49:18.86Z</time></trkpt><trkpt lat="45.0005754" lon="11.763282"><ele>4.0</ele><time>2026-04-26T17:49:19.859Z</time></trkpt><trkpt lat="45.0006821" lon="11.7633067"><ele>4.0</ele><time>2026-04-26T17:49:20.86Z</time></trkpt><trkpt lat="45.0007854" lon="11.7633301"><ele>4.166666666666666</ele><time>2026-04-26T17:49:21.86Z</time></trkpt><trkpt lat="45.0008701" lon="11.7633577"><ele>4.333333333333333</ele><time>2026-04-26T17:49:22.86Z</time></trkpt><trkpt lat="45.0009449" lon="11.7633879"><ele>4.5</ele><time>2026-04-26T17:49:23.859Z</time></trkpt><trkpt lat="45.0010232" lon="11.763414"><ele>4.666666666666667</ele><time>2026-04-26T17:49:24.859Z</time></trkpt><trkpt lat="45.0011139" lon="11.7634368"><ele>4.833333333333334</ele><time>2026-04-26T17:49:25.859Z</time></trkpt><trkpt lat="45.0012086" lon="11.7634556"><ele>5.0</ele><time>2026-04-26T17:49:26.859Z</time></trkpt><trkpt lat="45.0012978" lon="11.7634777"><ele>5.0</ele><time>2026-04-26T17:49:27.859Z</time></trkpt><trkpt lat="45.0013792" lon="11.7634999"><ele>5.0</ele><time>2026-04-26T17:49:28.859Z</time></trkpt><trkpt lat="45.001455" lon="11.7635186"><ele>5.0</ele><time>2026-04-26T17:49:29.859Z</time></trkpt><trkpt lat="45.0015264" lon="11.7635352"><ele>5.0</ele><time>2026-04-26T17:49:30.86Z</time></trkpt><trkpt lat="45.0015929" lon="11.7635479"><ele>5.0</ele><time>2026-04-26T17:49:31.859Z</time></trkpt><trkpt lat="45.0017163" lon="11.7635736"><ele>5.0</ele><time>2026-04-26T17:49:33.859Z</time></trkpt><trkpt lat="45.0017854" lon="11.7635895"><ele>4.666666666666667</ele><time>2026-04-26T17:49:34.859Z</time></trkpt><trkpt lat="45.0018552" lon="11.7636068"><ele>4.333333333333334</ele><time>2026-04-26T17:49:35.86Z</time></trkpt><trkpt lat="45.0019282" lon="11.7636233"><ele>4.0</ele><time>2026-04-26T17:49:36.859Z</time></trkpt><trkpt lat="45.0020093" lon="11.7636374"><ele>3.666666666666667</ele><time>2026-04-26T17:49:37.859Z</time></trkpt><trkpt lat="45.0020905" lon="11.7636592"><ele>3.3333333333333335</ele><time>2026-04-26T17:49:38.859Z</time></trkpt><trkpt lat="45.0021743" lon="11.7636772"><ele>3.0</ele><time>2026-04-26T17:49:39.86Z</time></trkpt><trkpt lat="45.00226" lon="11.7636939"><ele>3.0</ele><time>2026-04-26T17:49:40.86Z</time></trkpt><trkpt lat="45.0023509" lon="11.763716"><ele>3.0</ele><time>2026-04-26T17:49:41.859Z</time></trkpt><trkpt lat="45.0024395" lon="11.7637326"><ele>3.0</ele><time>2026-04-26T17:49:42.859Z</time></trkpt><trkpt lat="45.0025258" lon="11.763755"><ele>3.0</ele><time>2026-04-26T17:49:43.86Z</time></trkpt><trkpt lat="45.0026077" lon="11.7637727"><ele>3.0</ele><time>2026-04-26T17:49:44.86Z</time></trkpt><trkpt lat="45.0026817" lon="11.763792"><ele>3.0</ele><time>2026-04-26T17:49:45.86Z</time></trkpt><trkpt lat="45.0027529" lon="11.763808"><ele>2.8</ele><time>2026-04-26T17:49:46.859Z</time></trkpt><trkpt lat="45.0028307" lon="11.763822"><ele>2.5999999999999996</ele><time>2026-04-26T17:49:47.859Z</time></trkpt><trkpt lat="45.0029157" lon="11.7638332"><ele>2.4000000000000004</ele><time>2026-04-26T17:49:48.86Z</time></trkpt><trkpt lat="45.0030086" lon="11.763845"><ele>2.2</ele><time>2026-04-26T17:49:49.859Z</time></trkpt><trkpt lat="45.0031119" lon="11.7638636"><ele>2.0</ele><time>2026-04-26T17:49:50.86Z</time></trkpt><trkpt lat="45.0032299" lon="11.7638842"><ele>2.5</ele><time>2026-04-26T17:49:51.859Z</time></trkpt><trkpt lat="45.0033636" lon="11.7639057"><ele>3.0</ele><time>2026-04-26T17:49:52.859Z</time></trkpt><trkpt lat="45.0034963" lon="11.7639322"><ele>3.5</ele><time>2026-04-26T17:49:53.859Z</time></trkpt><trkpt lat="45.0036409" lon="11.7639607"><ele>4.0</ele><time>2026-04-26T17:49:54.86Z</time></trkpt><trkpt lat="45.0037934" lon="11.7639922"><ele>4.0</ele><time>2026-04-26T17:49:55.859Z</time></trkpt><trkpt lat="45.0039571" lon="11.7640248"><ele>4.0</ele><time>2026-04-26T17:49:56.86Z</time></trkpt><trkpt lat="45.0041254" lon="11.7640596"><ele>4.0</ele><time>2026-04-26T17:49:57.859Z</time></trkpt><trkpt lat="45.0042985" lon="11.7640987"><ele>3.333333333333333</ele><time>2026-04-26T17:49:58.86Z</time></trkpt><trkpt lat="45.0044729" lon="11.7641344"><ele>2.6666666666666665</ele><time>2026-04-26T17:49:59.86Z</time></trkpt><trkpt lat="45.0046456" lon="11.7641654"><ele>2.0</ele><time>2026-04-26T17:50:00.86Z</time></trkpt><trkpt lat="45.0048188" lon="11.7642002"><ele>2.0</ele><time>2026-04-26T17:50:01.86Z</time></trkpt><trkpt lat="45.0049779" lon="11.7642373"><ele>2.0</ele><time>2026-04-26T17:50:02.86Z</time></trkpt><trkpt lat="45.005129" lon="11.7642696"><ele>2.0</ele><time>2026-04-26T17:50:03.859Z</time></trkpt><trkpt lat="45.0052749" lon="11.7642998"><ele>2.0</ele><time>2026-04-26T17:50:04.859Z</time></trkpt><trkpt lat="45.0054253" lon="11.7643347"><ele>2.0</ele><time>2026-04-26T17:50:05.86Z</time></trkpt><trkpt lat="45.0055768" lon="11.7643642"><ele>2.0</ele><time>2026-04-26T17:50:06.86Z</time></trkpt><trkpt lat="45.0057279" lon="11.7643989"><ele>1.6666666666666665</ele><time>2026-04-26T17:50:07.86Z</time></trkpt><trkpt lat="45.0058799" lon="11.7644307"><ele>1.3333333333333333</ele><time>2026-04-26T17:50:08.859Z</time></trkpt><trkpt lat="45.0060288" lon="11.7644682"><ele>1.0</ele><time>2026-04-26T17:50:09.859Z</time></trkpt><trkpt lat="45.0061766" lon="11.7645014"><ele>1.0</ele><time>2026-04-26T17:50:10.86Z</time></trkpt><trkpt lat="45.006322" lon="11.7645287"><ele>1.0</ele><time>2026-04-26T17:50:11.859Z</time></trkpt><trkpt lat="45.006466" lon="11.764563"><ele>1.0</ele><time>2026-04-26T17:50:12.86Z</time></trkpt><trkpt lat="45.0066047" lon="11.7646179"><ele>1.0</ele><time>2026-04-26T17:50:13.86Z</time></trkpt><trkpt lat="45.0067279" lon="11.7646699"><ele>1.3333333333333333</ele><time>2026-04-26T17:50:14.859Z</time></trkpt><trkpt lat="45.0068385" lon="11.7647218"><ele>1.6666666666666665</ele><time>2026-04-26T17:50:15.859Z</time></trkpt><trkpt lat="45.0069306" lon="11.7647708"><ele>2.0</ele><time>2026-04-26T17:50:16.859Z</time></trkpt><trkpt lat="45.0070107" lon="11.764784"><ele>2.3333333333333335</ele><time>2026-04-26T17:50:17.86Z</time></trkpt><trkpt lat="45.0070844" lon="11.7647564"><ele>2.6666666666666665</ele><time>2026-04-26T17:50:18.86Z</time></trkpt><trkpt lat="45.0071378" lon="11.7646818"><ele>3.0</ele><time>2026-04-26T17:50:19.859Z</time></trkpt><trkpt lat="45.0071844" lon="11.7645656"><ele>3.0</ele><time>2026-04-26T17:50:20.859Z</time></trkpt><trkpt lat="45.0072182" lon="11.7644092"><ele>3.0</ele><time>2026-04-26T17:50:21.86Z</time></trkpt><trkpt lat="45.007252" lon="11.7642227"><ele>3.0</ele><time>2026-04-26T17:50:22.859Z</time></trkpt><trkpt lat="45.0072921" lon="11.7640347"><ele>3.0</ele><time>2026-04-26T17:50:23.86Z</time></trkpt><trkpt lat="45.0073432" lon="11.7638323"><ele>3.0</ele><time>2026-04-26T17:50:24.859Z</time></trkpt><trkpt lat="45.0073932" lon="11.7636238"><ele>3.0</ele><time>2026-04-26T17:50:25.86Z</time></trkpt><trkpt lat="45.0074462" lon="11.763396"><ele>3.0</ele><time>2026-04-26T17:50:26.86Z</time></trkpt><trkpt lat="45.0074979" lon="11.7631673"><ele>2.6666666666666665</ele><time>2026-04-26T17:50:27.859Z</time></trkpt><trkpt lat="45.0075486" lon="11.7629368"><ele>2.333333333333333</ele><time>2026-04-26T17:50:28.86Z</time></trkpt><trkpt lat="45.0076002" lon="11.7627083"><ele>2.0</ele><time>2026-04-26T17:50:29.859Z</time></trkpt><trkpt lat="45.007652" lon="11.7624836"><ele>1.6666666666666665</ele><time>2026-04-26T17:50:30.86Z</time></trkpt><trkpt lat="45.0077039" lon="11.7622599"><ele>1.3333333333333333</ele><time>2026-04-26T17:50:31.86Z</time></trkpt><trkpt lat="45.007753" lon="11.7620409"><ele>1.0</ele><time>2026-04-26T17:50:32.86Z</time></trkpt><trkpt lat="45.0078007" lon="11.761822"><ele>0.6666666666666666</ele><time>2026-04-26T17:50:33.859Z</time></trkpt><trkpt lat="45.0078497" lon="11.7615964"><ele>0.3333333333333333</ele><time>2026-04-26T17:50:34.859Z</time></trkpt><trkpt lat="45.0078958" lon="11.7613942"><ele>0.0</ele><time>2026-04-26T17:50:35.859Z</time></trkpt><trkpt lat="45.0079429" lon="11.761207"><ele>0.0</ele><time>2026-04-26T17:50:36.859Z</time></trkpt><trkpt lat="45.0079876" lon="11.7610362"><ele>0.0</ele><time>2026-04-26T17:50:37.859Z</time></trkpt><trkpt lat="45.008027" lon="11.760871"><ele>0.0</ele><time>2026-04-26T17:50:38.86Z</time></trkpt><trkpt lat="45.0080703" lon="11.7607105"><ele>0.0</ele><time>2026-04-26T17:50:39.86Z</time></trkpt><trkpt lat="45.0081075" lon="11.7605462"><ele>0.25</ele><time>2026-04-26T17:50:40.859Z</time></trkpt><trkpt lat="45.0081425" lon="11.7603798"><ele>0.5</ele><time>2026-04-26T17:50:41.859Z</time></trkpt><trkpt lat="45.0081782" lon="11.7602126"><ele>0.75</ele><time>2026-04-26T17:50:42.86Z</time></trkpt><trkpt lat="45.0082125" lon="11.7600437"><ele>1.0</ele><time>2026-04-26T17:50:43.86Z</time></trkpt><trkpt lat="45.008262" lon="11.7598771"><ele>1.0</ele><time>2026-04-26T17:50:44.859Z</time></trkpt><trkpt lat="45.0083012" lon="11.7597031"><ele>1.0</ele><time>2026-04-26T17:50:45.859Z</time></trkpt><trkpt lat="45.0083424" lon="11.7595157"><ele>1.0</ele><time>2026-04-26T17:50:46.86Z</time></trkpt><trkpt lat="45.0083807" lon="11.7593149"><ele>1.0</ele><time>2026-04-26T17:50:47.859Z</time></trkpt><trkpt lat="45.0084309" lon="11.7590979"><ele>1.0</ele><time>2026-04-26T17:50:48.86Z</time></trkpt><trkpt lat="45.0084848" lon="11.7588603"><ele>1.0</ele><time>2026-04-26T17:50:49.86Z</time></trkpt><trkpt lat="45.0085481" lon="11.7586051"><ele>1.0</ele><time>2026-04-26T17:50:50.859Z</time></trkpt><trkpt lat="45.0086157" lon="11.7583353"><ele>0.6666666666666666</ele><time>2026-04-26T17:50:51.86Z</time></trkpt><trkpt lat="45.0086829" lon="11.7580466"><ele>0.3333333333333333</ele><time>2026-04-26T17:50:52.86Z</time></trkpt><trkpt lat="45.0087491" lon="11.7577505"><ele>0.0</ele><time>2026-04-26T17:50:53.86Z</time></trkpt><trkpt lat="45.0088218" lon="11.757446"><ele>-0.5</ele><time>2026-04-26T17:50:54.859Z</time></trkpt><trkpt lat="45.0088942" lon="11.7571285"><ele>-1.0</ele><time>2026-04-26T17:50:55.86Z</time></trkpt><trkpt lat="45.0089709" lon="11.7568045"><ele>-1.0</ele><time>2026-04-26T17:50:56.859Z</time></trkpt><trkpt lat="45.009046" lon="11.7564677"><ele>-1.0</ele><time>2026-04-26T17:50:57.859Z</time></trkpt><trkpt lat="45.0091282" lon="11.7561234"><ele>0.5</ele><time>2026-04-26T17:50:58.86Z</time></trkpt><trkpt lat="45.0092078" lon="11.755777"><ele>2.0</ele><time>2026-04-26T17:50:59.859Z</time></trkpt><trkpt lat="45.0092874" lon="11.7554203"><ele>2.0</ele><time>2026-04-26T17:51:00.86Z</time></trkpt><trkpt lat="45.0093707" lon="11.7550553"><ele>2.0</ele><time>2026-04-26T17:51:01.859Z</time></trkpt><trkpt lat="45.0094571" lon="11.7546909"><ele>1.5</ele><time>2026-04-26T17:51:02.86Z</time></trkpt><trkpt lat="45.0095404" lon="11.7543246"><ele>1.0</ele><time>2026-04-26T17:51:03.86Z</time></trkpt><trkpt lat="45.0096265" lon="11.7539574"><ele>1.0</ele><time>2026-04-26T17:51:04.859Z</time></trkpt><trkpt lat="45.0097068" lon="11.7535825"><ele>1.0</ele><time>2026-04-26T17:51:05.86Z</time></trkpt><trkpt lat="45.0097878" lon="11.7532127"><ele>1.0</ele><time>2026-04-26T17:51:06.859Z</time></trkpt><trkpt lat="45.0098633" lon="11.7528552"><ele>1.0</ele><time>2026-04-26T17:51:07.859Z</time></trkpt><trkpt lat="45.0099407" lon="11.7525198"><ele>2.0</ele><time>2026-04-26T17:51:08.859Z</time></trkpt><trkpt lat="45.0100158" lon="11.7522102"><ele>3.0</ele><time>2026-04-26T17:51:09.86Z</time></trkpt><trkpt lat="45.0100827" lon="11.7519155"><ele>3.333333333333333</ele><time>2026-04-26T17:51:10.86Z</time></trkpt><trkpt lat="45.0101449" lon="11.7516323"><ele>3.6666666666666665</ele><time>2026-04-26T17:51:11.86Z</time></trkpt><trkpt lat="45.0102049" lon="11.7513762"><ele>4.0</ele><time>2026-04-26T17:51:12.86Z</time></trkpt><trkpt lat="45.0102594" lon="11.7511334"><ele>4.0</ele><time>2026-04-26T17:51:13.859Z</time></trkpt><trkpt lat="45.010312" lon="11.7509049"><ele>4.0</ele><time>2026-04-26T17:51:14.86Z</time></trkpt><trkpt lat="45.0103599" lon="11.7506814"><ele>4.0</ele><time>2026-04-26T17:51:15.86Z</time></trkpt><trkpt lat="45.0104063" lon="11.7504594"><ele>4.0</ele><time>2026-04-26T17:51:16.86Z</time></trkpt><trkpt lat="45.0104593" lon="11.7502329"><ele>4.0</ele><time>2026-04-26T17:51:17.859Z</time></trkpt><trkpt lat="45.0105134" lon="11.7499985"><ele>4.0</ele><time>2026-04-26T17:51:18.859Z</time></trkpt><trkpt lat="45.0105675" lon="11.7497643"><ele>3.6666666666666665</ele><time>2026-04-26T17:51:19.86Z</time></trkpt><trkpt lat="45.0106226" lon="11.7495338"><ele>3.333333333333333</ele><time>2026-04-26T17:51:20.86Z</time></trkpt><trkpt lat="45.0106759" lon="11.7492971"><ele>3.0</ele><time>2026-04-26T17:51:21.86Z</time></trkpt><trkpt lat="45.0107307" lon="11.7490599"><ele>3.0</ele><time>2026-04-26T17:51:22.86Z</time></trkpt><trkpt lat="45.0107871" lon="11.7488276"><ele>3.0</ele><time>2026-04-26T17:51:23.86Z</time></trkpt><trkpt lat="45.0108423" lon="11.7485991"><ele>3.0</ele><time>2026-04-26T17:51:24.86Z</time></trkpt><trkpt lat="45.0108968" lon="11.7483736"><ele>3.0</ele><time>2026-04-26T17:51:25.859Z</time></trkpt><trkpt lat="45.0109491" lon="11.748144"><ele>3.0</ele><time>2026-04-26T17:51:26.859Z</time></trkpt><trkpt lat="45.0109985" lon="11.7479153"><ele>3.0</ele><time>2026-04-26T17:51:27.86Z</time></trkpt><trkpt lat="45.0110496" lon="11.7476875"><ele>3.0</ele><time>2026-04-26T17:51:28.859Z</time></trkpt><trkpt lat="45.0111048" lon="11.7474537"><ele>3.0</ele><time>2026-04-26T17:51:29.859Z</time></trkpt><trkpt lat="45.0111601" lon="11.7472206"><ele>3.0</ele><time>2026-04-26T17:51:30.859Z</time></trkpt><trkpt lat="45.0112138" lon="11.7469859"><ele>2.6666666666666665</ele><time>2026-04-26T17:51:31.86Z</time></trkpt><trkpt lat="45.0112717" lon="11.7467534"><ele>2.333333333333333</ele><time>2026-04-26T17:51:32.859Z</time></trkpt><trkpt lat="45.0113264" lon="11.7465217"><ele>2.0</ele><time>2026-04-26T17:51:33.859Z</time></trkpt><trkpt lat="45.0113809" lon="11.7462884"><ele>2.0</ele><time>2026-04-26T17:51:34.86Z</time></trkpt><trkpt lat="45.0114328" lon="11.7460572"><ele>2.0</ele><time>2026-04-26T17:51:35.86Z</time></trkpt><trkpt lat="45.0114881" lon="11.7458292"><ele>2.0</ele><time>2026-04-26T17:51:36.859Z</time></trkpt><trkpt lat="45.0115438" lon="11.7455986"><ele>2.0</ele><time>2026-04-26T17:51:37.86Z</time></trkpt><trkpt lat="45.0115965" lon="11.7453833"><ele>2.0</ele><time>2026-04-26T17:51:38.859Z</time></trkpt><trkpt lat="45.0116449" lon="11.7451608"><ele>2.0</ele><time>2026-04-26T17:51:39.86Z</time></trkpt><trkpt lat="45.0116962" lon="11.7449364"><ele>2.0</ele><time>2026-04-26T17:51:40.86Z</time></trkpt><trkpt lat="45.0117443" lon="11.7447182"><ele>2.0</ele><time>2026-04-26T17:51:41.859Z</time></trkpt><trkpt lat="45.0117912" lon="11.7444953"><ele>2.0</ele><time>2026-04-26T17:51:42.86Z</time></trkpt><trkpt lat="45.0118318" lon="11.744272"><ele>2.0</ele><time>2026-04-26T17:51:43.86Z</time></trkpt><trkpt lat="45.0118693" lon="11.7440407"><ele>2.0</ele><time>2026-04-26T17:51:44.86Z</time></trkpt><trkpt lat="45.0119082" lon="11.7438194"><ele>2.0</ele><time>2026-04-26T17:51:45.859Z</time></trkpt><trkpt lat="45.0119457" lon="11.74361"><ele>1.5</ele><time>2026-04-26T17:51:46.859Z</time></trkpt><trkpt lat="45.0119778" lon="11.7434099"><ele>1.0</ele><time>2026-04-26T17:51:47.859Z</time></trkpt><trkpt lat="45.0120088" lon="11.7432082"><ele>0.5</ele><time>2026-04-26T17:51:48.859Z</time></trkpt><trkpt lat="45.0120439" lon="11.7430097"><ele>0.0</ele><time>2026-04-26T17:51:49.859Z</time></trkpt><trkpt lat="45.0120741" lon="11.7428255"><ele>0.6</ele><time>2026-04-26T17:51:50.859Z</time></trkpt><trkpt lat="45.0120954" lon="11.7426552"><ele>1.2</ele><time>2026-04-26T17:51:51.86Z</time></trkpt><trkpt lat="45.0121188" lon="11.7425052"><ele>1.7999999999999998</ele><time>2026-04-26T17:51:52.859Z</time></trkpt><trkpt lat="45.0121399" lon="11.7423691"><ele>2.4</ele><time>2026-04-26T17:51:53.859Z</time></trkpt><trkpt lat="45.0121643" lon="11.7422596"><ele>3.0</ele><time>2026-04-26T17:51:54.859Z</time></trkpt><trkpt lat="45.012188" lon="11.742154"><ele>3.0</ele><time>2026-04-26T17:51:55.859Z</time></trkpt><trkpt lat="45.012216" lon="11.7420495"><ele>3.0</ele><time>2026-04-26T17:51:56.859Z</time></trkpt><trkpt lat="45.0122423" lon="11.7419259"><ele>3.0</ele><time>2026-04-26T17:51:57.86Z</time></trkpt><trkpt lat="45.0122598" lon="11.7417844"><ele>3.0</ele><time>2026-04-26T17:51:58.86Z</time></trkpt><trkpt lat="45.01228" lon="11.7416301"><ele>3.0</ele><time>2026-04-26T17:51:59.859Z</time></trkpt><trkpt lat="45.0123017" lon="11.741467"><ele>3.75</ele><time>2026-04-26T17:52:00.86Z</time></trkpt><trkpt lat="45.0123313" lon="11.7413039"><ele>4.5</ele><time>2026-04-26T17:52:01.859Z</time></trkpt><trkpt lat="45.0123592" lon="11.7411393"><ele>5.25</ele><time>2026-04-26T17:52:02.86Z</time></trkpt><trkpt lat="45.0123875" lon="11.7409787"><ele>6.0</ele><time>2026-04-26T17:52:03.86Z</time></trkpt><trkpt lat="45.0124146" lon="11.7408344"><ele>6.0</ele><time>2026-04-26T17:52:04.859Z</time></trkpt><trkpt lat="45.0124371" lon="11.7407012"><ele>6.0</ele><time>2026-04-26T17:52:05.859Z</time></trkpt><trkpt lat="45.0124637" lon="11.74057"><ele>6.0</ele><time>2026-04-26T17:52:06.859Z</time></trkpt><trkpt lat="45.0124903" lon="11.7404277"><ele>6.0</ele><time>2026-04-26T17:52:07.859Z</time></trkpt><trkpt lat="45.0125253" lon="11.7402588"><ele>6.0</ele><time>2026-04-26T17:52:08.859Z</time></trkpt><trkpt lat="45.0125581" lon="11.7400753"><ele>5.75</ele><time>2026-04-26T17:52:09.86Z</time></trkpt><trkpt lat="45.012587" lon="11.7398821"><ele>5.5</ele><time>2026-04-26T17:52:10.86Z</time></trkpt><trkpt lat="45.0126175" lon="11.7396947"><ele>5.25</ele><time>2026-04-26T17:52:11.86Z</time></trkpt><trkpt lat="45.0126475" lon="11.7395207"><ele>5.0</ele><time>2026-04-26T17:52:12.859Z</time></trkpt><trkpt lat="45.0126741" lon="11.7393568"><ele>5.0</ele><time>2026-04-26T17:52:13.859Z</time></trkpt><trkpt lat="45.012701" lon="11.7391925"><ele>5.0</ele><time>2026-04-26T17:52:14.859Z</time></trkpt><trkpt lat="45.0127259" lon="11.7390355"><ele>5.0</ele><time>2026-04-26T17:52:15.86Z</time></trkpt><trkpt lat="45.0127558" lon="11.738868"><ele>5.0</ele><time>2026-04-26T17:52:16.859Z</time></trkpt><trkpt lat="45.0127851" lon="11.7386968"><ele>4.333333333333334</ele><time>2026-04-26T17:52:17.859Z</time></trkpt><trkpt lat="45.0128186" lon="11.7385075"><ele>3.666666666666667</ele><time>2026-04-26T17:52:18.859Z</time></trkpt><trkpt lat="45.0128518" lon="11.7382902"><ele>3.0</ele><time>2026-04-26T17:52:19.86Z</time></trkpt><trkpt lat="45.012877" lon="11.7380385"><ele>3.0</ele><time>2026-04-26T17:52:20.86Z</time></trkpt><trkpt lat="45.0128862" lon="11.7377703"><ele>3.0</ele><time>2026-04-26T17:52:21.86Z</time></trkpt><trkpt lat="45.0128757" lon="11.7374744"><ele>3.0</ele><time>2026-04-26T17:52:22.859Z</time></trkpt><trkpt lat="45.0128447" lon="11.7371545"><ele>3.0</ele><time>2026-04-26T17:52:23.86Z</time></trkpt><trkpt lat="45.0127967" lon="11.7368167"><ele>3.0</ele><time>2026-04-26T17:52:24.859Z</time></trkpt><trkpt lat="45.012733" lon="11.7364721"><ele>3.0</ele><time>2026-04-26T17:52:25.86Z</time></trkpt><trkpt lat="45.012657" lon="11.7361323"><ele>3.0</ele><time>2026-04-26T17:52:26.859Z</time></trkpt><trkpt lat="45.012591" lon="11.7358032"><ele>3.0</ele><time>2026-04-26T17:52:27.86Z</time></trkpt><trkpt lat="45.0125376" lon="11.7354716"><ele>3.0</ele><time>2026-04-26T17:52:28.86Z</time></trkpt><trkpt lat="45.0125059" lon="11.7351257"><ele>3.0</ele><time>2026-04-26T17:52:29.859Z</time></trkpt><trkpt lat="45.0124982" lon="11.734766"><ele>3.0</ele><time>2026-04-26T17:52:30.859Z</time></trkpt><trkpt lat="45.0125221" lon="11.7343814"><ele>3.0</ele><time>2026-04-26T17:52:31.859Z</time></trkpt><trkpt lat="45.0125654" lon="11.7339947"><ele>3.0</ele><time>2026-04-26T17:52:32.859Z</time></trkpt><trkpt lat="45.0126218" lon="11.7335958"><ele>3.0</ele><time>2026-04-26T17:52:33.86Z</time></trkpt><trkpt lat="45.0126757" lon="11.7331896"><ele>3.0</ele><time>2026-04-26T17:52:34.859Z</time></trkpt><trkpt lat="45.0127303" lon="11.7327777"><ele>3.0</ele><time>2026-04-26T17:52:35.859Z</time></trkpt><trkpt lat="45.0127852" lon="11.7323841"><ele>3.0</ele><time>2026-04-26T17:52:36.859Z</time></trkpt><trkpt lat="45.0128293" lon="11.7320632"><ele>3.0</ele><time>2026-04-26T17:52:37.86Z</time></trkpt><trkpt lat="45.0128606" lon="11.7318229"><ele>3.0</ele><time>2026-04-26T17:52:38.86Z</time></trkpt><trkpt lat="45.0128853" lon="11.7315968"><ele>3.0</ele><time>2026-04-26T17:52:39.86Z</time></trkpt><trkpt lat="45.0129154" lon="11.7313564"><ele>3.0</ele><time>2026-04-26T17:52:40.859Z</time></trkpt><trkpt lat="45.0129557" lon="11.7310998"><ele>3.0</ele><time>2026-04-26T17:52:41.859Z</time></trkpt><trkpt lat="45.0129958" lon="11.7308339"><ele>3.0</ele><time>2026-04-26T17:52:42.86Z</time></trkpt><trkpt lat="45.0130323" lon="11.7305517"><ele>2.6666666666666665</ele><time>2026-04-26T17:52:43.86Z</time></trkpt><trkpt lat="45.0130694" lon="11.7302619"><ele>2.333333333333333</ele><time>2026-04-26T17:52:44.859Z</time></trkpt><trkpt lat="45.0131085" lon="11.7299701"><ele>2.0</ele><time>2026-04-26T17:52:45.859Z</time></trkpt><trkpt lat="45.013146" lon="11.7296764"><ele>2.6666666666666665</ele><time>2026-04-26T17:52:46.86Z</time></trkpt><trkpt lat="45.0131859" lon="11.7293937"><ele>3.333333333333333</ele><time>2026-04-26T17:52:47.86Z</time></trkpt><trkpt lat="45.0132243" lon="11.7291131"><ele>4.0</ele><time>2026-04-26T17:52:48.86Z</time></trkpt><trkpt lat="45.0132586" lon="11.7288434"><ele>4.0</ele><time>2026-04-26T17:52:49.86Z</time></trkpt><trkpt lat="45.0132986" lon="11.7285713"><ele>4.0</ele><time>2026-04-26T17:52:50.859Z</time></trkpt><trkpt lat="45.0133355" lon="11.7283025"><ele>4.0</ele><time>2026-04-26T17:52:51.859Z</time></trkpt><trkpt lat="45.0133748" lon="11.7280259"><ele>4.0</ele><time>2026-04-26T17:52:52.86Z</time></trkpt><trkpt lat="45.0134091" lon="11.7277399"><ele>4.0</ele><time>2026-04-26T17:52:53.859Z</time></trkpt><trkpt lat="45.0134477" lon="11.72745"><ele>4.0</ele><time>2026-04-26T17:52:54.859Z</time></trkpt><trkpt lat="45.0134882" lon="11.7271585"><ele>4.666666666666666</ele><time>2026-04-26T17:52:55.859Z</time></trkpt><trkpt lat="45.0135352" lon="11.7268631"><ele>5.333333333333333</ele><time>2026-04-26T17:52:56.859Z</time></trkpt><trkpt lat="45.0135775" lon="11.726568"><ele>6.0</ele><time>2026-04-26T17:52:57.859Z</time></trkpt><trkpt lat="45.0136213" lon="11.7262662"><ele>5.666666666666667</ele><time>2026-04-26T17:52:58.86Z</time></trkpt><trkpt lat="45.0136599" lon="11.7259768"><ele>5.333333333333334</ele><time>2026-04-26T17:52:59.859Z</time></trkpt><trkpt lat="45.0137022" lon="11.7257094"><ele>5.0</ele><time>2026-04-26T17:53:00.859Z</time></trkpt><trkpt lat="45.0137413" lon="11.7254456"><ele>4.666666666666667</ele><time>2026-04-26T17:53:01.859Z</time></trkpt><trkpt lat="45.0137739" lon="11.7251794"><ele>4.333333333333333</ele><time>2026-04-26T17:53:02.86Z</time></trkpt><trkpt lat="45.0137973" lon="11.7249054"><ele>4.0</ele><time>2026-04-26T17:53:03.86Z</time></trkpt><trkpt lat="45.0138145" lon="11.7246208"><ele>4.0</ele><time>2026-04-26T17:53:04.859Z</time></trkpt><trkpt lat="45.0138246" lon="11.7243382"><ele>4.0</ele><time>2026-04-26T17:53:05.86Z</time></trkpt><trkpt lat="45.0138338" lon="11.7240663"><ele>4.0</ele><time>2026-04-26T17:53:06.86Z</time></trkpt><trkpt lat="45.0138407" lon="11.7238149"><ele>4.0</ele><time>2026-04-26T17:53:07.859Z</time></trkpt><trkpt lat="45.0138432" lon="11.7235837"><ele>4.0</ele><time>2026-04-26T17:53:08.859Z</time></trkpt><trkpt lat="45.0138248" lon="11.7233675"><ele>4.0</ele><time>2026-04-26T17:53:09.86Z</time></trkpt><trkpt lat="45.013781" lon="11.7231547"><ele>4.333333333333333</ele><time>2026-04-26T17:53:10.86Z</time></trkpt><trkpt lat="45.0137102" lon="11.7229403"><ele>4.666666666666667</ele><time>2026-04-26T17:53:11.859Z</time></trkpt><trkpt lat="45.0136089" lon="11.7227249"><ele>5.0</ele><time>2026-04-26T17:53:12.86Z</time></trkpt><trkpt lat="45.0134902" lon="11.7225141"><ele>5.0</ele><time>2026-04-26T17:53:13.86Z</time></trkpt><trkpt lat="45.0133612" lon="11.7222904"><ele>5.0</ele><time>2026-04-26T17:53:14.859Z</time></trkpt><trkpt lat="45.0132251" lon="11.7220534"><ele>5.0</ele><time>2026-04-26T17:53:15.86Z</time></trkpt><trkpt lat="45.0130737" lon="11.7218096"><ele>5.0</ele><time>2026-04-26T17:53:16.859Z</time></trkpt><trkpt lat="45.0129011" lon="11.7215685"><ele>5.0</ele><time>2026-04-26T17:53:17.859Z</time></trkpt><trkpt lat="45.012709" lon="11.7213173"><ele>5.0</ele><time>2026-04-26T17:53:18.859Z</time></trkpt><trkpt lat="45.0125044" lon="11.7210598"><ele>5.0</ele><time>2026-04-26T17:53:19.859Z</time></trkpt><trkpt lat="45.0122955" lon="11.7207938"><ele>4.5</ele><time>2026-04-26T17:53:20.859Z</time></trkpt><trkpt lat="45.0120778" lon="11.7205159"><ele>4.0</ele><time>2026-04-26T17:53:21.859Z</time></trkpt><trkpt lat="45.0118559" lon="11.7202363"><ele>2.5</ele><time>2026-04-26T17:53:22.859Z</time></trkpt><trkpt lat="45.0116325" lon="11.7199602"><ele>1.0</ele><time>2026-04-26T17:53:23.859Z</time></trkpt><trkpt lat="45.0114044" lon="11.71968"><ele>2.0</ele><time>2026-04-26T17:53:24.859Z</time></trkpt><trkpt lat="45.0111718" lon="11.7193903"><ele>3.0</ele><time>2026-04-26T17:53:25.859Z</time></trkpt><trkpt lat="45.0109413" lon="11.7190926"><ele>3.5</ele><time>2026-04-26T17:53:26.86Z</time></trkpt><trkpt lat="45.0107198" lon="11.718803"><ele>4.0</ele><time>2026-04-26T17:53:27.86Z</time></trkpt><trkpt lat="45.0105127" lon="11.7185138"><ele>4.5</ele><time>2026-04-26T17:53:28.86Z</time></trkpt><trkpt lat="45.0103213" lon="11.7182259"><ele>5.0</ele><time>2026-04-26T17:53:29.859Z</time></trkpt><trkpt lat="45.0101291" lon="11.7179265"><ele>4.5</ele><time>2026-04-26T17:53:30.859Z</time></trkpt><trkpt lat="45.0099283" lon="11.7176254"><ele>4.0</ele><time>2026-04-26T17:53:31.86Z</time></trkpt><trkpt lat="45.0097242" lon="11.7173145"><ele>4.0</ele><time>2026-04-26T17:53:32.86Z</time></trkpt><trkpt lat="45.0095167" lon="11.7170023"><ele>4.0</ele><time>2026-04-26T17:53:33.859Z</time></trkpt><trkpt lat="45.009312" lon="11.716692"><ele>3.5</ele><time>2026-04-26T17:53:34.859Z</time></trkpt><trkpt lat="45.0091157" lon="11.7163994"><ele>3.0</ele><time>2026-04-26T17:53:35.86Z</time></trkpt><trkpt lat="45.0089424" lon="11.71612"><ele>3.5</ele><time>2026-04-26T17:53:36.859Z</time></trkpt><trkpt lat="45.0087902" lon="11.7158482"><ele>4.0</ele><time>2026-04-26T17:53:37.86Z</time></trkpt><trkpt lat="45.0086596" lon="11.7155582"><ele>4.0</ele><time>2026-04-26T17:53:38.86Z</time></trkpt><trkpt lat="45.0085483" lon="11.7152493"><ele>4.0</ele><time>2026-04-26T17:53:39.859Z</time></trkpt><trkpt lat="45.0084604" lon="11.7149297"><ele>4.0</ele><time>2026-04-26T17:53:40.859Z</time></trkpt><trkpt lat="45.0083906" lon="11.7146036"><ele>4.0</ele><time>2026-04-26T17:53:41.859Z</time></trkpt><trkpt lat="45.0083415" lon="11.7142815"><ele>3.5</ele><time>2026-04-26T17:53:42.86Z</time></trkpt><trkpt lat="45.0083232" lon="11.7139502"><ele>3.0</ele><time>2026-04-26T17:53:43.86Z</time></trkpt><trkpt lat="45.008324" lon="11.7136162"><ele>3.5</ele><time>2026-04-26T17:53:44.86Z</time></trkpt><trkpt lat="45.0083461" lon="11.7132826"><ele>4.0</ele><time>2026-04-26T17:53:45.86Z</time></trkpt><trkpt lat="45.008393" lon="11.7129474"><ele>4.5</ele><time>2026-04-26T17:53:46.86Z</time></trkpt><trkpt lat="45.0084596" lon="11.7126247"><ele>5.0</ele><time>2026-04-26T17:53:47.859Z</time></trkpt><trkpt lat="45.008547" lon="11.712305"><ele>5.0</ele><time>2026-04-26T17:53:48.859Z</time></trkpt><trkpt lat="45.0086471" lon="11.7119969"><ele>5.0</ele><time>2026-04-26T17:53:49.859Z</time></trkpt><trkpt lat="45.0087481" lon="11.711689"><ele>4.5</ele><time>2026-04-26T17:53:50.86Z</time></trkpt><trkpt lat="45.0088535" lon="11.7113884"><ele>4.0</ele><time>2026-04-26T17:53:51.86Z</time></trkpt><trkpt lat="45.0089545" lon="11.7110863"><ele>3.5</ele><time>2026-04-26T17:53:52.859Z</time></trkpt><trkpt lat="45.0090539" lon="11.7107828"><ele>3.0</ele><time>2026-04-26T17:53:53.859Z</time></trkpt><trkpt lat="45.0091475" lon="11.710487"><ele>3.333333333333333</ele><time>2026-04-26T17:53:54.86Z</time></trkpt><trkpt lat="45.0092484" lon="11.7101997"><ele>3.6666666666666665</ele><time>2026-04-26T17:53:55.86Z</time></trkpt><trkpt lat="45.0093549" lon="11.7099234"><ele>4.0</ele><time>2026-04-26T17:53:56.859Z</time></trkpt><trkpt lat="45.0094688" lon="11.7096803"><ele>4.0</ele><time>2026-04-26T17:53:57.859Z</time></trkpt><trkpt lat="45.0096247" lon="11.7094457"><ele>4.0</ele><time>2026-04-26T17:53:58.859Z</time></trkpt><trkpt lat="45.0097758" lon="11.7092067"><ele>4.0</ele><time>2026-04-26T17:53:59.86Z</time></trkpt><trkpt lat="45.0099222" lon="11.7089714"><ele>4.0</ele><time>2026-04-26T17:54:00.859Z</time></trkpt><trkpt lat="45.0100597" lon="11.7087428"><ele>4.0</ele><time>2026-04-26T17:54:01.859Z</time></trkpt><trkpt lat="45.0101852" lon="11.7085179"><ele>4.333333333333333</ele><time>2026-04-26T17:54:02.859Z</time></trkpt><trkpt lat="45.0103058" lon="11.708303"><ele>4.666666666666667</ele><time>2026-04-26T17:54:03.859Z</time></trkpt><trkpt lat="45.010427" lon="11.7080837"><ele>5.0</ele><time>2026-04-26T17:54:04.86Z</time></trkpt><trkpt lat="45.0105375" lon="11.707865"><ele>4.666666666666667</ele><time>2026-04-26T17:54:05.859Z</time></trkpt><trkpt lat="45.0106564" lon="11.7076525"><ele>4.333333333333333</ele><time>2026-04-26T17:54:06.859Z</time></trkpt><trkpt lat="45.0107696" lon="11.7074378"><ele>4.0</ele><time>2026-04-26T17:54:07.859Z</time></trkpt><trkpt lat="45.0108843" lon="11.7072193"><ele>4.0</ele><time>2026-04-26T17:54:08.86Z</time></trkpt><trkpt lat="45.0109952" lon="11.7070053"><ele>4.0</ele><time>2026-04-26T17:54:09.859Z</time></trkpt><trkpt lat="45.0111052" lon="11.706794"><ele>4.0</ele><time>2026-04-26T17:54:10.859Z</time></trkpt><trkpt lat="45.011213" lon="11.7065758"><ele>4.0</ele><time>2026-04-26T17:54:11.86Z</time></trkpt><trkpt lat="45.0113213" lon="11.7063639"><ele>4.0</ele><time>2026-04-26T17:54:12.86Z</time></trkpt><trkpt lat="45.0114292" lon="11.7061542"><ele>4.0</ele><time>2026-04-26T17:54:13.86Z</time></trkpt><trkpt lat="45.0115334" lon="11.7059411"><ele>4.333333333333333</ele><time>2026-04-26T17:54:14.86Z</time></trkpt><trkpt lat="45.0116324" lon="11.7057344"><ele>4.666666666666667</ele><time>2026-04-26T17:54:15.859Z</time></trkpt><trkpt lat="45.0117252" lon="11.7055238"><ele>5.0</ele><time>2026-04-26T17:54:16.86Z</time></trkpt><trkpt lat="45.0118074" lon="11.705305"><ele>5.0</ele><time>2026-04-26T17:54:17.859Z</time></trkpt><trkpt lat="45.0118794" lon="11.7050767"><ele>5.0</ele><time>2026-04-26T17:54:18.859Z</time></trkpt><trkpt lat="45.0119474" lon="11.7048478"><ele>5.0</ele><time>2026-04-26T17:54:19.859Z</time></trkpt><trkpt lat="45.0120148" lon="11.704608"><ele>5.0</ele><time>2026-04-26T17:54:20.86Z</time></trkpt><trkpt lat="45.0120823" lon="11.7043727"><ele>5.0</ele><time>2026-04-26T17:54:21.86Z</time></trkpt><trkpt lat="45.0121505" lon="11.7041424"><ele>5.0</ele><time>2026-04-26T17:54:22.859Z</time></trkpt><trkpt lat="45.0122163" lon="11.7039039"><ele>5.0</ele><time>2026-04-26T17:54:23.859Z</time></trkpt><trkpt lat="45.0122733" lon="11.7036812"><ele>5.0</ele><time>2026-04-26T17:54:24.86Z</time></trkpt><trkpt lat="45.0123307" lon="11.7034626"><ele>5.0</ele><time>2026-04-26T17:54:25.859Z</time></trkpt><trkpt lat="45.012394" lon="11.7032455"><ele>5.0</ele><time>2026-04-26T17:54:26.859Z</time></trkpt><trkpt lat="45.0124562" lon="11.70303"><ele>5.0</ele><time>2026-04-26T17:54:27.859Z</time></trkpt><trkpt lat="45.01252" lon="11.7028151"><ele>5.0</ele><time>2026-04-26T17:54:28.859Z</time></trkpt><trkpt lat="45.0125797" lon="11.702599"><ele>5.0</ele><time>2026-04-26T17:54:29.859Z</time></trkpt><trkpt lat="45.0126375" lon="11.7023809"><ele>5.0</ele><time>2026-04-26T17:54:30.859Z</time></trkpt><trkpt lat="45.0126937" lon="11.7021653"><ele>5.0</ele><time>2026-04-26T17:54:31.86Z</time></trkpt><trkpt lat="45.0127467" lon="11.7019528"><ele>5.0</ele><time>2026-04-26T17:54:32.859Z</time></trkpt><trkpt lat="45.0128006" lon="11.7017343"><ele>5.0</ele><time>2026-04-26T17:54:33.859Z</time></trkpt><trkpt lat="45.0128545" lon="11.7015182"><ele>5.0</ele><time>2026-04-26T17:54:34.859Z</time></trkpt><trkpt lat="45.0129106" lon="11.7013054"><ele>5.0</ele><time>2026-04-26T17:54:35.86Z</time></trkpt><trkpt lat="45.0129658" lon="11.7010913"><ele>5.0</ele><time>2026-04-26T17:54:36.86Z</time></trkpt><trkpt lat="45.0130157" lon="11.7008796"><ele>5.0</ele><time>2026-04-26T17:54:37.859Z</time></trkpt><trkpt lat="45.0130674" lon="11.7006691"><ele>4.666666666666667</ele><time>2026-04-26T17:54:38.859Z</time></trkpt><trkpt lat="45.0131145" lon="11.7004623"><ele>4.333333333333333</ele><time>2026-04-26T17:54:39.859Z</time></trkpt><trkpt lat="45.0131614" lon="11.7002511"><ele>4.0</ele><time>2026-04-26T17:54:40.859Z</time></trkpt><trkpt lat="45.0132046" lon="11.700036"><ele>4.0</ele><time>2026-04-26T17:54:41.859Z</time></trkpt><trkpt lat="45.0132433" lon="11.6998186"><ele>4.0</ele><time>2026-04-26T17:54:42.86Z</time></trkpt><trkpt lat="45.0132927" lon="11.6996055"><ele>4.0</ele><time>2026-04-26T17:54:43.859Z</time></trkpt><trkpt lat="45.0133358" lon="11.6993868"><ele>4.333333333333333</ele><time>2026-04-26T17:54:44.86Z</time></trkpt><trkpt lat="45.013382" lon="11.6991643"><ele>4.666666666666667</ele><time>2026-04-26T17:54:45.859Z</time></trkpt><trkpt lat="45.0134306" lon="11.6989509"><ele>5.0</ele><time>2026-04-26T17:54:46.86Z</time></trkpt><trkpt lat="45.0134831" lon="11.6987338"><ele>4.666666666666667</ele><time>2026-04-26T17:54:47.86Z</time></trkpt><trkpt lat="45.0135345" lon="11.6985241"><ele>4.333333333333333</ele><time>2026-04-26T17:54:48.859Z</time></trkpt><trkpt lat="45.013585" lon="11.6983189"><ele>4.0</ele><time>2026-04-26T17:54:49.86Z</time></trkpt><trkpt lat="45.0136336" lon="11.698112"><ele>4.0</ele><time>2026-04-26T17:54:50.859Z</time></trkpt><trkpt lat="45.0136776" lon="11.6979023"><ele>4.0</ele><time>2026-04-26T17:54:51.859Z</time></trkpt><trkpt lat="45.0137174" lon="11.6976991"><ele>4.0</ele><time>2026-04-26T17:54:52.859Z</time></trkpt><trkpt lat="45.0137555" lon="11.69749"><ele>4.25</ele><time>2026-04-26T17:54:53.859Z</time></trkpt><trkpt lat="45.0137895" lon="11.6972943"><ele>4.5</ele><time>2026-04-26T17:54:54.86Z</time></trkpt><trkpt lat="45.0138199" lon="11.6970949"><ele>4.75</ele><time>2026-04-26T17:54:55.859Z</time></trkpt><trkpt lat="45.0138512" lon="11.6968939"><ele>5.0</ele><time>2026-04-26T17:54:56.859Z</time></trkpt><trkpt lat="45.0138799" lon="11.6966868"><ele>5.0</ele><time>2026-04-26T17:54:57.86Z</time></trkpt><trkpt lat="45.0139081" lon="11.6964786"><ele>5.0</ele><time>2026-04-26T17:54:58.859Z</time></trkpt><trkpt lat="45.0139407" lon="11.6962633"><ele>5.0</ele><time>2026-04-26T17:54:59.859Z</time></trkpt><trkpt lat="45.0139742" lon="11.6960471"><ele>5.0</ele><time>2026-04-26T17:55:00.86Z</time></trkpt><trkpt lat="45.0140121" lon="11.6958255"><ele>5.0</ele><time>2026-04-26T17:55:01.859Z</time></trkpt><trkpt lat="45.0140453" lon="11.6956108"><ele>5.0</ele><time>2026-04-26T17:55:02.86Z</time></trkpt><trkpt lat="45.0140872" lon="11.6953967"><ele>5.333333333333334</ele><time>2026-04-26T17:55:03.859Z</time></trkpt><trkpt lat="45.01413" lon="11.6951819"><ele>5.666666666666667</ele><time>2026-04-26T17:55:04.86Z</time></trkpt><trkpt lat="45.014168" lon="11.694971"><ele>6.0</ele><time>2026-04-26T17:55:05.86Z</time></trkpt><trkpt lat="45.0142022" lon="11.6947566"><ele>6.0</ele><time>2026-04-26T17:55:06.86Z</time></trkpt><trkpt lat="45.0142404" lon="11.6945472"><ele>6.0</ele><time>2026-04-26T17:55:07.859Z</time></trkpt><trkpt lat="45.0142728" lon="11.6943417"><ele>6.0</ele><time>2026-04-26T17:55:08.86Z</time></trkpt><trkpt lat="45.014298" lon="11.6941552"><ele>6.0</ele><time>2026-04-26T17:55:09.86Z</time></trkpt><trkpt lat="45.0143261" lon="11.6939777"><ele>6.199999999999999</ele><time>2026-04-26T17:55:10.859Z</time></trkpt><trkpt lat="45.0143548" lon="11.6938114"><ele>6.3999999999999995</ele><time>2026-04-26T17:55:11.86Z</time></trkpt><trkpt lat="45.014387" lon="11.6936589"><ele>6.6</ele><time>2026-04-26T17:55:12.859Z</time></trkpt><trkpt lat="45.0144095" lon="11.6935131"><ele>6.8</ele><time>2026-04-26T17:55:13.86Z</time></trkpt><trkpt lat="45.0144319" lon="11.6933664"><ele>7.0</ele><time>2026-04-26T17:55:14.859Z</time></trkpt><trkpt lat="45.0144408" lon="11.6932246"><ele>7.0</ele><time>2026-04-26T17:55:15.859Z</time></trkpt><trkpt lat="45.0144563" lon="11.6930585"><ele>7.0</ele><time>2026-04-26T17:55:16.86Z</time></trkpt><trkpt lat="45.0144777" lon="11.6928722"><ele>7.0</ele><time>2026-04-26T17:55:17.859Z</time></trkpt><trkpt lat="45.0145044" lon="11.6926635"><ele>7.0</ele><time>2026-04-26T17:55:18.859Z</time></trkpt><trkpt lat="45.0145454" lon="11.6924411"><ele>6.333333333333334</ele><time>2026-04-26T17:55:19.86Z</time></trkpt><trkpt lat="45.0145955" lon="11.6922129"><ele>5.666666666666667</ele><time>2026-04-26T17:55:20.859Z</time></trkpt><trkpt lat="45.0146433" lon="11.6919751"><ele>5.0</ele><time>2026-04-26T17:55:21.859Z</time></trkpt><trkpt lat="45.0146742" lon="11.6917252"><ele>5.0</ele><time>2026-04-26T17:55:22.859Z</time></trkpt><trkpt lat="45.0146838" lon="11.6914638"><ele>5.0</ele><time>2026-04-26T17:55:23.86Z</time></trkpt><trkpt lat="45.014674" lon="11.6911894"><ele>5.0</ele><time>2026-04-26T17:55:24.86Z</time></trkpt><trkpt lat="45.014647" lon="11.6909"><ele>5.0</ele><time>2026-04-26T17:55:25.859Z</time></trkpt><trkpt lat="45.0146142" lon="11.6905922"><ele>5.0</ele><time>2026-04-26T17:55:26.859Z</time></trkpt><trkpt lat="45.0145882" lon="11.6902794"><ele>5.0</ele><time>2026-04-26T17:55:27.86Z</time></trkpt><trkpt lat="45.0145841" lon="11.6899641"><ele>4.666666666666667</ele><time>2026-04-26T17:55:28.859Z</time></trkpt><trkpt lat="45.0145997" lon="11.689658"><ele>4.333333333333333</ele><time>2026-04-26T17:55:29.86Z</time></trkpt><trkpt lat="45.0146359" lon="11.6893637"><ele>4.0</ele><time>2026-04-26T17:55:30.86Z</time></trkpt><trkpt lat="45.0146862" lon="11.6890752"><ele>4.0</ele><time>2026-04-26T17:55:31.86Z</time></trkpt><trkpt lat="45.0147608" lon="11.6887971"><ele>4.0</ele><time>2026-04-26T17:55:32.859Z</time></trkpt><trkpt lat="45.0148528" lon="11.6885294"><ele>4.0</ele><time>2026-04-26T17:55:33.859Z</time></trkpt><trkpt lat="45.0149573" lon="11.6882734"><ele>5.0</ele><time>2026-04-26T17:55:34.859Z</time></trkpt><trkpt lat="45.0150747" lon="11.6880143"><ele>6.0</ele><time>2026-04-26T17:55:35.86Z</time></trkpt><trkpt lat="45.0152007" lon="11.6877643"><ele>7.0</ele><time>2026-04-26T17:55:36.859Z</time></trkpt><trkpt lat="45.0153215" lon="11.6875107"><ele>7.0</ele><time>2026-04-26T17:55:37.859Z</time></trkpt><trkpt lat="45.015437" lon="11.68726"><ele>7.0</ele><time>2026-04-26T17:55:38.859Z</time></trkpt><trkpt lat="45.0155554" lon="11.687005"><ele>7.0</ele><time>2026-04-26T17:55:39.86Z</time></trkpt><trkpt lat="45.0156734" lon="11.6867557"><ele>6.333333333333334</ele><time>2026-04-26T17:55:40.86Z</time></trkpt><trkpt lat="45.0157852" lon="11.6865156"><ele>5.666666666666667</ele><time>2026-04-26T17:55:41.859Z</time></trkpt><trkpt lat="45.0158944" lon="11.6862878"><ele>5.0</ele><time>2026-04-26T17:55:42.86Z</time></trkpt><trkpt lat="45.0160057" lon="11.686058"><ele>5.0</ele><time>2026-04-26T17:55:43.86Z</time></trkpt><trkpt lat="45.0161398" lon="11.6858356"><ele>5.0</ele><time>2026-04-26T17:55:44.86Z</time></trkpt><trkpt lat="45.0163043" lon="11.6856179"><ele>5.0</ele><time>2026-04-26T17:55:45.859Z</time></trkpt><trkpt lat="45.0164995" lon="11.6854105"><ele>5.0</ele><time>2026-04-26T17:55:46.859Z</time></trkpt><trkpt lat="45.0167051" lon="11.6851933"><ele>5.0</ele><time>2026-04-26T17:55:47.859Z</time></trkpt><trkpt lat="45.0169256" lon="11.6849715"><ele>5.0</ele><time>2026-04-26T17:55:48.859Z</time></trkpt><trkpt lat="45.0171486" lon="11.6847287"><ele>5.0</ele><time>2026-04-26T17:55:49.859Z</time></trkpt><trkpt lat="45.0173766" lon="11.684476"><ele>5.0</ele><time>2026-04-26T17:55:50.859Z</time></trkpt><trkpt lat="45.017611" lon="11.6842254"><ele>5.0</ele><time>2026-04-26T17:55:51.859Z</time></trkpt><trkpt lat="45.0178396" lon="11.6839882"><ele>5.0</ele><time>2026-04-26T17:55:52.859Z</time></trkpt><trkpt lat="45.0180596" lon="11.6837533"><ele>5.0</ele><time>2026-04-26T17:55:53.859Z</time></trkpt><trkpt lat="45.0182727" lon="11.6835238"><ele>5.0</ele><time>2026-04-26T17:55:54.859Z</time></trkpt><trkpt lat="45.018472" lon="11.6833074"><ele>5.0</ele><time>2026-04-26T17:55:55.86Z</time></trkpt><trkpt lat="45.0186666" lon="11.6831058"><ele>5.0</ele><time>2026-04-26T17:55:56.86Z</time></trkpt><trkpt lat="45.0188396" lon="11.6828902"><ele>5.0</ele><time>2026-04-26T17:55:57.86Z</time></trkpt><trkpt lat="45.0189921" lon="11.6826708"><ele>5.0</ele><time>2026-04-26T17:55:58.859Z</time></trkpt><trkpt lat="45.0191256" lon="11.6824497"><ele>5.0</ele><time>2026-04-26T17:55:59.86Z</time></trkpt><trkpt lat="45.0192398" lon="11.6822124"><ele>5.0</ele><time>2026-04-26T17:56:00.859Z</time></trkpt><trkpt lat="45.0193359" lon="11.6819711"><ele>5.0</ele><time>2026-04-26T17:56:01.859Z</time></trkpt><trkpt lat="45.0193912" lon="11.6817129"><ele>5.0</ele><time>2026-04-26T17:56:02.86Z</time></trkpt><trkpt lat="45.0194406" lon="11.6814332"><ele>5.0</ele><time>2026-04-26T17:56:03.859Z</time></trkpt><trkpt lat="45.0194654" lon="11.6811422"><ele>5.0</ele><time>2026-04-26T17:56:04.859Z</time></trkpt><trkpt lat="45.0194772" lon="11.6808442"><ele>5.0</ele><time>2026-04-26T17:56:05.86Z</time></trkpt><trkpt lat="45.0194799" lon="11.6805329"><ele>5.0</ele><time>2026-04-26T17:56:06.859Z</time></trkpt><trkpt lat="45.0194748" lon="11.6802076"><ele>4.5</ele><time>2026-04-26T17:56:07.86Z</time></trkpt><trkpt lat="45.0194647" lon="11.6798726"><ele>4.0</ele><time>2026-04-26T17:56:08.86Z</time></trkpt><trkpt lat="45.0194551" lon="11.6795255"><ele>4.0</ele><time>2026-04-26T17:56:09.859Z</time></trkpt><trkpt lat="45.019447" lon="11.6791649"><ele>4.0</ele><time>2026-04-26T17:56:10.859Z</time></trkpt><trkpt lat="45.0194398" lon="11.6788008"><ele>3.0</ele><time>2026-04-26T17:56:11.859Z</time></trkpt><trkpt lat="45.0194335" lon="11.6784276"><ele>2.0</ele><time>2026-04-26T17:56:12.859Z</time></trkpt><trkpt lat="45.0194293" lon="11.6780635"><ele>2.0</ele><time>2026-04-26T17:56:13.859Z</time></trkpt><trkpt lat="45.0194248" lon="11.6777195"><ele>2.0</ele><time>2026-04-26T17:56:14.859Z</time></trkpt><trkpt lat="45.0194269" lon="11.6773857"><ele>2.0</ele><time>2026-04-26T17:56:15.859Z</time></trkpt><trkpt lat="45.0194587" lon="11.6770904"><ele>2.0</ele><time>2026-04-26T17:56:16.859Z</time></trkpt><trkpt lat="45.0195051" lon="11.6768014"><ele>2.0</ele><time>2026-04-26T17:56:17.859Z</time></trkpt><trkpt lat="45.0195586" lon="11.6765137"><ele>2.0</ele><time>2026-04-26T17:56:18.859Z</time></trkpt><trkpt lat="45.0196485" lon="11.6762462"><ele>2.0</ele><time>2026-04-26T17:56:19.86Z</time></trkpt><trkpt lat="45.0197602" lon="11.6759955"><ele>2.0</ele><time>2026-04-26T17:56:20.86Z</time></trkpt><trkpt lat="45.0198782" lon="11.6757734"><ele>2.6666666666666665</ele><time>2026-04-26T17:56:21.86Z</time></trkpt><trkpt lat="45.0200124" lon="11.6755645"><ele>3.333333333333333</ele><time>2026-04-26T17:56:22.86Z</time></trkpt><trkpt lat="45.0201604" lon="11.6753696"><ele>4.0</ele><time>2026-04-26T17:56:23.86Z</time></trkpt><trkpt lat="45.0203186" lon="11.6752117"><ele>4.0</ele><time>2026-04-26T17:56:24.86Z</time></trkpt><trkpt lat="45.0204931" lon="11.6750845"><ele>4.0</ele><time>2026-04-26T17:56:25.86Z</time></trkpt><trkpt lat="45.020688" lon="11.6749722"><ele>4.0</ele><time>2026-04-26T17:56:26.86Z</time></trkpt><trkpt lat="45.0208972" lon="11.6748655"><ele>4.666666666666666</ele><time>2026-04-26T17:56:27.86Z</time></trkpt><trkpt lat="45.0210996" lon="11.6747503"><ele>5.333333333333333</ele><time>2026-04-26T17:56:28.86Z</time></trkpt><trkpt lat="45.0213016" lon="11.6746422"><ele>6.0</ele><time>2026-04-26T17:56:29.86Z</time></trkpt><trkpt lat="45.0214941" lon="11.6745417"><ele>5.666666666666667</ele><time>2026-04-26T17:56:30.86Z</time></trkpt><trkpt lat="45.0216813" lon="11.6744451"><ele>5.333333333333334</ele><time>2026-04-26T17:56:31.86Z</time></trkpt><trkpt lat="45.021869" lon="11.6743609"><ele>5.0</ele><time>2026-04-26T17:56:32.859Z</time></trkpt><trkpt lat="45.022044" lon="11.6742721"><ele>5.0</ele><time>2026-04-26T17:56:33.86Z</time></trkpt><trkpt lat="45.0222285" lon="11.6741804"><ele>5.0</ele><time>2026-04-26T17:56:34.86Z</time></trkpt><trkpt lat="45.0224277" lon="11.674092"><ele>5.0</ele><time>2026-04-26T17:56:35.859Z</time></trkpt><trkpt lat="45.0226325" lon="11.6740122"><ele>5.333333333333334</ele><time>2026-04-26T17:56:36.86Z</time></trkpt><trkpt lat="45.0228429" lon="11.6739421"><ele>5.666666666666667</ele><time>2026-04-26T17:56:37.859Z</time></trkpt><trkpt lat="45.0230377" lon="11.6738783"><ele>6.0</ele><time>2026-04-26T17:56:38.86Z</time></trkpt><trkpt lat="45.0232204" lon="11.6738119"><ele>5.666666666666667</ele><time>2026-04-26T17:56:39.859Z</time></trkpt><trkpt lat="45.0233812" lon="11.6737369"><ele>5.333333333333334</ele><time>2026-04-26T17:56:40.859Z</time></trkpt><trkpt lat="45.0235232" lon="11.6736378"><ele>5.0</ele><time>2026-04-26T17:56:41.86Z</time></trkpt><trkpt lat="45.023653" lon="11.6735012"><ele>5.0</ele><time>2026-04-26T17:56:42.859Z</time></trkpt><trkpt lat="45.023774" lon="11.6733328"><ele>5.0</ele><time>2026-04-26T17:56:43.86Z</time></trkpt><trkpt lat="45.02388" lon="11.6731381"><ele>5.0</ele><time>2026-04-26T17:56:44.86Z</time></trkpt><trkpt lat="45.0239685" lon="11.6729108"><ele>5.0</ele><time>2026-04-26T17:56:45.86Z</time></trkpt><trkpt lat="45.0240432" lon="11.6726648"><ele>5.0</ele><time>2026-04-26T17:56:46.859Z</time></trkpt><trkpt lat="45.0241005" lon="11.6723958"><ele>5.0</ele><time>2026-04-26T17:56:47.86Z</time></trkpt><trkpt lat="45.0241555" lon="11.6721044"><ele>5.0</ele><time>2026-04-26T17:56:48.859Z</time></trkpt><trkpt lat="45.0242163" lon="11.6718083"><ele>5.0</ele><time>2026-04-26T17:56:49.859Z</time></trkpt><trkpt lat="45.0242856" lon="11.671515"><ele>5.0</ele><time>2026-04-26T17:56:50.86Z</time></trkpt><trkpt lat="45.0243585" lon="11.6712237"><ele>5.0</ele><time>2026-04-26T17:56:51.859Z</time></trkpt><trkpt lat="45.0244283" lon="11.6709351"><ele>5.0</ele><time>2026-04-26T17:56:52.859Z</time></trkpt><trkpt lat="45.0244987" lon="11.6706479"><ele>5.0</ele><time>2026-04-26T17:56:53.86Z</time></trkpt><trkpt lat="45.0245744" lon="11.6703678"><ele>5.0</ele><time>2026-04-26T17:56:54.859Z</time></trkpt><trkpt lat="45.0246445" lon="11.67009"><ele>5.0</ele><time>2026-04-26T17:56:55.859Z</time></trkpt><trkpt lat="45.0247088" lon="11.6698292"><ele>5.0</ele><time>2026-04-26T17:56:56.86Z</time></trkpt><trkpt lat="45.0247693" lon="11.6695788"><ele>5.0</ele><time>2026-04-26T17:56:57.859Z</time></trkpt><trkpt lat="45.0248091" lon="11.6693281"><ele>5.0</ele><time>2026-04-26T17:56:58.86Z</time></trkpt><trkpt lat="45.0248237" lon="11.6690627"><ele>5.0</ele><time>2026-04-26T17:56:59.86Z</time></trkpt><trkpt lat="45.0248148" lon="11.6687999"><ele>4.666666666666667</ele><time>2026-04-26T17:57:00.86Z</time></trkpt><trkpt lat="45.0247844" lon="11.6685213"><ele>4.333333333333333</ele><time>2026-04-26T17:57:01.859Z</time></trkpt><trkpt lat="45.0247374" lon="11.6682319"><ele>4.0</ele><time>2026-04-26T17:57:02.86Z</time></trkpt><trkpt lat="45.0246811" lon="11.6679245"><ele>4.0</ele><time>2026-04-26T17:57:03.86Z</time></trkpt><trkpt lat="45.0246414" lon="11.6675962"><ele>4.0</ele><time>2026-04-26T17:57:04.86Z</time></trkpt><trkpt lat="45.0246123" lon="11.6672531"><ele>4.0</ele><time>2026-04-26T17:57:05.86Z</time></trkpt><trkpt lat="45.0245979" lon="11.6668929"><ele>4.0</ele><time>2026-04-26T17:57:06.859Z</time></trkpt><trkpt lat="45.0245959" lon="11.6665193"><ele>4.0</ele><time>2026-04-26T17:57:07.86Z</time></trkpt><trkpt lat="45.0246125" lon="11.6661399"><ele>4.0</ele><time>2026-04-26T17:57:08.859Z</time></trkpt><trkpt lat="45.0246374" lon="11.6657569"><ele>4.5</ele><time>2026-04-26T17:57:09.859Z</time></trkpt><trkpt lat="45.0246487" lon="11.6654009"><ele>5.0</ele><time>2026-04-26T17:57:10.859Z</time></trkpt><trkpt lat="45.0246489" lon="11.66506"><ele>5.0</ele><time>2026-04-26T17:57:11.859Z</time></trkpt><trkpt lat="45.0246297" lon="11.6647418"><ele>5.0</ele><time>2026-04-26T17:57:12.859Z</time></trkpt><trkpt lat="45.0246039" lon="11.6644444"><ele>5.0</ele><time>2026-04-26T17:57:13.859Z</time></trkpt><trkpt lat="45.024587" lon="11.664164"><ele>5.0</ele><time>2026-04-26T17:57:14.86Z</time></trkpt><trkpt lat="45.0245721" lon="11.6638908"><ele>5.0</ele><time>2026-04-26T17:57:15.86Z</time></trkpt><trkpt lat="45.0245629" lon="11.6636385"><ele>5.0</ele><time>2026-04-26T17:57:16.86Z</time></trkpt><trkpt lat="45.0245621" lon="11.6633985"><ele>5.0</ele><time>2026-04-26T17:57:17.86Z</time></trkpt><trkpt lat="45.0245684" lon="11.6631715"><ele>5.0</ele><time>2026-04-26T17:57:18.859Z</time></trkpt><trkpt lat="45.0245772" lon="11.6629562"><ele>5.0</ele><time>2026-04-26T17:57:19.86Z</time></trkpt><trkpt lat="45.0245924" lon="11.6627523"><ele>5.0</ele><time>2026-04-26T17:57:20.859Z</time></trkpt><trkpt lat="45.0246081" lon="11.6625616"><ele>5.0</ele><time>2026-04-26T17:57:21.859Z</time></trkpt><trkpt lat="45.0246302" lon="11.662365"><ele>5.0</ele><time>2026-04-26T17:57:22.859Z</time></trkpt><trkpt lat="45.0246653" lon="11.6621669"><ele>5.0</ele><time>2026-04-26T17:57:23.86Z</time></trkpt><trkpt lat="45.0247027" lon="11.6619639"><ele>5.0</ele><time>2026-04-26T17:57:24.859Z</time></trkpt><trkpt lat="45.024735" lon="11.6617545"><ele>5.0</ele><time>2026-04-26T17:57:25.859Z</time></trkpt><trkpt lat="45.0247554" lon="11.6615341"><ele>5.0</ele><time>2026-04-26T17:57:26.86Z</time></trkpt><trkpt lat="45.0247731" lon="11.6613076"><ele>5.0</ele><time>2026-04-26T17:57:27.86Z</time></trkpt><trkpt lat="45.0247973" lon="11.6610683"><ele>5.0</ele><time>2026-04-26T17:57:28.859Z</time></trkpt><trkpt lat="45.0248211" lon="11.6608321"><ele>5.0</ele><time>2026-04-26T17:57:29.859Z</time></trkpt><trkpt lat="45.0248483" lon="11.6605892"><ele>5.0</ele><time>2026-04-26T17:57:30.859Z</time></trkpt><trkpt lat="45.0248754" lon="11.6603466"><ele>5.0</ele><time>2026-04-26T17:57:31.86Z</time></trkpt><trkpt lat="45.0249028" lon="11.6601029"><ele>5.0</ele><time>2026-04-26T17:57:32.86Z</time></trkpt><trkpt lat="45.0249371" lon="11.6598518"><ele>4.666666666666667</ele><time>2026-04-26T17:57:33.859Z</time></trkpt><trkpt lat="45.0249794" lon="11.6596054"><ele>4.333333333333333</ele><time>2026-04-26T17:57:34.859Z</time></trkpt><trkpt lat="45.0250241" lon="11.6593571"><ele>4.0</ele><time>2026-04-26T17:57:35.86Z</time></trkpt><trkpt lat="45.0250713" lon="11.6591061"><ele>4.0</ele><time>2026-04-26T17:57:36.86Z</time></trkpt><trkpt lat="45.0251182" lon="11.6588578"><ele>4.0</ele><time>2026-04-26T17:57:37.86Z</time></trkpt><trkpt lat="45.0251651" lon="11.6586093"><ele>4.0</ele><time>2026-04-26T17:57:38.86Z</time></trkpt><trkpt lat="45.0252121" lon="11.6583598"><ele>4.0</ele><time>2026-04-26T17:57:39.859Z</time></trkpt><trkpt lat="45.0252596" lon="11.6581122"><ele>4.0</ele><time>2026-04-26T17:57:40.86Z</time></trkpt><trkpt lat="45.0253071" lon="11.6578641"><ele>4.0</ele><time>2026-04-26T17:57:41.859Z</time></trkpt><trkpt lat="45.025356" lon="11.6576187"><ele>4.333333333333333</ele><time>2026-04-26T17:57:42.86Z</time></trkpt><trkpt lat="45.0254041" lon="11.6573743"><ele>4.666666666666667</ele><time>2026-04-26T17:57:43.859Z</time></trkpt><trkpt lat="45.0254528" lon="11.6571334"><ele>5.0</ele><time>2026-04-26T17:57:44.86Z</time></trkpt><trkpt lat="45.0254973" lon="11.6568892"><ele>5.0</ele><time>2026-04-26T17:57:45.86Z</time></trkpt><trkpt lat="45.0255415" lon="11.6566377"><ele>5.0</ele><time>2026-04-26T17:57:46.859Z</time></trkpt><trkpt lat="45.0255747" lon="11.6563939"><ele>5.0</ele><time>2026-04-26T17:57:47.859Z</time></trkpt><trkpt lat="45.0256006" lon="11.6561437"><ele>4.666666666666667</ele><time>2026-04-26T17:57:48.86Z</time></trkpt><trkpt lat="45.025624" lon="11.6558912"><ele>4.333333333333333</ele><time>2026-04-26T17:57:49.859Z</time></trkpt><trkpt lat="45.0256683" lon="11.655653"><ele>4.0</ele><time>2026-04-26T17:57:50.86Z</time></trkpt><trkpt lat="45.0257354" lon="11.6554196"><ele>4.333333333333333</ele><time>2026-04-26T17:57:51.859Z</time></trkpt><trkpt lat="45.025822" lon="11.6551995"><ele>4.666666666666667</ele><time>2026-04-26T17:57:52.859Z</time></trkpt><trkpt lat="45.0259267" lon="11.6549937"><ele>5.0</ele><time>2026-04-26T17:57:53.859Z</time></trkpt><trkpt lat="45.0260418" lon="11.6548042"><ele>5.0</ele><time>2026-04-26T17:57:54.86Z</time></trkpt><trkpt lat="45.0261556" lon="11.6546216"><ele>5.0</ele><time>2026-04-26T17:57:55.86Z</time></trkpt><trkpt lat="45.0262708" lon="11.65443"><ele>5.0</ele><time>2026-04-26T17:57:56.86Z</time></trkpt><trkpt lat="45.0263872" lon="11.6542531"><ele>5.333333333333334</ele><time>2026-04-26T17:57:57.859Z</time></trkpt><trkpt lat="45.0265051" lon="11.6540621"><ele>5.666666666666667</ele><time>2026-04-26T17:57:58.859Z</time></trkpt><trkpt lat="45.0266137" lon="11.6538621"><ele>6.0</ele><time>2026-04-26T17:57:59.859Z</time></trkpt><trkpt lat="45.0266991" lon="11.6536464"><ele>6.0</ele><time>2026-04-26T17:58:00.86Z</time></trkpt><trkpt lat="45.026773" lon="11.6534145"><ele>6.0</ele><time>2026-04-26T17:58:01.859Z</time></trkpt><trkpt lat="45.0268328" lon="11.653175"><ele>6.0</ele><time>2026-04-26T17:58:02.86Z</time></trkpt><trkpt lat="45.0268842" lon="11.6529294"><ele>6.333333333333334</ele><time>2026-04-26T17:58:03.859Z</time></trkpt><trkpt lat="45.0269116" lon="11.652679"><ele>6.666666666666667</ele><time>2026-04-26T17:58:04.859Z</time></trkpt><trkpt lat="45.0269248" lon="11.6524234"><ele>7.0</ele><time>2026-04-26T17:58:05.859Z</time></trkpt><trkpt lat="45.0269253" lon="11.6521686"><ele>7.0</ele><time>2026-04-26T17:58:06.86Z</time></trkpt><trkpt lat="45.0269107" lon="11.6519111"><ele>7.0</ele><time>2026-04-26T17:58:07.859Z</time></trkpt><trkpt lat="45.0268946" lon="11.6516485"><ele>7.0</ele><time>2026-04-26T17:58:08.86Z</time></trkpt><trkpt lat="45.0268821" lon="11.6513861"><ele>6.666666666666667</ele><time>2026-04-26T17:58:09.86Z</time></trkpt><trkpt lat="45.0268717" lon="11.6511205"><ele>6.333333333333334</ele><time>2026-04-26T17:58:10.859Z</time></trkpt><trkpt lat="45.026863" lon="11.6508567"><ele>6.0</ele><time>2026-04-26T17:58:11.86Z</time></trkpt><trkpt lat="45.0268556" lon="11.6505878"><ele>6.0</ele><time>2026-04-26T17:58:12.86Z</time></trkpt><trkpt lat="45.0268489" lon="11.6503222"><ele>6.0</ele><time>2026-04-26T17:58:13.86Z</time></trkpt><trkpt lat="45.0268402" lon="11.6500541"><ele>6.0</ele><time>2026-04-26T17:58:14.859Z</time></trkpt><trkpt lat="45.0268305" lon="11.6497854"><ele>6.0</ele><time>2026-04-26T17:58:15.859Z</time></trkpt><trkpt lat="45.0268181" lon="11.6495247"><ele>6.0</ele><time>2026-04-26T17:58:16.859Z</time></trkpt><trkpt lat="45.0268084" lon="11.6492754"><ele>6.0</ele><time>2026-04-26T17:58:17.859Z</time></trkpt><trkpt lat="45.0267967" lon="11.6490356"><ele>6.0</ele><time>2026-04-26T17:58:18.86Z</time></trkpt><trkpt lat="45.0267846" lon="11.6488074"><ele>6.0</ele><time>2026-04-26T17:58:19.86Z</time></trkpt><trkpt lat="45.0267722" lon="11.6485863"><ele>6.0</ele><time>2026-04-26T17:58:20.859Z</time></trkpt><trkpt lat="45.0267622" lon="11.6483677"><ele>6.0</ele><time>2026-04-26T17:58:21.859Z</time></trkpt><trkpt lat="45.0267537" lon="11.6481581"><ele>6.0</ele><time>2026-04-26T17:58:22.859Z</time></trkpt><trkpt lat="45.0267466" lon="11.6479762"><ele>6.0</ele><time>2026-04-26T17:58:23.859Z</time></trkpt><trkpt lat="45.026741" lon="11.6478252"><ele>6.0</ele><time>2026-04-26T17:58:24.859Z</time></trkpt><trkpt lat="45.0267356" lon="11.6477123"><ele>6.0</ele><time>2026-04-26T17:58:25.859Z</time></trkpt><trkpt lat="45.0267412" lon="11.6476193"><ele>6.0</ele><time>2026-04-26T17:58:26.859Z</time></trkpt><trkpt lat="45.0267631" lon="11.6475315"><ele>6.0</ele><time>2026-04-26T17:58:27.859Z</time></trkpt><trkpt lat="45.0268498" lon="11.6474107"><ele>6.0</ele><time>2026-04-26T17:58:29.86Z</time></trkpt><trkpt lat="45.0269138" lon="11.6473835"><ele>6.0</ele><time>2026-04-26T17:58:30.859Z</time></trkpt><trkpt lat="45.0269902" lon="11.6473901"><ele>6.0</ele><time>2026-04-26T17:58:31.859Z</time></trkpt><trkpt lat="45.0270723" lon="11.6474168"><ele>6.0</ele><time>2026-04-26T17:58:32.86Z</time></trkpt><trkpt lat="45.0271631" lon="11.6474571"><ele>6.0</ele><time>2026-04-26T17:58:33.859Z</time></trkpt><trkpt lat="45.0272599" lon="11.6475006"><ele>6.0</ele><time>2026-04-26T17:58:34.859Z</time></trkpt><trkpt lat="45.0273594" lon="11.6475357"><ele>6.0</ele><time>2026-04-26T17:58:35.859Z</time></trkpt><trkpt lat="45.027462" lon="11.647581"><ele>6.0</ele><time>2026-04-26T17:58:36.859Z</time></trkpt><trkpt lat="45.0275695" lon="11.6476231"><ele>6.0</ele><time>2026-04-26T17:58:37.859Z</time></trkpt><trkpt lat="45.0276765" lon="11.6476643"><ele>6.0</ele><time>2026-04-26T17:58:38.859Z</time></trkpt><trkpt lat="45.0277864" lon="11.6477075"><ele>6.0</ele><time>2026-04-26T17:58:39.86Z</time></trkpt><trkpt lat="45.0278964" lon="11.6477569"><ele>6.0</ele><time>2026-04-26T17:58:40.86Z</time></trkpt><trkpt lat="45.0280096" lon="11.6478022"><ele>6.0</ele><time>2026-04-26T17:58:41.859Z</time></trkpt><trkpt lat="45.0281255" lon="11.6478514"><ele>6.0</ele><time>2026-04-26T17:58:42.86Z</time></trkpt><trkpt lat="45.0282432" lon="11.6479071"><ele>6.0</ele><time>2026-04-26T17:58:43.86Z</time></trkpt><trkpt lat="45.0283621" lon="11.6479583"><ele>6.0</ele><time>2026-04-26T17:58:44.86Z</time></trkpt><trkpt lat="45.0284833" lon="11.6480106"><ele>6.25</ele><time>2026-04-26T17:58:45.86Z</time></trkpt><trkpt lat="45.0286013" lon="11.6480639"><ele>6.5</ele><time>2026-04-26T17:58:46.86Z</time></trkpt><trkpt lat="45.0287239" lon="11.6481158"><ele>6.75</ele><time>2026-04-26T17:58:47.86Z</time></trkpt><trkpt lat="45.0288483" lon="11.6481658"><ele>7.0</ele><time>2026-04-26T17:58:48.859Z</time></trkpt><trkpt lat="45.0289719" lon="11.6482131"><ele>7.0</ele><time>2026-04-26T17:58:49.859Z</time></trkpt><trkpt lat="45.0291001" lon="11.6482685"><ele>7.0</ele><time>2026-04-26T17:58:50.86Z</time></trkpt><trkpt lat="45.0292327" lon="11.6483205"><ele>7.0</ele><time>2026-04-26T17:58:51.86Z</time></trkpt><trkpt lat="45.0293651" lon="11.6483868"><ele>7.0</ele><time>2026-04-26T17:58:52.86Z</time></trkpt><trkpt lat="45.0294946" lon="11.648462"><ele>7.0</ele><time>2026-04-26T17:58:53.86Z</time></trkpt><trkpt lat="45.0296198" lon="11.6485589"><ele>7.0</ele><time>2026-04-26T17:58:54.86Z</time></trkpt><trkpt lat="45.0297419" lon="11.6486681"><ele>7.0</ele><time>2026-04-26T17:58:55.859Z</time></trkpt><trkpt lat="45.0298603" lon="11.6487938"><ele>7.0</ele><time>2026-04-26T17:58:56.86Z</time></trkpt><trkpt lat="45.0299734" lon="11.6489285"><ele>7.0</ele><time>2026-04-26T17:58:57.859Z</time></trkpt><trkpt lat="45.0300906" lon="11.6490634"><ele>7.0</ele><time>2026-04-26T17:58:58.859Z</time></trkpt><trkpt lat="45.0302078" lon="11.6491937"><ele>7.0</ele><time>2026-04-26T17:58:59.859Z</time></trkpt><trkpt lat="45.030327" lon="11.6493216"><ele>7.0</ele><time>2026-04-26T17:59:00.86Z</time></trkpt><trkpt lat="45.0304581" lon="11.6494506"><ele>7.0</ele><time>2026-04-26T17:59:01.859Z</time></trkpt><trkpt lat="45.0305872" lon="11.6495804"><ele>7.0</ele><time>2026-04-26T17:59:02.86Z</time></trkpt><trkpt lat="45.0307828" lon="11.6496937"><ele>6.0</ele><time>2026-04-26T17:59:03.859Z</time></trkpt><trkpt lat="45.0309928" lon="11.6498098"><ele>5.0</ele><time>2026-04-26T17:59:04.859Z</time></trkpt><trkpt lat="45.0312259" lon="11.6499252"><ele>5.0</ele><time>2026-04-26T17:59:05.859Z</time></trkpt><trkpt lat="45.031474" lon="11.6500271"><ele>5.0</ele><time>2026-04-26T17:59:06.86Z</time></trkpt><trkpt lat="45.0317212" lon="11.6501247"><ele>5.0</ele><time>2026-04-26T17:59:07.859Z</time></trkpt><trkpt lat="45.0319267" lon="11.6502244"><ele>5.0</ele><time>2026-04-26T17:59:08.86Z</time></trkpt><trkpt lat="45.0321252" lon="11.6503044"><ele>5.0</ele><time>2026-04-26T17:59:09.86Z</time></trkpt><trkpt lat="45.0323151" lon="11.6503799"><ele>5.333333333333334</ele><time>2026-04-26T17:59:10.859Z</time></trkpt><trkpt lat="45.0324916" lon="11.6504488"><ele>5.666666666666667</ele><time>2026-04-26T17:59:11.859Z</time></trkpt><trkpt lat="45.0326637" lon="11.650505"><ele>6.0</ele><time>2026-04-26T17:59:12.86Z</time></trkpt><trkpt lat="45.0328305" lon="11.6505662"><ele>6.0</ele><time>2026-04-26T17:59:13.859Z</time></trkpt><trkpt lat="45.0330018" lon="11.6506256"><ele>6.0</ele><time>2026-04-26T17:59:14.86Z</time></trkpt><trkpt lat="45.0331723" lon="11.6506709"><ele>6.0</ele><time>2026-04-26T17:59:15.86Z</time></trkpt><trkpt lat="45.0333495" lon="11.6507059"><ele>5.0</ele><time>2026-04-26T17:59:16.86Z</time></trkpt><trkpt lat="45.0335318" lon="11.6507406"><ele>4.0</ele><time>2026-04-26T17:59:17.859Z</time></trkpt><trkpt lat="45.033737" lon="11.6507589"><ele>3.0</ele><time>2026-04-26T17:59:18.859Z</time></trkpt><trkpt lat="45.0339478" lon="11.6507732"><ele>3.5</ele><time>2026-04-26T17:59:19.859Z</time></trkpt><trkpt lat="45.0341859" lon="11.6507765"><ele>4.0</ele><time>2026-04-26T17:59:20.86Z</time></trkpt><trkpt lat="45.0344375" lon="11.650788"><ele>4.0</ele><time>2026-04-26T17:59:21.859Z</time></trkpt><trkpt lat="45.0347245" lon="11.6508245"><ele>4.0</ele><time>2026-04-26T17:59:22.86Z</time></trkpt><trkpt lat="45.0350139" lon="11.6508559"><ele>3.5</ele><time>2026-04-26T17:59:23.86Z</time></trkpt><trkpt lat="45.0352821" lon="11.6508804"><ele>3.0</ele><time>2026-04-26T17:59:24.86Z</time></trkpt><trkpt lat="45.0355321" lon="11.6509045"><ele>3.0</ele><time>2026-04-26T17:59:25.86Z</time></trkpt><trkpt lat="45.0357582" lon="11.650939"><ele>3.0</ele><time>2026-04-26T17:59:26.86Z</time></trkpt><trkpt lat="45.0359841" lon="11.650998"><ele>3.0</ele><time>2026-04-26T17:59:27.859Z</time></trkpt><trkpt lat="45.0362052" lon="11.651077"><ele>3.0</ele><time>2026-04-26T17:59:28.86Z</time></trkpt><trkpt lat="45.0364269" lon="11.6511588"><ele>3.333333333333333</ele><time>2026-04-26T17:59:29.859Z</time></trkpt><trkpt lat="45.0366452" lon="11.6512445"><ele>3.6666666666666665</ele><time>2026-04-26T17:59:30.859Z</time></trkpt><trkpt lat="45.0368515" lon="11.6513354"><ele>4.0</ele><time>2026-04-26T17:59:31.86Z</time></trkpt><trkpt lat="45.0370524" lon="11.6514171"><ele>4.0</ele><time>2026-04-26T17:59:32.859Z</time></trkpt><trkpt lat="45.037239" lon="11.6515057"><ele>4.0</ele><time>2026-04-26T17:59:33.859Z</time></trkpt><trkpt lat="45.0374215" lon="11.6515866"><ele>4.0</ele><time>2026-04-26T17:59:34.86Z</time></trkpt><trkpt lat="45.0376051" lon="11.6516468"><ele>4.0</ele><time>2026-04-26T17:59:35.86Z</time></trkpt><trkpt lat="45.0377813" lon="11.651693"><ele>4.0</ele><time>2026-04-26T17:59:36.859Z</time></trkpt><trkpt lat="45.0379621" lon="11.6516989"><ele>4.0</ele><time>2026-04-26T17:59:37.859Z</time></trkpt><trkpt lat="45.0381389" lon="11.6516882"><ele>4.0</ele><time>2026-04-26T17:59:38.86Z</time></trkpt><trkpt lat="45.0383349" lon="11.6516315"><ele>4.0</ele><time>2026-04-26T17:59:39.86Z</time></trkpt><trkpt lat="45.0385426" lon="11.6515427"><ele>4.0</ele><time>2026-04-26T17:59:40.86Z</time></trkpt><trkpt lat="45.0387572" lon="11.6514504"><ele>4.0</ele><time>2026-04-26T17:59:41.859Z</time></trkpt><trkpt lat="45.0389848" lon="11.6513565"><ele>4.0</ele><time>2026-04-26T17:59:42.859Z</time></trkpt><trkpt lat="45.0392248" lon="11.6512542"><ele>3.5</ele><time>2026-04-26T17:59:43.859Z</time></trkpt><trkpt lat="45.0394699" lon="11.6511475"><ele>3.0</ele><time>2026-04-26T17:59:44.859Z</time></trkpt><trkpt lat="45.0397267" lon="11.651035"><ele>3.5</ele><time>2026-04-26T17:59:45.86Z</time></trkpt><trkpt lat="45.0399899" lon="11.6509178"><ele>4.0</ele><time>2026-04-26T17:59:46.86Z</time></trkpt><trkpt lat="45.0402645" lon="11.6507984"><ele>4.0</ele><time>2026-04-26T17:59:47.859Z</time></trkpt><trkpt lat="45.0405425" lon="11.6506819"><ele>4.0</ele><time>2026-04-26T17:59:48.859Z</time></trkpt><trkpt lat="45.0408296" lon="11.6505602"><ele>5.0</ele><time>2026-04-26T17:59:49.859Z</time></trkpt><trkpt lat="45.0411218" lon="11.6504352"><ele>6.0</ele><time>2026-04-26T17:59:50.86Z</time></trkpt><trkpt lat="45.0414215" lon="11.6503115"><ele>5.5</ele><time>2026-04-26T17:59:51.859Z</time></trkpt><trkpt lat="45.0417159" lon="11.6501876"><ele>5.0</ele><time>2026-04-26T17:59:52.859Z</time></trkpt><trkpt lat="45.0420055" lon="11.6500584"><ele>5.0</ele><time>2026-04-26T17:59:53.859Z</time></trkpt><trkpt lat="45.0422796" lon="11.6499391"><ele>5.0</ele><time>2026-04-26T17:59:54.859Z</time></trkpt><trkpt lat="45.0425417" lon="11.6498288"><ele>5.5</ele><time>2026-04-26T17:59:55.859Z</time></trkpt><trkpt lat="45.0427883" lon="11.6497121"><ele>6.0</ele><time>2026-04-26T17:59:56.859Z</time></trkpt><trkpt lat="45.0430299" lon="11.6495825"><ele>5.0</ele><time>2026-04-26T17:59:57.86Z</time></trkpt><trkpt lat="45.04326" lon="11.6494481"><ele>4.0</ele><time>2026-04-26T17:59:58.859Z</time></trkpt><trkpt lat="45.0434857" lon="11.6493016"><ele>4.0</ele><time>2026-04-26T17:59:59.86Z</time></trkpt><trkpt lat="45.043714" lon="11.6491641"><ele>4.0</ele><time>2026-04-26T18:00:00.86Z</time></trkpt><trkpt lat="45.0439489" lon="11.6490311"><ele>4.0</ele><time>2026-04-26T18:00:01.859Z</time></trkpt><trkpt lat="45.044185" lon="11.6488809"><ele>4.0</ele><time>2026-04-26T18:00:02.86Z</time></trkpt><trkpt lat="45.0444153" lon="11.6487282"><ele>4.5</ele><time>2026-04-26T18:00:03.86Z</time></trkpt><trkpt lat="45.0446546" lon="11.6485754"><ele>5.0</ele><time>2026-04-26T18:00:04.86Z</time></trkpt><trkpt lat="45.0448959" lon="11.6484303"><ele>4.5</ele><time>2026-04-26T18:00:05.859Z</time></trkpt><trkpt lat="45.0451392" lon="11.6482977"><ele>4.0</ele><time>2026-04-26T18:00:06.859Z</time></trkpt><trkpt lat="45.0453795" lon="11.6481665"><ele>4.0</ele><time>2026-04-26T18:00:07.859Z</time></trkpt><trkpt lat="45.045626" lon="11.6480348"><ele>4.0</ele><time>2026-04-26T18:00:08.859Z</time></trkpt><trkpt lat="45.0458697" lon="11.6478877"><ele>5.0</ele><time>2026-04-26T18:00:09.859Z</time></trkpt><trkpt lat="45.0461136" lon="11.6477426"><ele>6.0</ele><time>2026-04-26T18:00:10.86Z</time></trkpt><trkpt lat="45.0463608" lon="11.6475919"><ele>6.0</ele><time>2026-04-26T18:00:11.86Z</time></trkpt><trkpt lat="45.0466003" lon="11.6474533"><ele>6.0</ele><time>2026-04-26T18:00:12.859Z</time></trkpt><trkpt lat="45.0468275" lon="11.6473157"><ele>5.5</ele><time>2026-04-26T18:00:13.859Z</time></trkpt><trkpt lat="45.0470529" lon="11.6471858"><ele>5.0</ele><time>2026-04-26T18:00:14.859Z</time></trkpt><trkpt lat="45.0472728" lon="11.6470555"><ele>6.0</ele><time>2026-04-26T18:00:15.859Z</time></trkpt><trkpt lat="45.0474906" lon="11.6469164"><ele>7.0</ele><time>2026-04-26T18:00:16.859Z</time></trkpt><trkpt lat="45.0477017" lon="11.6467603"><ele>7.0</ele><time>2026-04-26T18:00:17.859Z</time></trkpt><trkpt lat="45.0479099" lon="11.6465915"><ele>7.0</ele><time>2026-04-26T18:00:18.859Z</time></trkpt><trkpt lat="45.0481166" lon="11.6464076"><ele>6.5</ele><time>2026-04-26T18:00:19.86Z</time></trkpt><trkpt lat="45.0483212" lon="11.6462203"><ele>6.0</ele><time>2026-04-26T18:00:20.859Z</time></trkpt><trkpt lat="45.0485143" lon="11.6460317"><ele>6.666666666666666</ele><time>2026-04-26T18:00:21.859Z</time></trkpt><trkpt lat="45.0487033" lon="11.6458588"><ele>7.333333333333333</ele><time>2026-04-26T18:00:22.86Z</time></trkpt><trkpt lat="45.0488896" lon="11.6457077"><ele>8.0</ele><time>2026-04-26T18:00:23.859Z</time></trkpt><trkpt lat="45.0490725" lon="11.645578"><ele>7.666666666666666</ele><time>2026-04-26T18:00:24.86Z</time></trkpt><trkpt lat="45.0492475" lon="11.6454634"><ele>7.333333333333334</ele><time>2026-04-26T18:00:25.859Z</time></trkpt><trkpt lat="45.0494317" lon="11.6453635"><ele>7.0</ele><time>2026-04-26T18:00:26.859Z</time></trkpt><trkpt lat="45.0496091" lon="11.6452707"><ele>7.0</ele><time>2026-04-26T18:00:27.859Z</time></trkpt><trkpt lat="45.0497822" lon="11.6451895"><ele>7.0</ele><time>2026-04-26T18:00:28.86Z</time></trkpt><trkpt lat="45.0499557" lon="11.6451222"><ele>7.0</ele><time>2026-04-26T18:00:29.859Z</time></trkpt><trkpt lat="45.0501244" lon="11.6450623"><ele>7.0</ele><time>2026-04-26T18:00:30.86Z</time></trkpt><trkpt lat="45.0502869" lon="11.6450125"><ele>7.0</ele><time>2026-04-26T18:00:31.86Z</time></trkpt><trkpt lat="45.0504415" lon="11.644968"><ele>7.0</ele><time>2026-04-26T18:00:32.86Z</time></trkpt><trkpt lat="45.0505855" lon="11.6449302"><ele>7.0</ele><time>2026-04-26T18:00:33.86Z</time></trkpt><trkpt lat="45.0507195" lon="11.6448847"><ele>7.0</ele><time>2026-04-26T18:00:34.859Z</time></trkpt><trkpt lat="45.0508519" lon="11.644848"><ele>7.0</ele><time>2026-04-26T18:00:35.859Z</time></trkpt><trkpt lat="45.0509822" lon="11.6448387"><ele>7.0</ele><time>2026-04-26T18:00:36.859Z</time></trkpt><trkpt lat="45.0511078" lon="11.6448649"><ele>7.5</ele><time>2026-04-26T18:00:37.859Z</time></trkpt><trkpt lat="45.0512267" lon="11.6449198"><ele>8.0</ele><time>2026-04-26T18:00:38.859Z</time></trkpt><trkpt lat="45.0513482" lon="11.6449861"><ele>8.5</ele><time>2026-04-26T18:00:39.86Z</time></trkpt><trkpt lat="45.0514501" lon="11.6451078"><ele>9.0</ele><time>2026-04-26T18:00:40.859Z</time></trkpt><trkpt lat="45.0515313" lon="11.6452509"><ele>9.0</ele><time>2026-04-26T18:00:41.86Z</time></trkpt><trkpt lat="45.0516003" lon="11.6454099"><ele>9.0</ele><time>2026-04-26T18:00:42.86Z</time></trkpt><trkpt lat="45.051669" lon="11.6455774"><ele>9.0</ele><time>2026-04-26T18:00:43.86Z</time></trkpt><trkpt lat="45.0517422" lon="11.6457432"><ele>9.0</ele><time>2026-04-26T18:00:44.859Z</time></trkpt><trkpt lat="45.051819" lon="11.6458952"><ele>9.0</ele><time>2026-04-26T18:00:45.859Z</time></trkpt><trkpt lat="45.0518897" lon="11.6460397"><ele>9.0</ele><time>2026-04-26T18:00:46.86Z</time></trkpt><trkpt lat="45.0519589" lon="11.6461654"><ele>9.0</ele><time>2026-04-26T18:00:47.86Z</time></trkpt><trkpt lat="45.0520282" lon="11.6462638"><ele>9.0</ele><time>2026-04-26T18:00:48.86Z</time></trkpt><trkpt lat="45.0520956" lon="11.6463502"><ele>9.0</ele><time>2026-04-26T18:00:49.859Z</time></trkpt><trkpt lat="45.0521626" lon="11.6464306"><ele>9.0</ele><time>2026-04-26T18:00:50.859Z</time></trkpt><trkpt lat="45.0522294" lon="11.6465239"><ele>9.0</ele><time>2026-04-26T18:00:51.859Z</time></trkpt><trkpt lat="45.0522919" lon="11.6466132"><ele>9.0</ele><time>2026-04-26T18:00:52.86Z</time></trkpt><trkpt lat="45.0523508" lon="11.6466955"><ele>9.0</ele><time>2026-04-26T18:00:53.859Z</time></trkpt><trkpt lat="45.052415" lon="11.64679"><ele>9.0</ele><time>2026-04-26T18:00:54.859Z</time></trkpt><trkpt lat="45.0524952" lon="11.6468901"><ele>8.666666666666666</ele><time>2026-04-26T18:00:55.86Z</time></trkpt><trkpt lat="45.0526001" lon="11.6470146"><ele>8.333333333333332</ele><time>2026-04-26T18:00:56.86Z</time></trkpt><trkpt lat="45.0527199" lon="11.6471699"><ele>8.0</ele><time>2026-04-26T18:00:57.86Z</time></trkpt><trkpt lat="45.0528559" lon="11.6473547"><ele>8.0</ele><time>2026-04-26T18:00:58.859Z</time></trkpt><trkpt lat="45.053019" lon="11.64756"><ele>8.0</ele><time>2026-04-26T18:00:59.859Z</time></trkpt><trkpt lat="45.0532036" lon="11.647808"><ele>6.0</ele><time>2026-04-26T18:01:00.859Z</time></trkpt><trkpt lat="45.0533858" lon="11.6480948"><ele>4.0</ele><time>2026-04-26T18:01:01.859Z</time></trkpt><trkpt lat="45.0535633" lon="11.6484097"><ele>4.0</ele><time>2026-04-26T18:01:02.86Z</time></trkpt><trkpt lat="45.0537414" lon="11.6487565"><ele>4.0</ele><time>2026-04-26T18:01:03.86Z</time></trkpt><trkpt lat="45.0539097" lon="11.6491266"><ele>4.0</ele><time>2026-04-26T18:01:04.86Z</time></trkpt><trkpt lat="45.0540776" lon="11.6495022"><ele>4.0</ele><time>2026-04-26T18:01:05.86Z</time></trkpt><trkpt lat="45.0542515" lon="11.649857"><ele>3.0</ele><time>2026-04-26T18:01:06.86Z</time></trkpt><trkpt lat="45.0544131" lon="11.6501914"><ele>2.0</ele><time>2026-04-26T18:01:07.859Z</time></trkpt><trkpt lat="45.0545698" lon="11.6505021"><ele>2.0</ele><time>2026-04-26T18:01:08.859Z</time></trkpt><trkpt lat="45.0547272" lon="11.6507821"><ele>2.0</ele><time>2026-04-26T18:01:09.86Z</time></trkpt><trkpt lat="45.0549024" lon="11.6510306"><ele>3.5</ele><time>2026-04-26T18:01:10.86Z</time></trkpt><trkpt lat="45.0550873" lon="11.6512643"><ele>5.0</ele><time>2026-04-26T18:01:11.86Z</time></trkpt><trkpt lat="45.0552825" lon="11.6514697"><ele>5.0</ele><time>2026-04-26T18:01:12.86Z</time></trkpt><trkpt lat="45.0554994" lon="11.651649"><ele>5.0</ele><time>2026-04-26T18:01:13.859Z</time></trkpt><trkpt lat="45.0557275" lon="11.6518015"><ele>5.0</ele><time>2026-04-26T18:01:14.86Z</time></trkpt><trkpt lat="45.0559779" lon="11.6519332"><ele>5.0</ele><time>2026-04-26T18:01:15.859Z</time></trkpt><trkpt lat="45.0562334" lon="11.6520534"><ele>5.0</ele><time>2026-04-26T18:01:16.86Z</time></trkpt><trkpt lat="45.0564948" lon="11.652165"><ele>5.0</ele><time>2026-04-26T18:01:17.859Z</time></trkpt><trkpt lat="45.0567585" lon="11.6522763"><ele>4.0</ele><time>2026-04-26T18:01:18.86Z</time></trkpt><trkpt lat="45.0570207" lon="11.6523951"><ele>3.0</ele><time>2026-04-26T18:01:19.859Z</time></trkpt><trkpt lat="45.0572748" lon="11.6525049"><ele>3.0</ele><time>2026-04-26T18:01:20.86Z</time></trkpt><trkpt lat="45.0575258" lon="11.652608"><ele>3.0</ele><time>2026-04-26T18:01:21.859Z</time></trkpt><trkpt lat="45.0577757" lon="11.6527152"><ele>2.5</ele><time>2026-04-26T18:01:22.86Z</time></trkpt><trkpt lat="45.0580282" lon="11.6528271"><ele>2.0</ele><time>2026-04-26T18:01:23.86Z</time></trkpt><trkpt lat="45.0582825" lon="11.6529318"><ele>2.0</ele><time>2026-04-26T18:01:24.86Z</time></trkpt><trkpt lat="45.0585367" lon="11.6530382"><ele>2.0</ele><time>2026-04-26T18:01:25.859Z</time></trkpt><trkpt lat="45.058791" lon="11.6531417"><ele>2.0</ele><time>2026-04-26T18:01:26.86Z</time></trkpt><trkpt lat="45.0590436" lon="11.6532514"><ele>2.0</ele><time>2026-04-26T18:01:27.859Z</time></trkpt><trkpt lat="45.059296" lon="11.6533619"><ele>2.0</ele><time>2026-04-26T18:01:28.859Z</time></trkpt><trkpt lat="45.0595505" lon="11.6534792"><ele>2.0</ele><time>2026-04-26T18:01:29.86Z</time></trkpt><trkpt lat="45.0597914" lon="11.6536178"><ele>1.5</ele><time>2026-04-26T18:01:30.86Z</time></trkpt><trkpt lat="45.060032" lon="11.6537696"><ele>1.0</ele><time>2026-04-26T18:01:31.859Z</time></trkpt><trkpt lat="45.0602552" lon="11.6539229"><ele>1.0</ele><time>2026-04-26T18:01:32.859Z</time></trkpt><trkpt lat="45.0604601" lon="11.6540573"><ele>1.0</ele><time>2026-04-26T18:01:33.859Z</time></trkpt><trkpt lat="45.0606417" lon="11.6541793"><ele>1.0</ele><time>2026-04-26T18:01:34.859Z</time></trkpt><trkpt lat="45.0608168" lon="11.6542903"><ele>2.3333333333333335</ele><time>2026-04-26T18:01:35.86Z</time></trkpt><trkpt lat="45.0609994" lon="11.6543967"><ele>3.666666666666667</ele><time>2026-04-26T18:01:36.86Z</time></trkpt><trkpt lat="45.0611969" lon="11.6544936"><ele>5.0</ele><time>2026-04-26T18:01:37.859Z</time></trkpt><trkpt lat="45.0614064" lon="11.6545627"><ele>4.0</ele><time>2026-04-26T18:01:38.86Z</time></trkpt><trkpt lat="45.0616278" lon="11.6546155"><ele>3.0</ele><time>2026-04-26T18:01:39.859Z</time></trkpt><trkpt lat="45.0618525" lon="11.6546465"><ele>3.0</ele><time>2026-04-26T18:01:40.86Z</time></trkpt><trkpt lat="45.062079" lon="11.6546457"><ele>3.0</ele><time>2026-04-26T18:01:41.86Z</time></trkpt><trkpt lat="45.0623014" lon="11.6546005"><ele>3.0</ele><time>2026-04-26T18:01:42.86Z</time></trkpt><trkpt lat="45.0625239" lon="11.6545316"><ele>3.0</ele><time>2026-04-26T18:01:43.86Z</time></trkpt><trkpt lat="45.062743" lon="11.654453"><ele>3.0</ele><time>2026-04-26T18:01:44.86Z</time></trkpt><trkpt lat="45.0629625" lon="11.6543525"><ele>3.0</ele><time>2026-04-26T18:01:45.86Z</time></trkpt><trkpt lat="45.063177" lon="11.6542158"><ele>3.0</ele><time>2026-04-26T18:01:46.859Z</time></trkpt><trkpt lat="45.0633866" lon="11.6540562"><ele>3.0</ele><time>2026-04-26T18:01:47.86Z</time></trkpt><trkpt lat="45.0635924" lon="11.6538811"><ele>3.0</ele><time>2026-04-26T18:01:48.859Z</time></trkpt><trkpt lat="45.0637773" lon="11.6537105"><ele>3.0</ele><time>2026-04-26T18:01:49.86Z</time></trkpt><trkpt lat="45.0639558" lon="11.65355"><ele>3.0</ele><time>2026-04-26T18:01:50.86Z</time></trkpt><trkpt lat="45.0641237" lon="11.6534074"><ele>2.6666666666666665</ele><time>2026-04-26T18:01:51.86Z</time></trkpt><trkpt lat="45.0642867" lon="11.6532612"><ele>2.333333333333333</ele><time>2026-04-26T18:01:52.859Z</time></trkpt><trkpt lat="45.064443" lon="11.6531212"><ele>2.0</ele><time>2026-04-26T18:01:53.86Z</time></trkpt><trkpt lat="45.0645952" lon="11.6529789"><ele>2.0</ele><time>2026-04-26T18:01:54.859Z</time></trkpt><trkpt lat="45.0647475" lon="11.6528395"><ele>2.0</ele><time>2026-04-26T18:01:55.859Z</time></trkpt><trkpt lat="45.0648999" lon="11.6527006"><ele>2.0</ele><time>2026-04-26T18:01:56.859Z</time></trkpt><trkpt lat="45.0650498" lon="11.652568"><ele>2.333333333333333</ele><time>2026-04-26T18:01:57.859Z</time></trkpt><trkpt lat="45.065206" lon="11.6524479"><ele>2.6666666666666665</ele><time>2026-04-26T18:01:58.86Z</time></trkpt><trkpt lat="45.0653582" lon="11.6523286"><ele>3.0</ele><time>2026-04-26T18:01:59.859Z</time></trkpt><trkpt lat="45.0655175" lon="11.6522282"><ele>3.0</ele><time>2026-04-26T18:02:00.859Z</time></trkpt><trkpt lat="45.0656827" lon="11.6521371"><ele>3.0</ele><time>2026-04-26T18:02:01.859Z</time></trkpt><trkpt lat="45.0658475" lon="11.6520641"><ele>3.0</ele><time>2026-04-26T18:02:02.86Z</time></trkpt><trkpt lat="45.0660219" lon="11.6520123"><ele>3.0</ele><time>2026-04-26T18:02:03.86Z</time></trkpt><trkpt lat="45.066195" lon="11.6519704"><ele>3.0</ele><time>2026-04-26T18:02:04.859Z</time></trkpt><trkpt lat="45.06637" lon="11.651947"><ele>3.0</ele><time>2026-04-26T18:02:05.86Z</time></trkpt><trkpt lat="45.0665413" lon="11.6519416"><ele>3.333333333333333</ele><time>2026-04-26T18:02:06.859Z</time></trkpt><trkpt lat="45.0667188" lon="11.6519471"><ele>3.6666666666666665</ele><time>2026-04-26T18:02:07.86Z</time></trkpt><trkpt lat="45.066888" lon="11.6519715"><ele>4.0</ele><time>2026-04-26T18:02:08.859Z</time></trkpt><trkpt lat="45.0670496" lon="11.6520047"><ele>4.0</ele><time>2026-04-26T18:02:09.859Z</time></trkpt><trkpt lat="45.0672007" lon="11.6520489"><ele>4.0</ele><time>2026-04-26T18:02:10.859Z</time></trkpt><trkpt lat="45.0673372" lon="11.6521015"><ele>4.0</ele><time>2026-04-26T18:02:11.859Z</time></trkpt><trkpt lat="45.0674677" lon="11.6521589"><ele>4.0</ele><time>2026-04-26T18:02:12.859Z</time></trkpt><trkpt lat="45.067603" lon="11.6522147"><ele>4.0</ele><time>2026-04-26T18:02:13.86Z</time></trkpt><trkpt lat="45.0677447" lon="11.6522671"><ele>4.0</ele><time>2026-04-26T18:02:14.859Z</time></trkpt><trkpt lat="45.0678869" lon="11.65232"><ele>4.0</ele><time>2026-04-26T18:02:15.86Z</time></trkpt><trkpt lat="45.0680305" lon="11.6523806"><ele>4.0</ele><time>2026-04-26T18:02:16.859Z</time></trkpt><trkpt lat="45.0681804" lon="11.6524398"><ele>4.333333333333333</ele><time>2026-04-26T18:02:17.859Z</time></trkpt><trkpt lat="45.0683381" lon="11.6524994"><ele>4.666666666666667</ele><time>2026-04-26T18:02:18.859Z</time></trkpt><trkpt lat="45.0685012" lon="11.6525557"><ele>5.0</ele><time>2026-04-26T18:02:19.859Z</time></trkpt><trkpt lat="45.0686684" lon="11.6526072"><ele>5.0</ele><time>2026-04-26T18:02:20.86Z</time></trkpt><trkpt lat="45.0688356" lon="11.6526684"><ele>5.0</ele><time>2026-04-26T18:02:21.859Z</time></trkpt><trkpt lat="45.0690077" lon="11.6527308"><ele>5.0</ele><time>2026-04-26T18:02:22.859Z</time></trkpt><trkpt lat="45.0691779" lon="11.6528074"><ele>4.333333333333334</ele><time>2026-04-26T18:02:23.86Z</time></trkpt><trkpt lat="45.0693488" lon="11.6528992"><ele>3.666666666666667</ele><time>2026-04-26T18:02:24.859Z</time></trkpt><trkpt lat="45.0695213" lon="11.6530065"><ele>3.0</ele><time>2026-04-26T18:02:25.859Z</time></trkpt><trkpt lat="45.0696926" lon="11.6531295"><ele>3.0</ele><time>2026-04-26T18:02:26.86Z</time></trkpt><trkpt lat="45.0698628" lon="11.6532625"><ele>3.0</ele><time>2026-04-26T18:02:27.86Z</time></trkpt><trkpt lat="45.0700212" lon="11.653396"><ele>3.0</ele><time>2026-04-26T18:02:28.859Z</time></trkpt><trkpt lat="45.0701773" lon="11.6535495"><ele>3.666666666666667</ele><time>2026-04-26T18:02:29.859Z</time></trkpt><trkpt lat="45.0702986" lon="11.6536883"><ele>4.333333333333334</ele><time>2026-04-26T18:02:30.859Z</time></trkpt><trkpt lat="45.0704316" lon="11.6538041"><ele>5.0</ele><time>2026-04-26T18:02:31.86Z</time></trkpt><trkpt lat="45.0705824" lon="11.6539005"><ele>5.0</ele><time>2026-04-26T18:02:32.86Z</time></trkpt><trkpt lat="45.0707477" lon="11.6539733"><ele>5.0</ele><time>2026-04-26T18:02:33.86Z</time></trkpt><trkpt lat="45.0709177" lon="11.6540452"><ele>5.0</ele><time>2026-04-26T18:02:34.859Z</time></trkpt><trkpt lat="45.0710968" lon="11.6541186"><ele>4.333333333333334</ele><time>2026-04-26T18:02:35.859Z</time></trkpt><trkpt lat="45.0712811" lon="11.6541852"><ele>3.666666666666667</ele><time>2026-04-26T18:02:36.86Z</time></trkpt><trkpt lat="45.0714749" lon="11.6542566"><ele>3.0</ele><time>2026-04-26T18:02:37.86Z</time></trkpt><trkpt lat="45.0716709" lon="11.6543226"><ele>3.0</ele><time>2026-04-26T18:02:38.859Z</time></trkpt><trkpt lat="45.0718749" lon="11.6543753"><ele>3.0</ele><time>2026-04-26T18:02:39.859Z</time></trkpt><trkpt lat="45.0720807" lon="11.6544159"><ele>3.0</ele><time>2026-04-26T18:02:40.859Z</time></trkpt><trkpt lat="45.0722917" lon="11.6544548"><ele>2.3333333333333335</ele><time>2026-04-26T18:02:41.859Z</time></trkpt><trkpt lat="45.0724994" lon="11.6544883"><ele>1.6666666666666665</ele><time>2026-04-26T18:02:42.859Z</time></trkpt><trkpt lat="45.0727083" lon="11.6545201"><ele>1.0</ele><time>2026-04-26T18:02:43.86Z</time></trkpt><trkpt lat="45.0729207" lon="11.654549"><ele>1.0</ele><time>2026-04-26T18:02:44.859Z</time></trkpt><trkpt lat="45.0731361" lon="11.6545814"><ele>1.0</ele><time>2026-04-26T18:02:45.859Z</time></trkpt><trkpt lat="45.0733519" lon="11.6546155"><ele>1.0</ele><time>2026-04-26T18:02:46.86Z</time></trkpt><trkpt lat="45.0735619" lon="11.6546504"><ele>1.3333333333333333</ele><time>2026-04-26T18:02:47.859Z</time></trkpt><trkpt lat="45.0737648" lon="11.6546843"><ele>1.6666666666666665</ele><time>2026-04-26T18:02:48.859Z</time></trkpt><trkpt lat="45.0739559" lon="11.6547092"><ele>2.0</ele><time>2026-04-26T18:02:49.859Z</time></trkpt><trkpt lat="45.0741365" lon="11.6547342"><ele>2.333333333333333</ele><time>2026-04-26T18:02:50.859Z</time></trkpt><trkpt lat="45.0743087" lon="11.6547514"><ele>2.6666666666666665</ele><time>2026-04-26T18:02:51.859Z</time></trkpt><trkpt lat="45.0744683" lon="11.6547788"><ele>3.0</ele><time>2026-04-26T18:02:52.859Z</time></trkpt><trkpt lat="45.0746169" lon="11.6548049"><ele>3.0</ele><time>2026-04-26T18:02:53.859Z</time></trkpt><trkpt lat="45.0747596" lon="11.6548263"><ele>3.0</ele><time>2026-04-26T18:02:54.859Z</time></trkpt><trkpt lat="45.0748914" lon="11.6548494"><ele>3.0</ele><time>2026-04-26T18:02:55.86Z</time></trkpt><trkpt lat="45.0750146" lon="11.6548717"><ele>3.0</ele><time>2026-04-26T18:02:56.86Z</time></trkpt><trkpt lat="45.0751257" lon="11.6548862"><ele>3.0</ele><time>2026-04-26T18:02:57.859Z</time></trkpt><trkpt lat="45.07523" lon="11.6549112"><ele>3.0</ele><time>2026-04-26T18:02:58.859Z</time></trkpt><trkpt lat="45.0753134" lon="11.6549579"><ele>3.0</ele><time>2026-04-26T18:02:59.859Z</time></trkpt><trkpt lat="45.0753839" lon="11.6550165"><ele>3.0</ele><time>2026-04-26T18:03:00.859Z</time></trkpt><trkpt lat="45.0754437" lon="11.6550972"><ele>3.0</ele><time>2026-04-26T18:03:01.86Z</time></trkpt><trkpt lat="45.0755102" lon="11.6551769"><ele>3.0</ele><time>2026-04-26T18:03:02.859Z</time></trkpt><trkpt lat="45.0755962" lon="11.6551888"><ele>3.0</ele><time>2026-04-26T18:03:03.859Z</time></trkpt><trkpt lat="45.0756877" lon="11.6551754"><ele>3.0</ele><time>2026-04-26T18:03:04.86Z</time></trkpt><trkpt lat="45.0758041" lon="11.6551285"><ele>3.0</ele><time>2026-04-26T18:03:05.859Z</time></trkpt><trkpt lat="45.0759148" lon="11.6551008"><ele>3.0</ele><time>2026-04-26T18:03:06.859Z</time></trkpt><trkpt lat="45.0761029" lon="11.6551114"><ele>3.333333333333333</ele><time>2026-04-26T18:03:07.86Z</time></trkpt><trkpt lat="45.0762943" lon="11.6551532"><ele>3.6666666666666665</ele><time>2026-04-26T18:03:08.859Z</time></trkpt><trkpt lat="45.0765197" lon="11.6552113"><ele>4.0</ele><time>2026-04-26T18:03:09.86Z</time></trkpt><trkpt lat="45.0767601" lon="11.6552878"><ele>4.5</ele><time>2026-04-26T18:03:10.859Z</time></trkpt><trkpt lat="45.0769787" lon="11.6553733"><ele>5.0</ele><time>2026-04-26T18:03:11.86Z</time></trkpt><trkpt lat="45.0771917" lon="11.6554835"><ele>5.0</ele><time>2026-04-26T18:03:12.86Z</time></trkpt><trkpt lat="45.0773984" lon="11.6556178"><ele>5.0</ele><time>2026-04-26T18:03:13.859Z</time></trkpt><trkpt lat="45.0775948" lon="11.6557705"><ele>4.5</ele><time>2026-04-26T18:03:14.859Z</time></trkpt><trkpt lat="45.0777846" lon="11.6559505"><ele>4.0</ele><time>2026-04-26T18:03:15.859Z</time></trkpt><trkpt lat="45.0779737" lon="11.6561251"><ele>3.5</ele><time>2026-04-26T18:03:16.859Z</time></trkpt><trkpt lat="45.0781253" lon="11.6563669"><ele>3.0</ele><time>2026-04-26T18:03:17.86Z</time></trkpt><trkpt lat="45.0782758" lon="11.6566043"><ele>2.6666666666666665</ele><time>2026-04-26T18:03:18.859Z</time></trkpt><trkpt lat="45.078411" lon="11.6568455"><ele>2.333333333333333</ele><time>2026-04-26T18:03:19.86Z</time></trkpt><trkpt lat="45.0785512" lon="11.6570712"><ele>2.0</ele><time>2026-04-26T18:03:20.86Z</time></trkpt><trkpt lat="45.0786793" lon="11.6572912"><ele>1.6666666666666665</ele><time>2026-04-26T18:03:21.859Z</time></trkpt><trkpt lat="45.0788076" lon="11.6575095"><ele>1.3333333333333333</ele><time>2026-04-26T18:03:22.859Z</time></trkpt><trkpt lat="45.0789375" lon="11.6577258"><ele>1.0</ele><time>2026-04-26T18:03:23.859Z</time></trkpt><trkpt lat="45.0790678" lon="11.6579436"><ele>1.3333333333333333</ele><time>2026-04-26T18:03:24.86Z</time></trkpt><trkpt lat="45.0791992" lon="11.6581622"><ele>1.6666666666666665</ele><time>2026-04-26T18:03:25.859Z</time></trkpt><trkpt lat="45.0793277" lon="11.6583848"><ele>2.0</ele><time>2026-04-26T18:03:26.86Z</time></trkpt><trkpt lat="45.079458" lon="11.6586124"><ele>2.6666666666666665</ele><time>2026-04-26T18:03:27.859Z</time></trkpt><trkpt lat="45.0795993" lon="11.658829"><ele>3.333333333333333</ele><time>2026-04-26T18:03:28.86Z</time></trkpt><trkpt lat="45.0797475" lon="11.6590421"><ele>4.0</ele><time>2026-04-26T18:03:29.86Z</time></trkpt><trkpt lat="45.07991" lon="11.6592428"><ele>4.0</ele><time>2026-04-26T18:03:30.859Z</time></trkpt><trkpt lat="45.0800828" lon="11.6594207"><ele>4.0</ele><time>2026-04-26T18:03:31.86Z</time></trkpt><trkpt lat="45.0802695" lon="11.6595927"><ele>4.0</ele><time>2026-04-26T18:03:32.859Z</time></trkpt><trkpt lat="45.080468" lon="11.6597513"><ele>4.0</ele><time>2026-04-26T18:03:33.859Z</time></trkpt><trkpt lat="45.0806732" lon="11.6598898"><ele>4.0</ele><time>2026-04-26T18:03:34.86Z</time></trkpt><trkpt lat="45.0808877" lon="11.6600081"><ele>4.0</ele><time>2026-04-26T18:03:35.859Z</time></trkpt><trkpt lat="45.0811103" lon="11.6601144"><ele>4.0</ele><time>2026-04-26T18:03:36.86Z</time></trkpt><trkpt lat="45.0813321" lon="11.6602188"><ele>4.5</ele><time>2026-04-26T18:03:37.859Z</time></trkpt><trkpt lat="45.0815648" lon="11.6603184"><ele>5.0</ele><time>2026-04-26T18:03:38.86Z</time></trkpt><trkpt lat="45.0818073" lon="11.6603984"><ele>5.0</ele><time>2026-04-26T18:03:39.859Z</time></trkpt><trkpt lat="45.0820549" lon="11.6604552"><ele>5.0</ele><time>2026-04-26T18:03:40.859Z</time></trkpt><trkpt lat="45.0823077" lon="11.6604867"><ele>5.0</ele><time>2026-04-26T18:03:41.86Z</time></trkpt><trkpt lat="45.0825616" lon="11.6604939"><ele>5.0</ele><time>2026-04-26T18:03:42.86Z</time></trkpt><trkpt lat="45.0828167" lon="11.6604799"><ele>5.0</ele><time>2026-04-26T18:03:43.86Z</time></trkpt><trkpt lat="45.0830676" lon="11.6604409"><ele>5.0</ele><time>2026-04-26T18:03:44.859Z</time></trkpt><trkpt lat="45.0833131" lon="11.6603849"><ele>4.5</ele><time>2026-04-26T18:03:45.859Z</time></trkpt><trkpt lat="45.0835645" lon="11.6603201"><ele>4.0</ele><time>2026-04-26T18:03:46.859Z</time></trkpt><trkpt lat="45.0838114" lon="11.6602565"><ele>3.5</ele><time>2026-04-26T18:03:47.86Z</time></trkpt><trkpt lat="45.0840471" lon="11.6601874"><ele>3.0</ele><time>2026-04-26T18:03:48.859Z</time></trkpt><trkpt lat="45.0842697" lon="11.6601225"><ele>3.0</ele><time>2026-04-26T18:03:49.86Z</time></trkpt><trkpt lat="45.0844868" lon="11.6600573"><ele>3.0</ele><time>2026-04-26T18:03:50.86Z</time></trkpt><trkpt lat="45.0846946" lon="11.6599932"><ele>3.0</ele><time>2026-04-26T18:03:51.86Z</time></trkpt><trkpt lat="45.0849008" lon="11.6599323"><ele>3.666666666666667</ele><time>2026-04-26T18:03:52.859Z</time></trkpt><trkpt lat="45.0851089" lon="11.6598906"><ele>4.333333333333334</ele><time>2026-04-26T18:03:53.86Z</time></trkpt><trkpt lat="45.0853232" lon="11.6598717"><ele>5.0</ele><time>2026-04-26T18:03:54.86Z</time></trkpt><trkpt lat="45.0855452" lon="11.6598754"><ele>4.666666666666667</ele><time>2026-04-26T18:03:55.86Z</time></trkpt><trkpt lat="45.0857686" lon="11.6598797"><ele>4.333333333333333</ele><time>2026-04-26T18:03:56.86Z</time></trkpt><trkpt lat="45.0859923" lon="11.6598863"><ele>4.0</ele><time>2026-04-26T18:03:57.86Z</time></trkpt><trkpt lat="45.0862202" lon="11.659892"><ele>4.0</ele><time>2026-04-26T18:03:58.859Z</time></trkpt><trkpt lat="45.086451" lon="11.6598952"><ele>4.0</ele><time>2026-04-26T18:03:59.859Z</time></trkpt><trkpt lat="45.0866781" lon="11.6598963"><ele>4.5</ele><time>2026-04-26T18:04:00.859Z</time></trkpt><trkpt lat="45.0869079" lon="11.6599068"><ele>5.0</ele><time>2026-04-26T18:04:01.86Z</time></trkpt><trkpt lat="45.0871439" lon="11.6599143"><ele>5.0</ele><time>2026-04-26T18:04:02.859Z</time></trkpt><trkpt lat="45.0873798" lon="11.6599209"><ele>5.0</ele><time>2026-04-26T18:04:03.859Z</time></trkpt><trkpt lat="45.0876198" lon="11.659923"><ele>5.0</ele><time>2026-04-26T18:04:04.86Z</time></trkpt><trkpt lat="45.0878607" lon="11.6599309"><ele>5.0</ele><time>2026-04-26T18:04:05.86Z</time></trkpt><trkpt lat="45.0881058" lon="11.6599374"><ele>4.5</ele><time>2026-04-26T18:04:06.859Z</time></trkpt><trkpt lat="45.0883373" lon="11.6599445"><ele>4.0</ele><time>2026-04-26T18:04:07.86Z</time></trkpt><trkpt lat="45.088557" lon="11.6599494"><ele>4.0</ele><time>2026-04-26T18:04:08.86Z</time></trkpt><trkpt lat="45.0887707" lon="11.6599558"><ele>4.0</ele><time>2026-04-26T18:04:09.859Z</time></trkpt><trkpt lat="45.0889599" lon="11.6599621"><ele>4.0</ele><time>2026-04-26T18:04:10.86Z</time></trkpt><trkpt lat="45.089152" lon="11.6599701"><ele>4.333333333333333</ele><time>2026-04-26T18:04:11.86Z</time></trkpt><trkpt lat="45.0893408" lon="11.6599798"><ele>4.666666666666667</ele><time>2026-04-26T18:04:12.86Z</time></trkpt><trkpt lat="45.0895303" lon="11.660009"><ele>5.0</ele><time>2026-04-26T18:04:13.859Z</time></trkpt><trkpt lat="45.0897241" lon="11.6600582"><ele>5.0</ele><time>2026-04-26T18:04:14.859Z</time></trkpt><trkpt lat="45.0899146" lon="11.6601253"><ele>5.0</ele><time>2026-04-26T18:04:15.859Z</time></trkpt><trkpt lat="45.0901055" lon="11.6602033"><ele>5.0</ele><time>2026-04-26T18:04:16.86Z</time></trkpt><trkpt lat="45.0902965" lon="11.6602961"><ele>5.0</ele><time>2026-04-26T18:04:17.859Z</time></trkpt><trkpt lat="45.0904764" lon="11.6604016"><ele>5.0</ele><time>2026-04-26T18:04:18.86Z</time></trkpt><trkpt lat="45.0906458" lon="11.6605196"><ele>5.0</ele><time>2026-04-26T18:04:19.859Z</time></trkpt><trkpt lat="45.0908071" lon="11.6606353"><ele>5.0</ele><time>2026-04-26T18:04:20.859Z</time></trkpt><trkpt lat="45.0909635" lon="11.6607428"><ele>5.0</ele><time>2026-04-26T18:04:21.859Z</time></trkpt><trkpt lat="45.0911195" lon="11.6608504"><ele>5.0</ele><time>2026-04-26T18:04:22.859Z</time></trkpt><trkpt lat="45.0912712" lon="11.6609562"><ele>5.0</ele><time>2026-04-26T18:04:23.86Z</time></trkpt><trkpt lat="45.0914252" lon="11.6610641"><ele>5.0</ele><time>2026-04-26T18:04:24.859Z</time></trkpt><trkpt lat="45.0915846" lon="11.6611764"><ele>5.0</ele><time>2026-04-26T18:04:25.859Z</time></trkpt><trkpt lat="45.0917469" lon="11.6612871"><ele>4.666666666666667</ele><time>2026-04-26T18:04:26.859Z</time></trkpt><trkpt lat="45.0919102" lon="11.6614036"><ele>4.333333333333333</ele><time>2026-04-26T18:04:27.86Z</time></trkpt><trkpt lat="45.0920787" lon="11.6615208"><ele>4.0</ele><time>2026-04-26T18:04:28.86Z</time></trkpt><trkpt lat="45.0922518" lon="11.6616394"><ele>4.0</ele><time>2026-04-26T18:04:29.86Z</time></trkpt><trkpt lat="45.0924285" lon="11.6617621"><ele>4.0</ele><time>2026-04-26T18:04:30.859Z</time></trkpt><trkpt lat="45.0926093" lon="11.6618876"><ele>4.0</ele><time>2026-04-26T18:04:31.859Z</time></trkpt><trkpt lat="45.0927928" lon="11.662017"><ele>4.333333333333333</ele><time>2026-04-26T18:04:32.86Z</time></trkpt><trkpt lat="45.0929803" lon="11.6621477"><ele>4.666666666666667</ele><time>2026-04-26T18:04:33.86Z</time></trkpt><trkpt lat="45.0931701" lon="11.6622809"><ele>5.0</ele><time>2026-04-26T18:04:34.86Z</time></trkpt><trkpt lat="45.0933615" lon="11.6624148"><ele>5.0</ele><time>2026-04-26T18:04:35.859Z</time></trkpt><trkpt lat="45.0935571" lon="11.66255"><ele>5.0</ele><time>2026-04-26T18:04:36.86Z</time></trkpt><trkpt lat="45.0937544" lon="11.6626892"><ele>5.0</ele><time>2026-04-26T18:04:37.86Z</time></trkpt><trkpt lat="45.0939533" lon="11.6628287"><ele>5.0</ele><time>2026-04-26T18:04:38.859Z</time></trkpt><trkpt lat="45.0941525" lon="11.6629697"><ele>5.0</ele><time>2026-04-26T18:04:39.86Z</time></trkpt><trkpt lat="45.0943544" lon="11.6631106"><ele>5.0</ele><time>2026-04-26T18:04:40.859Z</time></trkpt><trkpt lat="45.0945597" lon="11.6632507"><ele>5.0</ele><time>2026-04-26T18:04:41.86Z</time></trkpt><trkpt lat="45.094765" lon="11.66339"><ele>5.0</ele><time>2026-04-26T18:04:42.859Z</time></trkpt><trkpt lat="45.0949699" lon="11.6635331"><ele>4.5</ele><time>2026-04-26T18:04:43.86Z</time></trkpt><trkpt lat="45.0951751" lon="11.6636825"><ele>4.0</ele><time>2026-04-26T18:04:44.859Z</time></trkpt><trkpt lat="45.0953797" lon="11.6638296"><ele>4.0</ele><time>2026-04-26T18:04:45.859Z</time></trkpt><trkpt lat="45.0955798" lon="11.6639706"><ele>4.0</ele><time>2026-04-26T18:04:46.859Z</time></trkpt><trkpt lat="45.0957655" lon="11.6641046"><ele>4.0</ele><time>2026-04-26T18:04:47.86Z</time></trkpt><trkpt lat="45.0959352" lon="11.6642221"><ele>4.25</ele><time>2026-04-26T18:04:48.859Z</time></trkpt><trkpt lat="45.0960831" lon="11.6643152"><ele>4.5</ele><time>2026-04-26T18:04:49.86Z</time></trkpt><trkpt lat="45.096208" lon="11.6643995"><ele>4.75</ele><time>2026-04-26T18:04:50.86Z</time></trkpt><trkpt lat="45.0963118" lon="11.6644856"><ele>5.0</ele><time>2026-04-26T18:04:51.86Z</time></trkpt><trkpt lat="45.0963925" lon="11.6645985"><ele>5.0</ele><time>2026-04-26T18:04:52.86Z</time></trkpt><trkpt lat="45.0964476" lon="11.6647192"><ele>5.0</ele><time>2026-04-26T18:04:53.859Z</time></trkpt><trkpt lat="45.0965025" lon="11.6648231"><ele>5.0</ele><time>2026-04-26T18:04:54.86Z</time></trkpt><trkpt lat="45.0965652" lon="11.6649155"><ele>5.0</ele><time>2026-04-26T18:04:55.859Z</time></trkpt><trkpt lat="45.0966486" lon="11.6649427"><ele>5.0</ele><time>2026-04-26T18:04:56.86Z</time></trkpt><trkpt lat="45.0967475" lon="11.6649524"><ele>5.5</ele><time>2026-04-26T18:04:57.86Z</time></trkpt><trkpt lat="45.0968601" lon="11.6649693"><ele>6.0</ele><time>2026-04-26T18:04:58.859Z</time></trkpt><trkpt lat="45.0969921" lon="11.6650153"><ele>6.5</ele><time>2026-04-26T18:04:59.86Z</time></trkpt><trkpt lat="45.0971324" lon="11.6650873"><ele>7.0</ele><time>2026-04-26T18:05:00.859Z</time></trkpt><trkpt lat="45.0972686" lon="11.6651756"><ele>7.0</ele><time>2026-04-26T18:05:01.859Z</time></trkpt><trkpt lat="45.0973875" lon="11.6652522"><ele>6.999999999999999</ele><time>2026-04-26T18:05:02.859Z</time></trkpt><trkpt lat="45.0974888" lon="11.6653094"><ele>6.999999999999999</ele><time>2026-04-26T18:05:03.86Z</time></trkpt><trkpt lat="45.0975815" lon="11.6653197"><ele>7.0</ele><time>2026-04-26T18:05:04.859Z</time></trkpt><trkpt lat="45.0976722" lon="11.665308"><ele>7.0</ele><time>2026-04-26T18:05:05.859Z</time></trkpt><trkpt lat="45.0977642" lon="11.6652592"><ele>7.0</ele><time>2026-04-26T18:05:06.859Z</time></trkpt><trkpt lat="45.0978621" lon="11.6651998"><ele>7.0</ele><time>2026-04-26T18:05:07.859Z</time></trkpt><trkpt lat="45.0979832" lon="11.6651016"><ele>7.0</ele><time>2026-04-26T18:05:08.86Z</time></trkpt><trkpt lat="45.0981147" lon="11.6650044"><ele>7.0</ele><time>2026-04-26T18:05:09.859Z</time></trkpt><trkpt lat="45.098245" lon="11.6649023"><ele>7.333333333333334</ele><time>2026-04-26T18:05:10.86Z</time></trkpt><trkpt lat="45.0983771" lon="11.664791"><ele>7.666666666666666</ele><time>2026-04-26T18:05:11.86Z</time></trkpt><trkpt lat="45.098507" lon="11.6646844"><ele>8.0</ele><time>2026-04-26T18:05:12.86Z</time></trkpt><trkpt lat="45.0986362" lon="11.664583"><ele>8.0</ele><time>2026-04-26T18:05:13.86Z</time></trkpt><trkpt lat="45.0987665" lon="11.6644767"><ele>8.0</ele><time>2026-04-26T18:05:14.86Z</time></trkpt><trkpt lat="45.098892" lon="11.6643733"><ele>8.0</ele><time>2026-04-26T18:05:15.86Z</time></trkpt><trkpt lat="45.0990152" lon="11.6642667"><ele>8.0</ele><time>2026-04-26T18:05:16.859Z</time></trkpt><trkpt lat="45.0991318" lon="11.6641668"><ele>8.0</ele><time>2026-04-26T18:05:17.859Z</time></trkpt><trkpt lat="45.0992525" lon="11.6640664"><ele>8.0</ele><time>2026-04-26T18:05:18.86Z</time></trkpt><trkpt lat="45.0993713" lon="11.6639666"><ele>8.0</ele><time>2026-04-26T18:05:19.859Z</time></trkpt><trkpt lat="45.0994907" lon="11.663872"><ele>8.0</ele><time>2026-04-26T18:05:20.86Z</time></trkpt><trkpt lat="45.0996114" lon="11.663777"><ele>8.0</ele><time>2026-04-26T18:05:21.859Z</time></trkpt><trkpt lat="45.0997346" lon="11.6636891"><ele>8.0</ele><time>2026-04-26T18:05:22.86Z</time></trkpt><trkpt lat="45.0998463" lon="11.6636051"><ele>8.0</ele><time>2026-04-26T18:05:23.859Z</time></trkpt><trkpt lat="45.0999456" lon="11.6635259"><ele>8.0</ele><time>2026-04-26T18:05:24.86Z</time></trkpt><trkpt lat="45.1000337" lon="11.663446"><ele>7.999999999999999</ele><time>2026-04-26T18:05:25.859Z</time></trkpt><trkpt lat="45.100118" lon="11.6633833"><ele>8.0</ele><time>2026-04-26T18:05:26.859Z</time></trkpt><trkpt lat="45.1001801" lon="11.6633418"><ele>8.0</ele><time>2026-04-26T18:05:27.859Z</time></trkpt><trkpt lat="45.1002429" lon="11.6632858"><ele>8.0</ele><time>2026-04-26T18:05:29.86Z</time></trkpt><trkpt lat="45.1002469" lon="11.6631072"><ele>7.999999999999999</ele><time>2026-04-26T18:05:32.86Z</time></trkpt><trkpt lat="45.1002113" lon="11.6630035"><ele>8.0</ele><time>2026-04-26T18:05:33.859Z</time></trkpt><trkpt lat="45.1001756" lon="11.6629131"><ele>7.999999999999999</ele><time>2026-04-26T18:05:34.86Z</time></trkpt><trkpt lat="45.1001888" lon="11.6627754"><ele>8.0</ele><time>2026-04-26T18:05:36.859Z</time></trkpt><trkpt lat="45.1002415" lon="11.6627084"><ele>8.0</ele><time>2026-04-26T18:05:37.86Z</time></trkpt><trkpt lat="45.1003024" lon="11.6626367"><ele>8.0</ele><time>2026-04-26T18:05:38.859Z</time></trkpt><trkpt lat="45.1003777" lon="11.6625785"><ele>7.999999999999999</ele><time>2026-04-26T18:05:39.859Z</time></trkpt><trkpt lat="45.1004426" lon="11.6625515"><ele>8.0</ele><time>2026-04-26T18:05:40.86Z</time></trkpt><trkpt lat="45.1005058" lon="11.6625723"><ele>8.0</ele><time>2026-04-26T18:05:41.859Z</time></trkpt><trkpt lat="45.1005788" lon="11.6626961"><ele>8.0</ele><time>2026-04-26T18:05:43.86Z</time></trkpt><trkpt lat="45.1006096" lon="11.6627833"><ele>8.0</ele><time>2026-04-26T18:05:44.86Z</time></trkpt><trkpt lat="45.1006986" lon="11.662873"><ele>8.0</ele><time>2026-04-26T18:05:46.86Z</time></trkpt><trkpt lat="45.1008133" lon="11.6628368"><ele>8.0</ele><time>2026-04-26T18:05:48.86Z</time></trkpt><trkpt lat="45.100889" lon="11.6627693"><ele>8.25</ele><time>2026-04-26T18:05:49.859Z</time></trkpt><trkpt lat="45.1009682" lon="11.662709"><ele>8.5</ele><time>2026-04-26T18:05:50.859Z</time></trkpt><trkpt lat="45.101059" lon="11.6626416"><ele>8.75</ele><time>2026-04-26T18:05:51.86Z</time></trkpt><trkpt lat="45.1011673" lon="11.6625625"><ele>9.0</ele><time>2026-04-26T18:05:52.86Z</time></trkpt><trkpt lat="45.1012881" lon="11.6624621"><ele>9.0</ele><time>2026-04-26T18:05:53.86Z</time></trkpt><trkpt lat="45.1014149" lon="11.6623504"><ele>9.0</ele><time>2026-04-26T18:05:54.86Z</time></trkpt><trkpt lat="45.1015565" lon="11.662231"><ele>9.0</ele><time>2026-04-26T18:05:55.859Z</time></trkpt><trkpt lat="45.1016971" lon="11.6621238"><ele>8.666666666666666</ele><time>2026-04-26T18:05:56.86Z</time></trkpt><trkpt lat="45.1018417" lon="11.6620143"><ele>8.333333333333332</ele><time>2026-04-26T18:05:57.86Z</time></trkpt><trkpt lat="45.1019924" lon="11.6619026"><ele>8.0</ele><time>2026-04-26T18:05:58.86Z</time></trkpt><trkpt lat="45.1021299" lon="11.6618037"><ele>8.0</ele><time>2026-04-26T18:05:59.86Z</time></trkpt><trkpt lat="45.1022431" lon="11.6617324"><ele>8.0</ele><time>2026-04-26T18:06:00.86Z</time></trkpt><trkpt lat="45.1023464" lon="11.6616598"><ele>8.0</ele><time>2026-04-26T18:06:01.86Z</time></trkpt><trkpt lat="45.1024446" lon="11.661578"><ele>8.0</ele><time>2026-04-26T18:06:02.86Z</time></trkpt><trkpt lat="45.102532" lon="11.6614949"><ele>7.800000000000001</ele><time>2026-04-26T18:06:03.859Z</time></trkpt><trkpt lat="45.1026329" lon="11.6614197"><ele>7.6000000000000005</ele><time>2026-04-26T18:06:04.859Z</time></trkpt><trkpt lat="45.1027203" lon="11.6613409"><ele>7.3999999999999995</ele><time>2026-04-26T18:06:05.859Z</time></trkpt><trkpt lat="45.1027881" lon="11.6612829"><ele>7.199999999999999</ele><time>2026-04-26T18:06:06.859Z</time></trkpt><trkpt lat="45.1028407" lon="11.6612275"><ele>7.0</ele><time>2026-04-26T18:06:07.859Z</time></trkpt><trkpt lat="45.1028627" lon="11.6610665"><ele>7.0</ele><time>2026-04-26T18:06:09.859Z</time></trkpt><trkpt lat="45.1028606" lon="11.6609333"><ele>7.0</ele><time>2026-04-26T18:06:10.859Z</time></trkpt><trkpt lat="45.1028724" lon="11.6607609"><ele>7.0</ele><time>2026-04-26T18:06:11.86Z</time></trkpt><trkpt lat="45.1028809" lon="11.6605646"><ele>7.0</ele><time>2026-04-26T18:06:12.86Z</time></trkpt><trkpt lat="45.1028901" lon="11.660382"><ele>6.6</ele><time>2026-04-26T18:06:13.859Z</time></trkpt><trkpt lat="45.1028985" lon="11.6602159"><ele>6.199999999999999</ele><time>2026-04-26T18:06:14.86Z</time></trkpt><trkpt lat="45.1029" lon="11.660075"><ele>5.8</ele><time>2026-04-26T18:06:15.859Z</time></trkpt><trkpt lat="45.1028985" lon="11.6599371"><ele>5.4</ele><time>2026-04-26T18:06:16.86Z</time></trkpt><trkpt lat="45.102899" lon="11.6598003"><ele>5.0</ele><time>2026-04-26T18:06:17.859Z</time></trkpt><trkpt lat="45.102908" lon="11.6596559"><ele>5.0</ele><time>2026-04-26T18:06:18.859Z</time></trkpt><trkpt lat="45.1029155" lon="11.6595099"><ele>5.0</ele><time>2026-04-26T18:06:19.86Z</time></trkpt><trkpt lat="45.1029262" lon="11.6593606"><ele>5.0</ele><time>2026-04-26T18:06:20.859Z</time></trkpt><trkpt lat="45.1029342" lon="11.6592292"><ele>5.0</ele><time>2026-04-26T18:06:21.859Z</time></trkpt><trkpt lat="45.1029433" lon="11.6591143"><ele>5.0</ele><time>2026-04-26T18:06:22.859Z</time></trkpt><trkpt lat="45.1029484" lon="11.6590115"><ele>5.0</ele><time>2026-04-26T18:06:23.86Z</time></trkpt><trkpt lat="45.1029526" lon="11.6588709"><ele>5.0</ele><time>2026-04-26T18:06:25.859Z</time></trkpt><trkpt lat="45.1029526" lon="11.6588709"><ele>5.0</ele><time>2026-04-26T18:06:25.859Z</time></trkpt></trkseg></trk></gpx>